<?xml version="1.0" encoding="utf-8"?>
<gpx xmlns:xsi="http://www.w3.org/2001/XMLSchema-instance" xmlns:xsd="http://www.w3.org/2001/XMLSchema" version="1.1" creator="Shapelink.com" xmlns="http://www.topografix.com/GPX/1/1" xmlns:gpxtpx="http://www.garmin.com/xmlschemas/TrackPointExtension/v1">
  <metadata>
    <name>Mtb 32.98 km, 2014-06-06</name>
    <desc></desc>
    <author><name>Mikael Blom</name></author> 
    <time>2014-06-06T12:34:08Z</time>
  </metadata>
  <trk>
    <name>Mtb 32.98 km, 2014-06-06</name>
    <trkseg>
      <trkpt lat="59.9789065" lon="17.7393854">
        <ele>30.8995</ele>
        <time>2014-06-06T12:34:08Z</time>
      </trkpt>
      <trkpt lat="59.9788975" lon="17.739358">
        <ele>30.8995</ele>
        <time>2014-06-06T12:34:09Z</time>
      </trkpt>
      <trkpt lat="59.9788841" lon="17.7393319">
        <ele>30.8995</ele>
        <time>2014-06-06T12:34:10Z</time>
      </trkpt>
      <trkpt lat="59.9788656" lon="17.7393101">
        <ele>31.3801</ele>
        <time>2014-06-06T12:34:11Z</time>
      </trkpt>
      <trkpt lat="59.9788383" lon="17.7392976">
        <ele>30.8995</ele>
        <time>2014-06-06T12:34:12Z</time>
      </trkpt>
      <trkpt lat="59.9788077" lon="17.7392948">
        <ele>30.4188</ele>
        <time>2014-06-06T12:34:13Z</time>
      </trkpt>
      <trkpt lat="59.9787765" lon="17.7393054">
        <ele>30.4188</ele>
        <time>2014-06-06T12:34:14Z</time>
      </trkpt>
      <trkpt lat="59.9787448" lon="17.7393143">
        <ele>30.4188</ele>
        <time>2014-06-06T12:34:15Z</time>
      </trkpt>
      <trkpt lat="59.9787158" lon="17.7393178">
        <ele>30.4188</ele>
        <time>2014-06-06T12:34:16Z</time>
      </trkpt>
      <trkpt lat="59.978696" lon="17.7393166">
        <ele>29.9381</ele>
        <time>2014-06-06T12:34:17Z</time>
      </trkpt>
      <trkpt lat="59.9786868" lon="17.7393181">
        <ele>29.9381</ele>
        <time>2014-06-06T12:34:18Z</time>
      </trkpt>
      <trkpt lat="59.9786779" lon="17.7393329">
        <ele>29.9381</ele>
        <time>2014-06-06T12:34:19Z</time>
      </trkpt>
      <trkpt lat="59.9786732" lon="17.7393429">
        <ele>29.4575</ele>
        <time>2014-06-06T12:34:20Z</time>
      </trkpt>
      <trkpt lat="59.9786652" lon="17.7393547">
        <ele>28.9769</ele>
        <time>2014-06-06T12:34:21Z</time>
      </trkpt>
      <trkpt lat="59.9786553" lon="17.7393699">
        <ele>28.0155</ele>
        <time>2014-06-06T12:34:22Z</time>
      </trkpt>
      <trkpt lat="59.978646" lon="17.7393707">
        <ele>28.0155</ele>
        <time>2014-06-06T12:34:23Z</time>
      </trkpt>
      <trkpt lat="59.9786368" lon="17.7393674">
        <ele>28.4962</ele>
        <time>2014-06-06T12:34:24Z</time>
      </trkpt>
      <trkpt lat="59.9786211" lon="17.7393656">
        <ele>28.0155</ele>
        <time>2014-06-06T12:34:25Z</time>
      </trkpt>
      <trkpt lat="59.9785976" lon="17.7393568">
        <ele>28.0155</ele>
        <time>2014-06-06T12:34:26Z</time>
      </trkpt>
      <trkpt lat="59.9785707" lon="17.7393465">
        <ele>28.4962</ele>
        <time>2014-06-06T12:34:27Z</time>
      </trkpt>
      <trkpt lat="59.9785439" lon="17.7393377">
        <ele>28.4962</ele>
        <time>2014-06-06T12:34:28Z</time>
      </trkpt>
      <trkpt lat="59.9785165" lon="17.7393247">
        <ele>28.9769</ele>
        <time>2014-06-06T12:34:29Z</time>
      </trkpt>
      <trkpt lat="59.9784885" lon="17.7393113">
        <ele>29.4575</ele>
        <time>2014-06-06T12:34:30Z</time>
      </trkpt>
      <trkpt lat="59.9784555" lon="17.7393061">
        <ele>29.4575</ele>
        <time>2014-06-06T12:34:31Z</time>
      </trkpt>
      <trkpt lat="59.9784218" lon="17.7393072">
        <ele>29.4575</ele>
        <time>2014-06-06T12:34:32Z</time>
      </trkpt>
      <trkpt lat="59.9783895" lon="17.7393072">
        <ele>29.4575</ele>
        <time>2014-06-06T12:34:33Z</time>
      </trkpt>
      <trkpt lat="59.9783568" lon="17.7393062">
        <ele>29.4575</ele>
        <time>2014-06-06T12:34:34Z</time>
      </trkpt>
      <trkpt lat="59.9783213" lon="17.7393076">
        <ele>29.4575</ele>
        <time>2014-06-06T12:34:35Z</time>
      </trkpt>
      <trkpt lat="59.9782875" lon="17.7393155">
        <ele>29.9381</ele>
        <time>2014-06-06T12:34:36Z</time>
      </trkpt>
      <trkpt lat="59.9782527" lon="17.7393272">
        <ele>29.9381</ele>
        <time>2014-06-06T12:34:37Z</time>
      </trkpt>
      <trkpt lat="59.978214" lon="17.7393362">
        <ele>29.4575</ele>
        <time>2014-06-06T12:34:38Z</time>
      </trkpt>
      <trkpt lat="59.9781754" lon="17.7393527">
        <ele>29.4575</ele>
        <time>2014-06-06T12:34:39Z</time>
      </trkpt>
      <trkpt lat="59.9781367" lon="17.7393591">
        <ele>29.4575</ele>
        <time>2014-06-06T12:34:40Z</time>
      </trkpt>
      <trkpt lat="59.978097" lon="17.7393427">
        <ele>29.4575</ele>
        <time>2014-06-06T12:34:41Z</time>
      </trkpt>
      <trkpt lat="59.9780561" lon="17.7393253">
        <ele>29.4575</ele>
        <time>2014-06-06T12:34:42Z</time>
      </trkpt>
      <trkpt lat="59.9780124" lon="17.7393098">
        <ele>28.9769</ele>
        <time>2014-06-06T12:34:43Z</time>
      </trkpt>
      <trkpt lat="59.9779636" lon="17.7392813">
        <ele>28.9769</ele>
        <time>2014-06-06T12:34:44Z</time>
      </trkpt>
      <trkpt lat="59.9779098" lon="17.7392384">
        <ele>28.9769</ele>
        <time>2014-06-06T12:34:45Z</time>
      </trkpt>
      <trkpt lat="59.9778529" lon="17.7392031">
        <ele>28.9769</ele>
        <time>2014-06-06T12:34:46Z</time>
      </trkpt>
      <trkpt lat="59.9777929" lon="17.7391719">
        <ele>28.9769</ele>
        <time>2014-06-06T12:34:47Z</time>
      </trkpt>
      <trkpt lat="59.9777321" lon="17.7391461">
        <ele>28.9769</ele>
        <time>2014-06-06T12:34:48Z</time>
      </trkpt>
      <trkpt lat="59.9776699" lon="17.7391267">
        <ele>28.4962</ele>
        <time>2014-06-06T12:34:49Z</time>
      </trkpt>
      <trkpt lat="59.977603" lon="17.7391125">
        <ele>28.4962</ele>
        <time>2014-06-06T12:34:50Z</time>
      </trkpt>
      <trkpt lat="59.9775065" lon="17.7390693">
        <ele>28.9769</ele>
        <time>2014-06-06T12:34:51Z</time>
      </trkpt>
      <trkpt lat="59.9774225" lon="17.7390635">
        <ele>28.4962</ele>
        <time>2014-06-06T12:34:52Z</time>
      </trkpt>
      <trkpt lat="59.9773596" lon="17.7391005">
        <ele>28.4962</ele>
        <time>2014-06-06T12:34:53Z</time>
      </trkpt>
      <trkpt lat="59.9772955" lon="17.7391156">
        <ele>28.0155</ele>
        <time>2014-06-06T12:34:54Z</time>
      </trkpt>
      <trkpt lat="59.9772235" lon="17.7391471">
        <ele>28.0155</ele>
        <time>2014-06-06T12:34:55Z</time>
      </trkpt>
      <trkpt lat="59.9771505" lon="17.7391754">
        <ele>28.0155</ele>
        <time>2014-06-06T12:34:56Z</time>
      </trkpt>
      <trkpt lat="59.9770764" lon="17.7392142">
        <ele>28.0155</ele>
        <time>2014-06-06T12:34:57Z</time>
      </trkpt>
      <trkpt lat="59.9770037" lon="17.7392489">
        <ele>28.0155</ele>
        <time>2014-06-06T12:34:58Z</time>
      </trkpt>
      <trkpt lat="59.9769319" lon="17.7392802">
        <ele>28.0155</ele>
        <time>2014-06-06T12:34:59Z</time>
      </trkpt>
      <trkpt lat="59.9768618" lon="17.7393087">
        <ele>27.5349</ele>
        <time>2014-06-06T12:35:00Z</time>
      </trkpt>
      <trkpt lat="59.9767887" lon="17.7393367">
        <ele>27.5349</ele>
        <time>2014-06-06T12:35:01Z</time>
      </trkpt>
      <trkpt lat="59.9767158" lon="17.7393693">
        <ele>27.5349</ele>
        <time>2014-06-06T12:35:02Z</time>
      </trkpt>
      <trkpt lat="59.9766437" lon="17.7394087">
        <ele>27.0543</ele>
        <time>2014-06-06T12:35:03Z</time>
      </trkpt>
      <trkpt lat="59.9765749" lon="17.7394588">
        <ele>26.5736</ele>
        <time>2014-06-06T12:35:04Z</time>
      </trkpt>
      <trkpt lat="59.9765101" lon="17.7395271">
        <ele>26.5736</ele>
        <time>2014-06-06T12:35:05Z</time>
      </trkpt>
      <trkpt lat="59.9764416" lon="17.7396022">
        <ele>26.5736</ele>
        <time>2014-06-06T12:35:06Z</time>
      </trkpt>
      <trkpt lat="59.9763819" lon="17.7396911">
        <ele>26.5736</ele>
        <time>2014-06-06T12:35:07Z</time>
      </trkpt>
      <trkpt lat="59.9763173" lon="17.7397556">
        <ele>26.5736</ele>
        <time>2014-06-06T12:35:08Z</time>
      </trkpt>
      <trkpt lat="59.9762517" lon="17.7397748">
        <ele>26.5736</ele>
        <time>2014-06-06T12:35:09Z</time>
      </trkpt>
      <trkpt lat="59.9761842" lon="17.7397433">
        <ele>26.0929</ele>
        <time>2014-06-06T12:35:10Z</time>
      </trkpt>
      <trkpt lat="59.976119" lon="17.739663">
        <ele>25.6123</ele>
        <time>2014-06-06T12:35:11Z</time>
      </trkpt>
      <trkpt lat="59.9760568" lon="17.7395482">
        <ele>24.651</ele>
        <time>2014-06-06T12:35:12Z</time>
      </trkpt>
      <trkpt lat="59.9759954" lon="17.7394201">
        <ele>24.1703</ele>
        <time>2014-06-06T12:35:13Z</time>
      </trkpt>
      <trkpt lat="59.9759301" lon="17.7392928">
        <ele>23.6896</ele>
        <time>2014-06-06T12:35:14Z</time>
      </trkpt>
      <trkpt lat="59.9758606" lon="17.7391539">
        <ele>23.209</ele>
        <time>2014-06-06T12:35:15Z</time>
      </trkpt>
      <trkpt lat="59.9757895" lon="17.7390221">
        <ele>23.209</ele>
        <time>2014-06-06T12:35:16Z</time>
      </trkpt>
      <trkpt lat="59.9757203" lon="17.7389">
        <ele>23.209</ele>
        <time>2014-06-06T12:35:17Z</time>
      </trkpt>
      <trkpt lat="59.9756527" lon="17.7387757">
        <ele>22.7283</ele>
        <time>2014-06-06T12:35:18Z</time>
      </trkpt>
      <trkpt lat="59.9755875" lon="17.7386481">
        <ele>22.7283</ele>
        <time>2014-06-06T12:35:19Z</time>
      </trkpt>
      <trkpt lat="59.9755229" lon="17.7385214">
        <ele>22.7283</ele>
        <time>2014-06-06T12:35:20Z</time>
      </trkpt>
      <trkpt lat="59.9754587" lon="17.7383986">
        <ele>22.7283</ele>
        <time>2014-06-06T12:35:21Z</time>
      </trkpt>
      <trkpt lat="59.9753948" lon="17.7382795">
        <ele>22.7283</ele>
        <time>2014-06-06T12:35:22Z</time>
      </trkpt>
      <trkpt lat="59.9753318" lon="17.7381603">
        <ele>22.7283</ele>
        <time>2014-06-06T12:35:23Z</time>
      </trkpt>
      <trkpt lat="59.9752696" lon="17.7380461">
        <ele>23.209</ele>
        <time>2014-06-06T12:35:24Z</time>
      </trkpt>
      <trkpt lat="59.9752077" lon="17.7379369">
        <ele>23.209</ele>
        <time>2014-06-06T12:35:25Z</time>
      </trkpt>
      <trkpt lat="59.9751467" lon="17.7378329">
        <ele>23.209</ele>
        <time>2014-06-06T12:35:26Z</time>
      </trkpt>
      <trkpt lat="59.9750872" lon="17.7377304">
        <ele>23.209</ele>
        <time>2014-06-06T12:35:27Z</time>
      </trkpt>
      <trkpt lat="59.9750288" lon="17.7376277">
        <ele>22.7283</ele>
        <time>2014-06-06T12:35:28Z</time>
      </trkpt>
      <trkpt lat="59.9749721" lon="17.7375225">
        <ele>22.7283</ele>
        <time>2014-06-06T12:35:29Z</time>
      </trkpt>
      <trkpt lat="59.9749171" lon="17.737414">
        <ele>22.7283</ele>
        <time>2014-06-06T12:35:30Z</time>
      </trkpt>
      <trkpt lat="59.9748643" lon="17.7373025">
        <ele>22.7283</ele>
        <time>2014-06-06T12:35:31Z</time>
      </trkpt>
      <trkpt lat="59.9748138" lon="17.7371878">
        <ele>22.7283</ele>
        <time>2014-06-06T12:35:32Z</time>
      </trkpt>
      <trkpt lat="59.9747651" lon="17.7370702">
        <ele>22.7283</ele>
        <time>2014-06-06T12:35:33Z</time>
      </trkpt>
      <trkpt lat="59.974719" lon="17.7369548">
        <ele>22.2476</ele>
        <time>2014-06-06T12:35:34Z</time>
      </trkpt>
      <trkpt lat="59.9746738" lon="17.7368394">
        <ele>22.2476</ele>
        <time>2014-06-06T12:35:35Z</time>
      </trkpt>
      <trkpt lat="59.9746317" lon="17.7367205">
        <ele>22.2476</ele>
        <time>2014-06-06T12:35:36Z</time>
      </trkpt>
      <trkpt lat="59.9745937" lon="17.7365984">
        <ele>22.2476</ele>
        <time>2014-06-06T12:35:37Z</time>
      </trkpt>
      <trkpt lat="59.9745588" lon="17.7364752">
        <ele>22.2476</ele>
        <time>2014-06-06T12:35:38Z</time>
      </trkpt>
      <trkpt lat="59.9745261" lon="17.7363523">
        <ele>22.2476</ele>
        <time>2014-06-06T12:35:39Z</time>
      </trkpt>
      <trkpt lat="59.9744956" lon="17.7362279">
        <ele>22.2476</ele>
        <time>2014-06-06T12:35:40Z</time>
      </trkpt>
      <trkpt lat="59.9744682" lon="17.7361024">
        <ele>21.767</ele>
        <time>2014-06-06T12:35:41Z</time>
      </trkpt>
      <trkpt lat="59.9744412" lon="17.7359737">
        <ele>21.767</ele>
        <time>2014-06-06T12:35:42Z</time>
      </trkpt>
      <trkpt lat="59.9744145" lon="17.7358441">
        <ele>21.767</ele>
        <time>2014-06-06T12:35:43Z</time>
      </trkpt>
      <trkpt lat="59.9743896" lon="17.7357125">
        <ele>21.767</ele>
        <time>2014-06-06T12:35:44Z</time>
      </trkpt>
      <trkpt lat="59.9743672" lon="17.7355801">
        <ele>21.2864</ele>
        <time>2014-06-06T12:35:45Z</time>
      </trkpt>
      <trkpt lat="59.9743481" lon="17.7354454">
        <ele>21.2864</ele>
        <time>2014-06-06T12:35:46Z</time>
      </trkpt>
      <trkpt lat="59.9743311" lon="17.7353087">
        <ele>20.8057</ele>
        <time>2014-06-06T12:35:47Z</time>
      </trkpt>
      <trkpt lat="59.9743166" lon="17.7351698">
        <ele>20.8057</ele>
        <time>2014-06-06T12:35:48Z</time>
      </trkpt>
      <trkpt lat="59.9743045" lon="17.7350283">
        <ele>20.325</ele>
        <time>2014-06-06T12:35:49Z</time>
      </trkpt>
      <trkpt lat="59.9742942" lon="17.7348859">
        <ele>20.325</ele>
        <time>2014-06-06T12:35:50Z</time>
      </trkpt>
      <trkpt lat="59.9742855" lon="17.734743">
        <ele>19.8444</ele>
        <time>2014-06-06T12:35:51Z</time>
      </trkpt>
      <trkpt lat="59.9742793" lon="17.7346">
        <ele>19.8444</ele>
        <time>2014-06-06T12:35:52Z</time>
      </trkpt>
      <trkpt lat="59.9742761" lon="17.7344566">
        <ele>19.8444</ele>
        <time>2014-06-06T12:35:53Z</time>
      </trkpt>
      <trkpt lat="59.9742762" lon="17.7343141">
        <ele>19.8444</ele>
        <time>2014-06-06T12:35:54Z</time>
      </trkpt>
      <trkpt lat="59.9742805" lon="17.7341701">
        <ele>19.8444</ele>
        <time>2014-06-06T12:35:55Z</time>
      </trkpt>
      <trkpt lat="59.9742867" lon="17.7340301">
        <ele>19.8444</ele>
        <time>2014-06-06T12:35:56Z</time>
      </trkpt>
      <trkpt lat="59.9742947" lon="17.7338929">
        <ele>19.8444</ele>
        <time>2014-06-06T12:35:57Z</time>
      </trkpt>
      <trkpt lat="59.9743047" lon="17.7337578">
        <ele>20.325</ele>
        <time>2014-06-06T12:35:58Z</time>
      </trkpt>
      <trkpt lat="59.9743149" lon="17.7336232">
        <ele>20.325</ele>
        <time>2014-06-06T12:35:59Z</time>
      </trkpt>
      <trkpt lat="59.9743235" lon="17.7334899">
        <ele>20.325</ele>
        <time>2014-06-06T12:36:00Z</time>
      </trkpt>
      <trkpt lat="59.9743302" lon="17.7333567">
        <ele>20.325</ele>
        <time>2014-06-06T12:36:01Z</time>
      </trkpt>
      <trkpt lat="59.9743352" lon="17.7332261">
        <ele>20.325</ele>
        <time>2014-06-06T12:36:02Z</time>
      </trkpt>
      <trkpt lat="59.9743411" lon="17.7330953">
        <ele>20.325</ele>
        <time>2014-06-06T12:36:03Z</time>
      </trkpt>
      <trkpt lat="59.9743459" lon="17.7329636">
        <ele>20.8057</ele>
        <time>2014-06-06T12:36:04Z</time>
      </trkpt>
      <trkpt lat="59.9743491" lon="17.732832">
        <ele>20.8057</ele>
        <time>2014-06-06T12:36:05Z</time>
      </trkpt>
      <trkpt lat="59.9743512" lon="17.7327016">
        <ele>20.8057</ele>
        <time>2014-06-06T12:36:06Z</time>
      </trkpt>
      <trkpt lat="59.9743517" lon="17.7325732">
        <ele>20.8057</ele>
        <time>2014-06-06T12:36:07Z</time>
      </trkpt>
      <trkpt lat="59.97435" lon="17.7324467">
        <ele>20.8057</ele>
        <time>2014-06-06T12:36:08Z</time>
      </trkpt>
      <trkpt lat="59.9743475" lon="17.7323213">
        <ele>20.8057</ele>
        <time>2014-06-06T12:36:09Z</time>
      </trkpt>
      <trkpt lat="59.9743454" lon="17.7321955">
        <ele>20.8057</ele>
        <time>2014-06-06T12:36:10Z</time>
      </trkpt>
      <trkpt lat="59.974344" lon="17.7320688">
        <ele>20.8057</ele>
        <time>2014-06-06T12:36:11Z</time>
      </trkpt>
      <trkpt lat="59.9743427" lon="17.7319411">
        <ele>21.2864</ele>
        <time>2014-06-06T12:36:12Z</time>
      </trkpt>
      <trkpt lat="59.9743411" lon="17.7318132">
        <ele>21.2864</ele>
        <time>2014-06-06T12:36:13Z</time>
      </trkpt>
      <trkpt lat="59.9743398" lon="17.7316856">
        <ele>21.2864</ele>
        <time>2014-06-06T12:36:14Z</time>
      </trkpt>
      <trkpt lat="59.9743392" lon="17.7315588">
        <ele>21.2864</ele>
        <time>2014-06-06T12:36:15Z</time>
      </trkpt>
      <trkpt lat="59.9743406" lon="17.7314324">
        <ele>21.2864</ele>
        <time>2014-06-06T12:36:16Z</time>
      </trkpt>
      <trkpt lat="59.9743453" lon="17.7313071">
        <ele>21.2864</ele>
        <time>2014-06-06T12:36:17Z</time>
      </trkpt>
      <trkpt lat="59.9743518" lon="17.7311828">
        <ele>21.767</ele>
        <time>2014-06-06T12:36:18Z</time>
      </trkpt>
      <trkpt lat="59.9743584" lon="17.731059">
        <ele>21.767</ele>
        <time>2014-06-06T12:36:19Z</time>
      </trkpt>
      <trkpt lat="59.9743649" lon="17.7309357">
        <ele>21.767</ele>
        <time>2014-06-06T12:36:20Z</time>
      </trkpt>
      <trkpt lat="59.9743719" lon="17.7308128">
        <ele>22.2476</ele>
        <time>2014-06-06T12:36:21Z</time>
      </trkpt>
      <trkpt lat="59.9743803" lon="17.7306902">
        <ele>22.2476</ele>
        <time>2014-06-06T12:36:22Z</time>
      </trkpt>
      <trkpt lat="59.9743898" lon="17.7305683">
        <ele>22.2476</ele>
        <time>2014-06-06T12:36:23Z</time>
      </trkpt>
      <trkpt lat="59.9744003" lon="17.7304471">
        <ele>22.2476</ele>
        <time>2014-06-06T12:36:24Z</time>
      </trkpt>
      <trkpt lat="59.9744113" lon="17.7303264">
        <ele>22.7283</ele>
        <time>2014-06-06T12:36:25Z</time>
      </trkpt>
      <trkpt lat="59.9744225" lon="17.7302055">
        <ele>22.7283</ele>
        <time>2014-06-06T12:36:26Z</time>
      </trkpt>
      <trkpt lat="59.9744329" lon="17.7300849">
        <ele>22.7283</ele>
        <time>2014-06-06T12:36:27Z</time>
      </trkpt>
      <trkpt lat="59.9744426" lon="17.7299653">
        <ele>22.7283</ele>
        <time>2014-06-06T12:36:28Z</time>
      </trkpt>
      <trkpt lat="59.974451" lon="17.7298447">
        <ele>22.7283</ele>
        <time>2014-06-06T12:36:29Z</time>
      </trkpt>
      <trkpt lat="59.9744588" lon="17.7297228">
        <ele>22.7283</ele>
        <time>2014-06-06T12:36:30Z</time>
      </trkpt>
      <trkpt lat="59.9744656" lon="17.7295997">
        <ele>22.7283</ele>
        <time>2014-06-06T12:36:31Z</time>
      </trkpt>
      <trkpt lat="59.9744708" lon="17.7294765">
        <ele>22.7283</ele>
        <time>2014-06-06T12:36:32Z</time>
      </trkpt>
      <trkpt lat="59.9744742" lon="17.7293526">
        <ele>22.7283</ele>
        <time>2014-06-06T12:36:33Z</time>
      </trkpt>
      <trkpt lat="59.9744745" lon="17.7292273">
        <ele>22.7283</ele>
        <time>2014-06-06T12:36:34Z</time>
      </trkpt>
      <trkpt lat="59.9744719" lon="17.7291011">
        <ele>22.7283</ele>
        <time>2014-06-06T12:36:35Z</time>
      </trkpt>
      <trkpt lat="59.974468" lon="17.7289739">
        <ele>22.7283</ele>
        <time>2014-06-06T12:36:36Z</time>
      </trkpt>
      <trkpt lat="59.9744636" lon="17.7288454">
        <ele>22.7283</ele>
        <time>2014-06-06T12:36:37Z</time>
      </trkpt>
      <trkpt lat="59.9744599" lon="17.7287158">
        <ele>22.2476</ele>
        <time>2014-06-06T12:36:38Z</time>
      </trkpt>
      <trkpt lat="59.9744573" lon="17.7285848">
        <ele>22.2476</ele>
        <time>2014-06-06T12:36:39Z</time>
      </trkpt>
      <trkpt lat="59.9744542" lon="17.7284539">
        <ele>22.2476</ele>
        <time>2014-06-06T12:36:40Z</time>
      </trkpt>
      <trkpt lat="59.974448" lon="17.7283263">
        <ele>22.2476</ele>
        <time>2014-06-06T12:36:41Z</time>
      </trkpt>
      <trkpt lat="59.9744485" lon="17.7281918">
        <ele>22.2476</ele>
        <time>2014-06-06T12:36:42Z</time>
      </trkpt>
      <trkpt lat="59.974447" lon="17.7280601">
        <ele>22.2476</ele>
        <time>2014-06-06T12:36:43Z</time>
      </trkpt>
      <trkpt lat="59.9744458" lon="17.7279312">
        <ele>22.7283</ele>
        <time>2014-06-06T12:36:44Z</time>
      </trkpt>
      <trkpt lat="59.9744459" lon="17.727804">
        <ele>22.7283</ele>
        <time>2014-06-06T12:36:45Z</time>
      </trkpt>
      <trkpt lat="59.9744455" lon="17.7276799">
        <ele>22.7283</ele>
        <time>2014-06-06T12:36:46Z</time>
      </trkpt>
      <trkpt lat="59.9744444" lon="17.7275591">
        <ele>23.209</ele>
        <time>2014-06-06T12:36:47Z</time>
      </trkpt>
      <trkpt lat="59.9744428" lon="17.7274415">
        <ele>23.209</ele>
        <time>2014-06-06T12:36:48Z</time>
      </trkpt>
      <trkpt lat="59.9744409" lon="17.7273275">
        <ele>23.6896</ele>
        <time>2014-06-06T12:36:49Z</time>
      </trkpt>
      <trkpt lat="59.974439" lon="17.7272166">
        <ele>23.6896</ele>
        <time>2014-06-06T12:36:50Z</time>
      </trkpt>
      <trkpt lat="59.974436" lon="17.7271065">
        <ele>24.1703</ele>
        <time>2014-06-06T12:36:51Z</time>
      </trkpt>
      <trkpt lat="59.9744326" lon="17.7270008">
        <ele>24.1703</ele>
        <time>2014-06-06T12:36:52Z</time>
      </trkpt>
      <trkpt lat="59.9744309" lon="17.7269001">
        <ele>24.1703</ele>
        <time>2014-06-06T12:36:53Z</time>
      </trkpt>
      <trkpt lat="59.9744303" lon="17.7267979">
        <ele>24.1703</ele>
        <time>2014-06-06T12:36:54Z</time>
      </trkpt>
      <trkpt lat="59.9744281" lon="17.7266953">
        <ele>24.1703</ele>
        <time>2014-06-06T12:36:55Z</time>
      </trkpt>
      <trkpt lat="59.9744221" lon="17.7265961">
        <ele>24.651</ele>
        <time>2014-06-06T12:36:56Z</time>
      </trkpt>
      <trkpt lat="59.9744206" lon="17.7264973">
        <ele>25.1317</ele>
        <time>2014-06-06T12:36:57Z</time>
      </trkpt>
      <trkpt lat="59.9744142" lon="17.726402">
        <ele>25.1317</ele>
        <time>2014-06-06T12:36:58Z</time>
      </trkpt>
      <trkpt lat="59.9744086" lon="17.7263062">
        <ele>25.1317</ele>
        <time>2014-06-06T12:36:59Z</time>
      </trkpt>
      <trkpt lat="59.9744044" lon="17.7262057">
        <ele>25.1317</ele>
        <time>2014-06-06T12:37:00Z</time>
      </trkpt>
      <trkpt lat="59.9743981" lon="17.7261022">
        <ele>25.1317</ele>
        <time>2014-06-06T12:37:01Z</time>
      </trkpt>
      <trkpt lat="59.9743924" lon="17.7259969">
        <ele>25.1317</ele>
        <time>2014-06-06T12:37:02Z</time>
      </trkpt>
      <trkpt lat="59.97439" lon="17.7258906">
        <ele>25.1317</ele>
        <time>2014-06-06T12:37:03Z</time>
      </trkpt>
      <trkpt lat="59.9743858" lon="17.7257849">
        <ele>25.6123</ele>
        <time>2014-06-06T12:37:04Z</time>
      </trkpt>
      <trkpt lat="59.9743781" lon="17.7256762">
        <ele>25.6123</ele>
        <time>2014-06-06T12:37:05Z</time>
      </trkpt>
      <trkpt lat="59.9743678" lon="17.7255689">
        <ele>25.6123</ele>
        <time>2014-06-06T12:37:06Z</time>
      </trkpt>
      <trkpt lat="59.9743517" lon="17.7254566">
        <ele>25.6123</ele>
        <time>2014-06-06T12:37:07Z</time>
      </trkpt>
      <trkpt lat="59.9743368" lon="17.7253451">
        <ele>25.6123</ele>
        <time>2014-06-06T12:37:08Z</time>
      </trkpt>
      <trkpt lat="59.9743246" lon="17.7252348">
        <ele>25.6123</ele>
        <time>2014-06-06T12:37:09Z</time>
      </trkpt>
      <trkpt lat="59.9743113" lon="17.725125">
        <ele>25.6123</ele>
        <time>2014-06-06T12:37:10Z</time>
      </trkpt>
      <trkpt lat="59.9742974" lon="17.7250148">
        <ele>25.6123</ele>
        <time>2014-06-06T12:37:11Z</time>
      </trkpt>
      <trkpt lat="59.9742828" lon="17.7249038">
        <ele>25.6123</ele>
        <time>2014-06-06T12:37:12Z</time>
      </trkpt>
      <trkpt lat="59.9742681" lon="17.7247916">
        <ele>25.6123</ele>
        <time>2014-06-06T12:37:13Z</time>
      </trkpt>
      <trkpt lat="59.9742525" lon="17.7246786">
        <ele>25.6123</ele>
        <time>2014-06-06T12:37:14Z</time>
      </trkpt>
      <trkpt lat="59.9742356" lon="17.7245649">
        <ele>25.6123</ele>
        <time>2014-06-06T12:37:15Z</time>
      </trkpt>
      <trkpt lat="59.9742185" lon="17.724451">
        <ele>25.6123</ele>
        <time>2014-06-06T12:37:16Z</time>
      </trkpt>
      <trkpt lat="59.9742023" lon="17.7243375">
        <ele>25.6123</ele>
        <time>2014-06-06T12:37:17Z</time>
      </trkpt>
      <trkpt lat="59.9741864" lon="17.7242237">
        <ele>25.6123</ele>
        <time>2014-06-06T12:37:18Z</time>
      </trkpt>
      <trkpt lat="59.9741704" lon="17.7241088">
        <ele>25.6123</ele>
        <time>2014-06-06T12:37:19Z</time>
      </trkpt>
      <trkpt lat="59.9741542" lon="17.7239934">
        <ele>25.6123</ele>
        <time>2014-06-06T12:37:20Z</time>
      </trkpt>
      <trkpt lat="59.9741377" lon="17.7238781">
        <ele>25.6123</ele>
        <time>2014-06-06T12:37:21Z</time>
      </trkpt>
      <trkpt lat="59.9741215" lon="17.7237625">
        <ele>25.6123</ele>
        <time>2014-06-06T12:37:22Z</time>
      </trkpt>
      <trkpt lat="59.9741047" lon="17.7236471">
        <ele>25.6123</ele>
        <time>2014-06-06T12:37:23Z</time>
      </trkpt>
      <trkpt lat="59.974088" lon="17.7235308">
        <ele>25.6123</ele>
        <time>2014-06-06T12:37:24Z</time>
      </trkpt>
      <trkpt lat="59.974071" lon="17.723415">
        <ele>25.6123</ele>
        <time>2014-06-06T12:37:25Z</time>
      </trkpt>
      <trkpt lat="59.9740523" lon="17.723301">
        <ele>25.6123</ele>
        <time>2014-06-06T12:37:26Z</time>
      </trkpt>
      <trkpt lat="59.9740317" lon="17.7231888">
        <ele>25.6123</ele>
        <time>2014-06-06T12:37:27Z</time>
      </trkpt>
      <trkpt lat="59.9740099" lon="17.7230772">
        <ele>25.6123</ele>
        <time>2014-06-06T12:37:28Z</time>
      </trkpt>
      <trkpt lat="59.9739863" lon="17.722968">
        <ele>25.6123</ele>
        <time>2014-06-06T12:37:29Z</time>
      </trkpt>
      <trkpt lat="59.9739606" lon="17.7228624">
        <ele>25.6123</ele>
        <time>2014-06-06T12:37:30Z</time>
      </trkpt>
      <trkpt lat="59.9739338" lon="17.7227574">
        <ele>25.6123</ele>
        <time>2014-06-06T12:37:31Z</time>
      </trkpt>
      <trkpt lat="59.9739072" lon="17.7226516">
        <ele>25.6123</ele>
        <time>2014-06-06T12:37:32Z</time>
      </trkpt>
      <trkpt lat="59.9738803" lon="17.7225465">
        <ele>25.6123</ele>
        <time>2014-06-06T12:37:33Z</time>
      </trkpt>
      <trkpt lat="59.9738518" lon="17.7224448">
        <ele>25.6123</ele>
        <time>2014-06-06T12:37:34Z</time>
      </trkpt>
      <trkpt lat="59.9738217" lon="17.722345">
        <ele>25.6123</ele>
        <time>2014-06-06T12:37:35Z</time>
      </trkpt>
      <trkpt lat="59.9737902" lon="17.722247">
        <ele>25.6123</ele>
        <time>2014-06-06T12:37:36Z</time>
      </trkpt>
      <trkpt lat="59.9737582" lon="17.7221498">
        <ele>25.6123</ele>
        <time>2014-06-06T12:37:37Z</time>
      </trkpt>
      <trkpt lat="59.9737259" lon="17.7220539">
        <ele>25.6123</ele>
        <time>2014-06-06T12:37:38Z</time>
      </trkpt>
      <trkpt lat="59.9736927" lon="17.72196">
        <ele>25.6123</ele>
        <time>2014-06-06T12:37:39Z</time>
      </trkpt>
      <trkpt lat="59.9736589" lon="17.721868">
        <ele>26.0929</ele>
        <time>2014-06-06T12:37:40Z</time>
      </trkpt>
      <trkpt lat="59.9736243" lon="17.7217787">
        <ele>26.0929</ele>
        <time>2014-06-06T12:37:41Z</time>
      </trkpt>
      <trkpt lat="59.9735881" lon="17.7216916">
        <ele>26.0929</ele>
        <time>2014-06-06T12:37:42Z</time>
      </trkpt>
      <trkpt lat="59.9735508" lon="17.7216056">
        <ele>26.0929</ele>
        <time>2014-06-06T12:37:43Z</time>
      </trkpt>
      <trkpt lat="59.9735135" lon="17.7215208">
        <ele>26.0929</ele>
        <time>2014-06-06T12:37:44Z</time>
      </trkpt>
      <trkpt lat="59.9734757" lon="17.7214384">
        <ele>26.0929</ele>
        <time>2014-06-06T12:37:45Z</time>
      </trkpt>
      <trkpt lat="59.9734374" lon="17.7213593">
        <ele>26.0929</ele>
        <time>2014-06-06T12:37:46Z</time>
      </trkpt>
      <trkpt lat="59.9733983" lon="17.7212838">
        <ele>26.0929</ele>
        <time>2014-06-06T12:37:47Z</time>
      </trkpt>
      <trkpt lat="59.973358" lon="17.7212104">
        <ele>26.0929</ele>
        <time>2014-06-06T12:37:48Z</time>
      </trkpt>
      <trkpt lat="59.9733172" lon="17.7211363">
        <ele>26.0929</ele>
        <time>2014-06-06T12:37:49Z</time>
      </trkpt>
      <trkpt lat="59.9732766" lon="17.7210617">
        <ele>26.0929</ele>
        <time>2014-06-06T12:37:50Z</time>
      </trkpt>
      <trkpt lat="59.9732342" lon="17.7209913">
        <ele>26.5736</ele>
        <time>2014-06-06T12:37:51Z</time>
      </trkpt>
      <trkpt lat="59.9731898" lon="17.7209245">
        <ele>26.5736</ele>
        <time>2014-06-06T12:37:52Z</time>
      </trkpt>
      <trkpt lat="59.9731448" lon="17.7208577">
        <ele>26.5736</ele>
        <time>2014-06-06T12:37:53Z</time>
      </trkpt>
      <trkpt lat="59.9730996" lon="17.7207915">
        <ele>26.5736</ele>
        <time>2014-06-06T12:37:54Z</time>
      </trkpt>
      <trkpt lat="59.9730536" lon="17.7207263">
        <ele>26.5736</ele>
        <time>2014-06-06T12:37:55Z</time>
      </trkpt>
      <trkpt lat="59.9730069" lon="17.7206624">
        <ele>26.5736</ele>
        <time>2014-06-06T12:37:56Z</time>
      </trkpt>
      <trkpt lat="59.9729592" lon="17.7206011">
        <ele>26.5736</ele>
        <time>2014-06-06T12:37:57Z</time>
      </trkpt>
      <trkpt lat="59.9729105" lon="17.7205429">
        <ele>26.5736</ele>
        <time>2014-06-06T12:37:58Z</time>
      </trkpt>
      <trkpt lat="59.9728618" lon="17.7204853">
        <ele>26.5736</ele>
        <time>2014-06-06T12:37:59Z</time>
      </trkpt>
      <trkpt lat="59.9728123" lon="17.7204297">
        <ele>27.0543</ele>
        <time>2014-06-06T12:38:00Z</time>
      </trkpt>
      <trkpt lat="59.9727617" lon="17.7203775">
        <ele>27.0543</ele>
        <time>2014-06-06T12:38:01Z</time>
      </trkpt>
      <trkpt lat="59.9727104" lon="17.7203263">
        <ele>27.0543</ele>
        <time>2014-06-06T12:38:02Z</time>
      </trkpt>
      <trkpt lat="59.9726591" lon="17.7202749">
        <ele>27.0543</ele>
        <time>2014-06-06T12:38:03Z</time>
      </trkpt>
      <trkpt lat="59.9726081" lon="17.7202228">
        <ele>27.0543</ele>
        <time>2014-06-06T12:38:04Z</time>
      </trkpt>
      <trkpt lat="59.9725568" lon="17.7201739">
        <ele>27.0543</ele>
        <time>2014-06-06T12:38:05Z</time>
      </trkpt>
      <trkpt lat="59.9725037" lon="17.7201283">
        <ele>27.0543</ele>
        <time>2014-06-06T12:38:06Z</time>
      </trkpt>
      <trkpt lat="59.97245" lon="17.7200803">
        <ele>27.0543</ele>
        <time>2014-06-06T12:38:07Z</time>
      </trkpt>
      <trkpt lat="59.972396" lon="17.72003">
        <ele>27.0543</ele>
        <time>2014-06-06T12:38:08Z</time>
      </trkpt>
      <trkpt lat="59.9723413" lon="17.7199807">
        <ele>27.0543</ele>
        <time>2014-06-06T12:38:09Z</time>
      </trkpt>
      <trkpt lat="59.9722863" lon="17.7199326">
        <ele>27.0543</ele>
        <time>2014-06-06T12:38:10Z</time>
      </trkpt>
      <trkpt lat="59.972231" lon="17.7198845">
        <ele>27.0543</ele>
        <time>2014-06-06T12:38:11Z</time>
      </trkpt>
      <trkpt lat="59.9721766" lon="17.7198363">
        <ele>27.0543</ele>
        <time>2014-06-06T12:38:12Z</time>
      </trkpt>
      <trkpt lat="59.9721226" lon="17.7197902">
        <ele>27.0543</ele>
        <time>2014-06-06T12:38:13Z</time>
      </trkpt>
      <trkpt lat="59.9720688" lon="17.7197456">
        <ele>27.5349</ele>
        <time>2014-06-06T12:38:14Z</time>
      </trkpt>
      <trkpt lat="59.9720155" lon="17.7196988">
        <ele>27.5349</ele>
        <time>2014-06-06T12:38:15Z</time>
      </trkpt>
      <trkpt lat="59.9719625" lon="17.7196496">
        <ele>27.5349</ele>
        <time>2014-06-06T12:38:16Z</time>
      </trkpt>
      <trkpt lat="59.9719098" lon="17.7195995">
        <ele>27.5349</ele>
        <time>2014-06-06T12:38:17Z</time>
      </trkpt>
      <trkpt lat="59.9718564" lon="17.7195509">
        <ele>27.5349</ele>
        <time>2014-06-06T12:38:18Z</time>
      </trkpt>
      <trkpt lat="59.9718023" lon="17.7195031">
        <ele>27.5349</ele>
        <time>2014-06-06T12:38:19Z</time>
      </trkpt>
      <trkpt lat="59.9717482" lon="17.7194534">
        <ele>27.5349</ele>
        <time>2014-06-06T12:38:20Z</time>
      </trkpt>
      <trkpt lat="59.9716942" lon="17.7194024">
        <ele>27.5349</ele>
        <time>2014-06-06T12:38:21Z</time>
      </trkpt>
      <trkpt lat="59.9716399" lon="17.7193519">
        <ele>27.5349</ele>
        <time>2014-06-06T12:38:22Z</time>
      </trkpt>
      <trkpt lat="59.9715854" lon="17.7193035">
        <ele>27.5349</ele>
        <time>2014-06-06T12:38:23Z</time>
      </trkpt>
      <trkpt lat="59.9715309" lon="17.719255">
        <ele>28.0155</ele>
        <time>2014-06-06T12:38:24Z</time>
      </trkpt>
      <trkpt lat="59.9714767" lon="17.7192062">
        <ele>28.0155</ele>
        <time>2014-06-06T12:38:25Z</time>
      </trkpt>
      <trkpt lat="59.9714229" lon="17.7191579">
        <ele>28.0155</ele>
        <time>2014-06-06T12:38:26Z</time>
      </trkpt>
      <trkpt lat="59.9713698" lon="17.719111">
        <ele>28.0155</ele>
        <time>2014-06-06T12:38:27Z</time>
      </trkpt>
      <trkpt lat="59.9713173" lon="17.7190643">
        <ele>28.0155</ele>
        <time>2014-06-06T12:38:28Z</time>
      </trkpt>
      <trkpt lat="59.9712659" lon="17.7190168">
        <ele>28.0155</ele>
        <time>2014-06-06T12:38:29Z</time>
      </trkpt>
      <trkpt lat="59.9712146" lon="17.7189705">
        <ele>28.0155</ele>
        <time>2014-06-06T12:38:30Z</time>
      </trkpt>
      <trkpt lat="59.9711631" lon="17.7189248">
        <ele>28.0155</ele>
        <time>2014-06-06T12:38:31Z</time>
      </trkpt>
      <trkpt lat="59.9711125" lon="17.7188783">
        <ele>28.0155</ele>
        <time>2014-06-06T12:38:32Z</time>
      </trkpt>
      <trkpt lat="59.9710624" lon="17.7188328">
        <ele>28.0155</ele>
        <time>2014-06-06T12:38:33Z</time>
      </trkpt>
      <trkpt lat="59.9710129" lon="17.7187882">
        <ele>28.0155</ele>
        <time>2014-06-06T12:38:34Z</time>
      </trkpt>
      <trkpt lat="59.9709645" lon="17.718744">
        <ele>28.0155</ele>
        <time>2014-06-06T12:38:35Z</time>
      </trkpt>
      <trkpt lat="59.9709174" lon="17.7187007">
        <ele>28.0155</ele>
        <time>2014-06-06T12:38:36Z</time>
      </trkpt>
      <trkpt lat="59.970871" lon="17.7186582">
        <ele>28.4962</ele>
        <time>2014-06-06T12:38:37Z</time>
      </trkpt>
      <trkpt lat="59.9708244" lon="17.7186172">
        <ele>28.4962</ele>
        <time>2014-06-06T12:38:38Z</time>
      </trkpt>
      <trkpt lat="59.9707778" lon="17.7185764">
        <ele>28.4962</ele>
        <time>2014-06-06T12:38:39Z</time>
      </trkpt>
      <trkpt lat="59.9707318" lon="17.718534">
        <ele>28.4962</ele>
        <time>2014-06-06T12:38:40Z</time>
      </trkpt>
      <trkpt lat="59.9706861" lon="17.7184919">
        <ele>28.4962</ele>
        <time>2014-06-06T12:38:41Z</time>
      </trkpt>
      <trkpt lat="59.9706397" lon="17.7184495">
        <ele>28.4962</ele>
        <time>2014-06-06T12:38:42Z</time>
      </trkpt>
      <trkpt lat="59.970593" lon="17.7184063">
        <ele>28.4962</ele>
        <time>2014-06-06T12:38:43Z</time>
      </trkpt>
      <trkpt lat="59.9705457" lon="17.7183631">
        <ele>28.4962</ele>
        <time>2014-06-06T12:38:44Z</time>
      </trkpt>
      <trkpt lat="59.9704981" lon="17.7183204">
        <ele>28.4962</ele>
        <time>2014-06-06T12:38:45Z</time>
      </trkpt>
      <trkpt lat="59.9704505" lon="17.7182774">
        <ele>28.4962</ele>
        <time>2014-06-06T12:38:46Z</time>
      </trkpt>
      <trkpt lat="59.9704032" lon="17.7182341">
        <ele>28.4962</ele>
        <time>2014-06-06T12:38:47Z</time>
      </trkpt>
      <trkpt lat="59.9703558" lon="17.7181915">
        <ele>28.4962</ele>
        <time>2014-06-06T12:38:48Z</time>
      </trkpt>
      <trkpt lat="59.9703082" lon="17.7181495">
        <ele>28.4962</ele>
        <time>2014-06-06T12:38:49Z</time>
      </trkpt>
      <trkpt lat="59.9702608" lon="17.7181076">
        <ele>28.4962</ele>
        <time>2014-06-06T12:38:50Z</time>
      </trkpt>
      <trkpt lat="59.9702134" lon="17.718066">
        <ele>28.4962</ele>
        <time>2014-06-06T12:38:51Z</time>
      </trkpt>
      <trkpt lat="59.9701661" lon="17.7180247">
        <ele>28.4962</ele>
        <time>2014-06-06T12:38:52Z</time>
      </trkpt>
      <trkpt lat="59.9701186" lon="17.7179834">
        <ele>28.4962</ele>
        <time>2014-06-06T12:38:53Z</time>
      </trkpt>
      <trkpt lat="59.9700719" lon="17.7179409">
        <ele>28.4962</ele>
        <time>2014-06-06T12:38:54Z</time>
      </trkpt>
      <trkpt lat="59.9700259" lon="17.7178974">
        <ele>28.4962</ele>
        <time>2014-06-06T12:38:55Z</time>
      </trkpt>
      <trkpt lat="59.9699802" lon="17.7178554">
        <ele>28.9769</ele>
        <time>2014-06-06T12:38:56Z</time>
      </trkpt>
      <trkpt lat="59.9699341" lon="17.7178155">
        <ele>28.9769</ele>
        <time>2014-06-06T12:38:57Z</time>
      </trkpt>
      <trkpt lat="59.9698876" lon="17.7177764">
        <ele>28.9769</ele>
        <time>2014-06-06T12:38:58Z</time>
      </trkpt>
      <trkpt lat="59.9698414" lon="17.7177372">
        <ele>28.9769</ele>
        <time>2014-06-06T12:38:59Z</time>
      </trkpt>
      <trkpt lat="59.9697952" lon="17.717698">
        <ele>28.9769</ele>
        <time>2014-06-06T12:39:00Z</time>
      </trkpt>
      <trkpt lat="59.969749" lon="17.7176606">
        <ele>28.9769</ele>
        <time>2014-06-06T12:39:01Z</time>
      </trkpt>
      <trkpt lat="59.9697025" lon="17.7176269">
        <ele>28.9769</ele>
        <time>2014-06-06T12:39:02Z</time>
      </trkpt>
      <trkpt lat="59.9696565" lon="17.7175949">
        <ele>29.4575</ele>
        <time>2014-06-06T12:39:03Z</time>
      </trkpt>
      <trkpt lat="59.9696113" lon="17.7175651">
        <ele>29.4575</ele>
        <time>2014-06-06T12:39:04Z</time>
      </trkpt>
      <trkpt lat="59.9695648" lon="17.71754">
        <ele>29.4575</ele>
        <time>2014-06-06T12:39:05Z</time>
      </trkpt>
      <trkpt lat="59.9695169" lon="17.7175237">
        <ele>29.4575</ele>
        <time>2014-06-06T12:39:06Z</time>
      </trkpt>
      <trkpt lat="59.9694677" lon="17.7175196">
        <ele>29.4575</ele>
        <time>2014-06-06T12:39:07Z</time>
      </trkpt>
      <trkpt lat="59.9694175" lon="17.7175227">
        <ele>29.4575</ele>
        <time>2014-06-06T12:39:08Z</time>
      </trkpt>
      <trkpt lat="59.9693663" lon="17.7175217">
        <ele>29.4575</ele>
        <time>2014-06-06T12:39:09Z</time>
      </trkpt>
      <trkpt lat="59.9693152" lon="17.7175115">
        <ele>29.9381</ele>
        <time>2014-06-06T12:39:10Z</time>
      </trkpt>
      <trkpt lat="59.9692651" lon="17.7174943">
        <ele>29.9381</ele>
        <time>2014-06-06T12:39:11Z</time>
      </trkpt>
      <trkpt lat="59.969215" lon="17.7174751">
        <ele>29.9381</ele>
        <time>2014-06-06T12:39:12Z</time>
      </trkpt>
      <trkpt lat="59.9691652" lon="17.7174566">
        <ele>29.9381</ele>
        <time>2014-06-06T12:39:13Z</time>
      </trkpt>
      <trkpt lat="59.9691163" lon="17.7174366">
        <ele>29.9381</ele>
        <time>2014-06-06T12:39:14Z</time>
      </trkpt>
      <trkpt lat="59.9690678" lon="17.7174182">
        <ele>29.9381</ele>
        <time>2014-06-06T12:39:15Z</time>
      </trkpt>
      <trkpt lat="59.9690182" lon="17.717403">
        <ele>29.9381</ele>
        <time>2014-06-06T12:39:16Z</time>
      </trkpt>
      <trkpt lat="59.9689694" lon="17.7174086">
        <ele>29.9381</ele>
        <time>2014-06-06T12:39:17Z</time>
      </trkpt>
      <trkpt lat="59.9689229" lon="17.717475">
        <ele>29.9381</ele>
        <time>2014-06-06T12:39:18Z</time>
      </trkpt>
      <trkpt lat="59.9688889" lon="17.7175611">
        <ele>29.4575</ele>
        <time>2014-06-06T12:39:19Z</time>
      </trkpt>
      <trkpt lat="59.9688601" lon="17.7176615">
        <ele>29.4575</ele>
        <time>2014-06-06T12:39:20Z</time>
      </trkpt>
      <trkpt lat="59.9688401" lon="17.7177631">
        <ele>29.4575</ele>
        <time>2014-06-06T12:39:21Z</time>
      </trkpt>
      <trkpt lat="59.9688272" lon="17.7178652">
        <ele>29.4575</ele>
        <time>2014-06-06T12:39:22Z</time>
      </trkpt>
      <trkpt lat="59.968815" lon="17.7179672">
        <ele>29.4575</ele>
        <time>2014-06-06T12:39:23Z</time>
      </trkpt>
      <trkpt lat="59.9687971" lon="17.7180673">
        <ele>29.4575</ele>
        <time>2014-06-06T12:39:24Z</time>
      </trkpt>
      <trkpt lat="59.9687738" lon="17.7181623">
        <ele>29.4575</ele>
        <time>2014-06-06T12:39:25Z</time>
      </trkpt>
      <trkpt lat="59.9687452" lon="17.7182495">
        <ele>29.4575</ele>
        <time>2014-06-06T12:39:26Z</time>
      </trkpt>
      <trkpt lat="59.9687109" lon="17.7183252">
        <ele>29.4575</ele>
        <time>2014-06-06T12:39:27Z</time>
      </trkpt>
      <trkpt lat="59.9686726" lon="17.7183889">
        <ele>29.4575</ele>
        <time>2014-06-06T12:39:28Z</time>
      </trkpt>
      <trkpt lat="59.9686311" lon="17.7184433">
        <ele>29.4575</ele>
        <time>2014-06-06T12:39:29Z</time>
      </trkpt>
      <trkpt lat="59.9685876" lon="17.7184881">
        <ele>29.4575</ele>
        <time>2014-06-06T12:39:30Z</time>
      </trkpt>
      <trkpt lat="59.9685418" lon="17.7185208">
        <ele>28.9769</ele>
        <time>2014-06-06T12:39:31Z</time>
      </trkpt>
      <trkpt lat="59.9684956" lon="17.7185379">
        <ele>28.9769</ele>
        <time>2014-06-06T12:39:32Z</time>
      </trkpt>
      <trkpt lat="59.968449" lon="17.7185381">
        <ele>28.9769</ele>
        <time>2014-06-06T12:39:33Z</time>
      </trkpt>
      <trkpt lat="59.9684045" lon="17.7185234">
        <ele>28.9769</ele>
        <time>2014-06-06T12:39:34Z</time>
      </trkpt>
      <trkpt lat="59.9683609" lon="17.7185018">
        <ele>28.9769</ele>
        <time>2014-06-06T12:39:35Z</time>
      </trkpt>
      <trkpt lat="59.9683184" lon="17.7184749">
        <ele>28.9769</ele>
        <time>2014-06-06T12:39:36Z</time>
      </trkpt>
      <trkpt lat="59.968279" lon="17.7184429">
        <ele>28.9769</ele>
        <time>2014-06-06T12:39:37Z</time>
      </trkpt>
      <trkpt lat="59.9682441" lon="17.7184095">
        <ele>28.9769</ele>
        <time>2014-06-06T12:39:38Z</time>
      </trkpt>
      <trkpt lat="59.9682121" lon="17.7183727">
        <ele>28.9769</ele>
        <time>2014-06-06T12:39:39Z</time>
      </trkpt>
      <trkpt lat="59.9681825" lon="17.7183344">
        <ele>28.9769</ele>
        <time>2014-06-06T12:39:40Z</time>
      </trkpt>
      <trkpt lat="59.968153" lon="17.7182949">
        <ele>28.9769</ele>
        <time>2014-06-06T12:39:41Z</time>
      </trkpt>
      <trkpt lat="59.9681222" lon="17.7182581">
        <ele>28.9769</ele>
        <time>2014-06-06T12:39:42Z</time>
      </trkpt>
      <trkpt lat="59.968092" lon="17.7182243">
        <ele>28.9769</ele>
        <time>2014-06-06T12:39:43Z</time>
      </trkpt>
      <trkpt lat="59.968061" lon="17.7181853">
        <ele>28.9769</ele>
        <time>2014-06-06T12:39:44Z</time>
      </trkpt>
      <trkpt lat="59.968032" lon="17.7181474">
        <ele>28.9769</ele>
        <time>2014-06-06T12:39:45Z</time>
      </trkpt>
      <trkpt lat="59.9680034" lon="17.7181074">
        <ele>28.9769</ele>
        <time>2014-06-06T12:39:46Z</time>
      </trkpt>
      <trkpt lat="59.9679751" lon="17.7180627">
        <ele>28.9769</ele>
        <time>2014-06-06T12:39:47Z</time>
      </trkpt>
      <trkpt lat="59.9679496" lon="17.7180162">
        <ele>28.9769</ele>
        <time>2014-06-06T12:39:48Z</time>
      </trkpt>
      <trkpt lat="59.9679253" lon="17.71798">
        <ele>28.9769</ele>
        <time>2014-06-06T12:39:49Z</time>
      </trkpt>
      <trkpt lat="59.9678991" lon="17.7179636">
        <ele>28.9769</ele>
        <time>2014-06-06T12:39:50Z</time>
      </trkpt>
      <trkpt lat="59.9678652" lon="17.7179644">
        <ele>28.9769</ele>
        <time>2014-06-06T12:39:51Z</time>
      </trkpt>
      <trkpt lat="59.9678334" lon="17.7179717">
        <ele>28.9769</ele>
        <time>2014-06-06T12:39:52Z</time>
      </trkpt>
      <trkpt lat="59.9678101" lon="17.7179803">
        <ele>28.9769</ele>
        <time>2014-06-06T12:39:53Z</time>
      </trkpt>
      <trkpt lat="59.9677895" lon="17.7179874">
        <ele>29.4575</ele>
        <time>2014-06-06T12:39:54Z</time>
      </trkpt>
      <trkpt lat="59.9677692" lon="17.7179991">
        <ele>28.9769</ele>
        <time>2014-06-06T12:39:55Z</time>
      </trkpt>
      <trkpt lat="59.9677451" lon="17.7180095">
        <ele>28.9769</ele>
        <time>2014-06-06T12:39:56Z</time>
      </trkpt>
      <trkpt lat="59.9677166" lon="17.7180088">
        <ele>29.4575</ele>
        <time>2014-06-06T12:39:57Z</time>
      </trkpt>
      <trkpt lat="59.9676902" lon="17.7180127">
        <ele>29.4575</ele>
        <time>2014-06-06T12:39:58Z</time>
      </trkpt>
      <trkpt lat="59.9676646" lon="17.7180166">
        <ele>29.4575</ele>
        <time>2014-06-06T12:39:59Z</time>
      </trkpt>
      <trkpt lat="59.9676384" lon="17.7180226">
        <ele>29.9381</ele>
        <time>2014-06-06T12:40:00Z</time>
      </trkpt>
      <trkpt lat="59.9676135" lon="17.7180361">
        <ele>29.9381</ele>
        <time>2014-06-06T12:40:01Z</time>
      </trkpt>
      <trkpt lat="59.9675875" lon="17.7180558">
        <ele>29.4575</ele>
        <time>2014-06-06T12:40:02Z</time>
      </trkpt>
      <trkpt lat="59.9675672" lon="17.7180848">
        <ele>29.9381</ele>
        <time>2014-06-06T12:40:03Z</time>
      </trkpt>
      <trkpt lat="59.9675461" lon="17.7181098">
        <ele>29.9381</ele>
        <time>2014-06-06T12:40:04Z</time>
      </trkpt>
      <trkpt lat="59.9675212" lon="17.71814">
        <ele>29.4575</ele>
        <time>2014-06-06T12:40:05Z</time>
      </trkpt>
      <trkpt lat="59.9674936" lon="17.7181694">
        <ele>28.9769</ele>
        <time>2014-06-06T12:40:06Z</time>
      </trkpt>
      <trkpt lat="59.9674659" lon="17.7182064">
        <ele>28.0155</ele>
        <time>2014-06-06T12:40:07Z</time>
      </trkpt>
      <trkpt lat="59.9674487" lon="17.7182602">
        <ele>28.0155</ele>
        <time>2014-06-06T12:40:08Z</time>
      </trkpt>
      <trkpt lat="59.9674314" lon="17.7183159">
        <ele>27.0543</ele>
        <time>2014-06-06T12:40:09Z</time>
      </trkpt>
      <trkpt lat="59.9674158" lon="17.7183515">
        <ele>26.5736</ele>
        <time>2014-06-06T12:40:10Z</time>
      </trkpt>
      <trkpt lat="59.9673968" lon="17.7183784">
        <ele>25.6123</ele>
        <time>2014-06-06T12:40:11Z</time>
      </trkpt>
      <trkpt lat="59.9673782" lon="17.7184122">
        <ele>25.1317</ele>
        <time>2014-06-06T12:40:12Z</time>
      </trkpt>
      <trkpt lat="59.9673565" lon="17.7184602">
        <ele>24.651</ele>
        <time>2014-06-06T12:40:13Z</time>
      </trkpt>
      <trkpt lat="59.9673398" lon="17.7184887">
        <ele>24.1703</ele>
        <time>2014-06-06T12:40:14Z</time>
      </trkpt>
      <trkpt lat="59.967313" lon="17.718513">
        <ele>23.6896</ele>
        <time>2014-06-06T12:40:15Z</time>
      </trkpt>
      <trkpt lat="59.967285" lon="17.7185312">
        <ele>22.7283</ele>
        <time>2014-06-06T12:40:16Z</time>
      </trkpt>
      <trkpt lat="59.9672627" lon="17.7185391">
        <ele>22.7283</ele>
        <time>2014-06-06T12:40:17Z</time>
      </trkpt>
      <trkpt lat="59.9672402" lon="17.7185432">
        <ele>22.2476</ele>
        <time>2014-06-06T12:40:18Z</time>
      </trkpt>
      <trkpt lat="59.9672152" lon="17.7185464">
        <ele>21.767</ele>
        <time>2014-06-06T12:40:19Z</time>
      </trkpt>
      <trkpt lat="59.9671943" lon="17.7185532">
        <ele>21.2864</ele>
        <time>2014-06-06T12:40:20Z</time>
      </trkpt>
      <trkpt lat="59.9671793" lon="17.7185706">
        <ele>20.8057</ele>
        <time>2014-06-06T12:40:21Z</time>
      </trkpt>
      <trkpt lat="59.967161" lon="17.7185947">
        <ele>19.8444</ele>
        <time>2014-06-06T12:40:22Z</time>
      </trkpt>
      <trkpt lat="59.96714" lon="17.7186261">
        <ele>19.3638</ele>
        <time>2014-06-06T12:40:23Z</time>
      </trkpt>
      <trkpt lat="59.967111" lon="17.7186513">
        <ele>18.8831</ele>
        <time>2014-06-06T12:40:24Z</time>
      </trkpt>
      <trkpt lat="59.9670855" lon="17.7186847">
        <ele>19.8444</ele>
        <time>2014-06-06T12:40:25Z</time>
      </trkpt>
      <trkpt lat="59.9670605" lon="17.7187081">
        <ele>20.8057</ele>
        <time>2014-06-06T12:40:26Z</time>
      </trkpt>
      <trkpt lat="59.967037" lon="17.7187252">
        <ele>21.2864</ele>
        <time>2014-06-06T12:40:27Z</time>
      </trkpt>
      <trkpt lat="59.9670186" lon="17.7187329">
        <ele>21.767</ele>
        <time>2014-06-06T12:40:28Z</time>
      </trkpt>
      <trkpt lat="59.9669981" lon="17.7187385">
        <ele>22.2476</ele>
        <time>2014-06-06T12:40:29Z</time>
      </trkpt>
      <trkpt lat="59.9669742" lon="17.7187484">
        <ele>22.7283</ele>
        <time>2014-06-06T12:40:30Z</time>
      </trkpt>
      <trkpt lat="59.9669494" lon="17.7187638">
        <ele>23.209</ele>
        <time>2014-06-06T12:40:31Z</time>
      </trkpt>
      <trkpt lat="59.9669248" lon="17.7187904">
        <ele>24.1703</ele>
        <time>2014-06-06T12:40:32Z</time>
      </trkpt>
      <trkpt lat="59.966896" lon="17.7188084">
        <ele>24.1703</ele>
        <time>2014-06-06T12:40:33Z</time>
      </trkpt>
      <trkpt lat="59.9668675" lon="17.7188322">
        <ele>24.1703</ele>
        <time>2014-06-06T12:40:34Z</time>
      </trkpt>
      <trkpt lat="59.9668474" lon="17.7188708">
        <ele>23.6896</ele>
        <time>2014-06-06T12:40:35Z</time>
      </trkpt>
      <trkpt lat="59.9668266" lon="17.7189053">
        <ele>24.1703</ele>
        <time>2014-06-06T12:40:36Z</time>
      </trkpt>
      <trkpt lat="59.9668067" lon="17.7189332">
        <ele>24.651</ele>
        <time>2014-06-06T12:40:37Z</time>
      </trkpt>
      <trkpt lat="59.9667923" lon="17.7189556">
        <ele>24.1703</ele>
        <time>2014-06-06T12:40:38Z</time>
      </trkpt>
      <trkpt lat="59.9667777" lon="17.7189697">
        <ele>24.1703</ele>
        <time>2014-06-06T12:40:39Z</time>
      </trkpt>
      <trkpt lat="59.9667598" lon="17.7189816">
        <ele>25.1317</ele>
        <time>2014-06-06T12:40:40Z</time>
      </trkpt>
      <trkpt lat="59.9667365" lon="17.7189872">
        <ele>26.0929</ele>
        <time>2014-06-06T12:40:41Z</time>
      </trkpt>
      <trkpt lat="59.9667136" lon="17.7189956">
        <ele>27.0543</ele>
        <time>2014-06-06T12:40:42Z</time>
      </trkpt>
      <trkpt lat="59.9666959" lon="17.7189945">
        <ele>27.5349</ele>
        <time>2014-06-06T12:40:43Z</time>
      </trkpt>
      <trkpt lat="59.9666805" lon="17.7189872">
        <ele>28.0155</ele>
        <time>2014-06-06T12:40:44Z</time>
      </trkpt>
      <trkpt lat="59.9666638" lon="17.7189726">
        <ele>28.9769</ele>
        <time>2014-06-06T12:40:45Z</time>
      </trkpt>
      <trkpt lat="59.9666438" lon="17.7189468">
        <ele>29.9381</ele>
        <time>2014-06-06T12:40:46Z</time>
      </trkpt>
      <trkpt lat="59.9666248" lon="17.7189228">
        <ele>30.8995</ele>
        <time>2014-06-06T12:40:47Z</time>
      </trkpt>
      <trkpt lat="59.966605" lon="17.7189007">
        <ele>31.8607</ele>
        <time>2014-06-06T12:40:48Z</time>
      </trkpt>
      <trkpt lat="59.9665892" lon="17.7188831">
        <ele>31.8607</ele>
        <time>2014-06-06T12:40:49Z</time>
      </trkpt>
      <trkpt lat="59.9665692" lon="17.7188761">
        <ele>32.3416</ele>
        <time>2014-06-06T12:40:50Z</time>
      </trkpt>
      <trkpt lat="59.9665422" lon="17.7188633">
        <ele>32.3416</ele>
        <time>2014-06-06T12:40:51Z</time>
      </trkpt>
      <trkpt lat="59.9665207" lon="17.7188525">
        <ele>31.8607</ele>
        <time>2014-06-06T12:40:52Z</time>
      </trkpt>
      <trkpt lat="59.9665018" lon="17.7188337">
        <ele>31.3801</ele>
        <time>2014-06-06T12:40:53Z</time>
      </trkpt>
      <trkpt lat="59.9664867" lon="17.7188088">
        <ele>31.3801</ele>
        <time>2014-06-06T12:40:54Z</time>
      </trkpt>
      <trkpt lat="59.9664694" lon="17.7187825">
        <ele>31.3801</ele>
        <time>2014-06-06T12:40:55Z</time>
      </trkpt>
      <trkpt lat="59.9664545" lon="17.7187582">
        <ele>30.8995</ele>
        <time>2014-06-06T12:40:56Z</time>
      </trkpt>
      <trkpt lat="59.9664437" lon="17.7187281">
        <ele>30.8995</ele>
        <time>2014-06-06T12:40:57Z</time>
      </trkpt>
      <trkpt lat="59.9664314" lon="17.7186912">
        <ele>30.8995</ele>
        <time>2014-06-06T12:40:58Z</time>
      </trkpt>
      <trkpt lat="59.9664193" lon="17.7186643">
        <ele>31.3801</ele>
        <time>2014-06-06T12:40:59Z</time>
      </trkpt>
      <trkpt lat="59.9664059" lon="17.7186425">
        <ele>30.8995</ele>
        <time>2014-06-06T12:41:00Z</time>
      </trkpt>
      <trkpt lat="59.9663891" lon="17.7186224">
        <ele>30.8995</ele>
        <time>2014-06-06T12:41:01Z</time>
      </trkpt>
      <trkpt lat="59.9663737" lon="17.7186156">
        <ele>29.9381</ele>
        <time>2014-06-06T12:41:02Z</time>
      </trkpt>
      <trkpt lat="59.9663594" lon="17.7186126">
        <ele>29.9381</ele>
        <time>2014-06-06T12:41:03Z</time>
      </trkpt>
      <trkpt lat="59.9663442" lon="17.7186044">
        <ele>29.9381</ele>
        <time>2014-06-06T12:41:04Z</time>
      </trkpt>
      <trkpt lat="59.9663314" lon="17.7185933">
        <ele>29.9381</ele>
        <time>2014-06-06T12:41:05Z</time>
      </trkpt>
      <trkpt lat="59.9663228" lon="17.7185826">
        <ele>29.9381</ele>
        <time>2014-06-06T12:41:06Z</time>
      </trkpt>
      <trkpt lat="59.9663182" lon="17.7185728">
        <ele>30.4188</ele>
        <time>2014-06-06T12:41:07Z</time>
      </trkpt>
      <trkpt lat="59.9663066" lon="17.718553">
        <ele>31.3801</ele>
        <time>2014-06-06T12:41:08Z</time>
      </trkpt>
      <trkpt lat="59.9663012" lon="17.7185423">
        <ele>31.8607</ele>
        <time>2014-06-06T12:41:09Z</time>
      </trkpt>
      <trkpt lat="59.9663007" lon="17.7185391">
        <ele>31.8607</ele>
        <time>2014-06-06T12:41:10Z</time>
      </trkpt>
      <trkpt lat="59.9663003" lon="17.7185391">
        <ele>31.8607</ele>
        <time>2014-06-06T12:41:11Z</time>
      </trkpt>
      <trkpt lat="59.9662365" lon="17.7184858">
        <ele>34.7449</ele>
        <time>2014-06-06T12:41:32Z</time>
      </trkpt>
      <trkpt lat="59.9662265" lon="17.718479">
        <ele>34.7449</ele>
        <time>2014-06-06T12:41:33Z</time>
      </trkpt>
      <trkpt lat="59.9662147" lon="17.7184721">
        <ele>35.2255</ele>
        <time>2014-06-06T12:41:34Z</time>
      </trkpt>
      <trkpt lat="59.966198" lon="17.7184573">
        <ele>35.2255</ele>
        <time>2014-06-06T12:41:35Z</time>
      </trkpt>
      <trkpt lat="59.9661779" lon="17.7184314">
        <ele>35.2255</ele>
        <time>2014-06-06T12:41:36Z</time>
      </trkpt>
      <trkpt lat="59.9661555" lon="17.7184163">
        <ele>35.2255</ele>
        <time>2014-06-06T12:41:37Z</time>
      </trkpt>
      <trkpt lat="59.9661278" lon="17.7184003">
        <ele>35.2255</ele>
        <time>2014-06-06T12:41:38Z</time>
      </trkpt>
      <trkpt lat="59.9660986" lon="17.7183801">
        <ele>35.2255</ele>
        <time>2014-06-06T12:41:39Z</time>
      </trkpt>
      <trkpt lat="59.9660708" lon="17.7183485">
        <ele>36.1868</ele>
        <time>2014-06-06T12:41:40Z</time>
      </trkpt>
      <trkpt lat="59.9660455" lon="17.7183273">
        <ele>36.1868</ele>
        <time>2014-06-06T12:41:41Z</time>
      </trkpt>
      <trkpt lat="59.9660214" lon="17.7183189">
        <ele>35.7061</ele>
        <time>2014-06-06T12:41:42Z</time>
      </trkpt>
      <trkpt lat="59.9659956" lon="17.7183184">
        <ele>35.7061</ele>
        <time>2014-06-06T12:41:43Z</time>
      </trkpt>
      <trkpt lat="59.9659698" lon="17.7183229">
        <ele>35.2255</ele>
        <time>2014-06-06T12:41:44Z</time>
      </trkpt>
      <trkpt lat="59.9659424" lon="17.7183257">
        <ele>34.7449</ele>
        <time>2014-06-06T12:41:45Z</time>
      </trkpt>
      <trkpt lat="59.9659119" lon="17.7183213">
        <ele>34.7449</ele>
        <time>2014-06-06T12:41:46Z</time>
      </trkpt>
      <trkpt lat="59.9658817" lon="17.7183071">
        <ele>34.7449</ele>
        <time>2014-06-06T12:41:47Z</time>
      </trkpt>
      <trkpt lat="59.9658433" lon="17.7182806">
        <ele>35.2255</ele>
        <time>2014-06-06T12:41:48Z</time>
      </trkpt>
      <trkpt lat="59.9658138" lon="17.7182563">
        <ele>35.2255</ele>
        <time>2014-06-06T12:41:49Z</time>
      </trkpt>
      <trkpt lat="59.9657924" lon="17.7182409">
        <ele>35.7061</ele>
        <time>2014-06-06T12:41:50Z</time>
      </trkpt>
      <trkpt lat="59.9657724" lon="17.7182325">
        <ele>35.2255</ele>
        <time>2014-06-06T12:41:51Z</time>
      </trkpt>
      <trkpt lat="59.9657547" lon="17.7182261">
        <ele>35.2255</ele>
        <time>2014-06-06T12:41:52Z</time>
      </trkpt>
      <trkpt lat="59.9657375" lon="17.7182198">
        <ele>35.7061</ele>
        <time>2014-06-06T12:41:53Z</time>
      </trkpt>
      <trkpt lat="59.9657111" lon="17.718204">
        <ele>36.1868</ele>
        <time>2014-06-06T12:41:54Z</time>
      </trkpt>
      <trkpt lat="59.9656921" lon="17.7182024">
        <ele>35.7061</ele>
        <time>2014-06-06T12:41:55Z</time>
      </trkpt>
      <trkpt lat="59.9656731" lon="17.7181906">
        <ele>36.1868</ele>
        <time>2014-06-06T12:41:56Z</time>
      </trkpt>
      <trkpt lat="59.9656469" lon="17.7181662">
        <ele>37.1481</ele>
        <time>2014-06-06T12:41:57Z</time>
      </trkpt>
      <trkpt lat="59.965619" lon="17.7181486">
        <ele>37.6287</ele>
        <time>2014-06-06T12:41:58Z</time>
      </trkpt>
      <trkpt lat="59.9655893" lon="17.7181312">
        <ele>38.1094</ele>
        <time>2014-06-06T12:41:59Z</time>
      </trkpt>
      <trkpt lat="59.9655636" lon="17.7181272">
        <ele>38.1094</ele>
        <time>2014-06-06T12:42:00Z</time>
      </trkpt>
      <trkpt lat="59.9655379" lon="17.7181178">
        <ele>37.6287</ele>
        <time>2014-06-06T12:42:01Z</time>
      </trkpt>
      <trkpt lat="59.965513" lon="17.7181093">
        <ele>37.6287</ele>
        <time>2014-06-06T12:42:02Z</time>
      </trkpt>
      <trkpt lat="59.9654881" lon="17.7181067">
        <ele>38.1094</ele>
        <time>2014-06-06T12:42:03Z</time>
      </trkpt>
      <trkpt lat="59.9654626" lon="17.7181077">
        <ele>37.6287</ele>
        <time>2014-06-06T12:42:04Z</time>
      </trkpt>
      <trkpt lat="59.9654341" lon="17.7181189">
        <ele>36.1868</ele>
        <time>2014-06-06T12:42:05Z</time>
      </trkpt>
      <trkpt lat="59.9654083" lon="17.7181333">
        <ele>35.7061</ele>
        <time>2014-06-06T12:42:06Z</time>
      </trkpt>
      <trkpt lat="59.9653788" lon="17.7181397">
        <ele>35.7061</ele>
        <time>2014-06-06T12:42:07Z</time>
      </trkpt>
      <trkpt lat="59.9653466" lon="17.7181468">
        <ele>36.1868</ele>
        <time>2014-06-06T12:42:08Z</time>
      </trkpt>
      <trkpt lat="59.9653027" lon="17.7181459">
        <ele>36.1868</ele>
        <time>2014-06-06T12:42:09Z</time>
      </trkpt>
      <trkpt lat="59.9652663" lon="17.7181526">
        <ele>36.6675</ele>
        <time>2014-06-06T12:42:10Z</time>
      </trkpt>
      <trkpt lat="59.9652373" lon="17.7181728">
        <ele>37.1481</ele>
        <time>2014-06-06T12:42:11Z</time>
      </trkpt>
      <trkpt lat="59.9651998" lon="17.7181911">
        <ele>37.6287</ele>
        <time>2014-06-06T12:42:12Z</time>
      </trkpt>
      <trkpt lat="59.9651688" lon="17.7182268">
        <ele>37.6287</ele>
        <time>2014-06-06T12:42:13Z</time>
      </trkpt>
      <trkpt lat="59.9651352" lon="17.7182664">
        <ele>37.6287</ele>
        <time>2014-06-06T12:42:14Z</time>
      </trkpt>
      <trkpt lat="59.9651037" lon="17.7183025">
        <ele>37.1481</ele>
        <time>2014-06-06T12:42:15Z</time>
      </trkpt>
      <trkpt lat="59.9650715" lon="17.7183391">
        <ele>36.6675</ele>
        <time>2014-06-06T12:42:16Z</time>
      </trkpt>
      <trkpt lat="59.9650343" lon="17.7183687">
        <ele>37.1481</ele>
        <time>2014-06-06T12:42:17Z</time>
      </trkpt>
      <trkpt lat="59.9649957" lon="17.7183954">
        <ele>37.6287</ele>
        <time>2014-06-06T12:42:18Z</time>
      </trkpt>
      <trkpt lat="59.9649605" lon="17.7184173">
        <ele>37.6287</ele>
        <time>2014-06-06T12:42:19Z</time>
      </trkpt>
      <trkpt lat="59.9649258" lon="17.718435">
        <ele>38.1094</ele>
        <time>2014-06-06T12:42:20Z</time>
      </trkpt>
      <trkpt lat="59.9648922" lon="17.7184537">
        <ele>38.1094</ele>
        <time>2014-06-06T12:42:21Z</time>
      </trkpt>
      <trkpt lat="59.9648607" lon="17.7184815">
        <ele>38.1094</ele>
        <time>2014-06-06T12:42:22Z</time>
      </trkpt>
      <trkpt lat="59.9648277" lon="17.7185064">
        <ele>38.1094</ele>
        <time>2014-06-06T12:42:23Z</time>
      </trkpt>
      <trkpt lat="59.9647969" lon="17.7185307">
        <ele>37.6287</ele>
        <time>2014-06-06T12:42:24Z</time>
      </trkpt>
      <trkpt lat="59.9647676" lon="17.7185622">
        <ele>37.6287</ele>
        <time>2014-06-06T12:42:25Z</time>
      </trkpt>
      <trkpt lat="59.964736" lon="17.7185884">
        <ele>38.1094</ele>
        <time>2014-06-06T12:42:26Z</time>
      </trkpt>
      <trkpt lat="59.9647063" lon="17.7186109">
        <ele>38.1094</ele>
        <time>2014-06-06T12:42:27Z</time>
      </trkpt>
      <trkpt lat="59.964682" lon="17.7186229">
        <ele>38.5901</ele>
        <time>2014-06-06T12:42:28Z</time>
      </trkpt>
      <trkpt lat="59.9646555" lon="17.7186358">
        <ele>39.0707</ele>
        <time>2014-06-06T12:42:29Z</time>
      </trkpt>
      <trkpt lat="59.9646265" lon="17.718651">
        <ele>39.0707</ele>
        <time>2014-06-06T12:42:30Z</time>
      </trkpt>
      <trkpt lat="59.9645955" lon="17.7186698">
        <ele>38.1094</ele>
        <time>2014-06-06T12:42:31Z</time>
      </trkpt>
      <trkpt lat="59.9645649" lon="17.7186909">
        <ele>37.6287</ele>
        <time>2014-06-06T12:42:32Z</time>
      </trkpt>
      <trkpt lat="59.9645256" lon="17.7186983">
        <ele>38.1094</ele>
        <time>2014-06-06T12:42:33Z</time>
      </trkpt>
      <trkpt lat="59.9644831" lon="17.7186976">
        <ele>38.1094</ele>
        <time>2014-06-06T12:42:34Z</time>
      </trkpt>
      <trkpt lat="59.9644427" lon="17.7187013">
        <ele>38.1094</ele>
        <time>2014-06-06T12:42:35Z</time>
      </trkpt>
      <trkpt lat="59.9644112" lon="17.7187105">
        <ele>37.6287</ele>
        <time>2014-06-06T12:42:36Z</time>
      </trkpt>
      <trkpt lat="59.9643789" lon="17.7187122">
        <ele>37.6287</ele>
        <time>2014-06-06T12:42:37Z</time>
      </trkpt>
      <trkpt lat="59.9643441" lon="17.7187125">
        <ele>37.6287</ele>
        <time>2014-06-06T12:42:38Z</time>
      </trkpt>
      <trkpt lat="59.9643095" lon="17.7187054">
        <ele>37.1481</ele>
        <time>2014-06-06T12:42:39Z</time>
      </trkpt>
      <trkpt lat="59.964276" lon="17.7186971">
        <ele>36.6675</ele>
        <time>2014-06-06T12:42:40Z</time>
      </trkpt>
      <trkpt lat="59.9642415" lon="17.7186904">
        <ele>36.1868</ele>
        <time>2014-06-06T12:42:41Z</time>
      </trkpt>
      <trkpt lat="59.9642066" lon="17.7186861">
        <ele>35.7061</ele>
        <time>2014-06-06T12:42:42Z</time>
      </trkpt>
      <trkpt lat="59.9641706" lon="17.7186832">
        <ele>35.7061</ele>
        <time>2014-06-06T12:42:43Z</time>
      </trkpt>
      <trkpt lat="59.9641368" lon="17.7186759">
        <ele>35.2255</ele>
        <time>2014-06-06T12:42:44Z</time>
      </trkpt>
      <trkpt lat="59.9640999" lon="17.7186702">
        <ele>34.7449</ele>
        <time>2014-06-06T12:42:45Z</time>
      </trkpt>
      <trkpt lat="59.9640629" lon="17.7186697">
        <ele>34.7449</ele>
        <time>2014-06-06T12:42:46Z</time>
      </trkpt>
      <trkpt lat="59.9640246" lon="17.718661">
        <ele>34.2642</ele>
        <time>2014-06-06T12:42:47Z</time>
      </trkpt>
      <trkpt lat="59.9639884" lon="17.7186557">
        <ele>34.2642</ele>
        <time>2014-06-06T12:42:48Z</time>
      </trkpt>
      <trkpt lat="59.9639525" lon="17.718653">
        <ele>33.7834</ele>
        <time>2014-06-06T12:42:49Z</time>
      </trkpt>
      <trkpt lat="59.9639127" lon="17.7186453">
        <ele>33.7834</ele>
        <time>2014-06-06T12:42:50Z</time>
      </trkpt>
      <trkpt lat="59.9638703" lon="17.7186375">
        <ele>33.7834</ele>
        <time>2014-06-06T12:42:51Z</time>
      </trkpt>
      <trkpt lat="59.9638256" lon="17.718627">
        <ele>33.7834</ele>
        <time>2014-06-06T12:42:52Z</time>
      </trkpt>
      <trkpt lat="59.9637817" lon="17.7186179">
        <ele>33.7834</ele>
        <time>2014-06-06T12:42:53Z</time>
      </trkpt>
      <trkpt lat="59.9637403" lon="17.7186073">
        <ele>34.2642</ele>
        <time>2014-06-06T12:42:54Z</time>
      </trkpt>
      <trkpt lat="59.9637035" lon="17.7185897">
        <ele>34.2642</ele>
        <time>2014-06-06T12:42:55Z</time>
      </trkpt>
      <trkpt lat="59.9636691" lon="17.7185583">
        <ele>34.2642</ele>
        <time>2014-06-06T12:42:56Z</time>
      </trkpt>
      <trkpt lat="59.9636418" lon="17.7185211">
        <ele>33.7834</ele>
        <time>2014-06-06T12:42:57Z</time>
      </trkpt>
      <trkpt lat="59.9636214" lon="17.7185004">
        <ele>33.7834</ele>
        <time>2014-06-06T12:42:58Z</time>
      </trkpt>
      <trkpt lat="59.9635917" lon="17.718476">
        <ele>34.2642</ele>
        <time>2014-06-06T12:42:59Z</time>
      </trkpt>
      <trkpt lat="59.963579" lon="17.7184687">
        <ele>34.2642</ele>
        <time>2014-06-06T12:43:00Z</time>
      </trkpt>
      <trkpt lat="59.9635625" lon="17.7184722">
        <ele>34.2642</ele>
        <time>2014-06-06T12:43:01Z</time>
      </trkpt>
      <trkpt lat="59.9635388" lon="17.7184781">
        <ele>34.7449</ele>
        <time>2014-06-06T12:43:02Z</time>
      </trkpt>
      <trkpt lat="59.9635128" lon="17.7184947">
        <ele>34.7449</ele>
        <time>2014-06-06T12:43:03Z</time>
      </trkpt>
      <trkpt lat="59.9634895" lon="17.718493">
        <ele>35.2255</ele>
        <time>2014-06-06T12:43:04Z</time>
      </trkpt>
      <trkpt lat="59.9634636" lon="17.718484">
        <ele>35.2255</ele>
        <time>2014-06-06T12:43:05Z</time>
      </trkpt>
      <trkpt lat="59.9634393" lon="17.718489">
        <ele>35.2255</ele>
        <time>2014-06-06T12:43:06Z</time>
      </trkpt>
      <trkpt lat="59.9634098" lon="17.7184904">
        <ele>34.7449</ele>
        <time>2014-06-06T12:43:07Z</time>
      </trkpt>
      <trkpt lat="59.9633766" lon="17.7184814">
        <ele>34.7449</ele>
        <time>2014-06-06T12:43:08Z</time>
      </trkpt>
      <trkpt lat="59.9633435" lon="17.7184682">
        <ele>34.7449</ele>
        <time>2014-06-06T12:43:09Z</time>
      </trkpt>
      <trkpt lat="59.9633085" lon="17.7184485">
        <ele>35.2255</ele>
        <time>2014-06-06T12:43:10Z</time>
      </trkpt>
      <trkpt lat="59.9632647" lon="17.718421">
        <ele>35.7061</ele>
        <time>2014-06-06T12:43:11Z</time>
      </trkpt>
      <trkpt lat="59.9632231" lon="17.7184075">
        <ele>36.1868</ele>
        <time>2014-06-06T12:43:12Z</time>
      </trkpt>
      <trkpt lat="59.9631871" lon="17.7183935">
        <ele>36.1868</ele>
        <time>2014-06-06T12:43:13Z</time>
      </trkpt>
      <trkpt lat="59.9631555" lon="17.7183842">
        <ele>36.6675</ele>
        <time>2014-06-06T12:43:14Z</time>
      </trkpt>
      <trkpt lat="59.9631278" lon="17.7183775">
        <ele>36.6675</ele>
        <time>2014-06-06T12:43:15Z</time>
      </trkpt>
      <trkpt lat="59.9631062" lon="17.7183752">
        <ele>36.1868</ele>
        <time>2014-06-06T12:43:16Z</time>
      </trkpt>
      <trkpt lat="59.9630844" lon="17.7183757">
        <ele>35.7061</ele>
        <time>2014-06-06T12:43:17Z</time>
      </trkpt>
      <trkpt lat="59.9630611" lon="17.7183924">
        <ele>34.2642</ele>
        <time>2014-06-06T12:43:18Z</time>
      </trkpt>
      <trkpt lat="59.963043" lon="17.7184189">
        <ele>33.7834</ele>
        <time>2014-06-06T12:43:19Z</time>
      </trkpt>
      <trkpt lat="59.9630306" lon="17.7184557">
        <ele>33.3029</ele>
        <time>2014-06-06T12:43:20Z</time>
      </trkpt>
      <trkpt lat="59.9630172" lon="17.7184858">
        <ele>33.3029</ele>
        <time>2014-06-06T12:43:21Z</time>
      </trkpt>
      <trkpt lat="59.963005" lon="17.7185151">
        <ele>32.8223</ele>
        <time>2014-06-06T12:43:22Z</time>
      </trkpt>
      <trkpt lat="59.9629907" lon="17.7185468">
        <ele>32.8223</ele>
        <time>2014-06-06T12:43:23Z</time>
      </trkpt>
      <trkpt lat="59.9629711" lon="17.71857">
        <ele>32.3416</ele>
        <time>2014-06-06T12:43:24Z</time>
      </trkpt>
      <trkpt lat="59.9629472" lon="17.7185851">
        <ele>32.3416</ele>
        <time>2014-06-06T12:43:25Z</time>
      </trkpt>
      <trkpt lat="59.9629247" lon="17.7185997">
        <ele>33.3029</ele>
        <time>2014-06-06T12:43:26Z</time>
      </trkpt>
      <trkpt lat="59.9628913" lon="17.7186179">
        <ele>32.8223</ele>
        <time>2014-06-06T12:43:27Z</time>
      </trkpt>
      <trkpt lat="59.9628561" lon="17.7186283">
        <ele>32.3416</ele>
        <time>2014-06-06T12:43:28Z</time>
      </trkpt>
      <trkpt lat="59.9628286" lon="17.7186456">
        <ele>30.8995</ele>
        <time>2014-06-06T12:43:29Z</time>
      </trkpt>
      <trkpt lat="59.9628006" lon="17.7186608">
        <ele>30.4188</ele>
        <time>2014-06-06T12:43:30Z</time>
      </trkpt>
      <trkpt lat="59.9627716" lon="17.7186635">
        <ele>30.4188</ele>
        <time>2014-06-06T12:43:31Z</time>
      </trkpt>
      <trkpt lat="59.9627401" lon="17.7186614">
        <ele>30.8995</ele>
        <time>2014-06-06T12:43:32Z</time>
      </trkpt>
      <trkpt lat="59.9627083" lon="17.718651">
        <ele>31.3801</ele>
        <time>2014-06-06T12:43:33Z</time>
      </trkpt>
      <trkpt lat="59.9626781" lon="17.7186312">
        <ele>31.8607</ele>
        <time>2014-06-06T12:43:34Z</time>
      </trkpt>
      <trkpt lat="59.9626534" lon="17.7186298">
        <ele>31.8607</ele>
        <time>2014-06-06T12:43:35Z</time>
      </trkpt>
      <trkpt lat="59.9626291" lon="17.7186229">
        <ele>32.8223</ele>
        <time>2014-06-06T12:43:36Z</time>
      </trkpt>
      <trkpt lat="59.9626084" lon="17.7186143">
        <ele>33.3029</ele>
        <time>2014-06-06T12:43:37Z</time>
      </trkpt>
      <trkpt lat="59.9625856" lon="17.7186049">
        <ele>34.7449</ele>
        <time>2014-06-06T12:43:38Z</time>
      </trkpt>
      <trkpt lat="59.9625566" lon="17.7185914">
        <ele>35.7061</ele>
        <time>2014-06-06T12:43:39Z</time>
      </trkpt>
      <trkpt lat="59.9625297" lon="17.7185791">
        <ele>36.1868</ele>
        <time>2014-06-06T12:43:40Z</time>
      </trkpt>
      <trkpt lat="59.9624999" lon="17.7185698">
        <ele>36.6675</ele>
        <time>2014-06-06T12:43:41Z</time>
      </trkpt>
      <trkpt lat="59.962465" lon="17.718562">
        <ele>37.1481</ele>
        <time>2014-06-06T12:43:42Z</time>
      </trkpt>
      <trkpt lat="59.9624281" lon="17.7185562">
        <ele>37.6287</ele>
        <time>2014-06-06T12:43:43Z</time>
      </trkpt>
      <trkpt lat="59.9623943" lon="17.7185601">
        <ele>38.1094</ele>
        <time>2014-06-06T12:43:44Z</time>
      </trkpt>
      <trkpt lat="59.9623624" lon="17.7185703">
        <ele>38.1094</ele>
        <time>2014-06-06T12:43:45Z</time>
      </trkpt>
      <trkpt lat="59.9623334" lon="17.7185855">
        <ele>38.1094</ele>
        <time>2014-06-06T12:43:46Z</time>
      </trkpt>
      <trkpt lat="59.962309" lon="17.7185935">
        <ele>37.6287</ele>
        <time>2014-06-06T12:43:47Z</time>
      </trkpt>
      <trkpt lat="59.962285" lon="17.7186017">
        <ele>37.1481</ele>
        <time>2014-06-06T12:43:48Z</time>
      </trkpt>
      <trkpt lat="59.9622572" lon="17.7185925">
        <ele>37.6287</ele>
        <time>2014-06-06T12:43:49Z</time>
      </trkpt>
      <trkpt lat="59.9622354" lon="17.7185789">
        <ele>38.1094</ele>
        <time>2014-06-06T12:43:50Z</time>
      </trkpt>
      <trkpt lat="59.9622132" lon="17.7185578">
        <ele>38.5901</ele>
        <time>2014-06-06T12:43:51Z</time>
      </trkpt>
      <trkpt lat="59.9621909" lon="17.718535">
        <ele>39.0707</ele>
        <time>2014-06-06T12:43:52Z</time>
      </trkpt>
      <trkpt lat="59.9621708" lon="17.7185163">
        <ele>39.5513</ele>
        <time>2014-06-06T12:43:53Z</time>
      </trkpt>
      <trkpt lat="59.9621592" lon="17.7184987">
        <ele>39.5513</ele>
        <time>2014-06-06T12:43:54Z</time>
      </trkpt>
      <trkpt lat="59.9621506" lon="17.718477">
        <ele>39.5513</ele>
        <time>2014-06-06T12:43:55Z</time>
      </trkpt>
      <trkpt lat="59.9621417" lon="17.7184485">
        <ele>40.0321</ele>
        <time>2014-06-06T12:43:56Z</time>
      </trkpt>
      <trkpt lat="59.9621314" lon="17.7184165">
        <ele>40.0321</ele>
        <time>2014-06-06T12:43:57Z</time>
      </trkpt>
      <trkpt lat="59.9621225" lon="17.7183892">
        <ele>40.0321</ele>
        <time>2014-06-06T12:43:58Z</time>
      </trkpt>
      <trkpt lat="59.9621132" lon="17.7183747">
        <ele>39.5513</ele>
        <time>2014-06-06T12:43:59Z</time>
      </trkpt>
      <trkpt lat="59.9621029" lon="17.7183702">
        <ele>39.0707</ele>
        <time>2014-06-06T12:44:00Z</time>
      </trkpt>
      <trkpt lat="59.9620928" lon="17.7183769">
        <ele>39.5513</ele>
        <time>2014-06-06T12:44:01Z</time>
      </trkpt>
      <trkpt lat="59.9620892" lon="17.7183868">
        <ele>39.5513</ele>
        <time>2014-06-06T12:44:02Z</time>
      </trkpt>
      <trkpt lat="59.9620846" lon="17.7184017">
        <ele>40.0321</ele>
        <time>2014-06-06T12:44:03Z</time>
      </trkpt>
      <trkpt lat="59.9620716" lon="17.7184215">
        <ele>40.0321</ele>
        <time>2014-06-06T12:44:04Z</time>
      </trkpt>
      <trkpt lat="59.9620562" lon="17.7184475">
        <ele>40.0321</ele>
        <time>2014-06-06T12:44:05Z</time>
      </trkpt>
      <trkpt lat="59.9620432" lon="17.7184764">
        <ele>39.5513</ele>
        <time>2014-06-06T12:44:06Z</time>
      </trkpt>
      <trkpt lat="59.9620256" lon="17.7184995">
        <ele>39.0707</ele>
        <time>2014-06-06T12:44:07Z</time>
      </trkpt>
      <trkpt lat="59.9620032" lon="17.7185118">
        <ele>38.5901</ele>
        <time>2014-06-06T12:44:08Z</time>
      </trkpt>
      <trkpt lat="59.9619795" lon="17.7185204">
        <ele>38.5901</ele>
        <time>2014-06-06T12:44:09Z</time>
      </trkpt>
      <trkpt lat="59.9619517" lon="17.7185218">
        <ele>38.1094</ele>
        <time>2014-06-06T12:44:10Z</time>
      </trkpt>
      <trkpt lat="59.9619208" lon="17.7185179">
        <ele>38.5901</ele>
        <time>2014-06-06T12:44:11Z</time>
      </trkpt>
      <trkpt lat="59.961893" lon="17.718517">
        <ele>39.0707</ele>
        <time>2014-06-06T12:44:12Z</time>
      </trkpt>
      <trkpt lat="59.9618713" lon="17.7185153">
        <ele>39.5513</ele>
        <time>2014-06-06T12:44:13Z</time>
      </trkpt>
      <trkpt lat="59.9618503" lon="17.7185164">
        <ele>39.5513</ele>
        <time>2014-06-06T12:44:14Z</time>
      </trkpt>
      <trkpt lat="59.9618287" lon="17.7185117">
        <ele>39.5513</ele>
        <time>2014-06-06T12:44:15Z</time>
      </trkpt>
      <trkpt lat="59.9618046" lon="17.7185079">
        <ele>39.5513</ele>
        <time>2014-06-06T12:44:16Z</time>
      </trkpt>
      <trkpt lat="59.9617801" lon="17.7185086">
        <ele>39.5513</ele>
        <time>2014-06-06T12:44:17Z</time>
      </trkpt>
      <trkpt lat="59.9617578" lon="17.718518">
        <ele>39.0707</ele>
        <time>2014-06-06T12:44:18Z</time>
      </trkpt>
      <trkpt lat="59.9617345" lon="17.7185224">
        <ele>39.0707</ele>
        <time>2014-06-06T12:44:19Z</time>
      </trkpt>
      <trkpt lat="59.9617132" lon="17.7185319">
        <ele>38.5901</ele>
        <time>2014-06-06T12:44:20Z</time>
      </trkpt>
      <trkpt lat="59.9616913" lon="17.718542">
        <ele>38.5901</ele>
        <time>2014-06-06T12:44:21Z</time>
      </trkpt>
      <trkpt lat="59.9616722" lon="17.7185566">
        <ele>38.5901</ele>
        <time>2014-06-06T12:44:22Z</time>
      </trkpt>
      <trkpt lat="59.9616484" lon="17.7185692">
        <ele>38.5901</ele>
        <time>2014-06-06T12:44:23Z</time>
      </trkpt>
      <trkpt lat="59.9616261" lon="17.7185883">
        <ele>38.5901</ele>
        <time>2014-06-06T12:44:24Z</time>
      </trkpt>
      <trkpt lat="59.9616045" lon="17.7186135">
        <ele>39.0707</ele>
        <time>2014-06-06T12:44:25Z</time>
      </trkpt>
      <trkpt lat="59.9615812" lon="17.7186387">
        <ele>39.0707</ele>
        <time>2014-06-06T12:44:26Z</time>
      </trkpt>
      <trkpt lat="59.9615626" lon="17.7186674">
        <ele>39.0707</ele>
        <time>2014-06-06T12:44:27Z</time>
      </trkpt>
      <trkpt lat="59.9615494" lon="17.7186928">
        <ele>38.5901</ele>
        <time>2014-06-06T12:44:28Z</time>
      </trkpt>
      <trkpt lat="59.961535" lon="17.7187282">
        <ele>38.5901</ele>
        <time>2014-06-06T12:44:29Z</time>
      </trkpt>
      <trkpt lat="59.9615144" lon="17.7187659">
        <ele>38.5901</ele>
        <time>2014-06-06T12:44:30Z</time>
      </trkpt>
      <trkpt lat="59.9614931" lon="17.7188086">
        <ele>38.1094</ele>
        <time>2014-06-06T12:44:31Z</time>
      </trkpt>
      <trkpt lat="59.9614714" lon="17.7188513">
        <ele>38.5901</ele>
        <time>2014-06-06T12:44:32Z</time>
      </trkpt>
      <trkpt lat="59.9614506" lon="17.7188863">
        <ele>39.5513</ele>
        <time>2014-06-06T12:44:33Z</time>
      </trkpt>
      <trkpt lat="59.9614287" lon="17.7189018">
        <ele>39.5513</ele>
        <time>2014-06-06T12:44:34Z</time>
      </trkpt>
      <trkpt lat="59.9613997" lon="17.7189012">
        <ele>40.0321</ele>
        <time>2014-06-06T12:44:35Z</time>
      </trkpt>
      <trkpt lat="59.9613705" lon="17.7188881">
        <ele>40.0321</ele>
        <time>2014-06-06T12:44:36Z</time>
      </trkpt>
      <trkpt lat="59.9613409" lon="17.7188686">
        <ele>40.0321</ele>
        <time>2014-06-06T12:44:37Z</time>
      </trkpt>
      <trkpt lat="59.9613106" lon="17.7188458">
        <ele>40.0321</ele>
        <time>2014-06-06T12:44:38Z</time>
      </trkpt>
      <trkpt lat="59.9612819" lon="17.7188199">
        <ele>39.5513</ele>
        <time>2014-06-06T12:44:39Z</time>
      </trkpt>
      <trkpt lat="59.9612533" lon="17.7187891">
        <ele>39.5513</ele>
        <time>2014-06-06T12:44:40Z</time>
      </trkpt>
      <trkpt lat="59.9612228" lon="17.7187586">
        <ele>39.5513</ele>
        <time>2014-06-06T12:44:41Z</time>
      </trkpt>
      <trkpt lat="59.9611897" lon="17.7187417">
        <ele>40.0321</ele>
        <time>2014-06-06T12:44:42Z</time>
      </trkpt>
      <trkpt lat="59.9611581" lon="17.7187257">
        <ele>40.0321</ele>
        <time>2014-06-06T12:44:43Z</time>
      </trkpt>
      <trkpt lat="59.9611316" lon="17.718707">
        <ele>39.5513</ele>
        <time>2014-06-06T12:44:44Z</time>
      </trkpt>
      <trkpt lat="59.9611042" lon="17.7186856">
        <ele>39.5513</ele>
        <time>2014-06-06T12:44:45Z</time>
      </trkpt>
      <trkpt lat="59.9610814" lon="17.7186406">
        <ele>39.5513</ele>
        <time>2014-06-06T12:44:46Z</time>
      </trkpt>
      <trkpt lat="59.9611558" lon="17.7181739">
        <ele>42.916</ele>
        <time>2014-06-06T12:46:14Z</time>
      </trkpt>
      <trkpt lat="59.9611461" lon="17.7182179">
        <ele>42.916</ele>
        <time>2014-06-06T12:46:15Z</time>
      </trkpt>
      <trkpt lat="59.9611248" lon="17.7182558">
        <ele>41.474</ele>
        <time>2014-06-06T12:46:16Z</time>
      </trkpt>
      <trkpt lat="59.9610946" lon="17.7182745">
        <ele>40.0321</ele>
        <time>2014-06-06T12:46:17Z</time>
      </trkpt>
      <trkpt lat="59.9610563" lon="17.7182618">
        <ele>39.0707</ele>
        <time>2014-06-06T12:46:18Z</time>
      </trkpt>
      <trkpt lat="59.9610148" lon="17.7182227">
        <ele>39.0707</ele>
        <time>2014-06-06T12:46:19Z</time>
      </trkpt>
      <trkpt lat="59.9609732" lon="17.7181719">
        <ele>39.5513</ele>
        <time>2014-06-06T12:46:20Z</time>
      </trkpt>
      <trkpt lat="59.9609322" lon="17.7181206">
        <ele>40.0321</ele>
        <time>2014-06-06T12:46:21Z</time>
      </trkpt>
      <trkpt lat="59.9608917" lon="17.7180749">
        <ele>40.0321</ele>
        <time>2014-06-06T12:46:22Z</time>
      </trkpt>
      <trkpt lat="59.9608501" lon="17.7180315">
        <ele>40.0321</ele>
        <time>2014-06-06T12:46:23Z</time>
      </trkpt>
      <trkpt lat="59.9608077" lon="17.7179957">
        <ele>40.0321</ele>
        <time>2014-06-06T12:46:24Z</time>
      </trkpt>
      <trkpt lat="59.9607644" lon="17.7179741">
        <ele>40.0321</ele>
        <time>2014-06-06T12:46:25Z</time>
      </trkpt>
      <trkpt lat="59.9607208" lon="17.7179769">
        <ele>40.5128</ele>
        <time>2014-06-06T12:46:26Z</time>
      </trkpt>
      <trkpt lat="59.9606804" lon="17.7180087">
        <ele>40.5128</ele>
        <time>2014-06-06T12:46:27Z</time>
      </trkpt>
      <trkpt lat="59.9606473" lon="17.7180672">
        <ele>40.5128</ele>
        <time>2014-06-06T12:46:28Z</time>
      </trkpt>
      <trkpt lat="59.9606109" lon="17.7181252">
        <ele>40.5128</ele>
        <time>2014-06-06T12:46:29Z</time>
      </trkpt>
      <trkpt lat="59.9605654" lon="17.7181491">
        <ele>40.9934</ele>
        <time>2014-06-06T12:46:30Z</time>
      </trkpt>
      <trkpt lat="59.9605202" lon="17.7181294">
        <ele>40.9934</ele>
        <time>2014-06-06T12:46:31Z</time>
      </trkpt>
      <trkpt lat="59.9604783" lon="17.7180874">
        <ele>40.9934</ele>
        <time>2014-06-06T12:46:32Z</time>
      </trkpt>
      <trkpt lat="59.9604382" lon="17.7180414">
        <ele>40.9934</ele>
        <time>2014-06-06T12:46:33Z</time>
      </trkpt>
      <trkpt lat="59.9603953" lon="17.7179991">
        <ele>41.474</ele>
        <time>2014-06-06T12:46:34Z</time>
      </trkpt>
      <trkpt lat="59.9603491" lon="17.7179715">
        <ele>41.474</ele>
        <time>2014-06-06T12:46:35Z</time>
      </trkpt>
      <trkpt lat="59.9602946" lon="17.7179771">
        <ele>41.474</ele>
        <time>2014-06-06T12:46:36Z</time>
      </trkpt>
      <trkpt lat="59.9602489" lon="17.7180176">
        <ele>41.474</ele>
        <time>2014-06-06T12:46:37Z</time>
      </trkpt>
      <trkpt lat="59.9602188" lon="17.7180507">
        <ele>41.474</ele>
        <time>2014-06-06T12:46:38Z</time>
      </trkpt>
      <trkpt lat="59.960211" lon="17.71808">
        <ele>41.474</ele>
        <time>2014-06-06T12:46:39Z</time>
      </trkpt>
      <trkpt lat="59.9602148" lon="17.7181019">
        <ele>40.9934</ele>
        <time>2014-06-06T12:46:40Z</time>
      </trkpt>
      <trkpt lat="59.9602219" lon="17.7181036">
        <ele>40.0321</ele>
        <time>2014-06-06T12:46:41Z</time>
      </trkpt>
      <trkpt lat="59.9602298" lon="17.7180909">
        <ele>39.5513</ele>
        <time>2014-06-06T12:46:42Z</time>
      </trkpt>
      <trkpt lat="59.9602406" lon="17.7180615">
        <ele>39.5513</ele>
        <time>2014-06-06T12:46:43Z</time>
      </trkpt>
      <trkpt lat="59.9602509" lon="17.718031">
        <ele>39.5513</ele>
        <time>2014-06-06T12:46:44Z</time>
      </trkpt>
      <trkpt lat="59.9602669" lon="17.7179864">
        <ele>39.0707</ele>
        <time>2014-06-06T12:46:45Z</time>
      </trkpt>
      <trkpt lat="59.9602887" lon="17.7179334">
        <ele>39.0707</ele>
        <time>2014-06-06T12:46:46Z</time>
      </trkpt>
      <trkpt lat="59.9603115" lon="17.7178734">
        <ele>38.5901</ele>
        <time>2014-06-06T12:46:47Z</time>
      </trkpt>
      <trkpt lat="59.9603353" lon="17.7177987">
        <ele>38.5901</ele>
        <time>2014-06-06T12:46:48Z</time>
      </trkpt>
      <trkpt lat="59.9603508" lon="17.7177096">
        <ele>38.1094</ele>
        <time>2014-06-06T12:46:49Z</time>
      </trkpt>
      <trkpt lat="59.9603617" lon="17.717614">
        <ele>37.6287</ele>
        <time>2014-06-06T12:46:50Z</time>
      </trkpt>
      <trkpt lat="59.9603654" lon="17.7175238">
        <ele>37.6287</ele>
        <time>2014-06-06T12:46:51Z</time>
      </trkpt>
      <trkpt lat="59.9603618" lon="17.7174424">
        <ele>37.6287</ele>
        <time>2014-06-06T12:46:52Z</time>
      </trkpt>
      <trkpt lat="59.9603544" lon="17.7173601">
        <ele>37.6287</ele>
        <time>2014-06-06T12:46:53Z</time>
      </trkpt>
      <trkpt lat="59.960345" lon="17.7172741">
        <ele>37.1481</ele>
        <time>2014-06-06T12:46:54Z</time>
      </trkpt>
      <trkpt lat="59.9603359" lon="17.7171814">
        <ele>37.1481</ele>
        <time>2014-06-06T12:46:55Z</time>
      </trkpt>
      <trkpt lat="59.9603246" lon="17.7170855">
        <ele>36.6675</ele>
        <time>2014-06-06T12:46:56Z</time>
      </trkpt>
      <trkpt lat="59.9603077" lon="17.7169938">
        <ele>36.6675</ele>
        <time>2014-06-06T12:46:57Z</time>
      </trkpt>
      <trkpt lat="59.9602804" lon="17.7169069">
        <ele>36.6675</ele>
        <time>2014-06-06T12:46:58Z</time>
      </trkpt>
      <trkpt lat="59.9602482" lon="17.7168246">
        <ele>36.6675</ele>
        <time>2014-06-06T12:46:59Z</time>
      </trkpt>
      <trkpt lat="59.9602131" lon="17.7167453">
        <ele>37.1481</ele>
        <time>2014-06-06T12:47:00Z</time>
      </trkpt>
      <trkpt lat="59.9601748" lon="17.7166582">
        <ele>37.1481</ele>
        <time>2014-06-06T12:47:01Z</time>
      </trkpt>
      <trkpt lat="59.9601396" lon="17.7165659">
        <ele>37.6287</ele>
        <time>2014-06-06T12:47:02Z</time>
      </trkpt>
      <trkpt lat="59.9601038" lon="17.716478">
        <ele>37.6287</ele>
        <time>2014-06-06T12:47:03Z</time>
      </trkpt>
      <trkpt lat="59.9600649" lon="17.7163956">
        <ele>38.1094</ele>
        <time>2014-06-06T12:47:04Z</time>
      </trkpt>
      <trkpt lat="59.960026" lon="17.7163127">
        <ele>38.1094</ele>
        <time>2014-06-06T12:47:05Z</time>
      </trkpt>
      <trkpt lat="59.9599899" lon="17.7162273">
        <ele>38.5901</ele>
        <time>2014-06-06T12:47:06Z</time>
      </trkpt>
      <trkpt lat="59.9599573" lon="17.7161447">
        <ele>38.5901</ele>
        <time>2014-06-06T12:47:07Z</time>
      </trkpt>
      <trkpt lat="59.9599226" lon="17.7160677">
        <ele>39.0707</ele>
        <time>2014-06-06T12:47:08Z</time>
      </trkpt>
      <trkpt lat="59.959885" lon="17.7159972">
        <ele>39.0707</ele>
        <time>2014-06-06T12:47:09Z</time>
      </trkpt>
      <trkpt lat="59.9598442" lon="17.7159255">
        <ele>39.0707</ele>
        <time>2014-06-06T12:47:10Z</time>
      </trkpt>
      <trkpt lat="59.9598026" lon="17.7158595">
        <ele>39.5513</ele>
        <time>2014-06-06T12:47:11Z</time>
      </trkpt>
      <trkpt lat="59.9597607" lon="17.7157973">
        <ele>39.5513</ele>
        <time>2014-06-06T12:47:12Z</time>
      </trkpt>
      <trkpt lat="59.9597198" lon="17.715733">
        <ele>40.0321</ele>
        <time>2014-06-06T12:47:13Z</time>
      </trkpt>
      <trkpt lat="59.9596827" lon="17.71566">
        <ele>40.0321</ele>
        <time>2014-06-06T12:47:14Z</time>
      </trkpt>
      <trkpt lat="59.959653" lon="17.7155728">
        <ele>40.0321</ele>
        <time>2014-06-06T12:47:15Z</time>
      </trkpt>
      <trkpt lat="59.9596367" lon="17.7154761">
        <ele>40.0321</ele>
        <time>2014-06-06T12:47:16Z</time>
      </trkpt>
      <trkpt lat="59.9596366" lon="17.7153704">
        <ele>40.0321</ele>
        <time>2014-06-06T12:47:17Z</time>
      </trkpt>
      <trkpt lat="59.9596476" lon="17.7152657">
        <ele>40.0321</ele>
        <time>2014-06-06T12:47:18Z</time>
      </trkpt>
      <trkpt lat="59.9596698" lon="17.7151781">
        <ele>40.0321</ele>
        <time>2014-06-06T12:47:19Z</time>
      </trkpt>
      <trkpt lat="59.9597097" lon="17.7151166">
        <ele>39.5513</ele>
        <time>2014-06-06T12:47:20Z</time>
      </trkpt>
      <trkpt lat="59.9597571" lon="17.7150569">
        <ele>39.5513</ele>
        <time>2014-06-06T12:47:21Z</time>
      </trkpt>
      <trkpt lat="59.9598017" lon="17.7149939">
        <ele>39.0707</ele>
        <time>2014-06-06T12:47:22Z</time>
      </trkpt>
      <trkpt lat="59.9598441" lon="17.7149294">
        <ele>38.5901</ele>
        <time>2014-06-06T12:47:23Z</time>
      </trkpt>
      <trkpt lat="59.9598867" lon="17.7148634">
        <ele>38.1094</ele>
        <time>2014-06-06T12:47:24Z</time>
      </trkpt>
      <trkpt lat="59.9599276" lon="17.7147917">
        <ele>38.1094</ele>
        <time>2014-06-06T12:47:25Z</time>
      </trkpt>
      <trkpt lat="59.9599722" lon="17.7147199">
        <ele>37.6287</ele>
        <time>2014-06-06T12:47:26Z</time>
      </trkpt>
      <trkpt lat="59.9600173" lon="17.7146483">
        <ele>37.6287</ele>
        <time>2014-06-06T12:47:27Z</time>
      </trkpt>
      <trkpt lat="59.9600627" lon="17.7145733">
        <ele>37.1481</ele>
        <time>2014-06-06T12:47:28Z</time>
      </trkpt>
      <trkpt lat="59.9601059" lon="17.7144945">
        <ele>36.6675</ele>
        <time>2014-06-06T12:47:29Z</time>
      </trkpt>
      <trkpt lat="59.960153" lon="17.7144164">
        <ele>36.1868</ele>
        <time>2014-06-06T12:47:30Z</time>
      </trkpt>
      <trkpt lat="59.9602017" lon="17.7143391">
        <ele>35.7061</ele>
        <time>2014-06-06T12:47:31Z</time>
      </trkpt>
      <trkpt lat="59.9602535" lon="17.7142664">
        <ele>35.2255</ele>
        <time>2014-06-06T12:47:32Z</time>
      </trkpt>
      <trkpt lat="59.9603094" lon="17.7141962">
        <ele>34.7449</ele>
        <time>2014-06-06T12:47:33Z</time>
      </trkpt>
      <trkpt lat="59.9603664" lon="17.7141225">
        <ele>34.2642</ele>
        <time>2014-06-06T12:47:34Z</time>
      </trkpt>
      <trkpt lat="59.9604237" lon="17.7140392">
        <ele>33.3029</ele>
        <time>2014-06-06T12:47:35Z</time>
      </trkpt>
      <trkpt lat="59.96048" lon="17.7139443">
        <ele>32.8223</ele>
        <time>2014-06-06T12:47:36Z</time>
      </trkpt>
      <trkpt lat="59.96053" lon="17.7138377">
        <ele>32.3416</ele>
        <time>2014-06-06T12:47:37Z</time>
      </trkpt>
      <trkpt lat="59.9605638" lon="17.7137149">
        <ele>31.8607</ele>
        <time>2014-06-06T12:47:38Z</time>
      </trkpt>
      <trkpt lat="59.9605803" lon="17.7135496">
        <ele>31.3801</ele>
        <time>2014-06-06T12:47:39Z</time>
      </trkpt>
      <trkpt lat="59.9605715" lon="17.7134049">
        <ele>30.8995</ele>
        <time>2014-06-06T12:47:40Z</time>
      </trkpt>
      <trkpt lat="59.9605424" lon="17.7132754">
        <ele>30.4188</ele>
        <time>2014-06-06T12:47:41Z</time>
      </trkpt>
      <trkpt lat="59.9604919" lon="17.7131591">
        <ele>29.9381</ele>
        <time>2014-06-06T12:47:42Z</time>
      </trkpt>
      <trkpt lat="59.9604399" lon="17.7130388">
        <ele>29.4575</ele>
        <time>2014-06-06T12:47:43Z</time>
      </trkpt>
      <trkpt lat="59.9603996" lon="17.7128991">
        <ele>28.9769</ele>
        <time>2014-06-06T12:47:44Z</time>
      </trkpt>
      <trkpt lat="59.9603758" lon="17.7127431">
        <ele>28.4962</ele>
        <time>2014-06-06T12:47:45Z</time>
      </trkpt>
      <trkpt lat="59.9603676" lon="17.7125789">
        <ele>28.0155</ele>
        <time>2014-06-06T12:47:46Z</time>
      </trkpt>
      <trkpt lat="59.9603714" lon="17.7124141">
        <ele>27.5349</ele>
        <time>2014-06-06T12:47:47Z</time>
      </trkpt>
      <trkpt lat="59.9603813" lon="17.7122479">
        <ele>27.5349</ele>
        <time>2014-06-06T12:47:48Z</time>
      </trkpt>
      <trkpt lat="59.9603914" lon="17.7120828">
        <ele>27.5349</ele>
        <time>2014-06-06T12:47:49Z</time>
      </trkpt>
      <trkpt lat="59.9604015" lon="17.7119222">
        <ele>27.0543</ele>
        <time>2014-06-06T12:47:50Z</time>
      </trkpt>
      <trkpt lat="59.9604146" lon="17.7117749">
        <ele>27.0543</ele>
        <time>2014-06-06T12:47:51Z</time>
      </trkpt>
      <trkpt lat="59.9604393" lon="17.711648">
        <ele>27.0543</ele>
        <time>2014-06-06T12:47:52Z</time>
      </trkpt>
      <trkpt lat="59.9604601" lon="17.7115605">
        <ele>26.5736</ele>
        <time>2014-06-06T12:47:53Z</time>
      </trkpt>
      <trkpt lat="59.9604633" lon="17.7114947">
        <ele>27.0543</ele>
        <time>2014-06-06T12:47:54Z</time>
      </trkpt>
      <trkpt lat="59.9604455" lon="17.7114388">
        <ele>27.0543</ele>
        <time>2014-06-06T12:47:55Z</time>
      </trkpt>
      <trkpt lat="59.9604162" lon="17.7114004">
        <ele>27.0543</ele>
        <time>2014-06-06T12:47:56Z</time>
      </trkpt>
      <trkpt lat="59.9603788" lon="17.7113813">
        <ele>27.0543</ele>
        <time>2014-06-06T12:47:57Z</time>
      </trkpt>
      <trkpt lat="59.9603374" lon="17.7113729">
        <ele>27.5349</ele>
        <time>2014-06-06T12:47:58Z</time>
      </trkpt>
      <trkpt lat="59.9602954" lon="17.711366">
        <ele>27.5349</ele>
        <time>2014-06-06T12:47:59Z</time>
      </trkpt>
      <trkpt lat="59.9602499" lon="17.7113528">
        <ele>28.0155</ele>
        <time>2014-06-06T12:48:00Z</time>
      </trkpt>
      <trkpt lat="59.9602047" lon="17.711337">
        <ele>28.0155</ele>
        <time>2014-06-06T12:48:01Z</time>
      </trkpt>
      <trkpt lat="59.9601602" lon="17.7113211">
        <ele>28.4962</ele>
        <time>2014-06-06T12:48:02Z</time>
      </trkpt>
      <trkpt lat="59.9601152" lon="17.7113078">
        <ele>28.4962</ele>
        <time>2014-06-06T12:48:03Z</time>
      </trkpt>
      <trkpt lat="59.9600701" lon="17.711291">
        <ele>28.4962</ele>
        <time>2014-06-06T12:48:04Z</time>
      </trkpt>
      <trkpt lat="59.9600299" lon="17.7112593">
        <ele>28.4962</ele>
        <time>2014-06-06T12:48:05Z</time>
      </trkpt>
      <trkpt lat="59.9599979" lon="17.7111979">
        <ele>28.4962</ele>
        <time>2014-06-06T12:48:06Z</time>
      </trkpt>
      <trkpt lat="59.9599799" lon="17.7111158">
        <ele>28.4962</ele>
        <time>2014-06-06T12:48:07Z</time>
      </trkpt>
      <trkpt lat="59.9599748" lon="17.7110231">
        <ele>28.4962</ele>
        <time>2014-06-06T12:48:08Z</time>
      </trkpt>
      <trkpt lat="59.9599775" lon="17.7109264">
        <ele>28.4962</ele>
        <time>2014-06-06T12:48:09Z</time>
      </trkpt>
      <trkpt lat="59.9599862" lon="17.7108289">
        <ele>28.0155</ele>
        <time>2014-06-06T12:48:10Z</time>
      </trkpt>
      <trkpt lat="59.9599979" lon="17.7107322">
        <ele>28.0155</ele>
        <time>2014-06-06T12:48:11Z</time>
      </trkpt>
      <trkpt lat="59.9600091" lon="17.7106358">
        <ele>28.0155</ele>
        <time>2014-06-06T12:48:12Z</time>
      </trkpt>
      <trkpt lat="59.9600189" lon="17.7105395">
        <ele>28.0155</ele>
        <time>2014-06-06T12:48:13Z</time>
      </trkpt>
      <trkpt lat="59.9600287" lon="17.7104442">
        <ele>28.0155</ele>
        <time>2014-06-06T12:48:14Z</time>
      </trkpt>
      <trkpt lat="59.9600379" lon="17.7103478">
        <ele>28.0155</ele>
        <time>2014-06-06T12:48:15Z</time>
      </trkpt>
      <trkpt lat="59.9600468" lon="17.710252">
        <ele>27.5349</ele>
        <time>2014-06-06T12:48:16Z</time>
      </trkpt>
      <trkpt lat="59.9600571" lon="17.7101567">
        <ele>27.5349</ele>
        <time>2014-06-06T12:48:17Z</time>
      </trkpt>
      <trkpt lat="59.9600661" lon="17.7100615">
        <ele>27.5349</ele>
        <time>2014-06-06T12:48:18Z</time>
      </trkpt>
      <trkpt lat="59.9600738" lon="17.7099671">
        <ele>27.5349</ele>
        <time>2014-06-06T12:48:19Z</time>
      </trkpt>
      <trkpt lat="59.9600816" lon="17.7098744">
        <ele>27.5349</ele>
        <time>2014-06-06T12:48:20Z</time>
      </trkpt>
      <trkpt lat="59.9600898" lon="17.7097827">
        <ele>27.5349</ele>
        <time>2014-06-06T12:48:21Z</time>
      </trkpt>
      <trkpt lat="59.9600995" lon="17.7096934">
        <ele>27.5349</ele>
        <time>2014-06-06T12:48:22Z</time>
      </trkpt>
      <trkpt lat="59.9601067" lon="17.7096066">
        <ele>27.5349</ele>
        <time>2014-06-06T12:48:23Z</time>
      </trkpt>
      <trkpt lat="59.9601073" lon="17.7095241">
        <ele>27.5349</ele>
        <time>2014-06-06T12:48:24Z</time>
      </trkpt>
      <trkpt lat="59.9601046" lon="17.7094468">
        <ele>27.5349</ele>
        <time>2014-06-06T12:48:25Z</time>
      </trkpt>
      <trkpt lat="59.960105" lon="17.7093765">
        <ele>27.5349</ele>
        <time>2014-06-06T12:48:26Z</time>
      </trkpt>
      <trkpt lat="59.9601064" lon="17.7093189">
        <ele>27.5349</ele>
        <time>2014-06-06T12:48:27Z</time>
      </trkpt>
      <trkpt lat="59.9601027" lon="17.7092811">
        <ele>27.0543</ele>
        <time>2014-06-06T12:48:28Z</time>
      </trkpt>
      <trkpt lat="59.9600898" lon="17.709252">
        <ele>27.5349</ele>
        <time>2014-06-06T12:48:29Z</time>
      </trkpt>
      <trkpt lat="59.9600682" lon="17.7092241">
        <ele>27.5349</ele>
        <time>2014-06-06T12:48:30Z</time>
      </trkpt>
      <trkpt lat="59.9600406" lon="17.7091959">
        <ele>27.5349</ele>
        <time>2014-06-06T12:48:31Z</time>
      </trkpt>
      <trkpt lat="59.9600055" lon="17.7091699">
        <ele>27.5349</ele>
        <time>2014-06-06T12:48:32Z</time>
      </trkpt>
      <trkpt lat="59.9599665" lon="17.7091464">
        <ele>28.0155</ele>
        <time>2014-06-06T12:48:33Z</time>
      </trkpt>
      <trkpt lat="59.9599261" lon="17.7091238">
        <ele>28.0155</ele>
        <time>2014-06-06T12:48:34Z</time>
      </trkpt>
      <trkpt lat="59.9598845" lon="17.7090997">
        <ele>28.0155</ele>
        <time>2014-06-06T12:48:35Z</time>
      </trkpt>
      <trkpt lat="59.9598417" lon="17.7090715">
        <ele>28.0155</ele>
        <time>2014-06-06T12:48:36Z</time>
      </trkpt>
      <trkpt lat="59.9597981" lon="17.7090439">
        <ele>28.0155</ele>
        <time>2014-06-06T12:48:37Z</time>
      </trkpt>
      <trkpt lat="59.9597532" lon="17.7090179">
        <ele>28.0155</ele>
        <time>2014-06-06T12:48:38Z</time>
      </trkpt>
      <trkpt lat="59.9597075" lon="17.7089895">
        <ele>28.0155</ele>
        <time>2014-06-06T12:48:39Z</time>
      </trkpt>
      <trkpt lat="59.9596603" lon="17.7089601">
        <ele>28.0155</ele>
        <time>2014-06-06T12:48:40Z</time>
      </trkpt>
      <trkpt lat="59.9596126" lon="17.7089304">
        <ele>28.0155</ele>
        <time>2014-06-06T12:48:41Z</time>
      </trkpt>
      <trkpt lat="59.9595642" lon="17.7089025">
        <ele>28.0155</ele>
        <time>2014-06-06T12:48:42Z</time>
      </trkpt>
      <trkpt lat="59.9595142" lon="17.7088824">
        <ele>28.0155</ele>
        <time>2014-06-06T12:48:43Z</time>
      </trkpt>
      <trkpt lat="59.9594628" lon="17.7088726">
        <ele>28.4962</ele>
        <time>2014-06-06T12:48:44Z</time>
      </trkpt>
      <trkpt lat="59.9594114" lon="17.7088742">
        <ele>28.4962</ele>
        <time>2014-06-06T12:48:45Z</time>
      </trkpt>
      <trkpt lat="59.9593613" lon="17.7088859">
        <ele>28.9769</ele>
        <time>2014-06-06T12:48:46Z</time>
      </trkpt>
      <trkpt lat="59.959314" lon="17.7089065">
        <ele>28.9769</ele>
        <time>2014-06-06T12:48:47Z</time>
      </trkpt>
      <trkpt lat="59.9592709" lon="17.7089305">
        <ele>28.9769</ele>
        <time>2014-06-06T12:48:48Z</time>
      </trkpt>
      <trkpt lat="59.9592266" lon="17.7089497">
        <ele>28.9769</ele>
        <time>2014-06-06T12:48:49Z</time>
      </trkpt>
      <trkpt lat="59.9591791" lon="17.7089547">
        <ele>29.4575</ele>
        <time>2014-06-06T12:48:50Z</time>
      </trkpt>
      <trkpt lat="59.9591337" lon="17.7089487">
        <ele>29.4575</ele>
        <time>2014-06-06T12:48:51Z</time>
      </trkpt>
      <trkpt lat="59.9590896" lon="17.7089378">
        <ele>29.4575</ele>
        <time>2014-06-06T12:48:52Z</time>
      </trkpt>
      <trkpt lat="59.9590444" lon="17.7089233">
        <ele>29.4575</ele>
        <time>2014-06-06T12:48:53Z</time>
      </trkpt>
      <trkpt lat="59.959" lon="17.708898">
        <ele>29.4575</ele>
        <time>2014-06-06T12:48:54Z</time>
      </trkpt>
      <trkpt lat="59.9589619" lon="17.708868">
        <ele>28.9769</ele>
        <time>2014-06-06T12:48:55Z</time>
      </trkpt>
      <trkpt lat="59.9589315" lon="17.7088557">
        <ele>28.9769</ele>
        <time>2014-06-06T12:48:56Z</time>
      </trkpt>
      <trkpt lat="59.9589078" lon="17.7088614">
        <ele>28.9769</ele>
        <time>2014-06-06T12:48:57Z</time>
      </trkpt>
      <trkpt lat="59.9588886" lon="17.708858">
        <ele>28.4962</ele>
        <time>2014-06-06T12:48:58Z</time>
      </trkpt>
      <trkpt lat="59.9588765" lon="17.7088414">
        <ele>28.4962</ele>
        <time>2014-06-06T12:48:59Z</time>
      </trkpt>
      <trkpt lat="59.9588715" lon="17.7088207">
        <ele>28.4962</ele>
        <time>2014-06-06T12:49:00Z</time>
      </trkpt>
      <trkpt lat="59.9588682" lon="17.7088084">
        <ele>28.4962</ele>
        <time>2014-06-06T12:49:01Z</time>
      </trkpt>
      <trkpt lat="59.9588648" lon="17.7088062">
        <ele>28.4962</ele>
        <time>2014-06-06T12:49:02Z</time>
      </trkpt>
      <trkpt lat="59.9588632" lon="17.7088016">
        <ele>28.4962</ele>
        <time>2014-06-06T12:49:03Z</time>
      </trkpt>
      <trkpt lat="59.9587869" lon="17.7088383">
        <ele>26.5736</ele>
        <time>2014-06-06T12:49:23Z</time>
      </trkpt>
      <trkpt lat="59.9587844" lon="17.7088767">
        <ele>27.0543</ele>
        <time>2014-06-06T12:49:24Z</time>
      </trkpt>
      <trkpt lat="59.9587798" lon="17.7089167">
        <ele>27.5349</ele>
        <time>2014-06-06T12:49:25Z</time>
      </trkpt>
      <trkpt lat="59.9587745" lon="17.708959">
        <ele>27.5349</ele>
        <time>2014-06-06T12:49:26Z</time>
      </trkpt>
      <trkpt lat="59.9587654" lon="17.7090015">
        <ele>28.0155</ele>
        <time>2014-06-06T12:49:27Z</time>
      </trkpt>
      <trkpt lat="59.9587591" lon="17.7090429">
        <ele>28.4962</ele>
        <time>2014-06-06T12:49:28Z</time>
      </trkpt>
      <trkpt lat="59.9587526" lon="17.7090863">
        <ele>28.9769</ele>
        <time>2014-06-06T12:49:29Z</time>
      </trkpt>
      <trkpt lat="59.9587451" lon="17.7091293">
        <ele>29.4575</ele>
        <time>2014-06-06T12:49:30Z</time>
      </trkpt>
      <trkpt lat="59.9587383" lon="17.7091678">
        <ele>29.9381</ele>
        <time>2014-06-06T12:49:31Z</time>
      </trkpt>
      <trkpt lat="59.9587285" lon="17.7092078">
        <ele>29.4575</ele>
        <time>2014-06-06T12:49:32Z</time>
      </trkpt>
      <trkpt lat="59.9587207" lon="17.709252">
        <ele>30.4188</ele>
        <time>2014-06-06T12:49:33Z</time>
      </trkpt>
      <trkpt lat="59.9587124" lon="17.7093041">
        <ele>30.4188</ele>
        <time>2014-06-06T12:49:34Z</time>
      </trkpt>
      <trkpt lat="59.9587066" lon="17.7093631">
        <ele>30.8995</ele>
        <time>2014-06-06T12:49:35Z</time>
      </trkpt>
      <trkpt lat="59.9587027" lon="17.7094284">
        <ele>31.3801</ele>
        <time>2014-06-06T12:49:36Z</time>
      </trkpt>
      <trkpt lat="59.9586951" lon="17.7094971">
        <ele>32.3416</ele>
        <time>2014-06-06T12:49:37Z</time>
      </trkpt>
      <trkpt lat="59.9586865" lon="17.7095641">
        <ele>32.8223</ele>
        <time>2014-06-06T12:49:38Z</time>
      </trkpt>
      <trkpt lat="59.9586767" lon="17.7096309">
        <ele>32.8223</ele>
        <time>2014-06-06T12:49:39Z</time>
      </trkpt>
      <trkpt lat="59.9586662" lon="17.7097008">
        <ele>33.3029</ele>
        <time>2014-06-06T12:49:40Z</time>
      </trkpt>
      <trkpt lat="59.9586559" lon="17.7097729">
        <ele>33.7834</ele>
        <time>2014-06-06T12:49:41Z</time>
      </trkpt>
      <trkpt lat="59.9586467" lon="17.7098467">
        <ele>34.2642</ele>
        <time>2014-06-06T12:49:42Z</time>
      </trkpt>
      <trkpt lat="59.9586363" lon="17.7099195">
        <ele>34.2642</ele>
        <time>2014-06-06T12:49:43Z</time>
      </trkpt>
      <trkpt lat="59.958626" lon="17.7099939">
        <ele>34.7449</ele>
        <time>2014-06-06T12:49:44Z</time>
      </trkpt>
      <trkpt lat="59.9586144" lon="17.7100677">
        <ele>35.2255</ele>
        <time>2014-06-06T12:49:45Z</time>
      </trkpt>
      <trkpt lat="59.958602" lon="17.7101426">
        <ele>35.7061</ele>
        <time>2014-06-06T12:49:46Z</time>
      </trkpt>
      <trkpt lat="59.9585896" lon="17.7102204">
        <ele>36.1868</ele>
        <time>2014-06-06T12:49:47Z</time>
      </trkpt>
      <trkpt lat="59.9585778" lon="17.7102986">
        <ele>36.6675</ele>
        <time>2014-06-06T12:49:48Z</time>
      </trkpt>
      <trkpt lat="59.9585693" lon="17.710378">
        <ele>36.6675</ele>
        <time>2014-06-06T12:49:49Z</time>
      </trkpt>
      <trkpt lat="59.958561" lon="17.7104592">
        <ele>37.1481</ele>
        <time>2014-06-06T12:49:50Z</time>
      </trkpt>
      <trkpt lat="59.9585523" lon="17.710541">
        <ele>37.1481</ele>
        <time>2014-06-06T12:49:51Z</time>
      </trkpt>
      <trkpt lat="59.9585441" lon="17.7106219">
        <ele>37.1481</ele>
        <time>2014-06-06T12:49:52Z</time>
      </trkpt>
      <trkpt lat="59.9585358" lon="17.7107021">
        <ele>37.1481</ele>
        <time>2014-06-06T12:49:53Z</time>
      </trkpt>
      <trkpt lat="59.958527" lon="17.7107844">
        <ele>37.1481</ele>
        <time>2014-06-06T12:49:54Z</time>
      </trkpt>
      <trkpt lat="59.9585178" lon="17.7108687">
        <ele>37.1481</ele>
        <time>2014-06-06T12:49:55Z</time>
      </trkpt>
      <trkpt lat="59.9585078" lon="17.710955">
        <ele>37.1481</ele>
        <time>2014-06-06T12:49:56Z</time>
      </trkpt>
      <trkpt lat="59.958498" lon="17.7110436">
        <ele>37.1481</ele>
        <time>2014-06-06T12:49:57Z</time>
      </trkpt>
      <trkpt lat="59.9584874" lon="17.7111308">
        <ele>37.1481</ele>
        <time>2014-06-06T12:49:58Z</time>
      </trkpt>
      <trkpt lat="59.9584757" lon="17.7112176">
        <ele>37.1481</ele>
        <time>2014-06-06T12:49:59Z</time>
      </trkpt>
      <trkpt lat="59.9584642" lon="17.7113073">
        <ele>37.6287</ele>
        <time>2014-06-06T12:50:00Z</time>
      </trkpt>
      <trkpt lat="59.9584524" lon="17.7114004">
        <ele>37.6287</ele>
        <time>2014-06-06T12:50:01Z</time>
      </trkpt>
      <trkpt lat="59.9584409" lon="17.7114948">
        <ele>37.6287</ele>
        <time>2014-06-06T12:50:02Z</time>
      </trkpt>
      <trkpt lat="59.9584302" lon="17.7115899">
        <ele>37.6287</ele>
        <time>2014-06-06T12:50:03Z</time>
      </trkpt>
      <trkpt lat="59.9584198" lon="17.7116867">
        <ele>37.6287</ele>
        <time>2014-06-06T12:50:04Z</time>
      </trkpt>
      <trkpt lat="59.9584085" lon="17.7117853">
        <ele>37.6287</ele>
        <time>2014-06-06T12:50:05Z</time>
      </trkpt>
      <trkpt lat="59.9583974" lon="17.7118851">
        <ele>37.6287</ele>
        <time>2014-06-06T12:50:06Z</time>
      </trkpt>
      <trkpt lat="59.9583861" lon="17.7119871">
        <ele>37.6287</ele>
        <time>2014-06-06T12:50:07Z</time>
      </trkpt>
      <trkpt lat="59.958374" lon="17.7120908">
        <ele>37.6287</ele>
        <time>2014-06-06T12:50:08Z</time>
      </trkpt>
      <trkpt lat="59.9583612" lon="17.7121945">
        <ele>37.6287</ele>
        <time>2014-06-06T12:50:09Z</time>
      </trkpt>
      <trkpt lat="59.9583493" lon="17.7122997">
        <ele>37.6287</ele>
        <time>2014-06-06T12:50:10Z</time>
      </trkpt>
      <trkpt lat="59.9583374" lon="17.7124081">
        <ele>37.6287</ele>
        <time>2014-06-06T12:50:11Z</time>
      </trkpt>
      <trkpt lat="59.9583254" lon="17.7125188">
        <ele>37.6287</ele>
        <time>2014-06-06T12:50:12Z</time>
      </trkpt>
      <trkpt lat="59.9583126" lon="17.7126315">
        <ele>37.6287</ele>
        <time>2014-06-06T12:50:13Z</time>
      </trkpt>
      <trkpt lat="59.9582986" lon="17.7127462">
        <ele>37.6287</ele>
        <time>2014-06-06T12:50:14Z</time>
      </trkpt>
      <trkpt lat="59.9582849" lon="17.7128623">
        <ele>37.6287</ele>
        <time>2014-06-06T12:50:15Z</time>
      </trkpt>
      <trkpt lat="59.9582717" lon="17.7129793">
        <ele>37.6287</ele>
        <time>2014-06-06T12:50:16Z</time>
      </trkpt>
      <trkpt lat="59.9582585" lon="17.7130942">
        <ele>38.1094</ele>
        <time>2014-06-06T12:50:17Z</time>
      </trkpt>
      <trkpt lat="59.9582467" lon="17.7132044">
        <ele>38.1094</ele>
        <time>2014-06-06T12:50:18Z</time>
      </trkpt>
      <trkpt lat="59.9582359" lon="17.7133087">
        <ele>38.1094</ele>
        <time>2014-06-06T12:50:19Z</time>
      </trkpt>
      <trkpt lat="59.9582267" lon="17.7134082">
        <ele>38.1094</ele>
        <time>2014-06-06T12:50:20Z</time>
      </trkpt>
      <trkpt lat="59.9582157" lon="17.713501">
        <ele>38.5901</ele>
        <time>2014-06-06T12:50:21Z</time>
      </trkpt>
      <trkpt lat="59.9582043" lon="17.7135859">
        <ele>39.0707</ele>
        <time>2014-06-06T12:50:22Z</time>
      </trkpt>
      <trkpt lat="59.9581938" lon="17.7136668">
        <ele>39.0707</ele>
        <time>2014-06-06T12:50:23Z</time>
      </trkpt>
      <trkpt lat="59.9581859" lon="17.7137444">
        <ele>39.5513</ele>
        <time>2014-06-06T12:50:24Z</time>
      </trkpt>
      <trkpt lat="59.9581779" lon="17.713819">
        <ele>39.5513</ele>
        <time>2014-06-06T12:50:25Z</time>
      </trkpt>
      <trkpt lat="59.9581666" lon="17.7138889">
        <ele>40.0321</ele>
        <time>2014-06-06T12:50:26Z</time>
      </trkpt>
      <trkpt lat="59.9581495" lon="17.7139573">
        <ele>40.0321</ele>
        <time>2014-06-06T12:50:27Z</time>
      </trkpt>
      <trkpt lat="59.9581292" lon="17.7140265">
        <ele>40.0321</ele>
        <time>2014-06-06T12:50:28Z</time>
      </trkpt>
      <trkpt lat="59.9581062" lon="17.7140928">
        <ele>40.5128</ele>
        <time>2014-06-06T12:50:29Z</time>
      </trkpt>
      <trkpt lat="59.9580788" lon="17.7141557">
        <ele>40.5128</ele>
        <time>2014-06-06T12:50:30Z</time>
      </trkpt>
      <trkpt lat="59.9580489" lon="17.7142172">
        <ele>40.5128</ele>
        <time>2014-06-06T12:50:31Z</time>
      </trkpt>
      <trkpt lat="59.9580178" lon="17.7142785">
        <ele>40.5128</ele>
        <time>2014-06-06T12:50:32Z</time>
      </trkpt>
      <trkpt lat="59.9579863" lon="17.7143406">
        <ele>40.5128</ele>
        <time>2014-06-06T12:50:33Z</time>
      </trkpt>
      <trkpt lat="59.957955" lon="17.7144027">
        <ele>40.5128</ele>
        <time>2014-06-06T12:50:34Z</time>
      </trkpt>
      <trkpt lat="59.957923" lon="17.7144655">
        <ele>40.0321</ele>
        <time>2014-06-06T12:50:35Z</time>
      </trkpt>
      <trkpt lat="59.9578893" lon="17.7145288">
        <ele>40.0321</ele>
        <time>2014-06-06T12:50:36Z</time>
      </trkpt>
      <trkpt lat="59.9578537" lon="17.7145918">
        <ele>40.0321</ele>
        <time>2014-06-06T12:50:37Z</time>
      </trkpt>
      <trkpt lat="59.9578166" lon="17.7146546">
        <ele>40.0321</ele>
        <time>2014-06-06T12:50:38Z</time>
      </trkpt>
      <trkpt lat="59.957779" lon="17.7147209">
        <ele>40.0321</ele>
        <time>2014-06-06T12:50:39Z</time>
      </trkpt>
      <trkpt lat="59.9577407" lon="17.7147928">
        <ele>40.0321</ele>
        <time>2014-06-06T12:50:40Z</time>
      </trkpt>
      <trkpt lat="59.9577023" lon="17.7148705">
        <ele>40.5128</ele>
        <time>2014-06-06T12:50:41Z</time>
      </trkpt>
      <trkpt lat="59.9576612" lon="17.7149504">
        <ele>40.5128</ele>
        <time>2014-06-06T12:50:42Z</time>
      </trkpt>
      <trkpt lat="59.9576199" lon="17.7150287">
        <ele>40.5128</ele>
        <time>2014-06-06T12:50:43Z</time>
      </trkpt>
      <trkpt lat="59.9575783" lon="17.7151059">
        <ele>40.9934</ele>
        <time>2014-06-06T12:50:44Z</time>
      </trkpt>
      <trkpt lat="59.9575367" lon="17.7151817">
        <ele>40.9934</ele>
        <time>2014-06-06T12:50:45Z</time>
      </trkpt>
      <trkpt lat="59.9574936" lon="17.7152571">
        <ele>41.474</ele>
        <time>2014-06-06T12:50:46Z</time>
      </trkpt>
      <trkpt lat="59.9574516" lon="17.7153294">
        <ele>41.474</ele>
        <time>2014-06-06T12:50:47Z</time>
      </trkpt>
      <trkpt lat="59.9574129" lon="17.7153989">
        <ele>41.474</ele>
        <time>2014-06-06T12:50:48Z</time>
      </trkpt>
      <trkpt lat="59.9573765" lon="17.7154684">
        <ele>41.474</ele>
        <time>2014-06-06T12:50:49Z</time>
      </trkpt>
      <trkpt lat="59.9573412" lon="17.7155358">
        <ele>41.474</ele>
        <time>2014-06-06T12:50:50Z</time>
      </trkpt>
      <trkpt lat="59.9573045" lon="17.7156023">
        <ele>41.9547</ele>
        <time>2014-06-06T12:50:51Z</time>
      </trkpt>
      <trkpt lat="59.9572691" lon="17.7156672">
        <ele>41.9547</ele>
        <time>2014-06-06T12:50:52Z</time>
      </trkpt>
      <trkpt lat="59.9572344" lon="17.7157301">
        <ele>41.9547</ele>
        <time>2014-06-06T12:50:53Z</time>
      </trkpt>
      <trkpt lat="59.9571999" lon="17.7157926">
        <ele>41.474</ele>
        <time>2014-06-06T12:50:54Z</time>
      </trkpt>
      <trkpt lat="59.9571661" lon="17.7158532">
        <ele>41.474</ele>
        <time>2014-06-06T12:50:55Z</time>
      </trkpt>
      <trkpt lat="59.9571331" lon="17.7159128">
        <ele>41.474</ele>
        <time>2014-06-06T12:50:56Z</time>
      </trkpt>
      <trkpt lat="59.9571008" lon="17.715973">
        <ele>41.474</ele>
        <time>2014-06-06T12:50:57Z</time>
      </trkpt>
      <trkpt lat="59.9570689" lon="17.7160313">
        <ele>41.474</ele>
        <time>2014-06-06T12:50:58Z</time>
      </trkpt>
      <trkpt lat="59.9570367" lon="17.7160872">
        <ele>41.474</ele>
        <time>2014-06-06T12:50:59Z</time>
      </trkpt>
      <trkpt lat="59.9570056" lon="17.7161474">
        <ele>41.474</ele>
        <time>2014-06-06T12:51:00Z</time>
      </trkpt>
      <trkpt lat="59.9569753" lon="17.7162092">
        <ele>41.9547</ele>
        <time>2014-06-06T12:51:01Z</time>
      </trkpt>
      <trkpt lat="59.9569445" lon="17.7162681">
        <ele>41.9547</ele>
        <time>2014-06-06T12:51:02Z</time>
      </trkpt>
      <trkpt lat="59.9569142" lon="17.7163242">
        <ele>42.4354</ele>
        <time>2014-06-06T12:51:03Z</time>
      </trkpt>
      <trkpt lat="59.9568853" lon="17.7163789">
        <ele>42.4354</ele>
        <time>2014-06-06T12:51:04Z</time>
      </trkpt>
      <trkpt lat="59.9568572" lon="17.7164309">
        <ele>42.4354</ele>
        <time>2014-06-06T12:51:05Z</time>
      </trkpt>
      <trkpt lat="59.95683" lon="17.7164816">
        <ele>42.4354</ele>
        <time>2014-06-06T12:51:06Z</time>
      </trkpt>
      <trkpt lat="59.9568014" lon="17.7165327">
        <ele>42.4354</ele>
        <time>2014-06-06T12:51:07Z</time>
      </trkpt>
      <trkpt lat="59.9567739" lon="17.7165826">
        <ele>42.4354</ele>
        <time>2014-06-06T12:51:08Z</time>
      </trkpt>
      <trkpt lat="59.9567511" lon="17.7166287">
        <ele>42.4354</ele>
        <time>2014-06-06T12:51:09Z</time>
      </trkpt>
      <trkpt lat="59.9567336" lon="17.7166743">
        <ele>42.4354</ele>
        <time>2014-06-06T12:51:10Z</time>
      </trkpt>
      <trkpt lat="59.9567186" lon="17.7167188">
        <ele>42.916</ele>
        <time>2014-06-06T12:51:11Z</time>
      </trkpt>
      <trkpt lat="59.9567086" lon="17.7167601">
        <ele>42.916</ele>
        <time>2014-06-06T12:51:12Z</time>
      </trkpt>
      <trkpt lat="59.9566969" lon="17.7167987">
        <ele>42.916</ele>
        <time>2014-06-06T12:51:13Z</time>
      </trkpt>
      <trkpt lat="59.9566785" lon="17.7168313">
        <ele>43.3966</ele>
        <time>2014-06-06T12:51:14Z</time>
      </trkpt>
      <trkpt lat="59.9566583" lon="17.7168577">
        <ele>43.3966</ele>
        <time>2014-06-06T12:51:15Z</time>
      </trkpt>
      <trkpt lat="59.9566381" lon="17.7168944">
        <ele>43.3966</ele>
        <time>2014-06-06T12:51:16Z</time>
      </trkpt>
      <trkpt lat="59.9566135" lon="17.7169286">
        <ele>43.8773</ele>
        <time>2014-06-06T12:51:17Z</time>
      </trkpt>
      <trkpt lat="59.9565841" lon="17.7169344">
        <ele>44.358</ele>
        <time>2014-06-06T12:51:18Z</time>
      </trkpt>
      <trkpt lat="59.956559" lon="17.7169093">
        <ele>43.8773</ele>
        <time>2014-06-06T12:51:19Z</time>
      </trkpt>
      <trkpt lat="59.9565354" lon="17.7168684">
        <ele>43.8773</ele>
        <time>2014-06-06T12:51:20Z</time>
      </trkpt>
      <trkpt lat="59.9565117" lon="17.7168207">
        <ele>43.3966</ele>
        <time>2014-06-06T12:51:21Z</time>
      </trkpt>
      <trkpt lat="59.9564869" lon="17.7167694">
        <ele>42.916</ele>
        <time>2014-06-06T12:51:22Z</time>
      </trkpt>
      <trkpt lat="59.9564618" lon="17.7167147">
        <ele>42.4354</ele>
        <time>2014-06-06T12:51:23Z</time>
      </trkpt>
      <trkpt lat="59.9564328" lon="17.7166612">
        <ele>42.4354</ele>
        <time>2014-06-06T12:51:24Z</time>
      </trkpt>
      <trkpt lat="59.9564026" lon="17.7166007">
        <ele>42.4354</ele>
        <time>2014-06-06T12:51:25Z</time>
      </trkpt>
      <trkpt lat="59.9563669" lon="17.7165448">
        <ele>42.916</ele>
        <time>2014-06-06T12:51:26Z</time>
      </trkpt>
      <trkpt lat="59.9563322" lon="17.716481">
        <ele>42.4354</ele>
        <time>2014-06-06T12:51:27Z</time>
      </trkpt>
      <trkpt lat="59.9563051" lon="17.7164189">
        <ele>41.9547</ele>
        <time>2014-06-06T12:51:28Z</time>
      </trkpt>
      <trkpt lat="59.9562787" lon="17.7163506">
        <ele>41.474</ele>
        <time>2014-06-06T12:51:29Z</time>
      </trkpt>
      <trkpt lat="59.9562519" lon="17.7162754">
        <ele>40.9934</ele>
        <time>2014-06-06T12:51:30Z</time>
      </trkpt>
      <trkpt lat="59.9562192" lon="17.7161851">
        <ele>40.0321</ele>
        <time>2014-06-06T12:51:31Z</time>
      </trkpt>
      <trkpt lat="59.9561814" lon="17.716089">
        <ele>39.5513</ele>
        <time>2014-06-06T12:51:32Z</time>
      </trkpt>
      <trkpt lat="59.9561416" lon="17.7159908">
        <ele>38.5901</ele>
        <time>2014-06-06T12:51:33Z</time>
      </trkpt>
      <trkpt lat="59.9561013" lon="17.7158885">
        <ele>38.5901</ele>
        <time>2014-06-06T12:51:34Z</time>
      </trkpt>
      <trkpt lat="59.9560607" lon="17.7157933">
        <ele>38.5901</ele>
        <time>2014-06-06T12:51:35Z</time>
      </trkpt>
      <trkpt lat="59.9560199" lon="17.7157025">
        <ele>38.5901</ele>
        <time>2014-06-06T12:51:36Z</time>
      </trkpt>
      <trkpt lat="59.9559806" lon="17.71562">
        <ele>38.1094</ele>
        <time>2014-06-06T12:51:37Z</time>
      </trkpt>
      <trkpt lat="59.9559426" lon="17.715536">
        <ele>38.1094</ele>
        <time>2014-06-06T12:51:38Z</time>
      </trkpt>
      <trkpt lat="59.9559057" lon="17.7154462">
        <ele>38.5901</ele>
        <time>2014-06-06T12:51:39Z</time>
      </trkpt>
      <trkpt lat="59.9558706" lon="17.715326">
        <ele>38.5901</ele>
        <time>2014-06-06T12:51:40Z</time>
      </trkpt>
      <trkpt lat="59.9558332" lon="17.7152293">
        <ele>38.5901</ele>
        <time>2014-06-06T12:51:41Z</time>
      </trkpt>
      <trkpt lat="59.9557972" lon="17.7151312">
        <ele>38.5901</ele>
        <time>2014-06-06T12:51:42Z</time>
      </trkpt>
      <trkpt lat="59.9557629" lon="17.7150475">
        <ele>38.5901</ele>
        <time>2014-06-06T12:51:43Z</time>
      </trkpt>
      <trkpt lat="59.955723" lon="17.7149638">
        <ele>38.1094</ele>
        <time>2014-06-06T12:51:44Z</time>
      </trkpt>
      <trkpt lat="59.9556897" lon="17.7148913">
        <ele>38.1094</ele>
        <time>2014-06-06T12:51:45Z</time>
      </trkpt>
      <trkpt lat="59.9556594" lon="17.7148068">
        <ele>38.1094</ele>
        <time>2014-06-06T12:51:46Z</time>
      </trkpt>
      <trkpt lat="59.9556286" lon="17.7147184">
        <ele>37.6287</ele>
        <time>2014-06-06T12:51:47Z</time>
      </trkpt>
      <trkpt lat="59.9555992" lon="17.7146301">
        <ele>37.6287</ele>
        <time>2014-06-06T12:51:48Z</time>
      </trkpt>
      <trkpt lat="59.9555702" lon="17.7145334">
        <ele>37.6287</ele>
        <time>2014-06-06T12:51:49Z</time>
      </trkpt>
      <trkpt lat="59.9555433" lon="17.714436">
        <ele>37.6287</ele>
        <time>2014-06-06T12:51:50Z</time>
      </trkpt>
      <trkpt lat="59.9555205" lon="17.7143426">
        <ele>38.1094</ele>
        <time>2014-06-06T12:51:51Z</time>
      </trkpt>
      <trkpt lat="59.9555044" lon="17.7142556">
        <ele>37.6287</ele>
        <time>2014-06-06T12:51:52Z</time>
      </trkpt>
      <trkpt lat="59.955494" lon="17.7141719">
        <ele>37.1481</ele>
        <time>2014-06-06T12:51:53Z</time>
      </trkpt>
      <trkpt lat="59.9554857" lon="17.7140972">
        <ele>37.1481</ele>
        <time>2014-06-06T12:51:54Z</time>
      </trkpt>
      <trkpt lat="59.9554765" lon="17.7140361">
        <ele>37.1481</ele>
        <time>2014-06-06T12:51:55Z</time>
      </trkpt>
      <trkpt lat="59.9554661" lon="17.7139866">
        <ele>37.1481</ele>
        <time>2014-06-06T12:51:56Z</time>
      </trkpt>
      <trkpt lat="59.9554496" lon="17.713949">
        <ele>37.1481</ele>
        <time>2014-06-06T12:51:57Z</time>
      </trkpt>
      <trkpt lat="59.9554272" lon="17.7139215">
        <ele>37.6287</ele>
        <time>2014-06-06T12:51:58Z</time>
      </trkpt>
      <trkpt lat="59.9553999" lon="17.7139065">
        <ele>37.6287</ele>
        <time>2014-06-06T12:51:59Z</time>
      </trkpt>
      <trkpt lat="59.9553704" lon="17.7139071">
        <ele>37.6287</ele>
        <time>2014-06-06T12:52:00Z</time>
      </trkpt>
      <trkpt lat="59.9553398" lon="17.7139095">
        <ele>38.1094</ele>
        <time>2014-06-06T12:52:01Z</time>
      </trkpt>
      <trkpt lat="59.9553122" lon="17.7139144">
        <ele>38.1094</ele>
        <time>2014-06-06T12:52:02Z</time>
      </trkpt>
      <trkpt lat="59.9552863" lon="17.7139263">
        <ele>38.5901</ele>
        <time>2014-06-06T12:52:03Z</time>
      </trkpt>
      <trkpt lat="59.9552576" lon="17.713947">
        <ele>38.5901</ele>
        <time>2014-06-06T12:52:04Z</time>
      </trkpt>
      <trkpt lat="59.9552276" lon="17.7139758">
        <ele>38.5901</ele>
        <time>2014-06-06T12:52:05Z</time>
      </trkpt>
      <trkpt lat="59.9552001" lon="17.714011">
        <ele>38.5901</ele>
        <time>2014-06-06T12:52:06Z</time>
      </trkpt>
      <trkpt lat="59.9551755" lon="17.7140504">
        <ele>38.5901</ele>
        <time>2014-06-06T12:52:07Z</time>
      </trkpt>
      <trkpt lat="59.9551525" lon="17.7140866">
        <ele>39.0707</ele>
        <time>2014-06-06T12:52:08Z</time>
      </trkpt>
      <trkpt lat="59.9551347" lon="17.7141215">
        <ele>39.0707</ele>
        <time>2014-06-06T12:52:09Z</time>
      </trkpt>
      <trkpt lat="59.9551214" lon="17.7141654">
        <ele>39.0707</ele>
        <time>2014-06-06T12:52:10Z</time>
      </trkpt>
      <trkpt lat="59.9551035" lon="17.7142164">
        <ele>39.0707</ele>
        <time>2014-06-06T12:52:11Z</time>
      </trkpt>
      <trkpt lat="59.9550893" lon="17.7142693">
        <ele>38.5901</ele>
        <time>2014-06-06T12:52:12Z</time>
      </trkpt>
      <trkpt lat="59.9550811" lon="17.7143214">
        <ele>38.5901</ele>
        <time>2014-06-06T12:52:13Z</time>
      </trkpt>
      <trkpt lat="59.9550696" lon="17.7143571">
        <ele>38.5901</ele>
        <time>2014-06-06T12:52:14Z</time>
      </trkpt>
      <trkpt lat="59.9550516" lon="17.7143696">
        <ele>38.5901</ele>
        <time>2014-06-06T12:52:15Z</time>
      </trkpt>
      <trkpt lat="59.9550284" lon="17.7143836">
        <ele>38.5901</ele>
        <time>2014-06-06T12:52:16Z</time>
      </trkpt>
      <trkpt lat="59.9550051" lon="17.7144189">
        <ele>38.5901</ele>
        <time>2014-06-06T12:52:17Z</time>
      </trkpt>
      <trkpt lat="59.9549829" lon="17.7144696">
        <ele>39.0707</ele>
        <time>2014-06-06T12:52:18Z</time>
      </trkpt>
      <trkpt lat="59.9549561" lon="17.7145182">
        <ele>39.0707</ele>
        <time>2014-06-06T12:52:19Z</time>
      </trkpt>
      <trkpt lat="59.9549258" lon="17.7145654">
        <ele>39.0707</ele>
        <time>2014-06-06T12:52:20Z</time>
      </trkpt>
      <trkpt lat="59.954892" lon="17.7146141">
        <ele>39.0707</ele>
        <time>2014-06-06T12:52:21Z</time>
      </trkpt>
      <trkpt lat="59.9548586" lon="17.7146692">
        <ele>39.5513</ele>
        <time>2014-06-06T12:52:22Z</time>
      </trkpt>
      <trkpt lat="59.9548273" lon="17.7147261">
        <ele>39.5513</ele>
        <time>2014-06-06T12:52:23Z</time>
      </trkpt>
      <trkpt lat="59.9547956" lon="17.7147825">
        <ele>40.0321</ele>
        <time>2014-06-06T12:52:24Z</time>
      </trkpt>
      <trkpt lat="59.954764" lon="17.7148406">
        <ele>40.5128</ele>
        <time>2014-06-06T12:52:25Z</time>
      </trkpt>
      <trkpt lat="59.9547336" lon="17.7149079">
        <ele>40.9934</ele>
        <time>2014-06-06T12:52:26Z</time>
      </trkpt>
      <trkpt lat="59.9547034" lon="17.7149835">
        <ele>40.9934</ele>
        <time>2014-06-06T12:52:27Z</time>
      </trkpt>
      <trkpt lat="59.9546741" lon="17.7150678">
        <ele>40.9934</ele>
        <time>2014-06-06T12:52:28Z</time>
      </trkpt>
      <trkpt lat="59.9546461" lon="17.7151576">
        <ele>41.474</ele>
        <time>2014-06-06T12:52:29Z</time>
      </trkpt>
      <trkpt lat="59.9546249" lon="17.7152565">
        <ele>41.9547</ele>
        <time>2014-06-06T12:52:30Z</time>
      </trkpt>
      <trkpt lat="59.9546062" lon="17.7153589">
        <ele>41.9547</ele>
        <time>2014-06-06T12:52:31Z</time>
      </trkpt>
      <trkpt lat="59.9545892" lon="17.7154609">
        <ele>41.9547</ele>
        <time>2014-06-06T12:52:32Z</time>
      </trkpt>
      <trkpt lat="59.9545785" lon="17.715561">
        <ele>41.9547</ele>
        <time>2014-06-06T12:52:33Z</time>
      </trkpt>
      <trkpt lat="59.9545703" lon="17.715657">
        <ele>41.9547</ele>
        <time>2014-06-06T12:52:34Z</time>
      </trkpt>
      <trkpt lat="59.9545626" lon="17.7157487">
        <ele>42.4354</ele>
        <time>2014-06-06T12:52:35Z</time>
      </trkpt>
      <trkpt lat="59.9545548" lon="17.7158399">
        <ele>41.9547</ele>
        <time>2014-06-06T12:52:36Z</time>
      </trkpt>
      <trkpt lat="59.9545452" lon="17.7159331">
        <ele>41.9547</ele>
        <time>2014-06-06T12:52:37Z</time>
      </trkpt>
      <trkpt lat="59.954534" lon="17.7160287">
        <ele>41.9547</ele>
        <time>2014-06-06T12:52:38Z</time>
      </trkpt>
      <trkpt lat="59.9545228" lon="17.7161243">
        <ele>41.9547</ele>
        <time>2014-06-06T12:52:39Z</time>
      </trkpt>
      <trkpt lat="59.9545068" lon="17.7162188">
        <ele>41.9547</ele>
        <time>2014-06-06T12:52:40Z</time>
      </trkpt>
      <trkpt lat="59.9544926" lon="17.7163133">
        <ele>41.9547</ele>
        <time>2014-06-06T12:52:41Z</time>
      </trkpt>
      <trkpt lat="59.9544818" lon="17.7164045">
        <ele>41.474</ele>
        <time>2014-06-06T12:52:42Z</time>
      </trkpt>
      <trkpt lat="59.9544698" lon="17.7164925">
        <ele>40.9934</ele>
        <time>2014-06-06T12:52:43Z</time>
      </trkpt>
      <trkpt lat="59.9544574" lon="17.716578">
        <ele>41.474</ele>
        <time>2014-06-06T12:52:44Z</time>
      </trkpt>
      <trkpt lat="59.9544412" lon="17.7166687">
        <ele>42.916</ele>
        <time>2014-06-06T12:52:45Z</time>
      </trkpt>
      <trkpt lat="59.9544291" lon="17.7167546">
        <ele>43.3966</ele>
        <time>2014-06-06T12:52:46Z</time>
      </trkpt>
      <trkpt lat="59.9544154" lon="17.7168399">
        <ele>42.916</ele>
        <time>2014-06-06T12:52:47Z</time>
      </trkpt>
      <trkpt lat="59.9543983" lon="17.716923">
        <ele>42.4354</ele>
        <time>2014-06-06T12:52:48Z</time>
      </trkpt>
      <trkpt lat="59.9543806" lon="17.7170057">
        <ele>42.4354</ele>
        <time>2014-06-06T12:52:49Z</time>
      </trkpt>
      <trkpt lat="59.9543635" lon="17.7170855">
        <ele>41.9547</ele>
        <time>2014-06-06T12:52:50Z</time>
      </trkpt>
      <trkpt lat="59.9543449" lon="17.7171608">
        <ele>41.9547</ele>
        <time>2014-06-06T12:52:51Z</time>
      </trkpt>
      <trkpt lat="59.9543239" lon="17.7172325">
        <ele>41.9547</ele>
        <time>2014-06-06T12:52:52Z</time>
      </trkpt>
      <trkpt lat="59.9543052" lon="17.7173019">
        <ele>41.9547</ele>
        <time>2014-06-06T12:52:53Z</time>
      </trkpt>
      <trkpt lat="59.954289" lon="17.7173708">
        <ele>41.474</ele>
        <time>2014-06-06T12:52:54Z</time>
      </trkpt>
      <trkpt lat="59.954271" lon="17.7174348">
        <ele>40.9934</ele>
        <time>2014-06-06T12:52:55Z</time>
      </trkpt>
      <trkpt lat="59.9542532" lon="17.7174932">
        <ele>40.5128</ele>
        <time>2014-06-06T12:52:56Z</time>
      </trkpt>
      <trkpt lat="59.9542332" lon="17.7175586">
        <ele>40.5128</ele>
        <time>2014-06-06T12:52:57Z</time>
      </trkpt>
      <trkpt lat="59.954212" lon="17.7176253">
        <ele>41.474</ele>
        <time>2014-06-06T12:52:58Z</time>
      </trkpt>
      <trkpt lat="59.9541892" lon="17.7176863">
        <ele>41.474</ele>
        <time>2014-06-06T12:52:59Z</time>
      </trkpt>
      <trkpt lat="59.9541683" lon="17.717748">
        <ele>41.474</ele>
        <time>2014-06-06T12:53:00Z</time>
      </trkpt>
      <trkpt lat="59.9541509" lon="17.7178082">
        <ele>40.9934</ele>
        <time>2014-06-06T12:53:01Z</time>
      </trkpt>
      <trkpt lat="59.9541343" lon="17.7178714">
        <ele>40.0321</ele>
        <time>2014-06-06T12:53:02Z</time>
      </trkpt>
      <trkpt lat="59.9541119" lon="17.7179396">
        <ele>40.0321</ele>
        <time>2014-06-06T12:53:03Z</time>
      </trkpt>
      <trkpt lat="59.9540888" lon="17.7180081">
        <ele>39.0707</ele>
        <time>2014-06-06T12:53:04Z</time>
      </trkpt>
      <trkpt lat="59.9540648" lon="17.718081">
        <ele>38.5901</ele>
        <time>2014-06-06T12:53:05Z</time>
      </trkpt>
      <trkpt lat="59.9540411" lon="17.718158">
        <ele>38.1094</ele>
        <time>2014-06-06T12:53:06Z</time>
      </trkpt>
      <trkpt lat="59.9540172" lon="17.7182357">
        <ele>37.1481</ele>
        <time>2014-06-06T12:53:07Z</time>
      </trkpt>
      <trkpt lat="59.9539929" lon="17.7183151">
        <ele>37.1481</ele>
        <time>2014-06-06T12:53:08Z</time>
      </trkpt>
      <trkpt lat="59.9539719" lon="17.7183991">
        <ele>36.6675</ele>
        <time>2014-06-06T12:53:09Z</time>
      </trkpt>
      <trkpt lat="59.9539531" lon="17.7184868">
        <ele>36.6675</ele>
        <time>2014-06-06T12:53:10Z</time>
      </trkpt>
      <trkpt lat="59.9539333" lon="17.7185758">
        <ele>36.1868</ele>
        <time>2014-06-06T12:53:11Z</time>
      </trkpt>
      <trkpt lat="59.95391" lon="17.7186676">
        <ele>36.6675</ele>
        <time>2014-06-06T12:53:12Z</time>
      </trkpt>
      <trkpt lat="59.953888" lon="17.7187625">
        <ele>36.6675</ele>
        <time>2014-06-06T12:53:13Z</time>
      </trkpt>
      <trkpt lat="59.9538691" lon="17.718859">
        <ele>36.1868</ele>
        <time>2014-06-06T12:53:14Z</time>
      </trkpt>
      <trkpt lat="59.9538482" lon="17.7189582">
        <ele>36.1868</ele>
        <time>2014-06-06T12:53:15Z</time>
      </trkpt>
      <trkpt lat="59.9538269" lon="17.7190552">
        <ele>37.1481</ele>
        <time>2014-06-06T12:53:16Z</time>
      </trkpt>
      <trkpt lat="59.9538049" lon="17.7191534">
        <ele>37.6287</ele>
        <time>2014-06-06T12:53:17Z</time>
      </trkpt>
      <trkpt lat="59.9537829" lon="17.7192472">
        <ele>37.6287</ele>
        <time>2014-06-06T12:53:18Z</time>
      </trkpt>
      <trkpt lat="59.9537575" lon="17.7193392">
        <ele>37.6287</ele>
        <time>2014-06-06T12:53:19Z</time>
      </trkpt>
      <trkpt lat="59.9537281" lon="17.7194275">
        <ele>37.1481</ele>
        <time>2014-06-06T12:53:20Z</time>
      </trkpt>
      <trkpt lat="59.9537003" lon="17.7195154">
        <ele>36.6675</ele>
        <time>2014-06-06T12:53:21Z</time>
      </trkpt>
      <trkpt lat="59.9536738" lon="17.7196051">
        <ele>36.1868</ele>
        <time>2014-06-06T12:53:22Z</time>
      </trkpt>
      <trkpt lat="59.9536436" lon="17.7196938">
        <ele>35.7061</ele>
        <time>2014-06-06T12:53:23Z</time>
      </trkpt>
      <trkpt lat="59.9536132" lon="17.7197787">
        <ele>35.2255</ele>
        <time>2014-06-06T12:53:24Z</time>
      </trkpt>
      <trkpt lat="59.9535822" lon="17.7198605">
        <ele>34.7449</ele>
        <time>2014-06-06T12:53:25Z</time>
      </trkpt>
      <trkpt lat="59.9535511" lon="17.7199414">
        <ele>34.7449</ele>
        <time>2014-06-06T12:53:26Z</time>
      </trkpt>
      <trkpt lat="59.9535224" lon="17.72002">
        <ele>34.2642</ele>
        <time>2014-06-06T12:53:27Z</time>
      </trkpt>
      <trkpt lat="59.9534966" lon="17.7200993">
        <ele>34.2642</ele>
        <time>2014-06-06T12:53:28Z</time>
      </trkpt>
      <trkpt lat="59.953471" lon="17.7201885">
        <ele>33.7834</ele>
        <time>2014-06-06T12:53:29Z</time>
      </trkpt>
      <trkpt lat="59.9534428" lon="17.7202864">
        <ele>33.7834</ele>
        <time>2014-06-06T12:53:30Z</time>
      </trkpt>
      <trkpt lat="59.9534163" lon="17.7203892">
        <ele>33.7834</ele>
        <time>2014-06-06T12:53:31Z</time>
      </trkpt>
      <trkpt lat="59.9533925" lon="17.720494">
        <ele>34.2642</ele>
        <time>2014-06-06T12:53:32Z</time>
      </trkpt>
      <trkpt lat="59.9533723" lon="17.7205978">
        <ele>34.2642</ele>
        <time>2014-06-06T12:53:33Z</time>
      </trkpt>
      <trkpt lat="59.9533545" lon="17.7207023">
        <ele>34.2642</ele>
        <time>2014-06-06T12:53:34Z</time>
      </trkpt>
      <trkpt lat="59.9533379" lon="17.7208099">
        <ele>34.2642</ele>
        <time>2014-06-06T12:53:35Z</time>
      </trkpt>
      <trkpt lat="59.9533231" lon="17.720919">
        <ele>34.2642</ele>
        <time>2014-06-06T12:53:36Z</time>
      </trkpt>
      <trkpt lat="59.9533066" lon="17.7210281">
        <ele>34.2642</ele>
        <time>2014-06-06T12:53:37Z</time>
      </trkpt>
      <trkpt lat="59.953288" lon="17.7211375">
        <ele>34.7449</ele>
        <time>2014-06-06T12:53:38Z</time>
      </trkpt>
      <trkpt lat="59.9532659" lon="17.7212438">
        <ele>34.2642</ele>
        <time>2014-06-06T12:53:39Z</time>
      </trkpt>
      <trkpt lat="59.9532392" lon="17.7213457">
        <ele>34.2642</ele>
        <time>2014-06-06T12:53:40Z</time>
      </trkpt>
      <trkpt lat="59.9532091" lon="17.72144">
        <ele>33.7834</ele>
        <time>2014-06-06T12:53:41Z</time>
      </trkpt>
      <trkpt lat="59.9531727" lon="17.7215248">
        <ele>34.2642</ele>
        <time>2014-06-06T12:53:42Z</time>
      </trkpt>
      <trkpt lat="59.9531343" lon="17.7215994">
        <ele>34.2642</ele>
        <time>2014-06-06T12:53:43Z</time>
      </trkpt>
      <trkpt lat="59.9530916" lon="17.7216639">
        <ele>35.2255</ele>
        <time>2014-06-06T12:53:44Z</time>
      </trkpt>
      <trkpt lat="59.9530466" lon="17.7217179">
        <ele>35.7061</ele>
        <time>2014-06-06T12:53:45Z</time>
      </trkpt>
      <trkpt lat="59.9530039" lon="17.7217708">
        <ele>36.1868</ele>
        <time>2014-06-06T12:53:46Z</time>
      </trkpt>
      <trkpt lat="59.9529649" lon="17.7218237">
        <ele>36.6675</ele>
        <time>2014-06-06T12:53:47Z</time>
      </trkpt>
      <trkpt lat="59.9529262" lon="17.7218781">
        <ele>37.1481</ele>
        <time>2014-06-06T12:53:48Z</time>
      </trkpt>
      <trkpt lat="59.9528864" lon="17.7219331">
        <ele>37.1481</ele>
        <time>2014-06-06T12:53:49Z</time>
      </trkpt>
      <trkpt lat="59.9528502" lon="17.7219894">
        <ele>37.1481</ele>
        <time>2014-06-06T12:53:50Z</time>
      </trkpt>
      <trkpt lat="59.9528103" lon="17.7220519">
        <ele>37.6287</ele>
        <time>2014-06-06T12:53:51Z</time>
      </trkpt>
      <trkpt lat="59.9527656" lon="17.7221166">
        <ele>38.1094</ele>
        <time>2014-06-06T12:53:52Z</time>
      </trkpt>
      <trkpt lat="59.9527191" lon="17.7221914">
        <ele>38.5901</ele>
        <time>2014-06-06T12:53:53Z</time>
      </trkpt>
      <trkpt lat="59.9526766" lon="17.7222722">
        <ele>39.0707</ele>
        <time>2014-06-06T12:53:54Z</time>
      </trkpt>
      <trkpt lat="59.9526403" lon="17.7223502">
        <ele>38.5901</ele>
        <time>2014-06-06T12:53:55Z</time>
      </trkpt>
      <trkpt lat="59.9526008" lon="17.7224397">
        <ele>39.0707</ele>
        <time>2014-06-06T12:53:56Z</time>
      </trkpt>
      <trkpt lat="59.9525624" lon="17.7225382">
        <ele>40.0321</ele>
        <time>2014-06-06T12:53:57Z</time>
      </trkpt>
      <trkpt lat="59.9525275" lon="17.7226474">
        <ele>41.474</ele>
        <time>2014-06-06T12:53:58Z</time>
      </trkpt>
      <trkpt lat="59.9524968" lon="17.7227584">
        <ele>42.4354</ele>
        <time>2014-06-06T12:53:59Z</time>
      </trkpt>
      <trkpt lat="59.9524684" lon="17.7228662">
        <ele>42.916</ele>
        <time>2014-06-06T12:54:00Z</time>
      </trkpt>
      <trkpt lat="59.9524413" lon="17.7229682">
        <ele>42.916</ele>
        <time>2014-06-06T12:54:01Z</time>
      </trkpt>
      <trkpt lat="59.9524144" lon="17.7230686">
        <ele>42.916</ele>
        <time>2014-06-06T12:54:02Z</time>
      </trkpt>
      <trkpt lat="59.9523868" lon="17.7231678">
        <ele>42.916</ele>
        <time>2014-06-06T12:54:03Z</time>
      </trkpt>
      <trkpt lat="59.9523584" lon="17.723269">
        <ele>43.3966</ele>
        <time>2014-06-06T12:54:04Z</time>
      </trkpt>
      <trkpt lat="59.9523294" lon="17.7233706">
        <ele>43.8773</ele>
        <time>2014-06-06T12:54:05Z</time>
      </trkpt>
      <trkpt lat="59.9523021" lon="17.7234693">
        <ele>44.358</ele>
        <time>2014-06-06T12:54:06Z</time>
      </trkpt>
      <trkpt lat="59.9522762" lon="17.7235638">
        <ele>44.358</ele>
        <time>2014-06-06T12:54:07Z</time>
      </trkpt>
      <trkpt lat="59.952249" lon="17.7236585">
        <ele>44.358</ele>
        <time>2014-06-06T12:54:08Z</time>
      </trkpt>
      <trkpt lat="59.9522216" lon="17.7237532">
        <ele>44.8386</ele>
        <time>2014-06-06T12:54:09Z</time>
      </trkpt>
      <trkpt lat="59.952195" lon="17.7238477">
        <ele>44.8386</ele>
        <time>2014-06-06T12:54:10Z</time>
      </trkpt>
      <trkpt lat="59.95217" lon="17.723944">
        <ele>44.8386</ele>
        <time>2014-06-06T12:54:11Z</time>
      </trkpt>
      <trkpt lat="59.9521452" lon="17.7240454">
        <ele>45.3192</ele>
        <time>2014-06-06T12:54:12Z</time>
      </trkpt>
      <trkpt lat="59.9521221" lon="17.7241512">
        <ele>45.3192</ele>
        <time>2014-06-06T12:54:13Z</time>
      </trkpt>
      <trkpt lat="59.9521" lon="17.7242638">
        <ele>45.7999</ele>
        <time>2014-06-06T12:54:14Z</time>
      </trkpt>
      <trkpt lat="59.9520774" lon="17.7243831">
        <ele>45.7999</ele>
        <time>2014-06-06T12:54:15Z</time>
      </trkpt>
      <trkpt lat="59.9520545" lon="17.7245053">
        <ele>45.7999</ele>
        <time>2014-06-06T12:54:16Z</time>
      </trkpt>
      <trkpt lat="59.9520326" lon="17.7246283">
        <ele>45.7999</ele>
        <time>2014-06-06T12:54:17Z</time>
      </trkpt>
      <trkpt lat="59.9520092" lon="17.7247509">
        <ele>45.7999</ele>
        <time>2014-06-06T12:54:18Z</time>
      </trkpt>
      <trkpt lat="59.9519809" lon="17.7248686">
        <ele>45.7999</ele>
        <time>2014-06-06T12:54:19Z</time>
      </trkpt>
      <trkpt lat="59.9519478" lon="17.7249809">
        <ele>45.7999</ele>
        <time>2014-06-06T12:54:20Z</time>
      </trkpt>
      <trkpt lat="59.9519105" lon="17.7250857">
        <ele>45.3192</ele>
        <time>2014-06-06T12:54:21Z</time>
      </trkpt>
      <trkpt lat="59.951868" lon="17.7251826">
        <ele>45.3192</ele>
        <time>2014-06-06T12:54:22Z</time>
      </trkpt>
      <trkpt lat="59.9518229" lon="17.7252756">
        <ele>45.3192</ele>
        <time>2014-06-06T12:54:23Z</time>
      </trkpt>
      <trkpt lat="59.9517782" lon="17.7253696">
        <ele>44.8386</ele>
        <time>2014-06-06T12:54:24Z</time>
      </trkpt>
      <trkpt lat="59.9517339" lon="17.7254674">
        <ele>44.8386</ele>
        <time>2014-06-06T12:54:25Z</time>
      </trkpt>
      <trkpt lat="59.9516913" lon="17.7255675">
        <ele>44.8386</ele>
        <time>2014-06-06T12:54:26Z</time>
      </trkpt>
      <trkpt lat="59.9516509" lon="17.725669">
        <ele>44.8386</ele>
        <time>2014-06-06T12:54:27Z</time>
      </trkpt>
      <trkpt lat="59.9516117" lon="17.7257719">
        <ele>44.8386</ele>
        <time>2014-06-06T12:54:28Z</time>
      </trkpt>
      <trkpt lat="59.9515727" lon="17.7258783">
        <ele>44.8386</ele>
        <time>2014-06-06T12:54:29Z</time>
      </trkpt>
      <trkpt lat="59.9515349" lon="17.7259898">
        <ele>44.8386</ele>
        <time>2014-06-06T12:54:30Z</time>
      </trkpt>
      <trkpt lat="59.9514986" lon="17.726104">
        <ele>44.8386</ele>
        <time>2014-06-06T12:54:31Z</time>
      </trkpt>
      <trkpt lat="59.9514623" lon="17.7262169">
        <ele>44.358</ele>
        <time>2014-06-06T12:54:32Z</time>
      </trkpt>
      <trkpt lat="59.9514156" lon="17.7263337">
        <ele>44.358</ele>
        <time>2014-06-06T12:54:33Z</time>
      </trkpt>
      <trkpt lat="59.9513715" lon="17.7264315">
        <ele>44.358</ele>
        <time>2014-06-06T12:54:34Z</time>
      </trkpt>
      <trkpt lat="59.9513245" lon="17.7265251">
        <ele>44.358</ele>
        <time>2014-06-06T12:54:35Z</time>
      </trkpt>
      <trkpt lat="59.9512783" lon="17.7266092">
        <ele>44.358</ele>
        <time>2014-06-06T12:54:36Z</time>
      </trkpt>
      <trkpt lat="59.9512149" lon="17.7266606">
        <ele>44.8386</ele>
        <time>2014-06-06T12:54:37Z</time>
      </trkpt>
      <trkpt lat="59.9511583" lon="17.7267387">
        <ele>44.8386</ele>
        <time>2014-06-06T12:54:38Z</time>
      </trkpt>
      <trkpt lat="59.9511034" lon="17.7268081">
        <ele>44.8386</ele>
        <time>2014-06-06T12:54:39Z</time>
      </trkpt>
      <trkpt lat="59.951049" lon="17.7268706">
        <ele>44.8386</ele>
        <time>2014-06-06T12:54:40Z</time>
      </trkpt>
      <trkpt lat="59.9509958" lon="17.726932">
        <ele>44.358</ele>
        <time>2014-06-06T12:54:41Z</time>
      </trkpt>
      <trkpt lat="59.9509396" lon="17.7269971">
        <ele>44.358</ele>
        <time>2014-06-06T12:54:42Z</time>
      </trkpt>
      <trkpt lat="59.9508874" lon="17.7270591">
        <ele>44.358</ele>
        <time>2014-06-06T12:54:43Z</time>
      </trkpt>
      <trkpt lat="59.9508378" lon="17.7271148">
        <ele>44.358</ele>
        <time>2014-06-06T12:54:44Z</time>
      </trkpt>
      <trkpt lat="59.9507823" lon="17.7271519">
        <ele>44.358</ele>
        <time>2014-06-06T12:54:45Z</time>
      </trkpt>
      <trkpt lat="59.9507299" lon="17.7272013">
        <ele>44.358</ele>
        <time>2014-06-06T12:54:46Z</time>
      </trkpt>
      <trkpt lat="59.9506798" lon="17.7272606">
        <ele>43.8773</ele>
        <time>2014-06-06T12:54:47Z</time>
      </trkpt>
      <trkpt lat="59.9506277" lon="17.7273021">
        <ele>44.358</ele>
        <time>2014-06-06T12:54:48Z</time>
      </trkpt>
      <trkpt lat="59.9505798" lon="17.7273463">
        <ele>44.8386</ele>
        <time>2014-06-06T12:54:49Z</time>
      </trkpt>
      <trkpt lat="59.9505269" lon="17.7273918">
        <ele>45.7999</ele>
        <time>2014-06-06T12:54:50Z</time>
      </trkpt>
      <trkpt lat="59.9504705" lon="17.7274401">
        <ele>45.7999</ele>
        <time>2014-06-06T12:54:51Z</time>
      </trkpt>
      <trkpt lat="59.9504207" lon="17.7274785">
        <ele>45.7999</ele>
        <time>2014-06-06T12:54:52Z</time>
      </trkpt>
      <trkpt lat="59.9503652" lon="17.727524">
        <ele>46.7612</ele>
        <time>2014-06-06T12:54:53Z</time>
      </trkpt>
      <trkpt lat="59.9503158" lon="17.7275694">
        <ele>47.2418</ele>
        <time>2014-06-06T12:54:54Z</time>
      </trkpt>
      <trkpt lat="59.9502661" lon="17.7276135">
        <ele>47.2418</ele>
        <time>2014-06-06T12:54:55Z</time>
      </trkpt>
      <trkpt lat="59.9502246" lon="17.7276669">
        <ele>47.7225</ele>
        <time>2014-06-06T12:54:56Z</time>
      </trkpt>
      <trkpt lat="59.9501927" lon="17.7277272">
        <ele>47.7225</ele>
        <time>2014-06-06T12:54:57Z</time>
      </trkpt>
      <trkpt lat="59.9501599" lon="17.7277907">
        <ele>47.7225</ele>
        <time>2014-06-06T12:54:58Z</time>
      </trkpt>
      <trkpt lat="59.9501275" lon="17.7278586">
        <ele>47.7225</ele>
        <time>2014-06-06T12:54:59Z</time>
      </trkpt>
      <trkpt lat="59.9500948" lon="17.7279327">
        <ele>47.2418</ele>
        <time>2014-06-06T12:55:00Z</time>
      </trkpt>
      <trkpt lat="59.9500607" lon="17.7280171">
        <ele>46.7612</ele>
        <time>2014-06-06T12:55:01Z</time>
      </trkpt>
      <trkpt lat="59.9500218" lon="17.7281062">
        <ele>46.7612</ele>
        <time>2014-06-06T12:55:02Z</time>
      </trkpt>
      <trkpt lat="59.9499861" lon="17.7281912">
        <ele>45.7999</ele>
        <time>2014-06-06T12:55:03Z</time>
      </trkpt>
      <trkpt lat="59.9499478" lon="17.7282741">
        <ele>45.3192</ele>
        <time>2014-06-06T12:55:04Z</time>
      </trkpt>
      <trkpt lat="59.9499064" lon="17.7283684">
        <ele>45.3192</ele>
        <time>2014-06-06T12:55:05Z</time>
      </trkpt>
      <trkpt lat="59.9498669" lon="17.7284743">
        <ele>45.3192</ele>
        <time>2014-06-06T12:55:06Z</time>
      </trkpt>
      <trkpt lat="59.9498208" lon="17.7286354">
        <ele>44.8386</ele>
        <time>2014-06-06T12:55:07Z</time>
      </trkpt>
      <trkpt lat="59.9497826" lon="17.7288008">
        <ele>45.3192</ele>
        <time>2014-06-06T12:55:08Z</time>
      </trkpt>
      <trkpt lat="59.9497618" lon="17.7289341">
        <ele>44.358</ele>
        <time>2014-06-06T12:55:09Z</time>
      </trkpt>
      <trkpt lat="59.9497517" lon="17.7290628">
        <ele>43.3966</ele>
        <time>2014-06-06T12:55:10Z</time>
      </trkpt>
      <trkpt lat="59.949741" lon="17.729182">
        <ele>42.4354</ele>
        <time>2014-06-06T12:55:11Z</time>
      </trkpt>
      <trkpt lat="59.9497303" lon="17.7292995">
        <ele>41.9547</ele>
        <time>2014-06-06T12:55:12Z</time>
      </trkpt>
      <trkpt lat="59.9497154" lon="17.7294109">
        <ele>40.9934</ele>
        <time>2014-06-06T12:55:13Z</time>
      </trkpt>
      <trkpt lat="59.9496956" lon="17.7295182">
        <ele>39.5513</ele>
        <time>2014-06-06T12:55:14Z</time>
      </trkpt>
      <trkpt lat="59.9496664" lon="17.729624">
        <ele>39.0707</ele>
        <time>2014-06-06T12:55:15Z</time>
      </trkpt>
      <trkpt lat="59.9496337" lon="17.7297262">
        <ele>38.1094</ele>
        <time>2014-06-06T12:55:16Z</time>
      </trkpt>
      <trkpt lat="59.9496012" lon="17.729824">
        <ele>37.6287</ele>
        <time>2014-06-06T12:55:17Z</time>
      </trkpt>
      <trkpt lat="59.9495759" lon="17.7299191">
        <ele>37.1481</ele>
        <time>2014-06-06T12:55:18Z</time>
      </trkpt>
      <trkpt lat="59.9495535" lon="17.7300142">
        <ele>36.6675</ele>
        <time>2014-06-06T12:55:19Z</time>
      </trkpt>
      <trkpt lat="59.9495357" lon="17.7301118">
        <ele>36.1868</ele>
        <time>2014-06-06T12:55:20Z</time>
      </trkpt>
      <trkpt lat="59.9495205" lon="17.73021">
        <ele>35.7061</ele>
        <time>2014-06-06T12:55:21Z</time>
      </trkpt>
      <trkpt lat="59.9495059" lon="17.7303069">
        <ele>35.2255</ele>
        <time>2014-06-06T12:55:22Z</time>
      </trkpt>
      <trkpt lat="59.9494893" lon="17.7304091">
        <ele>34.7449</ele>
        <time>2014-06-06T12:55:23Z</time>
      </trkpt>
      <trkpt lat="59.9494727" lon="17.7305171">
        <ele>34.7449</ele>
        <time>2014-06-06T12:55:24Z</time>
      </trkpt>
      <trkpt lat="59.9494582" lon="17.7306269">
        <ele>33.7834</ele>
        <time>2014-06-06T12:55:25Z</time>
      </trkpt>
      <trkpt lat="59.9494359" lon="17.7307373">
        <ele>33.3029</ele>
        <time>2014-06-06T12:55:26Z</time>
      </trkpt>
      <trkpt lat="59.9494094" lon="17.7308408">
        <ele>32.8223</ele>
        <time>2014-06-06T12:55:27Z</time>
      </trkpt>
      <trkpt lat="59.9493728" lon="17.730936">
        <ele>32.8223</ele>
        <time>2014-06-06T12:55:28Z</time>
      </trkpt>
      <trkpt lat="59.94934" lon="17.7310277">
        <ele>32.8223</ele>
        <time>2014-06-06T12:55:29Z</time>
      </trkpt>
      <trkpt lat="59.9493095" lon="17.7311199">
        <ele>32.8223</ele>
        <time>2014-06-06T12:55:30Z</time>
      </trkpt>
      <trkpt lat="59.9492764" lon="17.7312152">
        <ele>32.8223</ele>
        <time>2014-06-06T12:55:31Z</time>
      </trkpt>
      <trkpt lat="59.9492438" lon="17.7313156">
        <ele>32.8223</ele>
        <time>2014-06-06T12:55:32Z</time>
      </trkpt>
      <trkpt lat="59.9491882" lon="17.7314236">
        <ele>32.8223</ele>
        <time>2014-06-06T12:55:33Z</time>
      </trkpt>
      <trkpt lat="59.9491448" lon="17.7315261">
        <ele>32.8223</ele>
        <time>2014-06-06T12:55:34Z</time>
      </trkpt>
      <trkpt lat="59.9490969" lon="17.7316597">
        <ele>33.3029</ele>
        <time>2014-06-06T12:55:35Z</time>
      </trkpt>
      <trkpt lat="59.9490489" lon="17.7317682">
        <ele>33.3029</ele>
        <time>2014-06-06T12:55:36Z</time>
      </trkpt>
      <trkpt lat="59.9489962" lon="17.7318493">
        <ele>32.8223</ele>
        <time>2014-06-06T12:55:37Z</time>
      </trkpt>
      <trkpt lat="59.9489453" lon="17.7319303">
        <ele>32.8223</ele>
        <time>2014-06-06T12:55:38Z</time>
      </trkpt>
      <trkpt lat="59.9488982" lon="17.7320012">
        <ele>32.3416</ele>
        <time>2014-06-06T12:55:39Z</time>
      </trkpt>
      <trkpt lat="59.9488504" lon="17.7320797">
        <ele>32.3416</ele>
        <time>2014-06-06T12:55:40Z</time>
      </trkpt>
      <trkpt lat="59.9488051" lon="17.7321457">
        <ele>32.8223</ele>
        <time>2014-06-06T12:55:41Z</time>
      </trkpt>
      <trkpt lat="59.9487574" lon="17.7322104">
        <ele>33.3029</ele>
        <time>2014-06-06T12:55:42Z</time>
      </trkpt>
      <trkpt lat="59.9487133" lon="17.7322701">
        <ele>33.7834</ele>
        <time>2014-06-06T12:55:43Z</time>
      </trkpt>
      <trkpt lat="59.9486763" lon="17.7323322">
        <ele>33.7834</ele>
        <time>2014-06-06T12:55:44Z</time>
      </trkpt>
      <trkpt lat="59.9486404" lon="17.7323973">
        <ele>34.2642</ele>
        <time>2014-06-06T12:55:45Z</time>
      </trkpt>
      <trkpt lat="59.948603" lon="17.7324628">
        <ele>34.2642</ele>
        <time>2014-06-06T12:55:46Z</time>
      </trkpt>
      <trkpt lat="59.9485616" lon="17.7325226">
        <ele>34.2642</ele>
        <time>2014-06-06T12:55:47Z</time>
      </trkpt>
      <trkpt lat="59.9485076" lon="17.7325829">
        <ele>35.7061</ele>
        <time>2014-06-06T12:55:48Z</time>
      </trkpt>
      <trkpt lat="59.9484563" lon="17.7326379">
        <ele>35.7061</ele>
        <time>2014-06-06T12:55:49Z</time>
      </trkpt>
      <trkpt lat="59.9484038" lon="17.7326896">
        <ele>35.7061</ele>
        <time>2014-06-06T12:55:50Z</time>
      </trkpt>
      <trkpt lat="59.9483546" lon="17.7327293">
        <ele>35.2255</ele>
        <time>2014-06-06T12:55:51Z</time>
      </trkpt>
      <trkpt lat="59.9483009" lon="17.7327624">
        <ele>36.1868</ele>
        <time>2014-06-06T12:55:52Z</time>
      </trkpt>
      <trkpt lat="59.9482467" lon="17.7328015">
        <ele>37.1481</ele>
        <time>2014-06-06T12:55:53Z</time>
      </trkpt>
      <trkpt lat="59.9481983" lon="17.732849">
        <ele>38.5901</ele>
        <time>2014-06-06T12:55:54Z</time>
      </trkpt>
      <trkpt lat="59.9481545" lon="17.7329023">
        <ele>39.0707</ele>
        <time>2014-06-06T12:55:55Z</time>
      </trkpt>
      <trkpt lat="59.9481215" lon="17.7329759">
        <ele>39.5513</ele>
        <time>2014-06-06T12:55:56Z</time>
      </trkpt>
      <trkpt lat="59.9480699" lon="17.7330673">
        <ele>40.0321</ele>
        <time>2014-06-06T12:55:57Z</time>
      </trkpt>
      <trkpt lat="59.948028" lon="17.733207">
        <ele>40.9934</ele>
        <time>2014-06-06T12:55:58Z</time>
      </trkpt>
      <trkpt lat="59.9479951" lon="17.7333236">
        <ele>40.5128</ele>
        <time>2014-06-06T12:55:59Z</time>
      </trkpt>
      <trkpt lat="59.9479679" lon="17.7334382">
        <ele>40.5128</ele>
        <time>2014-06-06T12:56:00Z</time>
      </trkpt>
      <trkpt lat="59.9479399" lon="17.7335345">
        <ele>39.5513</ele>
        <time>2014-06-06T12:56:01Z</time>
      </trkpt>
      <trkpt lat="59.9479051" lon="17.7336">
        <ele>39.5513</ele>
        <time>2014-06-06T12:56:02Z</time>
      </trkpt>
      <trkpt lat="59.9478664" lon="17.7336764">
        <ele>39.5513</ele>
        <time>2014-06-06T12:56:03Z</time>
      </trkpt>
      <trkpt lat="59.9478297" lon="17.7337612">
        <ele>39.0707</ele>
        <time>2014-06-06T12:56:04Z</time>
      </trkpt>
      <trkpt lat="59.9477928" lon="17.733871">
        <ele>39.5513</ele>
        <time>2014-06-06T12:56:05Z</time>
      </trkpt>
      <trkpt lat="59.9477664" lon="17.7339854">
        <ele>40.9934</ele>
        <time>2014-06-06T12:56:06Z</time>
      </trkpt>
      <trkpt lat="59.9477525" lon="17.7340891">
        <ele>40.5128</ele>
        <time>2014-06-06T12:56:07Z</time>
      </trkpt>
      <trkpt lat="59.9477477" lon="17.7341864">
        <ele>39.5513</ele>
        <time>2014-06-06T12:56:08Z</time>
      </trkpt>
      <trkpt lat="59.9477475" lon="17.7342836">
        <ele>39.5513</ele>
        <time>2014-06-06T12:56:09Z</time>
      </trkpt>
      <trkpt lat="59.9477509" lon="17.7343902">
        <ele>39.0707</ele>
        <time>2014-06-06T12:56:10Z</time>
      </trkpt>
      <trkpt lat="59.9477548" lon="17.7345037">
        <ele>39.0707</ele>
        <time>2014-06-06T12:56:11Z</time>
      </trkpt>
      <trkpt lat="59.9477576" lon="17.7346207">
        <ele>38.5901</ele>
        <time>2014-06-06T12:56:12Z</time>
      </trkpt>
      <trkpt lat="59.9477559" lon="17.7347386">
        <ele>38.1094</ele>
        <time>2014-06-06T12:56:13Z</time>
      </trkpt>
      <trkpt lat="59.9477529" lon="17.7348589">
        <ele>38.1094</ele>
        <time>2014-06-06T12:56:14Z</time>
      </trkpt>
      <trkpt lat="59.9477519" lon="17.7349802">
        <ele>37.6287</ele>
        <time>2014-06-06T12:56:15Z</time>
      </trkpt>
      <trkpt lat="59.9477456" lon="17.7350995">
        <ele>37.1481</ele>
        <time>2014-06-06T12:56:16Z</time>
      </trkpt>
      <trkpt lat="59.9477432" lon="17.7352193">
        <ele>37.1481</ele>
        <time>2014-06-06T12:56:17Z</time>
      </trkpt>
      <trkpt lat="59.9477418" lon="17.7353392">
        <ele>37.1481</ele>
        <time>2014-06-06T12:56:18Z</time>
      </trkpt>
      <trkpt lat="59.9477339" lon="17.7354562">
        <ele>37.1481</ele>
        <time>2014-06-06T12:56:19Z</time>
      </trkpt>
      <trkpt lat="59.9477296" lon="17.7355759">
        <ele>37.6287</ele>
        <time>2014-06-06T12:56:20Z</time>
      </trkpt>
      <trkpt lat="59.9477183" lon="17.7356878">
        <ele>37.6287</ele>
        <time>2014-06-06T12:56:21Z</time>
      </trkpt>
      <trkpt lat="59.9477104" lon="17.7357951">
        <ele>37.1481</ele>
        <time>2014-06-06T12:56:22Z</time>
      </trkpt>
      <trkpt lat="59.9476985" lon="17.7358935">
        <ele>36.6675</ele>
        <time>2014-06-06T12:56:23Z</time>
      </trkpt>
      <trkpt lat="59.9476861" lon="17.7359893">
        <ele>37.1481</ele>
        <time>2014-06-06T12:56:24Z</time>
      </trkpt>
      <trkpt lat="59.9476746" lon="17.7360845">
        <ele>37.6287</ele>
        <time>2014-06-06T12:56:25Z</time>
      </trkpt>
      <trkpt lat="59.9476622" lon="17.736181">
        <ele>37.6287</ele>
        <time>2014-06-06T12:56:26Z</time>
      </trkpt>
      <trkpt lat="59.9476437" lon="17.7362789">
        <ele>37.6287</ele>
        <time>2014-06-06T12:56:27Z</time>
      </trkpt>
      <trkpt lat="59.9476255" lon="17.7363781">
        <ele>37.1481</ele>
        <time>2014-06-06T12:56:28Z</time>
      </trkpt>
      <trkpt lat="59.9476063" lon="17.7364778">
        <ele>37.6287</ele>
        <time>2014-06-06T12:56:29Z</time>
      </trkpt>
      <trkpt lat="59.9475836" lon="17.7365766">
        <ele>38.1094</ele>
        <time>2014-06-06T12:56:30Z</time>
      </trkpt>
      <trkpt lat="59.9475628" lon="17.7366711">
        <ele>38.1094</ele>
        <time>2014-06-06T12:56:31Z</time>
      </trkpt>
      <trkpt lat="59.9475391" lon="17.7367586">
        <ele>38.5901</ele>
        <time>2014-06-06T12:56:32Z</time>
      </trkpt>
      <trkpt lat="59.9475188" lon="17.7368376">
        <ele>39.0707</ele>
        <time>2014-06-06T12:56:33Z</time>
      </trkpt>
      <trkpt lat="59.947497" lon="17.736916">
        <ele>38.5901</ele>
        <time>2014-06-06T12:56:34Z</time>
      </trkpt>
      <trkpt lat="59.9474681" lon="17.7369979">
        <ele>39.0707</ele>
        <time>2014-06-06T12:56:35Z</time>
      </trkpt>
      <trkpt lat="59.9474334" lon="17.7370792">
        <ele>38.5901</ele>
        <time>2014-06-06T12:56:36Z</time>
      </trkpt>
      <trkpt lat="59.947395" lon="17.7371546">
        <ele>39.0707</ele>
        <time>2014-06-06T12:56:37Z</time>
      </trkpt>
      <trkpt lat="59.9473552" lon="17.7372161">
        <ele>39.5513</ele>
        <time>2014-06-06T12:56:38Z</time>
      </trkpt>
      <trkpt lat="59.9473198" lon="17.737267">
        <ele>39.0707</ele>
        <time>2014-06-06T12:56:39Z</time>
      </trkpt>
      <trkpt lat="59.9472815" lon="17.7373149">
        <ele>39.5513</ele>
        <time>2014-06-06T12:56:40Z</time>
      </trkpt>
      <trkpt lat="59.947237" lon="17.7373511">
        <ele>39.0707</ele>
        <time>2014-06-06T12:56:41Z</time>
      </trkpt>
      <trkpt lat="59.9471899" lon="17.7373786">
        <ele>38.5901</ele>
        <time>2014-06-06T12:56:42Z</time>
      </trkpt>
      <trkpt lat="59.9471428" lon="17.7374097">
        <ele>38.5901</ele>
        <time>2014-06-06T12:56:43Z</time>
      </trkpt>
      <trkpt lat="59.9470935" lon="17.7374346">
        <ele>38.1094</ele>
        <time>2014-06-06T12:56:44Z</time>
      </trkpt>
      <trkpt lat="59.9470423" lon="17.7374561">
        <ele>38.1094</ele>
        <time>2014-06-06T12:56:45Z</time>
      </trkpt>
      <trkpt lat="59.9469972" lon="17.7374786">
        <ele>38.1094</ele>
        <time>2014-06-06T12:56:46Z</time>
      </trkpt>
      <trkpt lat="59.9469547" lon="17.7375128">
        <ele>37.6287</ele>
        <time>2014-06-06T12:56:47Z</time>
      </trkpt>
      <trkpt lat="59.9469054" lon="17.7375395">
        <ele>37.6287</ele>
        <time>2014-06-06T12:56:48Z</time>
      </trkpt>
      <trkpt lat="59.9468626" lon="17.7375755">
        <ele>37.6287</ele>
        <time>2014-06-06T12:56:49Z</time>
      </trkpt>
      <trkpt lat="59.9468307" lon="17.7376362">
        <ele>38.5901</ele>
        <time>2014-06-06T12:56:50Z</time>
      </trkpt>
      <trkpt lat="59.946796" lon="17.7377179">
        <ele>37.6287</ele>
        <time>2014-06-06T12:56:51Z</time>
      </trkpt>
      <trkpt lat="59.9467645" lon="17.737808">
        <ele>37.1481</ele>
        <time>2014-06-06T12:56:52Z</time>
      </trkpt>
      <trkpt lat="59.9467356" lon="17.7379022">
        <ele>36.6675</ele>
        <time>2014-06-06T12:56:53Z</time>
      </trkpt>
      <trkpt lat="59.9467027" lon="17.7379967">
        <ele>36.6675</ele>
        <time>2014-06-06T12:56:54Z</time>
      </trkpt>
      <trkpt lat="59.9466604" lon="17.7380935">
        <ele>35.7061</ele>
        <time>2014-06-06T12:56:55Z</time>
      </trkpt>
      <trkpt lat="59.9466189" lon="17.7381876">
        <ele>34.7449</ele>
        <time>2014-06-06T12:56:56Z</time>
      </trkpt>
      <trkpt lat="59.946577" lon="17.7382792">
        <ele>33.7834</ele>
        <time>2014-06-06T12:56:57Z</time>
      </trkpt>
      <trkpt lat="59.9465382" lon="17.7383654">
        <ele>32.8223</ele>
        <time>2014-06-06T12:56:58Z</time>
      </trkpt>
      <trkpt lat="59.9465004" lon="17.7384472">
        <ele>32.3416</ele>
        <time>2014-06-06T12:56:59Z</time>
      </trkpt>
      <trkpt lat="59.9464536" lon="17.7385364">
        <ele>31.3801</ele>
        <time>2014-06-06T12:57:00Z</time>
      </trkpt>
      <trkpt lat="59.9463962" lon="17.7386328">
        <ele>30.4188</ele>
        <time>2014-06-06T12:57:01Z</time>
      </trkpt>
      <trkpt lat="59.946333" lon="17.738711">
        <ele>30.4188</ele>
        <time>2014-06-06T12:57:02Z</time>
      </trkpt>
      <trkpt lat="59.9462666" lon="17.7387686">
        <ele>29.9381</ele>
        <time>2014-06-06T12:57:03Z</time>
      </trkpt>
      <trkpt lat="59.9462092" lon="17.7388198">
        <ele>29.4575</ele>
        <time>2014-06-06T12:57:04Z</time>
      </trkpt>
      <trkpt lat="59.9461565" lon="17.7388514">
        <ele>28.9769</ele>
        <time>2014-06-06T12:57:05Z</time>
      </trkpt>
      <trkpt lat="59.9461015" lon="17.7388938">
        <ele>28.9769</ele>
        <time>2014-06-06T12:57:06Z</time>
      </trkpt>
      <trkpt lat="59.9460466" lon="17.7389192">
        <ele>28.0155</ele>
        <time>2014-06-06T12:57:07Z</time>
      </trkpt>
      <trkpt lat="59.9459852" lon="17.7389523">
        <ele>26.5736</ele>
        <time>2014-06-06T12:57:08Z</time>
      </trkpt>
      <trkpt lat="59.9459262" lon="17.738992">
        <ele>25.6123</ele>
        <time>2014-06-06T12:57:09Z</time>
      </trkpt>
      <trkpt lat="59.9458612" lon="17.7390542">
        <ele>26.5736</ele>
        <time>2014-06-06T12:57:10Z</time>
      </trkpt>
      <trkpt lat="59.9458125" lon="17.7390947">
        <ele>26.0929</ele>
        <time>2014-06-06T12:57:11Z</time>
      </trkpt>
      <trkpt lat="59.9457658" lon="17.7391471">
        <ele>27.0543</ele>
        <time>2014-06-06T12:57:12Z</time>
      </trkpt>
      <trkpt lat="59.9457161" lon="17.7391874">
        <ele>28.0155</ele>
        <time>2014-06-06T12:57:13Z</time>
      </trkpt>
      <trkpt lat="59.9456781" lon="17.7392273">
        <ele>28.4962</ele>
        <time>2014-06-06T12:57:14Z</time>
      </trkpt>
      <trkpt lat="59.945643" lon="17.7392605">
        <ele>28.9769</ele>
        <time>2014-06-06T12:57:15Z</time>
      </trkpt>
      <trkpt lat="59.9456031" lon="17.7392971">
        <ele>27.0543</ele>
        <time>2014-06-06T12:57:16Z</time>
      </trkpt>
      <trkpt lat="59.9455543" lon="17.7393196">
        <ele>24.651</ele>
        <time>2014-06-06T12:57:17Z</time>
      </trkpt>
      <trkpt lat="59.9455005" lon="17.739347">
        <ele>22.7283</ele>
        <time>2014-06-06T12:57:18Z</time>
      </trkpt>
      <trkpt lat="59.945445" lon="17.7393634">
        <ele>19.3638</ele>
        <time>2014-06-06T12:57:19Z</time>
      </trkpt>
      <trkpt lat="59.9453866" lon="17.7393642">
        <ele>17.4412</ele>
        <time>2014-06-06T12:57:20Z</time>
      </trkpt>
      <trkpt lat="59.9453275" lon="17.7393531">
        <ele>15.5184</ele>
        <time>2014-06-06T12:57:21Z</time>
      </trkpt>
      <trkpt lat="59.9452585" lon="17.7393585">
        <ele>15.0377</ele>
        <time>2014-06-06T12:57:22Z</time>
      </trkpt>
      <trkpt lat="59.9451866" lon="17.7393562">
        <ele>15.0377</ele>
        <time>2014-06-06T12:57:23Z</time>
      </trkpt>
      <trkpt lat="59.9451138" lon="17.7393455">
        <ele>15.0377</ele>
        <time>2014-06-06T12:57:24Z</time>
      </trkpt>
      <trkpt lat="59.9450459" lon="17.7393185">
        <ele>14.0764</ele>
        <time>2014-06-06T12:57:25Z</time>
      </trkpt>
      <trkpt lat="59.9449736" lon="17.7393009">
        <ele>14.557</ele>
        <time>2014-06-06T12:57:26Z</time>
      </trkpt>
      <trkpt lat="59.944899" lon="17.7392906">
        <ele>15.999</ele>
        <time>2014-06-06T12:57:27Z</time>
      </trkpt>
      <trkpt lat="59.9448251" lon="17.739293">
        <ele>17.4412</ele>
        <time>2014-06-06T12:57:28Z</time>
      </trkpt>
      <trkpt lat="59.9447589" lon="17.7393208">
        <ele>17.9218</ele>
        <time>2014-06-06T12:57:29Z</time>
      </trkpt>
      <trkpt lat="59.9447021" lon="17.739359">
        <ele>17.4412</ele>
        <time>2014-06-06T12:57:30Z</time>
      </trkpt>
      <trkpt lat="59.944637" lon="17.7394185">
        <ele>18.4023</ele>
        <time>2014-06-06T12:57:31Z</time>
      </trkpt>
      <trkpt lat="59.9445801" lon="17.7394715">
        <ele>18.4023</ele>
        <time>2014-06-06T12:57:32Z</time>
      </trkpt>
      <trkpt lat="59.9445309" lon="17.7395393">
        <ele>18.4023</ele>
        <time>2014-06-06T12:57:33Z</time>
      </trkpt>
      <trkpt lat="59.944488" lon="17.7396031">
        <ele>17.9218</ele>
        <time>2014-06-06T12:57:34Z</time>
      </trkpt>
      <trkpt lat="59.9444416" lon="17.7396642">
        <ele>17.4412</ele>
        <time>2014-06-06T12:57:35Z</time>
      </trkpt>
      <trkpt lat="59.9443865" lon="17.7397107">
        <ele>16.9604</ele>
        <time>2014-06-06T12:57:36Z</time>
      </trkpt>
      <trkpt lat="59.9443259" lon="17.7397567">
        <ele>15.999</ele>
        <time>2014-06-06T12:57:37Z</time>
      </trkpt>
      <trkpt lat="59.9442645" lon="17.7398089">
        <ele>15.5184</ele>
        <time>2014-06-06T12:57:38Z</time>
      </trkpt>
      <trkpt lat="59.9442009" lon="17.739854">
        <ele>15.0377</ele>
        <time>2014-06-06T12:57:39Z</time>
      </trkpt>
      <trkpt lat="59.9441319" lon="17.7398832">
        <ele>15.5184</ele>
        <time>2014-06-06T12:57:40Z</time>
      </trkpt>
      <trkpt lat="59.9440589" lon="17.7399286">
        <ele>17.4412</ele>
        <time>2014-06-06T12:57:41Z</time>
      </trkpt>
      <trkpt lat="59.9439774" lon="17.739945">
        <ele>19.3638</ele>
        <time>2014-06-06T12:57:42Z</time>
      </trkpt>
      <trkpt lat="59.9438963" lon="17.7399479">
        <ele>21.2864</ele>
        <time>2014-06-06T12:57:43Z</time>
      </trkpt>
      <trkpt lat="59.9438249" lon="17.7399753">
        <ele>22.2476</ele>
        <time>2014-06-06T12:57:44Z</time>
      </trkpt>
      <trkpt lat="59.9437617" lon="17.7399693">
        <ele>22.2476</ele>
        <time>2014-06-06T12:57:45Z</time>
      </trkpt>
      <trkpt lat="59.9436998" lon="17.739989">
        <ele>23.6896</ele>
        <time>2014-06-06T12:57:46Z</time>
      </trkpt>
      <trkpt lat="59.9436496" lon="17.7399972">
        <ele>22.7283</ele>
        <time>2014-06-06T12:57:47Z</time>
      </trkpt>
      <trkpt lat="59.9435917" lon="17.7400049">
        <ele>23.6896</ele>
        <time>2014-06-06T12:57:48Z</time>
      </trkpt>
      <trkpt lat="59.9435306" lon="17.7400049">
        <ele>23.209</ele>
        <time>2014-06-06T12:57:49Z</time>
      </trkpt>
      <trkpt lat="59.943455" lon="17.7400074">
        <ele>23.6896</ele>
        <time>2014-06-06T12:57:50Z</time>
      </trkpt>
      <trkpt lat="59.9433752" lon="17.7400096">
        <ele>24.651</ele>
        <time>2014-06-06T12:57:51Z</time>
      </trkpt>
      <trkpt lat="59.9432944" lon="17.7400043">
        <ele>25.6123</ele>
        <time>2014-06-06T12:57:52Z</time>
      </trkpt>
      <trkpt lat="59.9431816" lon="17.7399838">
        <ele>26.5736</ele>
        <time>2014-06-06T12:57:53Z</time>
      </trkpt>
      <trkpt lat="59.9430648" lon="17.7399821">
        <ele>28.4962</ele>
        <time>2014-06-06T12:57:54Z</time>
      </trkpt>
      <trkpt lat="59.9429706" lon="17.7399661">
        <ele>29.4575</ele>
        <time>2014-06-06T12:57:55Z</time>
      </trkpt>
      <trkpt lat="59.9428848" lon="17.7399495">
        <ele>30.4188</ele>
        <time>2014-06-06T12:57:56Z</time>
      </trkpt>
      <trkpt lat="59.9428039" lon="17.7399449">
        <ele>31.3801</ele>
        <time>2014-06-06T12:57:57Z</time>
      </trkpt>
      <trkpt lat="59.9427303" lon="17.7399534">
        <ele>31.8607</ele>
        <time>2014-06-06T12:57:58Z</time>
      </trkpt>
      <trkpt lat="59.9426588" lon="17.7399718">
        <ele>32.3416</ele>
        <time>2014-06-06T12:57:59Z</time>
      </trkpt>
      <trkpt lat="59.9425897" lon="17.7400003">
        <ele>32.3416</ele>
        <time>2014-06-06T12:58:00Z</time>
      </trkpt>
      <trkpt lat="59.9425224" lon="17.7400348">
        <ele>32.8223</ele>
        <time>2014-06-06T12:58:01Z</time>
      </trkpt>
      <trkpt lat="59.9424563" lon="17.7400645">
        <ele>32.8223</ele>
        <time>2014-06-06T12:58:02Z</time>
      </trkpt>
      <trkpt lat="59.9423949" lon="17.7400905">
        <ele>33.3029</ele>
        <time>2014-06-06T12:58:03Z</time>
      </trkpt>
      <trkpt lat="59.942335" lon="17.7401026">
        <ele>33.3029</ele>
        <time>2014-06-06T12:58:04Z</time>
      </trkpt>
      <trkpt lat="59.9422728" lon="17.7401106">
        <ele>34.2642</ele>
        <time>2014-06-06T12:58:05Z</time>
      </trkpt>
      <trkpt lat="59.9422128" lon="17.7401193">
        <ele>34.2642</ele>
        <time>2014-06-06T12:58:06Z</time>
      </trkpt>
      <trkpt lat="59.9421525" lon="17.7401199">
        <ele>34.7449</ele>
        <time>2014-06-06T12:58:07Z</time>
      </trkpt>
      <trkpt lat="59.9420957" lon="17.7401116">
        <ele>34.7449</ele>
        <time>2014-06-06T12:58:08Z</time>
      </trkpt>
      <trkpt lat="59.9420385" lon="17.7400998">
        <ele>35.2255</ele>
        <time>2014-06-06T12:58:09Z</time>
      </trkpt>
      <trkpt lat="59.9419777" lon="17.7400717">
        <ele>35.7061</ele>
        <time>2014-06-06T12:58:10Z</time>
      </trkpt>
      <trkpt lat="59.9419201" lon="17.7400379">
        <ele>35.7061</ele>
        <time>2014-06-06T12:58:11Z</time>
      </trkpt>
      <trkpt lat="59.9418631" lon="17.7400016">
        <ele>35.7061</ele>
        <time>2014-06-06T12:58:12Z</time>
      </trkpt>
      <trkpt lat="59.9418077" lon="17.7399811">
        <ele>35.7061</ele>
        <time>2014-06-06T12:58:13Z</time>
      </trkpt>
      <trkpt lat="59.9417522" lon="17.7399547">
        <ele>35.7061</ele>
        <time>2014-06-06T12:58:14Z</time>
      </trkpt>
      <trkpt lat="59.9416948" lon="17.7399275">
        <ele>35.7061</ele>
        <time>2014-06-06T12:58:15Z</time>
      </trkpt>
      <trkpt lat="59.9416348" lon="17.7399237">
        <ele>37.1481</ele>
        <time>2014-06-06T12:58:16Z</time>
      </trkpt>
      <trkpt lat="59.941574" lon="17.7399247">
        <ele>38.5901</ele>
        <time>2014-06-06T12:58:17Z</time>
      </trkpt>
      <trkpt lat="59.9415202" lon="17.7399262">
        <ele>39.0707</ele>
        <time>2014-06-06T12:58:18Z</time>
      </trkpt>
      <trkpt lat="59.9414653" lon="17.7399272">
        <ele>41.474</ele>
        <time>2014-06-06T12:58:19Z</time>
      </trkpt>
      <trkpt lat="59.9414099" lon="17.7399348">
        <ele>42.916</ele>
        <time>2014-06-06T12:58:20Z</time>
      </trkpt>
      <trkpt lat="59.9413553" lon="17.7399581">
        <ele>43.3966</ele>
        <time>2014-06-06T12:58:21Z</time>
      </trkpt>
      <trkpt lat="59.9413009" lon="17.7399634">
        <ele>43.8773</ele>
        <time>2014-06-06T12:58:22Z</time>
      </trkpt>
      <trkpt lat="59.9412465" lon="17.739968">
        <ele>44.8386</ele>
        <time>2014-06-06T12:58:23Z</time>
      </trkpt>
      <trkpt lat="59.9411841" lon="17.7399626">
        <ele>44.8386</ele>
        <time>2014-06-06T12:58:24Z</time>
      </trkpt>
      <trkpt lat="59.9411181" lon="17.739963">
        <ele>45.3192</ele>
        <time>2014-06-06T12:58:25Z</time>
      </trkpt>
      <trkpt lat="59.9410436" lon="17.7399335">
        <ele>46.2806</ele>
        <time>2014-06-06T12:58:26Z</time>
      </trkpt>
      <trkpt lat="59.9409743" lon="17.7398807">
        <ele>46.7612</ele>
        <time>2014-06-06T12:58:27Z</time>
      </trkpt>
      <trkpt lat="59.9409213" lon="17.73986">
        <ele>46.2806</ele>
        <time>2014-06-06T12:58:28Z</time>
      </trkpt>
      <trkpt lat="59.940873" lon="17.7398506">
        <ele>45.7999</ele>
        <time>2014-06-06T12:58:29Z</time>
      </trkpt>
      <trkpt lat="59.9408223" lon="17.7398569">
        <ele>45.3192</ele>
        <time>2014-06-06T12:58:30Z</time>
      </trkpt>
      <trkpt lat="59.9407612" lon="17.7398331">
        <ele>46.7612</ele>
        <time>2014-06-06T12:58:31Z</time>
      </trkpt>
      <trkpt lat="59.9407013" lon="17.7398144">
        <ele>48.2034</ele>
        <time>2014-06-06T12:58:32Z</time>
      </trkpt>
      <trkpt lat="59.9406432" lon="17.7398117">
        <ele>49.6453</ele>
        <time>2014-06-06T12:58:33Z</time>
      </trkpt>
      <trkpt lat="59.9405884" lon="17.7398313">
        <ele>51.0872</ele>
        <time>2014-06-06T12:58:34Z</time>
      </trkpt>
      <trkpt lat="59.9405426" lon="17.7398837">
        <ele>51.5679</ele>
        <time>2014-06-06T12:58:35Z</time>
      </trkpt>
      <trkpt lat="59.9405009" lon="17.7399454">
        <ele>51.5679</ele>
        <time>2014-06-06T12:58:36Z</time>
      </trkpt>
      <trkpt lat="59.9404639" lon="17.7400127">
        <ele>51.0872</ele>
        <time>2014-06-06T12:58:37Z</time>
      </trkpt>
      <trkpt lat="59.9404355" lon="17.7400783">
        <ele>50.6066</ele>
        <time>2014-06-06T12:58:38Z</time>
      </trkpt>
      <trkpt lat="59.9404142" lon="17.7401401">
        <ele>50.126</ele>
        <time>2014-06-06T12:58:39Z</time>
      </trkpt>
      <trkpt lat="59.9403832" lon="17.7402016">
        <ele>49.1646</ele>
        <time>2014-06-06T12:58:40Z</time>
      </trkpt>
      <trkpt lat="59.9403402" lon="17.7402671">
        <ele>48.684</ele>
        <time>2014-06-06T12:58:41Z</time>
      </trkpt>
      <trkpt lat="59.9402944" lon="17.7403226">
        <ele>48.684</ele>
        <time>2014-06-06T12:58:42Z</time>
      </trkpt>
      <trkpt lat="59.9402452" lon="17.7403675">
        <ele>48.684</ele>
        <time>2014-06-06T12:58:43Z</time>
      </trkpt>
      <trkpt lat="59.9401952" lon="17.74041">
        <ele>49.1646</ele>
        <time>2014-06-06T12:58:44Z</time>
      </trkpt>
      <trkpt lat="59.9401449" lon="17.7404477">
        <ele>49.6453</ele>
        <time>2014-06-06T12:58:45Z</time>
      </trkpt>
      <trkpt lat="59.9400997" lon="17.7404828">
        <ele>49.1646</ele>
        <time>2014-06-06T12:58:46Z</time>
      </trkpt>
      <trkpt lat="59.9400504" lon="17.7405191">
        <ele>49.1646</ele>
        <time>2014-06-06T12:58:47Z</time>
      </trkpt>
      <trkpt lat="59.9399952" lon="17.7405446">
        <ele>49.6453</ele>
        <time>2014-06-06T12:58:48Z</time>
      </trkpt>
      <trkpt lat="59.9399408" lon="17.7405684">
        <ele>49.6453</ele>
        <time>2014-06-06T12:58:49Z</time>
      </trkpt>
      <trkpt lat="59.93989" lon="17.7405921">
        <ele>49.1646</ele>
        <time>2014-06-06T12:58:50Z</time>
      </trkpt>
      <trkpt lat="59.9398388" lon="17.7406168">
        <ele>49.1646</ele>
        <time>2014-06-06T12:58:51Z</time>
      </trkpt>
      <trkpt lat="59.9397876" lon="17.7406419">
        <ele>48.684</ele>
        <time>2014-06-06T12:58:52Z</time>
      </trkpt>
      <trkpt lat="59.9397346" lon="17.7406628">
        <ele>48.2034</ele>
        <time>2014-06-06T12:58:53Z</time>
      </trkpt>
      <trkpt lat="59.9396811" lon="17.7406799">
        <ele>48.2034</ele>
        <time>2014-06-06T12:58:54Z</time>
      </trkpt>
      <trkpt lat="59.9396274" lon="17.7406945">
        <ele>47.7225</ele>
        <time>2014-06-06T12:58:55Z</time>
      </trkpt>
      <trkpt lat="59.939574" lon="17.7407061">
        <ele>47.7225</ele>
        <time>2014-06-06T12:58:56Z</time>
      </trkpt>
      <trkpt lat="59.9395207" lon="17.7407129">
        <ele>47.2418</ele>
        <time>2014-06-06T12:58:57Z</time>
      </trkpt>
      <trkpt lat="59.9394678" lon="17.7407178">
        <ele>46.7612</ele>
        <time>2014-06-06T12:58:58Z</time>
      </trkpt>
      <trkpt lat="59.9394146" lon="17.7407194">
        <ele>46.2806</ele>
        <time>2014-06-06T12:58:59Z</time>
      </trkpt>
      <trkpt lat="59.9393617" lon="17.7407185">
        <ele>45.7999</ele>
        <time>2014-06-06T12:59:00Z</time>
      </trkpt>
      <trkpt lat="59.9393088" lon="17.7407193">
        <ele>45.3192</ele>
        <time>2014-06-06T12:59:01Z</time>
      </trkpt>
      <trkpt lat="59.9392558" lon="17.7407192">
        <ele>45.3192</ele>
        <time>2014-06-06T12:59:02Z</time>
      </trkpt>
      <trkpt lat="59.939203" lon="17.7407158">
        <ele>44.8386</ele>
        <time>2014-06-06T12:59:03Z</time>
      </trkpt>
      <trkpt lat="59.9391498" lon="17.7407129">
        <ele>44.358</ele>
        <time>2014-06-06T12:59:04Z</time>
      </trkpt>
      <trkpt lat="59.9390969" lon="17.7407113">
        <ele>44.358</ele>
        <time>2014-06-06T12:59:05Z</time>
      </trkpt>
      <trkpt lat="59.9390444" lon="17.7407094">
        <ele>43.8773</ele>
        <time>2014-06-06T12:59:06Z</time>
      </trkpt>
      <trkpt lat="59.9389911" lon="17.7407085">
        <ele>43.8773</ele>
        <time>2014-06-06T12:59:07Z</time>
      </trkpt>
      <trkpt lat="59.9389377" lon="17.740711">
        <ele>43.3966</ele>
        <time>2014-06-06T12:59:08Z</time>
      </trkpt>
      <trkpt lat="59.9388841" lon="17.7407137">
        <ele>43.3966</ele>
        <time>2014-06-06T12:59:09Z</time>
      </trkpt>
      <trkpt lat="59.9388307" lon="17.7407149">
        <ele>42.916</ele>
        <time>2014-06-06T12:59:10Z</time>
      </trkpt>
      <trkpt lat="59.9387777" lon="17.7407155">
        <ele>42.916</ele>
        <time>2014-06-06T12:59:11Z</time>
      </trkpt>
      <trkpt lat="59.938725" lon="17.7407181">
        <ele>42.916</ele>
        <time>2014-06-06T12:59:12Z</time>
      </trkpt>
      <trkpt lat="59.9386718" lon="17.7407234">
        <ele>42.4354</ele>
        <time>2014-06-06T12:59:13Z</time>
      </trkpt>
      <trkpt lat="59.9386183" lon="17.740728">
        <ele>42.4354</ele>
        <time>2014-06-06T12:59:14Z</time>
      </trkpt>
      <trkpt lat="59.9385656" lon="17.7407307">
        <ele>41.9547</ele>
        <time>2014-06-06T12:59:15Z</time>
      </trkpt>
      <trkpt lat="59.9385132" lon="17.7407308">
        <ele>41.9547</ele>
        <time>2014-06-06T12:59:16Z</time>
      </trkpt>
      <trkpt lat="59.9384609" lon="17.7407294">
        <ele>41.474</ele>
        <time>2014-06-06T12:59:17Z</time>
      </trkpt>
      <trkpt lat="59.938408" lon="17.740727">
        <ele>41.474</ele>
        <time>2014-06-06T12:59:18Z</time>
      </trkpt>
      <trkpt lat="59.9383551" lon="17.7407233">
        <ele>41.474</ele>
        <time>2014-06-06T12:59:19Z</time>
      </trkpt>
      <trkpt lat="59.9383026" lon="17.7407206">
        <ele>40.9934</ele>
        <time>2014-06-06T12:59:20Z</time>
      </trkpt>
      <trkpt lat="59.9382501" lon="17.7407176">
        <ele>40.9934</ele>
        <time>2014-06-06T12:59:21Z</time>
      </trkpt>
      <trkpt lat="59.9381976" lon="17.7407151">
        <ele>40.5128</ele>
        <time>2014-06-06T12:59:22Z</time>
      </trkpt>
      <trkpt lat="59.9381438" lon="17.7407124">
        <ele>40.5128</ele>
        <time>2014-06-06T12:59:23Z</time>
      </trkpt>
      <trkpt lat="59.9380894" lon="17.7407068">
        <ele>40.5128</ele>
        <time>2014-06-06T12:59:24Z</time>
      </trkpt>
      <trkpt lat="59.9380356" lon="17.740698">
        <ele>40.5128</ele>
        <time>2014-06-06T12:59:25Z</time>
      </trkpt>
      <trkpt lat="59.9379832" lon="17.7406897">
        <ele>40.5128</ele>
        <time>2014-06-06T12:59:26Z</time>
      </trkpt>
      <trkpt lat="59.9379326" lon="17.7406783">
        <ele>40.5128</ele>
        <time>2014-06-06T12:59:27Z</time>
      </trkpt>
      <trkpt lat="59.9378853" lon="17.7406613">
        <ele>40.9934</ele>
        <time>2014-06-06T12:59:28Z</time>
      </trkpt>
      <trkpt lat="59.9378402" lon="17.7406395">
        <ele>40.9934</ele>
        <time>2014-06-06T12:59:29Z</time>
      </trkpt>
      <trkpt lat="59.9377952" lon="17.7406165">
        <ele>40.9934</ele>
        <time>2014-06-06T12:59:30Z</time>
      </trkpt>
      <trkpt lat="59.9377496" lon="17.7405939">
        <ele>40.9934</ele>
        <time>2014-06-06T12:59:31Z</time>
      </trkpt>
      <trkpt lat="59.9377038" lon="17.7405736">
        <ele>40.9934</ele>
        <time>2014-06-06T12:59:32Z</time>
      </trkpt>
      <trkpt lat="59.9376575" lon="17.7405529">
        <ele>41.474</ele>
        <time>2014-06-06T12:59:33Z</time>
      </trkpt>
      <trkpt lat="59.9376118" lon="17.7405297">
        <ele>41.474</ele>
        <time>2014-06-06T12:59:34Z</time>
      </trkpt>
      <trkpt lat="59.9375662" lon="17.740506">
        <ele>41.474</ele>
        <time>2014-06-06T12:59:35Z</time>
      </trkpt>
      <trkpt lat="59.93752" lon="17.7404836">
        <ele>41.474</ele>
        <time>2014-06-06T12:59:36Z</time>
      </trkpt>
      <trkpt lat="59.9374746" lon="17.7404621">
        <ele>41.474</ele>
        <time>2014-06-06T12:59:37Z</time>
      </trkpt>
      <trkpt lat="59.937429" lon="17.74044">
        <ele>41.474</ele>
        <time>2014-06-06T12:59:38Z</time>
      </trkpt>
      <trkpt lat="59.9373849" lon="17.7404171">
        <ele>41.474</ele>
        <time>2014-06-06T12:59:39Z</time>
      </trkpt>
      <trkpt lat="59.9373402" lon="17.7403941">
        <ele>40.9934</ele>
        <time>2014-06-06T12:59:40Z</time>
      </trkpt>
      <trkpt lat="59.9372946" lon="17.7403716">
        <ele>40.9934</ele>
        <time>2014-06-06T12:59:41Z</time>
      </trkpt>
      <trkpt lat="59.9372492" lon="17.7403488">
        <ele>40.9934</ele>
        <time>2014-06-06T12:59:42Z</time>
      </trkpt>
      <trkpt lat="59.9372045" lon="17.7403256">
        <ele>40.9934</ele>
        <time>2014-06-06T12:59:43Z</time>
      </trkpt>
      <trkpt lat="59.9371596" lon="17.7403021">
        <ele>40.9934</ele>
        <time>2014-06-06T12:59:44Z</time>
      </trkpt>
      <trkpt lat="59.9371148" lon="17.7402783">
        <ele>40.5128</ele>
        <time>2014-06-06T12:59:45Z</time>
      </trkpt>
      <trkpt lat="59.9370704" lon="17.7402541">
        <ele>40.5128</ele>
        <time>2014-06-06T12:59:46Z</time>
      </trkpt>
      <trkpt lat="59.9370266" lon="17.7402306">
        <ele>40.5128</ele>
        <time>2014-06-06T12:59:47Z</time>
      </trkpt>
      <trkpt lat="59.9369833" lon="17.740208">
        <ele>40.5128</ele>
        <time>2014-06-06T12:59:48Z</time>
      </trkpt>
      <trkpt lat="59.9369403" lon="17.7401851">
        <ele>40.5128</ele>
        <time>2014-06-06T12:59:49Z</time>
      </trkpt>
      <trkpt lat="59.9368971" lon="17.7401618">
        <ele>40.5128</ele>
        <time>2014-06-06T12:59:50Z</time>
      </trkpt>
      <trkpt lat="59.936854" lon="17.7401381">
        <ele>40.0321</ele>
        <time>2014-06-06T12:59:51Z</time>
      </trkpt>
      <trkpt lat="59.936811" lon="17.7401141">
        <ele>40.0321</ele>
        <time>2014-06-06T12:59:52Z</time>
      </trkpt>
      <trkpt lat="59.936768" lon="17.740091">
        <ele>40.0321</ele>
        <time>2014-06-06T12:59:53Z</time>
      </trkpt>
      <trkpt lat="59.9367255" lon="17.7400681">
        <ele>40.0321</ele>
        <time>2014-06-06T12:59:54Z</time>
      </trkpt>
      <trkpt lat="59.9366825" lon="17.7400457">
        <ele>40.0321</ele>
        <time>2014-06-06T12:59:55Z</time>
      </trkpt>
      <trkpt lat="59.936639" lon="17.7400226">
        <ele>40.0321</ele>
        <time>2014-06-06T12:59:56Z</time>
      </trkpt>
      <trkpt lat="59.936595" lon="17.7399987">
        <ele>40.0321</ele>
        <time>2014-06-06T12:59:57Z</time>
      </trkpt>
      <trkpt lat="59.9365498" lon="17.7399752">
        <ele>40.0321</ele>
        <time>2014-06-06T12:59:58Z</time>
      </trkpt>
      <trkpt lat="59.9365047" lon="17.7399514">
        <ele>40.0321</ele>
        <time>2014-06-06T12:59:59Z</time>
      </trkpt>
      <trkpt lat="59.9364594" lon="17.7399262">
        <ele>40.0321</ele>
        <time>2014-06-06T13:00:00Z</time>
      </trkpt>
      <trkpt lat="59.9364137" lon="17.7399014">
        <ele>40.0321</ele>
        <time>2014-06-06T13:00:01Z</time>
      </trkpt>
      <trkpt lat="59.9363675" lon="17.7398773">
        <ele>39.5513</ele>
        <time>2014-06-06T13:00:02Z</time>
      </trkpt>
      <trkpt lat="59.9363208" lon="17.739853">
        <ele>39.5513</ele>
        <time>2014-06-06T13:00:03Z</time>
      </trkpt>
      <trkpt lat="59.9362738" lon="17.7398283">
        <ele>39.5513</ele>
        <time>2014-06-06T13:00:04Z</time>
      </trkpt>
      <trkpt lat="59.936227" lon="17.7398046">
        <ele>39.5513</ele>
        <time>2014-06-06T13:00:05Z</time>
      </trkpt>
      <trkpt lat="59.9361801" lon="17.7397835">
        <ele>39.5513</ele>
        <time>2014-06-06T13:00:06Z</time>
      </trkpt>
      <trkpt lat="59.9361334" lon="17.7397628">
        <ele>39.5513</ele>
        <time>2014-06-06T13:00:07Z</time>
      </trkpt>
      <trkpt lat="59.9360863" lon="17.7397407">
        <ele>39.5513</ele>
        <time>2014-06-06T13:00:08Z</time>
      </trkpt>
      <trkpt lat="59.9360389" lon="17.73972">
        <ele>39.5513</ele>
        <time>2014-06-06T13:00:09Z</time>
      </trkpt>
      <trkpt lat="59.9359919" lon="17.7396997">
        <ele>39.0707</ele>
        <time>2014-06-06T13:00:10Z</time>
      </trkpt>
      <trkpt lat="59.9359447" lon="17.7396796">
        <ele>39.5513</ele>
        <time>2014-06-06T13:00:11Z</time>
      </trkpt>
      <trkpt lat="59.9358977" lon="17.7396584">
        <ele>39.5513</ele>
        <time>2014-06-06T13:00:12Z</time>
      </trkpt>
      <trkpt lat="59.9358502" lon="17.7396359">
        <ele>39.5513</ele>
        <time>2014-06-06T13:00:13Z</time>
      </trkpt>
      <trkpt lat="59.9358029" lon="17.7396129">
        <ele>39.5513</ele>
        <time>2014-06-06T13:00:14Z</time>
      </trkpt>
      <trkpt lat="59.9357567" lon="17.7395886">
        <ele>39.5513</ele>
        <time>2014-06-06T13:00:15Z</time>
      </trkpt>
      <trkpt lat="59.9357116" lon="17.7395629">
        <ele>39.5513</ele>
        <time>2014-06-06T13:00:16Z</time>
      </trkpt>
      <trkpt lat="59.9356667" lon="17.7395362">
        <ele>39.5513</ele>
        <time>2014-06-06T13:00:17Z</time>
      </trkpt>
      <trkpt lat="59.9356227" lon="17.7395091">
        <ele>39.5513</ele>
        <time>2014-06-06T13:00:18Z</time>
      </trkpt>
      <trkpt lat="59.9355782" lon="17.7394777">
        <ele>39.5513</ele>
        <time>2014-06-06T13:00:19Z</time>
      </trkpt>
      <trkpt lat="59.9355336" lon="17.7394411">
        <ele>39.5513</ele>
        <time>2014-06-06T13:00:20Z</time>
      </trkpt>
      <trkpt lat="59.9354879" lon="17.7394">
        <ele>39.5513</ele>
        <time>2014-06-06T13:00:21Z</time>
      </trkpt>
      <trkpt lat="59.9354414" lon="17.7393557">
        <ele>39.0707</ele>
        <time>2014-06-06T13:00:22Z</time>
      </trkpt>
      <trkpt lat="59.9353949" lon="17.7393091">
        <ele>39.0707</ele>
        <time>2014-06-06T13:00:23Z</time>
      </trkpt>
      <trkpt lat="59.9353492" lon="17.7392635">
        <ele>39.0707</ele>
        <time>2014-06-06T13:00:24Z</time>
      </trkpt>
      <trkpt lat="59.9353031" lon="17.7392212">
        <ele>39.0707</ele>
        <time>2014-06-06T13:00:25Z</time>
      </trkpt>
      <trkpt lat="59.9352568" lon="17.7391823">
        <ele>39.0707</ele>
        <time>2014-06-06T13:00:26Z</time>
      </trkpt>
      <trkpt lat="59.9352102" lon="17.7391475">
        <ele>39.0707</ele>
        <time>2014-06-06T13:00:27Z</time>
      </trkpt>
      <trkpt lat="59.9351632" lon="17.739117">
        <ele>39.0707</ele>
        <time>2014-06-06T13:00:28Z</time>
      </trkpt>
      <trkpt lat="59.9351156" lon="17.7390901">
        <ele>39.0707</ele>
        <time>2014-06-06T13:00:29Z</time>
      </trkpt>
      <trkpt lat="59.9350679" lon="17.7390677">
        <ele>39.0707</ele>
        <time>2014-06-06T13:00:30Z</time>
      </trkpt>
      <trkpt lat="59.9350214" lon="17.7390503">
        <ele>39.0707</ele>
        <time>2014-06-06T13:00:31Z</time>
      </trkpt>
      <trkpt lat="59.9349767" lon="17.7390378">
        <ele>39.0707</ele>
        <time>2014-06-06T13:00:32Z</time>
      </trkpt>
      <trkpt lat="59.9349318" lon="17.7390291">
        <ele>39.0707</ele>
        <time>2014-06-06T13:00:33Z</time>
      </trkpt>
      <trkpt lat="59.9348876" lon="17.7390202">
        <ele>39.0707</ele>
        <time>2014-06-06T13:00:34Z</time>
      </trkpt>
      <trkpt lat="59.9348427" lon="17.7390114">
        <ele>39.0707</ele>
        <time>2014-06-06T13:00:35Z</time>
      </trkpt>
      <trkpt lat="59.934797" lon="17.7390024">
        <ele>39.0707</ele>
        <time>2014-06-06T13:00:36Z</time>
      </trkpt>
      <trkpt lat="59.9347514" lon="17.7389902">
        <ele>39.0707</ele>
        <time>2014-06-06T13:00:37Z</time>
      </trkpt>
      <trkpt lat="59.9347054" lon="17.7389744">
        <ele>39.0707</ele>
        <time>2014-06-06T13:00:38Z</time>
      </trkpt>
      <trkpt lat="59.9346595" lon="17.7389549">
        <ele>39.0707</ele>
        <time>2014-06-06T13:00:39Z</time>
      </trkpt>
      <trkpt lat="59.9346137" lon="17.7389327">
        <ele>39.0707</ele>
        <time>2014-06-06T13:00:40Z</time>
      </trkpt>
      <trkpt lat="59.9345681" lon="17.7389092">
        <ele>39.0707</ele>
        <time>2014-06-06T13:00:41Z</time>
      </trkpt>
      <trkpt lat="59.9345225" lon="17.7388855">
        <ele>39.0707</ele>
        <time>2014-06-06T13:00:42Z</time>
      </trkpt>
      <trkpt lat="59.9344772" lon="17.7388608">
        <ele>39.0707</ele>
        <time>2014-06-06T13:00:43Z</time>
      </trkpt>
      <trkpt lat="59.9344318" lon="17.7388363">
        <ele>39.0707</ele>
        <time>2014-06-06T13:00:44Z</time>
      </trkpt>
      <trkpt lat="59.9343866" lon="17.738812">
        <ele>39.0707</ele>
        <time>2014-06-06T13:00:45Z</time>
      </trkpt>
      <trkpt lat="59.9343417" lon="17.7387874">
        <ele>39.0707</ele>
        <time>2014-06-06T13:00:46Z</time>
      </trkpt>
      <trkpt lat="59.9342979" lon="17.7387627">
        <ele>39.5513</ele>
        <time>2014-06-06T13:00:47Z</time>
      </trkpt>
      <trkpt lat="59.9342552" lon="17.7387379">
        <ele>39.5513</ele>
        <time>2014-06-06T13:00:48Z</time>
      </trkpt>
      <trkpt lat="59.934213" lon="17.7387125">
        <ele>39.5513</ele>
        <time>2014-06-06T13:00:49Z</time>
      </trkpt>
      <trkpt lat="59.9341715" lon="17.7386874">
        <ele>39.5513</ele>
        <time>2014-06-06T13:00:50Z</time>
      </trkpt>
      <trkpt lat="59.9341316" lon="17.7386632">
        <ele>39.5513</ele>
        <time>2014-06-06T13:00:51Z</time>
      </trkpt>
      <trkpt lat="59.9340915" lon="17.7386382">
        <ele>39.5513</ele>
        <time>2014-06-06T13:00:52Z</time>
      </trkpt>
      <trkpt lat="59.9340516" lon="17.7386125">
        <ele>39.5513</ele>
        <time>2014-06-06T13:00:53Z</time>
      </trkpt>
      <trkpt lat="59.9340123" lon="17.7385869">
        <ele>39.5513</ele>
        <time>2014-06-06T13:00:54Z</time>
      </trkpt>
      <trkpt lat="59.9339739" lon="17.7385611">
        <ele>39.5513</ele>
        <time>2014-06-06T13:00:55Z</time>
      </trkpt>
      <trkpt lat="59.9339371" lon="17.738536">
        <ele>39.0707</ele>
        <time>2014-06-06T13:00:56Z</time>
      </trkpt>
      <trkpt lat="59.9339018" lon="17.7385125">
        <ele>39.0707</ele>
        <time>2014-06-06T13:00:57Z</time>
      </trkpt>
      <trkpt lat="59.9338657" lon="17.7384898">
        <ele>39.0707</ele>
        <time>2014-06-06T13:00:58Z</time>
      </trkpt>
      <trkpt lat="59.9338279" lon="17.7384794">
        <ele>39.0707</ele>
        <time>2014-06-06T13:00:59Z</time>
      </trkpt>
      <trkpt lat="59.9337898" lon="17.7384911">
        <ele>39.0707</ele>
        <time>2014-06-06T13:01:00Z</time>
      </trkpt>
      <trkpt lat="59.9337558" lon="17.7385248">
        <ele>39.0707</ele>
        <time>2014-06-06T13:01:01Z</time>
      </trkpt>
      <trkpt lat="59.9337268" lon="17.7385716">
        <ele>39.0707</ele>
        <time>2014-06-06T13:01:02Z</time>
      </trkpt>
      <trkpt lat="59.9337002" lon="17.7386194">
        <ele>39.0707</ele>
        <time>2014-06-06T13:01:03Z</time>
      </trkpt>
      <trkpt lat="59.9336765" lon="17.7386642">
        <ele>39.0707</ele>
        <time>2014-06-06T13:01:04Z</time>
      </trkpt>
      <trkpt lat="59.9336549" lon="17.738704">
        <ele>39.0707</ele>
        <time>2014-06-06T13:01:05Z</time>
      </trkpt>
      <trkpt lat="59.9336344" lon="17.7387431">
        <ele>39.0707</ele>
        <time>2014-06-06T13:01:06Z</time>
      </trkpt>
      <trkpt lat="59.9336133" lon="17.7387856">
        <ele>39.0707</ele>
        <time>2014-06-06T13:01:07Z</time>
      </trkpt>
      <trkpt lat="59.933591" lon="17.7388315">
        <ele>39.0707</ele>
        <time>2014-06-06T13:01:08Z</time>
      </trkpt>
      <trkpt lat="59.9335677" lon="17.7388776">
        <ele>39.0707</ele>
        <time>2014-06-06T13:01:09Z</time>
      </trkpt>
      <trkpt lat="59.9335433" lon="17.7389205">
        <ele>39.0707</ele>
        <time>2014-06-06T13:01:10Z</time>
      </trkpt>
      <trkpt lat="59.9335193" lon="17.738964">
        <ele>39.0707</ele>
        <time>2014-06-06T13:01:11Z</time>
      </trkpt>
      <trkpt lat="59.9334958" lon="17.7390123">
        <ele>39.0707</ele>
        <time>2014-06-06T13:01:12Z</time>
      </trkpt>
      <trkpt lat="59.9334714" lon="17.7390627">
        <ele>39.0707</ele>
        <time>2014-06-06T13:01:13Z</time>
      </trkpt>
      <trkpt lat="59.9334458" lon="17.739115">
        <ele>39.0707</ele>
        <time>2014-06-06T13:01:14Z</time>
      </trkpt>
      <trkpt lat="59.9334191" lon="17.7391681">
        <ele>39.0707</ele>
        <time>2014-06-06T13:01:15Z</time>
      </trkpt>
      <trkpt lat="59.9333919" lon="17.7392226">
        <ele>39.0707</ele>
        <time>2014-06-06T13:01:16Z</time>
      </trkpt>
      <trkpt lat="59.9333639" lon="17.7392786">
        <ele>39.0707</ele>
        <time>2014-06-06T13:01:17Z</time>
      </trkpt>
      <trkpt lat="59.9333357" lon="17.7393351">
        <ele>39.0707</ele>
        <time>2014-06-06T13:01:18Z</time>
      </trkpt>
      <trkpt lat="59.9333081" lon="17.7393921">
        <ele>39.0707</ele>
        <time>2014-06-06T13:01:19Z</time>
      </trkpt>
      <trkpt lat="59.9332803" lon="17.739447">
        <ele>39.0707</ele>
        <time>2014-06-06T13:01:20Z</time>
      </trkpt>
      <trkpt lat="59.9332533" lon="17.7394988">
        <ele>39.0707</ele>
        <time>2014-06-06T13:01:21Z</time>
      </trkpt>
      <trkpt lat="59.9332283" lon="17.7395486">
        <ele>39.0707</ele>
        <time>2014-06-06T13:01:22Z</time>
      </trkpt>
      <trkpt lat="59.9332037" lon="17.739595">
        <ele>39.0707</ele>
        <time>2014-06-06T13:01:23Z</time>
      </trkpt>
      <trkpt lat="59.93318" lon="17.73964">
        <ele>39.0707</ele>
        <time>2014-06-06T13:01:24Z</time>
      </trkpt>
      <trkpt lat="59.9331564" lon="17.7396851">
        <ele>39.0707</ele>
        <time>2014-06-06T13:01:25Z</time>
      </trkpt>
      <trkpt lat="59.9331325" lon="17.7397291">
        <ele>39.0707</ele>
        <time>2014-06-06T13:01:26Z</time>
      </trkpt>
      <trkpt lat="59.9331098" lon="17.7397742">
        <ele>39.0707</ele>
        <time>2014-06-06T13:01:27Z</time>
      </trkpt>
      <trkpt lat="59.9330875" lon="17.7398189">
        <ele>39.0707</ele>
        <time>2014-06-06T13:01:28Z</time>
      </trkpt>
      <trkpt lat="59.9330643" lon="17.7398634">
        <ele>39.0707</ele>
        <time>2014-06-06T13:01:29Z</time>
      </trkpt>
      <trkpt lat="59.9330412" lon="17.7399085">
        <ele>38.5901</ele>
        <time>2014-06-06T13:01:30Z</time>
      </trkpt>
      <trkpt lat="59.9330182" lon="17.7399535">
        <ele>38.5901</ele>
        <time>2014-06-06T13:01:31Z</time>
      </trkpt>
      <trkpt lat="59.9329958" lon="17.7399966">
        <ele>38.5901</ele>
        <time>2014-06-06T13:01:32Z</time>
      </trkpt>
      <trkpt lat="59.9329751" lon="17.7400358">
        <ele>38.5901</ele>
        <time>2014-06-06T13:01:33Z</time>
      </trkpt>
      <trkpt lat="59.9329569" lon="17.7400747">
        <ele>38.5901</ele>
        <time>2014-06-06T13:01:34Z</time>
      </trkpt>
      <trkpt lat="59.9329379" lon="17.7401148">
        <ele>38.5901</ele>
        <time>2014-06-06T13:01:35Z</time>
      </trkpt>
      <trkpt lat="59.9329181" lon="17.7401531">
        <ele>38.5901</ele>
        <time>2014-06-06T13:01:36Z</time>
      </trkpt>
      <trkpt lat="59.9328967" lon="17.7401931">
        <ele>38.5901</ele>
        <time>2014-06-06T13:01:37Z</time>
      </trkpt>
      <trkpt lat="59.9328741" lon="17.7402365">
        <ele>38.5901</ele>
        <time>2014-06-06T13:01:38Z</time>
      </trkpt>
      <trkpt lat="59.9328512" lon="17.7402821">
        <ele>38.5901</ele>
        <time>2014-06-06T13:01:39Z</time>
      </trkpt>
      <trkpt lat="59.9328274" lon="17.7403296">
        <ele>38.5901</ele>
        <time>2014-06-06T13:01:40Z</time>
      </trkpt>
      <trkpt lat="59.9328021" lon="17.7403777">
        <ele>38.5901</ele>
        <time>2014-06-06T13:01:41Z</time>
      </trkpt>
      <trkpt lat="59.9327767" lon="17.740427">
        <ele>38.5901</ele>
        <time>2014-06-06T13:01:42Z</time>
      </trkpt>
      <trkpt lat="59.9327514" lon="17.7404774">
        <ele>38.5901</ele>
        <time>2014-06-06T13:01:43Z</time>
      </trkpt>
      <trkpt lat="59.9327254" lon="17.7405296">
        <ele>38.5901</ele>
        <time>2014-06-06T13:01:44Z</time>
      </trkpt>
      <trkpt lat="59.9326984" lon="17.7405834">
        <ele>38.5901</ele>
        <time>2014-06-06T13:01:45Z</time>
      </trkpt>
      <trkpt lat="59.9326703" lon="17.7406388">
        <ele>38.5901</ele>
        <time>2014-06-06T13:01:46Z</time>
      </trkpt>
      <trkpt lat="59.9326413" lon="17.7406952">
        <ele>38.5901</ele>
        <time>2014-06-06T13:01:47Z</time>
      </trkpt>
      <trkpt lat="59.932612" lon="17.7407522">
        <ele>38.5901</ele>
        <time>2014-06-06T13:01:48Z</time>
      </trkpt>
      <trkpt lat="59.932583" lon="17.7408102">
        <ele>38.5901</ele>
        <time>2014-06-06T13:01:49Z</time>
      </trkpt>
      <trkpt lat="59.9325545" lon="17.7408683">
        <ele>38.5901</ele>
        <time>2014-06-06T13:01:50Z</time>
      </trkpt>
      <trkpt lat="59.9325259" lon="17.7409271">
        <ele>38.5901</ele>
        <time>2014-06-06T13:01:51Z</time>
      </trkpt>
      <trkpt lat="59.9324973" lon="17.7409864">
        <ele>38.5901</ele>
        <time>2014-06-06T13:01:52Z</time>
      </trkpt>
      <trkpt lat="59.9324702" lon="17.7410445">
        <ele>38.5901</ele>
        <time>2014-06-06T13:01:53Z</time>
      </trkpt>
      <trkpt lat="59.9324447" lon="17.7410979">
        <ele>38.5901</ele>
        <time>2014-06-06T13:01:54Z</time>
      </trkpt>
      <trkpt lat="59.9324203" lon="17.741144">
        <ele>38.5901</ele>
        <time>2014-06-06T13:01:55Z</time>
      </trkpt>
      <trkpt lat="59.9323961" lon="17.7411781">
        <ele>38.5901</ele>
        <time>2014-06-06T13:01:56Z</time>
      </trkpt>
      <trkpt lat="59.9323725" lon="17.7411998">
        <ele>38.5901</ele>
        <time>2014-06-06T13:01:57Z</time>
      </trkpt>
      <trkpt lat="59.9323504" lon="17.7412181">
        <ele>38.5901</ele>
        <time>2014-06-06T13:01:58Z</time>
      </trkpt>
      <trkpt lat="59.9323293" lon="17.7412393">
        <ele>38.5901</ele>
        <time>2014-06-06T13:01:59Z</time>
      </trkpt>
      <trkpt lat="59.9323098" lon="17.7412611">
        <ele>38.5901</ele>
        <time>2014-06-06T13:02:00Z</time>
      </trkpt>
      <trkpt lat="59.9322902" lon="17.7412818">
        <ele>38.5901</ele>
        <time>2014-06-06T13:02:01Z</time>
      </trkpt>
      <trkpt lat="59.9322711" lon="17.741306">
        <ele>38.5901</ele>
        <time>2014-06-06T13:02:02Z</time>
      </trkpt>
      <trkpt lat="59.9322497" lon="17.7413346">
        <ele>38.5901</ele>
        <time>2014-06-06T13:02:03Z</time>
      </trkpt>
      <trkpt lat="59.9322276" lon="17.7413668">
        <ele>38.1094</ele>
        <time>2014-06-06T13:02:04Z</time>
      </trkpt>
      <trkpt lat="59.9322112" lon="17.7413979">
        <ele>38.1094</ele>
        <time>2014-06-06T13:02:05Z</time>
      </trkpt>
      <trkpt lat="59.9321969" lon="17.7414295">
        <ele>38.1094</ele>
        <time>2014-06-06T13:02:06Z</time>
      </trkpt>
      <trkpt lat="59.9321788" lon="17.7414665">
        <ele>38.1094</ele>
        <time>2014-06-06T13:02:07Z</time>
      </trkpt>
      <trkpt lat="59.9321582" lon="17.7415109">
        <ele>38.1094</ele>
        <time>2014-06-06T13:02:08Z</time>
      </trkpt>
      <trkpt lat="59.9321371" lon="17.7415582">
        <ele>37.6287</ele>
        <time>2014-06-06T13:02:09Z</time>
      </trkpt>
      <trkpt lat="59.9321147" lon="17.7416098">
        <ele>37.6287</ele>
        <time>2014-06-06T13:02:10Z</time>
      </trkpt>
      <trkpt lat="59.9320923" lon="17.7416646">
        <ele>37.6287</ele>
        <time>2014-06-06T13:02:11Z</time>
      </trkpt>
      <trkpt lat="59.9320717" lon="17.741721">
        <ele>37.1481</ele>
        <time>2014-06-06T13:02:12Z</time>
      </trkpt>
      <trkpt lat="59.9320509" lon="17.741775">
        <ele>37.1481</ele>
        <time>2014-06-06T13:02:13Z</time>
      </trkpt>
      <trkpt lat="59.9320313" lon="17.7418226">
        <ele>36.1868</ele>
        <time>2014-06-06T13:02:14Z</time>
      </trkpt>
      <trkpt lat="59.9320117" lon="17.7418681">
        <ele>35.7061</ele>
        <time>2014-06-06T13:02:15Z</time>
      </trkpt>
      <trkpt lat="59.931994" lon="17.7419154">
        <ele>35.7061</ele>
        <time>2014-06-06T13:02:16Z</time>
      </trkpt>
      <trkpt lat="59.9319809" lon="17.7419516">
        <ele>34.7449</ele>
        <time>2014-06-06T13:02:17Z</time>
      </trkpt>
      <trkpt lat="59.9319629" lon="17.7419848">
        <ele>34.2642</ele>
        <time>2014-06-06T13:02:18Z</time>
      </trkpt>
      <trkpt lat="59.9319369" lon="17.7420117">
        <ele>34.2642</ele>
        <time>2014-06-06T13:02:19Z</time>
      </trkpt>
      <trkpt lat="59.9319033" lon="17.7420405">
        <ele>35.2255</ele>
        <time>2014-06-06T13:02:20Z</time>
      </trkpt>
      <trkpt lat="59.9318711" lon="17.74206">
        <ele>36.1868</ele>
        <time>2014-06-06T13:02:21Z</time>
      </trkpt>
      <trkpt lat="59.9318384" lon="17.7420748">
        <ele>36.6675</ele>
        <time>2014-06-06T13:02:22Z</time>
      </trkpt>
      <trkpt lat="59.9318111" lon="17.7420748">
        <ele>36.1868</ele>
        <time>2014-06-06T13:02:23Z</time>
      </trkpt>
      <trkpt lat="59.9317841" lon="17.7420641">
        <ele>36.1868</ele>
        <time>2014-06-06T13:02:24Z</time>
      </trkpt>
      <trkpt lat="59.9317568" lon="17.742051">
        <ele>36.1868</ele>
        <time>2014-06-06T13:02:25Z</time>
      </trkpt>
      <trkpt lat="59.9317309" lon="17.7420454">
        <ele>36.1868</ele>
        <time>2014-06-06T13:02:26Z</time>
      </trkpt>
      <trkpt lat="59.9317028" lon="17.7420427">
        <ele>36.1868</ele>
        <time>2014-06-06T13:02:27Z</time>
      </trkpt>
      <trkpt lat="59.9316728" lon="17.7420462">
        <ele>35.7061</ele>
        <time>2014-06-06T13:02:28Z</time>
      </trkpt>
      <trkpt lat="59.9316431" lon="17.7420506">
        <ele>35.7061</ele>
        <time>2014-06-06T13:02:29Z</time>
      </trkpt>
      <trkpt lat="59.9316159" lon="17.7420448">
        <ele>34.7449</ele>
        <time>2014-06-06T13:02:30Z</time>
      </trkpt>
      <trkpt lat="59.9315853" lon="17.7420384">
        <ele>34.7449</ele>
        <time>2014-06-06T13:02:31Z</time>
      </trkpt>
      <trkpt lat="59.9315536" lon="17.7420309">
        <ele>34.7449</ele>
        <time>2014-06-06T13:02:32Z</time>
      </trkpt>
      <trkpt lat="59.9315246" lon="17.742025">
        <ele>34.2642</ele>
        <time>2014-06-06T13:02:33Z</time>
      </trkpt>
      <trkpt lat="59.9314946" lon="17.7420305">
        <ele>34.2642</ele>
        <time>2014-06-06T13:02:34Z</time>
      </trkpt>
      <trkpt lat="59.9314661" lon="17.7420412">
        <ele>33.7834</ele>
        <time>2014-06-06T13:02:35Z</time>
      </trkpt>
      <trkpt lat="59.9314392" lon="17.7420538">
        <ele>33.7834</ele>
        <time>2014-06-06T13:02:36Z</time>
      </trkpt>
      <trkpt lat="59.9314113" lon="17.7420691">
        <ele>33.3029</ele>
        <time>2014-06-06T13:02:37Z</time>
      </trkpt>
      <trkpt lat="59.9313833" lon="17.7420885">
        <ele>33.3029</ele>
        <time>2014-06-06T13:02:38Z</time>
      </trkpt>
      <trkpt lat="59.9313574" lon="17.7421147">
        <ele>33.3029</ele>
        <time>2014-06-06T13:02:39Z</time>
      </trkpt>
      <trkpt lat="59.9313333" lon="17.7421498">
        <ele>33.3029</ele>
        <time>2014-06-06T13:02:40Z</time>
      </trkpt>
      <trkpt lat="59.9313088" lon="17.7421845">
        <ele>32.8223</ele>
        <time>2014-06-06T13:02:41Z</time>
      </trkpt>
      <trkpt lat="59.9312813" lon="17.74222">
        <ele>32.8223</ele>
        <time>2014-06-06T13:02:42Z</time>
      </trkpt>
      <trkpt lat="59.9312536" lon="17.7422529">
        <ele>32.8223</ele>
        <time>2014-06-06T13:02:43Z</time>
      </trkpt>
      <trkpt lat="59.9312257" lon="17.7422743">
        <ele>32.3416</ele>
        <time>2014-06-06T13:02:44Z</time>
      </trkpt>
      <trkpt lat="59.9311962" lon="17.7422842">
        <ele>32.3416</ele>
        <time>2014-06-06T13:02:45Z</time>
      </trkpt>
      <trkpt lat="59.9311655" lon="17.7422831">
        <ele>32.3416</ele>
        <time>2014-06-06T13:02:46Z</time>
      </trkpt>
      <trkpt lat="59.9311304" lon="17.7422907">
        <ele>33.3029</ele>
        <time>2014-06-06T13:02:47Z</time>
      </trkpt>
      <trkpt lat="59.9310989" lon="17.742294">
        <ele>33.7834</ele>
        <time>2014-06-06T13:02:48Z</time>
      </trkpt>
      <trkpt lat="59.9310681" lon="17.7422908">
        <ele>34.2642</ele>
        <time>2014-06-06T13:02:49Z</time>
      </trkpt>
      <trkpt lat="59.9310336" lon="17.742281">
        <ele>35.7061</ele>
        <time>2014-06-06T13:02:50Z</time>
      </trkpt>
      <trkpt lat="59.9309974" lon="17.7422681">
        <ele>36.6675</ele>
        <time>2014-06-06T13:02:51Z</time>
      </trkpt>
      <trkpt lat="59.9309664" lon="17.7422579">
        <ele>37.1481</ele>
        <time>2014-06-06T13:02:52Z</time>
      </trkpt>
      <trkpt lat="59.9309376" lon="17.7422403">
        <ele>37.1481</ele>
        <time>2014-06-06T13:02:53Z</time>
      </trkpt>
      <trkpt lat="59.9309047" lon="17.7422329">
        <ele>37.1481</ele>
        <time>2014-06-06T13:02:54Z</time>
      </trkpt>
      <trkpt lat="59.9308747" lon="17.7422303">
        <ele>36.6675</ele>
        <time>2014-06-06T13:02:55Z</time>
      </trkpt>
      <trkpt lat="59.9308413" lon="17.7422313">
        <ele>37.1481</ele>
        <time>2014-06-06T13:02:56Z</time>
      </trkpt>
      <trkpt lat="59.9308083" lon="17.7422278">
        <ele>36.6675</ele>
        <time>2014-06-06T13:02:57Z</time>
      </trkpt>
      <trkpt lat="59.9307761" lon="17.7422277">
        <ele>37.1481</ele>
        <time>2014-06-06T13:02:58Z</time>
      </trkpt>
      <trkpt lat="59.9307426" lon="17.7422201">
        <ele>37.6287</ele>
        <time>2014-06-06T13:02:59Z</time>
      </trkpt>
      <trkpt lat="59.9307093" lon="17.7422157">
        <ele>37.6287</ele>
        <time>2014-06-06T13:03:00Z</time>
      </trkpt>
      <trkpt lat="59.9306765" lon="17.742221">
        <ele>38.1094</ele>
        <time>2014-06-06T13:03:01Z</time>
      </trkpt>
      <trkpt lat="59.9306457" lon="17.7422231">
        <ele>38.5901</ele>
        <time>2014-06-06T13:03:02Z</time>
      </trkpt>
      <trkpt lat="59.9306208" lon="17.742219">
        <ele>38.5901</ele>
        <time>2014-06-06T13:03:03Z</time>
      </trkpt>
      <trkpt lat="59.9305972" lon="17.742209">
        <ele>38.5901</ele>
        <time>2014-06-06T13:03:04Z</time>
      </trkpt>
      <trkpt lat="59.9305726" lon="17.7421878">
        <ele>38.5901</ele>
        <time>2014-06-06T13:03:05Z</time>
      </trkpt>
      <trkpt lat="59.9305477" lon="17.7421594">
        <ele>38.5901</ele>
        <time>2014-06-06T13:03:06Z</time>
      </trkpt>
      <trkpt lat="59.9305276" lon="17.7421258">
        <ele>38.1094</ele>
        <time>2014-06-06T13:03:07Z</time>
      </trkpt>
      <trkpt lat="59.9305146" lon="17.7420876">
        <ele>37.6287</ele>
        <time>2014-06-06T13:03:08Z</time>
      </trkpt>
      <trkpt lat="59.9305057" lon="17.7420355">
        <ele>36.6675</ele>
        <time>2014-06-06T13:03:09Z</time>
      </trkpt>
      <trkpt lat="59.9304975" lon="17.7419832">
        <ele>35.7061</ele>
        <time>2014-06-06T13:03:10Z</time>
      </trkpt>
      <trkpt lat="59.9304937" lon="17.7419294">
        <ele>35.2255</ele>
        <time>2014-06-06T13:03:11Z</time>
      </trkpt>
      <trkpt lat="59.930496" lon="17.7418796">
        <ele>34.7449</ele>
        <time>2014-06-06T13:03:12Z</time>
      </trkpt>
      <trkpt lat="59.9304978" lon="17.7418272">
        <ele>34.2642</ele>
        <time>2014-06-06T13:03:13Z</time>
      </trkpt>
      <trkpt lat="59.9305026" lon="17.7417686">
        <ele>33.7834</ele>
        <time>2014-06-06T13:03:14Z</time>
      </trkpt>
      <trkpt lat="59.9305097" lon="17.7417168">
        <ele>33.3029</ele>
        <time>2014-06-06T13:03:15Z</time>
      </trkpt>
      <trkpt lat="59.9305161" lon="17.7416693">
        <ele>32.8223</ele>
        <time>2014-06-06T13:03:16Z</time>
      </trkpt>
      <trkpt lat="59.9305228" lon="17.7416188">
        <ele>32.3416</ele>
        <time>2014-06-06T13:03:17Z</time>
      </trkpt>
      <trkpt lat="59.930525" lon="17.7415617">
        <ele>31.8607</ele>
        <time>2014-06-06T13:03:18Z</time>
      </trkpt>
      <trkpt lat="59.9305286" lon="17.7415102">
        <ele>30.8995</ele>
        <time>2014-06-06T13:03:19Z</time>
      </trkpt>
      <trkpt lat="59.9305309" lon="17.7414463">
        <ele>30.4188</ele>
        <time>2014-06-06T13:03:20Z</time>
      </trkpt>
      <trkpt lat="59.9305317" lon="17.7413782">
        <ele>29.4575</ele>
        <time>2014-06-06T13:03:21Z</time>
      </trkpt>
      <trkpt lat="59.9305315" lon="17.7413148">
        <ele>28.4962</ele>
        <time>2014-06-06T13:03:22Z</time>
      </trkpt>
      <trkpt lat="59.9305115" lon="17.7412084">
        <ele>28.0155</ele>
        <time>2014-06-06T13:03:23Z</time>
      </trkpt>
      <trkpt lat="59.9305002" lon="17.7411609">
        <ele>27.5349</ele>
        <time>2014-06-06T13:03:24Z</time>
      </trkpt>
      <trkpt lat="59.9304871" lon="17.7411123">
        <ele>27.5349</ele>
        <time>2014-06-06T13:03:25Z</time>
      </trkpt>
      <trkpt lat="59.9304695" lon="17.7410662">
        <ele>27.5349</ele>
        <time>2014-06-06T13:03:26Z</time>
      </trkpt>
      <trkpt lat="59.9304416" lon="17.7410264">
        <ele>28.0155</ele>
        <time>2014-06-06T13:03:27Z</time>
      </trkpt>
      <trkpt lat="59.9304132" lon="17.7409981">
        <ele>28.4962</ele>
        <time>2014-06-06T13:03:28Z</time>
      </trkpt>
      <trkpt lat="59.9303875" lon="17.7409765">
        <ele>28.4962</ele>
        <time>2014-06-06T13:03:29Z</time>
      </trkpt>
      <trkpt lat="59.9303569" lon="17.7409573">
        <ele>28.4962</ele>
        <time>2014-06-06T13:03:30Z</time>
      </trkpt>
      <trkpt lat="59.9303264" lon="17.7409462">
        <ele>28.4962</ele>
        <time>2014-06-06T13:03:31Z</time>
      </trkpt>
      <trkpt lat="59.9302938" lon="17.7409379">
        <ele>28.0155</ele>
        <time>2014-06-06T13:03:32Z</time>
      </trkpt>
      <trkpt lat="59.9302593" lon="17.7409321">
        <ele>28.0155</ele>
        <time>2014-06-06T13:03:33Z</time>
      </trkpt>
      <trkpt lat="59.9302251" lon="17.7409193">
        <ele>28.0155</ele>
        <time>2014-06-06T13:03:34Z</time>
      </trkpt>
      <trkpt lat="59.9301927" lon="17.7409077">
        <ele>28.0155</ele>
        <time>2014-06-06T13:03:35Z</time>
      </trkpt>
      <trkpt lat="59.9301626" lon="17.7409006">
        <ele>27.5349</ele>
        <time>2014-06-06T13:03:36Z</time>
      </trkpt>
      <trkpt lat="59.9301344" lon="17.7408945">
        <ele>27.5349</ele>
        <time>2014-06-06T13:03:37Z</time>
      </trkpt>
      <trkpt lat="59.9301032" lon="17.7408881">
        <ele>27.5349</ele>
        <time>2014-06-06T13:03:38Z</time>
      </trkpt>
      <trkpt lat="59.9300702" lon="17.7408822">
        <ele>27.5349</ele>
        <time>2014-06-06T13:03:39Z</time>
      </trkpt>
      <trkpt lat="59.9300393" lon="17.7408788">
        <ele>27.5349</ele>
        <time>2014-06-06T13:03:40Z</time>
      </trkpt>
      <trkpt lat="59.9300106" lon="17.7408804">
        <ele>27.0543</ele>
        <time>2014-06-06T13:03:41Z</time>
      </trkpt>
      <trkpt lat="59.9299844" lon="17.7408799">
        <ele>26.5736</ele>
        <time>2014-06-06T13:03:42Z</time>
      </trkpt>
      <trkpt lat="59.9299594" lon="17.740881">
        <ele>26.5736</ele>
        <time>2014-06-06T13:03:43Z</time>
      </trkpt>
      <trkpt lat="59.9299365" lon="17.7408913">
        <ele>26.5736</ele>
        <time>2014-06-06T13:03:44Z</time>
      </trkpt>
      <trkpt lat="59.9299131" lon="17.740905">
        <ele>26.0929</ele>
        <time>2014-06-06T13:03:45Z</time>
      </trkpt>
      <trkpt lat="59.9298878" lon="17.7409196">
        <ele>26.0929</ele>
        <time>2014-06-06T13:03:46Z</time>
      </trkpt>
      <trkpt lat="59.9298576" lon="17.7409187">
        <ele>27.0543</ele>
        <time>2014-06-06T13:03:47Z</time>
      </trkpt>
      <trkpt lat="59.9298302" lon="17.7409397">
        <ele>27.0543</ele>
        <time>2014-06-06T13:03:48Z</time>
      </trkpt>
      <trkpt lat="59.9298049" lon="17.7409513">
        <ele>27.0543</ele>
        <time>2014-06-06T13:03:49Z</time>
      </trkpt>
      <trkpt lat="59.9297822" lon="17.7409634">
        <ele>27.0543</ele>
        <time>2014-06-06T13:03:50Z</time>
      </trkpt>
      <trkpt lat="59.9297588" lon="17.7409751">
        <ele>27.5349</ele>
        <time>2014-06-06T13:03:51Z</time>
      </trkpt>
      <trkpt lat="59.9297381" lon="17.740996">
        <ele>27.5349</ele>
        <time>2014-06-06T13:03:52Z</time>
      </trkpt>
      <trkpt lat="59.9297132" lon="17.7409983">
        <ele>27.5349</ele>
        <time>2014-06-06T13:03:53Z</time>
      </trkpt>
      <trkpt lat="59.9296894" lon="17.7409918">
        <ele>28.0155</ele>
        <time>2014-06-06T13:03:54Z</time>
      </trkpt>
      <trkpt lat="59.9296692" lon="17.7409815">
        <ele>28.4962</ele>
        <time>2014-06-06T13:03:55Z</time>
      </trkpt>
      <trkpt lat="59.9296572" lon="17.740986">
        <ele>28.4962</ele>
        <time>2014-06-06T13:03:56Z</time>
      </trkpt>
      <trkpt lat="59.9296458" lon="17.7409983">
        <ele>27.5349</ele>
        <time>2014-06-06T13:03:57Z</time>
      </trkpt>
      <trkpt lat="59.9296291" lon="17.7410019">
        <ele>27.0543</ele>
        <time>2014-06-06T13:03:58Z</time>
      </trkpt>
      <trkpt lat="59.9296101" lon="17.7409973">
        <ele>27.0543</ele>
        <time>2014-06-06T13:03:59Z</time>
      </trkpt>
      <trkpt lat="59.929588" lon="17.7409908">
        <ele>27.0543</ele>
        <time>2014-06-06T13:04:00Z</time>
      </trkpt>
      <trkpt lat="59.9295675" lon="17.7409704">
        <ele>27.0543</ele>
        <time>2014-06-06T13:04:01Z</time>
      </trkpt>
      <trkpt lat="59.929545" lon="17.7409441">
        <ele>27.0543</ele>
        <time>2014-06-06T13:04:02Z</time>
      </trkpt>
      <trkpt lat="59.929518" lon="17.7409258">
        <ele>27.0543</ele>
        <time>2014-06-06T13:04:03Z</time>
      </trkpt>
      <trkpt lat="59.9294873" lon="17.7409206">
        <ele>26.5736</ele>
        <time>2014-06-06T13:04:04Z</time>
      </trkpt>
      <trkpt lat="59.9294553" lon="17.7409156">
        <ele>27.0543</ele>
        <time>2014-06-06T13:04:05Z</time>
      </trkpt>
      <trkpt lat="59.9294234" lon="17.7409172">
        <ele>27.0543</ele>
        <time>2014-06-06T13:04:06Z</time>
      </trkpt>
      <trkpt lat="59.9293894" lon="17.7409171">
        <ele>27.5349</ele>
        <time>2014-06-06T13:04:07Z</time>
      </trkpt>
      <trkpt lat="59.929358" lon="17.740917">
        <ele>27.5349</ele>
        <time>2014-06-06T13:04:08Z</time>
      </trkpt>
      <trkpt lat="59.9293283" lon="17.7409182">
        <ele>27.5349</ele>
        <time>2014-06-06T13:04:09Z</time>
      </trkpt>
      <trkpt lat="59.9292987" lon="17.7409275">
        <ele>27.5349</ele>
        <time>2014-06-06T13:04:10Z</time>
      </trkpt>
      <trkpt lat="59.929267" lon="17.7409472">
        <ele>28.0155</ele>
        <time>2014-06-06T13:04:11Z</time>
      </trkpt>
      <trkpt lat="59.9292359" lon="17.7409772">
        <ele>28.4962</ele>
        <time>2014-06-06T13:04:12Z</time>
      </trkpt>
      <trkpt lat="59.9292065" lon="17.7410074">
        <ele>28.9769</ele>
        <time>2014-06-06T13:04:13Z</time>
      </trkpt>
      <trkpt lat="59.92918" lon="17.7410377">
        <ele>28.9769</ele>
        <time>2014-06-06T13:04:14Z</time>
      </trkpt>
      <trkpt lat="59.9291523" lon="17.7410621">
        <ele>29.4575</ele>
        <time>2014-06-06T13:04:15Z</time>
      </trkpt>
      <trkpt lat="59.9291257" lon="17.7410819">
        <ele>29.4575</ele>
        <time>2014-06-06T13:04:16Z</time>
      </trkpt>
      <trkpt lat="59.9291004" lon="17.7410927">
        <ele>28.9769</ele>
        <time>2014-06-06T13:04:17Z</time>
      </trkpt>
      <trkpt lat="59.9290731" lon="17.7410933">
        <ele>28.9769</ele>
        <time>2014-06-06T13:04:18Z</time>
      </trkpt>
      <trkpt lat="59.9290419" lon="17.7410885">
        <ele>28.9769</ele>
        <time>2014-06-06T13:04:19Z</time>
      </trkpt>
      <trkpt lat="59.9290113" lon="17.7410829">
        <ele>28.9769</ele>
        <time>2014-06-06T13:04:20Z</time>
      </trkpt>
      <trkpt lat="59.9289838" lon="17.741076">
        <ele>28.9769</ele>
        <time>2014-06-06T13:04:21Z</time>
      </trkpt>
      <trkpt lat="59.9289546" lon="17.7410787">
        <ele>28.9769</ele>
        <time>2014-06-06T13:04:22Z</time>
      </trkpt>
      <trkpt lat="59.9289258" lon="17.741085">
        <ele>28.9769</ele>
        <time>2014-06-06T13:04:23Z</time>
      </trkpt>
      <trkpt lat="59.9288946" lon="17.7410926">
        <ele>28.9769</ele>
        <time>2014-06-06T13:04:24Z</time>
      </trkpt>
      <trkpt lat="59.9288621" lon="17.7411017">
        <ele>28.4962</ele>
        <time>2014-06-06T13:04:25Z</time>
      </trkpt>
      <trkpt lat="59.9288303" lon="17.7411104">
        <ele>28.4962</ele>
        <time>2014-06-06T13:04:26Z</time>
      </trkpt>
      <trkpt lat="59.928802" lon="17.7411122">
        <ele>27.5349</ele>
        <time>2014-06-06T13:04:27Z</time>
      </trkpt>
      <trkpt lat="59.9287744" lon="17.7411112">
        <ele>27.0543</ele>
        <time>2014-06-06T13:04:28Z</time>
      </trkpt>
      <trkpt lat="59.9287462" lon="17.7411046">
        <ele>26.5736</ele>
        <time>2014-06-06T13:04:29Z</time>
      </trkpt>
      <trkpt lat="59.9287145" lon="17.7410998">
        <ele>26.5736</ele>
        <time>2014-06-06T13:04:30Z</time>
      </trkpt>
      <trkpt lat="59.9286796" lon="17.7410912">
        <ele>26.0929</ele>
        <time>2014-06-06T13:04:31Z</time>
      </trkpt>
      <trkpt lat="59.9286429" lon="17.7410983">
        <ele>26.0929</ele>
        <time>2014-06-06T13:04:32Z</time>
      </trkpt>
      <trkpt lat="59.928604" lon="17.7411029">
        <ele>26.5736</ele>
        <time>2014-06-06T13:04:33Z</time>
      </trkpt>
      <trkpt lat="59.928568" lon="17.7411039">
        <ele>27.0543</ele>
        <time>2014-06-06T13:04:34Z</time>
      </trkpt>
      <trkpt lat="59.9285351" lon="17.7411016">
        <ele>27.5349</ele>
        <time>2014-06-06T13:04:35Z</time>
      </trkpt>
      <trkpt lat="59.9285056" lon="17.7410942">
        <ele>27.0543</ele>
        <time>2014-06-06T13:04:36Z</time>
      </trkpt>
      <trkpt lat="59.9284783" lon="17.7411031">
        <ele>27.0543</ele>
        <time>2014-06-06T13:04:37Z</time>
      </trkpt>
      <trkpt lat="59.9284456" lon="17.7411134">
        <ele>26.5736</ele>
        <time>2014-06-06T13:04:38Z</time>
      </trkpt>
      <trkpt lat="59.9284079" lon="17.7411192">
        <ele>27.0543</ele>
        <time>2014-06-06T13:04:39Z</time>
      </trkpt>
      <trkpt lat="59.9283696" lon="17.7411273">
        <ele>26.5736</ele>
        <time>2014-06-06T13:04:40Z</time>
      </trkpt>
      <trkpt lat="59.9283336" lon="17.7411392">
        <ele>26.0929</ele>
        <time>2014-06-06T13:04:41Z</time>
      </trkpt>
      <trkpt lat="59.9282986" lon="17.7411388">
        <ele>26.0929</ele>
        <time>2014-06-06T13:04:42Z</time>
      </trkpt>
      <trkpt lat="59.9282731" lon="17.7411511">
        <ele>26.0929</ele>
        <time>2014-06-06T13:04:43Z</time>
      </trkpt>
      <trkpt lat="59.9282408" lon="17.7411491">
        <ele>26.5736</ele>
        <time>2014-06-06T13:04:44Z</time>
      </trkpt>
      <trkpt lat="59.9282156" lon="17.7411565">
        <ele>26.0929</ele>
        <time>2014-06-06T13:04:45Z</time>
      </trkpt>
      <trkpt lat="59.9281935" lon="17.7411661">
        <ele>25.6123</ele>
        <time>2014-06-06T13:04:46Z</time>
      </trkpt>
      <trkpt lat="59.9281706" lon="17.7411694">
        <ele>24.651</ele>
        <time>2014-06-06T13:04:47Z</time>
      </trkpt>
      <trkpt lat="59.9281403" lon="17.7411594">
        <ele>26.5736</ele>
        <time>2014-06-06T13:04:48Z</time>
      </trkpt>
      <trkpt lat="59.9281141" lon="17.7411731">
        <ele>27.0543</ele>
        <time>2014-06-06T13:04:49Z</time>
      </trkpt>
      <trkpt lat="59.9280867" lon="17.741174">
        <ele>26.5736</ele>
        <time>2014-06-06T13:04:50Z</time>
      </trkpt>
      <trkpt lat="59.9280618" lon="17.7411682">
        <ele>26.5736</ele>
        <time>2014-06-06T13:04:51Z</time>
      </trkpt>
      <trkpt lat="59.928052" lon="17.7411599">
        <ele>26.5736</ele>
        <time>2014-06-06T13:04:52Z</time>
      </trkpt>
      <trkpt lat="59.9280478" lon="17.7411376">
        <ele>26.5736</ele>
        <time>2014-06-06T13:04:53Z</time>
      </trkpt>
      <trkpt lat="59.928051" lon="17.7411124">
        <ele>26.5736</ele>
        <time>2014-06-06T13:04:54Z</time>
      </trkpt>
      <trkpt lat="59.9280556" lon="17.7410762">
        <ele>26.5736</ele>
        <time>2014-06-06T13:04:55Z</time>
      </trkpt>
      <trkpt lat="59.9280551" lon="17.7410296">
        <ele>26.5736</ele>
        <time>2014-06-06T13:04:56Z</time>
      </trkpt>
      <trkpt lat="59.9280561" lon="17.7409843">
        <ele>27.0543</ele>
        <time>2014-06-06T13:04:57Z</time>
      </trkpt>
      <trkpt lat="59.9280538" lon="17.7409461">
        <ele>27.0543</ele>
        <time>2014-06-06T13:04:58Z</time>
      </trkpt>
      <trkpt lat="59.928042" lon="17.7409012">
        <ele>26.5736</ele>
        <time>2014-06-06T13:04:59Z</time>
      </trkpt>
      <trkpt lat="59.9280218" lon="17.7408712">
        <ele>26.0929</ele>
        <time>2014-06-06T13:05:00Z</time>
      </trkpt>
      <trkpt lat="59.927996" lon="17.7408483">
        <ele>26.0929</ele>
        <time>2014-06-06T13:05:01Z</time>
      </trkpt>
      <trkpt lat="59.9279744" lon="17.7408271">
        <ele>25.6123</ele>
        <time>2014-06-06T13:05:02Z</time>
      </trkpt>
      <trkpt lat="59.9279516" lon="17.7408116">
        <ele>25.6123</ele>
        <time>2014-06-06T13:05:03Z</time>
      </trkpt>
      <trkpt lat="59.927925" lon="17.7408049">
        <ele>25.6123</ele>
        <time>2014-06-06T13:05:04Z</time>
      </trkpt>
      <trkpt lat="59.9279015" lon="17.7407959">
        <ele>25.1317</ele>
        <time>2014-06-06T13:05:05Z</time>
      </trkpt>
      <trkpt lat="59.9278785" lon="17.7407978">
        <ele>25.6123</ele>
        <time>2014-06-06T13:05:06Z</time>
      </trkpt>
      <trkpt lat="59.9278556" lon="17.7407984">
        <ele>25.6123</ele>
        <time>2014-06-06T13:05:07Z</time>
      </trkpt>
      <trkpt lat="59.9278369" lon="17.740802">
        <ele>25.6123</ele>
        <time>2014-06-06T13:05:08Z</time>
      </trkpt>
      <trkpt lat="59.9278171" lon="17.7408015">
        <ele>25.6123</ele>
        <time>2014-06-06T13:05:09Z</time>
      </trkpt>
      <trkpt lat="59.9277955" lon="17.7408083">
        <ele>25.6123</ele>
        <time>2014-06-06T13:05:10Z</time>
      </trkpt>
      <trkpt lat="59.9277739" lon="17.7408094">
        <ele>25.1317</ele>
        <time>2014-06-06T13:05:11Z</time>
      </trkpt>
      <trkpt lat="59.9277549" lon="17.7408155">
        <ele>25.6123</ele>
        <time>2014-06-06T13:05:12Z</time>
      </trkpt>
      <trkpt lat="59.9277329" lon="17.7408094">
        <ele>25.6123</ele>
        <time>2014-06-06T13:05:13Z</time>
      </trkpt>
      <trkpt lat="59.9277137" lon="17.7408041">
        <ele>25.1317</ele>
        <time>2014-06-06T13:05:14Z</time>
      </trkpt>
      <trkpt lat="59.9276938" lon="17.7407988">
        <ele>24.1703</ele>
        <time>2014-06-06T13:05:15Z</time>
      </trkpt>
      <trkpt lat="59.927679" lon="17.7407952">
        <ele>24.651</ele>
        <time>2014-06-06T13:05:16Z</time>
      </trkpt>
      <trkpt lat="59.9276645" lon="17.7407669">
        <ele>24.1703</ele>
        <time>2014-06-06T13:05:17Z</time>
      </trkpt>
      <trkpt lat="59.927655" lon="17.7407354">
        <ele>23.6896</ele>
        <time>2014-06-06T13:05:18Z</time>
      </trkpt>
      <trkpt lat="59.9276444" lon="17.7407032">
        <ele>23.6896</ele>
        <time>2014-06-06T13:05:19Z</time>
      </trkpt>
      <trkpt lat="59.9276291" lon="17.7406779">
        <ele>24.1703</ele>
        <time>2014-06-06T13:05:20Z</time>
      </trkpt>
      <trkpt lat="59.9276125" lon="17.7406509">
        <ele>24.651</ele>
        <time>2014-06-06T13:05:21Z</time>
      </trkpt>
      <trkpt lat="59.9275972" lon="17.7406429">
        <ele>25.6123</ele>
        <time>2014-06-06T13:05:22Z</time>
      </trkpt>
      <trkpt lat="59.9275883" lon="17.7406359">
        <ele>25.6123</ele>
        <time>2014-06-06T13:05:23Z</time>
      </trkpt>
      <trkpt lat="59.9275827" lon="17.7406047">
        <ele>26.0929</ele>
        <time>2014-06-06T13:05:24Z</time>
      </trkpt>
      <trkpt lat="59.9275826" lon="17.7405768">
        <ele>26.5736</ele>
        <time>2014-06-06T13:05:25Z</time>
      </trkpt>
      <trkpt lat="59.927578" lon="17.74055">
        <ele>27.0543</ele>
        <time>2014-06-06T13:05:26Z</time>
      </trkpt>
      <trkpt lat="59.9275688" lon="17.7405277">
        <ele>28.0155</ele>
        <time>2014-06-06T13:05:27Z</time>
      </trkpt>
      <trkpt lat="59.9275588" lon="17.7404956">
        <ele>28.0155</ele>
        <time>2014-06-06T13:05:28Z</time>
      </trkpt>
      <trkpt lat="59.9275446" lon="17.7404591">
        <ele>28.0155</ele>
        <time>2014-06-06T13:05:29Z</time>
      </trkpt>
      <trkpt lat="59.9275349" lon="17.7404276">
        <ele>28.4962</ele>
        <time>2014-06-06T13:05:30Z</time>
      </trkpt>
      <trkpt lat="59.9275273" lon="17.7403987">
        <ele>28.9769</ele>
        <time>2014-06-06T13:05:31Z</time>
      </trkpt>
      <trkpt lat="59.9275236" lon="17.7403736">
        <ele>29.4575</ele>
        <time>2014-06-06T13:05:32Z</time>
      </trkpt>
      <trkpt lat="59.9275136" lon="17.7403471">
        <ele>29.4575</ele>
        <time>2014-06-06T13:05:33Z</time>
      </trkpt>
      <trkpt lat="59.9275034" lon="17.7403264">
        <ele>29.4575</ele>
        <time>2014-06-06T13:05:34Z</time>
      </trkpt>
      <trkpt lat="59.9274946" lon="17.7403126">
        <ele>29.4575</ele>
        <time>2014-06-06T13:05:35Z</time>
      </trkpt>
      <trkpt lat="59.9274819" lon="17.7402992">
        <ele>29.9381</ele>
        <time>2014-06-06T13:05:36Z</time>
      </trkpt>
      <trkpt lat="59.927478" lon="17.7402861">
        <ele>28.9769</ele>
        <time>2014-06-06T13:05:37Z</time>
      </trkpt>
      <trkpt lat="59.9274733" lon="17.7402751">
        <ele>28.9769</ele>
        <time>2014-06-06T13:05:38Z</time>
      </trkpt>
      <trkpt lat="59.9274661" lon="17.7402629">
        <ele>28.9769</ele>
        <time>2014-06-06T13:05:39Z</time>
      </trkpt>
      <trkpt lat="59.9274625" lon="17.7402497">
        <ele>29.4575</ele>
        <time>2014-06-06T13:05:40Z</time>
      </trkpt>
      <trkpt lat="59.9274593" lon="17.7402345">
        <ele>29.4575</ele>
        <time>2014-06-06T13:05:41Z</time>
      </trkpt>
      <trkpt lat="59.927451" lon="17.740224">
        <ele>30.4188</ele>
        <time>2014-06-06T13:05:42Z</time>
      </trkpt>
      <trkpt lat="59.9274454" lon="17.7402245">
        <ele>31.3801</ele>
        <time>2014-06-06T13:05:43Z</time>
      </trkpt>
      <trkpt lat="59.9274408" lon="17.740208">
        <ele>31.8607</ele>
        <time>2014-06-06T13:05:44Z</time>
      </trkpt>
      <trkpt lat="59.9274332" lon="17.7401847">
        <ele>31.8607</ele>
        <time>2014-06-06T13:05:45Z</time>
      </trkpt>
      <trkpt lat="59.9274304" lon="17.7401667">
        <ele>32.8223</ele>
        <time>2014-06-06T13:05:46Z</time>
      </trkpt>
      <trkpt lat="59.9274267" lon="17.7401453">
        <ele>33.7834</ele>
        <time>2014-06-06T13:05:47Z</time>
      </trkpt>
      <trkpt lat="59.9274262" lon="17.7401303">
        <ele>34.2642</ele>
        <time>2014-06-06T13:05:48Z</time>
      </trkpt>
      <trkpt lat="59.9274204" lon="17.7401137">
        <ele>34.7449</ele>
        <time>2014-06-06T13:05:49Z</time>
      </trkpt>
      <trkpt lat="59.92741" lon="17.740099">
        <ele>34.7449</ele>
        <time>2014-06-06T13:05:50Z</time>
      </trkpt>
      <trkpt lat="59.927396" lon="17.7400859">
        <ele>35.2255</ele>
        <time>2014-06-06T13:05:51Z</time>
      </trkpt>
      <trkpt lat="59.9273847" lon="17.7400715">
        <ele>35.2255</ele>
        <time>2014-06-06T13:05:52Z</time>
      </trkpt>
      <trkpt lat="59.9273755" lon="17.7400562">
        <ele>35.2255</ele>
        <time>2014-06-06T13:05:53Z</time>
      </trkpt>
      <trkpt lat="59.927362" lon="17.7400291">
        <ele>34.2642</ele>
        <time>2014-06-06T13:05:54Z</time>
      </trkpt>
      <trkpt lat="59.9273423" lon="17.740021">
        <ele>33.7834</ele>
        <time>2014-06-06T13:05:55Z</time>
      </trkpt>
      <trkpt lat="59.9273167" lon="17.7400107">
        <ele>33.3029</ele>
        <time>2014-06-06T13:05:56Z</time>
      </trkpt>
      <trkpt lat="59.9272885" lon="17.7399997">
        <ele>33.3029</ele>
        <time>2014-06-06T13:05:57Z</time>
      </trkpt>
      <trkpt lat="59.9272573" lon="17.7399894">
        <ele>32.3416</ele>
        <time>2014-06-06T13:05:58Z</time>
      </trkpt>
      <trkpt lat="59.9272242" lon="17.7399619">
        <ele>32.3416</ele>
        <time>2014-06-06T13:05:59Z</time>
      </trkpt>
      <trkpt lat="59.9271971" lon="17.7399367">
        <ele>31.3801</ele>
        <time>2014-06-06T13:06:00Z</time>
      </trkpt>
      <trkpt lat="59.9271666" lon="17.7399365">
        <ele>31.3801</ele>
        <time>2014-06-06T13:06:01Z</time>
      </trkpt>
      <trkpt lat="59.9271329" lon="17.7399245">
        <ele>31.3801</ele>
        <time>2014-06-06T13:06:02Z</time>
      </trkpt>
      <trkpt lat="59.9270952" lon="17.739913">
        <ele>30.8995</ele>
        <time>2014-06-06T13:06:03Z</time>
      </trkpt>
      <trkpt lat="59.9270579" lon="17.7399116">
        <ele>30.8995</ele>
        <time>2014-06-06T13:06:04Z</time>
      </trkpt>
      <trkpt lat="59.9270237" lon="17.7399187">
        <ele>30.4188</ele>
        <time>2014-06-06T13:06:05Z</time>
      </trkpt>
      <trkpt lat="59.9269916" lon="17.7399323">
        <ele>29.9381</ele>
        <time>2014-06-06T13:06:06Z</time>
      </trkpt>
      <trkpt lat="59.9269634" lon="17.7399478">
        <ele>30.8995</ele>
        <time>2014-06-06T13:06:07Z</time>
      </trkpt>
      <trkpt lat="59.9269377" lon="17.7399702">
        <ele>32.3416</ele>
        <time>2014-06-06T13:06:08Z</time>
      </trkpt>
      <trkpt lat="59.926906" lon="17.7399889">
        <ele>32.8223</ele>
        <time>2014-06-06T13:06:09Z</time>
      </trkpt>
      <trkpt lat="59.9268673" lon="17.7399914">
        <ele>32.8223</ele>
        <time>2014-06-06T13:06:10Z</time>
      </trkpt>
      <trkpt lat="59.9268324" lon="17.7399857">
        <ele>31.3801</ele>
        <time>2014-06-06T13:06:11Z</time>
      </trkpt>
      <trkpt lat="59.9267956" lon="17.7399677">
        <ele>31.3801</ele>
        <time>2014-06-06T13:06:12Z</time>
      </trkpt>
      <trkpt lat="59.9267583" lon="17.7399507">
        <ele>30.8995</ele>
        <time>2014-06-06T13:06:13Z</time>
      </trkpt>
      <trkpt lat="59.9267227" lon="17.7399349">
        <ele>29.4575</ele>
        <time>2014-06-06T13:06:14Z</time>
      </trkpt>
      <trkpt lat="59.9266826" lon="17.7399149">
        <ele>28.4962</ele>
        <time>2014-06-06T13:06:15Z</time>
      </trkpt>
      <trkpt lat="59.9266439" lon="17.7398838">
        <ele>28.4962</ele>
        <time>2014-06-06T13:06:16Z</time>
      </trkpt>
      <trkpt lat="59.9266062" lon="17.7398454">
        <ele>28.4962</ele>
        <time>2014-06-06T13:06:17Z</time>
      </trkpt>
      <trkpt lat="59.9265723" lon="17.7397966">
        <ele>28.4962</ele>
        <time>2014-06-06T13:06:18Z</time>
      </trkpt>
      <trkpt lat="59.926543" lon="17.7397447">
        <ele>28.0155</ele>
        <time>2014-06-06T13:06:19Z</time>
      </trkpt>
      <trkpt lat="59.9265164" lon="17.7396913">
        <ele>27.5349</ele>
        <time>2014-06-06T13:06:20Z</time>
      </trkpt>
      <trkpt lat="59.9264901" lon="17.7396474">
        <ele>27.5349</ele>
        <time>2014-06-06T13:06:21Z</time>
      </trkpt>
      <trkpt lat="59.9264657" lon="17.7396126">
        <ele>28.0155</ele>
        <time>2014-06-06T13:06:22Z</time>
      </trkpt>
      <trkpt lat="59.926442" lon="17.7395963">
        <ele>27.5349</ele>
        <time>2014-06-06T13:06:23Z</time>
      </trkpt>
      <trkpt lat="59.9264148" lon="17.7395604">
        <ele>28.0155</ele>
        <time>2014-06-06T13:06:24Z</time>
      </trkpt>
      <trkpt lat="59.9263841" lon="17.7395166">
        <ele>28.4962</ele>
        <time>2014-06-06T13:06:25Z</time>
      </trkpt>
      <trkpt lat="59.9263523" lon="17.7394692">
        <ele>28.9769</ele>
        <time>2014-06-06T13:06:26Z</time>
      </trkpt>
      <trkpt lat="59.9263239" lon="17.7394339">
        <ele>29.4575</ele>
        <time>2014-06-06T13:06:27Z</time>
      </trkpt>
      <trkpt lat="59.9262934" lon="17.739399">
        <ele>29.4575</ele>
        <time>2014-06-06T13:06:28Z</time>
      </trkpt>
      <trkpt lat="59.926266" lon="17.7393653">
        <ele>29.4575</ele>
        <time>2014-06-06T13:06:29Z</time>
      </trkpt>
      <trkpt lat="59.9262423" lon="17.7393248">
        <ele>30.4188</ele>
        <time>2014-06-06T13:06:30Z</time>
      </trkpt>
      <trkpt lat="59.9262156" lon="17.7392852">
        <ele>30.4188</ele>
        <time>2014-06-06T13:06:31Z</time>
      </trkpt>
      <trkpt lat="59.9261887" lon="17.7392402">
        <ele>30.8995</ele>
        <time>2014-06-06T13:06:32Z</time>
      </trkpt>
      <trkpt lat="59.9261555" lon="17.7392031">
        <ele>30.8995</ele>
        <time>2014-06-06T13:06:33Z</time>
      </trkpt>
      <trkpt lat="59.9261173" lon="17.7391725">
        <ele>30.8995</ele>
        <time>2014-06-06T13:06:34Z</time>
      </trkpt>
      <trkpt lat="59.9260782" lon="17.7391332">
        <ele>31.3801</ele>
        <time>2014-06-06T13:06:35Z</time>
      </trkpt>
      <trkpt lat="59.926045" lon="17.739093">
        <ele>31.3801</ele>
        <time>2014-06-06T13:06:36Z</time>
      </trkpt>
      <trkpt lat="59.9260144" lon="17.7390533">
        <ele>31.8607</ele>
        <time>2014-06-06T13:06:37Z</time>
      </trkpt>
      <trkpt lat="59.9259897" lon="17.7390092">
        <ele>32.3416</ele>
        <time>2014-06-06T13:06:38Z</time>
      </trkpt>
      <trkpt lat="59.925968" lon="17.7389754">
        <ele>32.8223</ele>
        <time>2014-06-06T13:06:39Z</time>
      </trkpt>
      <trkpt lat="59.9259473" lon="17.7389485">
        <ele>33.3029</ele>
        <time>2014-06-06T13:06:40Z</time>
      </trkpt>
      <trkpt lat="59.9259316" lon="17.7389258">
        <ele>33.7834</ele>
        <time>2014-06-06T13:06:41Z</time>
      </trkpt>
      <trkpt lat="59.925911" lon="17.7388967">
        <ele>34.7449</ele>
        <time>2014-06-06T13:06:42Z</time>
      </trkpt>
      <trkpt lat="59.9258937" lon="17.7388667">
        <ele>34.2642</ele>
        <time>2014-06-06T13:06:43Z</time>
      </trkpt>
      <trkpt lat="59.925871" lon="17.738829">
        <ele>35.2255</ele>
        <time>2014-06-06T13:06:44Z</time>
      </trkpt>
      <trkpt lat="59.925852" lon="17.7387922">
        <ele>36.1868</ele>
        <time>2014-06-06T13:06:45Z</time>
      </trkpt>
      <trkpt lat="59.9258375" lon="17.7387622">
        <ele>37.1481</ele>
        <time>2014-06-06T13:06:46Z</time>
      </trkpt>
      <trkpt lat="59.9258209" lon="17.7387361">
        <ele>37.1481</ele>
        <time>2014-06-06T13:06:47Z</time>
      </trkpt>
      <trkpt lat="59.9258049" lon="17.7387165">
        <ele>37.6287</ele>
        <time>2014-06-06T13:06:48Z</time>
      </trkpt>
      <trkpt lat="59.9257894" lon="17.7386923">
        <ele>37.6287</ele>
        <time>2014-06-06T13:06:49Z</time>
      </trkpt>
      <trkpt lat="59.9257754" lon="17.738671">
        <ele>38.1094</ele>
        <time>2014-06-06T13:06:50Z</time>
      </trkpt>
      <trkpt lat="59.9257604" lon="17.7386513">
        <ele>37.6287</ele>
        <time>2014-06-06T13:06:51Z</time>
      </trkpt>
      <trkpt lat="59.925743" lon="17.7386287">
        <ele>37.1481</ele>
        <time>2014-06-06T13:06:52Z</time>
      </trkpt>
      <trkpt lat="59.9257303" lon="17.7386129">
        <ele>37.1481</ele>
        <time>2014-06-06T13:06:53Z</time>
      </trkpt>
      <trkpt lat="59.9257288" lon="17.7386028">
        <ele>37.1481</ele>
        <time>2014-06-06T13:06:54Z</time>
      </trkpt>
      <trkpt lat="59.9257282" lon="17.7385777">
        <ele>38.1094</ele>
        <time>2014-06-06T13:06:55Z</time>
      </trkpt>
      <trkpt lat="59.9257219" lon="17.7385473">
        <ele>39.0707</ele>
        <time>2014-06-06T13:06:56Z</time>
      </trkpt>
      <trkpt lat="59.9257251" lon="17.738516">
        <ele>39.5513</ele>
        <time>2014-06-06T13:06:57Z</time>
      </trkpt>
      <trkpt lat="59.9257359" lon="17.7384664">
        <ele>39.5513</ele>
        <time>2014-06-06T13:06:58Z</time>
      </trkpt>
      <trkpt lat="59.9257456" lon="17.7384103">
        <ele>40.0321</ele>
        <time>2014-06-06T13:06:59Z</time>
      </trkpt>
      <trkpt lat="59.9257463" lon="17.7383478">
        <ele>39.0707</ele>
        <time>2014-06-06T13:07:00Z</time>
      </trkpt>
      <trkpt lat="59.9257476" lon="17.7382888">
        <ele>39.5513</ele>
        <time>2014-06-06T13:07:01Z</time>
      </trkpt>
      <trkpt lat="59.9257554" lon="17.7382224">
        <ele>39.5513</ele>
        <time>2014-06-06T13:07:02Z</time>
      </trkpt>
      <trkpt lat="59.9257562" lon="17.7381551">
        <ele>40.5128</ele>
        <time>2014-06-06T13:07:03Z</time>
      </trkpt>
      <trkpt lat="59.9257581" lon="17.7380976">
        <ele>40.9934</ele>
        <time>2014-06-06T13:07:04Z</time>
      </trkpt>
      <trkpt lat="59.925758" lon="17.7380443">
        <ele>40.9934</ele>
        <time>2014-06-06T13:07:05Z</time>
      </trkpt>
      <trkpt lat="59.925756" lon="17.7380021">
        <ele>40.9934</ele>
        <time>2014-06-06T13:07:06Z</time>
      </trkpt>
      <trkpt lat="59.9257588" lon="17.7379535">
        <ele>40.5128</ele>
        <time>2014-06-06T13:07:07Z</time>
      </trkpt>
      <trkpt lat="59.9257622" lon="17.7379135">
        <ele>39.0707</ele>
        <time>2014-06-06T13:07:08Z</time>
      </trkpt>
      <trkpt lat="59.9257684" lon="17.7378631">
        <ele>39.0707</ele>
        <time>2014-06-06T13:07:09Z</time>
      </trkpt>
      <trkpt lat="59.925777" lon="17.7378183">
        <ele>37.6287</ele>
        <time>2014-06-06T13:07:10Z</time>
      </trkpt>
      <trkpt lat="59.9257821" lon="17.7377625">
        <ele>37.1481</ele>
        <time>2014-06-06T13:07:11Z</time>
      </trkpt>
      <trkpt lat="59.9257898" lon="17.7376863">
        <ele>36.6675</ele>
        <time>2014-06-06T13:07:12Z</time>
      </trkpt>
      <trkpt lat="59.9257965" lon="17.7376222">
        <ele>36.6675</ele>
        <time>2014-06-06T13:07:13Z</time>
      </trkpt>
      <trkpt lat="59.925801" lon="17.7375744">
        <ele>37.1481</ele>
        <time>2014-06-06T13:07:14Z</time>
      </trkpt>
      <trkpt lat="59.9258074" lon="17.7375273">
        <ele>37.1481</ele>
        <time>2014-06-06T13:07:15Z</time>
      </trkpt>
      <trkpt lat="59.9258143" lon="17.7374709">
        <ele>37.1481</ele>
        <time>2014-06-06T13:07:16Z</time>
      </trkpt>
      <trkpt lat="59.9258256" lon="17.7373724">
        <ele>36.1868</ele>
        <time>2014-06-06T13:07:17Z</time>
      </trkpt>
      <trkpt lat="59.9258389" lon="17.7372838">
        <ele>35.7061</ele>
        <time>2014-06-06T13:07:18Z</time>
      </trkpt>
      <trkpt lat="59.925853" lon="17.7372023">
        <ele>35.2255</ele>
        <time>2014-06-06T13:07:19Z</time>
      </trkpt>
      <trkpt lat="59.9258676" lon="17.7371331">
        <ele>34.7449</ele>
        <time>2014-06-06T13:07:20Z</time>
      </trkpt>
      <trkpt lat="59.925882" lon="17.7370703">
        <ele>34.2642</ele>
        <time>2014-06-06T13:07:21Z</time>
      </trkpt>
      <trkpt lat="59.9258966" lon="17.7369993">
        <ele>33.3029</ele>
        <time>2014-06-06T13:07:22Z</time>
      </trkpt>
      <trkpt lat="59.9259144" lon="17.7369361">
        <ele>32.8223</ele>
        <time>2014-06-06T13:07:23Z</time>
      </trkpt>
      <trkpt lat="59.9259321" lon="17.736872">
        <ele>31.8607</ele>
        <time>2014-06-06T13:07:24Z</time>
      </trkpt>
      <trkpt lat="59.9259529" lon="17.7368143">
        <ele>31.3801</ele>
        <time>2014-06-06T13:07:25Z</time>
      </trkpt>
      <trkpt lat="59.9259756" lon="17.7367617">
        <ele>30.8995</ele>
        <time>2014-06-06T13:07:26Z</time>
      </trkpt>
      <trkpt lat="59.9259971" lon="17.7367145">
        <ele>29.9381</ele>
        <time>2014-06-06T13:07:27Z</time>
      </trkpt>
      <trkpt lat="59.9260208" lon="17.7366639">
        <ele>29.4575</ele>
        <time>2014-06-06T13:07:28Z</time>
      </trkpt>
      <trkpt lat="59.92604" lon="17.7366124">
        <ele>29.9381</ele>
        <time>2014-06-06T13:07:29Z</time>
      </trkpt>
      <trkpt lat="59.9260582" lon="17.7365623">
        <ele>29.4575</ele>
        <time>2014-06-06T13:07:30Z</time>
      </trkpt>
      <trkpt lat="59.9260751" lon="17.7365133">
        <ele>29.4575</ele>
        <time>2014-06-06T13:07:31Z</time>
      </trkpt>
      <trkpt lat="59.9260751" lon="17.7364566">
        <ele>30.4188</ele>
        <time>2014-06-06T13:07:32Z</time>
      </trkpt>
      <trkpt lat="59.926075" lon="17.7364099">
        <ele>29.4575</ele>
        <time>2014-06-06T13:07:33Z</time>
      </trkpt>
      <trkpt lat="59.9260688" lon="17.7363663">
        <ele>28.9769</ele>
        <time>2014-06-06T13:07:34Z</time>
      </trkpt>
      <trkpt lat="59.9260561" lon="17.7363161">
        <ele>27.5349</ele>
        <time>2014-06-06T13:07:35Z</time>
      </trkpt>
      <trkpt lat="59.9260399" lon="17.736266">
        <ele>26.0929</ele>
        <time>2014-06-06T13:07:36Z</time>
      </trkpt>
      <trkpt lat="59.9260331" lon="17.7362178">
        <ele>25.6123</ele>
        <time>2014-06-06T13:07:37Z</time>
      </trkpt>
      <trkpt lat="59.9260326" lon="17.7361671">
        <ele>24.1703</ele>
        <time>2014-06-06T13:07:38Z</time>
      </trkpt>
      <trkpt lat="59.9260312" lon="17.7361224">
        <ele>23.6896</ele>
        <time>2014-06-06T13:07:39Z</time>
      </trkpt>
      <trkpt lat="59.9260365" lon="17.7360607">
        <ele>22.7283</ele>
        <time>2014-06-06T13:07:40Z</time>
      </trkpt>
      <trkpt lat="59.9260487" lon="17.735982">
        <ele>22.2476</ele>
        <time>2014-06-06T13:07:41Z</time>
      </trkpt>
      <trkpt lat="59.9260535" lon="17.7359002">
        <ele>22.2476</ele>
        <time>2014-06-06T13:07:42Z</time>
      </trkpt>
      <trkpt lat="59.926053" lon="17.735836">
        <ele>21.767</ele>
        <time>2014-06-06T13:07:43Z</time>
      </trkpt>
      <trkpt lat="59.9260421" lon="17.7357841">
        <ele>21.2864</ele>
        <time>2014-06-06T13:07:44Z</time>
      </trkpt>
      <trkpt lat="59.9260265" lon="17.7357442">
        <ele>20.8057</ele>
        <time>2014-06-06T13:07:45Z</time>
      </trkpt>
      <trkpt lat="59.9260075" lon="17.7357081">
        <ele>20.8057</ele>
        <time>2014-06-06T13:07:46Z</time>
      </trkpt>
      <trkpt lat="59.9259818" lon="17.7356805">
        <ele>20.8057</ele>
        <time>2014-06-06T13:07:47Z</time>
      </trkpt>
      <trkpt lat="59.9259452" lon="17.7356061">
        <ele>21.2864</ele>
        <time>2014-06-06T13:07:48Z</time>
      </trkpt>
      <trkpt lat="59.9259115" lon="17.7355572">
        <ele>21.767</ele>
        <time>2014-06-06T13:07:49Z</time>
      </trkpt>
      <trkpt lat="59.9258789" lon="17.7355086">
        <ele>21.767</ele>
        <time>2014-06-06T13:07:50Z</time>
      </trkpt>
      <trkpt lat="59.9258462" lon="17.7354659">
        <ele>22.2476</ele>
        <time>2014-06-06T13:07:51Z</time>
      </trkpt>
      <trkpt lat="59.925814" lon="17.7354211">
        <ele>22.2476</ele>
        <time>2014-06-06T13:07:52Z</time>
      </trkpt>
      <trkpt lat="59.9257825" lon="17.7353744">
        <ele>22.7283</ele>
        <time>2014-06-06T13:07:53Z</time>
      </trkpt>
      <trkpt lat="59.9257507" lon="17.7353247">
        <ele>23.209</ele>
        <time>2014-06-06T13:07:54Z</time>
      </trkpt>
      <trkpt lat="59.9257193" lon="17.7352719">
        <ele>23.6896</ele>
        <time>2014-06-06T13:07:55Z</time>
      </trkpt>
      <trkpt lat="59.9256883" lon="17.7352176">
        <ele>23.6896</ele>
        <time>2014-06-06T13:07:56Z</time>
      </trkpt>
      <trkpt lat="59.9256576" lon="17.735159">
        <ele>24.1703</ele>
        <time>2014-06-06T13:07:57Z</time>
      </trkpt>
      <trkpt lat="59.9256275" lon="17.7350942">
        <ele>24.651</ele>
        <time>2014-06-06T13:07:58Z</time>
      </trkpt>
      <trkpt lat="59.9255977" lon="17.7350268">
        <ele>24.651</ele>
        <time>2014-06-06T13:07:59Z</time>
      </trkpt>
      <trkpt lat="59.92557" lon="17.7349558">
        <ele>25.1317</ele>
        <time>2014-06-06T13:08:00Z</time>
      </trkpt>
      <trkpt lat="59.9255443" lon="17.7348819">
        <ele>25.1317</ele>
        <time>2014-06-06T13:08:01Z</time>
      </trkpt>
      <trkpt lat="59.9255188" lon="17.7348058">
        <ele>25.1317</ele>
        <time>2014-06-06T13:08:02Z</time>
      </trkpt>
      <trkpt lat="59.9254917" lon="17.7347257">
        <ele>25.6123</ele>
        <time>2014-06-06T13:08:03Z</time>
      </trkpt>
      <trkpt lat="59.9254609" lon="17.7346372">
        <ele>26.0929</ele>
        <time>2014-06-06T13:08:04Z</time>
      </trkpt>
      <trkpt lat="59.9254322" lon="17.7345524">
        <ele>26.0929</ele>
        <time>2014-06-06T13:08:05Z</time>
      </trkpt>
      <trkpt lat="59.9254038" lon="17.7344664">
        <ele>26.0929</ele>
        <time>2014-06-06T13:08:06Z</time>
      </trkpt>
      <trkpt lat="59.9253749" lon="17.7343793">
        <ele>26.5736</ele>
        <time>2014-06-06T13:08:07Z</time>
      </trkpt>
      <trkpt lat="59.9253446" lon="17.7342924">
        <ele>26.5736</ele>
        <time>2014-06-06T13:08:08Z</time>
      </trkpt>
      <trkpt lat="59.9253136" lon="17.7342068">
        <ele>26.5736</ele>
        <time>2014-06-06T13:08:09Z</time>
      </trkpt>
      <trkpt lat="59.925282" lon="17.7341219">
        <ele>26.5736</ele>
        <time>2014-06-06T13:08:10Z</time>
      </trkpt>
      <trkpt lat="59.92525" lon="17.7340376">
        <ele>27.0543</ele>
        <time>2014-06-06T13:08:11Z</time>
      </trkpt>
      <trkpt lat="59.9252188" lon="17.7339536">
        <ele>27.0543</ele>
        <time>2014-06-06T13:08:12Z</time>
      </trkpt>
      <trkpt lat="59.9251883" lon="17.7338691">
        <ele>27.0543</ele>
        <time>2014-06-06T13:08:13Z</time>
      </trkpt>
      <trkpt lat="59.9251576" lon="17.7337842">
        <ele>27.0543</ele>
        <time>2014-06-06T13:08:14Z</time>
      </trkpt>
      <trkpt lat="59.9251274" lon="17.7336992">
        <ele>27.5349</ele>
        <time>2014-06-06T13:08:15Z</time>
      </trkpt>
      <trkpt lat="59.9250987" lon="17.7336135">
        <ele>27.5349</ele>
        <time>2014-06-06T13:08:16Z</time>
      </trkpt>
      <trkpt lat="59.9250694" lon="17.7335291">
        <ele>27.5349</ele>
        <time>2014-06-06T13:08:17Z</time>
      </trkpt>
      <trkpt lat="59.9250393" lon="17.7334465">
        <ele>28.0155</ele>
        <time>2014-06-06T13:08:18Z</time>
      </trkpt>
      <trkpt lat="59.9250082" lon="17.7333671">
        <ele>28.0155</ele>
        <time>2014-06-06T13:08:19Z</time>
      </trkpt>
      <trkpt lat="59.9249761" lon="17.7332916">
        <ele>28.0155</ele>
        <time>2014-06-06T13:08:20Z</time>
      </trkpt>
      <trkpt lat="59.9249434" lon="17.7332203">
        <ele>28.4962</ele>
        <time>2014-06-06T13:08:21Z</time>
      </trkpt>
      <trkpt lat="59.9249112" lon="17.73315">
        <ele>28.4962</ele>
        <time>2014-06-06T13:08:22Z</time>
      </trkpt>
      <trkpt lat="59.924881" lon="17.7330784">
        <ele>28.4962</ele>
        <time>2014-06-06T13:08:23Z</time>
      </trkpt>
      <trkpt lat="59.9248547" lon="17.7330092">
        <ele>28.9769</ele>
        <time>2014-06-06T13:08:24Z</time>
      </trkpt>
      <trkpt lat="59.9248294" lon="17.7329419">
        <ele>28.9769</ele>
        <time>2014-06-06T13:08:25Z</time>
      </trkpt>
      <trkpt lat="59.924803" lon="17.7328752">
        <ele>28.9769</ele>
        <time>2014-06-06T13:08:26Z</time>
      </trkpt>
      <trkpt lat="59.9247765" lon="17.7328098">
        <ele>29.4575</ele>
        <time>2014-06-06T13:08:27Z</time>
      </trkpt>
      <trkpt lat="59.9247513" lon="17.7327481">
        <ele>29.4575</ele>
        <time>2014-06-06T13:08:28Z</time>
      </trkpt>
      <trkpt lat="59.9247282" lon="17.7326954">
        <ele>29.4575</ele>
        <time>2014-06-06T13:08:29Z</time>
      </trkpt>
      <trkpt lat="59.9247054" lon="17.7326507">
        <ele>29.9381</ele>
        <time>2014-06-06T13:08:30Z</time>
      </trkpt>
      <trkpt lat="59.9246833" lon="17.7326075">
        <ele>30.4188</ele>
        <time>2014-06-06T13:08:31Z</time>
      </trkpt>
      <trkpt lat="59.9246631" lon="17.732561">
        <ele>30.4188</ele>
        <time>2014-06-06T13:08:32Z</time>
      </trkpt>
      <trkpt lat="59.9246438" lon="17.7325125">
        <ele>30.4188</ele>
        <time>2014-06-06T13:08:33Z</time>
      </trkpt>
      <trkpt lat="59.924622" lon="17.7324636">
        <ele>30.4188</ele>
        <time>2014-06-06T13:08:34Z</time>
      </trkpt>
      <trkpt lat="59.9245963" lon="17.7324149">
        <ele>30.8995</ele>
        <time>2014-06-06T13:08:35Z</time>
      </trkpt>
      <trkpt lat="59.92457" lon="17.73237">
        <ele>30.8995</ele>
        <time>2014-06-06T13:08:36Z</time>
      </trkpt>
      <trkpt lat="59.9245422" lon="17.7323226">
        <ele>30.8995</ele>
        <time>2014-06-06T13:08:37Z</time>
      </trkpt>
      <trkpt lat="59.9245123" lon="17.7322757">
        <ele>30.8995</ele>
        <time>2014-06-06T13:08:38Z</time>
      </trkpt>
      <trkpt lat="59.9244801" lon="17.7322302">
        <ele>30.8995</ele>
        <time>2014-06-06T13:08:39Z</time>
      </trkpt>
      <trkpt lat="59.9244461" lon="17.7321908">
        <ele>30.8995</ele>
        <time>2014-06-06T13:08:40Z</time>
      </trkpt>
      <trkpt lat="59.9244117" lon="17.7321617">
        <ele>30.8995</ele>
        <time>2014-06-06T13:08:41Z</time>
      </trkpt>
      <trkpt lat="59.9243785" lon="17.7321421">
        <ele>30.8995</ele>
        <time>2014-06-06T13:08:42Z</time>
      </trkpt>
      <trkpt lat="59.9243482" lon="17.7321307">
        <ele>30.8995</ele>
        <time>2014-06-06T13:08:43Z</time>
      </trkpt>
      <trkpt lat="59.9243192" lon="17.7321286">
        <ele>30.8995</ele>
        <time>2014-06-06T13:08:44Z</time>
      </trkpt>
      <trkpt lat="59.9242912" lon="17.732136">
        <ele>30.8995</ele>
        <time>2014-06-06T13:08:45Z</time>
      </trkpt>
      <trkpt lat="59.9242642" lon="17.7321532">
        <ele>30.8995</ele>
        <time>2014-06-06T13:08:46Z</time>
      </trkpt>
      <trkpt lat="59.924238" lon="17.7321789">
        <ele>30.4188</ele>
        <time>2014-06-06T13:08:47Z</time>
      </trkpt>
      <trkpt lat="59.9242135" lon="17.7322047">
        <ele>30.4188</ele>
        <time>2014-06-06T13:08:48Z</time>
      </trkpt>
      <trkpt lat="59.9241917" lon="17.7322157">
        <ele>30.4188</ele>
        <time>2014-06-06T13:08:49Z</time>
      </trkpt>
      <trkpt lat="59.9241742" lon="17.7322225">
        <ele>29.9381</ele>
        <time>2014-06-06T13:08:50Z</time>
      </trkpt>
      <trkpt lat="59.9241621" lon="17.7322396">
        <ele>29.9381</ele>
        <time>2014-06-06T13:08:51Z</time>
      </trkpt>
      <trkpt lat="59.9241527" lon="17.7322684">
        <ele>30.4188</ele>
        <time>2014-06-06T13:08:52Z</time>
      </trkpt>
      <trkpt lat="59.924143" lon="17.7323073">
        <ele>30.4188</ele>
        <time>2014-06-06T13:08:53Z</time>
      </trkpt>
      <trkpt lat="59.9241296" lon="17.7323503">
        <ele>30.4188</ele>
        <time>2014-06-06T13:08:54Z</time>
      </trkpt>
      <trkpt lat="59.9241119" lon="17.7323917">
        <ele>30.4188</ele>
        <time>2014-06-06T13:08:55Z</time>
      </trkpt>
      <trkpt lat="59.9240907" lon="17.7324309">
        <ele>30.8995</ele>
        <time>2014-06-06T13:08:56Z</time>
      </trkpt>
      <trkpt lat="59.9240653" lon="17.7324662">
        <ele>30.8995</ele>
        <time>2014-06-06T13:08:57Z</time>
      </trkpt>
      <trkpt lat="59.9240358" lon="17.7324938">
        <ele>30.8995</ele>
        <time>2014-06-06T13:08:58Z</time>
      </trkpt>
      <trkpt lat="59.924004" lon="17.732512">
        <ele>30.8995</ele>
        <time>2014-06-06T13:08:59Z</time>
      </trkpt>
      <trkpt lat="59.9239698" lon="17.7325177">
        <ele>31.3801</ele>
        <time>2014-06-06T13:09:00Z</time>
      </trkpt>
      <trkpt lat="59.9239356" lon="17.7325176">
        <ele>31.3801</ele>
        <time>2014-06-06T13:09:01Z</time>
      </trkpt>
      <trkpt lat="59.9239011" lon="17.7325107">
        <ele>31.3801</ele>
        <time>2014-06-06T13:09:02Z</time>
      </trkpt>
      <trkpt lat="59.9238644" lon="17.7325">
        <ele>31.3801</ele>
        <time>2014-06-06T13:09:03Z</time>
      </trkpt>
      <trkpt lat="59.9238259" lon="17.7324885">
        <ele>31.3801</ele>
        <time>2014-06-06T13:09:04Z</time>
      </trkpt>
      <trkpt lat="59.923788" lon="17.7324765">
        <ele>31.3801</ele>
        <time>2014-06-06T13:09:05Z</time>
      </trkpt>
      <trkpt lat="59.9237513" lon="17.7324637">
        <ele>31.8607</ele>
        <time>2014-06-06T13:09:06Z</time>
      </trkpt>
      <trkpt lat="59.9237158" lon="17.7324433">
        <ele>31.8607</ele>
        <time>2014-06-06T13:09:07Z</time>
      </trkpt>
      <trkpt lat="59.9236831" lon="17.7324146">
        <ele>31.8607</ele>
        <time>2014-06-06T13:09:08Z</time>
      </trkpt>
      <trkpt lat="59.9236499" lon="17.732386">
        <ele>31.8607</ele>
        <time>2014-06-06T13:09:09Z</time>
      </trkpt>
      <trkpt lat="59.9236163" lon="17.7323551">
        <ele>32.3416</ele>
        <time>2014-06-06T13:09:10Z</time>
      </trkpt>
      <trkpt lat="59.9235852" lon="17.7323171">
        <ele>32.3416</ele>
        <time>2014-06-06T13:09:11Z</time>
      </trkpt>
      <trkpt lat="59.9235494" lon="17.732284">
        <ele>32.3416</ele>
        <time>2014-06-06T13:09:12Z</time>
      </trkpt>
      <trkpt lat="59.9235122" lon="17.7322466">
        <ele>32.3416</ele>
        <time>2014-06-06T13:09:13Z</time>
      </trkpt>
      <trkpt lat="59.923478" lon="17.7321996">
        <ele>32.3416</ele>
        <time>2014-06-06T13:09:14Z</time>
      </trkpt>
      <trkpt lat="59.9234457" lon="17.7321493">
        <ele>32.3416</ele>
        <time>2014-06-06T13:09:15Z</time>
      </trkpt>
      <trkpt lat="59.9234141" lon="17.7320976">
        <ele>32.8223</ele>
        <time>2014-06-06T13:09:16Z</time>
      </trkpt>
      <trkpt lat="59.9233831" lon="17.7320446">
        <ele>32.8223</ele>
        <time>2014-06-06T13:09:17Z</time>
      </trkpt>
      <trkpt lat="59.923352" lon="17.7319914">
        <ele>32.8223</ele>
        <time>2014-06-06T13:09:18Z</time>
      </trkpt>
      <trkpt lat="59.9233198" lon="17.7319393">
        <ele>33.3029</ele>
        <time>2014-06-06T13:09:19Z</time>
      </trkpt>
      <trkpt lat="59.9232881" lon="17.7318867">
        <ele>33.3029</ele>
        <time>2014-06-06T13:09:20Z</time>
      </trkpt>
      <trkpt lat="59.9232562" lon="17.7318348">
        <ele>33.3029</ele>
        <time>2014-06-06T13:09:21Z</time>
      </trkpt>
      <trkpt lat="59.9232234" lon="17.7317824">
        <ele>33.7834</ele>
        <time>2014-06-06T13:09:22Z</time>
      </trkpt>
      <trkpt lat="59.9231908" lon="17.7317266">
        <ele>33.7834</ele>
        <time>2014-06-06T13:09:23Z</time>
      </trkpt>
      <trkpt lat="59.9231599" lon="17.7316686">
        <ele>33.7834</ele>
        <time>2014-06-06T13:09:24Z</time>
      </trkpt>
      <trkpt lat="59.9231309" lon="17.7316125">
        <ele>33.7834</ele>
        <time>2014-06-06T13:09:25Z</time>
      </trkpt>
      <trkpt lat="59.9231016" lon="17.7315561">
        <ele>33.7834</ele>
        <time>2014-06-06T13:09:26Z</time>
      </trkpt>
      <trkpt lat="59.9230759" lon="17.7315002">
        <ele>33.3029</ele>
        <time>2014-06-06T13:09:27Z</time>
      </trkpt>
      <trkpt lat="59.9230516" lon="17.7314472">
        <ele>33.3029</ele>
        <time>2014-06-06T13:09:28Z</time>
      </trkpt>
      <trkpt lat="59.9230236" lon="17.7313983">
        <ele>33.7834</ele>
        <time>2014-06-06T13:09:29Z</time>
      </trkpt>
      <trkpt lat="59.922995" lon="17.7313521">
        <ele>33.7834</ele>
        <time>2014-06-06T13:09:30Z</time>
      </trkpt>
      <trkpt lat="59.9229633" lon="17.7313169">
        <ele>33.3029</ele>
        <time>2014-06-06T13:09:31Z</time>
      </trkpt>
      <trkpt lat="59.9229335" lon="17.7312776">
        <ele>32.8223</ele>
        <time>2014-06-06T13:09:32Z</time>
      </trkpt>
      <trkpt lat="59.9229012" lon="17.731237">
        <ele>32.8223</ele>
        <time>2014-06-06T13:09:33Z</time>
      </trkpt>
      <trkpt lat="59.9228692" lon="17.7311988">
        <ele>32.8223</ele>
        <time>2014-06-06T13:09:34Z</time>
      </trkpt>
      <trkpt lat="59.9228369" lon="17.7311572">
        <ele>33.3029</ele>
        <time>2014-06-06T13:09:35Z</time>
      </trkpt>
      <trkpt lat="59.922804" lon="17.7311138">
        <ele>33.7834</ele>
        <time>2014-06-06T13:09:36Z</time>
      </trkpt>
      <trkpt lat="59.922772" lon="17.7310732">
        <ele>34.2642</ele>
        <time>2014-06-06T13:09:37Z</time>
      </trkpt>
      <trkpt lat="59.922743" lon="17.7310466">
        <ele>34.7449</ele>
        <time>2014-06-06T13:09:38Z</time>
      </trkpt>
      <trkpt lat="59.9227129" lon="17.73102">
        <ele>34.2642</ele>
        <time>2014-06-06T13:09:39Z</time>
      </trkpt>
      <trkpt lat="59.9226786" lon="17.7309908">
        <ele>34.7449</ele>
        <time>2014-06-06T13:09:40Z</time>
      </trkpt>
      <trkpt lat="59.9226419" lon="17.7309518">
        <ele>34.7449</ele>
        <time>2014-06-06T13:09:41Z</time>
      </trkpt>
      <trkpt lat="59.9226004" lon="17.7309103">
        <ele>34.7449</ele>
        <time>2014-06-06T13:09:42Z</time>
      </trkpt>
      <trkpt lat="59.9225541" lon="17.7308735">
        <ele>35.2255</ele>
        <time>2014-06-06T13:09:43Z</time>
      </trkpt>
      <trkpt lat="59.9225085" lon="17.7308279">
        <ele>35.2255</ele>
        <time>2014-06-06T13:09:44Z</time>
      </trkpt>
      <trkpt lat="59.9224643" lon="17.730791">
        <ele>35.2255</ele>
        <time>2014-06-06T13:09:45Z</time>
      </trkpt>
      <trkpt lat="59.9224186" lon="17.7307621">
        <ele>35.7061</ele>
        <time>2014-06-06T13:09:46Z</time>
      </trkpt>
      <trkpt lat="59.922375" lon="17.7307344">
        <ele>35.2255</ele>
        <time>2014-06-06T13:09:47Z</time>
      </trkpt>
      <trkpt lat="59.9223321" lon="17.7307112">
        <ele>35.2255</ele>
        <time>2014-06-06T13:09:48Z</time>
      </trkpt>
      <trkpt lat="59.9222864" lon="17.7306888">
        <ele>35.2255</ele>
        <time>2014-06-06T13:09:49Z</time>
      </trkpt>
      <trkpt lat="59.9222393" lon="17.7306625">
        <ele>35.2255</ele>
        <time>2014-06-06T13:09:50Z</time>
      </trkpt>
      <trkpt lat="59.9221941" lon="17.7306341">
        <ele>34.7449</ele>
        <time>2014-06-06T13:09:51Z</time>
      </trkpt>
      <trkpt lat="59.9221492" lon="17.7306082">
        <ele>34.7449</ele>
        <time>2014-06-06T13:09:52Z</time>
      </trkpt>
      <trkpt lat="59.9221042" lon="17.7305792">
        <ele>34.2642</ele>
        <time>2014-06-06T13:09:53Z</time>
      </trkpt>
      <trkpt lat="59.9220617" lon="17.7305435">
        <ele>34.2642</ele>
        <time>2014-06-06T13:09:54Z</time>
      </trkpt>
      <trkpt lat="59.9220252" lon="17.7304974">
        <ele>34.2642</ele>
        <time>2014-06-06T13:09:55Z</time>
      </trkpt>
      <trkpt lat="59.921999" lon="17.7304327">
        <ele>34.2642</ele>
        <time>2014-06-06T13:09:56Z</time>
      </trkpt>
      <trkpt lat="59.9219867" lon="17.7303537">
        <ele>34.2642</ele>
        <time>2014-06-06T13:09:57Z</time>
      </trkpt>
      <trkpt lat="59.9219855" lon="17.7302693">
        <ele>34.2642</ele>
        <time>2014-06-06T13:09:58Z</time>
      </trkpt>
      <trkpt lat="59.9219886" lon="17.7301835">
        <ele>34.2642</ele>
        <time>2014-06-06T13:09:59Z</time>
      </trkpt>
      <trkpt lat="59.9219938" lon="17.7300953">
        <ele>33.7834</ele>
        <time>2014-06-06T13:10:00Z</time>
      </trkpt>
      <trkpt lat="59.9219979" lon="17.7300028">
        <ele>33.7834</ele>
        <time>2014-06-06T13:10:01Z</time>
      </trkpt>
      <trkpt lat="59.9219991" lon="17.7299082">
        <ele>33.7834</ele>
        <time>2014-06-06T13:10:02Z</time>
      </trkpt>
      <trkpt lat="59.9219927" lon="17.7298147">
        <ele>33.7834</ele>
        <time>2014-06-06T13:10:03Z</time>
      </trkpt>
      <trkpt lat="59.921977" lon="17.7297249">
        <ele>33.7834</ele>
        <time>2014-06-06T13:10:04Z</time>
      </trkpt>
      <trkpt lat="59.9219579" lon="17.7296339">
        <ele>33.7834</ele>
        <time>2014-06-06T13:10:05Z</time>
      </trkpt>
      <trkpt lat="59.9219384" lon="17.7295411">
        <ele>33.3029</ele>
        <time>2014-06-06T13:10:06Z</time>
      </trkpt>
      <trkpt lat="59.9219193" lon="17.7294479">
        <ele>33.7834</ele>
        <time>2014-06-06T13:10:07Z</time>
      </trkpt>
      <trkpt lat="59.9219001" lon="17.7293573">
        <ele>33.7834</ele>
        <time>2014-06-06T13:10:08Z</time>
      </trkpt>
      <trkpt lat="59.9218804" lon="17.7292684">
        <ele>33.3029</ele>
        <time>2014-06-06T13:10:09Z</time>
      </trkpt>
      <trkpt lat="59.9218603" lon="17.7291796">
        <ele>33.3029</ele>
        <time>2014-06-06T13:10:10Z</time>
      </trkpt>
      <trkpt lat="59.921841" lon="17.7290899">
        <ele>33.3029</ele>
        <time>2014-06-06T13:10:11Z</time>
      </trkpt>
      <trkpt lat="59.9218173" lon="17.7290051">
        <ele>33.3029</ele>
        <time>2014-06-06T13:10:12Z</time>
      </trkpt>
      <trkpt lat="59.9217825" lon="17.7289364">
        <ele>33.3029</ele>
        <time>2014-06-06T13:10:13Z</time>
      </trkpt>
      <trkpt lat="59.9217382" lon="17.7288869">
        <ele>33.3029</ele>
        <time>2014-06-06T13:10:14Z</time>
      </trkpt>
      <trkpt lat="59.9216911" lon="17.7288423">
        <ele>33.7834</ele>
        <time>2014-06-06T13:10:15Z</time>
      </trkpt>
      <trkpt lat="59.9216486" lon="17.7287873">
        <ele>33.7834</ele>
        <time>2014-06-06T13:10:16Z</time>
      </trkpt>
      <trkpt lat="59.921611" lon="17.7287191">
        <ele>33.7834</ele>
        <time>2014-06-06T13:10:17Z</time>
      </trkpt>
      <trkpt lat="59.9215793" lon="17.7286402">
        <ele>33.7834</ele>
        <time>2014-06-06T13:10:18Z</time>
      </trkpt>
      <trkpt lat="59.9215564" lon="17.7285398">
        <ele>33.7834</ele>
        <time>2014-06-06T13:10:19Z</time>
      </trkpt>
      <trkpt lat="59.9215324" lon="17.7284396">
        <ele>33.7834</ele>
        <time>2014-06-06T13:10:20Z</time>
      </trkpt>
      <trkpt lat="59.9215089" lon="17.7283445">
        <ele>33.7834</ele>
        <time>2014-06-06T13:10:21Z</time>
      </trkpt>
      <trkpt lat="59.9214899" lon="17.7282514">
        <ele>33.7834</ele>
        <time>2014-06-06T13:10:22Z</time>
      </trkpt>
      <trkpt lat="59.9214697" lon="17.7281615">
        <ele>33.7834</ele>
        <time>2014-06-06T13:10:23Z</time>
      </trkpt>
      <trkpt lat="59.9214459" lon="17.7280757">
        <ele>33.7834</ele>
        <time>2014-06-06T13:10:24Z</time>
      </trkpt>
      <trkpt lat="59.9214219" lon="17.7279952">
        <ele>33.7834</ele>
        <time>2014-06-06T13:10:25Z</time>
      </trkpt>
      <trkpt lat="59.9213962" lon="17.727917">
        <ele>33.7834</ele>
        <time>2014-06-06T13:10:26Z</time>
      </trkpt>
      <trkpt lat="59.921369" lon="17.7278379">
        <ele>33.3029</ele>
        <time>2014-06-06T13:10:27Z</time>
      </trkpt>
      <trkpt lat="59.9213396" lon="17.7277566">
        <ele>33.3029</ele>
        <time>2014-06-06T13:10:28Z</time>
      </trkpt>
      <trkpt lat="59.921307" lon="17.7276736">
        <ele>33.3029</ele>
        <time>2014-06-06T13:10:29Z</time>
      </trkpt>
      <trkpt lat="59.9212707" lon="17.7275915">
        <ele>33.3029</ele>
        <time>2014-06-06T13:10:30Z</time>
      </trkpt>
      <trkpt lat="59.9212306" lon="17.72751">
        <ele>33.3029</ele>
        <time>2014-06-06T13:10:31Z</time>
      </trkpt>
      <trkpt lat="59.9211893" lon="17.7274261">
        <ele>33.3029</ele>
        <time>2014-06-06T13:10:32Z</time>
      </trkpt>
      <trkpt lat="59.9211465" lon="17.7273422">
        <ele>33.3029</ele>
        <time>2014-06-06T13:10:33Z</time>
      </trkpt>
      <trkpt lat="59.9211019" lon="17.7272589">
        <ele>33.3029</ele>
        <time>2014-06-06T13:10:34Z</time>
      </trkpt>
      <trkpt lat="59.9210568" lon="17.7271739">
        <ele>33.3029</ele>
        <time>2014-06-06T13:10:35Z</time>
      </trkpt>
      <trkpt lat="59.9210126" lon="17.7270881">
        <ele>33.3029</ele>
        <time>2014-06-06T13:10:36Z</time>
      </trkpt>
      <trkpt lat="59.9209688" lon="17.7270022">
        <ele>33.3029</ele>
        <time>2014-06-06T13:10:37Z</time>
      </trkpt>
      <trkpt lat="59.9209251" lon="17.726916">
        <ele>33.3029</ele>
        <time>2014-06-06T13:10:38Z</time>
      </trkpt>
      <trkpt lat="59.9208817" lon="17.7268299">
        <ele>33.7834</ele>
        <time>2014-06-06T13:10:39Z</time>
      </trkpt>
      <trkpt lat="59.9208397" lon="17.7267485">
        <ele>33.7834</ele>
        <time>2014-06-06T13:10:40Z</time>
      </trkpt>
      <trkpt lat="59.9207951" lon="17.7266729">
        <ele>33.7834</ele>
        <time>2014-06-06T13:10:41Z</time>
      </trkpt>
      <trkpt lat="59.9207522" lon="17.7266021">
        <ele>33.3029</ele>
        <time>2014-06-06T13:10:42Z</time>
      </trkpt>
      <trkpt lat="59.9207107" lon="17.7265329">
        <ele>33.3029</ele>
        <time>2014-06-06T13:10:43Z</time>
      </trkpt>
      <trkpt lat="59.9206698" lon="17.7264608">
        <ele>32.8223</ele>
        <time>2014-06-06T13:10:44Z</time>
      </trkpt>
      <trkpt lat="59.9206278" lon="17.7263787">
        <ele>33.3029</ele>
        <time>2014-06-06T13:10:45Z</time>
      </trkpt>
      <trkpt lat="59.9205868" lon="17.7262987">
        <ele>33.3029</ele>
        <time>2014-06-06T13:10:46Z</time>
      </trkpt>
      <trkpt lat="59.920545" lon="17.7262145">
        <ele>33.3029</ele>
        <time>2014-06-06T13:10:47Z</time>
      </trkpt>
      <trkpt lat="59.9205039" lon="17.7261288">
        <ele>33.7834</ele>
        <time>2014-06-06T13:10:48Z</time>
      </trkpt>
      <trkpt lat="59.920465" lon="17.7260389">
        <ele>33.7834</ele>
        <time>2014-06-06T13:10:49Z</time>
      </trkpt>
      <trkpt lat="59.9204294" lon="17.7259218">
        <ele>33.7834</ele>
        <time>2014-06-06T13:10:50Z</time>
      </trkpt>
      <trkpt lat="59.9204003" lon="17.7258218">
        <ele>33.7834</ele>
        <time>2014-06-06T13:10:51Z</time>
      </trkpt>
      <trkpt lat="59.920364" lon="17.7257341">
        <ele>33.7834</ele>
        <time>2014-06-06T13:10:52Z</time>
      </trkpt>
      <trkpt lat="59.9203284" lon="17.725655">
        <ele>33.7834</ele>
        <time>2014-06-06T13:10:53Z</time>
      </trkpt>
      <trkpt lat="59.9202916" lon="17.7255736">
        <ele>33.7834</ele>
        <time>2014-06-06T13:10:54Z</time>
      </trkpt>
      <trkpt lat="59.9202508" lon="17.7255037">
        <ele>33.7834</ele>
        <time>2014-06-06T13:10:55Z</time>
      </trkpt>
      <trkpt lat="59.9202058" lon="17.7254477">
        <ele>34.2642</ele>
        <time>2014-06-06T13:10:56Z</time>
      </trkpt>
      <trkpt lat="59.9201606" lon="17.7253946">
        <ele>34.2642</ele>
        <time>2014-06-06T13:10:57Z</time>
      </trkpt>
      <trkpt lat="59.9201125" lon="17.7253555">
        <ele>33.7834</ele>
        <time>2014-06-06T13:10:58Z</time>
      </trkpt>
      <trkpt lat="59.9200607" lon="17.7253302">
        <ele>33.7834</ele>
        <time>2014-06-06T13:10:59Z</time>
      </trkpt>
      <trkpt lat="59.9200076" lon="17.7253126">
        <ele>33.7834</ele>
        <time>2014-06-06T13:11:00Z</time>
      </trkpt>
      <trkpt lat="59.9199508" lon="17.725281">
        <ele>33.7834</ele>
        <time>2014-06-06T13:11:01Z</time>
      </trkpt>
      <trkpt lat="59.9198882" lon="17.7252418">
        <ele>34.2642</ele>
        <time>2014-06-06T13:11:02Z</time>
      </trkpt>
      <trkpt lat="59.9198347" lon="17.7252129">
        <ele>34.2642</ele>
        <time>2014-06-06T13:11:03Z</time>
      </trkpt>
      <trkpt lat="59.9197742" lon="17.7251754">
        <ele>34.2642</ele>
        <time>2014-06-06T13:11:04Z</time>
      </trkpt>
      <trkpt lat="59.9197187" lon="17.7251363">
        <ele>33.7834</ele>
        <time>2014-06-06T13:11:05Z</time>
      </trkpt>
      <trkpt lat="59.9196633" lon="17.7250944">
        <ele>33.7834</ele>
        <time>2014-06-06T13:11:06Z</time>
      </trkpt>
      <trkpt lat="59.9196088" lon="17.725051">
        <ele>33.7834</ele>
        <time>2014-06-06T13:11:07Z</time>
      </trkpt>
      <trkpt lat="59.9195555" lon="17.7249983">
        <ele>34.2642</ele>
        <time>2014-06-06T13:11:08Z</time>
      </trkpt>
      <trkpt lat="59.9195059" lon="17.7249535">
        <ele>34.2642</ele>
        <time>2014-06-06T13:11:09Z</time>
      </trkpt>
      <trkpt lat="59.9194647" lon="17.7249292">
        <ele>33.7834</ele>
        <time>2014-06-06T13:11:10Z</time>
      </trkpt>
      <trkpt lat="59.919414" lon="17.7248852">
        <ele>33.7834</ele>
        <time>2014-06-06T13:11:11Z</time>
      </trkpt>
      <trkpt lat="59.9193626" lon="17.7248436">
        <ele>33.7834</ele>
        <time>2014-06-06T13:11:12Z</time>
      </trkpt>
      <trkpt lat="59.9193095" lon="17.7248013">
        <ele>33.7834</ele>
        <time>2014-06-06T13:11:13Z</time>
      </trkpt>
      <trkpt lat="59.9192551" lon="17.7247676">
        <ele>33.7834</ele>
        <time>2014-06-06T13:11:14Z</time>
      </trkpt>
      <trkpt lat="59.9191969" lon="17.7247587">
        <ele>33.3029</ele>
        <time>2014-06-06T13:11:15Z</time>
      </trkpt>
      <trkpt lat="59.9191374" lon="17.7247779">
        <ele>33.3029</ele>
        <time>2014-06-06T13:11:16Z</time>
      </trkpt>
      <trkpt lat="59.9190832" lon="17.7248329">
        <ele>33.3029</ele>
        <time>2014-06-06T13:11:17Z</time>
      </trkpt>
      <trkpt lat="59.9190374" lon="17.7249139">
        <ele>33.3029</ele>
        <time>2014-06-06T13:11:18Z</time>
      </trkpt>
      <trkpt lat="59.9189983" lon="17.7250075">
        <ele>33.7834</ele>
        <time>2014-06-06T13:11:19Z</time>
      </trkpt>
      <trkpt lat="59.9189653" lon="17.725109">
        <ele>33.7834</ele>
        <time>2014-06-06T13:11:20Z</time>
      </trkpt>
      <trkpt lat="59.9189337" lon="17.7252178">
        <ele>33.7834</ele>
        <time>2014-06-06T13:11:21Z</time>
      </trkpt>
      <trkpt lat="59.9189042" lon="17.725327">
        <ele>34.2642</ele>
        <time>2014-06-06T13:11:22Z</time>
      </trkpt>
      <trkpt lat="59.9188762" lon="17.7254348">
        <ele>34.2642</ele>
        <time>2014-06-06T13:11:23Z</time>
      </trkpt>
      <trkpt lat="59.9188485" lon="17.7255417">
        <ele>34.2642</ele>
        <time>2014-06-06T13:11:24Z</time>
      </trkpt>
      <trkpt lat="59.9188214" lon="17.7256477">
        <ele>34.7449</ele>
        <time>2014-06-06T13:11:25Z</time>
      </trkpt>
      <trkpt lat="59.9187939" lon="17.7257525">
        <ele>34.7449</ele>
        <time>2014-06-06T13:11:26Z</time>
      </trkpt>
      <trkpt lat="59.9187666" lon="17.725858">
        <ele>34.7449</ele>
        <time>2014-06-06T13:11:27Z</time>
      </trkpt>
      <trkpt lat="59.9187402" lon="17.7259649">
        <ele>34.7449</ele>
        <time>2014-06-06T13:11:28Z</time>
      </trkpt>
      <trkpt lat="59.9187138" lon="17.7260725">
        <ele>34.7449</ele>
        <time>2014-06-06T13:11:29Z</time>
      </trkpt>
      <trkpt lat="59.9186858" lon="17.7261787">
        <ele>34.7449</ele>
        <time>2014-06-06T13:11:30Z</time>
      </trkpt>
      <trkpt lat="59.9186553" lon="17.7262837">
        <ele>34.7449</ele>
        <time>2014-06-06T13:11:31Z</time>
      </trkpt>
      <trkpt lat="59.9186209" lon="17.7263798">
        <ele>34.7449</ele>
        <time>2014-06-06T13:11:32Z</time>
      </trkpt>
      <trkpt lat="59.9185794" lon="17.7264625">
        <ele>34.7449</ele>
        <time>2014-06-06T13:11:33Z</time>
      </trkpt>
      <trkpt lat="59.9185286" lon="17.7265223">
        <ele>35.2255</ele>
        <time>2014-06-06T13:11:34Z</time>
      </trkpt>
      <trkpt lat="59.9184715" lon="17.7265474">
        <ele>35.2255</ele>
        <time>2014-06-06T13:11:35Z</time>
      </trkpt>
      <trkpt lat="59.9184147" lon="17.7265367">
        <ele>34.7449</ele>
        <time>2014-06-06T13:11:36Z</time>
      </trkpt>
      <trkpt lat="59.9183615" lon="17.7265024">
        <ele>34.7449</ele>
        <time>2014-06-06T13:11:37Z</time>
      </trkpt>
      <trkpt lat="59.9183128" lon="17.7264522">
        <ele>34.7449</ele>
        <time>2014-06-06T13:11:38Z</time>
      </trkpt>
      <trkpt lat="59.9182678" lon="17.7263952">
        <ele>34.7449</ele>
        <time>2014-06-06T13:11:39Z</time>
      </trkpt>
      <trkpt lat="59.9182243" lon="17.7263344">
        <ele>34.2642</ele>
        <time>2014-06-06T13:11:40Z</time>
      </trkpt>
      <trkpt lat="59.9181806" lon="17.7262746">
        <ele>34.2642</ele>
        <time>2014-06-06T13:11:41Z</time>
      </trkpt>
      <trkpt lat="59.9181361" lon="17.7262179">
        <ele>33.7834</ele>
        <time>2014-06-06T13:11:42Z</time>
      </trkpt>
      <trkpt lat="59.9180917" lon="17.7261668">
        <ele>33.7834</ele>
        <time>2014-06-06T13:11:43Z</time>
      </trkpt>
      <trkpt lat="59.9180476" lon="17.7261176">
        <ele>33.7834</ele>
        <time>2014-06-06T13:11:44Z</time>
      </trkpt>
      <trkpt lat="59.9180039" lon="17.7260666">
        <ele>33.3029</ele>
        <time>2014-06-06T13:11:45Z</time>
      </trkpt>
      <trkpt lat="59.9179611" lon="17.7260128">
        <ele>33.7834</ele>
        <time>2014-06-06T13:11:46Z</time>
      </trkpt>
      <trkpt lat="59.9179205" lon="17.7259589">
        <ele>33.7834</ele>
        <time>2014-06-06T13:11:47Z</time>
      </trkpt>
      <trkpt lat="59.9178832" lon="17.7259048">
        <ele>33.7834</ele>
        <time>2014-06-06T13:11:48Z</time>
      </trkpt>
      <trkpt lat="59.9178487" lon="17.7258549">
        <ele>34.2642</ele>
        <time>2014-06-06T13:11:49Z</time>
      </trkpt>
      <trkpt lat="59.9178167" lon="17.7258032">
        <ele>34.2642</ele>
        <time>2014-06-06T13:11:50Z</time>
      </trkpt>
      <trkpt lat="59.917788" lon="17.7257545">
        <ele>34.7449</ele>
        <time>2014-06-06T13:11:51Z</time>
      </trkpt>
      <trkpt lat="59.9177605" lon="17.7257052">
        <ele>35.2255</ele>
        <time>2014-06-06T13:11:52Z</time>
      </trkpt>
      <trkpt lat="59.9177347" lon="17.7256577">
        <ele>35.2255</ele>
        <time>2014-06-06T13:11:53Z</time>
      </trkpt>
      <trkpt lat="59.9177104" lon="17.7256154">
        <ele>35.7061</ele>
        <time>2014-06-06T13:11:54Z</time>
      </trkpt>
      <trkpt lat="59.9176876" lon="17.7255721">
        <ele>35.7061</ele>
        <time>2014-06-06T13:11:55Z</time>
      </trkpt>
      <trkpt lat="59.9176659" lon="17.7255297">
        <ele>35.7061</ele>
        <time>2014-06-06T13:11:56Z</time>
      </trkpt>
      <trkpt lat="59.9176449" lon="17.7254882">
        <ele>35.7061</ele>
        <time>2014-06-06T13:11:57Z</time>
      </trkpt>
      <trkpt lat="59.9176234" lon="17.7254452">
        <ele>35.7061</ele>
        <time>2014-06-06T13:11:58Z</time>
      </trkpt>
      <trkpt lat="59.9176005" lon="17.7254021">
        <ele>36.1868</ele>
        <time>2014-06-06T13:11:59Z</time>
      </trkpt>
      <trkpt lat="59.9175771" lon="17.7253585">
        <ele>36.1868</ele>
        <time>2014-06-06T13:12:00Z</time>
      </trkpt>
      <trkpt lat="59.9175534" lon="17.7253152">
        <ele>36.1868</ele>
        <time>2014-06-06T13:12:01Z</time>
      </trkpt>
      <trkpt lat="59.9175284" lon="17.7252758">
        <ele>36.1868</ele>
        <time>2014-06-06T13:12:02Z</time>
      </trkpt>
      <trkpt lat="59.9175027" lon="17.7252394">
        <ele>36.1868</ele>
        <time>2014-06-06T13:12:03Z</time>
      </trkpt>
      <trkpt lat="59.9174773" lon="17.7252003">
        <ele>36.1868</ele>
        <time>2014-06-06T13:12:04Z</time>
      </trkpt>
      <trkpt lat="59.9174509" lon="17.7251638">
        <ele>36.1868</ele>
        <time>2014-06-06T13:12:05Z</time>
      </trkpt>
      <trkpt lat="59.9174234" lon="17.7251267">
        <ele>36.6675</ele>
        <time>2014-06-06T13:12:06Z</time>
      </trkpt>
      <trkpt lat="59.9173955" lon="17.7250892">
        <ele>36.6675</ele>
        <time>2014-06-06T13:12:07Z</time>
      </trkpt>
      <trkpt lat="59.9173662" lon="17.7250525">
        <ele>36.6675</ele>
        <time>2014-06-06T13:12:08Z</time>
      </trkpt>
      <trkpt lat="59.9173353" lon="17.7250148">
        <ele>36.6675</ele>
        <time>2014-06-06T13:12:09Z</time>
      </trkpt>
      <trkpt lat="59.9173033" lon="17.7249743">
        <ele>36.6675</ele>
        <time>2014-06-06T13:12:10Z</time>
      </trkpt>
      <trkpt lat="59.9172702" lon="17.7249292">
        <ele>36.6675</ele>
        <time>2014-06-06T13:12:11Z</time>
      </trkpt>
      <trkpt lat="59.9172359" lon="17.7248795">
        <ele>37.1481</ele>
        <time>2014-06-06T13:12:12Z</time>
      </trkpt>
      <trkpt lat="59.9172021" lon="17.724832">
        <ele>37.1481</ele>
        <time>2014-06-06T13:12:13Z</time>
      </trkpt>
      <trkpt lat="59.9171706" lon="17.7247863">
        <ele>37.6287</ele>
        <time>2014-06-06T13:12:14Z</time>
      </trkpt>
      <trkpt lat="59.9171416" lon="17.7247413">
        <ele>37.6287</ele>
        <time>2014-06-06T13:12:15Z</time>
      </trkpt>
      <trkpt lat="59.9171126" lon="17.7247008">
        <ele>37.6287</ele>
        <time>2014-06-06T13:12:16Z</time>
      </trkpt>
      <trkpt lat="59.9170845" lon="17.724661">
        <ele>38.1094</ele>
        <time>2014-06-06T13:12:17Z</time>
      </trkpt>
      <trkpt lat="59.9170567" lon="17.7246225">
        <ele>38.1094</ele>
        <time>2014-06-06T13:12:18Z</time>
      </trkpt>
      <trkpt lat="59.9170304" lon="17.7245852">
        <ele>37.6287</ele>
        <time>2014-06-06T13:12:19Z</time>
      </trkpt>
      <trkpt lat="59.9170042" lon="17.7245501">
        <ele>37.1481</ele>
        <time>2014-06-06T13:12:20Z</time>
      </trkpt>
      <trkpt lat="59.9169762" lon="17.7245155">
        <ele>37.1481</ele>
        <time>2014-06-06T13:12:21Z</time>
      </trkpt>
      <trkpt lat="59.9169504" lon="17.7244693">
        <ele>37.1481</ele>
        <time>2014-06-06T13:12:22Z</time>
      </trkpt>
      <trkpt lat="59.9169236" lon="17.7244137">
        <ele>37.1481</ele>
        <time>2014-06-06T13:12:23Z</time>
      </trkpt>
      <trkpt lat="59.916898" lon="17.7243616">
        <ele>36.6675</ele>
        <time>2014-06-06T13:12:24Z</time>
      </trkpt>
      <trkpt lat="59.9168711" lon="17.7243149">
        <ele>36.6675</ele>
        <time>2014-06-06T13:12:25Z</time>
      </trkpt>
      <trkpt lat="59.916846" lon="17.7242601">
        <ele>36.6675</ele>
        <time>2014-06-06T13:12:26Z</time>
      </trkpt>
      <trkpt lat="59.916822" lon="17.7242025">
        <ele>37.1481</ele>
        <time>2014-06-06T13:12:27Z</time>
      </trkpt>
      <trkpt lat="59.9167951" lon="17.7241404">
        <ele>37.6287</ele>
        <time>2014-06-06T13:12:28Z</time>
      </trkpt>
      <trkpt lat="59.9167711" lon="17.7240832">
        <ele>38.1094</ele>
        <time>2014-06-06T13:12:29Z</time>
      </trkpt>
      <trkpt lat="59.9167474" lon="17.7240238">
        <ele>38.5901</ele>
        <time>2014-06-06T13:12:30Z</time>
      </trkpt>
      <trkpt lat="59.9167251" lon="17.7239664">
        <ele>38.5901</ele>
        <time>2014-06-06T13:12:31Z</time>
      </trkpt>
      <trkpt lat="59.9167034" lon="17.7239035">
        <ele>39.0707</ele>
        <time>2014-06-06T13:12:32Z</time>
      </trkpt>
      <trkpt lat="59.9166802" lon="17.7238441">
        <ele>39.5513</ele>
        <time>2014-06-06T13:12:33Z</time>
      </trkpt>
      <trkpt lat="59.9166547" lon="17.7237881">
        <ele>40.0321</ele>
        <time>2014-06-06T13:12:34Z</time>
      </trkpt>
      <trkpt lat="59.9166334" lon="17.7237361">
        <ele>40.0321</ele>
        <time>2014-06-06T13:12:35Z</time>
      </trkpt>
      <trkpt lat="59.9166096" lon="17.7236762">
        <ele>40.0321</ele>
        <time>2014-06-06T13:12:36Z</time>
      </trkpt>
      <trkpt lat="59.9165872" lon="17.7236107">
        <ele>40.0321</ele>
        <time>2014-06-06T13:12:37Z</time>
      </trkpt>
      <trkpt lat="59.916566" lon="17.7235387">
        <ele>40.5128</ele>
        <time>2014-06-06T13:12:38Z</time>
      </trkpt>
      <trkpt lat="59.9165449" lon="17.7234681">
        <ele>40.5128</ele>
        <time>2014-06-06T13:12:39Z</time>
      </trkpt>
      <trkpt lat="59.9165225" lon="17.7233904">
        <ele>41.474</ele>
        <time>2014-06-06T13:12:40Z</time>
      </trkpt>
      <trkpt lat="59.9165025" lon="17.7233208">
        <ele>41.474</ele>
        <time>2014-06-06T13:12:41Z</time>
      </trkpt>
      <trkpt lat="59.9164801" lon="17.7232393">
        <ele>41.9547</ele>
        <time>2014-06-06T13:12:42Z</time>
      </trkpt>
      <trkpt lat="59.9164563" lon="17.7231727">
        <ele>41.9547</ele>
        <time>2014-06-06T13:12:43Z</time>
      </trkpt>
      <trkpt lat="59.9164267" lon="17.723098">
        <ele>42.916</ele>
        <time>2014-06-06T13:12:44Z</time>
      </trkpt>
      <trkpt lat="59.9164009" lon="17.7230159">
        <ele>43.3966</ele>
        <time>2014-06-06T13:12:45Z</time>
      </trkpt>
      <trkpt lat="59.9163751" lon="17.722926">
        <ele>43.8773</ele>
        <time>2014-06-06T13:12:46Z</time>
      </trkpt>
      <trkpt lat="59.916349" lon="17.7228431">
        <ele>43.8773</ele>
        <time>2014-06-06T13:12:47Z</time>
      </trkpt>
      <trkpt lat="59.9163221" lon="17.7227607">
        <ele>43.8773</ele>
        <time>2014-06-06T13:12:48Z</time>
      </trkpt>
      <trkpt lat="59.916295" lon="17.7226853">
        <ele>43.8773</ele>
        <time>2014-06-06T13:12:49Z</time>
      </trkpt>
      <trkpt lat="59.9162689" lon="17.7226118">
        <ele>43.8773</ele>
        <time>2014-06-06T13:12:50Z</time>
      </trkpt>
      <trkpt lat="59.9162428" lon="17.7225317">
        <ele>43.8773</ele>
        <time>2014-06-06T13:12:51Z</time>
      </trkpt>
      <trkpt lat="59.9162154" lon="17.7224496">
        <ele>43.3966</ele>
        <time>2014-06-06T13:12:52Z</time>
      </trkpt>
      <trkpt lat="59.9161841" lon="17.7223646">
        <ele>43.3966</ele>
        <time>2014-06-06T13:12:53Z</time>
      </trkpt>
      <trkpt lat="59.9161511" lon="17.7222729">
        <ele>42.916</ele>
        <time>2014-06-06T13:12:54Z</time>
      </trkpt>
      <trkpt lat="59.9161154" lon="17.7221735">
        <ele>42.4354</ele>
        <time>2014-06-06T13:12:55Z</time>
      </trkpt>
      <trkpt lat="59.9160771" lon="17.7220714">
        <ele>42.4354</ele>
        <time>2014-06-06T13:12:56Z</time>
      </trkpt>
      <trkpt lat="59.9160351" lon="17.7219713">
        <ele>41.9547</ele>
        <time>2014-06-06T13:12:57Z</time>
      </trkpt>
      <trkpt lat="59.9159892" lon="17.7218715">
        <ele>41.9547</ele>
        <time>2014-06-06T13:12:58Z</time>
      </trkpt>
      <trkpt lat="59.9159429" lon="17.7217714">
        <ele>41.474</ele>
        <time>2014-06-06T13:12:59Z</time>
      </trkpt>
      <trkpt lat="59.9158961" lon="17.7216692">
        <ele>41.474</ele>
        <time>2014-06-06T13:13:00Z</time>
      </trkpt>
      <trkpt lat="59.9158482" lon="17.7215704">
        <ele>41.474</ele>
        <time>2014-06-06T13:13:01Z</time>
      </trkpt>
      <trkpt lat="59.9157979" lon="17.721476">
        <ele>41.474</ele>
        <time>2014-06-06T13:13:02Z</time>
      </trkpt>
      <trkpt lat="59.9157451" lon="17.7213881">
        <ele>41.474</ele>
        <time>2014-06-06T13:13:03Z</time>
      </trkpt>
      <trkpt lat="59.9156901" lon="17.7213042">
        <ele>41.474</ele>
        <time>2014-06-06T13:13:04Z</time>
      </trkpt>
      <trkpt lat="59.9156327" lon="17.7212259">
        <ele>40.9934</ele>
        <time>2014-06-06T13:13:05Z</time>
      </trkpt>
      <trkpt lat="59.9155746" lon="17.7211494">
        <ele>40.9934</ele>
        <time>2014-06-06T13:13:06Z</time>
      </trkpt>
      <trkpt lat="59.915515" lon="17.7210717">
        <ele>40.5128</ele>
        <time>2014-06-06T13:13:07Z</time>
      </trkpt>
      <trkpt lat="59.9154535" lon="17.7209888">
        <ele>40.5128</ele>
        <time>2014-06-06T13:13:08Z</time>
      </trkpt>
      <trkpt lat="59.9153933" lon="17.72091">
        <ele>40.5128</ele>
        <time>2014-06-06T13:13:09Z</time>
      </trkpt>
      <trkpt lat="59.9153321" lon="17.72084">
        <ele>40.0321</ele>
        <time>2014-06-06T13:13:10Z</time>
      </trkpt>
      <trkpt lat="59.9152702" lon="17.7207803">
        <ele>40.0321</ele>
        <time>2014-06-06T13:13:11Z</time>
      </trkpt>
      <trkpt lat="59.9152089" lon="17.7207303">
        <ele>39.5513</ele>
        <time>2014-06-06T13:13:12Z</time>
      </trkpt>
      <trkpt lat="59.9151468" lon="17.7206832">
        <ele>39.5513</ele>
        <time>2014-06-06T13:13:13Z</time>
      </trkpt>
      <trkpt lat="59.9150856" lon="17.7206443">
        <ele>39.0707</ele>
        <time>2014-06-06T13:13:14Z</time>
      </trkpt>
      <trkpt lat="59.9150236" lon="17.7206144">
        <ele>38.5901</ele>
        <time>2014-06-06T13:13:15Z</time>
      </trkpt>
      <trkpt lat="59.9149617" lon="17.7205907">
        <ele>38.1094</ele>
        <time>2014-06-06T13:13:16Z</time>
      </trkpt>
      <trkpt lat="59.9148993" lon="17.7205682">
        <ele>37.6287</ele>
        <time>2014-06-06T13:13:17Z</time>
      </trkpt>
      <trkpt lat="59.914836" lon="17.720548">
        <ele>37.1481</ele>
        <time>2014-06-06T13:13:18Z</time>
      </trkpt>
      <trkpt lat="59.9147751" lon="17.7205289">
        <ele>37.1481</ele>
        <time>2014-06-06T13:13:19Z</time>
      </trkpt>
      <trkpt lat="59.9147111" lon="17.7205014">
        <ele>36.6675</ele>
        <time>2014-06-06T13:13:20Z</time>
      </trkpt>
      <trkpt lat="59.9146446" lon="17.7204747">
        <ele>36.1868</ele>
        <time>2014-06-06T13:13:21Z</time>
      </trkpt>
      <trkpt lat="59.914578" lon="17.7204488">
        <ele>36.1868</ele>
        <time>2014-06-06T13:13:22Z</time>
      </trkpt>
      <trkpt lat="59.9145147" lon="17.7204257">
        <ele>35.7061</ele>
        <time>2014-06-06T13:13:23Z</time>
      </trkpt>
      <trkpt lat="59.914454" lon="17.7204055">
        <ele>35.2255</ele>
        <time>2014-06-06T13:13:24Z</time>
      </trkpt>
      <trkpt lat="59.9143929" lon="17.7203787">
        <ele>35.2255</ele>
        <time>2014-06-06T13:13:25Z</time>
      </trkpt>
      <trkpt lat="59.914333" lon="17.7203454">
        <ele>35.7061</ele>
        <time>2014-06-06T13:13:26Z</time>
      </trkpt>
      <trkpt lat="59.9142738" lon="17.7203035">
        <ele>35.7061</ele>
        <time>2014-06-06T13:13:27Z</time>
      </trkpt>
      <trkpt lat="59.9142162" lon="17.7202597">
        <ele>35.7061</ele>
        <time>2014-06-06T13:13:28Z</time>
      </trkpt>
      <trkpt lat="59.9141596" lon="17.720215">
        <ele>36.1868</ele>
        <time>2014-06-06T13:13:29Z</time>
      </trkpt>
      <trkpt lat="59.9141038" lon="17.7201681">
        <ele>35.7061</ele>
        <time>2014-06-06T13:13:30Z</time>
      </trkpt>
      <trkpt lat="59.9140476" lon="17.7201191">
        <ele>35.7061</ele>
        <time>2014-06-06T13:13:31Z</time>
      </trkpt>
      <trkpt lat="59.9139902" lon="17.7200694">
        <ele>35.7061</ele>
        <time>2014-06-06T13:13:32Z</time>
      </trkpt>
      <trkpt lat="59.913932" lon="17.720019">
        <ele>35.7061</ele>
        <time>2014-06-06T13:13:33Z</time>
      </trkpt>
      <trkpt lat="59.9138719" lon="17.7199641">
        <ele>35.7061</ele>
        <time>2014-06-06T13:13:34Z</time>
      </trkpt>
      <trkpt lat="59.9138103" lon="17.7199085">
        <ele>35.2255</ele>
        <time>2014-06-06T13:13:35Z</time>
      </trkpt>
      <trkpt lat="59.9137488" lon="17.71986">
        <ele>35.2255</ele>
        <time>2014-06-06T13:13:36Z</time>
      </trkpt>
      <trkpt lat="59.9136737" lon="17.7197588">
        <ele>35.7061</ele>
        <time>2014-06-06T13:13:37Z</time>
      </trkpt>
      <trkpt lat="59.9136093" lon="17.7197119">
        <ele>35.7061</ele>
        <time>2014-06-06T13:13:38Z</time>
      </trkpt>
      <trkpt lat="59.9135476" lon="17.7196716">
        <ele>35.7061</ele>
        <time>2014-06-06T13:13:39Z</time>
      </trkpt>
      <trkpt lat="59.9134865" lon="17.7196265">
        <ele>35.2255</ele>
        <time>2014-06-06T13:13:40Z</time>
      </trkpt>
      <trkpt lat="59.9134254" lon="17.7195716">
        <ele>35.2255</ele>
        <time>2014-06-06T13:13:41Z</time>
      </trkpt>
      <trkpt lat="59.9133652" lon="17.7195162">
        <ele>35.2255</ele>
        <time>2014-06-06T13:13:42Z</time>
      </trkpt>
      <trkpt lat="59.9133048" lon="17.7194611">
        <ele>35.2255</ele>
        <time>2014-06-06T13:13:43Z</time>
      </trkpt>
      <trkpt lat="59.913245" lon="17.7194052">
        <ele>34.7449</ele>
        <time>2014-06-06T13:13:44Z</time>
      </trkpt>
      <trkpt lat="59.9131859" lon="17.7193437">
        <ele>34.7449</ele>
        <time>2014-06-06T13:13:45Z</time>
      </trkpt>
      <trkpt lat="59.9131275" lon="17.7192807">
        <ele>34.7449</ele>
        <time>2014-06-06T13:13:46Z</time>
      </trkpt>
      <trkpt lat="59.9130686" lon="17.7192131">
        <ele>34.2642</ele>
        <time>2014-06-06T13:13:47Z</time>
      </trkpt>
      <trkpt lat="59.9130104" lon="17.7191415">
        <ele>34.2642</ele>
        <time>2014-06-06T13:13:48Z</time>
      </trkpt>
      <trkpt lat="59.9129463" lon="17.7190346">
        <ele>34.2642</ele>
        <time>2014-06-06T13:13:49Z</time>
      </trkpt>
      <trkpt lat="59.9128856" lon="17.718949">
        <ele>34.2642</ele>
        <time>2014-06-06T13:13:50Z</time>
      </trkpt>
      <trkpt lat="59.9128313" lon="17.7188851">
        <ele>34.2642</ele>
        <time>2014-06-06T13:13:51Z</time>
      </trkpt>
      <trkpt lat="59.9127721" lon="17.7188147">
        <ele>34.2642</ele>
        <time>2014-06-06T13:13:52Z</time>
      </trkpt>
      <trkpt lat="59.9127163" lon="17.7187324">
        <ele>34.2642</ele>
        <time>2014-06-06T13:13:53Z</time>
      </trkpt>
      <trkpt lat="59.9126593" lon="17.7186669">
        <ele>34.2642</ele>
        <time>2014-06-06T13:13:54Z</time>
      </trkpt>
      <trkpt lat="59.9126048" lon="17.7186044">
        <ele>33.7834</ele>
        <time>2014-06-06T13:13:55Z</time>
      </trkpt>
      <trkpt lat="59.912552" lon="17.7185386">
        <ele>33.3029</ele>
        <time>2014-06-06T13:13:56Z</time>
      </trkpt>
      <trkpt lat="59.9124961" lon="17.7184749">
        <ele>33.3029</ele>
        <time>2014-06-06T13:13:57Z</time>
      </trkpt>
      <trkpt lat="59.9124386" lon="17.7184047">
        <ele>33.3029</ele>
        <time>2014-06-06T13:13:58Z</time>
      </trkpt>
      <trkpt lat="59.9123816" lon="17.7183328">
        <ele>33.7834</ele>
        <time>2014-06-06T13:13:59Z</time>
      </trkpt>
      <trkpt lat="59.9123268" lon="17.7182568">
        <ele>33.3029</ele>
        <time>2014-06-06T13:14:00Z</time>
      </trkpt>
      <trkpt lat="59.9122732" lon="17.7181858">
        <ele>33.3029</ele>
        <time>2014-06-06T13:14:01Z</time>
      </trkpt>
      <trkpt lat="59.9122216" lon="17.7181199">
        <ele>33.3029</ele>
        <time>2014-06-06T13:14:02Z</time>
      </trkpt>
      <trkpt lat="59.9121706" lon="17.7180575">
        <ele>33.3029</ele>
        <time>2014-06-06T13:14:03Z</time>
      </trkpt>
      <trkpt lat="59.9121189" lon="17.7179931">
        <ele>33.3029</ele>
        <time>2014-06-06T13:14:04Z</time>
      </trkpt>
      <trkpt lat="59.9120672" lon="17.7179272">
        <ele>33.3029</ele>
        <time>2014-06-06T13:14:05Z</time>
      </trkpt>
      <trkpt lat="59.912017" lon="17.7178636">
        <ele>33.7834</ele>
        <time>2014-06-06T13:14:06Z</time>
      </trkpt>
      <trkpt lat="59.9119677" lon="17.7178049">
        <ele>33.3029</ele>
        <time>2014-06-06T13:14:07Z</time>
      </trkpt>
      <trkpt lat="59.9119207" lon="17.7177476">
        <ele>33.3029</ele>
        <time>2014-06-06T13:14:08Z</time>
      </trkpt>
      <trkpt lat="59.9118745" lon="17.7176899">
        <ele>33.3029</ele>
        <time>2014-06-06T13:14:09Z</time>
      </trkpt>
      <trkpt lat="59.9118288" lon="17.7176284">
        <ele>33.3029</ele>
        <time>2014-06-06T13:14:10Z</time>
      </trkpt>
      <trkpt lat="59.9117803" lon="17.7175543">
        <ele>33.3029</ele>
        <time>2014-06-06T13:14:11Z</time>
      </trkpt>
      <trkpt lat="59.9117324" lon="17.7174916">
        <ele>33.3029</ele>
        <time>2014-06-06T13:14:12Z</time>
      </trkpt>
      <trkpt lat="59.9116839" lon="17.7174399">
        <ele>33.3029</ele>
        <time>2014-06-06T13:14:13Z</time>
      </trkpt>
      <trkpt lat="59.9116358" lon="17.7173901">
        <ele>32.8223</ele>
        <time>2014-06-06T13:14:14Z</time>
      </trkpt>
      <trkpt lat="59.911588" lon="17.7173446">
        <ele>32.8223</ele>
        <time>2014-06-06T13:14:15Z</time>
      </trkpt>
      <trkpt lat="59.9115398" lon="17.7173014">
        <ele>32.8223</ele>
        <time>2014-06-06T13:14:16Z</time>
      </trkpt>
      <trkpt lat="59.9114901" lon="17.7172602">
        <ele>32.8223</ele>
        <time>2014-06-06T13:14:17Z</time>
      </trkpt>
      <trkpt lat="59.9114394" lon="17.7172234">
        <ele>32.8223</ele>
        <time>2014-06-06T13:14:18Z</time>
      </trkpt>
      <trkpt lat="59.9113858" lon="17.7171875">
        <ele>32.8223</ele>
        <time>2014-06-06T13:14:19Z</time>
      </trkpt>
      <trkpt lat="59.9113307" lon="17.7171586">
        <ele>32.8223</ele>
        <time>2014-06-06T13:14:20Z</time>
      </trkpt>
      <trkpt lat="59.9112729" lon="17.7171286">
        <ele>32.8223</ele>
        <time>2014-06-06T13:14:21Z</time>
      </trkpt>
      <trkpt lat="59.9112147" lon="17.7171088">
        <ele>32.8223</ele>
        <time>2014-06-06T13:14:22Z</time>
      </trkpt>
      <trkpt lat="59.9111558" lon="17.7170866">
        <ele>32.8223</ele>
        <time>2014-06-06T13:14:23Z</time>
      </trkpt>
      <trkpt lat="59.9110968" lon="17.7170714">
        <ele>32.8223</ele>
        <time>2014-06-06T13:14:24Z</time>
      </trkpt>
      <trkpt lat="59.9110388" lon="17.7170645">
        <ele>32.3416</ele>
        <time>2014-06-06T13:14:25Z</time>
      </trkpt>
      <trkpt lat="59.9109807" lon="17.7170592">
        <ele>31.8607</ele>
        <time>2014-06-06T13:14:26Z</time>
      </trkpt>
      <trkpt lat="59.9109186" lon="17.7170486">
        <ele>32.3416</ele>
        <time>2014-06-06T13:14:27Z</time>
      </trkpt>
      <trkpt lat="59.910857" lon="17.717041">
        <ele>32.3416</ele>
        <time>2014-06-06T13:14:28Z</time>
      </trkpt>
      <trkpt lat="59.9107954" lon="17.7170331">
        <ele>32.3416</ele>
        <time>2014-06-06T13:14:29Z</time>
      </trkpt>
      <trkpt lat="59.9107332" lon="17.7170266">
        <ele>32.3416</ele>
        <time>2014-06-06T13:14:30Z</time>
      </trkpt>
      <trkpt lat="59.9106686" lon="17.7170136">
        <ele>32.8223</ele>
        <time>2014-06-06T13:14:31Z</time>
      </trkpt>
      <trkpt lat="59.9106049" lon="17.7170053">
        <ele>32.8223</ele>
        <time>2014-06-06T13:14:32Z</time>
      </trkpt>
      <trkpt lat="59.9105397" lon="17.7169924">
        <ele>32.8223</ele>
        <time>2014-06-06T13:14:33Z</time>
      </trkpt>
      <trkpt lat="59.9104741" lon="17.7169784">
        <ele>32.8223</ele>
        <time>2014-06-06T13:14:34Z</time>
      </trkpt>
      <trkpt lat="59.910408" lon="17.7169645">
        <ele>33.3029</ele>
        <time>2014-06-06T13:14:35Z</time>
      </trkpt>
      <trkpt lat="59.9103417" lon="17.7169512">
        <ele>33.3029</ele>
        <time>2014-06-06T13:14:36Z</time>
      </trkpt>
      <trkpt lat="59.9102744" lon="17.7169334">
        <ele>33.3029</ele>
        <time>2014-06-06T13:14:37Z</time>
      </trkpt>
      <trkpt lat="59.9102075" lon="17.7169141">
        <ele>33.7834</ele>
        <time>2014-06-06T13:14:38Z</time>
      </trkpt>
      <trkpt lat="59.9101413" lon="17.7168935">
        <ele>33.7834</ele>
        <time>2014-06-06T13:14:39Z</time>
      </trkpt>
      <trkpt lat="59.9100758" lon="17.7168712">
        <ele>34.2642</ele>
        <time>2014-06-06T13:14:40Z</time>
      </trkpt>
      <trkpt lat="59.9100115" lon="17.7168489">
        <ele>34.7449</ele>
        <time>2014-06-06T13:14:41Z</time>
      </trkpt>
      <trkpt lat="59.9099479" lon="17.7168204">
        <ele>34.7449</ele>
        <time>2014-06-06T13:14:42Z</time>
      </trkpt>
      <trkpt lat="59.9098846" lon="17.7167882">
        <ele>35.2255</ele>
        <time>2014-06-06T13:14:43Z</time>
      </trkpt>
      <trkpt lat="59.9098225" lon="17.7167541">
        <ele>35.2255</ele>
        <time>2014-06-06T13:14:44Z</time>
      </trkpt>
      <trkpt lat="59.9097641" lon="17.7167124">
        <ele>35.2255</ele>
        <time>2014-06-06T13:14:45Z</time>
      </trkpt>
      <trkpt lat="59.909707" lon="17.7166701">
        <ele>35.2255</ele>
        <time>2014-06-06T13:14:46Z</time>
      </trkpt>
      <trkpt lat="59.9096501" lon="17.7166311">
        <ele>35.2255</ele>
        <time>2014-06-06T13:14:47Z</time>
      </trkpt>
      <trkpt lat="59.9095958" lon="17.7165896">
        <ele>35.2255</ele>
        <time>2014-06-06T13:14:48Z</time>
      </trkpt>
      <trkpt lat="59.9095449" lon="17.7165454">
        <ele>35.2255</ele>
        <time>2014-06-06T13:14:49Z</time>
      </trkpt>
      <trkpt lat="59.9094956" lon="17.7164987">
        <ele>35.2255</ele>
        <time>2014-06-06T13:14:50Z</time>
      </trkpt>
      <trkpt lat="59.9094467" lon="17.7164477">
        <ele>35.2255</ele>
        <time>2014-06-06T13:14:51Z</time>
      </trkpt>
      <trkpt lat="59.9093985" lon="17.7163925">
        <ele>35.2255</ele>
        <time>2014-06-06T13:14:52Z</time>
      </trkpt>
      <trkpt lat="59.9093516" lon="17.7163327">
        <ele>35.2255</ele>
        <time>2014-06-06T13:14:53Z</time>
      </trkpt>
      <trkpt lat="59.9093057" lon="17.7162706">
        <ele>35.2255</ele>
        <time>2014-06-06T13:14:54Z</time>
      </trkpt>
      <trkpt lat="59.9092614" lon="17.7162048">
        <ele>35.7061</ele>
        <time>2014-06-06T13:14:55Z</time>
      </trkpt>
      <trkpt lat="59.9092191" lon="17.7161346">
        <ele>35.7061</ele>
        <time>2014-06-06T13:14:56Z</time>
      </trkpt>
      <trkpt lat="59.9091793" lon="17.7160635">
        <ele>36.1868</ele>
        <time>2014-06-06T13:14:57Z</time>
      </trkpt>
      <trkpt lat="59.909142" lon="17.7159915">
        <ele>36.1868</ele>
        <time>2014-06-06T13:14:58Z</time>
      </trkpt>
      <trkpt lat="59.9091071" lon="17.7159145">
        <ele>36.6675</ele>
        <time>2014-06-06T13:14:59Z</time>
      </trkpt>
      <trkpt lat="59.9090755" lon="17.7158361">
        <ele>37.1481</ele>
        <time>2014-06-06T13:15:00Z</time>
      </trkpt>
      <trkpt lat="59.9090467" lon="17.715763">
        <ele>37.1481</ele>
        <time>2014-06-06T13:15:01Z</time>
      </trkpt>
      <trkpt lat="59.9090167" lon="17.7156904">
        <ele>37.1481</ele>
        <time>2014-06-06T13:15:02Z</time>
      </trkpt>
      <trkpt lat="59.9089876" lon="17.7156196">
        <ele>37.6287</ele>
        <time>2014-06-06T13:15:03Z</time>
      </trkpt>
      <trkpt lat="59.9089627" lon="17.7155443">
        <ele>37.6287</ele>
        <time>2014-06-06T13:15:04Z</time>
      </trkpt>
      <trkpt lat="59.9089413" lon="17.7154646">
        <ele>38.1094</ele>
        <time>2014-06-06T13:15:05Z</time>
      </trkpt>
      <trkpt lat="59.9089186" lon="17.7153794">
        <ele>38.5901</ele>
        <time>2014-06-06T13:15:06Z</time>
      </trkpt>
      <trkpt lat="59.908898" lon="17.7152912">
        <ele>38.5901</ele>
        <time>2014-06-06T13:15:07Z</time>
      </trkpt>
      <trkpt lat="59.9088767" lon="17.715202">
        <ele>39.0707</ele>
        <time>2014-06-06T13:15:08Z</time>
      </trkpt>
      <trkpt lat="59.9088623" lon="17.7151089">
        <ele>39.0707</ele>
        <time>2014-06-06T13:15:09Z</time>
      </trkpt>
      <trkpt lat="59.9088581" lon="17.715013">
        <ele>39.5513</ele>
        <time>2014-06-06T13:15:10Z</time>
      </trkpt>
      <trkpt lat="59.9088518" lon="17.7149182">
        <ele>39.5513</ele>
        <time>2014-06-06T13:15:11Z</time>
      </trkpt>
      <trkpt lat="59.9088457" lon="17.7148207">
        <ele>39.5513</ele>
        <time>2014-06-06T13:15:12Z</time>
      </trkpt>
      <trkpt lat="59.9088416" lon="17.7147194">
        <ele>39.5513</ele>
        <time>2014-06-06T13:15:13Z</time>
      </trkpt>
      <trkpt lat="59.9088391" lon="17.7146157">
        <ele>39.0707</ele>
        <time>2014-06-06T13:15:14Z</time>
      </trkpt>
      <trkpt lat="59.9088363" lon="17.7145064">
        <ele>39.0707</ele>
        <time>2014-06-06T13:15:15Z</time>
      </trkpt>
      <trkpt lat="59.9088358" lon="17.7143972">
        <ele>39.0707</ele>
        <time>2014-06-06T13:15:16Z</time>
      </trkpt>
      <trkpt lat="59.9088432" lon="17.7142899">
        <ele>39.0707</ele>
        <time>2014-06-06T13:15:17Z</time>
      </trkpt>
      <trkpt lat="59.9088514" lon="17.7141825">
        <ele>38.5901</ele>
        <time>2014-06-06T13:15:18Z</time>
      </trkpt>
      <trkpt lat="59.9088576" lon="17.7140832">
        <ele>38.1094</ele>
        <time>2014-06-06T13:15:19Z</time>
      </trkpt>
      <trkpt lat="59.9088617" lon="17.7139889">
        <ele>37.1481</ele>
        <time>2014-06-06T13:15:20Z</time>
      </trkpt>
      <trkpt lat="59.9088591" lon="17.7138776">
        <ele>36.6675</ele>
        <time>2014-06-06T13:15:21Z</time>
      </trkpt>
      <trkpt lat="59.9088488" lon="17.7137479">
        <ele>36.1868</ele>
        <time>2014-06-06T13:15:22Z</time>
      </trkpt>
      <trkpt lat="59.9088339" lon="17.7136186">
        <ele>36.1868</ele>
        <time>2014-06-06T13:15:23Z</time>
      </trkpt>
      <trkpt lat="59.9088147" lon="17.7134906">
        <ele>35.7061</ele>
        <time>2014-06-06T13:15:24Z</time>
      </trkpt>
      <trkpt lat="59.9087923" lon="17.7133663">
        <ele>35.7061</ele>
        <time>2014-06-06T13:15:25Z</time>
      </trkpt>
      <trkpt lat="59.9087631" lon="17.7132469">
        <ele>35.2255</ele>
        <time>2014-06-06T13:15:26Z</time>
      </trkpt>
      <trkpt lat="59.9087291" lon="17.7131358">
        <ele>35.2255</ele>
        <time>2014-06-06T13:15:27Z</time>
      </trkpt>
      <trkpt lat="59.9086746" lon="17.7129892">
        <ele>34.7449</ele>
        <time>2014-06-06T13:15:28Z</time>
      </trkpt>
      <trkpt lat="59.9086277" lon="17.7128752">
        <ele>34.7449</ele>
        <time>2014-06-06T13:15:29Z</time>
      </trkpt>
      <trkpt lat="59.9085811" lon="17.7127767">
        <ele>34.2642</ele>
        <time>2014-06-06T13:15:30Z</time>
      </trkpt>
      <trkpt lat="59.9085333" lon="17.7126847">
        <ele>34.2642</ele>
        <time>2014-06-06T13:15:31Z</time>
      </trkpt>
      <trkpt lat="59.9084834" lon="17.7125951">
        <ele>33.7834</ele>
        <time>2014-06-06T13:15:32Z</time>
      </trkpt>
      <trkpt lat="59.9084319" lon="17.7125166">
        <ele>33.7834</ele>
        <time>2014-06-06T13:15:33Z</time>
      </trkpt>
      <trkpt lat="59.908377" lon="17.712443">
        <ele>33.7834</ele>
        <time>2014-06-06T13:15:34Z</time>
      </trkpt>
      <trkpt lat="59.9083214" lon="17.7123713">
        <ele>33.3029</ele>
        <time>2014-06-06T13:15:35Z</time>
      </trkpt>
      <trkpt lat="59.9082618" lon="17.7122998">
        <ele>33.3029</ele>
        <time>2014-06-06T13:15:36Z</time>
      </trkpt>
      <trkpt lat="59.9082054" lon="17.7122366">
        <ele>33.3029</ele>
        <time>2014-06-06T13:15:37Z</time>
      </trkpt>
      <trkpt lat="59.9081453" lon="17.7121703">
        <ele>33.3029</ele>
        <time>2014-06-06T13:15:38Z</time>
      </trkpt>
      <trkpt lat="59.9080909" lon="17.7121029">
        <ele>33.3029</ele>
        <time>2014-06-06T13:15:39Z</time>
      </trkpt>
      <trkpt lat="59.9080387" lon="17.7120327">
        <ele>33.3029</ele>
        <time>2014-06-06T13:15:40Z</time>
      </trkpt>
      <trkpt lat="59.9079817" lon="17.7119442">
        <ele>32.8223</ele>
        <time>2014-06-06T13:15:41Z</time>
      </trkpt>
      <trkpt lat="59.9079281" lon="17.7118904">
        <ele>32.8223</ele>
        <time>2014-06-06T13:15:42Z</time>
      </trkpt>
      <trkpt lat="59.907874" lon="17.7118366">
        <ele>32.3416</ele>
        <time>2014-06-06T13:15:43Z</time>
      </trkpt>
      <trkpt lat="59.9078122" lon="17.7117837">
        <ele>32.3416</ele>
        <time>2014-06-06T13:15:44Z</time>
      </trkpt>
      <trkpt lat="59.9077527" lon="17.7117288">
        <ele>31.8607</ele>
        <time>2014-06-06T13:15:45Z</time>
      </trkpt>
      <trkpt lat="59.9076896" lon="17.7116796">
        <ele>31.3801</ele>
        <time>2014-06-06T13:15:46Z</time>
      </trkpt>
      <trkpt lat="59.9076242" lon="17.7116373">
        <ele>31.3801</ele>
        <time>2014-06-06T13:15:47Z</time>
      </trkpt>
      <trkpt lat="59.907557" lon="17.7115983">
        <ele>30.8995</ele>
        <time>2014-06-06T13:15:48Z</time>
      </trkpt>
      <trkpt lat="59.9074881" lon="17.7115632">
        <ele>30.4188</ele>
        <time>2014-06-06T13:15:49Z</time>
      </trkpt>
      <trkpt lat="59.9074184" lon="17.7115294">
        <ele>29.9381</ele>
        <time>2014-06-06T13:15:50Z</time>
      </trkpt>
      <trkpt lat="59.9073466" lon="17.7114998">
        <ele>29.9381</ele>
        <time>2014-06-06T13:15:51Z</time>
      </trkpt>
      <trkpt lat="59.9072751" lon="17.7114717">
        <ele>29.4575</ele>
        <time>2014-06-06T13:15:52Z</time>
      </trkpt>
      <trkpt lat="59.907204" lon="17.7114526">
        <ele>29.9381</ele>
        <time>2014-06-06T13:15:53Z</time>
      </trkpt>
      <trkpt lat="59.907134" lon="17.7114283">
        <ele>29.4575</ele>
        <time>2014-06-06T13:15:54Z</time>
      </trkpt>
      <trkpt lat="59.9070643" lon="17.7113992">
        <ele>28.9769</ele>
        <time>2014-06-06T13:15:55Z</time>
      </trkpt>
      <trkpt lat="59.9069949" lon="17.7113672">
        <ele>28.9769</ele>
        <time>2014-06-06T13:15:56Z</time>
      </trkpt>
      <trkpt lat="59.9069273" lon="17.7113305">
        <ele>28.9769</ele>
        <time>2014-06-06T13:15:57Z</time>
      </trkpt>
      <trkpt lat="59.9068607" lon="17.7112916">
        <ele>28.9769</ele>
        <time>2014-06-06T13:15:58Z</time>
      </trkpt>
      <trkpt lat="59.9067949" lon="17.7112555">
        <ele>28.9769</ele>
        <time>2014-06-06T13:15:59Z</time>
      </trkpt>
      <trkpt lat="59.9067303" lon="17.7112192">
        <ele>28.9769</ele>
        <time>2014-06-06T13:16:00Z</time>
      </trkpt>
      <trkpt lat="59.9066664" lon="17.7111796">
        <ele>28.4962</ele>
        <time>2014-06-06T13:16:01Z</time>
      </trkpt>
      <trkpt lat="59.9066025" lon="17.7111374">
        <ele>28.4962</ele>
        <time>2014-06-06T13:16:02Z</time>
      </trkpt>
      <trkpt lat="59.906539" lon="17.7110917">
        <ele>28.4962</ele>
        <time>2014-06-06T13:16:03Z</time>
      </trkpt>
      <trkpt lat="59.9064766" lon="17.7110415">
        <ele>28.4962</ele>
        <time>2014-06-06T13:16:04Z</time>
      </trkpt>
      <trkpt lat="59.9064158" lon="17.7109756">
        <ele>28.4962</ele>
        <time>2014-06-06T13:16:05Z</time>
      </trkpt>
      <trkpt lat="59.9063503" lon="17.7109238">
        <ele>28.4962</ele>
        <time>2014-06-06T13:16:06Z</time>
      </trkpt>
      <trkpt lat="59.9062903" lon="17.7108667">
        <ele>28.4962</ele>
        <time>2014-06-06T13:16:07Z</time>
      </trkpt>
      <trkpt lat="59.9062303" lon="17.7108098">
        <ele>28.4962</ele>
        <time>2014-06-06T13:16:08Z</time>
      </trkpt>
      <trkpt lat="59.9061713" lon="17.7107512">
        <ele>28.4962</ele>
        <time>2014-06-06T13:16:09Z</time>
      </trkpt>
      <trkpt lat="59.906112" lon="17.7106897">
        <ele>28.4962</ele>
        <time>2014-06-06T13:16:10Z</time>
      </trkpt>
      <trkpt lat="59.9060521" lon="17.7106235">
        <ele>28.4962</ele>
        <time>2014-06-06T13:16:11Z</time>
      </trkpt>
      <trkpt lat="59.905992" lon="17.7105555">
        <ele>28.4962</ele>
        <time>2014-06-06T13:16:12Z</time>
      </trkpt>
      <trkpt lat="59.905931" lon="17.7104877">
        <ele>28.4962</ele>
        <time>2014-06-06T13:16:13Z</time>
      </trkpt>
      <trkpt lat="59.9058691" lon="17.7104209">
        <ele>28.0155</ele>
        <time>2014-06-06T13:16:14Z</time>
      </trkpt>
      <trkpt lat="59.9058066" lon="17.7103561">
        <ele>28.0155</ele>
        <time>2014-06-06T13:16:15Z</time>
      </trkpt>
      <trkpt lat="59.9057447" lon="17.7102907">
        <ele>28.0155</ele>
        <time>2014-06-06T13:16:16Z</time>
      </trkpt>
      <trkpt lat="59.9056827" lon="17.7102255">
        <ele>28.0155</ele>
        <time>2014-06-06T13:16:17Z</time>
      </trkpt>
      <trkpt lat="59.9056191" lon="17.7101599">
        <ele>28.4962</ele>
        <time>2014-06-06T13:16:18Z</time>
      </trkpt>
      <trkpt lat="59.9055551" lon="17.7100986">
        <ele>28.4962</ele>
        <time>2014-06-06T13:16:19Z</time>
      </trkpt>
      <trkpt lat="59.9054896" lon="17.7100436">
        <ele>28.4962</ele>
        <time>2014-06-06T13:16:20Z</time>
      </trkpt>
      <trkpt lat="59.905423" lon="17.7099969">
        <ele>28.9769</ele>
        <time>2014-06-06T13:16:21Z</time>
      </trkpt>
      <trkpt lat="59.9053552" lon="17.7099587">
        <ele>28.9769</ele>
        <time>2014-06-06T13:16:22Z</time>
      </trkpt>
      <trkpt lat="59.9052859" lon="17.7099299">
        <ele>28.9769</ele>
        <time>2014-06-06T13:16:23Z</time>
      </trkpt>
      <trkpt lat="59.9052158" lon="17.7099121">
        <ele>28.9769</ele>
        <time>2014-06-06T13:16:24Z</time>
      </trkpt>
      <trkpt lat="59.9051445" lon="17.7099068">
        <ele>28.9769</ele>
        <time>2014-06-06T13:16:25Z</time>
      </trkpt>
      <trkpt lat="59.9050734" lon="17.7099105">
        <ele>28.9769</ele>
        <time>2014-06-06T13:16:26Z</time>
      </trkpt>
      <trkpt lat="59.9050027" lon="17.7099251">
        <ele>28.9769</ele>
        <time>2014-06-06T13:16:27Z</time>
      </trkpt>
      <trkpt lat="59.9049331" lon="17.7099525">
        <ele>28.9769</ele>
        <time>2014-06-06T13:16:28Z</time>
      </trkpt>
      <trkpt lat="59.9048647" lon="17.7099897">
        <ele>28.9769</ele>
        <time>2014-06-06T13:16:29Z</time>
      </trkpt>
      <trkpt lat="59.9047984" lon="17.7100364">
        <ele>28.9769</ele>
        <time>2014-06-06T13:16:30Z</time>
      </trkpt>
      <trkpt lat="59.9047346" lon="17.7100941">
        <ele>28.9769</ele>
        <time>2014-06-06T13:16:31Z</time>
      </trkpt>
      <trkpt lat="59.9046737" lon="17.7101624">
        <ele>28.9769</ele>
        <time>2014-06-06T13:16:32Z</time>
      </trkpt>
      <trkpt lat="59.9046163" lon="17.7102406">
        <ele>28.9769</ele>
        <time>2014-06-06T13:16:33Z</time>
      </trkpt>
      <trkpt lat="59.9045627" lon="17.7103271">
        <ele>28.4962</ele>
        <time>2014-06-06T13:16:34Z</time>
      </trkpt>
      <trkpt lat="59.9045129" lon="17.710422">
        <ele>28.4962</ele>
        <time>2014-06-06T13:16:35Z</time>
      </trkpt>
      <trkpt lat="59.9044662" lon="17.7105241">
        <ele>28.4962</ele>
        <time>2014-06-06T13:16:36Z</time>
      </trkpt>
      <trkpt lat="59.9044209" lon="17.7106317">
        <ele>28.4962</ele>
        <time>2014-06-06T13:16:37Z</time>
      </trkpt>
      <trkpt lat="59.9043787" lon="17.7107446">
        <ele>28.0155</ele>
        <time>2014-06-06T13:16:38Z</time>
      </trkpt>
      <trkpt lat="59.904342" lon="17.7108636">
        <ele>28.0155</ele>
        <time>2014-06-06T13:16:39Z</time>
      </trkpt>
      <trkpt lat="59.9043108" lon="17.710989">
        <ele>28.0155</ele>
        <time>2014-06-06T13:16:40Z</time>
      </trkpt>
      <trkpt lat="59.9042835" lon="17.7111156">
        <ele>27.5349</ele>
        <time>2014-06-06T13:16:41Z</time>
      </trkpt>
      <trkpt lat="59.9042567" lon="17.7112423">
        <ele>27.0543</ele>
        <time>2014-06-06T13:16:42Z</time>
      </trkpt>
      <trkpt lat="59.9042302" lon="17.7113683">
        <ele>27.0543</ele>
        <time>2014-06-06T13:16:43Z</time>
      </trkpt>
      <trkpt lat="59.9042028" lon="17.7114956">
        <ele>26.5736</ele>
        <time>2014-06-06T13:16:44Z</time>
      </trkpt>
      <trkpt lat="59.9041742" lon="17.7116226">
        <ele>26.5736</ele>
        <time>2014-06-06T13:16:45Z</time>
      </trkpt>
      <trkpt lat="59.9041458" lon="17.7117491">
        <ele>26.0929</ele>
        <time>2014-06-06T13:16:46Z</time>
      </trkpt>
      <trkpt lat="59.9041178" lon="17.7118759">
        <ele>26.0929</ele>
        <time>2014-06-06T13:16:47Z</time>
      </trkpt>
      <trkpt lat="59.9040889" lon="17.7120013">
        <ele>26.0929</ele>
        <time>2014-06-06T13:16:48Z</time>
      </trkpt>
      <trkpt lat="59.9040592" lon="17.712127">
        <ele>25.6123</ele>
        <time>2014-06-06T13:16:49Z</time>
      </trkpt>
      <trkpt lat="59.9040288" lon="17.7122534">
        <ele>25.6123</ele>
        <time>2014-06-06T13:16:50Z</time>
      </trkpt>
      <trkpt lat="59.9039972" lon="17.7123815">
        <ele>25.1317</ele>
        <time>2014-06-06T13:16:51Z</time>
      </trkpt>
      <trkpt lat="59.9039648" lon="17.7125105">
        <ele>25.1317</ele>
        <time>2014-06-06T13:16:52Z</time>
      </trkpt>
      <trkpt lat="59.9039303" lon="17.7126384">
        <ele>25.1317</ele>
        <time>2014-06-06T13:16:53Z</time>
      </trkpt>
      <trkpt lat="59.9038946" lon="17.7127643">
        <ele>24.651</ele>
        <time>2014-06-06T13:16:54Z</time>
      </trkpt>
      <trkpt lat="59.9038583" lon="17.7128891">
        <ele>24.651</ele>
        <time>2014-06-06T13:16:55Z</time>
      </trkpt>
      <trkpt lat="59.9038218" lon="17.7130123">
        <ele>24.651</ele>
        <time>2014-06-06T13:16:56Z</time>
      </trkpt>
      <trkpt lat="59.9037843" lon="17.7131343">
        <ele>24.651</ele>
        <time>2014-06-06T13:16:57Z</time>
      </trkpt>
      <trkpt lat="59.9037464" lon="17.7132554">
        <ele>24.651</ele>
        <time>2014-06-06T13:16:58Z</time>
      </trkpt>
      <trkpt lat="59.9037074" lon="17.7133756">
        <ele>24.651</ele>
        <time>2014-06-06T13:16:59Z</time>
      </trkpt>
      <trkpt lat="59.9036677" lon="17.7134941">
        <ele>24.651</ele>
        <time>2014-06-06T13:17:00Z</time>
      </trkpt>
      <trkpt lat="59.9036289" lon="17.7136103">
        <ele>24.651</ele>
        <time>2014-06-06T13:17:01Z</time>
      </trkpt>
      <trkpt lat="59.9035909" lon="17.7137266">
        <ele>24.651</ele>
        <time>2014-06-06T13:17:02Z</time>
      </trkpt>
      <trkpt lat="59.9035541" lon="17.7138429">
        <ele>24.651</ele>
        <time>2014-06-06T13:17:03Z</time>
      </trkpt>
      <trkpt lat="59.90352" lon="17.7139583">
        <ele>24.651</ele>
        <time>2014-06-06T13:17:04Z</time>
      </trkpt>
      <trkpt lat="59.9034874" lon="17.7140707">
        <ele>24.651</ele>
        <time>2014-06-06T13:17:05Z</time>
      </trkpt>
      <trkpt lat="59.9034554" lon="17.7141795">
        <ele>24.651</ele>
        <time>2014-06-06T13:17:06Z</time>
      </trkpt>
      <trkpt lat="59.903418" lon="17.7142864">
        <ele>24.651</ele>
        <time>2014-06-06T13:17:07Z</time>
      </trkpt>
      <trkpt lat="59.9033869" lon="17.7143873">
        <ele>25.1317</ele>
        <time>2014-06-06T13:17:08Z</time>
      </trkpt>
      <trkpt lat="59.903361" lon="17.7144871">
        <ele>25.1317</ele>
        <time>2014-06-06T13:17:09Z</time>
      </trkpt>
      <trkpt lat="59.9033362" lon="17.7145718">
        <ele>25.6123</ele>
        <time>2014-06-06T13:17:10Z</time>
      </trkpt>
      <trkpt lat="59.9033109" lon="17.7146426">
        <ele>25.6123</ele>
        <time>2014-06-06T13:17:11Z</time>
      </trkpt>
      <trkpt lat="59.9032847" lon="17.7146959">
        <ele>26.0929</ele>
        <time>2014-06-06T13:17:12Z</time>
      </trkpt>
      <trkpt lat="59.9032579" lon="17.7147302">
        <ele>26.0929</ele>
        <time>2014-06-06T13:17:13Z</time>
      </trkpt>
      <trkpt lat="59.9032316" lon="17.7147474">
        <ele>26.0929</ele>
        <time>2014-06-06T13:17:14Z</time>
      </trkpt>
      <trkpt lat="59.903206" lon="17.7147494">
        <ele>25.6123</ele>
        <time>2014-06-06T13:17:15Z</time>
      </trkpt>
      <trkpt lat="59.9031807" lon="17.7147407">
        <ele>25.6123</ele>
        <time>2014-06-06T13:17:16Z</time>
      </trkpt>
      <trkpt lat="59.9031526" lon="17.7147249">
        <ele>25.6123</ele>
        <time>2014-06-06T13:17:17Z</time>
      </trkpt>
      <trkpt lat="59.9031232" lon="17.7146938">
        <ele>25.6123</ele>
        <time>2014-06-06T13:17:18Z</time>
      </trkpt>
      <trkpt lat="59.9030932" lon="17.714651">
        <ele>25.6123</ele>
        <time>2014-06-06T13:17:19Z</time>
      </trkpt>
      <trkpt lat="59.90306" lon="17.7146039">
        <ele>25.6123</ele>
        <time>2014-06-06T13:17:20Z</time>
      </trkpt>
      <trkpt lat="59.9030233" lon="17.714557">
        <ele>25.6123</ele>
        <time>2014-06-06T13:17:21Z</time>
      </trkpt>
      <trkpt lat="59.9029852" lon="17.714508">
        <ele>25.1317</ele>
        <time>2014-06-06T13:17:22Z</time>
      </trkpt>
      <trkpt lat="59.9029449" lon="17.7144541">
        <ele>25.1317</ele>
        <time>2014-06-06T13:17:23Z</time>
      </trkpt>
      <trkpt lat="59.902902" lon="17.7143992">
        <ele>25.1317</ele>
        <time>2014-06-06T13:17:24Z</time>
      </trkpt>
      <trkpt lat="59.9028569" lon="17.7143422">
        <ele>25.1317</ele>
        <time>2014-06-06T13:17:25Z</time>
      </trkpt>
      <trkpt lat="59.9028096" lon="17.7142855">
        <ele>25.1317</ele>
        <time>2014-06-06T13:17:26Z</time>
      </trkpt>
      <trkpt lat="59.9027609" lon="17.7142282">
        <ele>25.1317</ele>
        <time>2014-06-06T13:17:27Z</time>
      </trkpt>
      <trkpt lat="59.902711" lon="17.7141706">
        <ele>24.651</ele>
        <time>2014-06-06T13:17:28Z</time>
      </trkpt>
      <trkpt lat="59.9026591" lon="17.7141152">
        <ele>24.651</ele>
        <time>2014-06-06T13:17:29Z</time>
      </trkpt>
      <trkpt lat="59.9026066" lon="17.7140656">
        <ele>24.651</ele>
        <time>2014-06-06T13:17:30Z</time>
      </trkpt>
      <trkpt lat="59.9025544" lon="17.714024">
        <ele>24.651</ele>
        <time>2014-06-06T13:17:31Z</time>
      </trkpt>
      <trkpt lat="59.9025047" lon="17.7139989">
        <ele>24.1703</ele>
        <time>2014-06-06T13:17:32Z</time>
      </trkpt>
      <trkpt lat="59.9024619" lon="17.7140071">
        <ele>24.1703</ele>
        <time>2014-06-06T13:17:33Z</time>
      </trkpt>
      <trkpt lat="59.9024273" lon="17.7140252">
        <ele>24.1703</ele>
        <time>2014-06-06T13:17:34Z</time>
      </trkpt>
      <trkpt lat="59.9024018" lon="17.7140318">
        <ele>24.1703</ele>
        <time>2014-06-06T13:17:35Z</time>
      </trkpt>
      <trkpt lat="59.9023819" lon="17.7140355">
        <ele>24.1703</ele>
        <time>2014-06-06T13:17:36Z</time>
      </trkpt>
      <trkpt lat="59.9023663" lon="17.7140388">
        <ele>23.6896</ele>
        <time>2014-06-06T13:17:37Z</time>
      </trkpt>
      <trkpt lat="59.9023507" lon="17.7140493">
        <ele>23.6896</ele>
        <time>2014-06-06T13:17:38Z</time>
      </trkpt>
      <trkpt lat="59.9023375" lon="17.714064">
        <ele>23.6896</ele>
        <time>2014-06-06T13:17:39Z</time>
      </trkpt>
      <trkpt lat="59.9023265" lon="17.7140749">
        <ele>23.6896</ele>
        <time>2014-06-06T13:17:40Z</time>
      </trkpt>
      <trkpt lat="59.9023094" lon="17.7140748">
        <ele>23.6896</ele>
        <time>2014-06-06T13:17:41Z</time>
      </trkpt>
      <trkpt lat="59.9022886" lon="17.7140594">
        <ele>23.6896</ele>
        <time>2014-06-06T13:17:42Z</time>
      </trkpt>
      <trkpt lat="59.9022639" lon="17.7140292">
        <ele>23.6896</ele>
        <time>2014-06-06T13:17:43Z</time>
      </trkpt>
      <trkpt lat="59.9022354" lon="17.7139915">
        <ele>23.209</ele>
        <time>2014-06-06T13:17:44Z</time>
      </trkpt>
      <trkpt lat="59.9022026" lon="17.7139514">
        <ele>23.209</ele>
        <time>2014-06-06T13:17:45Z</time>
      </trkpt>
      <trkpt lat="59.9021655" lon="17.7139086">
        <ele>23.209</ele>
        <time>2014-06-06T13:17:46Z</time>
      </trkpt>
      <trkpt lat="59.9021248" lon="17.7138635">
        <ele>23.209</ele>
        <time>2014-06-06T13:17:47Z</time>
      </trkpt>
      <trkpt lat="59.9020809" lon="17.7138159">
        <ele>22.7283</ele>
        <time>2014-06-06T13:17:48Z</time>
      </trkpt>
      <trkpt lat="59.9020353" lon="17.7137651">
        <ele>22.7283</ele>
        <time>2014-06-06T13:17:49Z</time>
      </trkpt>
      <trkpt lat="59.9019883" lon="17.7137113">
        <ele>22.7283</ele>
        <time>2014-06-06T13:17:50Z</time>
      </trkpt>
      <trkpt lat="59.9019411" lon="17.7136559">
        <ele>22.7283</ele>
        <time>2014-06-06T13:17:51Z</time>
      </trkpt>
      <trkpt lat="59.9018935" lon="17.7135995">
        <ele>22.2476</ele>
        <time>2014-06-06T13:17:52Z</time>
      </trkpt>
      <trkpt lat="59.9018458" lon="17.7135433">
        <ele>22.2476</ele>
        <time>2014-06-06T13:17:53Z</time>
      </trkpt>
      <trkpt lat="59.9017982" lon="17.7134873">
        <ele>22.2476</ele>
        <time>2014-06-06T13:17:54Z</time>
      </trkpt>
      <trkpt lat="59.9017504" lon="17.7134336">
        <ele>22.2476</ele>
        <time>2014-06-06T13:17:55Z</time>
      </trkpt>
      <trkpt lat="59.9017019" lon="17.7133823">
        <ele>22.2476</ele>
        <time>2014-06-06T13:17:56Z</time>
      </trkpt>
      <trkpt lat="59.9016538" lon="17.7133291">
        <ele>21.767</ele>
        <time>2014-06-06T13:17:57Z</time>
      </trkpt>
      <trkpt lat="59.901606" lon="17.7132734">
        <ele>21.767</ele>
        <time>2014-06-06T13:17:58Z</time>
      </trkpt>
      <trkpt lat="59.9015573" lon="17.7132161">
        <ele>21.767</ele>
        <time>2014-06-06T13:17:59Z</time>
      </trkpt>
      <trkpt lat="59.9015076" lon="17.7131587">
        <ele>21.767</ele>
        <time>2014-06-06T13:18:00Z</time>
      </trkpt>
      <trkpt lat="59.9014573" lon="17.7131036">
        <ele>21.767</ele>
        <time>2014-06-06T13:18:01Z</time>
      </trkpt>
      <trkpt lat="59.9014066" lon="17.7130527">
        <ele>21.767</ele>
        <time>2014-06-06T13:18:02Z</time>
      </trkpt>
      <trkpt lat="59.9013572" lon="17.7130031">
        <ele>21.767</ele>
        <time>2014-06-06T13:18:03Z</time>
      </trkpt>
      <trkpt lat="59.9013115" lon="17.7129513">
        <ele>21.767</ele>
        <time>2014-06-06T13:18:04Z</time>
      </trkpt>
      <trkpt lat="59.9012687" lon="17.7129047">
        <ele>21.767</ele>
        <time>2014-06-06T13:18:05Z</time>
      </trkpt>
      <trkpt lat="59.9012266" lon="17.7128589">
        <ele>21.767</ele>
        <time>2014-06-06T13:18:06Z</time>
      </trkpt>
      <trkpt lat="59.9011826" lon="17.7128037">
        <ele>21.767</ele>
        <time>2014-06-06T13:18:07Z</time>
      </trkpt>
      <trkpt lat="59.901138" lon="17.7127416">
        <ele>21.767</ele>
        <time>2014-06-06T13:18:08Z</time>
      </trkpt>
      <trkpt lat="59.9010906" lon="17.7126985">
        <ele>21.767</ele>
        <time>2014-06-06T13:18:09Z</time>
      </trkpt>
      <trkpt lat="59.9010429" lon="17.7127155">
        <ele>21.767</ele>
        <time>2014-06-06T13:18:10Z</time>
      </trkpt>
      <trkpt lat="59.9009998" lon="17.712775">
        <ele>22.2476</ele>
        <time>2014-06-06T13:18:11Z</time>
      </trkpt>
      <trkpt lat="59.9009637" lon="17.7128611">
        <ele>22.2476</ele>
        <time>2014-06-06T13:18:12Z</time>
      </trkpt>
      <trkpt lat="59.9009345" lon="17.7129659">
        <ele>22.2476</ele>
        <time>2014-06-06T13:18:13Z</time>
      </trkpt>
      <trkpt lat="59.9009042" lon="17.7130705">
        <ele>21.767</ele>
        <time>2014-06-06T13:18:14Z</time>
      </trkpt>
      <trkpt lat="59.9008739" lon="17.7131723">
        <ele>21.767</ele>
        <time>2014-06-06T13:18:15Z</time>
      </trkpt>
      <trkpt lat="59.9008433" lon="17.7132718">
        <ele>21.767</ele>
        <time>2014-06-06T13:18:16Z</time>
      </trkpt>
      <trkpt lat="59.9008108" lon="17.7133694">
        <ele>21.767</ele>
        <time>2014-06-06T13:18:17Z</time>
      </trkpt>
      <trkpt lat="59.9007782" lon="17.7134688">
        <ele>21.2864</ele>
        <time>2014-06-06T13:18:18Z</time>
      </trkpt>
      <trkpt lat="59.9007469" lon="17.7135709">
        <ele>21.2864</ele>
        <time>2014-06-06T13:18:19Z</time>
      </trkpt>
      <trkpt lat="59.9007145" lon="17.7136719">
        <ele>21.2864</ele>
        <time>2014-06-06T13:18:20Z</time>
      </trkpt>
      <trkpt lat="59.9006808" lon="17.7137724">
        <ele>21.2864</ele>
        <time>2014-06-06T13:18:21Z</time>
      </trkpt>
      <trkpt lat="59.9006473" lon="17.7138727">
        <ele>21.2864</ele>
        <time>2014-06-06T13:18:22Z</time>
      </trkpt>
      <trkpt lat="59.900614" lon="17.7139713">
        <ele>21.2864</ele>
        <time>2014-06-06T13:18:23Z</time>
      </trkpt>
      <trkpt lat="59.900582" lon="17.7140708">
        <ele>21.2864</ele>
        <time>2014-06-06T13:18:24Z</time>
      </trkpt>
      <trkpt lat="59.9005518" lon="17.7141717">
        <ele>21.767</ele>
        <time>2014-06-06T13:18:25Z</time>
      </trkpt>
      <trkpt lat="59.9005224" lon="17.7142716">
        <ele>21.767</ele>
        <time>2014-06-06T13:18:26Z</time>
      </trkpt>
      <trkpt lat="59.9004931" lon="17.7143694">
        <ele>21.767</ele>
        <time>2014-06-06T13:18:27Z</time>
      </trkpt>
      <trkpt lat="59.9004634" lon="17.7144648">
        <ele>21.767</ele>
        <time>2014-06-06T13:18:28Z</time>
      </trkpt>
      <trkpt lat="59.9004343" lon="17.7145575">
        <ele>22.2476</ele>
        <time>2014-06-06T13:18:29Z</time>
      </trkpt>
      <trkpt lat="59.9004058" lon="17.7146495">
        <ele>22.2476</ele>
        <time>2014-06-06T13:18:30Z</time>
      </trkpt>
      <trkpt lat="59.9003797" lon="17.7147431">
        <ele>22.2476</ele>
        <time>2014-06-06T13:18:31Z</time>
      </trkpt>
      <trkpt lat="59.9003556" lon="17.7148383">
        <ele>22.2476</ele>
        <time>2014-06-06T13:18:32Z</time>
      </trkpt>
      <trkpt lat="59.9003318" lon="17.7149352">
        <ele>22.2476</ele>
        <time>2014-06-06T13:18:33Z</time>
      </trkpt>
      <trkpt lat="59.9003079" lon="17.7150327">
        <ele>22.2476</ele>
        <time>2014-06-06T13:18:34Z</time>
      </trkpt>
      <trkpt lat="59.9002843" lon="17.7151322">
        <ele>22.7283</ele>
        <time>2014-06-06T13:18:35Z</time>
      </trkpt>
      <trkpt lat="59.9002608" lon="17.7152321">
        <ele>22.7283</ele>
        <time>2014-06-06T13:18:36Z</time>
      </trkpt>
      <trkpt lat="59.9002384" lon="17.7153317">
        <ele>22.7283</ele>
        <time>2014-06-06T13:18:37Z</time>
      </trkpt>
      <trkpt lat="59.9002167" lon="17.7154306">
        <ele>22.7283</ele>
        <time>2014-06-06T13:18:38Z</time>
      </trkpt>
      <trkpt lat="59.9001964" lon="17.7155326">
        <ele>22.7283</ele>
        <time>2014-06-06T13:18:39Z</time>
      </trkpt>
      <trkpt lat="59.9001792" lon="17.7156465">
        <ele>22.7283</ele>
        <time>2014-06-06T13:18:40Z</time>
      </trkpt>
      <trkpt lat="59.9001614" lon="17.7157626">
        <ele>22.7283</ele>
        <time>2014-06-06T13:18:41Z</time>
      </trkpt>
      <trkpt lat="59.9001416" lon="17.7158745">
        <ele>22.7283</ele>
        <time>2014-06-06T13:18:42Z</time>
      </trkpt>
      <trkpt lat="59.9001238" lon="17.7159893">
        <ele>22.7283</ele>
        <time>2014-06-06T13:18:43Z</time>
      </trkpt>
      <trkpt lat="59.9001094" lon="17.7161085">
        <ele>22.7283</ele>
        <time>2014-06-06T13:18:44Z</time>
      </trkpt>
      <trkpt lat="59.9000986" lon="17.7162314">
        <ele>22.2476</ele>
        <time>2014-06-06T13:18:45Z</time>
      </trkpt>
      <trkpt lat="59.9000902" lon="17.7163563">
        <ele>22.2476</ele>
        <time>2014-06-06T13:18:46Z</time>
      </trkpt>
      <trkpt lat="59.9000825" lon="17.7164827">
        <ele>22.2476</ele>
        <time>2014-06-06T13:18:47Z</time>
      </trkpt>
      <trkpt lat="59.9000758" lon="17.7166107">
        <ele>22.2476</ele>
        <time>2014-06-06T13:18:48Z</time>
      </trkpt>
      <trkpt lat="59.9000697" lon="17.7167402">
        <ele>22.2476</ele>
        <time>2014-06-06T13:18:49Z</time>
      </trkpt>
      <trkpt lat="59.9000642" lon="17.7168699">
        <ele>22.2476</ele>
        <time>2014-06-06T13:18:50Z</time>
      </trkpt>
      <trkpt lat="59.9000592" lon="17.7169986">
        <ele>21.767</ele>
        <time>2014-06-06T13:18:51Z</time>
      </trkpt>
      <trkpt lat="59.9000538" lon="17.7171273">
        <ele>22.2476</ele>
        <time>2014-06-06T13:18:52Z</time>
      </trkpt>
      <trkpt lat="59.9000466" lon="17.7172539">
        <ele>21.767</ele>
        <time>2014-06-06T13:18:53Z</time>
      </trkpt>
      <trkpt lat="59.9000369" lon="17.7173783">
        <ele>21.767</ele>
        <time>2014-06-06T13:18:54Z</time>
      </trkpt>
      <trkpt lat="59.9000259" lon="17.7174998">
        <ele>22.2476</ele>
        <time>2014-06-06T13:18:55Z</time>
      </trkpt>
      <trkpt lat="59.9000131" lon="17.7176176">
        <ele>22.2476</ele>
        <time>2014-06-06T13:18:56Z</time>
      </trkpt>
      <trkpt lat="59.8999979" lon="17.7177303">
        <ele>22.2476</ele>
        <time>2014-06-06T13:18:57Z</time>
      </trkpt>
      <trkpt lat="59.899979" lon="17.7178375">
        <ele>22.2476</ele>
        <time>2014-06-06T13:18:58Z</time>
      </trkpt>
      <trkpt lat="59.8999572" lon="17.7179401">
        <ele>22.2476</ele>
        <time>2014-06-06T13:18:59Z</time>
      </trkpt>
      <trkpt lat="59.8999331" lon="17.7180396">
        <ele>22.2476</ele>
        <time>2014-06-06T13:19:00Z</time>
      </trkpt>
      <trkpt lat="59.8999068" lon="17.7181361">
        <ele>22.7283</ele>
        <time>2014-06-06T13:19:01Z</time>
      </trkpt>
      <trkpt lat="59.8998804" lon="17.7182304">
        <ele>22.2476</ele>
        <time>2014-06-06T13:19:02Z</time>
      </trkpt>
      <trkpt lat="59.8998529" lon="17.7183235">
        <ele>22.2476</ele>
        <time>2014-06-06T13:19:03Z</time>
      </trkpt>
      <trkpt lat="59.8998249" lon="17.7184158">
        <ele>22.2476</ele>
        <time>2014-06-06T13:19:04Z</time>
      </trkpt>
      <trkpt lat="59.8997966" lon="17.7185078">
        <ele>22.2476</ele>
        <time>2014-06-06T13:19:05Z</time>
      </trkpt>
      <trkpt lat="59.8997686" lon="17.7186012">
        <ele>22.2476</ele>
        <time>2014-06-06T13:19:06Z</time>
      </trkpt>
      <trkpt lat="59.8997397" lon="17.718695">
        <ele>22.2476</ele>
        <time>2014-06-06T13:19:07Z</time>
      </trkpt>
      <trkpt lat="59.899711" lon="17.7187884">
        <ele>22.2476</ele>
        <time>2014-06-06T13:19:08Z</time>
      </trkpt>
      <trkpt lat="59.8996817" lon="17.718882">
        <ele>22.7283</ele>
        <time>2014-06-06T13:19:09Z</time>
      </trkpt>
      <trkpt lat="59.8996537" lon="17.7189768">
        <ele>22.7283</ele>
        <time>2014-06-06T13:19:10Z</time>
      </trkpt>
      <trkpt lat="59.8996267" lon="17.7190723">
        <ele>22.7283</ele>
        <time>2014-06-06T13:19:11Z</time>
      </trkpt>
      <trkpt lat="59.8996006" lon="17.7191684">
        <ele>22.7283</ele>
        <time>2014-06-06T13:19:12Z</time>
      </trkpt>
      <trkpt lat="59.8995757" lon="17.7192631">
        <ele>22.7283</ele>
        <time>2014-06-06T13:19:13Z</time>
      </trkpt>
      <trkpt lat="59.8995527" lon="17.7193589">
        <ele>23.209</ele>
        <time>2014-06-06T13:19:14Z</time>
      </trkpt>
      <trkpt lat="59.8995314" lon="17.7194529">
        <ele>22.7283</ele>
        <time>2014-06-06T13:19:15Z</time>
      </trkpt>
      <trkpt lat="59.8995095" lon="17.7195496">
        <ele>22.7283</ele>
        <time>2014-06-06T13:19:16Z</time>
      </trkpt>
      <trkpt lat="59.8994868" lon="17.7196495">
        <ele>22.7283</ele>
        <time>2014-06-06T13:19:17Z</time>
      </trkpt>
      <trkpt lat="59.8994641" lon="17.7197512">
        <ele>22.7283</ele>
        <time>2014-06-06T13:19:18Z</time>
      </trkpt>
      <trkpt lat="59.8994428" lon="17.7198542">
        <ele>22.7283</ele>
        <time>2014-06-06T13:19:19Z</time>
      </trkpt>
      <trkpt lat="59.8994225" lon="17.7199558">
        <ele>22.7283</ele>
        <time>2014-06-06T13:19:20Z</time>
      </trkpt>
      <trkpt lat="59.8994029" lon="17.7200544">
        <ele>22.7283</ele>
        <time>2014-06-06T13:19:21Z</time>
      </trkpt>
      <trkpt lat="59.8993853" lon="17.7201522">
        <ele>23.209</ele>
        <time>2014-06-06T13:19:22Z</time>
      </trkpt>
      <trkpt lat="59.8993698" lon="17.720248">
        <ele>23.209</ele>
        <time>2014-06-06T13:19:23Z</time>
      </trkpt>
      <trkpt lat="59.8993552" lon="17.7203414">
        <ele>23.209</ele>
        <time>2014-06-06T13:19:24Z</time>
      </trkpt>
      <trkpt lat="59.8993396" lon="17.72043">
        <ele>23.209</ele>
        <time>2014-06-06T13:19:25Z</time>
      </trkpt>
      <trkpt lat="59.8993234" lon="17.7205148">
        <ele>23.209</ele>
        <time>2014-06-06T13:19:26Z</time>
      </trkpt>
      <trkpt lat="59.8993162" lon="17.7205893">
        <ele>22.7283</ele>
        <time>2014-06-06T13:19:27Z</time>
      </trkpt>
      <trkpt lat="59.8993252" lon="17.7206453">
        <ele>22.7283</ele>
        <time>2014-06-06T13:19:28Z</time>
      </trkpt>
      <trkpt lat="59.899346" lon="17.7206838">
        <ele>22.7283</ele>
        <time>2014-06-06T13:19:29Z</time>
      </trkpt>
      <trkpt lat="59.8993708" lon="17.7207111">
        <ele>22.7283</ele>
        <time>2014-06-06T13:19:30Z</time>
      </trkpt>
      <trkpt lat="59.8994151" lon="17.7206852">
        <ele>24.1703</ele>
        <time>2014-06-06T14:01:30Z</time>
      </trkpt>
      <trkpt lat="59.8994007" lon="17.7206679">
        <ele>24.1703</ele>
        <time>2014-06-06T14:01:31Z</time>
      </trkpt>
      <trkpt lat="59.899384" lon="17.7206578">
        <ele>24.1703</ele>
        <time>2014-06-06T14:01:32Z</time>
      </trkpt>
      <trkpt lat="59.8993642" lon="17.7206534">
        <ele>24.1703</ele>
        <time>2014-06-06T14:01:33Z</time>
      </trkpt>
      <trkpt lat="59.8993418" lon="17.7206579">
        <ele>24.1703</ele>
        <time>2014-06-06T14:01:34Z</time>
      </trkpt>
      <trkpt lat="59.8993217" lon="17.7206878">
        <ele>24.1703</ele>
        <time>2014-06-06T14:01:35Z</time>
      </trkpt>
      <trkpt lat="59.8993043" lon="17.7207437">
        <ele>24.1703</ele>
        <time>2014-06-06T14:01:36Z</time>
      </trkpt>
      <trkpt lat="59.8992832" lon="17.7208096">
        <ele>24.1703</ele>
        <time>2014-06-06T14:01:37Z</time>
      </trkpt>
      <trkpt lat="59.8992614" lon="17.7208853">
        <ele>24.1703</ele>
        <time>2014-06-06T14:01:38Z</time>
      </trkpt>
      <trkpt lat="59.8992424" lon="17.7209739">
        <ele>24.1703</ele>
        <time>2014-06-06T14:01:39Z</time>
      </trkpt>
      <trkpt lat="59.8992231" lon="17.7210707">
        <ele>24.1703</ele>
        <time>2014-06-06T14:01:40Z</time>
      </trkpt>
      <trkpt lat="59.8992033" lon="17.7211696">
        <ele>24.1703</ele>
        <time>2014-06-06T14:01:41Z</time>
      </trkpt>
      <trkpt lat="59.8991851" lon="17.7212733">
        <ele>24.1703</ele>
        <time>2014-06-06T14:01:42Z</time>
      </trkpt>
      <trkpt lat="59.8991678" lon="17.7213825">
        <ele>24.1703</ele>
        <time>2014-06-06T14:01:43Z</time>
      </trkpt>
      <trkpt lat="59.8991492" lon="17.7214952">
        <ele>24.651</ele>
        <time>2014-06-06T14:01:44Z</time>
      </trkpt>
      <trkpt lat="59.8991292" lon="17.7216099">
        <ele>24.651</ele>
        <time>2014-06-06T14:01:45Z</time>
      </trkpt>
      <trkpt lat="59.8991095" lon="17.7217263">
        <ele>24.651</ele>
        <time>2014-06-06T14:01:46Z</time>
      </trkpt>
      <trkpt lat="59.8990916" lon="17.7218425">
        <ele>24.651</ele>
        <time>2014-06-06T14:01:47Z</time>
      </trkpt>
      <trkpt lat="59.8990739" lon="17.7219583">
        <ele>25.1317</ele>
        <time>2014-06-06T14:01:48Z</time>
      </trkpt>
      <trkpt lat="59.8990558" lon="17.722074">
        <ele>25.1317</ele>
        <time>2014-06-06T14:01:49Z</time>
      </trkpt>
      <trkpt lat="59.8990383" lon="17.722191">
        <ele>25.1317</ele>
        <time>2014-06-06T14:01:50Z</time>
      </trkpt>
      <trkpt lat="59.8990209" lon="17.7223092">
        <ele>25.1317</ele>
        <time>2014-06-06T14:01:51Z</time>
      </trkpt>
      <trkpt lat="59.8990025" lon="17.7224289">
        <ele>25.1317</ele>
        <time>2014-06-06T14:01:52Z</time>
      </trkpt>
      <trkpt lat="59.8989841" lon="17.7225494">
        <ele>25.1317</ele>
        <time>2014-06-06T14:01:53Z</time>
      </trkpt>
      <trkpt lat="59.8989656" lon="17.7226716">
        <ele>25.6123</ele>
        <time>2014-06-06T14:01:54Z</time>
      </trkpt>
      <trkpt lat="59.8989476" lon="17.7227945">
        <ele>25.1317</ele>
        <time>2014-06-06T14:01:55Z</time>
      </trkpt>
      <trkpt lat="59.8989284" lon="17.7229159">
        <ele>25.1317</ele>
        <time>2014-06-06T14:01:56Z</time>
      </trkpt>
      <trkpt lat="59.8989085" lon="17.7230356">
        <ele>25.1317</ele>
        <time>2014-06-06T14:01:57Z</time>
      </trkpt>
      <trkpt lat="59.898889" lon="17.7231547">
        <ele>25.1317</ele>
        <time>2014-06-06T14:01:58Z</time>
      </trkpt>
      <trkpt lat="59.8988705" lon="17.7232742">
        <ele>25.1317</ele>
        <time>2014-06-06T14:01:59Z</time>
      </trkpt>
      <trkpt lat="59.8988512" lon="17.7233944">
        <ele>25.1317</ele>
        <time>2014-06-06T14:02:00Z</time>
      </trkpt>
      <trkpt lat="59.8988314" lon="17.7235141">
        <ele>25.1317</ele>
        <time>2014-06-06T14:02:01Z</time>
      </trkpt>
      <trkpt lat="59.8988117" lon="17.7236373">
        <ele>25.1317</ele>
        <time>2014-06-06T14:02:02Z</time>
      </trkpt>
      <trkpt lat="59.8987922" lon="17.7237627">
        <ele>24.651</ele>
        <time>2014-06-06T14:02:03Z</time>
      </trkpt>
      <trkpt lat="59.8987718" lon="17.723891">
        <ele>24.651</ele>
        <time>2014-06-06T14:02:04Z</time>
      </trkpt>
      <trkpt lat="59.8987502" lon="17.7240202">
        <ele>24.651</ele>
        <time>2014-06-06T14:02:05Z</time>
      </trkpt>
      <trkpt lat="59.8987296" lon="17.7241493">
        <ele>24.1703</ele>
        <time>2014-06-06T14:02:06Z</time>
      </trkpt>
      <trkpt lat="59.8987093" lon="17.724278">
        <ele>24.1703</ele>
        <time>2014-06-06T14:02:07Z</time>
      </trkpt>
      <trkpt lat="59.8986883" lon="17.7244049">
        <ele>23.6896</ele>
        <time>2014-06-06T14:02:08Z</time>
      </trkpt>
      <trkpt lat="59.8986673" lon="17.7245308">
        <ele>23.6896</ele>
        <time>2014-06-06T14:02:09Z</time>
      </trkpt>
      <trkpt lat="59.8986471" lon="17.7246558">
        <ele>23.6896</ele>
        <time>2014-06-06T14:02:10Z</time>
      </trkpt>
      <trkpt lat="59.8986278" lon="17.7247802">
        <ele>23.6896</ele>
        <time>2014-06-06T14:02:11Z</time>
      </trkpt>
      <trkpt lat="59.8986081" lon="17.7249028">
        <ele>23.209</ele>
        <time>2014-06-06T14:02:12Z</time>
      </trkpt>
      <trkpt lat="59.8985875" lon="17.7250232">
        <ele>23.209</ele>
        <time>2014-06-06T14:02:13Z</time>
      </trkpt>
      <trkpt lat="59.8985673" lon="17.7251428">
        <ele>23.209</ele>
        <time>2014-06-06T14:02:14Z</time>
      </trkpt>
      <trkpt lat="59.8985483" lon="17.7252611">
        <ele>23.209</ele>
        <time>2014-06-06T14:02:15Z</time>
      </trkpt>
      <trkpt lat="59.8985299" lon="17.7253775">
        <ele>23.209</ele>
        <time>2014-06-06T14:02:16Z</time>
      </trkpt>
      <trkpt lat="59.8985114" lon="17.7254908">
        <ele>22.7283</ele>
        <time>2014-06-06T14:02:17Z</time>
      </trkpt>
      <trkpt lat="59.8984908" lon="17.7256017">
        <ele>22.7283</ele>
        <time>2014-06-06T14:02:18Z</time>
      </trkpt>
      <trkpt lat="59.8984692" lon="17.725711">
        <ele>22.7283</ele>
        <time>2014-06-06T14:02:19Z</time>
      </trkpt>
      <trkpt lat="59.8984477" lon="17.7258193">
        <ele>22.7283</ele>
        <time>2014-06-06T14:02:20Z</time>
      </trkpt>
      <trkpt lat="59.8984255" lon="17.7259266">
        <ele>22.7283</ele>
        <time>2014-06-06T14:02:21Z</time>
      </trkpt>
      <trkpt lat="59.8984024" lon="17.7260331">
        <ele>22.7283</ele>
        <time>2014-06-06T14:02:22Z</time>
      </trkpt>
      <trkpt lat="59.8983779" lon="17.7261383">
        <ele>22.7283</ele>
        <time>2014-06-06T14:02:23Z</time>
      </trkpt>
      <trkpt lat="59.8983529" lon="17.7262438">
        <ele>22.7283</ele>
        <time>2014-06-06T14:02:24Z</time>
      </trkpt>
      <trkpt lat="59.8983275" lon="17.7263503">
        <ele>22.2476</ele>
        <time>2014-06-06T14:02:25Z</time>
      </trkpt>
      <trkpt lat="59.8983011" lon="17.7264579">
        <ele>22.2476</ele>
        <time>2014-06-06T14:02:26Z</time>
      </trkpt>
      <trkpt lat="59.8982736" lon="17.7265667">
        <ele>22.2476</ele>
        <time>2014-06-06T14:02:27Z</time>
      </trkpt>
      <trkpt lat="59.898246" lon="17.7266755">
        <ele>22.2476</ele>
        <time>2014-06-06T14:02:28Z</time>
      </trkpt>
      <trkpt lat="59.898217" lon="17.7267863">
        <ele>22.7283</ele>
        <time>2014-06-06T14:02:29Z</time>
      </trkpt>
      <trkpt lat="59.8981848" lon="17.7268925">
        <ele>22.7283</ele>
        <time>2014-06-06T14:02:30Z</time>
      </trkpt>
      <trkpt lat="59.8981498" lon="17.7269942">
        <ele>22.7283</ele>
        <time>2014-06-06T14:02:31Z</time>
      </trkpt>
      <trkpt lat="59.8981146" lon="17.7270946">
        <ele>23.209</ele>
        <time>2014-06-06T14:02:32Z</time>
      </trkpt>
      <trkpt lat="59.8980807" lon="17.727192">
        <ele>23.209</ele>
        <time>2014-06-06T14:02:33Z</time>
      </trkpt>
      <trkpt lat="59.8980453" lon="17.7272904">
        <ele>23.209</ele>
        <time>2014-06-06T14:02:34Z</time>
      </trkpt>
      <trkpt lat="59.8980093" lon="17.7273867">
        <ele>23.209</ele>
        <time>2014-06-06T14:02:35Z</time>
      </trkpt>
      <trkpt lat="59.8979727" lon="17.7274818">
        <ele>23.209</ele>
        <time>2014-06-06T14:02:36Z</time>
      </trkpt>
      <trkpt lat="59.8979355" lon="17.7275772">
        <ele>23.209</ele>
        <time>2014-06-06T14:02:37Z</time>
      </trkpt>
      <trkpt lat="59.8979001" lon="17.7276722">
        <ele>23.209</ele>
        <time>2014-06-06T14:02:38Z</time>
      </trkpt>
      <trkpt lat="59.8978654" lon="17.7277691">
        <ele>23.209</ele>
        <time>2014-06-06T14:02:39Z</time>
      </trkpt>
      <trkpt lat="59.8978312" lon="17.7278679">
        <ele>23.209</ele>
        <time>2014-06-06T14:02:40Z</time>
      </trkpt>
      <trkpt lat="59.8977974" lon="17.7279698">
        <ele>23.209</ele>
        <time>2014-06-06T14:02:41Z</time>
      </trkpt>
      <trkpt lat="59.8977655" lon="17.728072">
        <ele>23.209</ele>
        <time>2014-06-06T14:02:42Z</time>
      </trkpt>
      <trkpt lat="59.897737" lon="17.7281751">
        <ele>23.209</ele>
        <time>2014-06-06T14:02:43Z</time>
      </trkpt>
      <trkpt lat="59.897712" lon="17.7282797">
        <ele>23.6896</ele>
        <time>2014-06-06T14:02:44Z</time>
      </trkpt>
      <trkpt lat="59.8976888" lon="17.7283856">
        <ele>23.6896</ele>
        <time>2014-06-06T14:02:45Z</time>
      </trkpt>
      <trkpt lat="59.897666" lon="17.7284914">
        <ele>23.6896</ele>
        <time>2014-06-06T14:02:46Z</time>
      </trkpt>
      <trkpt lat="59.8976436" lon="17.7285963">
        <ele>23.6896</ele>
        <time>2014-06-06T14:02:47Z</time>
      </trkpt>
      <trkpt lat="59.8976219" lon="17.7287015">
        <ele>23.6896</ele>
        <time>2014-06-06T14:02:48Z</time>
      </trkpt>
      <trkpt lat="59.8976007" lon="17.7288067">
        <ele>23.6896</ele>
        <time>2014-06-06T14:02:49Z</time>
      </trkpt>
      <trkpt lat="59.89758" lon="17.7289107">
        <ele>23.6896</ele>
        <time>2014-06-06T14:02:50Z</time>
      </trkpt>
      <trkpt lat="59.8975598" lon="17.7290133">
        <ele>24.1703</ele>
        <time>2014-06-06T14:02:51Z</time>
      </trkpt>
      <trkpt lat="59.89754" lon="17.7291144">
        <ele>24.1703</ele>
        <time>2014-06-06T14:02:52Z</time>
      </trkpt>
      <trkpt lat="59.897521" lon="17.7292148">
        <ele>24.1703</ele>
        <time>2014-06-06T14:02:53Z</time>
      </trkpt>
      <trkpt lat="59.8975038" lon="17.7293156">
        <ele>24.1703</ele>
        <time>2014-06-06T14:02:54Z</time>
      </trkpt>
      <trkpt lat="59.8974884" lon="17.7294166">
        <ele>24.1703</ele>
        <time>2014-06-06T14:02:55Z</time>
      </trkpt>
      <trkpt lat="59.8974745" lon="17.7295178">
        <ele>24.1703</ele>
        <time>2014-06-06T14:02:56Z</time>
      </trkpt>
      <trkpt lat="59.8974614" lon="17.7296176">
        <ele>24.651</ele>
        <time>2014-06-06T14:02:57Z</time>
      </trkpt>
      <trkpt lat="59.897449" lon="17.7297157">
        <ele>24.651</ele>
        <time>2014-06-06T14:02:58Z</time>
      </trkpt>
      <trkpt lat="59.8974396" lon="17.7298118">
        <ele>24.651</ele>
        <time>2014-06-06T14:02:59Z</time>
      </trkpt>
      <trkpt lat="59.897433" lon="17.7299049">
        <ele>25.1317</ele>
        <time>2014-06-06T14:03:00Z</time>
      </trkpt>
      <trkpt lat="59.8974291" lon="17.7299955">
        <ele>25.1317</ele>
        <time>2014-06-06T14:03:01Z</time>
      </trkpt>
      <trkpt lat="59.8974282" lon="17.730084">
        <ele>25.6123</ele>
        <time>2014-06-06T14:03:02Z</time>
      </trkpt>
      <trkpt lat="59.8974292" lon="17.7301677">
        <ele>25.6123</ele>
        <time>2014-06-06T14:03:03Z</time>
      </trkpt>
      <trkpt lat="59.8974319" lon="17.7302467">
        <ele>26.0929</ele>
        <time>2014-06-06T14:03:04Z</time>
      </trkpt>
      <trkpt lat="59.8974374" lon="17.7303207">
        <ele>26.0929</ele>
        <time>2014-06-06T14:03:05Z</time>
      </trkpt>
      <trkpt lat="59.8974449" lon="17.7303897">
        <ele>26.5736</ele>
        <time>2014-06-06T14:03:06Z</time>
      </trkpt>
      <trkpt lat="59.8974508" lon="17.7304563">
        <ele>27.0543</ele>
        <time>2014-06-06T14:03:07Z</time>
      </trkpt>
      <trkpt lat="59.8974568" lon="17.730518">
        <ele>27.0543</ele>
        <time>2014-06-06T14:03:08Z</time>
      </trkpt>
      <trkpt lat="59.8974629" lon="17.7305806">
        <ele>27.5349</ele>
        <time>2014-06-06T14:03:09Z</time>
      </trkpt>
      <trkpt lat="59.8974708" lon="17.7306415">
        <ele>27.5349</ele>
        <time>2014-06-06T14:03:10Z</time>
      </trkpt>
      <trkpt lat="59.89748" lon="17.7307015">
        <ele>28.0155</ele>
        <time>2014-06-06T14:03:11Z</time>
      </trkpt>
      <trkpt lat="59.8974864" lon="17.7307645">
        <ele>28.0155</ele>
        <time>2014-06-06T14:03:12Z</time>
      </trkpt>
      <trkpt lat="59.8974933" lon="17.7308267">
        <ele>28.4962</ele>
        <time>2014-06-06T14:03:13Z</time>
      </trkpt>
      <trkpt lat="59.8975024" lon="17.7308853">
        <ele>28.4962</ele>
        <time>2014-06-06T14:03:14Z</time>
      </trkpt>
      <trkpt lat="59.8975106" lon="17.7309418">
        <ele>28.4962</ele>
        <time>2014-06-06T14:03:15Z</time>
      </trkpt>
      <trkpt lat="59.8975146" lon="17.7309993">
        <ele>28.4962</ele>
        <time>2014-06-06T14:03:16Z</time>
      </trkpt>
      <trkpt lat="59.8975177" lon="17.7310556">
        <ele>28.4962</ele>
        <time>2014-06-06T14:03:17Z</time>
      </trkpt>
      <trkpt lat="59.897521" lon="17.7311138">
        <ele>28.4962</ele>
        <time>2014-06-06T14:03:18Z</time>
      </trkpt>
      <trkpt lat="59.8975233" lon="17.7311748">
        <ele>28.4962</ele>
        <time>2014-06-06T14:03:19Z</time>
      </trkpt>
      <trkpt lat="59.8975251" lon="17.7312387">
        <ele>28.9769</ele>
        <time>2014-06-06T14:03:20Z</time>
      </trkpt>
      <trkpt lat="59.8975267" lon="17.7313065">
        <ele>28.9769</ele>
        <time>2014-06-06T14:03:21Z</time>
      </trkpt>
      <trkpt lat="59.897526" lon="17.7313785">
        <ele>28.4962</ele>
        <time>2014-06-06T14:03:22Z</time>
      </trkpt>
      <trkpt lat="59.8975266" lon="17.7314513">
        <ele>28.4962</ele>
        <time>2014-06-06T14:03:23Z</time>
      </trkpt>
      <trkpt lat="59.8975251" lon="17.7315334">
        <ele>28.4962</ele>
        <time>2014-06-06T14:03:24Z</time>
      </trkpt>
      <trkpt lat="59.8975257" lon="17.7316147">
        <ele>28.4962</ele>
        <time>2014-06-06T14:03:25Z</time>
      </trkpt>
      <trkpt lat="59.8975267" lon="17.7316971">
        <ele>28.4962</ele>
        <time>2014-06-06T14:03:26Z</time>
      </trkpt>
      <trkpt lat="59.8975239" lon="17.7317837">
        <ele>28.4962</ele>
        <time>2014-06-06T14:03:27Z</time>
      </trkpt>
      <trkpt lat="59.89752" lon="17.7318707">
        <ele>28.4962</ele>
        <time>2014-06-06T14:03:28Z</time>
      </trkpt>
      <trkpt lat="59.8975184" lon="17.7319567">
        <ele>28.0155</ele>
        <time>2014-06-06T14:03:29Z</time>
      </trkpt>
      <trkpt lat="59.8975163" lon="17.7320452">
        <ele>28.0155</ele>
        <time>2014-06-06T14:03:30Z</time>
      </trkpt>
      <trkpt lat="59.8975127" lon="17.7321357">
        <ele>28.0155</ele>
        <time>2014-06-06T14:03:31Z</time>
      </trkpt>
      <trkpt lat="59.8975084" lon="17.732228">
        <ele>28.0155</ele>
        <time>2014-06-06T14:03:32Z</time>
      </trkpt>
      <trkpt lat="59.897507" lon="17.7323178">
        <ele>28.0155</ele>
        <time>2014-06-06T14:03:33Z</time>
      </trkpt>
      <trkpt lat="59.8975028" lon="17.7324107">
        <ele>28.0155</ele>
        <time>2014-06-06T14:03:34Z</time>
      </trkpt>
      <trkpt lat="59.8974976" lon="17.7325036">
        <ele>28.0155</ele>
        <time>2014-06-06T14:03:35Z</time>
      </trkpt>
      <trkpt lat="59.8974939" lon="17.7325979">
        <ele>28.0155</ele>
        <time>2014-06-06T14:03:36Z</time>
      </trkpt>
      <trkpt lat="59.8974897" lon="17.7326944">
        <ele>28.0155</ele>
        <time>2014-06-06T14:03:37Z</time>
      </trkpt>
      <trkpt lat="59.8974863" lon="17.732791">
        <ele>28.0155</ele>
        <time>2014-06-06T14:03:38Z</time>
      </trkpt>
      <trkpt lat="59.8974831" lon="17.7328871">
        <ele>28.0155</ele>
        <time>2014-06-06T14:03:39Z</time>
      </trkpt>
      <trkpt lat="59.8974764" lon="17.7329878">
        <ele>28.4962</ele>
        <time>2014-06-06T14:03:40Z</time>
      </trkpt>
      <trkpt lat="59.8974711" lon="17.7330852">
        <ele>28.4962</ele>
        <time>2014-06-06T14:03:41Z</time>
      </trkpt>
      <trkpt lat="59.8974631" lon="17.7331832">
        <ele>28.4962</ele>
        <time>2014-06-06T14:03:42Z</time>
      </trkpt>
      <trkpt lat="59.8974536" lon="17.7332811">
        <ele>28.4962</ele>
        <time>2014-06-06T14:03:43Z</time>
      </trkpt>
      <trkpt lat="59.8974438" lon="17.7333769">
        <ele>28.9769</ele>
        <time>2014-06-06T14:03:44Z</time>
      </trkpt>
      <trkpt lat="59.8974328" lon="17.7334697">
        <ele>28.9769</ele>
        <time>2014-06-06T14:03:45Z</time>
      </trkpt>
      <trkpt lat="59.8974205" lon="17.7335617">
        <ele>28.9769</ele>
        <time>2014-06-06T14:03:46Z</time>
      </trkpt>
      <trkpt lat="59.8974083" lon="17.7336537">
        <ele>28.9769</ele>
        <time>2014-06-06T14:03:47Z</time>
      </trkpt>
      <trkpt lat="59.8973955" lon="17.7337463">
        <ele>28.9769</ele>
        <time>2014-06-06T14:03:48Z</time>
      </trkpt>
      <trkpt lat="59.8973801" lon="17.7338399">
        <ele>28.9769</ele>
        <time>2014-06-06T14:03:49Z</time>
      </trkpt>
      <trkpt lat="59.8973618" lon="17.7339343">
        <ele>28.4962</ele>
        <time>2014-06-06T14:03:50Z</time>
      </trkpt>
      <trkpt lat="59.8973397" lon="17.7340297">
        <ele>28.4962</ele>
        <time>2014-06-06T14:03:51Z</time>
      </trkpt>
      <trkpt lat="59.8973144" lon="17.7341272">
        <ele>28.4962</ele>
        <time>2014-06-06T14:03:52Z</time>
      </trkpt>
      <trkpt lat="59.8972892" lon="17.7342225">
        <ele>28.9769</ele>
        <time>2014-06-06T14:03:53Z</time>
      </trkpt>
      <trkpt lat="59.8972638" lon="17.7343182">
        <ele>28.9769</ele>
        <time>2014-06-06T14:03:54Z</time>
      </trkpt>
      <trkpt lat="59.8972393" lon="17.7344151">
        <ele>28.9769</ele>
        <time>2014-06-06T14:03:55Z</time>
      </trkpt>
      <trkpt lat="59.8972169" lon="17.7345156">
        <ele>28.4962</ele>
        <time>2014-06-06T14:03:56Z</time>
      </trkpt>
      <trkpt lat="59.8971972" lon="17.7346212">
        <ele>28.4962</ele>
        <time>2014-06-06T14:03:57Z</time>
      </trkpt>
      <trkpt lat="59.8971799" lon="17.7347326">
        <ele>28.4962</ele>
        <time>2014-06-06T14:03:58Z</time>
      </trkpt>
      <trkpt lat="59.8971667" lon="17.7348503">
        <ele>28.4962</ele>
        <time>2014-06-06T14:03:59Z</time>
      </trkpt>
      <trkpt lat="59.8971572" lon="17.7349725">
        <ele>28.0155</ele>
        <time>2014-06-06T14:04:00Z</time>
      </trkpt>
      <trkpt lat="59.8971499" lon="17.7350977">
        <ele>27.5349</ele>
        <time>2014-06-06T14:04:01Z</time>
      </trkpt>
      <trkpt lat="59.8971458" lon="17.7352237">
        <ele>27.5349</ele>
        <time>2014-06-06T14:04:02Z</time>
      </trkpt>
      <trkpt lat="59.8971433" lon="17.735354">
        <ele>27.0543</ele>
        <time>2014-06-06T14:04:03Z</time>
      </trkpt>
      <trkpt lat="59.8971491" lon="17.7355237">
        <ele>26.5736</ele>
        <time>2014-06-06T14:04:04Z</time>
      </trkpt>
      <trkpt lat="59.8971473" lon="17.7356816">
        <ele>26.0929</ele>
        <time>2014-06-06T14:04:05Z</time>
      </trkpt>
      <trkpt lat="59.8971459" lon="17.7358215">
        <ele>26.0929</ele>
        <time>2014-06-06T14:04:06Z</time>
      </trkpt>
      <trkpt lat="59.8971429" lon="17.7359555">
        <ele>25.6123</ele>
        <time>2014-06-06T14:04:07Z</time>
      </trkpt>
      <trkpt lat="59.8971367" lon="17.736094">
        <ele>25.6123</ele>
        <time>2014-06-06T14:04:08Z</time>
      </trkpt>
      <trkpt lat="59.8971221" lon="17.7362385">
        <ele>25.6123</ele>
        <time>2014-06-06T14:04:09Z</time>
      </trkpt>
      <trkpt lat="59.8971049" lon="17.7363761">
        <ele>25.6123</ele>
        <time>2014-06-06T14:04:10Z</time>
      </trkpt>
      <trkpt lat="59.8970839" lon="17.736505">
        <ele>25.6123</ele>
        <time>2014-06-06T14:04:11Z</time>
      </trkpt>
      <trkpt lat="59.8970582" lon="17.7366234">
        <ele>25.6123</ele>
        <time>2014-06-06T14:04:12Z</time>
      </trkpt>
      <trkpt lat="59.8970293" lon="17.7367348">
        <ele>25.6123</ele>
        <time>2014-06-06T14:04:13Z</time>
      </trkpt>
      <trkpt lat="59.8969983" lon="17.7368387">
        <ele>26.0929</ele>
        <time>2014-06-06T14:04:14Z</time>
      </trkpt>
      <trkpt lat="59.8969675" lon="17.7369369">
        <ele>26.0929</ele>
        <time>2014-06-06T14:04:15Z</time>
      </trkpt>
      <trkpt lat="59.8969367" lon="17.7370299">
        <ele>26.0929</ele>
        <time>2014-06-06T14:04:16Z</time>
      </trkpt>
      <trkpt lat="59.8969056" lon="17.7371184">
        <ele>26.0929</ele>
        <time>2014-06-06T14:04:17Z</time>
      </trkpt>
      <trkpt lat="59.8968748" lon="17.7372038">
        <ele>26.5736</ele>
        <time>2014-06-06T14:04:18Z</time>
      </trkpt>
      <trkpt lat="59.8968439" lon="17.7372844">
        <ele>26.5736</ele>
        <time>2014-06-06T14:04:19Z</time>
      </trkpt>
      <trkpt lat="59.896813" lon="17.7373601">
        <ele>26.5736</ele>
        <time>2014-06-06T14:04:20Z</time>
      </trkpt>
      <trkpt lat="59.8967829" lon="17.7374338">
        <ele>26.5736</ele>
        <time>2014-06-06T14:04:21Z</time>
      </trkpt>
      <trkpt lat="59.8967538" lon="17.7375085">
        <ele>26.5736</ele>
        <time>2014-06-06T14:04:22Z</time>
      </trkpt>
      <trkpt lat="59.8967253" lon="17.7375854">
        <ele>26.5736</ele>
        <time>2014-06-06T14:04:23Z</time>
      </trkpt>
      <trkpt lat="59.8966978" lon="17.7376646">
        <ele>26.0929</ele>
        <time>2014-06-06T14:04:24Z</time>
      </trkpt>
      <trkpt lat="59.8966724" lon="17.7377464">
        <ele>26.0929</ele>
        <time>2014-06-06T14:04:25Z</time>
      </trkpt>
      <trkpt lat="59.8966482" lon="17.7378309">
        <ele>26.0929</ele>
        <time>2014-06-06T14:04:26Z</time>
      </trkpt>
      <trkpt lat="59.8966249" lon="17.7379182">
        <ele>26.0929</ele>
        <time>2014-06-06T14:04:27Z</time>
      </trkpt>
      <trkpt lat="59.896602" lon="17.7380085">
        <ele>26.0929</ele>
        <time>2014-06-06T14:04:28Z</time>
      </trkpt>
      <trkpt lat="59.8965796" lon="17.7381029">
        <ele>26.0929</ele>
        <time>2014-06-06T14:04:29Z</time>
      </trkpt>
      <trkpt lat="59.8965583" lon="17.7382018">
        <ele>25.6123</ele>
        <time>2014-06-06T14:04:30Z</time>
      </trkpt>
      <trkpt lat="59.8965373" lon="17.7383039">
        <ele>25.6123</ele>
        <time>2014-06-06T14:04:31Z</time>
      </trkpt>
      <trkpt lat="59.8965143" lon="17.7384069">
        <ele>25.6123</ele>
        <time>2014-06-06T14:04:32Z</time>
      </trkpt>
      <trkpt lat="59.8964884" lon="17.7385068">
        <ele>25.6123</ele>
        <time>2014-06-06T14:04:33Z</time>
      </trkpt>
      <trkpt lat="59.896458" lon="17.7385966">
        <ele>25.6123</ele>
        <time>2014-06-06T14:04:34Z</time>
      </trkpt>
      <trkpt lat="59.8964207" lon="17.7386735">
        <ele>25.6123</ele>
        <time>2014-06-06T14:04:35Z</time>
      </trkpt>
      <trkpt lat="59.8963771" lon="17.7387353">
        <ele>25.6123</ele>
        <time>2014-06-06T14:04:36Z</time>
      </trkpt>
      <trkpt lat="59.896321" lon="17.7387595">
        <ele>25.6123</ele>
        <time>2014-06-06T14:04:37Z</time>
      </trkpt>
      <trkpt lat="59.8962665" lon="17.7387843">
        <ele>25.1317</ele>
        <time>2014-06-06T14:04:38Z</time>
      </trkpt>
      <trkpt lat="59.8962119" lon="17.7388032">
        <ele>25.1317</ele>
        <time>2014-06-06T14:04:39Z</time>
      </trkpt>
      <trkpt lat="59.8961534" lon="17.7388229">
        <ele>24.651</ele>
        <time>2014-06-06T14:04:40Z</time>
      </trkpt>
      <trkpt lat="59.8960898" lon="17.7388406">
        <ele>24.1703</ele>
        <time>2014-06-06T14:04:41Z</time>
      </trkpt>
      <trkpt lat="59.8960264" lon="17.7388625">
        <ele>24.1703</ele>
        <time>2014-06-06T14:04:42Z</time>
      </trkpt>
      <trkpt lat="59.8959617" lon="17.7388827">
        <ele>24.1703</ele>
        <time>2014-06-06T14:04:43Z</time>
      </trkpt>
      <trkpt lat="59.895897" lon="17.7389042">
        <ele>23.6896</ele>
        <time>2014-06-06T14:04:44Z</time>
      </trkpt>
      <trkpt lat="59.8958341" lon="17.7389233">
        <ele>23.6896</ele>
        <time>2014-06-06T14:04:45Z</time>
      </trkpt>
      <trkpt lat="59.895773" lon="17.7389404">
        <ele>23.6896</ele>
        <time>2014-06-06T14:04:46Z</time>
      </trkpt>
      <trkpt lat="59.8957142" lon="17.7389571">
        <ele>23.6896</ele>
        <time>2014-06-06T14:04:47Z</time>
      </trkpt>
      <trkpt lat="59.8956572" lon="17.7389741">
        <ele>23.6896</ele>
        <time>2014-06-06T14:04:48Z</time>
      </trkpt>
      <trkpt lat="59.8956007" lon="17.7389899">
        <ele>23.6896</ele>
        <time>2014-06-06T14:04:49Z</time>
      </trkpt>
      <trkpt lat="59.8955448" lon="17.739004">
        <ele>23.6896</ele>
        <time>2014-06-06T14:04:50Z</time>
      </trkpt>
      <trkpt lat="59.8954893" lon="17.7390185">
        <ele>23.6896</ele>
        <time>2014-06-06T14:04:51Z</time>
      </trkpt>
      <trkpt lat="59.8954342" lon="17.7390337">
        <ele>23.6896</ele>
        <time>2014-06-06T14:04:52Z</time>
      </trkpt>
      <trkpt lat="59.8953793" lon="17.7390482">
        <ele>23.6896</ele>
        <time>2014-06-06T14:04:53Z</time>
      </trkpt>
      <trkpt lat="59.8953242" lon="17.7390628">
        <ele>24.1703</ele>
        <time>2014-06-06T14:04:54Z</time>
      </trkpt>
      <trkpt lat="59.8952697" lon="17.7390786">
        <ele>24.1703</ele>
        <time>2014-06-06T14:04:55Z</time>
      </trkpt>
      <trkpt lat="59.8952159" lon="17.7390937">
        <ele>24.1703</ele>
        <time>2014-06-06T14:04:56Z</time>
      </trkpt>
      <trkpt lat="59.8951636" lon="17.7391097">
        <ele>24.1703</ele>
        <time>2014-06-06T14:04:57Z</time>
      </trkpt>
      <trkpt lat="59.8951128" lon="17.739126">
        <ele>24.1703</ele>
        <time>2014-06-06T14:04:58Z</time>
      </trkpt>
      <trkpt lat="59.8950626" lon="17.7391415">
        <ele>24.1703</ele>
        <time>2014-06-06T14:04:59Z</time>
      </trkpt>
      <trkpt lat="59.8950133" lon="17.7391588">
        <ele>24.651</ele>
        <time>2014-06-06T14:05:00Z</time>
      </trkpt>
      <trkpt lat="59.8949651" lon="17.7391781">
        <ele>24.651</ele>
        <time>2014-06-06T14:05:01Z</time>
      </trkpt>
      <trkpt lat="59.8949176" lon="17.739198">
        <ele>24.651</ele>
        <time>2014-06-06T14:05:02Z</time>
      </trkpt>
      <trkpt lat="59.8948714" lon="17.7392185">
        <ele>25.1317</ele>
        <time>2014-06-06T14:05:03Z</time>
      </trkpt>
      <trkpt lat="59.8948263" lon="17.7392393">
        <ele>25.1317</ele>
        <time>2014-06-06T14:05:04Z</time>
      </trkpt>
      <trkpt lat="59.8947828" lon="17.7392625">
        <ele>25.1317</ele>
        <time>2014-06-06T14:05:05Z</time>
      </trkpt>
      <trkpt lat="59.8947391" lon="17.7392864">
        <ele>25.6123</ele>
        <time>2014-06-06T14:05:06Z</time>
      </trkpt>
      <trkpt lat="59.894696" lon="17.7393067">
        <ele>25.6123</ele>
        <time>2014-06-06T14:05:07Z</time>
      </trkpt>
      <trkpt lat="59.8946574" lon="17.7393305">
        <ele>26.0929</ele>
        <time>2014-06-06T14:05:08Z</time>
      </trkpt>
      <trkpt lat="59.8946197" lon="17.7393575">
        <ele>26.0929</ele>
        <time>2014-06-06T14:05:09Z</time>
      </trkpt>
      <trkpt lat="59.8945812" lon="17.7393849">
        <ele>26.0929</ele>
        <time>2014-06-06T14:05:10Z</time>
      </trkpt>
      <trkpt lat="59.8945434" lon="17.7394174">
        <ele>26.5736</ele>
        <time>2014-06-06T14:05:11Z</time>
      </trkpt>
      <trkpt lat="59.8945108" lon="17.7394528">
        <ele>27.0543</ele>
        <time>2014-06-06T14:05:12Z</time>
      </trkpt>
      <trkpt lat="59.8944829" lon="17.7394947">
        <ele>27.0543</ele>
        <time>2014-06-06T14:05:13Z</time>
      </trkpt>
      <trkpt lat="59.8944579" lon="17.7395336">
        <ele>27.0543</ele>
        <time>2014-06-06T14:05:14Z</time>
      </trkpt>
      <trkpt lat="59.8944293" lon="17.7395645">
        <ele>27.5349</ele>
        <time>2014-06-06T14:05:15Z</time>
      </trkpt>
      <trkpt lat="59.894403" lon="17.7396022">
        <ele>27.5349</ele>
        <time>2014-06-06T14:05:16Z</time>
      </trkpt>
      <trkpt lat="59.8943935" lon="17.7396502">
        <ele>27.0543</ele>
        <time>2014-06-06T14:05:17Z</time>
      </trkpt>
      <trkpt lat="59.8943957" lon="17.739709">
        <ele>27.0543</ele>
        <time>2014-06-06T14:05:18Z</time>
      </trkpt>
      <trkpt lat="59.8944106" lon="17.739763">
        <ele>27.0543</ele>
        <time>2014-06-06T14:05:19Z</time>
      </trkpt>
      <trkpt lat="59.8944265" lon="17.7398051">
        <ele>27.0543</ele>
        <time>2014-06-06T14:05:20Z</time>
      </trkpt>
      <trkpt lat="59.8944414" lon="17.7398403">
        <ele>27.0543</ele>
        <time>2014-06-06T14:05:21Z</time>
      </trkpt>
      <trkpt lat="59.8944572" lon="17.7398711">
        <ele>27.0543</ele>
        <time>2014-06-06T14:05:22Z</time>
      </trkpt>
      <trkpt lat="59.8944747" lon="17.7398971">
        <ele>27.0543</ele>
        <time>2014-06-06T14:05:23Z</time>
      </trkpt>
      <trkpt lat="59.8944952" lon="17.7399138">
        <ele>27.0543</ele>
        <time>2014-06-06T14:05:24Z</time>
      </trkpt>
      <trkpt lat="59.8945149" lon="17.7399325">
        <ele>27.0543</ele>
        <time>2014-06-06T14:05:25Z</time>
      </trkpt>
      <trkpt lat="59.8945383" lon="17.7399489">
        <ele>27.0543</ele>
        <time>2014-06-06T14:05:26Z</time>
      </trkpt>
      <trkpt lat="59.8945577" lon="17.7399534">
        <ele>26.5736</ele>
        <time>2014-06-06T14:05:27Z</time>
      </trkpt>
      <trkpt lat="59.8945691" lon="17.7399521">
        <ele>26.5736</ele>
        <time>2014-06-06T14:05:28Z</time>
      </trkpt>
      <trkpt lat="59.8945719" lon="17.7399537">
        <ele>27.0543</ele>
        <time>2014-06-06T14:05:29Z</time>
      </trkpt>
      <trkpt lat="59.8948356" lon="17.7392714">
        <ele>25.6123</ele>
        <time>2014-06-06T14:33:26Z</time>
      </trkpt>
      <trkpt lat="59.8948753" lon="17.7392528">
        <ele>25.6123</ele>
        <time>2014-06-06T14:33:27Z</time>
      </trkpt>
      <trkpt lat="59.8949154" lon="17.7392316">
        <ele>25.6123</ele>
        <time>2014-06-06T14:33:28Z</time>
      </trkpt>
      <trkpt lat="59.8949559" lon="17.7392097">
        <ele>25.6123</ele>
        <time>2014-06-06T14:33:29Z</time>
      </trkpt>
      <trkpt lat="59.894996" lon="17.7391918">
        <ele>25.1317</ele>
        <time>2014-06-06T14:33:30Z</time>
      </trkpt>
      <trkpt lat="59.8950335" lon="17.7391769">
        <ele>25.1317</ele>
        <time>2014-06-06T14:33:31Z</time>
      </trkpt>
      <trkpt lat="59.895069" lon="17.7391646">
        <ele>25.1317</ele>
        <time>2014-06-06T14:33:32Z</time>
      </trkpt>
      <trkpt lat="59.8951033" lon="17.7391563">
        <ele>25.1317</ele>
        <time>2014-06-06T14:33:33Z</time>
      </trkpt>
      <trkpt lat="59.895138" lon="17.739156">
        <ele>25.1317</ele>
        <time>2014-06-06T14:33:34Z</time>
      </trkpt>
      <trkpt lat="59.8951737" lon="17.7391571">
        <ele>25.1317</ele>
        <time>2014-06-06T14:33:35Z</time>
      </trkpt>
      <trkpt lat="59.8952048" lon="17.7391599">
        <ele>25.1317</ele>
        <time>2014-06-06T14:33:36Z</time>
      </trkpt>
      <trkpt lat="59.8952289" lon="17.7391672">
        <ele>25.1317</ele>
        <time>2014-06-06T14:33:37Z</time>
      </trkpt>
      <trkpt lat="59.8952468" lon="17.7391692">
        <ele>25.1317</ele>
        <time>2014-06-06T14:33:38Z</time>
      </trkpt>
      <trkpt lat="59.8952597" lon="17.7391682">
        <ele>25.1317</ele>
        <time>2014-06-06T14:33:39Z</time>
      </trkpt>
      <trkpt lat="59.895266" lon="17.7391662">
        <ele>25.1317</ele>
        <time>2014-06-06T14:33:40Z</time>
      </trkpt>
      <trkpt lat="59.895267" lon="17.739165">
        <ele>25.1317</ele>
        <time>2014-06-06T14:33:41Z</time>
      </trkpt>
      <trkpt lat="59.8952675" lon="17.7391653">
        <ele>25.1317</ele>
        <time>2014-06-06T14:33:42Z</time>
      </trkpt>
      <trkpt lat="59.8952915" lon="17.7391382">
        <ele>27.0543</ele>
        <time>2014-06-06T14:33:57Z</time>
      </trkpt>
      <trkpt lat="59.895323" lon="17.7391312">
        <ele>27.0543</ele>
        <time>2014-06-06T14:33:58Z</time>
      </trkpt>
      <trkpt lat="59.8953604" lon="17.7391244">
        <ele>27.0543</ele>
        <time>2014-06-06T14:33:59Z</time>
      </trkpt>
      <trkpt lat="59.8954011" lon="17.739114">
        <ele>27.0543</ele>
        <time>2014-06-06T14:34:00Z</time>
      </trkpt>
      <trkpt lat="59.8954431" lon="17.739101">
        <ele>27.0543</ele>
        <time>2014-06-06T14:34:01Z</time>
      </trkpt>
      <trkpt lat="59.8954846" lon="17.7390876">
        <ele>27.0543</ele>
        <time>2014-06-06T14:34:02Z</time>
      </trkpt>
      <trkpt lat="59.8955276" lon="17.7390767">
        <ele>27.0543</ele>
        <time>2014-06-06T14:34:03Z</time>
      </trkpt>
      <trkpt lat="59.8955716" lon="17.7390698">
        <ele>27.0543</ele>
        <time>2014-06-06T14:34:04Z</time>
      </trkpt>
      <trkpt lat="59.8956155" lon="17.7390616">
        <ele>26.5736</ele>
        <time>2014-06-06T14:34:05Z</time>
      </trkpt>
      <trkpt lat="59.8956575" lon="17.739049">
        <ele>26.5736</ele>
        <time>2014-06-06T14:34:06Z</time>
      </trkpt>
      <trkpt lat="59.8956991" lon="17.7390333">
        <ele>26.5736</ele>
        <time>2014-06-06T14:34:07Z</time>
      </trkpt>
      <trkpt lat="59.8957407" lon="17.7390202">
        <ele>26.5736</ele>
        <time>2014-06-06T14:34:08Z</time>
      </trkpt>
      <trkpt lat="59.8957836" lon="17.739012">
        <ele>26.5736</ele>
        <time>2014-06-06T14:34:09Z</time>
      </trkpt>
      <trkpt lat="59.8958276" lon="17.7390045">
        <ele>27.0543</ele>
        <time>2014-06-06T14:34:10Z</time>
      </trkpt>
      <trkpt lat="59.895872" lon="17.7389929">
        <ele>27.0543</ele>
        <time>2014-06-06T14:34:11Z</time>
      </trkpt>
      <trkpt lat="59.8959166" lon="17.738977">
        <ele>27.0543</ele>
        <time>2014-06-06T14:34:12Z</time>
      </trkpt>
      <trkpt lat="59.8959615" lon="17.7389602">
        <ele>27.0543</ele>
        <time>2014-06-06T14:34:13Z</time>
      </trkpt>
      <trkpt lat="59.8960063" lon="17.738944">
        <ele>27.0543</ele>
        <time>2014-06-06T14:34:14Z</time>
      </trkpt>
      <trkpt lat="59.8960514" lon="17.7389263">
        <ele>27.0543</ele>
        <time>2014-06-06T14:34:15Z</time>
      </trkpt>
      <trkpt lat="59.8960962" lon="17.7389094">
        <ele>27.0543</ele>
        <time>2014-06-06T14:34:16Z</time>
      </trkpt>
      <trkpt lat="59.8961409" lon="17.7388962">
        <ele>27.0543</ele>
        <time>2014-06-06T14:34:17Z</time>
      </trkpt>
      <trkpt lat="59.896185" lon="17.7388853">
        <ele>27.5349</ele>
        <time>2014-06-06T14:34:18Z</time>
      </trkpt>
      <trkpt lat="59.8962276" lon="17.7388744">
        <ele>27.5349</ele>
        <time>2014-06-06T14:34:19Z</time>
      </trkpt>
      <trkpt lat="59.8962669" lon="17.7388563">
        <ele>28.0155</ele>
        <time>2014-06-06T14:34:20Z</time>
      </trkpt>
      <trkpt lat="59.8963043" lon="17.7388326">
        <ele>28.0155</ele>
        <time>2014-06-06T14:34:21Z</time>
      </trkpt>
      <trkpt lat="59.8963407" lon="17.7388099">
        <ele>28.0155</ele>
        <time>2014-06-06T14:34:22Z</time>
      </trkpt>
      <trkpt lat="59.8963762" lon="17.7387885">
        <ele>28.0155</ele>
        <time>2014-06-06T14:34:23Z</time>
      </trkpt>
      <trkpt lat="59.8964104" lon="17.7387634">
        <ele>28.0155</ele>
        <time>2014-06-06T14:34:24Z</time>
      </trkpt>
      <trkpt lat="59.896443" lon="17.7387316">
        <ele>28.0155</ele>
        <time>2014-06-06T14:34:25Z</time>
      </trkpt>
      <trkpt lat="59.8964757" lon="17.7386924">
        <ele>28.0155</ele>
        <time>2014-06-06T14:34:26Z</time>
      </trkpt>
      <trkpt lat="59.8965056" lon="17.7386373">
        <ele>27.5349</ele>
        <time>2014-06-06T14:34:27Z</time>
      </trkpt>
      <trkpt lat="59.8965309" lon="17.7385659">
        <ele>27.5349</ele>
        <time>2014-06-06T14:34:28Z</time>
      </trkpt>
      <trkpt lat="59.8965549" lon="17.7384896">
        <ele>27.5349</ele>
        <time>2014-06-06T14:34:29Z</time>
      </trkpt>
      <trkpt lat="59.8965771" lon="17.7384121">
        <ele>27.5349</ele>
        <time>2014-06-06T14:34:30Z</time>
      </trkpt>
      <trkpt lat="59.8965972" lon="17.7383347">
        <ele>27.0543</ele>
        <time>2014-06-06T14:34:31Z</time>
      </trkpt>
      <trkpt lat="59.896616" lon="17.7382555">
        <ele>27.0543</ele>
        <time>2014-06-06T14:34:32Z</time>
      </trkpt>
      <trkpt lat="59.8966336" lon="17.7381749">
        <ele>27.0543</ele>
        <time>2014-06-06T14:34:33Z</time>
      </trkpt>
      <trkpt lat="59.8966526" lon="17.7380953">
        <ele>27.0543</ele>
        <time>2014-06-06T14:34:34Z</time>
      </trkpt>
      <trkpt lat="59.8966738" lon="17.7380166">
        <ele>26.5736</ele>
        <time>2014-06-06T14:34:35Z</time>
      </trkpt>
      <trkpt lat="59.8966967" lon="17.7379387">
        <ele>26.5736</ele>
        <time>2014-06-06T14:34:36Z</time>
      </trkpt>
      <trkpt lat="59.8967187" lon="17.7378607">
        <ele>26.5736</ele>
        <time>2014-06-06T14:34:37Z</time>
      </trkpt>
      <trkpt lat="59.8967398" lon="17.7377862">
        <ele>26.5736</ele>
        <time>2014-06-06T14:34:38Z</time>
      </trkpt>
      <trkpt lat="59.89676" lon="17.7377152">
        <ele>27.0543</ele>
        <time>2014-06-06T14:34:39Z</time>
      </trkpt>
      <trkpt lat="59.8967841" lon="17.7376516">
        <ele>27.0543</ele>
        <time>2014-06-06T14:34:40Z</time>
      </trkpt>
      <trkpt lat="59.8968175" lon="17.7376097">
        <ele>27.0543</ele>
        <time>2014-06-06T14:34:41Z</time>
      </trkpt>
      <trkpt lat="59.8968564" lon="17.7376035">
        <ele>27.0543</ele>
        <time>2014-06-06T14:34:42Z</time>
      </trkpt>
      <trkpt lat="59.8968942" lon="17.7376293">
        <ele>27.0543</ele>
        <time>2014-06-06T14:34:43Z</time>
      </trkpt>
      <trkpt lat="59.8969284" lon="17.7376769">
        <ele>27.0543</ele>
        <time>2014-06-06T14:34:44Z</time>
      </trkpt>
      <trkpt lat="59.8969582" lon="17.7377371">
        <ele>27.5349</ele>
        <time>2014-06-06T14:34:45Z</time>
      </trkpt>
      <trkpt lat="59.8969859" lon="17.7378011">
        <ele>27.5349</ele>
        <time>2014-06-06T14:34:46Z</time>
      </trkpt>
      <trkpt lat="59.8970149" lon="17.7378666">
        <ele>28.0155</ele>
        <time>2014-06-06T14:34:47Z</time>
      </trkpt>
      <trkpt lat="59.8970435" lon="17.7379379">
        <ele>28.0155</ele>
        <time>2014-06-06T14:34:48Z</time>
      </trkpt>
      <trkpt lat="59.8970724" lon="17.7380143">
        <ele>28.0155</ele>
        <time>2014-06-06T14:34:49Z</time>
      </trkpt>
      <trkpt lat="59.8971048" lon="17.738093">
        <ele>28.0155</ele>
        <time>2014-06-06T14:34:50Z</time>
      </trkpt>
      <trkpt lat="59.8971391" lon="17.7381759">
        <ele>28.0155</ele>
        <time>2014-06-06T14:34:51Z</time>
      </trkpt>
      <trkpt lat="59.8971749" lon="17.7382652">
        <ele>28.0155</ele>
        <time>2014-06-06T14:34:52Z</time>
      </trkpt>
      <trkpt lat="59.8972113" lon="17.7383566">
        <ele>27.5349</ele>
        <time>2014-06-06T14:34:53Z</time>
      </trkpt>
      <trkpt lat="59.8972485" lon="17.7384479">
        <ele>28.0155</ele>
        <time>2014-06-06T14:34:54Z</time>
      </trkpt>
      <trkpt lat="59.8972856" lon="17.738539">
        <ele>28.0155</ele>
        <time>2014-06-06T14:34:55Z</time>
      </trkpt>
      <trkpt lat="59.8973215" lon="17.7386295">
        <ele>28.0155</ele>
        <time>2014-06-06T14:34:56Z</time>
      </trkpt>
      <trkpt lat="59.8973566" lon="17.7387208">
        <ele>28.0155</ele>
        <time>2014-06-06T14:34:57Z</time>
      </trkpt>
      <trkpt lat="59.8973918" lon="17.7388141">
        <ele>28.0155</ele>
        <time>2014-06-06T14:34:58Z</time>
      </trkpt>
      <trkpt lat="59.897427" lon="17.7389087">
        <ele>28.0155</ele>
        <time>2014-06-06T14:34:59Z</time>
      </trkpt>
      <trkpt lat="59.8974614" lon="17.7390017">
        <ele>28.4962</ele>
        <time>2014-06-06T14:35:00Z</time>
      </trkpt>
      <trkpt lat="59.8974954" lon="17.7390917">
        <ele>28.4962</ele>
        <time>2014-06-06T14:35:01Z</time>
      </trkpt>
      <trkpt lat="59.8975285" lon="17.7391803">
        <ele>28.4962</ele>
        <time>2014-06-06T14:35:02Z</time>
      </trkpt>
      <trkpt lat="59.8975604" lon="17.7392698">
        <ele>28.4962</ele>
        <time>2014-06-06T14:35:03Z</time>
      </trkpt>
      <trkpt lat="59.897592" lon="17.7393603">
        <ele>28.9769</ele>
        <time>2014-06-06T14:35:04Z</time>
      </trkpt>
      <trkpt lat="59.897624" lon="17.7394503">
        <ele>28.9769</ele>
        <time>2014-06-06T14:35:05Z</time>
      </trkpt>
      <trkpt lat="59.8976571" lon="17.7395399">
        <ele>28.9769</ele>
        <time>2014-06-06T14:35:06Z</time>
      </trkpt>
      <trkpt lat="59.8976903" lon="17.7396307">
        <ele>28.9769</ele>
        <time>2014-06-06T14:35:07Z</time>
      </trkpt>
      <trkpt lat="59.8977219" lon="17.7397205">
        <ele>29.4575</ele>
        <time>2014-06-06T14:35:08Z</time>
      </trkpt>
      <trkpt lat="59.8977518" lon="17.7398084">
        <ele>29.4575</ele>
        <time>2014-06-06T14:35:09Z</time>
      </trkpt>
      <trkpt lat="59.8977813" lon="17.7398945">
        <ele>29.4575</ele>
        <time>2014-06-06T14:35:10Z</time>
      </trkpt>
      <trkpt lat="59.8978111" lon="17.7399801">
        <ele>29.4575</ele>
        <time>2014-06-06T14:35:11Z</time>
      </trkpt>
      <trkpt lat="59.8978401" lon="17.7400665">
        <ele>29.9381</ele>
        <time>2014-06-06T14:35:12Z</time>
      </trkpt>
      <trkpt lat="59.8978692" lon="17.7401535">
        <ele>29.9381</ele>
        <time>2014-06-06T14:35:13Z</time>
      </trkpt>
      <trkpt lat="59.8978991" lon="17.7402401">
        <ele>29.9381</ele>
        <time>2014-06-06T14:35:14Z</time>
      </trkpt>
      <trkpt lat="59.8979295" lon="17.7403264">
        <ele>30.4188</ele>
        <time>2014-06-06T14:35:15Z</time>
      </trkpt>
      <trkpt lat="59.89796" lon="17.7404103">
        <ele>30.4188</ele>
        <time>2014-06-06T14:35:16Z</time>
      </trkpt>
      <trkpt lat="59.8979912" lon="17.7404939">
        <ele>30.4188</ele>
        <time>2014-06-06T14:35:17Z</time>
      </trkpt>
      <trkpt lat="59.8980229" lon="17.7405757">
        <ele>30.4188</ele>
        <time>2014-06-06T14:35:18Z</time>
      </trkpt>
      <trkpt lat="59.8980548" lon="17.7406556">
        <ele>30.8995</ele>
        <time>2014-06-06T14:35:19Z</time>
      </trkpt>
      <trkpt lat="59.8980877" lon="17.7407315">
        <ele>30.8995</ele>
        <time>2014-06-06T14:35:20Z</time>
      </trkpt>
      <trkpt lat="59.8981225" lon="17.7408019">
        <ele>30.8995</ele>
        <time>2014-06-06T14:35:21Z</time>
      </trkpt>
      <trkpt lat="59.8981581" lon="17.7408708">
        <ele>30.8995</ele>
        <time>2014-06-06T14:35:22Z</time>
      </trkpt>
      <trkpt lat="59.8981933" lon="17.7409393">
        <ele>30.8995</ele>
        <time>2014-06-06T14:35:23Z</time>
      </trkpt>
      <trkpt lat="59.8982289" lon="17.7410047">
        <ele>30.8995</ele>
        <time>2014-06-06T14:35:24Z</time>
      </trkpt>
      <trkpt lat="59.8982658" lon="17.7410687">
        <ele>31.3801</ele>
        <time>2014-06-06T14:35:25Z</time>
      </trkpt>
      <trkpt lat="59.8983031" lon="17.7411306">
        <ele>31.3801</ele>
        <time>2014-06-06T14:35:26Z</time>
      </trkpt>
      <trkpt lat="59.8983408" lon="17.7411913">
        <ele>31.8607</ele>
        <time>2014-06-06T14:35:27Z</time>
      </trkpt>
      <trkpt lat="59.8983788" lon="17.7412516">
        <ele>31.8607</ele>
        <time>2014-06-06T14:35:28Z</time>
      </trkpt>
      <trkpt lat="59.8984183" lon="17.7413107">
        <ele>31.8607</ele>
        <time>2014-06-06T14:35:29Z</time>
      </trkpt>
      <trkpt lat="59.8984584" lon="17.7413704">
        <ele>32.3416</ele>
        <time>2014-06-06T14:35:30Z</time>
      </trkpt>
      <trkpt lat="59.8984974" lon="17.7414313">
        <ele>32.8223</ele>
        <time>2014-06-06T14:35:31Z</time>
      </trkpt>
      <trkpt lat="59.8985364" lon="17.7414911">
        <ele>32.8223</ele>
        <time>2014-06-06T14:35:32Z</time>
      </trkpt>
      <trkpt lat="59.8985755" lon="17.7415489">
        <ele>33.3029</ele>
        <time>2014-06-06T14:35:33Z</time>
      </trkpt>
      <trkpt lat="59.8986136" lon="17.7416075">
        <ele>33.7834</ele>
        <time>2014-06-06T14:35:34Z</time>
      </trkpt>
      <trkpt lat="59.8986512" lon="17.7416656">
        <ele>33.7834</ele>
        <time>2014-06-06T14:35:35Z</time>
      </trkpt>
      <trkpt lat="59.8986886" lon="17.7417217">
        <ele>34.2642</ele>
        <time>2014-06-06T14:35:36Z</time>
      </trkpt>
      <trkpt lat="59.8987262" lon="17.7417771">
        <ele>34.2642</ele>
        <time>2014-06-06T14:35:37Z</time>
      </trkpt>
      <trkpt lat="59.8987646" lon="17.7418321">
        <ele>34.7449</ele>
        <time>2014-06-06T14:35:38Z</time>
      </trkpt>
      <trkpt lat="59.8988029" lon="17.7418874">
        <ele>34.7449</ele>
        <time>2014-06-06T14:35:39Z</time>
      </trkpt>
      <trkpt lat="59.8988409" lon="17.7419471">
        <ele>35.2255</ele>
        <time>2014-06-06T14:35:40Z</time>
      </trkpt>
      <trkpt lat="59.8988793" lon="17.7420086">
        <ele>35.2255</ele>
        <time>2014-06-06T14:35:41Z</time>
      </trkpt>
      <trkpt lat="59.8989163" lon="17.7420722">
        <ele>34.7449</ele>
        <time>2014-06-06T14:35:42Z</time>
      </trkpt>
      <trkpt lat="59.8989507" lon="17.7421423">
        <ele>34.7449</ele>
        <time>2014-06-06T14:35:43Z</time>
      </trkpt>
      <trkpt lat="59.8989844" lon="17.7422147">
        <ele>34.2642</ele>
        <time>2014-06-06T14:35:44Z</time>
      </trkpt>
      <trkpt lat="59.8990202" lon="17.742286">
        <ele>34.2642</ele>
        <time>2014-06-06T14:35:45Z</time>
      </trkpt>
      <trkpt lat="59.8990561" lon="17.7423632">
        <ele>34.2642</ele>
        <time>2014-06-06T14:35:46Z</time>
      </trkpt>
      <trkpt lat="59.8990888" lon="17.7424506">
        <ele>34.2642</ele>
        <time>2014-06-06T14:35:47Z</time>
      </trkpt>
      <trkpt lat="59.8991179" lon="17.7425442">
        <ele>34.2642</ele>
        <time>2014-06-06T14:35:48Z</time>
      </trkpt>
      <trkpt lat="59.8991447" lon="17.7426404">
        <ele>34.2642</ele>
        <time>2014-06-06T14:35:49Z</time>
      </trkpt>
      <trkpt lat="59.8991682" lon="17.7427372">
        <ele>34.2642</ele>
        <time>2014-06-06T14:35:50Z</time>
      </trkpt>
      <trkpt lat="59.8991898" lon="17.7428338">
        <ele>34.2642</ele>
        <time>2014-06-06T14:35:51Z</time>
      </trkpt>
      <trkpt lat="59.8992097" lon="17.7429301">
        <ele>34.2642</ele>
        <time>2014-06-06T14:35:52Z</time>
      </trkpt>
      <trkpt lat="59.8992279" lon="17.7430259">
        <ele>34.2642</ele>
        <time>2014-06-06T14:35:53Z</time>
      </trkpt>
      <trkpt lat="59.8992465" lon="17.7431218">
        <ele>34.2642</ele>
        <time>2014-06-06T14:35:54Z</time>
      </trkpt>
      <trkpt lat="59.899266" lon="17.743217">
        <ele>34.2642</ele>
        <time>2014-06-06T14:35:55Z</time>
      </trkpt>
      <trkpt lat="59.8992867" lon="17.7433123">
        <ele>34.2642</ele>
        <time>2014-06-06T14:35:56Z</time>
      </trkpt>
      <trkpt lat="59.8993079" lon="17.7434093">
        <ele>34.2642</ele>
        <time>2014-06-06T14:35:57Z</time>
      </trkpt>
      <trkpt lat="59.8993294" lon="17.7435075">
        <ele>34.2642</ele>
        <time>2014-06-06T14:35:58Z</time>
      </trkpt>
      <trkpt lat="59.8993507" lon="17.7436062">
        <ele>34.2642</ele>
        <time>2014-06-06T14:35:59Z</time>
      </trkpt>
      <trkpt lat="59.8993709" lon="17.7437059">
        <ele>34.2642</ele>
        <time>2014-06-06T14:36:00Z</time>
      </trkpt>
      <trkpt lat="59.8993915" lon="17.743803">
        <ele>34.7449</ele>
        <time>2014-06-06T14:36:01Z</time>
      </trkpt>
      <trkpt lat="59.8994122" lon="17.7438988">
        <ele>34.7449</ele>
        <time>2014-06-06T14:36:02Z</time>
      </trkpt>
      <trkpt lat="59.8994324" lon="17.7439926">
        <ele>34.7449</ele>
        <time>2014-06-06T14:36:03Z</time>
      </trkpt>
      <trkpt lat="59.8994515" lon="17.7440856">
        <ele>34.7449</ele>
        <time>2014-06-06T14:36:04Z</time>
      </trkpt>
      <trkpt lat="59.8994692" lon="17.744177">
        <ele>34.7449</ele>
        <time>2014-06-06T14:36:05Z</time>
      </trkpt>
      <trkpt lat="59.8994873" lon="17.7442682">
        <ele>34.7449</ele>
        <time>2014-06-06T14:36:06Z</time>
      </trkpt>
      <trkpt lat="59.899507" lon="17.7443623">
        <ele>34.7449</ele>
        <time>2014-06-06T14:36:07Z</time>
      </trkpt>
      <trkpt lat="59.8995302" lon="17.7444572">
        <ele>35.2255</ele>
        <time>2014-06-06T14:36:08Z</time>
      </trkpt>
      <trkpt lat="59.8995588" lon="17.7445501">
        <ele>35.2255</ele>
        <time>2014-06-06T14:36:09Z</time>
      </trkpt>
      <trkpt lat="59.8995894" lon="17.7446363">
        <ele>35.2255</ele>
        <time>2014-06-06T14:36:10Z</time>
      </trkpt>
      <trkpt lat="59.8996197" lon="17.7447217">
        <ele>34.7449</ele>
        <time>2014-06-06T14:36:11Z</time>
      </trkpt>
      <trkpt lat="59.8996511" lon="17.7448042">
        <ele>34.7449</ele>
        <time>2014-06-06T14:36:12Z</time>
      </trkpt>
      <trkpt lat="59.8996827" lon="17.7448866">
        <ele>34.7449</ele>
        <time>2014-06-06T14:36:13Z</time>
      </trkpt>
      <trkpt lat="59.8997154" lon="17.7449693">
        <ele>34.7449</ele>
        <time>2014-06-06T14:36:14Z</time>
      </trkpt>
      <trkpt lat="59.89975" lon="17.7450509">
        <ele>34.2642</ele>
        <time>2014-06-06T14:36:15Z</time>
      </trkpt>
      <trkpt lat="59.899786" lon="17.7451325">
        <ele>34.2642</ele>
        <time>2014-06-06T14:36:16Z</time>
      </trkpt>
      <trkpt lat="59.899822" lon="17.7452161">
        <ele>34.2642</ele>
        <time>2014-06-06T14:36:17Z</time>
      </trkpt>
      <trkpt lat="59.8998573" lon="17.7453022">
        <ele>34.2642</ele>
        <time>2014-06-06T14:36:18Z</time>
      </trkpt>
      <trkpt lat="59.8998929" lon="17.7453885">
        <ele>34.2642</ele>
        <time>2014-06-06T14:36:19Z</time>
      </trkpt>
      <trkpt lat="59.8999293" lon="17.7454745">
        <ele>34.2642</ele>
        <time>2014-06-06T14:36:20Z</time>
      </trkpt>
      <trkpt lat="59.8999663" lon="17.7455612">
        <ele>34.2642</ele>
        <time>2014-06-06T14:36:21Z</time>
      </trkpt>
      <trkpt lat="59.9000034" lon="17.7456484">
        <ele>34.2642</ele>
        <time>2014-06-06T14:36:22Z</time>
      </trkpt>
      <trkpt lat="59.9000406" lon="17.7457361">
        <ele>34.2642</ele>
        <time>2014-06-06T14:36:23Z</time>
      </trkpt>
      <trkpt lat="59.9000779" lon="17.7458254">
        <ele>34.2642</ele>
        <time>2014-06-06T14:36:24Z</time>
      </trkpt>
      <trkpt lat="59.9001157" lon="17.7459153">
        <ele>34.2642</ele>
        <time>2014-06-06T14:36:25Z</time>
      </trkpt>
      <trkpt lat="59.9001523" lon="17.7460025">
        <ele>34.2642</ele>
        <time>2014-06-06T14:36:26Z</time>
      </trkpt>
      <trkpt lat="59.900187" lon="17.7460869">
        <ele>34.2642</ele>
        <time>2014-06-06T14:36:27Z</time>
      </trkpt>
      <trkpt lat="59.9002201" lon="17.7461703">
        <ele>34.2642</ele>
        <time>2014-06-06T14:36:28Z</time>
      </trkpt>
      <trkpt lat="59.9002528" lon="17.7462532">
        <ele>34.2642</ele>
        <time>2014-06-06T14:36:29Z</time>
      </trkpt>
      <trkpt lat="59.9002861" lon="17.7463335">
        <ele>34.2642</ele>
        <time>2014-06-06T14:36:30Z</time>
      </trkpt>
      <trkpt lat="59.9003193" lon="17.7464112">
        <ele>34.2642</ele>
        <time>2014-06-06T14:36:31Z</time>
      </trkpt>
      <trkpt lat="59.9003524" lon="17.7464866">
        <ele>34.2642</ele>
        <time>2014-06-06T14:36:32Z</time>
      </trkpt>
      <trkpt lat="59.9003849" lon="17.746563">
        <ele>34.2642</ele>
        <time>2014-06-06T14:36:33Z</time>
      </trkpt>
      <trkpt lat="59.900416" lon="17.7466406">
        <ele>34.2642</ele>
        <time>2014-06-06T14:36:34Z</time>
      </trkpt>
      <trkpt lat="59.9004463" lon="17.7467159">
        <ele>34.2642</ele>
        <time>2014-06-06T14:36:35Z</time>
      </trkpt>
      <trkpt lat="59.9004761" lon="17.7467903">
        <ele>34.2642</ele>
        <time>2014-06-06T14:36:36Z</time>
      </trkpt>
      <trkpt lat="59.9005038" lon="17.7468656">
        <ele>34.2642</ele>
        <time>2014-06-06T14:36:37Z</time>
      </trkpt>
      <trkpt lat="59.900533" lon="17.7469367">
        <ele>34.2642</ele>
        <time>2014-06-06T14:36:38Z</time>
      </trkpt>
      <trkpt lat="59.9005638" lon="17.7470022">
        <ele>34.2642</ele>
        <time>2014-06-06T14:36:39Z</time>
      </trkpt>
      <trkpt lat="59.9005923" lon="17.7470678">
        <ele>34.7449</ele>
        <time>2014-06-06T14:36:40Z</time>
      </trkpt>
      <trkpt lat="59.900621" lon="17.7471313">
        <ele>34.7449</ele>
        <time>2014-06-06T14:36:41Z</time>
      </trkpt>
      <trkpt lat="59.9006477" lon="17.7471952">
        <ele>34.7449</ele>
        <time>2014-06-06T14:36:42Z</time>
      </trkpt>
      <trkpt lat="59.9006731" lon="17.7472596">
        <ele>34.7449</ele>
        <time>2014-06-06T14:36:43Z</time>
      </trkpt>
      <trkpt lat="59.9006982" lon="17.7473233">
        <ele>34.7449</ele>
        <time>2014-06-06T14:36:44Z</time>
      </trkpt>
      <trkpt lat="59.9007232" lon="17.7473845">
        <ele>34.7449</ele>
        <time>2014-06-06T14:36:45Z</time>
      </trkpt>
      <trkpt lat="59.9007481" lon="17.7474475">
        <ele>34.7449</ele>
        <time>2014-06-06T14:36:46Z</time>
      </trkpt>
      <trkpt lat="59.9007725" lon="17.7475105">
        <ele>34.7449</ele>
        <time>2014-06-06T14:36:47Z</time>
      </trkpt>
      <trkpt lat="59.9007984" lon="17.7475731">
        <ele>34.7449</ele>
        <time>2014-06-06T14:36:48Z</time>
      </trkpt>
      <trkpt lat="59.9008247" lon="17.7476389">
        <ele>34.2642</ele>
        <time>2014-06-06T14:36:49Z</time>
      </trkpt>
      <trkpt lat="59.9008512" lon="17.7477088">
        <ele>34.2642</ele>
        <time>2014-06-06T14:36:50Z</time>
      </trkpt>
      <trkpt lat="59.9008803" lon="17.7477766">
        <ele>34.2642</ele>
        <time>2014-06-06T14:36:51Z</time>
      </trkpt>
      <trkpt lat="59.9009103" lon="17.7478429">
        <ele>34.2642</ele>
        <time>2014-06-06T14:36:52Z</time>
      </trkpt>
      <trkpt lat="59.9009429" lon="17.7479057">
        <ele>34.2642</ele>
        <time>2014-06-06T14:36:53Z</time>
      </trkpt>
      <trkpt lat="59.9009771" lon="17.7479688">
        <ele>34.7449</ele>
        <time>2014-06-06T14:36:54Z</time>
      </trkpt>
      <trkpt lat="59.9010128" lon="17.748031">
        <ele>34.7449</ele>
        <time>2014-06-06T14:36:55Z</time>
      </trkpt>
      <trkpt lat="59.9010482" lon="17.7480921">
        <ele>35.2255</ele>
        <time>2014-06-06T14:36:56Z</time>
      </trkpt>
      <trkpt lat="59.9010826" lon="17.7481563">
        <ele>35.7061</ele>
        <time>2014-06-06T14:36:57Z</time>
      </trkpt>
      <trkpt lat="59.9011175" lon="17.7482176">
        <ele>36.1868</ele>
        <time>2014-06-06T14:36:58Z</time>
      </trkpt>
      <trkpt lat="59.9011556" lon="17.7482734">
        <ele>36.6675</ele>
        <time>2014-06-06T14:36:59Z</time>
      </trkpt>
      <trkpt lat="59.9011948" lon="17.748324">
        <ele>37.6287</ele>
        <time>2014-06-06T14:37:00Z</time>
      </trkpt>
      <trkpt lat="59.9012323" lon="17.7483732">
        <ele>38.1094</ele>
        <time>2014-06-06T14:37:01Z</time>
      </trkpt>
      <trkpt lat="59.9012672" lon="17.7484199">
        <ele>38.5901</ele>
        <time>2014-06-06T14:37:02Z</time>
      </trkpt>
      <trkpt lat="59.9013009" lon="17.7484646">
        <ele>39.0707</ele>
        <time>2014-06-06T14:37:03Z</time>
      </trkpt>
      <trkpt lat="59.9013364" lon="17.748506">
        <ele>39.5513</ele>
        <time>2014-06-06T14:37:04Z</time>
      </trkpt>
      <trkpt lat="59.9013698" lon="17.7485465">
        <ele>40.0321</ele>
        <time>2014-06-06T14:37:05Z</time>
      </trkpt>
      <trkpt lat="59.9014032" lon="17.7485887">
        <ele>40.5128</ele>
        <time>2014-06-06T14:37:06Z</time>
      </trkpt>
      <trkpt lat="59.9014379" lon="17.7486296">
        <ele>40.9934</ele>
        <time>2014-06-06T14:37:07Z</time>
      </trkpt>
      <trkpt lat="59.9014727" lon="17.7486677">
        <ele>40.9934</ele>
        <time>2014-06-06T14:37:08Z</time>
      </trkpt>
      <trkpt lat="59.9015058" lon="17.7487075">
        <ele>40.9934</ele>
        <time>2014-06-06T14:37:09Z</time>
      </trkpt>
      <trkpt lat="59.9015365" lon="17.7487493">
        <ele>40.9934</ele>
        <time>2014-06-06T14:37:10Z</time>
      </trkpt>
      <trkpt lat="59.9015666" lon="17.7487939">
        <ele>41.474</ele>
        <time>2014-06-06T14:37:11Z</time>
      </trkpt>
      <trkpt lat="59.9015947" lon="17.7488391">
        <ele>40.5128</ele>
        <time>2014-06-06T14:37:12Z</time>
      </trkpt>
      <trkpt lat="59.9016246" lon="17.7488883">
        <ele>40.0321</ele>
        <time>2014-06-06T14:37:13Z</time>
      </trkpt>
      <trkpt lat="59.9016556" lon="17.7489436">
        <ele>39.5513</ele>
        <time>2014-06-06T14:37:14Z</time>
      </trkpt>
      <trkpt lat="59.9016859" lon="17.7490058">
        <ele>39.0707</ele>
        <time>2014-06-06T14:37:15Z</time>
      </trkpt>
      <trkpt lat="59.9017154" lon="17.7490695">
        <ele>38.1094</ele>
        <time>2014-06-06T14:37:16Z</time>
      </trkpt>
      <trkpt lat="59.901746" lon="17.7491305">
        <ele>37.6287</ele>
        <time>2014-06-06T14:37:17Z</time>
      </trkpt>
      <trkpt lat="59.9017775" lon="17.7491896">
        <ele>37.1481</ele>
        <time>2014-06-06T14:37:18Z</time>
      </trkpt>
      <trkpt lat="59.9018083" lon="17.7492477">
        <ele>36.1868</ele>
        <time>2014-06-06T14:37:19Z</time>
      </trkpt>
      <trkpt lat="59.9018402" lon="17.7493032">
        <ele>35.2255</ele>
        <time>2014-06-06T14:37:20Z</time>
      </trkpt>
      <trkpt lat="59.9018742" lon="17.7493597">
        <ele>34.7449</ele>
        <time>2014-06-06T14:37:21Z</time>
      </trkpt>
      <trkpt lat="59.901908" lon="17.7494159">
        <ele>34.2642</ele>
        <time>2014-06-06T14:37:22Z</time>
      </trkpt>
      <trkpt lat="59.9019396" lon="17.7494663">
        <ele>33.7834</ele>
        <time>2014-06-06T14:37:23Z</time>
      </trkpt>
      <trkpt lat="59.9019741" lon="17.7495032">
        <ele>33.7834</ele>
        <time>2014-06-06T14:37:24Z</time>
      </trkpt>
      <trkpt lat="59.9020112" lon="17.7495232">
        <ele>33.3029</ele>
        <time>2014-06-06T14:37:25Z</time>
      </trkpt>
      <trkpt lat="59.9020511" lon="17.74953">
        <ele>32.8223</ele>
        <time>2014-06-06T14:37:26Z</time>
      </trkpt>
      <trkpt lat="59.9020946" lon="17.7495204">
        <ele>32.3416</ele>
        <time>2014-06-06T14:37:27Z</time>
      </trkpt>
      <trkpt lat="59.9021409" lon="17.7494907">
        <ele>32.3416</ele>
        <time>2014-06-06T14:37:28Z</time>
      </trkpt>
      <trkpt lat="59.9021877" lon="17.7494509">
        <ele>31.8607</ele>
        <time>2014-06-06T14:37:29Z</time>
      </trkpt>
      <trkpt lat="59.9022354" lon="17.7494102">
        <ele>31.8607</ele>
        <time>2014-06-06T14:37:30Z</time>
      </trkpt>
      <trkpt lat="59.9022831" lon="17.7493681">
        <ele>31.3801</ele>
        <time>2014-06-06T14:37:31Z</time>
      </trkpt>
      <trkpt lat="59.902332" lon="17.7493291">
        <ele>31.3801</ele>
        <time>2014-06-06T14:37:32Z</time>
      </trkpt>
      <trkpt lat="59.9023818" lon="17.7492958">
        <ele>31.8607</ele>
        <time>2014-06-06T14:37:33Z</time>
      </trkpt>
      <trkpt lat="59.9024295" lon="17.7492676">
        <ele>31.3801</ele>
        <time>2014-06-06T14:37:34Z</time>
      </trkpt>
      <trkpt lat="59.902476" lon="17.7492545">
        <ele>31.3801</ele>
        <time>2014-06-06T14:37:35Z</time>
      </trkpt>
      <trkpt lat="59.9025208" lon="17.7492613">
        <ele>31.3801</ele>
        <time>2014-06-06T14:37:36Z</time>
      </trkpt>
      <trkpt lat="59.9025602" lon="17.7493032">
        <ele>31.3801</ele>
        <time>2014-06-06T14:37:37Z</time>
      </trkpt>
      <trkpt lat="59.9025798" lon="17.7493788">
        <ele>31.3801</ele>
        <time>2014-06-06T14:37:38Z</time>
      </trkpt>
      <trkpt lat="59.90259" lon="17.7494638">
        <ele>31.3801</ele>
        <time>2014-06-06T14:37:39Z</time>
      </trkpt>
      <trkpt lat="59.9025923" lon="17.7495532">
        <ele>31.3801</ele>
        <time>2014-06-06T14:37:40Z</time>
      </trkpt>
      <trkpt lat="59.9025954" lon="17.7496492">
        <ele>31.8607</ele>
        <time>2014-06-06T14:37:41Z</time>
      </trkpt>
      <trkpt lat="59.9026046" lon="17.7497452">
        <ele>31.8607</ele>
        <time>2014-06-06T14:37:42Z</time>
      </trkpt>
      <trkpt lat="59.9026212" lon="17.7498445">
        <ele>32.3416</ele>
        <time>2014-06-06T14:37:43Z</time>
      </trkpt>
      <trkpt lat="59.9026348" lon="17.7499428">
        <ele>32.3416</ele>
        <time>2014-06-06T14:37:44Z</time>
      </trkpt>
      <trkpt lat="59.9026638" lon="17.7500405">
        <ele>32.8223</ele>
        <time>2014-06-06T14:37:45Z</time>
      </trkpt>
      <trkpt lat="59.902689" lon="17.7501339">
        <ele>33.3029</ele>
        <time>2014-06-06T14:37:46Z</time>
      </trkpt>
      <trkpt lat="59.902719" lon="17.7502247">
        <ele>33.7834</ele>
        <time>2014-06-06T14:37:47Z</time>
      </trkpt>
      <trkpt lat="59.9027519" lon="17.7503033">
        <ele>33.7834</ele>
        <time>2014-06-06T14:37:48Z</time>
      </trkpt>
      <trkpt lat="59.9027897" lon="17.7503715">
        <ele>34.2642</ele>
        <time>2014-06-06T14:37:49Z</time>
      </trkpt>
      <trkpt lat="59.9028319" lon="17.7504132">
        <ele>34.2642</ele>
        <time>2014-06-06T14:37:50Z</time>
      </trkpt>
      <trkpt lat="59.9028711" lon="17.7504331">
        <ele>34.2642</ele>
        <time>2014-06-06T14:37:51Z</time>
      </trkpt>
      <trkpt lat="59.9029091" lon="17.7504375">
        <ele>34.7449</ele>
        <time>2014-06-06T14:37:52Z</time>
      </trkpt>
      <trkpt lat="59.9029466" lon="17.7504246">
        <ele>34.7449</ele>
        <time>2014-06-06T14:37:53Z</time>
      </trkpt>
      <trkpt lat="59.9029817" lon="17.7503967">
        <ele>35.2255</ele>
        <time>2014-06-06T14:37:54Z</time>
      </trkpt>
      <trkpt lat="59.903013" lon="17.750366">
        <ele>35.7061</ele>
        <time>2014-06-06T14:37:55Z</time>
      </trkpt>
      <trkpt lat="59.9030434" lon="17.7503386">
        <ele>35.7061</ele>
        <time>2014-06-06T14:37:56Z</time>
      </trkpt>
      <trkpt lat="59.9030756" lon="17.7503133">
        <ele>36.6675</ele>
        <time>2014-06-06T14:37:57Z</time>
      </trkpt>
      <trkpt lat="59.9031077" lon="17.7502841">
        <ele>36.1868</ele>
        <time>2014-06-06T14:37:58Z</time>
      </trkpt>
      <trkpt lat="59.903147" lon="17.7502636">
        <ele>36.6675</ele>
        <time>2014-06-06T14:37:59Z</time>
      </trkpt>
      <trkpt lat="59.903187" lon="17.7502501">
        <ele>36.6675</ele>
        <time>2014-06-06T14:38:00Z</time>
      </trkpt>
      <trkpt lat="59.9032273" lon="17.7502424">
        <ele>36.6675</ele>
        <time>2014-06-06T14:38:01Z</time>
      </trkpt>
      <trkpt lat="59.9032671" lon="17.7502418">
        <ele>37.1481</ele>
        <time>2014-06-06T14:38:02Z</time>
      </trkpt>
      <trkpt lat="59.9033076" lon="17.750249">
        <ele>37.1481</ele>
        <time>2014-06-06T14:38:03Z</time>
      </trkpt>
      <trkpt lat="59.9033494" lon="17.7502613">
        <ele>37.1481</ele>
        <time>2014-06-06T14:38:04Z</time>
      </trkpt>
      <trkpt lat="59.9033908" lon="17.7502776">
        <ele>36.6675</ele>
        <time>2014-06-06T14:38:05Z</time>
      </trkpt>
      <trkpt lat="59.9034309" lon="17.7503014">
        <ele>37.1481</ele>
        <time>2014-06-06T14:38:06Z</time>
      </trkpt>
      <trkpt lat="59.9034688" lon="17.7503303">
        <ele>36.6675</ele>
        <time>2014-06-06T14:38:07Z</time>
      </trkpt>
      <trkpt lat="59.9035069" lon="17.7503657">
        <ele>37.1481</ele>
        <time>2014-06-06T14:38:08Z</time>
      </trkpt>
      <trkpt lat="59.9035431" lon="17.750406">
        <ele>36.6675</ele>
        <time>2014-06-06T14:38:09Z</time>
      </trkpt>
      <trkpt lat="59.9035789" lon="17.7504499">
        <ele>36.6675</ele>
        <time>2014-06-06T14:38:10Z</time>
      </trkpt>
      <trkpt lat="59.9036146" lon="17.7504946">
        <ele>36.6675</ele>
        <time>2014-06-06T14:38:11Z</time>
      </trkpt>
      <trkpt lat="59.9036501" lon="17.7505392">
        <ele>36.6675</ele>
        <time>2014-06-06T14:38:12Z</time>
      </trkpt>
      <trkpt lat="59.9036866" lon="17.7505847">
        <ele>36.6675</ele>
        <time>2014-06-06T14:38:13Z</time>
      </trkpt>
      <trkpt lat="59.9037227" lon="17.7506308">
        <ele>36.6675</ele>
        <time>2014-06-06T14:38:14Z</time>
      </trkpt>
      <trkpt lat="59.9037588" lon="17.7506784">
        <ele>36.6675</ele>
        <time>2014-06-06T14:38:15Z</time>
      </trkpt>
      <trkpt lat="59.903793" lon="17.7507224">
        <ele>36.6675</ele>
        <time>2014-06-06T14:38:16Z</time>
      </trkpt>
      <trkpt lat="59.9038267" lon="17.750767">
        <ele>36.6675</ele>
        <time>2014-06-06T14:38:17Z</time>
      </trkpt>
      <trkpt lat="59.9038598" lon="17.7508107">
        <ele>36.6675</ele>
        <time>2014-06-06T14:38:18Z</time>
      </trkpt>
      <trkpt lat="59.903893" lon="17.7508552">
        <ele>36.6675</ele>
        <time>2014-06-06T14:38:19Z</time>
      </trkpt>
      <trkpt lat="59.9039262" lon="17.7509014">
        <ele>36.6675</ele>
        <time>2014-06-06T14:38:20Z</time>
      </trkpt>
      <trkpt lat="59.9039572" lon="17.7509412">
        <ele>35.7061</ele>
        <time>2014-06-06T14:38:21Z</time>
      </trkpt>
      <trkpt lat="59.9039905" lon="17.7509858">
        <ele>35.7061</ele>
        <time>2014-06-06T14:38:22Z</time>
      </trkpt>
      <trkpt lat="59.9040225" lon="17.7510288">
        <ele>36.1868</ele>
        <time>2014-06-06T14:38:23Z</time>
      </trkpt>
      <trkpt lat="59.9040527" lon="17.7510716">
        <ele>36.1868</ele>
        <time>2014-06-06T14:38:24Z</time>
      </trkpt>
      <trkpt lat="59.9040825" lon="17.7511151">
        <ele>36.6675</ele>
        <time>2014-06-06T14:38:25Z</time>
      </trkpt>
      <trkpt lat="59.9041135" lon="17.7511551">
        <ele>36.6675</ele>
        <time>2014-06-06T14:38:26Z</time>
      </trkpt>
      <trkpt lat="59.9041452" lon="17.7511969">
        <ele>36.1868</ele>
        <time>2014-06-06T14:38:27Z</time>
      </trkpt>
      <trkpt lat="59.9041773" lon="17.7512367">
        <ele>36.1868</ele>
        <time>2014-06-06T14:38:28Z</time>
      </trkpt>
      <trkpt lat="59.9042095" lon="17.7512772">
        <ele>35.7061</ele>
        <time>2014-06-06T14:38:29Z</time>
      </trkpt>
      <trkpt lat="59.9042419" lon="17.7513218">
        <ele>35.7061</ele>
        <time>2014-06-06T14:38:30Z</time>
      </trkpt>
      <trkpt lat="59.9042744" lon="17.7513685">
        <ele>36.1868</ele>
        <time>2014-06-06T14:38:31Z</time>
      </trkpt>
      <trkpt lat="59.9043082" lon="17.7514135">
        <ele>36.1868</ele>
        <time>2014-06-06T14:38:32Z</time>
      </trkpt>
      <trkpt lat="59.9043427" lon="17.7514601">
        <ele>36.1868</ele>
        <time>2014-06-06T14:38:33Z</time>
      </trkpt>
      <trkpt lat="59.9043774" lon="17.7515067">
        <ele>36.1868</ele>
        <time>2014-06-06T14:38:34Z</time>
      </trkpt>
      <trkpt lat="59.904411" lon="17.751556">
        <ele>36.1868</ele>
        <time>2014-06-06T14:38:35Z</time>
      </trkpt>
      <trkpt lat="59.9044458" lon="17.7516041">
        <ele>36.1868</ele>
        <time>2014-06-06T14:38:36Z</time>
      </trkpt>
      <trkpt lat="59.9044815" lon="17.7516523">
        <ele>36.1868</ele>
        <time>2014-06-06T14:38:37Z</time>
      </trkpt>
      <trkpt lat="59.9045168" lon="17.7517002">
        <ele>36.1868</ele>
        <time>2014-06-06T14:38:38Z</time>
      </trkpt>
      <trkpt lat="59.9045519" lon="17.7517461">
        <ele>36.1868</ele>
        <time>2014-06-06T14:38:39Z</time>
      </trkpt>
      <trkpt lat="59.904587" lon="17.7517926">
        <ele>36.1868</ele>
        <time>2014-06-06T14:38:40Z</time>
      </trkpt>
      <trkpt lat="59.9046218" lon="17.7518399">
        <ele>36.1868</ele>
        <time>2014-06-06T14:38:41Z</time>
      </trkpt>
      <trkpt lat="59.9046563" lon="17.7518876">
        <ele>36.1868</ele>
        <time>2014-06-06T14:38:42Z</time>
      </trkpt>
      <trkpt lat="59.9046902" lon="17.7519355">
        <ele>36.1868</ele>
        <time>2014-06-06T14:38:43Z</time>
      </trkpt>
      <trkpt lat="59.9047235" lon="17.7519818">
        <ele>36.1868</ele>
        <time>2014-06-06T14:38:44Z</time>
      </trkpt>
      <trkpt lat="59.9047555" lon="17.752026">
        <ele>36.6675</ele>
        <time>2014-06-06T14:38:45Z</time>
      </trkpt>
      <trkpt lat="59.9047855" lon="17.7520692">
        <ele>36.6675</ele>
        <time>2014-06-06T14:38:46Z</time>
      </trkpt>
      <trkpt lat="59.9048151" lon="17.7521096">
        <ele>37.1481</ele>
        <time>2014-06-06T14:38:47Z</time>
      </trkpt>
      <trkpt lat="59.9048436" lon="17.7521518">
        <ele>37.1481</ele>
        <time>2014-06-06T14:38:48Z</time>
      </trkpt>
      <trkpt lat="59.9048698" lon="17.7521973">
        <ele>37.1481</ele>
        <time>2014-06-06T14:38:49Z</time>
      </trkpt>
      <trkpt lat="59.904896" lon="17.7522394">
        <ele>37.1481</ele>
        <time>2014-06-06T14:38:50Z</time>
      </trkpt>
      <trkpt lat="59.9049248" lon="17.7522753">
        <ele>37.1481</ele>
        <time>2014-06-06T14:38:51Z</time>
      </trkpt>
      <trkpt lat="59.9049547" lon="17.7523077">
        <ele>37.1481</ele>
        <time>2014-06-06T14:38:52Z</time>
      </trkpt>
      <trkpt lat="59.904986" lon="17.7523425">
        <ele>37.6287</ele>
        <time>2014-06-06T14:38:53Z</time>
      </trkpt>
      <trkpt lat="59.9050171" lon="17.7523755">
        <ele>37.6287</ele>
        <time>2014-06-06T14:38:54Z</time>
      </trkpt>
      <trkpt lat="59.9050485" lon="17.7524078">
        <ele>37.6287</ele>
        <time>2014-06-06T14:38:55Z</time>
      </trkpt>
      <trkpt lat="59.9050798" lon="17.7524393">
        <ele>37.6287</ele>
        <time>2014-06-06T14:38:56Z</time>
      </trkpt>
      <trkpt lat="59.9051102" lon="17.7524714">
        <ele>38.1094</ele>
        <time>2014-06-06T14:38:57Z</time>
      </trkpt>
      <trkpt lat="59.9051402" lon="17.7525049">
        <ele>38.1094</ele>
        <time>2014-06-06T14:38:58Z</time>
      </trkpt>
      <trkpt lat="59.9051708" lon="17.7525314">
        <ele>38.1094</ele>
        <time>2014-06-06T14:38:59Z</time>
      </trkpt>
      <trkpt lat="59.9052004" lon="17.752554">
        <ele>38.1094</ele>
        <time>2014-06-06T14:39:00Z</time>
      </trkpt>
      <trkpt lat="59.9052288" lon="17.7525714">
        <ele>38.1094</ele>
        <time>2014-06-06T14:39:01Z</time>
      </trkpt>
      <trkpt lat="59.905256" lon="17.7525827">
        <ele>38.5901</ele>
        <time>2014-06-06T14:39:02Z</time>
      </trkpt>
      <trkpt lat="59.9052797" lon="17.7525893">
        <ele>38.5901</ele>
        <time>2014-06-06T14:39:03Z</time>
      </trkpt>
      <trkpt lat="59.9052979" lon="17.7525854">
        <ele>38.5901</ele>
        <time>2014-06-06T14:39:04Z</time>
      </trkpt>
      <trkpt lat="59.9053116" lon="17.7525703">
        <ele>38.1094</ele>
        <time>2014-06-06T14:39:05Z</time>
      </trkpt>
      <trkpt lat="59.9053253" lon="17.7525551">
        <ele>38.1094</ele>
        <time>2014-06-06T14:39:06Z</time>
      </trkpt>
      <trkpt lat="59.9053372" lon="17.7525376">
        <ele>38.1094</ele>
        <time>2014-06-06T14:39:07Z</time>
      </trkpt>
      <trkpt lat="59.905346" lon="17.7525278">
        <ele>38.1094</ele>
        <time>2014-06-06T14:39:08Z</time>
      </trkpt>
      <trkpt lat="59.905352" lon="17.7525261">
        <ele>38.1094</ele>
        <time>2014-06-06T14:39:09Z</time>
      </trkpt>
      <trkpt lat="59.9053534" lon="17.7525259">
        <ele>38.5901</ele>
        <time>2014-06-06T14:39:10Z</time>
      </trkpt>
      <trkpt lat="59.9053538" lon="17.7525238">
        <ele>38.5901</ele>
        <time>2014-06-06T14:39:11Z</time>
      </trkpt>
      <trkpt lat="59.90561" lon="17.7519512">
        <ele>32.3416</ele>
        <time>2014-06-06T14:40:32Z</time>
      </trkpt>
      <trkpt lat="59.9056227" lon="17.7519056">
        <ele>31.3801</ele>
        <time>2014-06-06T14:40:33Z</time>
      </trkpt>
      <trkpt lat="59.9056391" lon="17.7518574">
        <ele>30.8995</ele>
        <time>2014-06-06T14:40:34Z</time>
      </trkpt>
      <trkpt lat="59.9056552" lon="17.7517995">
        <ele>30.4188</ele>
        <time>2014-06-06T14:40:35Z</time>
      </trkpt>
      <trkpt lat="59.9056723" lon="17.751738">
        <ele>30.8995</ele>
        <time>2014-06-06T14:40:36Z</time>
      </trkpt>
      <trkpt lat="59.9056913" lon="17.7516812">
        <ele>30.4188</ele>
        <time>2014-06-06T14:40:37Z</time>
      </trkpt>
      <trkpt lat="59.9057097" lon="17.7516232">
        <ele>29.9381</ele>
        <time>2014-06-06T14:40:38Z</time>
      </trkpt>
      <trkpt lat="59.9057273" lon="17.7515566">
        <ele>30.4188</ele>
        <time>2014-06-06T14:40:39Z</time>
      </trkpt>
      <trkpt lat="59.9057485" lon="17.7514958">
        <ele>29.9381</ele>
        <time>2014-06-06T14:40:40Z</time>
      </trkpt>
      <trkpt lat="59.9057734" lon="17.7514429">
        <ele>30.4188</ele>
        <time>2014-06-06T14:40:41Z</time>
      </trkpt>
      <trkpt lat="59.9057971" lon="17.7513954">
        <ele>30.4188</ele>
        <time>2014-06-06T14:40:42Z</time>
      </trkpt>
      <trkpt lat="59.9058167" lon="17.75135">
        <ele>30.4188</ele>
        <time>2014-06-06T14:40:43Z</time>
      </trkpt>
      <trkpt lat="59.9058339" lon="17.7513074">
        <ele>30.8995</ele>
        <time>2014-06-06T14:40:44Z</time>
      </trkpt>
      <trkpt lat="59.9058499" lon="17.7512696">
        <ele>30.8995</ele>
        <time>2014-06-06T14:40:45Z</time>
      </trkpt>
      <trkpt lat="59.9058636" lon="17.7512343">
        <ele>30.8995</ele>
        <time>2014-06-06T14:40:46Z</time>
      </trkpt>
      <trkpt lat="59.905877" lon="17.7512006">
        <ele>30.8995</ele>
        <time>2014-06-06T14:40:47Z</time>
      </trkpt>
      <trkpt lat="59.9058899" lon="17.7511717">
        <ele>30.8995</ele>
        <time>2014-06-06T14:40:48Z</time>
      </trkpt>
      <trkpt lat="59.9059014" lon="17.7511437">
        <ele>30.8995</ele>
        <time>2014-06-06T14:40:49Z</time>
      </trkpt>
      <trkpt lat="59.9059131" lon="17.7511167">
        <ele>30.8995</ele>
        <time>2014-06-06T14:40:50Z</time>
      </trkpt>
      <trkpt lat="59.9059236" lon="17.7510882">
        <ele>30.8995</ele>
        <time>2014-06-06T14:40:51Z</time>
      </trkpt>
      <trkpt lat="59.9059323" lon="17.7510513">
        <ele>31.3801</ele>
        <time>2014-06-06T14:40:52Z</time>
      </trkpt>
      <trkpt lat="59.9059452" lon="17.751012">
        <ele>31.3801</ele>
        <time>2014-06-06T14:40:53Z</time>
      </trkpt>
      <trkpt lat="59.9059655" lon="17.7509799">
        <ele>31.3801</ele>
        <time>2014-06-06T14:40:54Z</time>
      </trkpt>
      <trkpt lat="59.9059909" lon="17.7509576">
        <ele>31.3801</ele>
        <time>2014-06-06T14:40:55Z</time>
      </trkpt>
      <trkpt lat="59.9060178" lon="17.7509412">
        <ele>31.8607</ele>
        <time>2014-06-06T14:40:56Z</time>
      </trkpt>
      <trkpt lat="59.9060456" lon="17.7509308">
        <ele>31.8607</ele>
        <time>2014-06-06T14:40:57Z</time>
      </trkpt>
      <trkpt lat="59.9060749" lon="17.7509178">
        <ele>31.8607</ele>
        <time>2014-06-06T14:40:58Z</time>
      </trkpt>
      <trkpt lat="59.9061001" lon="17.7508903">
        <ele>31.8607</ele>
        <time>2014-06-06T14:40:59Z</time>
      </trkpt>
      <trkpt lat="59.9061204" lon="17.750851">
        <ele>31.8607</ele>
        <time>2014-06-06T14:41:00Z</time>
      </trkpt>
      <trkpt lat="59.9061375" lon="17.7508009">
        <ele>31.8607</ele>
        <time>2014-06-06T14:41:01Z</time>
      </trkpt>
      <trkpt lat="59.9061539" lon="17.7507447">
        <ele>31.8607</ele>
        <time>2014-06-06T14:41:02Z</time>
      </trkpt>
      <trkpt lat="59.9061717" lon="17.7506884">
        <ele>31.8607</ele>
        <time>2014-06-06T14:41:03Z</time>
      </trkpt>
      <trkpt lat="59.9061893" lon="17.7506339">
        <ele>31.8607</ele>
        <time>2014-06-06T14:41:04Z</time>
      </trkpt>
      <trkpt lat="59.906208" lon="17.7505827">
        <ele>31.8607</ele>
        <time>2014-06-06T14:41:05Z</time>
      </trkpt>
      <trkpt lat="59.9062266" lon="17.750532">
        <ele>31.8607</ele>
        <time>2014-06-06T14:41:06Z</time>
      </trkpt>
      <trkpt lat="59.9062451" lon="17.7504807">
        <ele>31.8607</ele>
        <time>2014-06-06T14:41:07Z</time>
      </trkpt>
      <trkpt lat="59.9062648" lon="17.7504323">
        <ele>31.8607</ele>
        <time>2014-06-06T14:41:08Z</time>
      </trkpt>
      <trkpt lat="59.9062831" lon="17.7503837">
        <ele>32.3416</ele>
        <time>2014-06-06T14:41:09Z</time>
      </trkpt>
      <trkpt lat="59.9062992" lon="17.7503329">
        <ele>32.3416</ele>
        <time>2014-06-06T14:41:10Z</time>
      </trkpt>
      <trkpt lat="59.9063122" lon="17.7502791">
        <ele>32.3416</ele>
        <time>2014-06-06T14:41:11Z</time>
      </trkpt>
      <trkpt lat="59.9063236" lon="17.75022">
        <ele>32.3416</ele>
        <time>2014-06-06T14:41:12Z</time>
      </trkpt>
      <trkpt lat="59.9063365" lon="17.7501574">
        <ele>32.8223</ele>
        <time>2014-06-06T14:41:13Z</time>
      </trkpt>
      <trkpt lat="59.9063502" lon="17.7500958">
        <ele>32.8223</ele>
        <time>2014-06-06T14:41:14Z</time>
      </trkpt>
      <trkpt lat="59.9063632" lon="17.7500365">
        <ele>32.8223</ele>
        <time>2014-06-06T14:41:15Z</time>
      </trkpt>
      <trkpt lat="59.9063753" lon="17.7499786">
        <ele>32.8223</ele>
        <time>2014-06-06T14:41:16Z</time>
      </trkpt>
      <trkpt lat="59.906388" lon="17.7499264">
        <ele>32.8223</ele>
        <time>2014-06-06T14:41:17Z</time>
      </trkpt>
      <trkpt lat="59.9064013" lon="17.7498737">
        <ele>33.3029</ele>
        <time>2014-06-06T14:41:18Z</time>
      </trkpt>
      <trkpt lat="59.9064153" lon="17.749817">
        <ele>33.3029</ele>
        <time>2014-06-06T14:41:19Z</time>
      </trkpt>
      <trkpt lat="59.9064318" lon="17.7497715">
        <ele>33.3029</ele>
        <time>2014-06-06T14:41:20Z</time>
      </trkpt>
      <trkpt lat="59.9064503" lon="17.7497358">
        <ele>33.7834</ele>
        <time>2014-06-06T14:41:21Z</time>
      </trkpt>
      <trkpt lat="59.9064668" lon="17.7496892">
        <ele>34.2642</ele>
        <time>2014-06-06T14:41:22Z</time>
      </trkpt>
      <trkpt lat="59.9064839" lon="17.7496291">
        <ele>34.2642</ele>
        <time>2014-06-06T14:41:23Z</time>
      </trkpt>
      <trkpt lat="59.9065034" lon="17.7495636">
        <ele>34.2642</ele>
        <time>2014-06-06T14:41:24Z</time>
      </trkpt>
      <trkpt lat="59.9065255" lon="17.7494926">
        <ele>34.2642</ele>
        <time>2014-06-06T14:41:25Z</time>
      </trkpt>
      <trkpt lat="59.9065478" lon="17.749418">
        <ele>33.7834</ele>
        <time>2014-06-06T14:41:26Z</time>
      </trkpt>
      <trkpt lat="59.9065714" lon="17.7493406">
        <ele>33.7834</ele>
        <time>2014-06-06T14:41:27Z</time>
      </trkpt>
      <trkpt lat="59.9065961" lon="17.7492622">
        <ele>33.7834</ele>
        <time>2014-06-06T14:41:28Z</time>
      </trkpt>
      <trkpt lat="59.9066208" lon="17.7491842">
        <ele>34.2642</ele>
        <time>2014-06-06T14:41:29Z</time>
      </trkpt>
      <trkpt lat="59.9066471" lon="17.7491074">
        <ele>33.7834</ele>
        <time>2014-06-06T14:41:30Z</time>
      </trkpt>
      <trkpt lat="59.9066759" lon="17.7490316">
        <ele>34.2642</ele>
        <time>2014-06-06T14:41:31Z</time>
      </trkpt>
      <trkpt lat="59.9067042" lon="17.7489559">
        <ele>34.2642</ele>
        <time>2014-06-06T14:41:32Z</time>
      </trkpt>
      <trkpt lat="59.9067336" lon="17.7488816">
        <ele>34.2642</ele>
        <time>2014-06-06T14:41:33Z</time>
      </trkpt>
      <trkpt lat="59.9067662" lon="17.7488121">
        <ele>34.2642</ele>
        <time>2014-06-06T14:41:34Z</time>
      </trkpt>
      <trkpt lat="59.9068009" lon="17.7487457">
        <ele>34.2642</ele>
        <time>2014-06-06T14:41:35Z</time>
      </trkpt>
      <trkpt lat="59.9068358" lon="17.7486784">
        <ele>34.2642</ele>
        <time>2014-06-06T14:41:36Z</time>
      </trkpt>
      <trkpt lat="59.9068701" lon="17.7486097">
        <ele>34.2642</ele>
        <time>2014-06-06T14:41:37Z</time>
      </trkpt>
      <trkpt lat="59.906904" lon="17.7485421">
        <ele>34.2642</ele>
        <time>2014-06-06T14:41:38Z</time>
      </trkpt>
      <trkpt lat="59.9069379" lon="17.748478">
        <ele>34.2642</ele>
        <time>2014-06-06T14:41:39Z</time>
      </trkpt>
      <trkpt lat="59.9069719" lon="17.748416">
        <ele>34.2642</ele>
        <time>2014-06-06T14:41:40Z</time>
      </trkpt>
      <trkpt lat="59.9070045" lon="17.7483532">
        <ele>34.2642</ele>
        <time>2014-06-06T14:41:41Z</time>
      </trkpt>
      <trkpt lat="59.9070361" lon="17.7482883">
        <ele>34.2642</ele>
        <time>2014-06-06T14:41:42Z</time>
      </trkpt>
      <trkpt lat="59.9070668" lon="17.7482221">
        <ele>34.2642</ele>
        <time>2014-06-06T14:41:43Z</time>
      </trkpt>
      <trkpt lat="59.9070954" lon="17.7481538">
        <ele>34.2642</ele>
        <time>2014-06-06T14:41:44Z</time>
      </trkpt>
      <trkpt lat="59.9071233" lon="17.7480854">
        <ele>34.2642</ele>
        <time>2014-06-06T14:41:45Z</time>
      </trkpt>
      <trkpt lat="59.9071517" lon="17.7480196">
        <ele>34.2642</ele>
        <time>2014-06-06T14:41:46Z</time>
      </trkpt>
      <trkpt lat="59.9071809" lon="17.7479572">
        <ele>34.2642</ele>
        <time>2014-06-06T14:41:47Z</time>
      </trkpt>
      <trkpt lat="59.9072118" lon="17.7478999">
        <ele>34.2642</ele>
        <time>2014-06-06T14:41:48Z</time>
      </trkpt>
      <trkpt lat="59.9072435" lon="17.7478465">
        <ele>34.2642</ele>
        <time>2014-06-06T14:41:49Z</time>
      </trkpt>
      <trkpt lat="59.9072762" lon="17.747798">
        <ele>34.7449</ele>
        <time>2014-06-06T14:41:50Z</time>
      </trkpt>
      <trkpt lat="59.9073098" lon="17.7477594">
        <ele>34.2642</ele>
        <time>2014-06-06T14:41:51Z</time>
      </trkpt>
      <trkpt lat="59.907345" lon="17.7477356">
        <ele>34.2642</ele>
        <time>2014-06-06T14:41:52Z</time>
      </trkpt>
      <trkpt lat="59.9073817" lon="17.7477284">
        <ele>34.2642</ele>
        <time>2014-06-06T14:41:53Z</time>
      </trkpt>
      <trkpt lat="59.9074169" lon="17.7477386">
        <ele>34.2642</ele>
        <time>2014-06-06T14:41:54Z</time>
      </trkpt>
      <trkpt lat="59.9074471" lon="17.7477679">
        <ele>34.2642</ele>
        <time>2014-06-06T14:41:55Z</time>
      </trkpt>
      <trkpt lat="59.9074712" lon="17.7478112">
        <ele>34.2642</ele>
        <time>2014-06-06T14:41:56Z</time>
      </trkpt>
      <trkpt lat="59.907492" lon="17.7478596">
        <ele>34.2642</ele>
        <time>2014-06-06T14:41:57Z</time>
      </trkpt>
      <trkpt lat="59.9075106" lon="17.7479117">
        <ele>34.2642</ele>
        <time>2014-06-06T14:41:58Z</time>
      </trkpt>
      <trkpt lat="59.9075237" lon="17.7479645">
        <ele>34.7449</ele>
        <time>2014-06-06T14:41:59Z</time>
      </trkpt>
      <trkpt lat="59.9075332" lon="17.7480154">
        <ele>34.7449</ele>
        <time>2014-06-06T14:42:00Z</time>
      </trkpt>
      <trkpt lat="59.9075424" lon="17.7480702">
        <ele>34.7449</ele>
        <time>2014-06-06T14:42:01Z</time>
      </trkpt>
      <trkpt lat="59.9075517" lon="17.7481247">
        <ele>34.7449</ele>
        <time>2014-06-06T14:42:02Z</time>
      </trkpt>
      <trkpt lat="59.9075634" lon="17.7481719">
        <ele>34.7449</ele>
        <time>2014-06-06T14:42:03Z</time>
      </trkpt>
      <trkpt lat="59.9075797" lon="17.748219">
        <ele>34.7449</ele>
        <time>2014-06-06T14:42:04Z</time>
      </trkpt>
      <trkpt lat="59.9075988" lon="17.7482603">
        <ele>34.7449</ele>
        <time>2014-06-06T14:42:05Z</time>
      </trkpt>
      <trkpt lat="59.907622" lon="17.7482841">
        <ele>34.7449</ele>
        <time>2014-06-06T14:42:06Z</time>
      </trkpt>
      <trkpt lat="59.9076479" lon="17.748287">
        <ele>35.2255</ele>
        <time>2014-06-06T14:42:07Z</time>
      </trkpt>
      <trkpt lat="59.9076756" lon="17.7482784">
        <ele>35.2255</ele>
        <time>2014-06-06T14:42:08Z</time>
      </trkpt>
      <trkpt lat="59.9077064" lon="17.7482646">
        <ele>35.2255</ele>
        <time>2014-06-06T14:42:09Z</time>
      </trkpt>
      <trkpt lat="59.9077392" lon="17.7482454">
        <ele>35.2255</ele>
        <time>2014-06-06T14:42:10Z</time>
      </trkpt>
      <trkpt lat="59.9077733" lon="17.7482211">
        <ele>35.2255</ele>
        <time>2014-06-06T14:42:11Z</time>
      </trkpt>
      <trkpt lat="59.9078086" lon="17.7481934">
        <ele>35.2255</ele>
        <time>2014-06-06T14:42:12Z</time>
      </trkpt>
      <trkpt lat="59.9078455" lon="17.748165">
        <ele>35.2255</ele>
        <time>2014-06-06T14:42:13Z</time>
      </trkpt>
      <trkpt lat="59.9078842" lon="17.7481393">
        <ele>35.2255</ele>
        <time>2014-06-06T14:42:14Z</time>
      </trkpt>
      <trkpt lat="59.9079195" lon="17.7481144">
        <ele>35.2255</ele>
        <time>2014-06-06T14:42:15Z</time>
      </trkpt>
      <trkpt lat="59.9079505" lon="17.7480869">
        <ele>35.2255</ele>
        <time>2014-06-06T14:42:16Z</time>
      </trkpt>
      <trkpt lat="59.9079763" lon="17.7480563">
        <ele>35.2255</ele>
        <time>2014-06-06T14:42:17Z</time>
      </trkpt>
      <trkpt lat="59.907997" lon="17.7480215">
        <ele>35.2255</ele>
        <time>2014-06-06T14:42:18Z</time>
      </trkpt>
      <trkpt lat="59.9080133" lon="17.7479823">
        <ele>35.2255</ele>
        <time>2014-06-06T14:42:19Z</time>
      </trkpt>
      <trkpt lat="59.9080262" lon="17.7479441">
        <ele>35.2255</ele>
        <time>2014-06-06T14:42:20Z</time>
      </trkpt>
      <trkpt lat="59.9080341" lon="17.7479096">
        <ele>35.2255</ele>
        <time>2014-06-06T14:42:21Z</time>
      </trkpt>
      <trkpt lat="59.9080386" lon="17.7478834">
        <ele>35.7061</ele>
        <time>2014-06-06T14:42:22Z</time>
      </trkpt>
      <trkpt lat="59.9080397" lon="17.747872">
        <ele>35.2255</ele>
        <time>2014-06-06T14:42:23Z</time>
      </trkpt>
      <trkpt lat="59.9080379" lon="17.7478673">
        <ele>35.7061</ele>
        <time>2014-06-06T14:42:24Z</time>
      </trkpt>
      <trkpt lat="59.9080372" lon="17.7478534">
        <ele>35.7061</ele>
        <time>2014-06-06T14:42:25Z</time>
      </trkpt>
      <trkpt lat="59.9080428" lon="17.7478298">
        <ele>35.7061</ele>
        <time>2014-06-06T14:42:26Z</time>
      </trkpt>
      <trkpt lat="59.9080541" lon="17.7478028">
        <ele>35.7061</ele>
        <time>2014-06-06T14:42:27Z</time>
      </trkpt>
      <trkpt lat="59.9080702" lon="17.7477714">
        <ele>35.7061</ele>
        <time>2014-06-06T14:42:28Z</time>
      </trkpt>
      <trkpt lat="59.9080918" lon="17.7477368">
        <ele>35.7061</ele>
        <time>2014-06-06T14:42:29Z</time>
      </trkpt>
      <trkpt lat="59.9081169" lon="17.7477047">
        <ele>35.7061</ele>
        <time>2014-06-06T14:42:30Z</time>
      </trkpt>
      <trkpt lat="59.9081448" lon="17.7476752">
        <ele>35.7061</ele>
        <time>2014-06-06T14:42:31Z</time>
      </trkpt>
      <trkpt lat="59.9081747" lon="17.7476449">
        <ele>35.7061</ele>
        <time>2014-06-06T14:42:32Z</time>
      </trkpt>
      <trkpt lat="59.908208" lon="17.7476136">
        <ele>35.7061</ele>
        <time>2014-06-06T14:42:33Z</time>
      </trkpt>
      <trkpt lat="59.9082448" lon="17.7475843">
        <ele>35.7061</ele>
        <time>2014-06-06T14:42:34Z</time>
      </trkpt>
      <trkpt lat="59.9082836" lon="17.747555">
        <ele>35.7061</ele>
        <time>2014-06-06T14:42:35Z</time>
      </trkpt>
      <trkpt lat="59.9083235" lon="17.7475262">
        <ele>35.7061</ele>
        <time>2014-06-06T14:42:36Z</time>
      </trkpt>
      <trkpt lat="59.9083648" lon="17.7475024">
        <ele>35.7061</ele>
        <time>2014-06-06T14:42:37Z</time>
      </trkpt>
      <trkpt lat="59.9084076" lon="17.747483">
        <ele>35.7061</ele>
        <time>2014-06-06T14:42:38Z</time>
      </trkpt>
      <trkpt lat="59.9084506" lon="17.7474618">
        <ele>35.7061</ele>
        <time>2014-06-06T14:42:39Z</time>
      </trkpt>
      <trkpt lat="59.9084929" lon="17.7474388">
        <ele>36.1868</ele>
        <time>2014-06-06T14:42:40Z</time>
      </trkpt>
      <trkpt lat="59.9085354" lon="17.7474198">
        <ele>36.1868</ele>
        <time>2014-06-06T14:42:41Z</time>
      </trkpt>
      <trkpt lat="59.9085784" lon="17.7474086">
        <ele>36.1868</ele>
        <time>2014-06-06T14:42:42Z</time>
      </trkpt>
      <trkpt lat="59.9086205" lon="17.7474016">
        <ele>36.1868</ele>
        <time>2014-06-06T14:42:43Z</time>
      </trkpt>
      <trkpt lat="59.9086608" lon="17.7473929">
        <ele>36.1868</ele>
        <time>2014-06-06T14:42:44Z</time>
      </trkpt>
      <trkpt lat="59.9086966" lon="17.7473773">
        <ele>36.1868</ele>
        <time>2014-06-06T14:42:45Z</time>
      </trkpt>
      <trkpt lat="59.9087298" lon="17.7473575">
        <ele>36.1868</ele>
        <time>2014-06-06T14:42:46Z</time>
      </trkpt>
      <trkpt lat="59.9087619" lon="17.7473346">
        <ele>36.1868</ele>
        <time>2014-06-06T14:42:47Z</time>
      </trkpt>
      <trkpt lat="59.9087942" lon="17.7473103">
        <ele>36.1868</ele>
        <time>2014-06-06T14:42:48Z</time>
      </trkpt>
      <trkpt lat="59.9088287" lon="17.7472885">
        <ele>36.6675</ele>
        <time>2014-06-06T14:42:49Z</time>
      </trkpt>
      <trkpt lat="59.9088647" lon="17.7472693">
        <ele>36.6675</ele>
        <time>2014-06-06T14:42:50Z</time>
      </trkpt>
      <trkpt lat="59.9089005" lon="17.7472488">
        <ele>36.6675</ele>
        <time>2014-06-06T14:42:51Z</time>
      </trkpt>
      <trkpt lat="59.9089363" lon="17.7472261">
        <ele>36.6675</ele>
        <time>2014-06-06T14:42:52Z</time>
      </trkpt>
      <trkpt lat="59.908973" lon="17.7472048">
        <ele>36.6675</ele>
        <time>2014-06-06T14:42:53Z</time>
      </trkpt>
      <trkpt lat="59.9090108" lon="17.7471849">
        <ele>36.6675</ele>
        <time>2014-06-06T14:42:54Z</time>
      </trkpt>
      <trkpt lat="59.9090476" lon="17.7471633">
        <ele>36.6675</ele>
        <time>2014-06-06T14:42:55Z</time>
      </trkpt>
      <trkpt lat="59.9090798" lon="17.7471296">
        <ele>36.6675</ele>
        <time>2014-06-06T14:42:56Z</time>
      </trkpt>
      <trkpt lat="59.909106" lon="17.7470802">
        <ele>36.6675</ele>
        <time>2014-06-06T14:42:57Z</time>
      </trkpt>
      <trkpt lat="59.9091206" lon="17.7470201">
        <ele>36.6675</ele>
        <time>2014-06-06T14:42:58Z</time>
      </trkpt>
      <trkpt lat="59.9091286" lon="17.7469569">
        <ele>36.6675</ele>
        <time>2014-06-06T14:42:59Z</time>
      </trkpt>
      <trkpt lat="59.9091398" lon="17.7468971">
        <ele>36.6675</ele>
        <time>2014-06-06T14:43:00Z</time>
      </trkpt>
      <trkpt lat="59.9091524" lon="17.7468406">
        <ele>36.6675</ele>
        <time>2014-06-06T14:43:01Z</time>
      </trkpt>
      <trkpt lat="59.9091658" lon="17.7467872">
        <ele>36.1868</ele>
        <time>2014-06-06T14:43:02Z</time>
      </trkpt>
      <trkpt lat="59.9091801" lon="17.746736">
        <ele>36.1868</ele>
        <time>2014-06-06T14:43:03Z</time>
      </trkpt>
      <trkpt lat="59.9091943" lon="17.7466819">
        <ele>36.1868</ele>
        <time>2014-06-06T14:43:04Z</time>
      </trkpt>
      <trkpt lat="59.9092073" lon="17.7466257">
        <ele>36.1868</ele>
        <time>2014-06-06T14:43:05Z</time>
      </trkpt>
      <trkpt lat="59.909214" lon="17.7465643">
        <ele>35.7061</ele>
        <time>2014-06-06T14:43:06Z</time>
      </trkpt>
      <trkpt lat="59.9092233" lon="17.7464988">
        <ele>36.1868</ele>
        <time>2014-06-06T14:43:07Z</time>
      </trkpt>
      <trkpt lat="59.9092399" lon="17.7464406">
        <ele>36.6675</ele>
        <time>2014-06-06T14:43:08Z</time>
      </trkpt>
      <trkpt lat="59.9092565" lon="17.7463822">
        <ele>36.6675</ele>
        <time>2014-06-06T14:43:09Z</time>
      </trkpt>
      <trkpt lat="59.9092705" lon="17.7463177">
        <ele>36.6675</ele>
        <time>2014-06-06T14:43:10Z</time>
      </trkpt>
      <trkpt lat="59.9092833" lon="17.7462497">
        <ele>36.6675</ele>
        <time>2014-06-06T14:43:11Z</time>
      </trkpt>
      <trkpt lat="59.9092952" lon="17.7461804">
        <ele>36.6675</ele>
        <time>2014-06-06T14:43:12Z</time>
      </trkpt>
      <trkpt lat="59.9093072" lon="17.7461133">
        <ele>36.6675</ele>
        <time>2014-06-06T14:43:13Z</time>
      </trkpt>
      <trkpt lat="59.909319" lon="17.7460483">
        <ele>36.6675</ele>
        <time>2014-06-06T14:43:14Z</time>
      </trkpt>
      <trkpt lat="59.9093326" lon="17.7459859">
        <ele>36.6675</ele>
        <time>2014-06-06T14:43:15Z</time>
      </trkpt>
      <trkpt lat="59.9093509" lon="17.7459289">
        <ele>36.6675</ele>
        <time>2014-06-06T14:43:16Z</time>
      </trkpt>
      <trkpt lat="59.9093751" lon="17.7458802">
        <ele>36.6675</ele>
        <time>2014-06-06T14:43:17Z</time>
      </trkpt>
      <trkpt lat="59.9094061" lon="17.7458449">
        <ele>36.6675</ele>
        <time>2014-06-06T14:43:18Z</time>
      </trkpt>
      <trkpt lat="59.909442" lon="17.7458235">
        <ele>36.6675</ele>
        <time>2014-06-06T14:43:19Z</time>
      </trkpt>
      <trkpt lat="59.90948" lon="17.7458186">
        <ele>36.6675</ele>
        <time>2014-06-06T14:43:20Z</time>
      </trkpt>
      <trkpt lat="59.909517" lon="17.7458331">
        <ele>36.6675</ele>
        <time>2014-06-06T14:43:21Z</time>
      </trkpt>
      <trkpt lat="59.9095518" lon="17.74586">
        <ele>36.1868</ele>
        <time>2014-06-06T14:43:22Z</time>
      </trkpt>
      <trkpt lat="59.9095859" lon="17.7458828">
        <ele>36.1868</ele>
        <time>2014-06-06T14:43:23Z</time>
      </trkpt>
      <trkpt lat="59.9096195" lon="17.7458863">
        <ele>36.1868</ele>
        <time>2014-06-06T14:43:24Z</time>
      </trkpt>
      <trkpt lat="59.9096518" lon="17.7458661">
        <ele>36.1868</ele>
        <time>2014-06-06T14:43:25Z</time>
      </trkpt>
      <trkpt lat="59.9096811" lon="17.7458267">
        <ele>36.1868</ele>
        <time>2014-06-06T14:43:26Z</time>
      </trkpt>
      <trkpt lat="59.9097075" lon="17.7457757">
        <ele>36.1868</ele>
        <time>2014-06-06T14:43:27Z</time>
      </trkpt>
      <trkpt lat="59.909731" lon="17.7457181">
        <ele>35.7061</ele>
        <time>2014-06-06T14:43:28Z</time>
      </trkpt>
      <trkpt lat="59.9097497" lon="17.7456572">
        <ele>35.7061</ele>
        <time>2014-06-06T14:43:29Z</time>
      </trkpt>
      <trkpt lat="59.9097651" lon="17.7455962">
        <ele>35.7061</ele>
        <time>2014-06-06T14:43:30Z</time>
      </trkpt>
      <trkpt lat="59.9097774" lon="17.7455376">
        <ele>35.7061</ele>
        <time>2014-06-06T14:43:31Z</time>
      </trkpt>
      <trkpt lat="59.9097863" lon="17.7454818">
        <ele>36.1868</ele>
        <time>2014-06-06T14:43:32Z</time>
      </trkpt>
      <trkpt lat="59.9097915" lon="17.745427">
        <ele>36.1868</ele>
        <time>2014-06-06T14:43:33Z</time>
      </trkpt>
      <trkpt lat="59.9097952" lon="17.745373">
        <ele>36.1868</ele>
        <time>2014-06-06T14:43:34Z</time>
      </trkpt>
      <trkpt lat="59.9097958" lon="17.7453233">
        <ele>35.7061</ele>
        <time>2014-06-06T14:43:35Z</time>
      </trkpt>
      <trkpt lat="59.9097941" lon="17.745277">
        <ele>35.2255</ele>
        <time>2014-06-06T14:43:36Z</time>
      </trkpt>
      <trkpt lat="59.9097961" lon="17.7452367">
        <ele>35.7061</ele>
        <time>2014-06-06T14:43:37Z</time>
      </trkpt>
      <trkpt lat="59.9097994" lon="17.7452019">
        <ele>35.7061</ele>
        <time>2014-06-06T14:43:38Z</time>
      </trkpt>
      <trkpt lat="59.9098019" lon="17.7451669">
        <ele>35.2255</ele>
        <time>2014-06-06T14:43:39Z</time>
      </trkpt>
      <trkpt lat="59.9098051" lon="17.7451321">
        <ele>35.2255</ele>
        <time>2014-06-06T14:43:40Z</time>
      </trkpt>
      <trkpt lat="59.9098087" lon="17.7451001">
        <ele>35.2255</ele>
        <time>2014-06-06T14:43:41Z</time>
      </trkpt>
      <trkpt lat="59.9098168" lon="17.7450676">
        <ele>34.7449</ele>
        <time>2014-06-06T14:43:42Z</time>
      </trkpt>
      <trkpt lat="59.9098273" lon="17.745032">
        <ele>34.7449</ele>
        <time>2014-06-06T14:43:43Z</time>
      </trkpt>
      <trkpt lat="59.9098409" lon="17.7449896">
        <ele>34.7449</ele>
        <time>2014-06-06T14:43:44Z</time>
      </trkpt>
      <trkpt lat="59.9098556" lon="17.7449404">
        <ele>34.7449</ele>
        <time>2014-06-06T14:43:45Z</time>
      </trkpt>
      <trkpt lat="59.9098704" lon="17.7448958">
        <ele>34.7449</ele>
        <time>2014-06-06T14:43:46Z</time>
      </trkpt>
      <trkpt lat="59.9098864" lon="17.7448595">
        <ele>34.7449</ele>
        <time>2014-06-06T14:43:47Z</time>
      </trkpt>
      <trkpt lat="59.9099045" lon="17.7448344">
        <ele>34.7449</ele>
        <time>2014-06-06T14:43:48Z</time>
      </trkpt>
      <trkpt lat="59.9099237" lon="17.7448223">
        <ele>34.7449</ele>
        <time>2014-06-06T14:43:49Z</time>
      </trkpt>
      <trkpt lat="59.9099392" lon="17.7448032">
        <ele>34.7449</ele>
        <time>2014-06-06T14:43:50Z</time>
      </trkpt>
      <trkpt lat="59.9099466" lon="17.7447748">
        <ele>34.7449</ele>
        <time>2014-06-06T14:43:51Z</time>
      </trkpt>
      <trkpt lat="59.9099412" lon="17.7447544">
        <ele>34.7449</ele>
        <time>2014-06-06T14:43:52Z</time>
      </trkpt>
      <trkpt lat="59.9099287" lon="17.7447539">
        <ele>34.7449</ele>
        <time>2014-06-06T14:43:53Z</time>
      </trkpt>
      <trkpt lat="59.9099149" lon="17.74477">
        <ele>34.7449</ele>
        <time>2014-06-06T14:43:54Z</time>
      </trkpt>
      <trkpt lat="59.9098988" lon="17.7447911">
        <ele>34.7449</ele>
        <time>2014-06-06T14:43:55Z</time>
      </trkpt>
      <trkpt lat="59.9098795" lon="17.7448059">
        <ele>34.7449</ele>
        <time>2014-06-06T14:43:56Z</time>
      </trkpt>
      <trkpt lat="59.9098553" lon="17.7448124">
        <ele>34.7449</ele>
        <time>2014-06-06T14:43:57Z</time>
      </trkpt>
      <trkpt lat="59.9098274" lon="17.7448115">
        <ele>34.7449</ele>
        <time>2014-06-06T14:43:58Z</time>
      </trkpt>
      <trkpt lat="59.9097976" lon="17.7448013">
        <ele>34.7449</ele>
        <time>2014-06-06T14:43:59Z</time>
      </trkpt>
      <trkpt lat="59.9097684" lon="17.744781">
        <ele>34.2642</ele>
        <time>2014-06-06T14:44:00Z</time>
      </trkpt>
      <trkpt lat="59.9097406" lon="17.7447508">
        <ele>34.2642</ele>
        <time>2014-06-06T14:44:01Z</time>
      </trkpt>
      <trkpt lat="59.9097148" lon="17.7447178">
        <ele>34.2642</ele>
        <time>2014-06-06T14:44:02Z</time>
      </trkpt>
      <trkpt lat="59.9096904" lon="17.7446857">
        <ele>34.2642</ele>
        <time>2014-06-06T14:44:03Z</time>
      </trkpt>
      <trkpt lat="59.9096662" lon="17.7446519">
        <ele>34.2642</ele>
        <time>2014-06-06T14:44:04Z</time>
      </trkpt>
      <trkpt lat="59.9096404" lon="17.7446135">
        <ele>33.7834</ele>
        <time>2014-06-06T14:44:05Z</time>
      </trkpt>
      <trkpt lat="59.9096125" lon="17.7445676">
        <ele>33.7834</ele>
        <time>2014-06-06T14:44:06Z</time>
      </trkpt>
      <trkpt lat="59.909584" lon="17.7445142">
        <ele>33.7834</ele>
        <time>2014-06-06T14:44:07Z</time>
      </trkpt>
      <trkpt lat="59.9095563" lon="17.7444516">
        <ele>33.7834</ele>
        <time>2014-06-06T14:44:08Z</time>
      </trkpt>
      <trkpt lat="59.9095298" lon="17.7443824">
        <ele>33.7834</ele>
        <time>2014-06-06T14:44:09Z</time>
      </trkpt>
      <trkpt lat="59.9095067" lon="17.744309">
        <ele>34.2642</ele>
        <time>2014-06-06T14:44:10Z</time>
      </trkpt>
      <trkpt lat="59.909488" lon="17.7442314">
        <ele>34.2642</ele>
        <time>2014-06-06T14:44:11Z</time>
      </trkpt>
      <trkpt lat="59.9094749" lon="17.7441521">
        <ele>34.2642</ele>
        <time>2014-06-06T14:44:12Z</time>
      </trkpt>
      <trkpt lat="59.9094668" lon="17.7440701">
        <ele>34.2642</ele>
        <time>2014-06-06T14:44:13Z</time>
      </trkpt>
      <trkpt lat="59.9094625" lon="17.7439837">
        <ele>34.2642</ele>
        <time>2014-06-06T14:44:14Z</time>
      </trkpt>
      <trkpt lat="59.9094628" lon="17.7438934">
        <ele>34.7449</ele>
        <time>2014-06-06T14:44:15Z</time>
      </trkpt>
      <trkpt lat="59.9094699" lon="17.7438031">
        <ele>34.7449</ele>
        <time>2014-06-06T14:44:16Z</time>
      </trkpt>
      <trkpt lat="59.9094835" lon="17.7437143">
        <ele>34.7449</ele>
        <time>2014-06-06T14:44:17Z</time>
      </trkpt>
      <trkpt lat="59.909502" lon="17.743628">
        <ele>34.7449</ele>
        <time>2014-06-06T14:44:18Z</time>
      </trkpt>
      <trkpt lat="59.9095227" lon="17.743543">
        <ele>34.7449</ele>
        <time>2014-06-06T14:44:19Z</time>
      </trkpt>
      <trkpt lat="59.909545" lon="17.743459">
        <ele>34.7449</ele>
        <time>2014-06-06T14:44:20Z</time>
      </trkpt>
      <trkpt lat="59.9095703" lon="17.7433772">
        <ele>34.7449</ele>
        <time>2014-06-06T14:44:21Z</time>
      </trkpt>
      <trkpt lat="59.9095973" lon="17.7432986">
        <ele>35.2255</ele>
        <time>2014-06-06T14:44:22Z</time>
      </trkpt>
      <trkpt lat="59.9096254" lon="17.7432223">
        <ele>35.2255</ele>
        <time>2014-06-06T14:44:23Z</time>
      </trkpt>
      <trkpt lat="59.9096529" lon="17.743146">
        <ele>35.7061</ele>
        <time>2014-06-06T14:44:24Z</time>
      </trkpt>
      <trkpt lat="59.9096796" lon="17.7430701">
        <ele>35.7061</ele>
        <time>2014-06-06T14:44:25Z</time>
      </trkpt>
      <trkpt lat="59.9097057" lon="17.7429953">
        <ele>36.1868</ele>
        <time>2014-06-06T14:44:26Z</time>
      </trkpt>
      <trkpt lat="59.9097318" lon="17.7429209">
        <ele>36.1868</ele>
        <time>2014-06-06T14:44:27Z</time>
      </trkpt>
      <trkpt lat="59.9097575" lon="17.7428479">
        <ele>36.6675</ele>
        <time>2014-06-06T14:44:28Z</time>
      </trkpt>
      <trkpt lat="59.9097837" lon="17.7427769">
        <ele>36.6675</ele>
        <time>2014-06-06T14:44:29Z</time>
      </trkpt>
      <trkpt lat="59.9098096" lon="17.742707">
        <ele>36.6675</ele>
        <time>2014-06-06T14:44:30Z</time>
      </trkpt>
      <trkpt lat="59.9098335" lon="17.7426352">
        <ele>37.1481</ele>
        <time>2014-06-06T14:44:31Z</time>
      </trkpt>
      <trkpt lat="59.9098548" lon="17.7425603">
        <ele>37.1481</ele>
        <time>2014-06-06T14:44:32Z</time>
      </trkpt>
      <trkpt lat="59.9098761" lon="17.742486">
        <ele>37.6287</ele>
        <time>2014-06-06T14:44:33Z</time>
      </trkpt>
      <trkpt lat="59.909897" lon="17.7424127">
        <ele>37.6287</ele>
        <time>2014-06-06T14:44:34Z</time>
      </trkpt>
      <trkpt lat="59.9099157" lon="17.7423385">
        <ele>37.6287</ele>
        <time>2014-06-06T14:44:35Z</time>
      </trkpt>
      <trkpt lat="59.909934" lon="17.742264">
        <ele>37.6287</ele>
        <time>2014-06-06T14:44:36Z</time>
      </trkpt>
      <trkpt lat="59.9099514" lon="17.7421879">
        <ele>38.1094</ele>
        <time>2014-06-06T14:44:37Z</time>
      </trkpt>
      <trkpt lat="59.9099676" lon="17.742111">
        <ele>38.1094</ele>
        <time>2014-06-06T14:44:38Z</time>
      </trkpt>
      <trkpt lat="59.909983" lon="17.7420323">
        <ele>38.1094</ele>
        <time>2014-06-06T14:44:39Z</time>
      </trkpt>
      <trkpt lat="59.9099968" lon="17.7419514">
        <ele>38.1094</ele>
        <time>2014-06-06T14:44:40Z</time>
      </trkpt>
      <trkpt lat="59.9100103" lon="17.7418693">
        <ele>38.1094</ele>
        <time>2014-06-06T14:44:41Z</time>
      </trkpt>
      <trkpt lat="59.9100243" lon="17.7417844">
        <ele>38.1094</ele>
        <time>2014-06-06T14:44:42Z</time>
      </trkpt>
      <trkpt lat="59.9100392" lon="17.7416961">
        <ele>38.1094</ele>
        <time>2014-06-06T14:44:43Z</time>
      </trkpt>
      <trkpt lat="59.9100542" lon="17.7416045">
        <ele>37.6287</ele>
        <time>2014-06-06T14:44:44Z</time>
      </trkpt>
      <trkpt lat="59.9100687" lon="17.7415097">
        <ele>37.6287</ele>
        <time>2014-06-06T14:44:45Z</time>
      </trkpt>
      <trkpt lat="59.9100815" lon="17.7414117">
        <ele>37.6287</ele>
        <time>2014-06-06T14:44:46Z</time>
      </trkpt>
      <trkpt lat="59.9100921" lon="17.7413103">
        <ele>37.6287</ele>
        <time>2014-06-06T14:44:47Z</time>
      </trkpt>
      <trkpt lat="59.9101013" lon="17.7412078">
        <ele>37.1481</ele>
        <time>2014-06-06T14:44:48Z</time>
      </trkpt>
      <trkpt lat="59.9101091" lon="17.7411029">
        <ele>37.1481</ele>
        <time>2014-06-06T14:44:49Z</time>
      </trkpt>
      <trkpt lat="59.9101168" lon="17.7409967">
        <ele>37.1481</ele>
        <time>2014-06-06T14:44:50Z</time>
      </trkpt>
      <trkpt lat="59.9101234" lon="17.7408902">
        <ele>36.6675</ele>
        <time>2014-06-06T14:44:51Z</time>
      </trkpt>
      <trkpt lat="59.9101286" lon="17.740783">
        <ele>36.6675</ele>
        <time>2014-06-06T14:44:52Z</time>
      </trkpt>
      <trkpt lat="59.9101333" lon="17.7406761">
        <ele>36.6675</ele>
        <time>2014-06-06T14:44:53Z</time>
      </trkpt>
      <trkpt lat="59.9101366" lon="17.7405689">
        <ele>36.1868</ele>
        <time>2014-06-06T14:44:54Z</time>
      </trkpt>
      <trkpt lat="59.9101387" lon="17.7404626">
        <ele>35.7061</ele>
        <time>2014-06-06T14:44:55Z</time>
      </trkpt>
      <trkpt lat="59.9101386" lon="17.7403556">
        <ele>35.7061</ele>
        <time>2014-06-06T14:44:56Z</time>
      </trkpt>
      <trkpt lat="59.9101361" lon="17.7402475">
        <ele>35.2255</ele>
        <time>2014-06-06T14:44:57Z</time>
      </trkpt>
      <trkpt lat="59.9101331" lon="17.7401379">
        <ele>34.7449</ele>
        <time>2014-06-06T14:44:58Z</time>
      </trkpt>
      <trkpt lat="59.9101297" lon="17.7400311">
        <ele>34.2642</ele>
        <time>2014-06-06T14:44:59Z</time>
      </trkpt>
      <trkpt lat="59.9101232" lon="17.7399236">
        <ele>33.7834</ele>
        <time>2014-06-06T14:45:00Z</time>
      </trkpt>
      <trkpt lat="59.9101188" lon="17.7398082">
        <ele>33.7834</ele>
        <time>2014-06-06T14:45:01Z</time>
      </trkpt>
      <trkpt lat="59.9101132" lon="17.7396918">
        <ele>33.7834</ele>
        <time>2014-06-06T14:45:02Z</time>
      </trkpt>
      <trkpt lat="59.9101056" lon="17.7395798">
        <ele>33.7834</ele>
        <time>2014-06-06T14:45:03Z</time>
      </trkpt>
      <trkpt lat="59.910097" lon="17.7394672">
        <ele>33.3029</ele>
        <time>2014-06-06T14:45:04Z</time>
      </trkpt>
      <trkpt lat="59.9100873" lon="17.7393507">
        <ele>33.3029</ele>
        <time>2014-06-06T14:45:05Z</time>
      </trkpt>
      <trkpt lat="59.9100764" lon="17.7392258">
        <ele>32.8223</ele>
        <time>2014-06-06T14:45:06Z</time>
      </trkpt>
      <trkpt lat="59.9100639" lon="17.7390953">
        <ele>32.8223</ele>
        <time>2014-06-06T14:45:07Z</time>
      </trkpt>
      <trkpt lat="59.9100485" lon="17.7389605">
        <ele>32.8223</ele>
        <time>2014-06-06T14:45:08Z</time>
      </trkpt>
      <trkpt lat="59.9100318" lon="17.7388233">
        <ele>32.8223</ele>
        <time>2014-06-06T14:45:09Z</time>
      </trkpt>
      <trkpt lat="59.9100146" lon="17.7386876">
        <ele>32.8223</ele>
        <time>2014-06-06T14:45:10Z</time>
      </trkpt>
      <trkpt lat="59.9099972" lon="17.7385562">
        <ele>32.8223</ele>
        <time>2014-06-06T14:45:11Z</time>
      </trkpt>
      <trkpt lat="59.9099804" lon="17.7384285">
        <ele>32.8223</ele>
        <time>2014-06-06T14:45:12Z</time>
      </trkpt>
      <trkpt lat="59.9099652" lon="17.7383032">
        <ele>32.8223</ele>
        <time>2014-06-06T14:45:13Z</time>
      </trkpt>
      <trkpt lat="59.9099515" lon="17.738181">
        <ele>32.8223</ele>
        <time>2014-06-06T14:45:14Z</time>
      </trkpt>
      <trkpt lat="59.9099372" lon="17.738064">
        <ele>32.8223</ele>
        <time>2014-06-06T14:45:15Z</time>
      </trkpt>
      <trkpt lat="59.909921" lon="17.7379511">
        <ele>32.8223</ele>
        <time>2014-06-06T14:45:16Z</time>
      </trkpt>
      <trkpt lat="59.9099033" lon="17.7378431">
        <ele>32.8223</ele>
        <time>2014-06-06T14:45:17Z</time>
      </trkpt>
      <trkpt lat="59.9098847" lon="17.7377393">
        <ele>32.8223</ele>
        <time>2014-06-06T14:45:18Z</time>
      </trkpt>
      <trkpt lat="59.9098645" lon="17.7376366">
        <ele>32.8223</ele>
        <time>2014-06-06T14:45:19Z</time>
      </trkpt>
      <trkpt lat="59.9098439" lon="17.737533">
        <ele>32.8223</ele>
        <time>2014-06-06T14:45:20Z</time>
      </trkpt>
      <trkpt lat="59.9098222" lon="17.7374307">
        <ele>32.8223</ele>
        <time>2014-06-06T14:45:21Z</time>
      </trkpt>
      <trkpt lat="59.9097977" lon="17.7373304">
        <ele>32.8223</ele>
        <time>2014-06-06T14:45:22Z</time>
      </trkpt>
      <trkpt lat="59.9097713" lon="17.73723">
        <ele>32.8223</ele>
        <time>2014-06-06T14:45:23Z</time>
      </trkpt>
      <trkpt lat="59.9097451" lon="17.7371295">
        <ele>32.8223</ele>
        <time>2014-06-06T14:45:24Z</time>
      </trkpt>
      <trkpt lat="59.909718" lon="17.7370316">
        <ele>32.8223</ele>
        <time>2014-06-06T14:45:25Z</time>
      </trkpt>
      <trkpt lat="59.9096886" lon="17.736936">
        <ele>32.8223</ele>
        <time>2014-06-06T14:45:26Z</time>
      </trkpt>
      <trkpt lat="59.909658" lon="17.7368438">
        <ele>32.8223</ele>
        <time>2014-06-06T14:45:27Z</time>
      </trkpt>
      <trkpt lat="59.9096266" lon="17.736756">
        <ele>32.8223</ele>
        <time>2014-06-06T14:45:28Z</time>
      </trkpt>
      <trkpt lat="59.9095943" lon="17.7366736">
        <ele>32.8223</ele>
        <time>2014-06-06T14:45:29Z</time>
      </trkpt>
      <trkpt lat="59.9095635" lon="17.7365945">
        <ele>32.8223</ele>
        <time>2014-06-06T14:45:30Z</time>
      </trkpt>
      <trkpt lat="59.9095429" lon="17.7365094">
        <ele>32.8223</ele>
        <time>2014-06-06T14:45:31Z</time>
      </trkpt>
      <trkpt lat="59.9095409" lon="17.736417">
        <ele>32.8223</ele>
        <time>2014-06-06T14:45:32Z</time>
      </trkpt>
      <trkpt lat="59.909557" lon="17.7363291">
        <ele>32.8223</ele>
        <time>2014-06-06T14:45:33Z</time>
      </trkpt>
      <trkpt lat="59.9095869" lon="17.736256">
        <ele>32.8223</ele>
        <time>2014-06-06T14:45:34Z</time>
      </trkpt>
      <trkpt lat="59.909623" lon="17.7361918">
        <ele>32.8223</ele>
        <time>2014-06-06T14:45:35Z</time>
      </trkpt>
      <trkpt lat="59.9096619" lon="17.7361292">
        <ele>32.8223</ele>
        <time>2014-06-06T14:45:36Z</time>
      </trkpt>
      <trkpt lat="59.909702" lon="17.736066">
        <ele>32.8223</ele>
        <time>2014-06-06T14:45:37Z</time>
      </trkpt>
      <trkpt lat="59.9097428" lon="17.7360032">
        <ele>32.8223</ele>
        <time>2014-06-06T14:45:38Z</time>
      </trkpt>
      <trkpt lat="59.9097843" lon="17.7359392">
        <ele>32.8223</ele>
        <time>2014-06-06T14:45:39Z</time>
      </trkpt>
      <trkpt lat="59.9098259" lon="17.7358733">
        <ele>32.8223</ele>
        <time>2014-06-06T14:45:40Z</time>
      </trkpt>
      <trkpt lat="59.9098665" lon="17.7358037">
        <ele>33.3029</ele>
        <time>2014-06-06T14:45:41Z</time>
      </trkpt>
      <trkpt lat="59.9099069" lon="17.7357333">
        <ele>33.3029</ele>
        <time>2014-06-06T14:45:42Z</time>
      </trkpt>
      <trkpt lat="59.9099481" lon="17.7356656">
        <ele>33.3029</ele>
        <time>2014-06-06T14:45:43Z</time>
      </trkpt>
      <trkpt lat="59.9099894" lon="17.7356023">
        <ele>33.3029</ele>
        <time>2014-06-06T14:45:44Z</time>
      </trkpt>
      <trkpt lat="59.9100282" lon="17.7355414">
        <ele>33.3029</ele>
        <time>2014-06-06T14:45:45Z</time>
      </trkpt>
      <trkpt lat="59.9100659" lon="17.7354835">
        <ele>33.3029</ele>
        <time>2014-06-06T14:45:46Z</time>
      </trkpt>
      <trkpt lat="59.9101014" lon="17.7354234">
        <ele>33.3029</ele>
        <time>2014-06-06T14:45:47Z</time>
      </trkpt>
      <trkpt lat="59.9101242" lon="17.7353478">
        <ele>33.7834</ele>
        <time>2014-06-06T14:45:48Z</time>
      </trkpt>
      <trkpt lat="59.9101273" lon="17.7352601">
        <ele>33.7834</ele>
        <time>2014-06-06T14:45:49Z</time>
      </trkpt>
      <trkpt lat="59.9101118" lon="17.7351729">
        <ele>33.7834</ele>
        <time>2014-06-06T14:45:50Z</time>
      </trkpt>
      <trkpt lat="59.9100861" lon="17.7350886">
        <ele>33.7834</ele>
        <time>2014-06-06T14:45:51Z</time>
      </trkpt>
      <trkpt lat="59.9100584" lon="17.7350041">
        <ele>33.7834</ele>
        <time>2014-06-06T14:45:52Z</time>
      </trkpt>
      <trkpt lat="59.91003" lon="17.7349181">
        <ele>33.7834</ele>
        <time>2014-06-06T14:45:53Z</time>
      </trkpt>
      <trkpt lat="59.9100018" lon="17.7348308">
        <ele>33.7834</ele>
        <time>2014-06-06T14:45:54Z</time>
      </trkpt>
      <trkpt lat="59.9099725" lon="17.7347447">
        <ele>33.7834</ele>
        <time>2014-06-06T14:45:55Z</time>
      </trkpt>
      <trkpt lat="59.9099426" lon="17.7346585">
        <ele>33.7834</ele>
        <time>2014-06-06T14:45:56Z</time>
      </trkpt>
      <trkpt lat="59.9099137" lon="17.7345699">
        <ele>34.2642</ele>
        <time>2014-06-06T14:45:57Z</time>
      </trkpt>
      <trkpt lat="59.9098853" lon="17.7344792">
        <ele>33.7834</ele>
        <time>2014-06-06T14:45:58Z</time>
      </trkpt>
      <trkpt lat="59.9098564" lon="17.7343892">
        <ele>33.7834</ele>
        <time>2014-06-06T14:45:59Z</time>
      </trkpt>
      <trkpt lat="59.9098264" lon="17.7343006">
        <ele>34.2642</ele>
        <time>2014-06-06T14:46:00Z</time>
      </trkpt>
      <trkpt lat="59.9097968" lon="17.7342104">
        <ele>34.2642</ele>
        <time>2014-06-06T14:46:01Z</time>
      </trkpt>
      <trkpt lat="59.9097684" lon="17.7341183">
        <ele>34.2642</ele>
        <time>2014-06-06T14:46:02Z</time>
      </trkpt>
      <trkpt lat="59.9097416" lon="17.7340241">
        <ele>34.2642</ele>
        <time>2014-06-06T14:46:03Z</time>
      </trkpt>
      <trkpt lat="59.9097154" lon="17.7339296">
        <ele>34.2642</ele>
        <time>2014-06-06T14:46:04Z</time>
      </trkpt>
      <trkpt lat="59.9096885" lon="17.7338357">
        <ele>34.7449</ele>
        <time>2014-06-06T14:46:05Z</time>
      </trkpt>
      <trkpt lat="59.9096609" lon="17.7337422">
        <ele>34.7449</ele>
        <time>2014-06-06T14:46:06Z</time>
      </trkpt>
      <trkpt lat="59.9096323" lon="17.7336491">
        <ele>34.7449</ele>
        <time>2014-06-06T14:46:07Z</time>
      </trkpt>
      <trkpt lat="59.9096045" lon="17.7335537">
        <ele>34.7449</ele>
        <time>2014-06-06T14:46:08Z</time>
      </trkpt>
      <trkpt lat="59.9095769" lon="17.7334572">
        <ele>34.7449</ele>
        <time>2014-06-06T14:46:09Z</time>
      </trkpt>
      <trkpt lat="59.909549" lon="17.7333626">
        <ele>35.2255</ele>
        <time>2014-06-06T14:46:10Z</time>
      </trkpt>
      <trkpt lat="59.909521" lon="17.7332687">
        <ele>35.2255</ele>
        <time>2014-06-06T14:46:11Z</time>
      </trkpt>
      <trkpt lat="59.9094937" lon="17.7331745">
        <ele>35.2255</ele>
        <time>2014-06-06T14:46:12Z</time>
      </trkpt>
      <trkpt lat="59.9094674" lon="17.7330792">
        <ele>35.2255</ele>
        <time>2014-06-06T14:46:13Z</time>
      </trkpt>
      <trkpt lat="59.9094413" lon="17.7329836">
        <ele>35.2255</ele>
        <time>2014-06-06T14:46:14Z</time>
      </trkpt>
      <trkpt lat="59.909415" lon="17.7328883">
        <ele>35.7061</ele>
        <time>2014-06-06T14:46:15Z</time>
      </trkpt>
      <trkpt lat="59.9093889" lon="17.7327932">
        <ele>35.7061</ele>
        <time>2014-06-06T14:46:16Z</time>
      </trkpt>
      <trkpt lat="59.9093635" lon="17.7326989">
        <ele>35.7061</ele>
        <time>2014-06-06T14:46:17Z</time>
      </trkpt>
      <trkpt lat="59.9093393" lon="17.7326046">
        <ele>35.7061</ele>
        <time>2014-06-06T14:46:18Z</time>
      </trkpt>
      <trkpt lat="59.9093154" lon="17.7325113">
        <ele>35.7061</ele>
        <time>2014-06-06T14:46:19Z</time>
      </trkpt>
      <trkpt lat="59.9092922" lon="17.7324177">
        <ele>35.7061</ele>
        <time>2014-06-06T14:46:20Z</time>
      </trkpt>
      <trkpt lat="59.9092704" lon="17.7323232">
        <ele>35.7061</ele>
        <time>2014-06-06T14:46:21Z</time>
      </trkpt>
      <trkpt lat="59.9092492" lon="17.7322271">
        <ele>35.7061</ele>
        <time>2014-06-06T14:46:22Z</time>
      </trkpt>
      <trkpt lat="59.9092273" lon="17.7321318">
        <ele>35.7061</ele>
        <time>2014-06-06T14:46:23Z</time>
      </trkpt>
      <trkpt lat="59.9092056" lon="17.7320364">
        <ele>35.7061</ele>
        <time>2014-06-06T14:46:24Z</time>
      </trkpt>
      <trkpt lat="59.9091846" lon="17.7319404">
        <ele>35.7061</ele>
        <time>2014-06-06T14:46:25Z</time>
      </trkpt>
      <trkpt lat="59.9091632" lon="17.7318451">
        <ele>35.7061</ele>
        <time>2014-06-06T14:46:26Z</time>
      </trkpt>
      <trkpt lat="59.9091408" lon="17.731749">
        <ele>35.7061</ele>
        <time>2014-06-06T14:46:27Z</time>
      </trkpt>
      <trkpt lat="59.9091185" lon="17.7316526">
        <ele>35.7061</ele>
        <time>2014-06-06T14:46:28Z</time>
      </trkpt>
      <trkpt lat="59.9090972" lon="17.7315552">
        <ele>35.7061</ele>
        <time>2014-06-06T14:46:29Z</time>
      </trkpt>
      <trkpt lat="59.9090766" lon="17.731456">
        <ele>36.1868</ele>
        <time>2014-06-06T14:46:30Z</time>
      </trkpt>
      <trkpt lat="59.9090571" lon="17.7313552">
        <ele>36.1868</ele>
        <time>2014-06-06T14:46:31Z</time>
      </trkpt>
      <trkpt lat="59.9090384" lon="17.7312536">
        <ele>36.1868</ele>
        <time>2014-06-06T14:46:32Z</time>
      </trkpt>
      <trkpt lat="59.9090176" lon="17.7311525">
        <ele>36.1868</ele>
        <time>2014-06-06T14:46:33Z</time>
      </trkpt>
      <trkpt lat="59.9089943" lon="17.7310511">
        <ele>36.1868</ele>
        <time>2014-06-06T14:46:34Z</time>
      </trkpt>
      <trkpt lat="59.908972" lon="17.7309475">
        <ele>36.1868</ele>
        <time>2014-06-06T14:46:35Z</time>
      </trkpt>
      <trkpt lat="59.9089517" lon="17.7308413">
        <ele>36.1868</ele>
        <time>2014-06-06T14:46:36Z</time>
      </trkpt>
      <trkpt lat="59.9089311" lon="17.7307355">
        <ele>36.1868</ele>
        <time>2014-06-06T14:46:37Z</time>
      </trkpt>
      <trkpt lat="59.9089098" lon="17.7306299">
        <ele>36.1868</ele>
        <time>2014-06-06T14:46:38Z</time>
      </trkpt>
      <trkpt lat="59.9088887" lon="17.7305226">
        <ele>36.1868</ele>
        <time>2014-06-06T14:46:39Z</time>
      </trkpt>
      <trkpt lat="59.9088685" lon="17.7304135">
        <ele>36.1868</ele>
        <time>2014-06-06T14:46:40Z</time>
      </trkpt>
      <trkpt lat="59.9088482" lon="17.7303038">
        <ele>36.1868</ele>
        <time>2014-06-06T14:46:41Z</time>
      </trkpt>
      <trkpt lat="59.9088276" lon="17.7301939">
        <ele>36.1868</ele>
        <time>2014-06-06T14:46:42Z</time>
      </trkpt>
      <trkpt lat="59.9088073" lon="17.7300836">
        <ele>36.1868</ele>
        <time>2014-06-06T14:46:43Z</time>
      </trkpt>
      <trkpt lat="59.9087857" lon="17.7299737">
        <ele>36.1868</ele>
        <time>2014-06-06T14:46:44Z</time>
      </trkpt>
      <trkpt lat="59.9087632" lon="17.7298652">
        <ele>36.1868</ele>
        <time>2014-06-06T14:46:45Z</time>
      </trkpt>
      <trkpt lat="59.9087416" lon="17.729756">
        <ele>36.1868</ele>
        <time>2014-06-06T14:46:46Z</time>
      </trkpt>
      <trkpt lat="59.9087222" lon="17.729648">
        <ele>36.1868</ele>
        <time>2014-06-06T14:46:47Z</time>
      </trkpt>
      <trkpt lat="59.9087048" lon="17.7295431">
        <ele>36.1868</ele>
        <time>2014-06-06T14:46:48Z</time>
      </trkpt>
      <trkpt lat="59.9086882" lon="17.7294397">
        <ele>36.1868</ele>
        <time>2014-06-06T14:46:49Z</time>
      </trkpt>
      <trkpt lat="59.9086709" lon="17.7293379">
        <ele>36.1868</ele>
        <time>2014-06-06T14:46:50Z</time>
      </trkpt>
      <trkpt lat="59.908653" lon="17.7292355">
        <ele>36.1868</ele>
        <time>2014-06-06T14:46:51Z</time>
      </trkpt>
      <trkpt lat="59.908636" lon="17.729133">
        <ele>36.1868</ele>
        <time>2014-06-06T14:46:52Z</time>
      </trkpt>
      <trkpt lat="59.9086188" lon="17.7290313">
        <ele>36.1868</ele>
        <time>2014-06-06T14:46:53Z</time>
      </trkpt>
      <trkpt lat="59.9086011" lon="17.7289299">
        <ele>36.1868</ele>
        <time>2014-06-06T14:46:54Z</time>
      </trkpt>
      <trkpt lat="59.9085831" lon="17.7288294">
        <ele>36.1868</ele>
        <time>2014-06-06T14:46:55Z</time>
      </trkpt>
      <trkpt lat="59.9085663" lon="17.7287305">
        <ele>36.1868</ele>
        <time>2014-06-06T14:46:56Z</time>
      </trkpt>
      <trkpt lat="59.9085515" lon="17.7286347">
        <ele>36.1868</ele>
        <time>2014-06-06T14:46:57Z</time>
      </trkpt>
      <trkpt lat="59.9085366" lon="17.7285434">
        <ele>36.1868</ele>
        <time>2014-06-06T14:46:58Z</time>
      </trkpt>
      <trkpt lat="59.9085189" lon="17.7284563">
        <ele>36.1868</ele>
        <time>2014-06-06T14:46:59Z</time>
      </trkpt>
      <trkpt lat="59.9084989" lon="17.7283715">
        <ele>36.1868</ele>
        <time>2014-06-06T14:47:00Z</time>
      </trkpt>
      <trkpt lat="59.9084765" lon="17.7282904">
        <ele>36.1868</ele>
        <time>2014-06-06T14:47:01Z</time>
      </trkpt>
      <trkpt lat="59.9084531" lon="17.7282146">
        <ele>36.1868</ele>
        <time>2014-06-06T14:47:02Z</time>
      </trkpt>
      <trkpt lat="59.9084338" lon="17.728138">
        <ele>36.1868</ele>
        <time>2014-06-06T14:47:03Z</time>
      </trkpt>
      <trkpt lat="59.908419" lon="17.728057">
        <ele>36.6675</ele>
        <time>2014-06-06T14:47:04Z</time>
      </trkpt>
      <trkpt lat="59.9084073" lon="17.7279724">
        <ele>36.6675</ele>
        <time>2014-06-06T14:47:05Z</time>
      </trkpt>
      <trkpt lat="59.9083966" lon="17.7278854">
        <ele>36.6675</ele>
        <time>2014-06-06T14:47:06Z</time>
      </trkpt>
      <trkpt lat="59.9083848" lon="17.7277975">
        <ele>36.6675</ele>
        <time>2014-06-06T14:47:07Z</time>
      </trkpt>
      <trkpt lat="59.9083728" lon="17.7277087">
        <ele>36.6675</ele>
        <time>2014-06-06T14:47:08Z</time>
      </trkpt>
      <trkpt lat="59.9083624" lon="17.7276186">
        <ele>36.1868</ele>
        <time>2014-06-06T14:47:09Z</time>
      </trkpt>
      <trkpt lat="59.9083531" lon="17.7275292">
        <ele>36.1868</ele>
        <time>2014-06-06T14:47:10Z</time>
      </trkpt>
      <trkpt lat="59.9083442" lon="17.727442">
        <ele>36.1868</ele>
        <time>2014-06-06T14:47:11Z</time>
      </trkpt>
      <trkpt lat="59.9083355" lon="17.7273551">
        <ele>36.1868</ele>
        <time>2014-06-06T14:47:12Z</time>
      </trkpt>
      <trkpt lat="59.9083301" lon="17.7272674">
        <ele>36.1868</ele>
        <time>2014-06-06T14:47:13Z</time>
      </trkpt>
      <trkpt lat="59.908329" lon="17.7271806">
        <ele>36.1868</ele>
        <time>2014-06-06T14:47:14Z</time>
      </trkpt>
      <trkpt lat="59.9083309" lon="17.7270977">
        <ele>36.1868</ele>
        <time>2014-06-06T14:47:15Z</time>
      </trkpt>
      <trkpt lat="59.9083339" lon="17.7270209">
        <ele>36.1868</ele>
        <time>2014-06-06T14:47:16Z</time>
      </trkpt>
      <trkpt lat="59.9083368" lon="17.7269516">
        <ele>36.1868</ele>
        <time>2014-06-06T14:47:17Z</time>
      </trkpt>
      <trkpt lat="59.9083406" lon="17.7268889">
        <ele>36.1868</ele>
        <time>2014-06-06T14:47:18Z</time>
      </trkpt>
      <trkpt lat="59.9083463" lon="17.726833">
        <ele>36.1868</ele>
        <time>2014-06-06T14:47:19Z</time>
      </trkpt>
      <trkpt lat="59.9083498" lon="17.7267833">
        <ele>36.1868</ele>
        <time>2014-06-06T14:47:20Z</time>
      </trkpt>
      <trkpt lat="59.9083496" lon="17.7267411">
        <ele>35.7061</ele>
        <time>2014-06-06T14:47:21Z</time>
      </trkpt>
      <trkpt lat="59.9083487" lon="17.7266991">
        <ele>35.7061</ele>
        <time>2014-06-06T14:47:22Z</time>
      </trkpt>
      <trkpt lat="59.9083466" lon="17.7266512">
        <ele>35.7061</ele>
        <time>2014-06-06T14:47:23Z</time>
      </trkpt>
      <trkpt lat="59.9083479" lon="17.7266007">
        <ele>36.1868</ele>
        <time>2014-06-06T14:47:24Z</time>
      </trkpt>
      <trkpt lat="59.9083573" lon="17.726559">
        <ele>36.1868</ele>
        <time>2014-06-06T14:47:25Z</time>
      </trkpt>
      <trkpt lat="59.9083753" lon="17.7265212">
        <ele>35.7061</ele>
        <time>2014-06-06T14:47:26Z</time>
      </trkpt>
      <trkpt lat="59.9083969" lon="17.7264811">
        <ele>35.7061</ele>
        <time>2014-06-06T14:47:27Z</time>
      </trkpt>
      <trkpt lat="59.9084199" lon="17.7264315">
        <ele>35.2255</ele>
        <time>2014-06-06T14:47:28Z</time>
      </trkpt>
      <trkpt lat="59.9084431" lon="17.7263761">
        <ele>35.2255</ele>
        <time>2014-06-06T14:47:29Z</time>
      </trkpt>
      <trkpt lat="59.9084643" lon="17.7263166">
        <ele>35.2255</ele>
        <time>2014-06-06T14:47:30Z</time>
      </trkpt>
      <trkpt lat="59.9084791" lon="17.7262505">
        <ele>35.7061</ele>
        <time>2014-06-06T14:47:31Z</time>
      </trkpt>
      <trkpt lat="59.9084826" lon="17.7261783">
        <ele>35.2255</ele>
        <time>2014-06-06T14:47:32Z</time>
      </trkpt>
      <trkpt lat="59.9084758" lon="17.7261053">
        <ele>35.2255</ele>
        <time>2014-06-06T14:47:33Z</time>
      </trkpt>
      <trkpt lat="59.9084628" lon="17.7260293">
        <ele>35.2255</ele>
        <time>2014-06-06T14:47:34Z</time>
      </trkpt>
      <trkpt lat="59.9084453" lon="17.7259516">
        <ele>35.2255</ele>
        <time>2014-06-06T14:47:35Z</time>
      </trkpt>
      <trkpt lat="59.9084262" lon="17.7258736">
        <ele>35.2255</ele>
        <time>2014-06-06T14:47:36Z</time>
      </trkpt>
      <trkpt lat="59.9084075" lon="17.7257929">
        <ele>35.2255</ele>
        <time>2014-06-06T14:47:37Z</time>
      </trkpt>
      <trkpt lat="59.9083892" lon="17.725711">
        <ele>35.2255</ele>
        <time>2014-06-06T14:47:38Z</time>
      </trkpt>
      <trkpt lat="59.908371" lon="17.7256279">
        <ele>34.7449</ele>
        <time>2014-06-06T14:47:39Z</time>
      </trkpt>
      <trkpt lat="59.9083508" lon="17.7255446">
        <ele>34.7449</ele>
        <time>2014-06-06T14:47:40Z</time>
      </trkpt>
      <trkpt lat="59.9083278" lon="17.7254601">
        <ele>34.7449</ele>
        <time>2014-06-06T14:47:41Z</time>
      </trkpt>
      <trkpt lat="59.9083049" lon="17.7253722">
        <ele>34.7449</ele>
        <time>2014-06-06T14:47:42Z</time>
      </trkpt>
      <trkpt lat="59.9082834" lon="17.7252829">
        <ele>34.7449</ele>
        <time>2014-06-06T14:47:43Z</time>
      </trkpt>
      <trkpt lat="59.9082619" lon="17.7251928">
        <ele>34.7449</ele>
        <time>2014-06-06T14:47:44Z</time>
      </trkpt>
      <trkpt lat="59.9082394" lon="17.7251039">
        <ele>34.7449</ele>
        <time>2014-06-06T14:47:45Z</time>
      </trkpt>
      <trkpt lat="59.9082166" lon="17.7250152">
        <ele>35.2255</ele>
        <time>2014-06-06T14:47:46Z</time>
      </trkpt>
      <trkpt lat="59.9081944" lon="17.7249253">
        <ele>35.2255</ele>
        <time>2014-06-06T14:47:47Z</time>
      </trkpt>
      <trkpt lat="59.9081742" lon="17.7248367">
        <ele>35.2255</ele>
        <time>2014-06-06T14:47:48Z</time>
      </trkpt>
      <trkpt lat="59.9081547" lon="17.7247499">
        <ele>35.2255</ele>
        <time>2014-06-06T14:47:49Z</time>
      </trkpt>
      <trkpt lat="59.9081345" lon="17.7246649">
        <ele>35.2255</ele>
        <time>2014-06-06T14:47:50Z</time>
      </trkpt>
      <trkpt lat="59.9081141" lon="17.7245817">
        <ele>35.2255</ele>
        <time>2014-06-06T14:47:51Z</time>
      </trkpt>
      <trkpt lat="59.9080935" lon="17.7245004">
        <ele>35.2255</ele>
        <time>2014-06-06T14:47:52Z</time>
      </trkpt>
      <trkpt lat="59.9080721" lon="17.7244197">
        <ele>35.2255</ele>
        <time>2014-06-06T14:47:53Z</time>
      </trkpt>
      <trkpt lat="59.9080509" lon="17.7243387">
        <ele>34.7449</ele>
        <time>2014-06-06T14:47:54Z</time>
      </trkpt>
      <trkpt lat="59.9080307" lon="17.7242559">
        <ele>34.7449</ele>
        <time>2014-06-06T14:47:55Z</time>
      </trkpt>
      <trkpt lat="59.9080111" lon="17.724172">
        <ele>34.7449</ele>
        <time>2014-06-06T14:47:56Z</time>
      </trkpt>
      <trkpt lat="59.9079919" lon="17.7240874">
        <ele>35.2255</ele>
        <time>2014-06-06T14:47:57Z</time>
      </trkpt>
      <trkpt lat="59.9079728" lon="17.7240026">
        <ele>35.2255</ele>
        <time>2014-06-06T14:47:58Z</time>
      </trkpt>
      <trkpt lat="59.9079526" lon="17.7239174">
        <ele>35.2255</ele>
        <time>2014-06-06T14:47:59Z</time>
      </trkpt>
      <trkpt lat="59.9079319" lon="17.7238323">
        <ele>35.2255</ele>
        <time>2014-06-06T14:48:00Z</time>
      </trkpt>
      <trkpt lat="59.9079106" lon="17.7237476">
        <ele>34.7449</ele>
        <time>2014-06-06T14:48:01Z</time>
      </trkpt>
      <trkpt lat="59.9078898" lon="17.7236612">
        <ele>34.7449</ele>
        <time>2014-06-06T14:48:02Z</time>
      </trkpt>
      <trkpt lat="59.9078678" lon="17.723574">
        <ele>34.7449</ele>
        <time>2014-06-06T14:48:03Z</time>
      </trkpt>
      <trkpt lat="59.9078449" lon="17.7234871">
        <ele>34.7449</ele>
        <time>2014-06-06T14:48:04Z</time>
      </trkpt>
      <trkpt lat="59.9078216" lon="17.7234008">
        <ele>34.7449</ele>
        <time>2014-06-06T14:48:05Z</time>
      </trkpt>
      <trkpt lat="59.9077988" lon="17.7233141">
        <ele>34.7449</ele>
        <time>2014-06-06T14:48:06Z</time>
      </trkpt>
      <trkpt lat="59.9077768" lon="17.7232264">
        <ele>34.7449</ele>
        <time>2014-06-06T14:48:07Z</time>
      </trkpt>
      <trkpt lat="59.9077554" lon="17.723138">
        <ele>34.7449</ele>
        <time>2014-06-06T14:48:08Z</time>
      </trkpt>
      <trkpt lat="59.9077324" lon="17.7230488">
        <ele>34.7449</ele>
        <time>2014-06-06T14:48:09Z</time>
      </trkpt>
      <trkpt lat="59.9077072" lon="17.7229592">
        <ele>34.7449</ele>
        <time>2014-06-06T14:48:10Z</time>
      </trkpt>
      <trkpt lat="59.9076808" lon="17.722868">
        <ele>34.7449</ele>
        <time>2014-06-06T14:48:11Z</time>
      </trkpt>
      <trkpt lat="59.9076517" lon="17.722777">
        <ele>34.7449</ele>
        <time>2014-06-06T14:48:12Z</time>
      </trkpt>
      <trkpt lat="59.9076201" lon="17.7226864">
        <ele>34.7449</ele>
        <time>2014-06-06T14:48:13Z</time>
      </trkpt>
      <trkpt lat="59.9075886" lon="17.7225946">
        <ele>34.2642</ele>
        <time>2014-06-06T14:48:14Z</time>
      </trkpt>
      <trkpt lat="59.9075574" lon="17.7225039">
        <ele>34.2642</ele>
        <time>2014-06-06T14:48:15Z</time>
      </trkpt>
      <trkpt lat="59.9075263" lon="17.7224123">
        <ele>34.2642</ele>
        <time>2014-06-06T14:48:16Z</time>
      </trkpt>
      <trkpt lat="59.9074947" lon="17.7223181">
        <ele>34.2642</ele>
        <time>2014-06-06T14:48:17Z</time>
      </trkpt>
      <trkpt lat="59.9074625" lon="17.7222216">
        <ele>33.7834</ele>
        <time>2014-06-06T14:48:18Z</time>
      </trkpt>
      <trkpt lat="59.9074303" lon="17.7221258">
        <ele>33.7834</ele>
        <time>2014-06-06T14:48:19Z</time>
      </trkpt>
      <trkpt lat="59.9073976" lon="17.7220346">
        <ele>33.7834</ele>
        <time>2014-06-06T14:48:20Z</time>
      </trkpt>
      <trkpt lat="59.9073632" lon="17.7219461">
        <ele>33.7834</ele>
        <time>2014-06-06T14:48:21Z</time>
      </trkpt>
      <trkpt lat="59.9073275" lon="17.7218631">
        <ele>33.7834</ele>
        <time>2014-06-06T14:48:22Z</time>
      </trkpt>
      <trkpt lat="59.9072922" lon="17.7217819">
        <ele>33.7834</ele>
        <time>2014-06-06T14:48:23Z</time>
      </trkpt>
      <trkpt lat="59.907257" lon="17.7216995">
        <ele>33.7834</ele>
        <time>2014-06-06T14:48:24Z</time>
      </trkpt>
      <trkpt lat="59.9072208" lon="17.7216171">
        <ele>33.7834</ele>
        <time>2014-06-06T14:48:25Z</time>
      </trkpt>
      <trkpt lat="59.9071849" lon="17.7215337">
        <ele>33.7834</ele>
        <time>2014-06-06T14:48:26Z</time>
      </trkpt>
      <trkpt lat="59.907149" lon="17.7214489">
        <ele>33.7834</ele>
        <time>2014-06-06T14:48:27Z</time>
      </trkpt>
      <trkpt lat="59.9071123" lon="17.7213653">
        <ele>33.7834</ele>
        <time>2014-06-06T14:48:28Z</time>
      </trkpt>
      <trkpt lat="59.9070742" lon="17.7212825">
        <ele>33.7834</ele>
        <time>2014-06-06T14:48:29Z</time>
      </trkpt>
      <trkpt lat="59.907035" lon="17.7212015">
        <ele>33.7834</ele>
        <time>2014-06-06T14:48:30Z</time>
      </trkpt>
      <trkpt lat="59.9069955" lon="17.7211193">
        <ele>33.7834</ele>
        <time>2014-06-06T14:48:31Z</time>
      </trkpt>
      <trkpt lat="59.9069573" lon="17.7210394">
        <ele>33.7834</ele>
        <time>2014-06-06T14:48:32Z</time>
      </trkpt>
      <trkpt lat="59.9069192" lon="17.7209638">
        <ele>33.7834</ele>
        <time>2014-06-06T14:48:33Z</time>
      </trkpt>
      <trkpt lat="59.9068807" lon="17.7208934">
        <ele>33.7834</ele>
        <time>2014-06-06T14:48:34Z</time>
      </trkpt>
      <trkpt lat="59.9068411" lon="17.7208281">
        <ele>34.2642</ele>
        <time>2014-06-06T14:48:35Z</time>
      </trkpt>
      <trkpt lat="59.9068022" lon="17.7207643">
        <ele>34.2642</ele>
        <time>2014-06-06T14:48:36Z</time>
      </trkpt>
      <trkpt lat="59.9067638" lon="17.7207023">
        <ele>34.2642</ele>
        <time>2014-06-06T14:48:37Z</time>
      </trkpt>
      <trkpt lat="59.9067249" lon="17.7206443">
        <ele>34.2642</ele>
        <time>2014-06-06T14:48:38Z</time>
      </trkpt>
      <trkpt lat="59.9066826" lon="17.7205946">
        <ele>34.2642</ele>
        <time>2014-06-06T14:48:39Z</time>
      </trkpt>
      <trkpt lat="59.9066359" lon="17.7205568">
        <ele>34.2642</ele>
        <time>2014-06-06T14:48:40Z</time>
      </trkpt>
      <trkpt lat="59.9065866" lon="17.7205253">
        <ele>34.2642</ele>
        <time>2014-06-06T14:48:41Z</time>
      </trkpt>
      <trkpt lat="59.9065352" lon="17.7204989">
        <ele>34.2642</ele>
        <time>2014-06-06T14:48:42Z</time>
      </trkpt>
      <trkpt lat="59.906482" lon="17.7204757">
        <ele>34.2642</ele>
        <time>2014-06-06T14:48:43Z</time>
      </trkpt>
      <trkpt lat="59.9064279" lon="17.7204505">
        <ele>34.2642</ele>
        <time>2014-06-06T14:48:44Z</time>
      </trkpt>
      <trkpt lat="59.906373" lon="17.7204221">
        <ele>34.2642</ele>
        <time>2014-06-06T14:48:45Z</time>
      </trkpt>
      <trkpt lat="59.906319" lon="17.7203874">
        <ele>34.2642</ele>
        <time>2014-06-06T14:48:46Z</time>
      </trkpt>
      <trkpt lat="59.906268" lon="17.7203468">
        <ele>34.2642</ele>
        <time>2014-06-06T14:48:47Z</time>
      </trkpt>
      <trkpt lat="59.9062168" lon="17.720319">
        <ele>34.2642</ele>
        <time>2014-06-06T14:48:48Z</time>
      </trkpt>
      <trkpt lat="59.9061645" lon="17.7203206">
        <ele>34.2642</ele>
        <time>2014-06-06T14:48:49Z</time>
      </trkpt>
      <trkpt lat="59.9061147" lon="17.7203561">
        <ele>34.2642</ele>
        <time>2014-06-06T14:48:50Z</time>
      </trkpt>
      <trkpt lat="59.9060696" lon="17.7204196">
        <ele>34.2642</ele>
        <time>2014-06-06T14:48:51Z</time>
      </trkpt>
      <trkpt lat="59.9060276" lon="17.7204992">
        <ele>34.2642</ele>
        <time>2014-06-06T14:48:52Z</time>
      </trkpt>
      <trkpt lat="59.9059868" lon="17.7205858">
        <ele>34.2642</ele>
        <time>2014-06-06T14:48:53Z</time>
      </trkpt>
      <trkpt lat="59.9059469" lon="17.7206764">
        <ele>34.2642</ele>
        <time>2014-06-06T14:48:54Z</time>
      </trkpt>
      <trkpt lat="59.9059071" lon="17.7207676">
        <ele>34.2642</ele>
        <time>2014-06-06T14:48:55Z</time>
      </trkpt>
      <trkpt lat="59.9058669" lon="17.7208562">
        <ele>34.2642</ele>
        <time>2014-06-06T14:48:56Z</time>
      </trkpt>
      <trkpt lat="59.9058277" lon="17.7209441">
        <ele>34.2642</ele>
        <time>2014-06-06T14:48:57Z</time>
      </trkpt>
      <trkpt lat="59.9057897" lon="17.7210309">
        <ele>34.2642</ele>
        <time>2014-06-06T14:48:58Z</time>
      </trkpt>
      <trkpt lat="59.9057507" lon="17.7211131">
        <ele>34.2642</ele>
        <time>2014-06-06T14:48:59Z</time>
      </trkpt>
      <trkpt lat="59.9057123" lon="17.7211909">
        <ele>34.2642</ele>
        <time>2014-06-06T14:49:00Z</time>
      </trkpt>
      <trkpt lat="59.9056755" lon="17.7212675">
        <ele>34.2642</ele>
        <time>2014-06-06T14:49:01Z</time>
      </trkpt>
      <trkpt lat="59.9056403" lon="17.7213447">
        <ele>34.2642</ele>
        <time>2014-06-06T14:49:02Z</time>
      </trkpt>
      <trkpt lat="59.905607" lon="17.7214191">
        <ele>34.2642</ele>
        <time>2014-06-06T14:49:03Z</time>
      </trkpt>
      <trkpt lat="59.9055768" lon="17.721485">
        <ele>34.7449</ele>
        <time>2014-06-06T14:49:04Z</time>
      </trkpt>
      <trkpt lat="59.9055455" lon="17.7215327">
        <ele>34.7449</ele>
        <time>2014-06-06T14:49:05Z</time>
      </trkpt>
      <trkpt lat="59.9055112" lon="17.7215514">
        <ele>34.2642</ele>
        <time>2014-06-06T14:49:06Z</time>
      </trkpt>
      <trkpt lat="59.9054767" lon="17.7215485">
        <ele>34.2642</ele>
        <time>2014-06-06T14:49:07Z</time>
      </trkpt>
      <trkpt lat="59.9053247" lon="17.7214367">
        <ele>34.2642</ele>
        <time>2014-06-06T15:04:56Z</time>
      </trkpt>
      <trkpt lat="59.9053434" lon="17.7214684">
        <ele>34.7449</ele>
        <time>2014-06-06T15:04:57Z</time>
      </trkpt>
      <trkpt lat="59.9053637" lon="17.7214973">
        <ele>34.7449</ele>
        <time>2014-06-06T15:04:58Z</time>
      </trkpt>
      <trkpt lat="59.9053886" lon="17.7215186">
        <ele>34.7449</ele>
        <time>2014-06-06T15:04:59Z</time>
      </trkpt>
      <trkpt lat="59.9054206" lon="17.7215389">
        <ele>34.7449</ele>
        <time>2014-06-06T15:05:00Z</time>
      </trkpt>
      <trkpt lat="59.9054558" lon="17.7215591">
        <ele>35.2255</ele>
        <time>2014-06-06T15:05:01Z</time>
      </trkpt>
      <trkpt lat="59.9054927" lon="17.7215752">
        <ele>35.2255</ele>
        <time>2014-06-06T15:05:02Z</time>
      </trkpt>
      <trkpt lat="59.9055311" lon="17.7215711">
        <ele>35.2255</ele>
        <time>2014-06-06T15:05:03Z</time>
      </trkpt>
      <trkpt lat="59.9055662" lon="17.7215387">
        <ele>35.2255</ele>
        <time>2014-06-06T15:05:04Z</time>
      </trkpt>
      <trkpt lat="59.9055962" lon="17.7214851">
        <ele>35.2255</ele>
        <time>2014-06-06T15:05:05Z</time>
      </trkpt>
      <trkpt lat="59.9056252" lon="17.721423">
        <ele>35.2255</ele>
        <time>2014-06-06T15:05:06Z</time>
      </trkpt>
      <trkpt lat="59.9056556" lon="17.7213586">
        <ele>35.2255</ele>
        <time>2014-06-06T15:05:07Z</time>
      </trkpt>
      <trkpt lat="59.9056863" lon="17.7212914">
        <ele>35.2255</ele>
        <time>2014-06-06T15:05:08Z</time>
      </trkpt>
      <trkpt lat="59.905717" lon="17.7212212">
        <ele>35.2255</ele>
        <time>2014-06-06T15:05:09Z</time>
      </trkpt>
      <trkpt lat="59.9057496" lon="17.7211507">
        <ele>35.2255</ele>
        <time>2014-06-06T15:05:10Z</time>
      </trkpt>
      <trkpt lat="59.9057836" lon="17.72108">
        <ele>35.2255</ele>
        <time>2014-06-06T15:05:11Z</time>
      </trkpt>
      <trkpt lat="59.9058175" lon="17.7210086">
        <ele>35.2255</ele>
        <time>2014-06-06T15:05:12Z</time>
      </trkpt>
      <trkpt lat="59.9058504" lon="17.7209383">
        <ele>35.2255</ele>
        <time>2014-06-06T15:05:13Z</time>
      </trkpt>
      <trkpt lat="59.9058816" lon="17.7208691">
        <ele>35.2255</ele>
        <time>2014-06-06T15:05:14Z</time>
      </trkpt>
      <trkpt lat="59.9059117" lon="17.7208001">
        <ele>35.2255</ele>
        <time>2014-06-06T15:05:15Z</time>
      </trkpt>
      <trkpt lat="59.9059421" lon="17.7207307">
        <ele>35.2255</ele>
        <time>2014-06-06T15:05:16Z</time>
      </trkpt>
      <trkpt lat="59.9059723" lon="17.7206635">
        <ele>35.2255</ele>
        <time>2014-06-06T15:05:17Z</time>
      </trkpt>
      <trkpt lat="59.9060027" lon="17.7205982">
        <ele>35.2255</ele>
        <time>2014-06-06T15:05:18Z</time>
      </trkpt>
      <trkpt lat="59.9060319" lon="17.720532">
        <ele>35.7061</ele>
        <time>2014-06-06T15:05:19Z</time>
      </trkpt>
      <trkpt lat="59.9060604" lon="17.7204669">
        <ele>35.7061</ele>
        <time>2014-06-06T15:05:20Z</time>
      </trkpt>
      <trkpt lat="59.9060889" lon="17.7204038">
        <ele>35.7061</ele>
        <time>2014-06-06T15:05:21Z</time>
      </trkpt>
      <trkpt lat="59.9061176" lon="17.7203411">
        <ele>35.7061</ele>
        <time>2014-06-06T15:05:22Z</time>
      </trkpt>
      <trkpt lat="59.9061401" lon="17.7202703">
        <ele>35.7061</ele>
        <time>2014-06-06T15:05:23Z</time>
      </trkpt>
      <trkpt lat="59.9061468" lon="17.7201889">
        <ele>35.7061</ele>
        <time>2014-06-06T15:05:24Z</time>
      </trkpt>
      <trkpt lat="59.9061329" lon="17.7201091">
        <ele>35.7061</ele>
        <time>2014-06-06T15:05:25Z</time>
      </trkpt>
      <trkpt lat="59.9061111" lon="17.7200283">
        <ele>36.1868</ele>
        <time>2014-06-06T15:05:26Z</time>
      </trkpt>
      <trkpt lat="59.9060919" lon="17.7199398">
        <ele>36.1868</ele>
        <time>2014-06-06T15:05:27Z</time>
      </trkpt>
      <trkpt lat="59.9060778" lon="17.7198458">
        <ele>36.1868</ele>
        <time>2014-06-06T15:05:28Z</time>
      </trkpt>
      <trkpt lat="59.9060682" lon="17.7197498">
        <ele>36.6675</ele>
        <time>2014-06-06T15:05:29Z</time>
      </trkpt>
      <trkpt lat="59.9060583" lon="17.719657">
        <ele>36.6675</ele>
        <time>2014-06-06T15:05:30Z</time>
      </trkpt>
      <trkpt lat="59.9060387" lon="17.7195724">
        <ele>36.6675</ele>
        <time>2014-06-06T15:05:31Z</time>
      </trkpt>
      <trkpt lat="59.9060075" lon="17.7194984">
        <ele>36.6675</ele>
        <time>2014-06-06T15:05:32Z</time>
      </trkpt>
      <trkpt lat="59.9059692" lon="17.7194335">
        <ele>36.6675</ele>
        <time>2014-06-06T15:05:33Z</time>
      </trkpt>
      <trkpt lat="59.9059278" lon="17.719373">
        <ele>36.6675</ele>
        <time>2014-06-06T15:05:34Z</time>
      </trkpt>
      <trkpt lat="59.9058853" lon="17.719311">
        <ele>36.6675</ele>
        <time>2014-06-06T15:05:35Z</time>
      </trkpt>
      <trkpt lat="59.9058422" lon="17.7192441">
        <ele>36.6675</ele>
        <time>2014-06-06T15:05:36Z</time>
      </trkpt>
      <trkpt lat="59.9057999" lon="17.7191711">
        <ele>36.1868</ele>
        <time>2014-06-06T15:05:37Z</time>
      </trkpt>
      <trkpt lat="59.9057594" lon="17.719098">
        <ele>36.1868</ele>
        <time>2014-06-06T15:05:38Z</time>
      </trkpt>
      <trkpt lat="59.9057191" lon="17.7190312">
        <ele>36.1868</ele>
        <time>2014-06-06T15:05:39Z</time>
      </trkpt>
      <trkpt lat="59.9056771" lon="17.7189691">
        <ele>36.1868</ele>
        <time>2014-06-06T15:05:40Z</time>
      </trkpt>
      <trkpt lat="59.9056361" lon="17.7189048">
        <ele>36.1868</ele>
        <time>2014-06-06T15:05:41Z</time>
      </trkpt>
      <trkpt lat="59.9055958" lon="17.718838">
        <ele>36.1868</ele>
        <time>2014-06-06T15:05:42Z</time>
      </trkpt>
      <trkpt lat="59.9055554" lon="17.7187713">
        <ele>36.1868</ele>
        <time>2014-06-06T15:05:43Z</time>
      </trkpt>
      <trkpt lat="59.9055149" lon="17.7187058">
        <ele>36.1868</ele>
        <time>2014-06-06T15:05:44Z</time>
      </trkpt>
      <trkpt lat="59.9054736" lon="17.7186406">
        <ele>35.7061</ele>
        <time>2014-06-06T15:05:45Z</time>
      </trkpt>
      <trkpt lat="59.9054325" lon="17.7185753">
        <ele>35.7061</ele>
        <time>2014-06-06T15:05:46Z</time>
      </trkpt>
      <trkpt lat="59.905391" lon="17.7185087">
        <ele>35.7061</ele>
        <time>2014-06-06T15:05:47Z</time>
      </trkpt>
      <trkpt lat="59.9053505" lon="17.7184401">
        <ele>35.7061</ele>
        <time>2014-06-06T15:05:48Z</time>
      </trkpt>
      <trkpt lat="59.9053098" lon="17.7183701">
        <ele>35.7061</ele>
        <time>2014-06-06T15:05:49Z</time>
      </trkpt>
      <trkpt lat="59.9052687" lon="17.7182982">
        <ele>35.7061</ele>
        <time>2014-06-06T15:05:50Z</time>
      </trkpt>
      <trkpt lat="59.905228" lon="17.718231">
        <ele>35.2255</ele>
        <time>2014-06-06T15:05:51Z</time>
      </trkpt>
      <trkpt lat="59.9051855" lon="17.7181685">
        <ele>35.2255</ele>
        <time>2014-06-06T15:05:52Z</time>
      </trkpt>
      <trkpt lat="59.9051429" lon="17.7181044">
        <ele>34.7449</ele>
        <time>2014-06-06T15:05:53Z</time>
      </trkpt>
      <trkpt lat="59.9051004" lon="17.7180318">
        <ele>34.7449</ele>
        <time>2014-06-06T15:05:54Z</time>
      </trkpt>
      <trkpt lat="59.9050617" lon="17.7179634">
        <ele>34.7449</ele>
        <time>2014-06-06T15:05:55Z</time>
      </trkpt>
      <trkpt lat="59.9050207" lon="17.7178957">
        <ele>35.2255</ele>
        <time>2014-06-06T15:05:56Z</time>
      </trkpt>
      <trkpt lat="59.9049777" lon="17.7178341">
        <ele>35.2255</ele>
        <time>2014-06-06T15:05:57Z</time>
      </trkpt>
      <trkpt lat="59.9049367" lon="17.7177681">
        <ele>35.7061</ele>
        <time>2014-06-06T15:05:58Z</time>
      </trkpt>
      <trkpt lat="59.9048942" lon="17.7176979">
        <ele>36.1868</ele>
        <time>2014-06-06T15:05:59Z</time>
      </trkpt>
      <trkpt lat="59.9048535" lon="17.7176283">
        <ele>36.6675</ele>
        <time>2014-06-06T15:06:00Z</time>
      </trkpt>
      <trkpt lat="59.9048152" lon="17.7175622">
        <ele>36.6675</ele>
        <time>2014-06-06T15:06:01Z</time>
      </trkpt>
      <trkpt lat="59.9047747" lon="17.7174916">
        <ele>37.1481</ele>
        <time>2014-06-06T15:06:02Z</time>
      </trkpt>
      <trkpt lat="59.904729" lon="17.7174177">
        <ele>38.1094</ele>
        <time>2014-06-06T15:06:03Z</time>
      </trkpt>
      <trkpt lat="59.9046897" lon="17.7173476">
        <ele>38.5901</ele>
        <time>2014-06-06T15:06:04Z</time>
      </trkpt>
      <trkpt lat="59.9046551" lon="17.7172845">
        <ele>38.5901</ele>
        <time>2014-06-06T15:06:05Z</time>
      </trkpt>
      <trkpt lat="59.9046187" lon="17.7172245">
        <ele>38.1094</ele>
        <time>2014-06-06T15:06:06Z</time>
      </trkpt>
      <trkpt lat="59.9045847" lon="17.7171725">
        <ele>37.6287</ele>
        <time>2014-06-06T15:06:07Z</time>
      </trkpt>
      <trkpt lat="59.9045483" lon="17.7171188">
        <ele>37.1481</ele>
        <time>2014-06-06T15:06:08Z</time>
      </trkpt>
      <trkpt lat="59.9045089" lon="17.7170662">
        <ele>36.6675</ele>
        <time>2014-06-06T15:06:09Z</time>
      </trkpt>
      <trkpt lat="59.9044648" lon="17.7170088">
        <ele>36.6675</ele>
        <time>2014-06-06T15:06:10Z</time>
      </trkpt>
      <trkpt lat="59.9044188" lon="17.7169569">
        <ele>36.1868</ele>
        <time>2014-06-06T15:06:11Z</time>
      </trkpt>
      <trkpt lat="59.9043671" lon="17.7169177">
        <ele>35.7061</ele>
        <time>2014-06-06T15:06:12Z</time>
      </trkpt>
      <trkpt lat="59.9043085" lon="17.7168871">
        <ele>35.2255</ele>
        <time>2014-06-06T15:06:13Z</time>
      </trkpt>
      <trkpt lat="59.9042473" lon="17.7168541">
        <ele>34.7449</ele>
        <time>2014-06-06T15:06:14Z</time>
      </trkpt>
      <trkpt lat="59.9041857" lon="17.7168095">
        <ele>34.2642</ele>
        <time>2014-06-06T15:06:15Z</time>
      </trkpt>
      <trkpt lat="59.9041273" lon="17.7167446">
        <ele>33.7834</ele>
        <time>2014-06-06T15:06:16Z</time>
      </trkpt>
      <trkpt lat="59.9040746" lon="17.7166585">
        <ele>33.7834</ele>
        <time>2014-06-06T15:06:17Z</time>
      </trkpt>
      <trkpt lat="59.9040237" lon="17.7165728">
        <ele>33.3029</ele>
        <time>2014-06-06T15:06:18Z</time>
      </trkpt>
      <trkpt lat="59.903968" lon="17.7165112">
        <ele>32.8223</ele>
        <time>2014-06-06T15:06:19Z</time>
      </trkpt>
      <trkpt lat="59.9039105" lon="17.7164764">
        <ele>32.3416</ele>
        <time>2014-06-06T15:06:20Z</time>
      </trkpt>
      <trkpt lat="59.9038638" lon="17.7164338">
        <ele>32.3416</ele>
        <time>2014-06-06T15:06:21Z</time>
      </trkpt>
      <trkpt lat="59.903836" lon="17.7163598">
        <ele>32.3416</ele>
        <time>2014-06-06T15:06:22Z</time>
      </trkpt>
      <trkpt lat="59.903819" lon="17.716263">
        <ele>31.8607</ele>
        <time>2014-06-06T15:06:23Z</time>
      </trkpt>
      <trkpt lat="59.9038397" lon="17.7161407">
        <ele>31.3801</ele>
        <time>2014-06-06T15:06:24Z</time>
      </trkpt>
      <trkpt lat="59.9038862" lon="17.7160748">
        <ele>31.3801</ele>
        <time>2014-06-06T15:06:25Z</time>
      </trkpt>
      <trkpt lat="59.9039443" lon="17.7160393">
        <ele>31.3801</ele>
        <time>2014-06-06T15:06:26Z</time>
      </trkpt>
      <trkpt lat="59.9039856" lon="17.7158916">
        <ele>30.8995</ele>
        <time>2014-06-06T15:06:27Z</time>
      </trkpt>
      <trkpt lat="59.9040246" lon="17.7158093">
        <ele>30.8995</ele>
        <time>2014-06-06T15:06:28Z</time>
      </trkpt>
      <trkpt lat="59.9040634" lon="17.715728">
        <ele>30.8995</ele>
        <time>2014-06-06T15:06:29Z</time>
      </trkpt>
      <trkpt lat="59.9041116" lon="17.7156541">
        <ele>30.8995</ele>
        <time>2014-06-06T15:06:30Z</time>
      </trkpt>
      <trkpt lat="59.9041547" lon="17.715587">
        <ele>31.3801</ele>
        <time>2014-06-06T15:06:31Z</time>
      </trkpt>
      <trkpt lat="59.9042043" lon="17.7155516">
        <ele>31.3801</ele>
        <time>2014-06-06T15:06:32Z</time>
      </trkpt>
      <trkpt lat="59.9042551" lon="17.7155368">
        <ele>31.3801</ele>
        <time>2014-06-06T15:06:33Z</time>
      </trkpt>
      <trkpt lat="59.9043053" lon="17.715532">
        <ele>31.3801</ele>
        <time>2014-06-06T15:06:34Z</time>
      </trkpt>
      <trkpt lat="59.9043554" lon="17.7155283">
        <ele>31.8607</ele>
        <time>2014-06-06T15:06:35Z</time>
      </trkpt>
      <trkpt lat="59.9044048" lon="17.7155202">
        <ele>31.8607</ele>
        <time>2014-06-06T15:06:36Z</time>
      </trkpt>
      <trkpt lat="59.9044503" lon="17.7154967">
        <ele>32.3416</ele>
        <time>2014-06-06T15:06:37Z</time>
      </trkpt>
      <trkpt lat="59.9044825" lon="17.7154317">
        <ele>32.3416</ele>
        <time>2014-06-06T15:06:38Z</time>
      </trkpt>
      <trkpt lat="59.9045101" lon="17.7153622">
        <ele>32.8223</ele>
        <time>2014-06-06T15:06:39Z</time>
      </trkpt>
      <trkpt lat="59.9045443" lon="17.715296">
        <ele>32.8223</ele>
        <time>2014-06-06T15:06:40Z</time>
      </trkpt>
      <trkpt lat="59.9045867" lon="17.7152677">
        <ele>33.3029</ele>
        <time>2014-06-06T15:06:41Z</time>
      </trkpt>
      <trkpt lat="59.9046278" lon="17.7152578">
        <ele>33.3029</ele>
        <time>2014-06-06T15:06:42Z</time>
      </trkpt>
      <trkpt lat="59.9046621" lon="17.715246">
        <ele>33.3029</ele>
        <time>2014-06-06T15:06:43Z</time>
      </trkpt>
      <trkpt lat="59.9047152" lon="17.7152488">
        <ele>33.7834</ele>
        <time>2014-06-06T15:06:44Z</time>
      </trkpt>
      <trkpt lat="59.9047698" lon="17.7152497">
        <ele>33.7834</ele>
        <time>2014-06-06T15:06:45Z</time>
      </trkpt>
      <trkpt lat="59.9048197" lon="17.7152481">
        <ele>34.2642</ele>
        <time>2014-06-06T15:06:46Z</time>
      </trkpt>
      <trkpt lat="59.9048673" lon="17.7152389">
        <ele>34.2642</ele>
        <time>2014-06-06T15:06:47Z</time>
      </trkpt>
      <trkpt lat="59.904913" lon="17.7152304">
        <ele>34.7449</ele>
        <time>2014-06-06T15:06:48Z</time>
      </trkpt>
      <trkpt lat="59.9049534" lon="17.7152314">
        <ele>34.7449</ele>
        <time>2014-06-06T15:06:49Z</time>
      </trkpt>
      <trkpt lat="59.9049913" lon="17.7152301">
        <ele>34.7449</ele>
        <time>2014-06-06T15:06:50Z</time>
      </trkpt>
      <trkpt lat="59.9050357" lon="17.7152217">
        <ele>34.7449</ele>
        <time>2014-06-06T15:06:51Z</time>
      </trkpt>
      <trkpt lat="59.9050829" lon="17.7152213">
        <ele>34.7449</ele>
        <time>2014-06-06T15:06:52Z</time>
      </trkpt>
      <trkpt lat="59.905129" lon="17.7152191">
        <ele>34.7449</ele>
        <time>2014-06-06T15:06:53Z</time>
      </trkpt>
      <trkpt lat="59.9051683" lon="17.7152108">
        <ele>35.2255</ele>
        <time>2014-06-06T15:06:54Z</time>
      </trkpt>
      <trkpt lat="59.9052099" lon="17.7152062">
        <ele>35.2255</ele>
        <time>2014-06-06T15:06:55Z</time>
      </trkpt>
      <trkpt lat="59.9052586" lon="17.7152006">
        <ele>36.6675</ele>
        <time>2014-06-06T15:06:56Z</time>
      </trkpt>
      <trkpt lat="59.9052968" lon="17.7152007">
        <ele>36.6675</ele>
        <time>2014-06-06T15:06:57Z</time>
      </trkpt>
      <trkpt lat="59.9053476" lon="17.7152006">
        <ele>37.6287</ele>
        <time>2014-06-06T15:06:58Z</time>
      </trkpt>
      <trkpt lat="59.9053963" lon="17.7151954">
        <ele>38.5901</ele>
        <time>2014-06-06T15:06:59Z</time>
      </trkpt>
      <trkpt lat="59.9054356" lon="17.7151929">
        <ele>39.0707</ele>
        <time>2014-06-06T15:07:00Z</time>
      </trkpt>
      <trkpt lat="59.9054736" lon="17.715192">
        <ele>39.0707</ele>
        <time>2014-06-06T15:07:01Z</time>
      </trkpt>
      <trkpt lat="59.9055139" lon="17.7151901">
        <ele>39.5513</ele>
        <time>2014-06-06T15:07:02Z</time>
      </trkpt>
      <trkpt lat="59.9055532" lon="17.7151856">
        <ele>40.0321</ele>
        <time>2014-06-06T15:07:03Z</time>
      </trkpt>
      <trkpt lat="59.9055893" lon="17.7151799">
        <ele>40.0321</ele>
        <time>2014-06-06T15:07:04Z</time>
      </trkpt>
      <trkpt lat="59.9056235" lon="17.715177">
        <ele>39.5513</ele>
        <time>2014-06-06T15:07:05Z</time>
      </trkpt>
      <trkpt lat="59.9056592" lon="17.7151695">
        <ele>39.5513</ele>
        <time>2014-06-06T15:07:06Z</time>
      </trkpt>
      <trkpt lat="59.9056927" lon="17.7151654">
        <ele>39.5513</ele>
        <time>2014-06-06T15:07:07Z</time>
      </trkpt>
      <trkpt lat="59.9057234" lon="17.7151662">
        <ele>39.5513</ele>
        <time>2014-06-06T15:07:08Z</time>
      </trkpt>
      <trkpt lat="59.9057609" lon="17.7151644">
        <ele>40.5128</ele>
        <time>2014-06-06T15:07:09Z</time>
      </trkpt>
      <trkpt lat="59.9058014" lon="17.7151604">
        <ele>40.9934</ele>
        <time>2014-06-06T15:07:10Z</time>
      </trkpt>
      <trkpt lat="59.9058366" lon="17.7151559">
        <ele>40.9934</ele>
        <time>2014-06-06T15:07:11Z</time>
      </trkpt>
      <trkpt lat="59.905875" lon="17.7151504">
        <ele>40.9934</ele>
        <time>2014-06-06T15:07:12Z</time>
      </trkpt>
      <trkpt lat="59.9059099" lon="17.7151508">
        <ele>40.9934</ele>
        <time>2014-06-06T15:07:13Z</time>
      </trkpt>
      <trkpt lat="59.9059515" lon="17.7151539">
        <ele>40.9934</ele>
        <time>2014-06-06T15:07:14Z</time>
      </trkpt>
      <trkpt lat="59.9059925" lon="17.7151622">
        <ele>40.9934</ele>
        <time>2014-06-06T15:07:15Z</time>
      </trkpt>
      <trkpt lat="59.9060364" lon="17.7151622">
        <ele>40.9934</ele>
        <time>2014-06-06T15:07:16Z</time>
      </trkpt>
      <trkpt lat="59.9060759" lon="17.7151539">
        <ele>40.9934</ele>
        <time>2014-06-06T15:07:17Z</time>
      </trkpt>
      <trkpt lat="59.9061173" lon="17.7151463">
        <ele>40.5128</ele>
        <time>2014-06-06T15:07:18Z</time>
      </trkpt>
      <trkpt lat="59.9061619" lon="17.7151383">
        <ele>40.9934</ele>
        <time>2014-06-06T15:07:19Z</time>
      </trkpt>
      <trkpt lat="59.9062044" lon="17.7151264">
        <ele>40.9934</ele>
        <time>2014-06-06T15:07:20Z</time>
      </trkpt>
      <trkpt lat="59.9062457" lon="17.7151068">
        <ele>40.9934</ele>
        <time>2014-06-06T15:07:21Z</time>
      </trkpt>
      <trkpt lat="59.9062834" lon="17.7150748">
        <ele>41.474</ele>
        <time>2014-06-06T15:07:22Z</time>
      </trkpt>
      <trkpt lat="59.9063169" lon="17.7150317">
        <ele>41.474</ele>
        <time>2014-06-06T15:07:23Z</time>
      </trkpt>
      <trkpt lat="59.9063489" lon="17.7149856">
        <ele>41.474</ele>
        <time>2014-06-06T15:07:24Z</time>
      </trkpt>
      <trkpt lat="59.9063785" lon="17.714929">
        <ele>41.9547</ele>
        <time>2014-06-06T15:07:25Z</time>
      </trkpt>
      <trkpt lat="59.9064048" lon="17.7148639">
        <ele>41.474</ele>
        <time>2014-06-06T15:07:26Z</time>
      </trkpt>
      <trkpt lat="59.9064281" lon="17.7147894">
        <ele>41.474</ele>
        <time>2014-06-06T15:07:27Z</time>
      </trkpt>
      <trkpt lat="59.9064452" lon="17.7147065">
        <ele>41.474</ele>
        <time>2014-06-06T15:07:28Z</time>
      </trkpt>
      <trkpt lat="59.9064571" lon="17.7146173">
        <ele>41.474</ele>
        <time>2014-06-06T15:07:29Z</time>
      </trkpt>
      <trkpt lat="59.9064673" lon="17.7145288">
        <ele>41.474</ele>
        <time>2014-06-06T15:07:30Z</time>
      </trkpt>
      <trkpt lat="59.9064759" lon="17.7144423">
        <ele>41.474</ele>
        <time>2014-06-06T15:07:31Z</time>
      </trkpt>
      <trkpt lat="59.9064858" lon="17.7143588">
        <ele>41.474</ele>
        <time>2014-06-06T15:07:32Z</time>
      </trkpt>
      <trkpt lat="59.9065015" lon="17.7142796">
        <ele>41.474</ele>
        <time>2014-06-06T15:07:33Z</time>
      </trkpt>
      <trkpt lat="59.9065265" lon="17.7142116">
        <ele>41.474</ele>
        <time>2014-06-06T15:07:34Z</time>
      </trkpt>
      <trkpt lat="59.9065567" lon="17.7141674">
        <ele>40.9934</ele>
        <time>2014-06-06T15:07:35Z</time>
      </trkpt>
      <trkpt lat="59.9065908" lon="17.7141464">
        <ele>40.9934</ele>
        <time>2014-06-06T15:07:36Z</time>
      </trkpt>
      <trkpt lat="59.906626" lon="17.7141455">
        <ele>41.474</ele>
        <time>2014-06-06T15:07:37Z</time>
      </trkpt>
      <trkpt lat="59.9066608" lon="17.7141547">
        <ele>41.474</ele>
        <time>2014-06-06T15:07:38Z</time>
      </trkpt>
      <trkpt lat="59.9066968" lon="17.714171">
        <ele>41.474</ele>
        <time>2014-06-06T15:07:39Z</time>
      </trkpt>
      <trkpt lat="59.9067269" lon="17.7141971">
        <ele>41.474</ele>
        <time>2014-06-06T15:07:40Z</time>
      </trkpt>
      <trkpt lat="59.9067572" lon="17.7142335">
        <ele>41.474</ele>
        <time>2014-06-06T15:07:41Z</time>
      </trkpt>
      <trkpt lat="59.9067908" lon="17.7142667">
        <ele>41.474</ele>
        <time>2014-06-06T15:07:42Z</time>
      </trkpt>
      <trkpt lat="59.9068286" lon="17.7142848">
        <ele>41.474</ele>
        <time>2014-06-06T15:07:43Z</time>
      </trkpt>
      <trkpt lat="59.9068677" lon="17.7142806">
        <ele>41.9547</ele>
        <time>2014-06-06T15:07:44Z</time>
      </trkpt>
      <trkpt lat="59.9069058" lon="17.7142555">
        <ele>41.9547</ele>
        <time>2014-06-06T15:07:45Z</time>
      </trkpt>
      <trkpt lat="59.9069392" lon="17.7142122">
        <ele>41.9547</ele>
        <time>2014-06-06T15:07:46Z</time>
      </trkpt>
      <trkpt lat="59.9069722" lon="17.7141538">
        <ele>41.474</ele>
        <time>2014-06-06T15:07:47Z</time>
      </trkpt>
      <trkpt lat="59.9070056" lon="17.7140856">
        <ele>41.474</ele>
        <time>2014-06-06T15:07:48Z</time>
      </trkpt>
      <trkpt lat="59.9070269" lon="17.7140081">
        <ele>41.474</ele>
        <time>2014-06-06T15:07:49Z</time>
      </trkpt>
      <trkpt lat="59.907038" lon="17.7139294">
        <ele>41.474</ele>
        <time>2014-06-06T15:07:50Z</time>
      </trkpt>
      <trkpt lat="59.9070501" lon="17.713861">
        <ele>41.474</ele>
        <time>2014-06-06T15:07:51Z</time>
      </trkpt>
      <trkpt lat="59.9070644" lon="17.7137884">
        <ele>41.474</ele>
        <time>2014-06-06T15:07:52Z</time>
      </trkpt>
      <trkpt lat="59.9070891" lon="17.7137254">
        <ele>40.9934</ele>
        <time>2014-06-06T15:07:53Z</time>
      </trkpt>
      <trkpt lat="59.9071269" lon="17.7136763">
        <ele>41.474</ele>
        <time>2014-06-06T15:07:54Z</time>
      </trkpt>
      <trkpt lat="59.9071667" lon="17.713634">
        <ele>41.474</ele>
        <time>2014-06-06T15:07:55Z</time>
      </trkpt>
      <trkpt lat="59.9072083" lon="17.7136003">
        <ele>41.474</ele>
        <time>2014-06-06T15:07:56Z</time>
      </trkpt>
      <trkpt lat="59.9072516" lon="17.7135736">
        <ele>41.474</ele>
        <time>2014-06-06T15:07:57Z</time>
      </trkpt>
      <trkpt lat="59.9072948" lon="17.7135533">
        <ele>41.474</ele>
        <time>2014-06-06T15:07:58Z</time>
      </trkpt>
      <trkpt lat="59.9073393" lon="17.7135382">
        <ele>41.474</ele>
        <time>2014-06-06T15:07:59Z</time>
      </trkpt>
      <trkpt lat="59.9073855" lon="17.7135273">
        <ele>41.474</ele>
        <time>2014-06-06T15:08:00Z</time>
      </trkpt>
      <trkpt lat="59.9074337" lon="17.7135211">
        <ele>41.474</ele>
        <time>2014-06-06T15:08:01Z</time>
      </trkpt>
      <trkpt lat="59.9074833" lon="17.7135204">
        <ele>40.9934</ele>
        <time>2014-06-06T15:08:02Z</time>
      </trkpt>
      <trkpt lat="59.9075336" lon="17.7135268">
        <ele>40.9934</ele>
        <time>2014-06-06T15:08:03Z</time>
      </trkpt>
      <trkpt lat="59.9075836" lon="17.7135403">
        <ele>40.9934</ele>
        <time>2014-06-06T15:08:04Z</time>
      </trkpt>
      <trkpt lat="59.907634" lon="17.7135574">
        <ele>40.9934</ele>
        <time>2014-06-06T15:08:05Z</time>
      </trkpt>
      <trkpt lat="59.9076846" lon="17.7135792">
        <ele>40.9934</ele>
        <time>2014-06-06T15:08:06Z</time>
      </trkpt>
      <trkpt lat="59.9077325" lon="17.7136129">
        <ele>40.5128</ele>
        <time>2014-06-06T15:08:07Z</time>
      </trkpt>
      <trkpt lat="59.9077786" lon="17.7136427">
        <ele>40.5128</ele>
        <time>2014-06-06T15:08:08Z</time>
      </trkpt>
      <trkpt lat="59.9078231" lon="17.7136444">
        <ele>40.5128</ele>
        <time>2014-06-06T15:08:09Z</time>
      </trkpt>
      <trkpt lat="59.9078652" lon="17.7136148">
        <ele>40.5128</ele>
        <time>2014-06-06T15:08:10Z</time>
      </trkpt>
      <trkpt lat="59.9078987" lon="17.7135437">
        <ele>40.5128</ele>
        <time>2014-06-06T15:08:11Z</time>
      </trkpt>
      <trkpt lat="59.9079277" lon="17.7134662">
        <ele>40.0321</ele>
        <time>2014-06-06T15:08:12Z</time>
      </trkpt>
      <trkpt lat="59.9079516" lon="17.7133738">
        <ele>40.0321</ele>
        <time>2014-06-06T15:08:13Z</time>
      </trkpt>
      <trkpt lat="59.9079743" lon="17.7132821">
        <ele>40.5128</ele>
        <time>2014-06-06T15:08:14Z</time>
      </trkpt>
      <trkpt lat="59.9079944" lon="17.7131871">
        <ele>40.5128</ele>
        <time>2014-06-06T15:08:15Z</time>
      </trkpt>
      <trkpt lat="59.9080112" lon="17.7130984">
        <ele>40.9934</ele>
        <time>2014-06-06T15:08:16Z</time>
      </trkpt>
      <trkpt lat="59.9080299" lon="17.7129962">
        <ele>41.474</ele>
        <time>2014-06-06T15:08:17Z</time>
      </trkpt>
      <trkpt lat="59.908053" lon="17.7129124">
        <ele>41.474</ele>
        <time>2014-06-06T15:08:18Z</time>
      </trkpt>
      <trkpt lat="59.9080846" lon="17.7128251">
        <ele>41.474</ele>
        <time>2014-06-06T15:08:19Z</time>
      </trkpt>
      <trkpt lat="59.9081086" lon="17.7127242">
        <ele>42.4354</ele>
        <time>2014-06-06T15:08:20Z</time>
      </trkpt>
      <trkpt lat="59.9081386" lon="17.7126351">
        <ele>41.9547</ele>
        <time>2014-06-06T15:08:21Z</time>
      </trkpt>
      <trkpt lat="59.9082083" lon="17.712466">
        <ele>41.9547</ele>
        <time>2014-06-06T15:08:22Z</time>
      </trkpt>
      <trkpt lat="59.9082403" lon="17.7123971">
        <ele>41.474</ele>
        <time>2014-06-06T15:08:23Z</time>
      </trkpt>
      <trkpt lat="59.9082842" lon="17.7123578">
        <ele>41.474</ele>
        <time>2014-06-06T15:08:24Z</time>
      </trkpt>
      <trkpt lat="59.9083292" lon="17.7123421">
        <ele>41.474</ele>
        <time>2014-06-06T15:08:25Z</time>
      </trkpt>
      <trkpt lat="59.9083692" lon="17.7123611">
        <ele>40.9934</ele>
        <time>2014-06-06T15:08:26Z</time>
      </trkpt>
      <trkpt lat="59.9084105" lon="17.7123816">
        <ele>40.9934</ele>
        <time>2014-06-06T15:08:27Z</time>
      </trkpt>
      <trkpt lat="59.9084427" lon="17.7123728">
        <ele>40.5128</ele>
        <time>2014-06-06T15:08:28Z</time>
      </trkpt>
      <trkpt lat="59.9084608" lon="17.7123389">
        <ele>40.5128</ele>
        <time>2014-06-06T15:08:29Z</time>
      </trkpt>
      <trkpt lat="59.9084647" lon="17.7122953">
        <ele>40.0321</ele>
        <time>2014-06-06T15:08:30Z</time>
      </trkpt>
      <trkpt lat="59.9084611" lon="17.7122437">
        <ele>40.0321</ele>
        <time>2014-06-06T15:08:31Z</time>
      </trkpt>
      <trkpt lat="59.9084521" lon="17.7121837">
        <ele>39.5513</ele>
        <time>2014-06-06T15:08:32Z</time>
      </trkpt>
      <trkpt lat="59.9084435" lon="17.7121219">
        <ele>39.5513</ele>
        <time>2014-06-06T15:08:33Z</time>
      </trkpt>
      <trkpt lat="59.9084368" lon="17.7120598">
        <ele>40.0321</ele>
        <time>2014-06-06T15:08:34Z</time>
      </trkpt>
      <trkpt lat="59.9084313" lon="17.7120032">
        <ele>40.0321</ele>
        <time>2014-06-06T15:08:35Z</time>
      </trkpt>
      <trkpt lat="59.9084308" lon="17.7119455">
        <ele>40.0321</ele>
        <time>2014-06-06T15:08:36Z</time>
      </trkpt>
      <trkpt lat="59.9084309" lon="17.7118853">
        <ele>40.0321</ele>
        <time>2014-06-06T15:08:37Z</time>
      </trkpt>
      <trkpt lat="59.9084266" lon="17.7118269">
        <ele>39.5513</ele>
        <time>2014-06-06T15:08:38Z</time>
      </trkpt>
      <trkpt lat="59.9084168" lon="17.7117675">
        <ele>40.0321</ele>
        <time>2014-06-06T15:08:39Z</time>
      </trkpt>
      <trkpt lat="59.9084067" lon="17.7117041">
        <ele>40.0321</ele>
        <time>2014-06-06T15:08:40Z</time>
      </trkpt>
      <trkpt lat="59.9084002" lon="17.7116413">
        <ele>40.5128</ele>
        <time>2014-06-06T15:08:41Z</time>
      </trkpt>
      <trkpt lat="59.9083971" lon="17.7115824">
        <ele>40.5128</ele>
        <time>2014-06-06T15:08:42Z</time>
      </trkpt>
      <trkpt lat="59.9083993" lon="17.7115175">
        <ele>40.5128</ele>
        <time>2014-06-06T15:08:43Z</time>
      </trkpt>
      <trkpt lat="59.9084047" lon="17.7114461">
        <ele>40.9934</ele>
        <time>2014-06-06T15:08:44Z</time>
      </trkpt>
      <trkpt lat="59.9084135" lon="17.7113699">
        <ele>40.9934</ele>
        <time>2014-06-06T15:08:45Z</time>
      </trkpt>
      <trkpt lat="59.9084312" lon="17.7112963">
        <ele>40.5128</ele>
        <time>2014-06-06T15:08:46Z</time>
      </trkpt>
      <trkpt lat="59.9084544" lon="17.7112231">
        <ele>40.5128</ele>
        <time>2014-06-06T15:08:47Z</time>
      </trkpt>
      <trkpt lat="59.9084809" lon="17.7111491">
        <ele>40.5128</ele>
        <time>2014-06-06T15:08:48Z</time>
      </trkpt>
      <trkpt lat="59.9085088" lon="17.7110767">
        <ele>40.5128</ele>
        <time>2014-06-06T15:08:49Z</time>
      </trkpt>
      <trkpt lat="59.9085332" lon="17.7110149">
        <ele>40.0321</ele>
        <time>2014-06-06T15:08:50Z</time>
      </trkpt>
      <trkpt lat="59.908558" lon="17.7109601">
        <ele>40.0321</ele>
        <time>2014-06-06T15:08:51Z</time>
      </trkpt>
      <trkpt lat="59.9085851" lon="17.7109099">
        <ele>40.0321</ele>
        <time>2014-06-06T15:08:52Z</time>
      </trkpt>
      <trkpt lat="59.9086167" lon="17.7108601">
        <ele>40.5128</ele>
        <time>2014-06-06T15:08:53Z</time>
      </trkpt>
      <trkpt lat="59.9086388" lon="17.7108193">
        <ele>40.5128</ele>
        <time>2014-06-06T15:08:54Z</time>
      </trkpt>
      <trkpt lat="59.9086597" lon="17.7107761">
        <ele>40.5128</ele>
        <time>2014-06-06T15:08:55Z</time>
      </trkpt>
      <trkpt lat="59.9086837" lon="17.7107332">
        <ele>40.9934</ele>
        <time>2014-06-06T15:08:56Z</time>
      </trkpt>
      <trkpt lat="59.9087093" lon="17.7106908">
        <ele>40.9934</ele>
        <time>2014-06-06T15:08:57Z</time>
      </trkpt>
      <trkpt lat="59.9087355" lon="17.710654">
        <ele>41.474</ele>
        <time>2014-06-06T15:08:58Z</time>
      </trkpt>
      <trkpt lat="59.9087609" lon="17.710623">
        <ele>41.9547</ele>
        <time>2014-06-06T15:08:59Z</time>
      </trkpt>
      <trkpt lat="59.9087789" lon="17.7105994">
        <ele>41.9547</ele>
        <time>2014-06-06T15:09:00Z</time>
      </trkpt>
      <trkpt lat="59.9087991" lon="17.7105736">
        <ele>41.9547</ele>
        <time>2014-06-06T15:09:01Z</time>
      </trkpt>
      <trkpt lat="59.9088184" lon="17.7105524">
        <ele>41.9547</ele>
        <time>2014-06-06T15:09:02Z</time>
      </trkpt>
      <trkpt lat="59.9088379" lon="17.7105349">
        <ele>41.9547</ele>
        <time>2014-06-06T15:09:03Z</time>
      </trkpt>
      <trkpt lat="59.9088631" lon="17.7105183">
        <ele>42.4354</ele>
        <time>2014-06-06T15:09:04Z</time>
      </trkpt>
      <trkpt lat="59.9088923" lon="17.7104913">
        <ele>42.4354</ele>
        <time>2014-06-06T15:09:05Z</time>
      </trkpt>
      <trkpt lat="59.9089255" lon="17.7104497">
        <ele>42.4354</ele>
        <time>2014-06-06T15:09:06Z</time>
      </trkpt>
      <trkpt lat="59.9089639" lon="17.7103872">
        <ele>41.9547</ele>
        <time>2014-06-06T15:09:07Z</time>
      </trkpt>
      <trkpt lat="59.9090009" lon="17.7103178">
        <ele>41.474</ele>
        <time>2014-06-06T15:09:08Z</time>
      </trkpt>
      <trkpt lat="59.9090385" lon="17.7102468">
        <ele>41.474</ele>
        <time>2014-06-06T15:09:09Z</time>
      </trkpt>
      <trkpt lat="59.909074" lon="17.7101836">
        <ele>41.474</ele>
        <time>2014-06-06T15:09:10Z</time>
      </trkpt>
      <trkpt lat="59.9091141" lon="17.7101257">
        <ele>41.474</ele>
        <time>2014-06-06T15:09:11Z</time>
      </trkpt>
      <trkpt lat="59.9091498" lon="17.7100637">
        <ele>41.474</ele>
        <time>2014-06-06T15:09:12Z</time>
      </trkpt>
      <trkpt lat="59.909186" lon="17.7100058">
        <ele>41.474</ele>
        <time>2014-06-06T15:09:13Z</time>
      </trkpt>
      <trkpt lat="59.9092185" lon="17.7099539">
        <ele>41.474</ele>
        <time>2014-06-06T15:09:14Z</time>
      </trkpt>
      <trkpt lat="59.909244" lon="17.7099136">
        <ele>40.9934</ele>
        <time>2014-06-06T15:09:15Z</time>
      </trkpt>
      <trkpt lat="59.9092715" lon="17.7098639">
        <ele>41.474</ele>
        <time>2014-06-06T15:09:16Z</time>
      </trkpt>
      <trkpt lat="59.9093046" lon="17.7098225">
        <ele>41.474</ele>
        <time>2014-06-06T15:09:17Z</time>
      </trkpt>
      <trkpt lat="59.9093331" lon="17.7097863">
        <ele>41.9547</ele>
        <time>2014-06-06T15:09:18Z</time>
      </trkpt>
      <trkpt lat="59.9093596" lon="17.7097506">
        <ele>42.4354</ele>
        <time>2014-06-06T15:09:19Z</time>
      </trkpt>
      <trkpt lat="59.9093876" lon="17.7097203">
        <ele>42.4354</ele>
        <time>2014-06-06T15:09:20Z</time>
      </trkpt>
      <trkpt lat="59.909415" lon="17.7096873">
        <ele>42.916</ele>
        <time>2014-06-06T15:09:21Z</time>
      </trkpt>
      <trkpt lat="59.9094378" lon="17.7096619">
        <ele>43.3966</ele>
        <time>2014-06-06T15:09:22Z</time>
      </trkpt>
      <trkpt lat="59.9094576" lon="17.7096352">
        <ele>43.3966</ele>
        <time>2014-06-06T15:09:23Z</time>
      </trkpt>
      <trkpt lat="59.9094791" lon="17.7095899">
        <ele>43.8773</ele>
        <time>2014-06-06T15:09:24Z</time>
      </trkpt>
      <trkpt lat="59.9095091" lon="17.7095418">
        <ele>44.358</ele>
        <time>2014-06-06T15:09:25Z</time>
      </trkpt>
      <trkpt lat="59.909535" lon="17.709494">
        <ele>44.358</ele>
        <time>2014-06-06T15:09:26Z</time>
      </trkpt>
      <trkpt lat="59.9095557" lon="17.7094475">
        <ele>44.8386</ele>
        <time>2014-06-06T15:09:27Z</time>
      </trkpt>
      <trkpt lat="59.9095793" lon="17.7093919">
        <ele>45.3192</ele>
        <time>2014-06-06T15:09:28Z</time>
      </trkpt>
      <trkpt lat="59.9096045" lon="17.7093285">
        <ele>45.7999</ele>
        <time>2014-06-06T15:09:29Z</time>
      </trkpt>
      <trkpt lat="59.9096335" lon="17.7092912">
        <ele>45.7999</ele>
        <time>2014-06-06T15:09:30Z</time>
      </trkpt>
      <trkpt lat="59.9096642" lon="17.7092634">
        <ele>45.7999</ele>
        <time>2014-06-06T15:09:31Z</time>
      </trkpt>
      <trkpt lat="59.909695" lon="17.7092456">
        <ele>45.3192</ele>
        <time>2014-06-06T15:09:32Z</time>
      </trkpt>
      <trkpt lat="59.9097288" lon="17.7092327">
        <ele>45.7999</ele>
        <time>2014-06-06T15:09:33Z</time>
      </trkpt>
      <trkpt lat="59.9097577" lon="17.709216">
        <ele>46.2806</ele>
        <time>2014-06-06T15:09:34Z</time>
      </trkpt>
      <trkpt lat="59.9097909" lon="17.7092046">
        <ele>47.7225</ele>
        <time>2014-06-06T15:09:35Z</time>
      </trkpt>
      <trkpt lat="59.9098175" lon="17.7091932">
        <ele>47.7225</ele>
        <time>2014-06-06T15:09:36Z</time>
      </trkpt>
      <trkpt lat="59.909839" lon="17.7091807">
        <ele>47.7225</ele>
        <time>2014-06-06T15:09:37Z</time>
      </trkpt>
      <trkpt lat="59.9098599" lon="17.7091707">
        <ele>47.7225</ele>
        <time>2014-06-06T15:09:38Z</time>
      </trkpt>
      <trkpt lat="59.9098817" lon="17.7091605">
        <ele>48.2034</ele>
        <time>2014-06-06T15:09:39Z</time>
      </trkpt>
      <trkpt lat="59.909901" lon="17.7091521">
        <ele>48.684</ele>
        <time>2014-06-06T15:09:40Z</time>
      </trkpt>
      <trkpt lat="59.909919" lon="17.7091417">
        <ele>48.684</ele>
        <time>2014-06-06T15:09:41Z</time>
      </trkpt>
      <trkpt lat="59.9099344" lon="17.7091314">
        <ele>48.684</ele>
        <time>2014-06-06T15:09:42Z</time>
      </trkpt>
      <trkpt lat="59.9099579" lon="17.7091258">
        <ele>49.1646</ele>
        <time>2014-06-06T15:09:43Z</time>
      </trkpt>
      <trkpt lat="59.9099775" lon="17.7091199">
        <ele>49.1646</ele>
        <time>2014-06-06T15:09:44Z</time>
      </trkpt>
      <trkpt lat="59.909995" lon="17.7091096">
        <ele>49.1646</ele>
        <time>2014-06-06T15:09:45Z</time>
      </trkpt>
      <trkpt lat="59.9100128" lon="17.7091004">
        <ele>49.1646</ele>
        <time>2014-06-06T15:09:46Z</time>
      </trkpt>
      <trkpt lat="59.9100314" lon="17.7090923">
        <ele>49.1646</ele>
        <time>2014-06-06T15:09:47Z</time>
      </trkpt>
      <trkpt lat="59.9100506" lon="17.7090816">
        <ele>49.1646</ele>
        <time>2014-06-06T15:09:48Z</time>
      </trkpt>
      <trkpt lat="59.9100691" lon="17.7090729">
        <ele>49.6453</ele>
        <time>2014-06-06T15:09:49Z</time>
      </trkpt>
      <trkpt lat="59.9100866" lon="17.7090655">
        <ele>49.6453</ele>
        <time>2014-06-06T15:09:50Z</time>
      </trkpt>
      <trkpt lat="59.9101034" lon="17.7090591">
        <ele>50.126</ele>
        <time>2014-06-06T15:09:51Z</time>
      </trkpt>
      <trkpt lat="59.9101213" lon="17.7090559">
        <ele>50.6066</ele>
        <time>2014-06-06T15:09:52Z</time>
      </trkpt>
      <trkpt lat="59.9101367" lon="17.7090544">
        <ele>51.0872</ele>
        <time>2014-06-06T15:09:53Z</time>
      </trkpt>
      <trkpt lat="59.9101541" lon="17.7090496">
        <ele>51.5679</ele>
        <time>2014-06-06T15:09:54Z</time>
      </trkpt>
      <trkpt lat="59.9101723" lon="17.7090443">
        <ele>51.5679</ele>
        <time>2014-06-06T15:09:55Z</time>
      </trkpt>
      <trkpt lat="59.9101871" lon="17.7090348">
        <ele>51.5679</ele>
        <time>2014-06-06T15:09:56Z</time>
      </trkpt>
      <trkpt lat="59.9102013" lon="17.7090283">
        <ele>51.5679</ele>
        <time>2014-06-06T15:09:57Z</time>
      </trkpt>
      <trkpt lat="59.9102174" lon="17.7090285">
        <ele>52.0486</ele>
        <time>2014-06-06T15:09:58Z</time>
      </trkpt>
      <trkpt lat="59.9102323" lon="17.709029">
        <ele>52.0486</ele>
        <time>2014-06-06T15:09:59Z</time>
      </trkpt>
      <trkpt lat="59.910247" lon="17.7090293">
        <ele>52.5292</ele>
        <time>2014-06-06T15:10:00Z</time>
      </trkpt>
      <trkpt lat="59.9102635" lon="17.7090299">
        <ele>52.5292</ele>
        <time>2014-06-06T15:10:01Z</time>
      </trkpt>
      <trkpt lat="59.9102805" lon="17.7090324">
        <ele>53.0098</ele>
        <time>2014-06-06T15:10:02Z</time>
      </trkpt>
      <trkpt lat="59.9102971" lon="17.7090389">
        <ele>53.0098</ele>
        <time>2014-06-06T15:10:03Z</time>
      </trkpt>
      <trkpt lat="59.9103113" lon="17.7090527">
        <ele>53.4905</ele>
        <time>2014-06-06T15:10:04Z</time>
      </trkpt>
      <trkpt lat="59.9103237" lon="17.7090668">
        <ele>53.4905</ele>
        <time>2014-06-06T15:10:05Z</time>
      </trkpt>
      <trkpt lat="59.9103361" lon="17.7090813">
        <ele>53.4905</ele>
        <time>2014-06-06T15:10:06Z</time>
      </trkpt>
      <trkpt lat="59.9103478" lon="17.7090993">
        <ele>53.9712</ele>
        <time>2014-06-06T15:10:07Z</time>
      </trkpt>
      <trkpt lat="59.9103588" lon="17.7091201">
        <ele>53.9712</ele>
        <time>2014-06-06T15:10:08Z</time>
      </trkpt>
      <trkpt lat="59.9103736" lon="17.7091403">
        <ele>54.4518</ele>
        <time>2014-06-06T15:10:09Z</time>
      </trkpt>
      <trkpt lat="59.910391" lon="17.7091617">
        <ele>54.9324</ele>
        <time>2014-06-06T15:10:10Z</time>
      </trkpt>
      <trkpt lat="59.9104099" lon="17.7091772">
        <ele>54.9324</ele>
        <time>2014-06-06T15:10:11Z</time>
      </trkpt>
      <trkpt lat="59.9104282" lon="17.7091875">
        <ele>54.9324</ele>
        <time>2014-06-06T15:10:12Z</time>
      </trkpt>
      <trkpt lat="59.9104453" lon="17.7092047">
        <ele>55.4131</ele>
        <time>2014-06-06T15:10:13Z</time>
      </trkpt>
      <trkpt lat="59.9104672" lon="17.7092187">
        <ele>55.4131</ele>
        <time>2014-06-06T15:10:14Z</time>
      </trkpt>
      <trkpt lat="59.9104897" lon="17.7092232">
        <ele>55.4131</ele>
        <time>2014-06-06T15:10:15Z</time>
      </trkpt>
      <trkpt lat="59.9105119" lon="17.7092182">
        <ele>55.4131</ele>
        <time>2014-06-06T15:10:16Z</time>
      </trkpt>
      <trkpt lat="59.9105363" lon="17.7092103">
        <ele>55.8938</ele>
        <time>2014-06-06T15:10:17Z</time>
      </trkpt>
      <trkpt lat="59.9105576" lon="17.7091969">
        <ele>55.8938</ele>
        <time>2014-06-06T15:10:18Z</time>
      </trkpt>
      <trkpt lat="59.9105794" lon="17.7091834">
        <ele>56.3745</ele>
        <time>2014-06-06T15:10:19Z</time>
      </trkpt>
      <trkpt lat="59.9106018" lon="17.7091678">
        <ele>56.3745</ele>
        <time>2014-06-06T15:10:20Z</time>
      </trkpt>
      <trkpt lat="59.9106262" lon="17.7091528">
        <ele>56.3745</ele>
        <time>2014-06-06T15:10:21Z</time>
      </trkpt>
      <trkpt lat="59.9106489" lon="17.7091424">
        <ele>56.3745</ele>
        <time>2014-06-06T15:10:22Z</time>
      </trkpt>
      <trkpt lat="59.910672" lon="17.7091399">
        <ele>56.3745</ele>
        <time>2014-06-06T15:10:23Z</time>
      </trkpt>
      <trkpt lat="59.910694" lon="17.7091474">
        <ele>56.3745</ele>
        <time>2014-06-06T15:10:24Z</time>
      </trkpt>
      <trkpt lat="59.9107173" lon="17.7091674">
        <ele>56.8551</ele>
        <time>2014-06-06T15:10:25Z</time>
      </trkpt>
      <trkpt lat="59.910737" lon="17.7092037">
        <ele>56.3745</ele>
        <time>2014-06-06T15:10:26Z</time>
      </trkpt>
      <trkpt lat="59.9107659" lon="17.709248">
        <ele>55.8938</ele>
        <time>2014-06-06T15:10:27Z</time>
      </trkpt>
      <trkpt lat="59.9107992" lon="17.7092937">
        <ele>55.4131</ele>
        <time>2014-06-06T15:10:28Z</time>
      </trkpt>
      <trkpt lat="59.9108373" lon="17.7093391">
        <ele>55.4131</ele>
        <time>2014-06-06T15:10:29Z</time>
      </trkpt>
      <trkpt lat="59.9108821" lon="17.7093759">
        <ele>55.4131</ele>
        <time>2014-06-06T15:10:30Z</time>
      </trkpt>
      <trkpt lat="59.9109292" lon="17.7094018">
        <ele>54.9324</ele>
        <time>2014-06-06T15:10:31Z</time>
      </trkpt>
      <trkpt lat="59.9109803" lon="17.709407">
        <ele>54.4518</ele>
        <time>2014-06-06T15:10:32Z</time>
      </trkpt>
      <trkpt lat="59.9110346" lon="17.7093992">
        <ele>54.4518</ele>
        <time>2014-06-06T15:10:33Z</time>
      </trkpt>
      <trkpt lat="59.9110834" lon="17.7093849">
        <ele>54.4518</ele>
        <time>2014-06-06T15:10:34Z</time>
      </trkpt>
      <trkpt lat="59.9111286" lon="17.7094017">
        <ele>53.9712</ele>
        <time>2014-06-06T15:10:35Z</time>
      </trkpt>
      <trkpt lat="59.9111817" lon="17.709417">
        <ele>53.4905</ele>
        <time>2014-06-06T15:10:36Z</time>
      </trkpt>
      <trkpt lat="59.9112314" lon="17.7094496">
        <ele>53.9712</ele>
        <time>2014-06-06T15:10:37Z</time>
      </trkpt>
      <trkpt lat="59.9112825" lon="17.7094874">
        <ele>54.9324</ele>
        <time>2014-06-06T15:10:38Z</time>
      </trkpt>
      <trkpt lat="59.9113258" lon="17.7095184">
        <ele>54.9324</ele>
        <time>2014-06-06T15:10:39Z</time>
      </trkpt>
      <trkpt lat="59.9113632" lon="17.7095543">
        <ele>53.9712</ele>
        <time>2014-06-06T15:10:40Z</time>
      </trkpt>
      <trkpt lat="59.9113937" lon="17.7096024">
        <ele>53.0098</ele>
        <time>2014-06-06T15:10:41Z</time>
      </trkpt>
      <trkpt lat="59.9114176" lon="17.7096592">
        <ele>51.5679</ele>
        <time>2014-06-06T15:10:42Z</time>
      </trkpt>
      <trkpt lat="59.911439" lon="17.7097329">
        <ele>50.6066</ele>
        <time>2014-06-06T15:10:43Z</time>
      </trkpt>
      <trkpt lat="59.911457" lon="17.7098253">
        <ele>49.6453</ele>
        <time>2014-06-06T15:10:44Z</time>
      </trkpt>
      <trkpt lat="59.911478" lon="17.7099189">
        <ele>49.1646</ele>
        <time>2014-06-06T15:10:45Z</time>
      </trkpt>
      <trkpt lat="59.9115046" lon="17.7099977">
        <ele>48.684</ele>
        <time>2014-06-06T15:10:46Z</time>
      </trkpt>
      <trkpt lat="59.9115357" lon="17.7100772">
        <ele>48.2034</ele>
        <time>2014-06-06T15:10:47Z</time>
      </trkpt>
      <trkpt lat="59.9115776" lon="17.7101317">
        <ele>47.7225</ele>
        <time>2014-06-06T15:10:48Z</time>
      </trkpt>
      <trkpt lat="59.9116233" lon="17.7101557">
        <ele>46.7612</ele>
        <time>2014-06-06T15:10:49Z</time>
      </trkpt>
      <trkpt lat="59.9116712" lon="17.7101633">
        <ele>46.2806</ele>
        <time>2014-06-06T15:10:50Z</time>
      </trkpt>
      <trkpt lat="59.9117168" lon="17.7101477">
        <ele>44.8386</ele>
        <time>2014-06-06T15:10:51Z</time>
      </trkpt>
      <trkpt lat="59.9117666" lon="17.7101101">
        <ele>45.3192</ele>
        <time>2014-06-06T15:10:52Z</time>
      </trkpt>
      <trkpt lat="59.9118071" lon="17.7100581">
        <ele>44.358</ele>
        <time>2014-06-06T15:10:53Z</time>
      </trkpt>
      <trkpt lat="59.9118367" lon="17.7099837">
        <ele>41.474</ele>
        <time>2014-06-06T15:10:54Z</time>
      </trkpt>
      <trkpt lat="59.9118589" lon="17.7099318">
        <ele>38.5901</ele>
        <time>2014-06-06T15:10:55Z</time>
      </trkpt>
      <trkpt lat="59.9118781" lon="17.7098832">
        <ele>36.1868</ele>
        <time>2014-06-06T15:10:56Z</time>
      </trkpt>
      <trkpt lat="59.9118826" lon="17.7097889">
        <ele>32.8223</ele>
        <time>2014-06-06T15:10:57Z</time>
      </trkpt>
      <trkpt lat="59.911889" lon="17.7096941">
        <ele>30.8995</ele>
        <time>2014-06-06T15:10:58Z</time>
      </trkpt>
      <trkpt lat="59.9118956" lon="17.7095939">
        <ele>28.4962</ele>
        <time>2014-06-06T15:10:59Z</time>
      </trkpt>
      <trkpt lat="59.9118972" lon="17.7094879">
        <ele>27.0543</ele>
        <time>2014-06-06T15:11:00Z</time>
      </trkpt>
      <trkpt lat="59.9118955" lon="17.7093941">
        <ele>25.6123</ele>
        <time>2014-06-06T15:11:01Z</time>
      </trkpt>
      <trkpt lat="59.9118998" lon="17.7093016">
        <ele>24.651</ele>
        <time>2014-06-06T15:11:02Z</time>
      </trkpt>
      <trkpt lat="59.9119077" lon="17.7092104">
        <ele>22.7283</ele>
        <time>2014-06-06T15:11:03Z</time>
      </trkpt>
      <trkpt lat="59.9119263" lon="17.7091284">
        <ele>21.767</ele>
        <time>2014-06-06T15:11:04Z</time>
      </trkpt>
      <trkpt lat="59.9119494" lon="17.7090518">
        <ele>20.8057</ele>
        <time>2014-06-06T15:11:05Z</time>
      </trkpt>
      <trkpt lat="59.912007" lon="17.7089611">
        <ele>23.6896</ele>
        <time>2014-06-06T15:11:06Z</time>
      </trkpt>
      <trkpt lat="59.9120533" lon="17.7088785">
        <ele>25.1317</ele>
        <time>2014-06-06T15:11:07Z</time>
      </trkpt>
      <trkpt lat="59.9120812" lon="17.7088015">
        <ele>24.651</ele>
        <time>2014-06-06T15:11:08Z</time>
      </trkpt>
      <trkpt lat="59.9121049" lon="17.7087214">
        <ele>23.6896</ele>
        <time>2014-06-06T15:11:09Z</time>
      </trkpt>
      <trkpt lat="59.9121242" lon="17.7086366">
        <ele>23.209</ele>
        <time>2014-06-06T15:11:10Z</time>
      </trkpt>
      <trkpt lat="59.9121405" lon="17.7085255">
        <ele>23.6896</ele>
        <time>2014-06-06T15:11:11Z</time>
      </trkpt>
      <trkpt lat="59.9121589" lon="17.7084078">
        <ele>25.1317</ele>
        <time>2014-06-06T15:11:12Z</time>
      </trkpt>
      <trkpt lat="59.9121654" lon="17.7083113">
        <ele>24.651</ele>
        <time>2014-06-06T15:11:13Z</time>
      </trkpt>
      <trkpt lat="59.9121765" lon="17.7082198">
        <ele>24.651</ele>
        <time>2014-06-06T15:11:14Z</time>
      </trkpt>
      <trkpt lat="59.9121925" lon="17.7081301">
        <ele>24.1703</ele>
        <time>2014-06-06T15:11:15Z</time>
      </trkpt>
      <trkpt lat="59.9122082" lon="17.7080489">
        <ele>23.6896</ele>
        <time>2014-06-06T15:11:16Z</time>
      </trkpt>
      <trkpt lat="59.9122299" lon="17.7079691">
        <ele>23.209</ele>
        <time>2014-06-06T15:11:17Z</time>
      </trkpt>
      <trkpt lat="59.9122526" lon="17.7078951">
        <ele>22.2476</ele>
        <time>2014-06-06T15:11:18Z</time>
      </trkpt>
      <trkpt lat="59.9122744" lon="17.7078216">
        <ele>22.2476</ele>
        <time>2014-06-06T15:11:19Z</time>
      </trkpt>
      <trkpt lat="59.9122882" lon="17.7077436">
        <ele>21.767</ele>
        <time>2014-06-06T15:11:20Z</time>
      </trkpt>
      <trkpt lat="59.912296" lon="17.7076588">
        <ele>21.2864</ele>
        <time>2014-06-06T15:11:21Z</time>
      </trkpt>
      <trkpt lat="59.9123117" lon="17.7075625">
        <ele>22.7283</ele>
        <time>2014-06-06T15:11:22Z</time>
      </trkpt>
      <trkpt lat="59.9123179" lon="17.7074496">
        <ele>24.1703</ele>
        <time>2014-06-06T15:11:23Z</time>
      </trkpt>
      <trkpt lat="59.9123511" lon="17.7073261">
        <ele>28.9769</ele>
        <time>2014-06-06T15:11:24Z</time>
      </trkpt>
      <trkpt lat="59.9123771" lon="17.7072154">
        <ele>32.3416</ele>
        <time>2014-06-06T15:11:25Z</time>
      </trkpt>
      <trkpt lat="59.9123961" lon="17.7071145">
        <ele>34.2642</ele>
        <time>2014-06-06T15:11:26Z</time>
      </trkpt>
      <trkpt lat="59.9124144" lon="17.7070237">
        <ele>35.7061</ele>
        <time>2014-06-06T15:11:27Z</time>
      </trkpt>
      <trkpt lat="59.9124474" lon="17.7069321">
        <ele>38.5901</ele>
        <time>2014-06-06T15:11:28Z</time>
      </trkpt>
      <trkpt lat="59.9124733" lon="17.7068553">
        <ele>39.5513</ele>
        <time>2014-06-06T15:11:29Z</time>
      </trkpt>
      <trkpt lat="59.9125071" lon="17.7067952">
        <ele>40.0321</ele>
        <time>2014-06-06T15:11:30Z</time>
      </trkpt>
      <trkpt lat="59.9125451" lon="17.7067497">
        <ele>40.0321</ele>
        <time>2014-06-06T15:11:31Z</time>
      </trkpt>
      <trkpt lat="59.9125913" lon="17.7067171">
        <ele>40.5128</ele>
        <time>2014-06-06T15:11:32Z</time>
      </trkpt>
      <trkpt lat="59.9126358" lon="17.7066875">
        <ele>40.5128</ele>
        <time>2014-06-06T15:11:33Z</time>
      </trkpt>
      <trkpt lat="59.9126819" lon="17.7066654">
        <ele>40.9934</ele>
        <time>2014-06-06T15:11:34Z</time>
      </trkpt>
      <trkpt lat="59.9127301" lon="17.7066492">
        <ele>41.474</ele>
        <time>2014-06-06T15:11:35Z</time>
      </trkpt>
      <trkpt lat="59.9127773" lon="17.7066426">
        <ele>41.9547</ele>
        <time>2014-06-06T15:11:36Z</time>
      </trkpt>
      <trkpt lat="59.912821" lon="17.7066435">
        <ele>41.9547</ele>
        <time>2014-06-06T15:11:37Z</time>
      </trkpt>
      <trkpt lat="59.9128643" lon="17.7066587">
        <ele>42.4354</ele>
        <time>2014-06-06T15:11:38Z</time>
      </trkpt>
      <trkpt lat="59.9129074" lon="17.7066746">
        <ele>42.4354</ele>
        <time>2014-06-06T15:11:39Z</time>
      </trkpt>
      <trkpt lat="59.9129585" lon="17.7066652">
        <ele>42.916</ele>
        <time>2014-06-06T15:11:40Z</time>
      </trkpt>
      <trkpt lat="59.9130053" lon="17.7066331">
        <ele>42.916</ele>
        <time>2014-06-06T15:11:41Z</time>
      </trkpt>
      <trkpt lat="59.9130488" lon="17.7065866">
        <ele>43.3966</ele>
        <time>2014-06-06T15:11:42Z</time>
      </trkpt>
      <trkpt lat="59.9130919" lon="17.7065336">
        <ele>43.3966</ele>
        <time>2014-06-06T15:11:43Z</time>
      </trkpt>
      <trkpt lat="59.9131346" lon="17.706485">
        <ele>43.8773</ele>
        <time>2014-06-06T15:11:44Z</time>
      </trkpt>
      <trkpt lat="59.9131735" lon="17.7064296">
        <ele>43.8773</ele>
        <time>2014-06-06T15:11:45Z</time>
      </trkpt>
      <trkpt lat="59.9131991" lon="17.7063434">
        <ele>43.3966</ele>
        <time>2014-06-06T15:11:46Z</time>
      </trkpt>
      <trkpt lat="59.9132238" lon="17.706254">
        <ele>43.3966</ele>
        <time>2014-06-06T15:11:47Z</time>
      </trkpt>
      <trkpt lat="59.9132463" lon="17.7061619">
        <ele>43.3966</ele>
        <time>2014-06-06T15:11:48Z</time>
      </trkpt>
      <trkpt lat="59.9132654" lon="17.7060819">
        <ele>42.916</ele>
        <time>2014-06-06T15:11:49Z</time>
      </trkpt>
      <trkpt lat="59.9132831" lon="17.7059976">
        <ele>42.4354</ele>
        <time>2014-06-06T15:11:50Z</time>
      </trkpt>
      <trkpt lat="59.9133031" lon="17.7059127">
        <ele>42.4354</ele>
        <time>2014-06-06T15:11:51Z</time>
      </trkpt>
      <trkpt lat="59.9133222" lon="17.7058291">
        <ele>42.4354</ele>
        <time>2014-06-06T15:11:52Z</time>
      </trkpt>
      <trkpt lat="59.9133425" lon="17.7057437">
        <ele>42.4354</ele>
        <time>2014-06-06T15:11:53Z</time>
      </trkpt>
      <trkpt lat="59.9133688" lon="17.7056593">
        <ele>42.916</ele>
        <time>2014-06-06T15:11:54Z</time>
      </trkpt>
      <trkpt lat="59.9133913" lon="17.70557">
        <ele>43.8773</ele>
        <time>2014-06-06T15:11:55Z</time>
      </trkpt>
      <trkpt lat="59.9134073" lon="17.7054826">
        <ele>44.358</ele>
        <time>2014-06-06T15:11:56Z</time>
      </trkpt>
      <trkpt lat="59.9134374" lon="17.7053909">
        <ele>46.7612</ele>
        <time>2014-06-06T15:11:57Z</time>
      </trkpt>
      <trkpt lat="59.9134674" lon="17.7053056">
        <ele>48.2034</ele>
        <time>2014-06-06T15:11:58Z</time>
      </trkpt>
      <trkpt lat="59.9134897" lon="17.7052349">
        <ele>48.2034</ele>
        <time>2014-06-06T15:11:59Z</time>
      </trkpt>
      <trkpt lat="59.9135026" lon="17.7051667">
        <ele>47.7225</ele>
        <time>2014-06-06T15:12:00Z</time>
      </trkpt>
      <trkpt lat="59.9135244" lon="17.7051093">
        <ele>47.2418</ele>
        <time>2014-06-06T15:12:01Z</time>
      </trkpt>
      <trkpt lat="59.9135556" lon="17.7050541">
        <ele>47.2418</ele>
        <time>2014-06-06T15:12:02Z</time>
      </trkpt>
      <trkpt lat="59.9135789" lon="17.7049945">
        <ele>47.2418</ele>
        <time>2014-06-06T15:12:03Z</time>
      </trkpt>
      <trkpt lat="59.9135998" lon="17.7049486">
        <ele>46.2806</ele>
        <time>2014-06-06T15:12:04Z</time>
      </trkpt>
      <trkpt lat="59.913627" lon="17.7048942">
        <ele>46.7612</ele>
        <time>2014-06-06T15:12:05Z</time>
      </trkpt>
      <trkpt lat="59.9136513" lon="17.7048388">
        <ele>46.7612</ele>
        <time>2014-06-06T15:12:06Z</time>
      </trkpt>
      <trkpt lat="59.9136754" lon="17.7047854">
        <ele>46.2806</ele>
        <time>2014-06-06T15:12:07Z</time>
      </trkpt>
      <trkpt lat="59.9136961" lon="17.7047259">
        <ele>45.3192</ele>
        <time>2014-06-06T15:12:08Z</time>
      </trkpt>
      <trkpt lat="59.9137174" lon="17.7046548">
        <ele>45.3192</ele>
        <time>2014-06-06T15:12:09Z</time>
      </trkpt>
      <trkpt lat="59.9137288" lon="17.7045728">
        <ele>45.3192</ele>
        <time>2014-06-06T15:12:10Z</time>
      </trkpt>
      <trkpt lat="59.9137284" lon="17.704485">
        <ele>45.3192</ele>
        <time>2014-06-06T15:12:11Z</time>
      </trkpt>
      <trkpt lat="59.9137234" lon="17.7043954">
        <ele>45.3192</ele>
        <time>2014-06-06T15:12:12Z</time>
      </trkpt>
      <trkpt lat="59.9137151" lon="17.7043069">
        <ele>44.8386</ele>
        <time>2014-06-06T15:12:13Z</time>
      </trkpt>
      <trkpt lat="59.9137041" lon="17.7042208">
        <ele>44.8386</ele>
        <time>2014-06-06T15:12:14Z</time>
      </trkpt>
      <trkpt lat="59.9136922" lon="17.7041351">
        <ele>44.8386</ele>
        <time>2014-06-06T15:12:15Z</time>
      </trkpt>
      <trkpt lat="59.9136798" lon="17.7040495">
        <ele>44.8386</ele>
        <time>2014-06-06T15:12:16Z</time>
      </trkpt>
      <trkpt lat="59.9136699" lon="17.7039618">
        <ele>45.3192</ele>
        <time>2014-06-06T15:12:17Z</time>
      </trkpt>
      <trkpt lat="59.9136651" lon="17.7038744">
        <ele>45.3192</ele>
        <time>2014-06-06T15:12:18Z</time>
      </trkpt>
      <trkpt lat="59.913663" lon="17.7037902">
        <ele>45.3192</ele>
        <time>2014-06-06T15:12:19Z</time>
      </trkpt>
      <trkpt lat="59.9136592" lon="17.7037053">
        <ele>44.8386</ele>
        <time>2014-06-06T15:12:20Z</time>
      </trkpt>
      <trkpt lat="59.9136575" lon="17.7036172">
        <ele>44.8386</ele>
        <time>2014-06-06T15:12:21Z</time>
      </trkpt>
      <trkpt lat="59.913661" lon="17.7035293">
        <ele>45.3192</ele>
        <time>2014-06-06T15:12:22Z</time>
      </trkpt>
      <trkpt lat="59.9136714" lon="17.7034465">
        <ele>45.3192</ele>
        <time>2014-06-06T15:12:23Z</time>
      </trkpt>
      <trkpt lat="59.9136892" lon="17.7033744">
        <ele>45.3192</ele>
        <time>2014-06-06T15:12:24Z</time>
      </trkpt>
      <trkpt lat="59.9137104" lon="17.703313">
        <ele>45.3192</ele>
        <time>2014-06-06T15:12:25Z</time>
      </trkpt>
      <trkpt lat="59.9137326" lon="17.7032573">
        <ele>45.3192</ele>
        <time>2014-06-06T15:12:26Z</time>
      </trkpt>
      <trkpt lat="59.9137519" lon="17.7031998">
        <ele>45.3192</ele>
        <time>2014-06-06T15:12:27Z</time>
      </trkpt>
      <trkpt lat="59.9137693" lon="17.7031423">
        <ele>45.3192</ele>
        <time>2014-06-06T15:12:28Z</time>
      </trkpt>
      <trkpt lat="59.913792" lon="17.7030875">
        <ele>45.3192</ele>
        <time>2014-06-06T15:12:29Z</time>
      </trkpt>
      <trkpt lat="59.9138151" lon="17.7030309">
        <ele>45.3192</ele>
        <time>2014-06-06T15:12:30Z</time>
      </trkpt>
      <trkpt lat="59.9138373" lon="17.7029713">
        <ele>44.8386</ele>
        <time>2014-06-06T15:12:31Z</time>
      </trkpt>
      <trkpt lat="59.9138598" lon="17.7029075">
        <ele>44.8386</ele>
        <time>2014-06-06T15:12:32Z</time>
      </trkpt>
      <trkpt lat="59.9138833" lon="17.7028418">
        <ele>45.3192</ele>
        <time>2014-06-06T15:12:33Z</time>
      </trkpt>
      <trkpt lat="59.9139088" lon="17.7027802">
        <ele>44.8386</ele>
        <time>2014-06-06T15:12:34Z</time>
      </trkpt>
      <trkpt lat="59.913937" lon="17.7027223">
        <ele>44.8386</ele>
        <time>2014-06-06T15:12:35Z</time>
      </trkpt>
      <trkpt lat="59.9139661" lon="17.702666">
        <ele>44.8386</ele>
        <time>2014-06-06T15:12:36Z</time>
      </trkpt>
      <trkpt lat="59.9139964" lon="17.7026122">
        <ele>44.8386</ele>
        <time>2014-06-06T15:12:37Z</time>
      </trkpt>
      <trkpt lat="59.9140277" lon="17.7025661">
        <ele>44.8386</ele>
        <time>2014-06-06T15:12:38Z</time>
      </trkpt>
      <trkpt lat="59.9140574" lon="17.7025228">
        <ele>44.8386</ele>
        <time>2014-06-06T15:12:39Z</time>
      </trkpt>
      <trkpt lat="59.9140838" lon="17.7024746">
        <ele>45.3192</ele>
        <time>2014-06-06T15:12:40Z</time>
      </trkpt>
      <trkpt lat="59.9141064" lon="17.7024201">
        <ele>45.3192</ele>
        <time>2014-06-06T15:12:41Z</time>
      </trkpt>
      <trkpt lat="59.9141245" lon="17.7023647">
        <ele>45.3192</ele>
        <time>2014-06-06T15:12:42Z</time>
      </trkpt>
      <trkpt lat="59.9141413" lon="17.7023081">
        <ele>45.3192</ele>
        <time>2014-06-06T15:12:43Z</time>
      </trkpt>
      <trkpt lat="59.9141589" lon="17.7022451">
        <ele>45.3192</ele>
        <time>2014-06-06T15:12:44Z</time>
      </trkpt>
      <trkpt lat="59.9141734" lon="17.7021761">
        <ele>45.3192</ele>
        <time>2014-06-06T15:12:45Z</time>
      </trkpt>
      <trkpt lat="59.9141865" lon="17.7021053">
        <ele>45.3192</ele>
        <time>2014-06-06T15:12:46Z</time>
      </trkpt>
      <trkpt lat="59.9142009" lon="17.7020372">
        <ele>45.7999</ele>
        <time>2014-06-06T15:12:47Z</time>
      </trkpt>
      <trkpt lat="59.9142165" lon="17.7019743">
        <ele>45.7999</ele>
        <time>2014-06-06T15:12:48Z</time>
      </trkpt>
      <trkpt lat="59.9142395" lon="17.7019227">
        <ele>45.7999</ele>
        <time>2014-06-06T15:12:49Z</time>
      </trkpt>
      <trkpt lat="59.9142706" lon="17.7018887">
        <ele>45.7999</ele>
        <time>2014-06-06T15:12:50Z</time>
      </trkpt>
      <trkpt lat="59.9143038" lon="17.7018658">
        <ele>45.7999</ele>
        <time>2014-06-06T15:12:51Z</time>
      </trkpt>
      <trkpt lat="59.9143371" lon="17.7018441">
        <ele>45.7999</ele>
        <time>2014-06-06T15:12:52Z</time>
      </trkpt>
      <trkpt lat="59.9143697" lon="17.7018234">
        <ele>46.2806</ele>
        <time>2014-06-06T15:12:53Z</time>
      </trkpt>
      <trkpt lat="59.9144007" lon="17.7018074">
        <ele>46.7612</ele>
        <time>2014-06-06T15:12:54Z</time>
      </trkpt>
      <trkpt lat="59.9144289" lon="17.7017982">
        <ele>46.7612</ele>
        <time>2014-06-06T15:12:55Z</time>
      </trkpt>
      <trkpt lat="59.9144562" lon="17.7017976">
        <ele>46.7612</ele>
        <time>2014-06-06T15:12:56Z</time>
      </trkpt>
      <trkpt lat="59.9144846" lon="17.7017994">
        <ele>46.7612</ele>
        <time>2014-06-06T15:12:57Z</time>
      </trkpt>
      <trkpt lat="59.9145153" lon="17.7017987">
        <ele>47.2418</ele>
        <time>2014-06-06T15:12:58Z</time>
      </trkpt>
      <trkpt lat="59.9145467" lon="17.7017954">
        <ele>47.2418</ele>
        <time>2014-06-06T15:12:59Z</time>
      </trkpt>
      <trkpt lat="59.9145764" lon="17.7017873">
        <ele>47.2418</ele>
        <time>2014-06-06T15:13:00Z</time>
      </trkpt>
      <trkpt lat="59.9146047" lon="17.7017758">
        <ele>47.2418</ele>
        <time>2014-06-06T15:13:01Z</time>
      </trkpt>
      <trkpt lat="59.9146324" lon="17.7017632">
        <ele>47.7225</ele>
        <time>2014-06-06T15:13:02Z</time>
      </trkpt>
      <trkpt lat="59.9146608" lon="17.7017529">
        <ele>47.7225</ele>
        <time>2014-06-06T15:13:03Z</time>
      </trkpt>
      <trkpt lat="59.9146918" lon="17.7017492">
        <ele>47.7225</ele>
        <time>2014-06-06T15:13:04Z</time>
      </trkpt>
      <trkpt lat="59.9147234" lon="17.7017479">
        <ele>47.7225</ele>
        <time>2014-06-06T15:13:05Z</time>
      </trkpt>
      <trkpt lat="59.9147557" lon="17.7017471">
        <ele>47.7225</ele>
        <time>2014-06-06T15:13:06Z</time>
      </trkpt>
      <trkpt lat="59.9147876" lon="17.7017468">
        <ele>47.7225</ele>
        <time>2014-06-06T15:13:07Z</time>
      </trkpt>
      <trkpt lat="59.9148178" lon="17.7017464">
        <ele>48.2034</ele>
        <time>2014-06-06T15:13:08Z</time>
      </trkpt>
      <trkpt lat="59.9148452" lon="17.7017489">
        <ele>48.2034</ele>
        <time>2014-06-06T15:13:09Z</time>
      </trkpt>
      <trkpt lat="59.9148712" lon="17.7017554">
        <ele>48.2034</ele>
        <time>2014-06-06T15:13:10Z</time>
      </trkpt>
      <trkpt lat="59.9149022" lon="17.7017637">
        <ele>48.2034</ele>
        <time>2014-06-06T15:13:11Z</time>
      </trkpt>
      <trkpt lat="59.9149371" lon="17.7017728">
        <ele>47.7225</ele>
        <time>2014-06-06T15:13:12Z</time>
      </trkpt>
      <trkpt lat="59.9149723" lon="17.701781">
        <ele>47.7225</ele>
        <time>2014-06-06T15:13:13Z</time>
      </trkpt>
      <trkpt lat="59.9150088" lon="17.7017821">
        <ele>48.2034</ele>
        <time>2014-06-06T15:13:14Z</time>
      </trkpt>
      <trkpt lat="59.9150421" lon="17.7017769">
        <ele>48.2034</ele>
        <time>2014-06-06T15:13:15Z</time>
      </trkpt>
      <trkpt lat="59.9150742" lon="17.7017715">
        <ele>48.2034</ele>
        <time>2014-06-06T15:13:16Z</time>
      </trkpt>
      <trkpt lat="59.9151046" lon="17.7017714">
        <ele>48.2034</ele>
        <time>2014-06-06T15:13:17Z</time>
      </trkpt>
      <trkpt lat="59.9151363" lon="17.7017805">
        <ele>48.2034</ele>
        <time>2014-06-06T15:13:18Z</time>
      </trkpt>
      <trkpt lat="59.9151678" lon="17.701796">
        <ele>48.2034</ele>
        <time>2014-06-06T15:13:19Z</time>
      </trkpt>
      <trkpt lat="59.9151995" lon="17.7018187">
        <ele>48.2034</ele>
        <time>2014-06-06T15:13:20Z</time>
      </trkpt>
      <trkpt lat="59.9152343" lon="17.7018483">
        <ele>48.684</ele>
        <time>2014-06-06T15:13:21Z</time>
      </trkpt>
      <trkpt lat="59.9152704" lon="17.7018825">
        <ele>48.684</ele>
        <time>2014-06-06T15:13:22Z</time>
      </trkpt>
      <trkpt lat="59.9153105" lon="17.7019147">
        <ele>48.684</ele>
        <time>2014-06-06T15:13:23Z</time>
      </trkpt>
      <trkpt lat="59.9153461" lon="17.7019452">
        <ele>48.684</ele>
        <time>2014-06-06T15:13:24Z</time>
      </trkpt>
      <trkpt lat="59.9153823" lon="17.7019726">
        <ele>48.684</ele>
        <time>2014-06-06T15:13:25Z</time>
      </trkpt>
      <trkpt lat="59.9154198" lon="17.7019949">
        <ele>48.684</ele>
        <time>2014-06-06T15:13:26Z</time>
      </trkpt>
      <trkpt lat="59.9154576" lon="17.7020011">
        <ele>49.1646</ele>
        <time>2014-06-06T15:13:27Z</time>
      </trkpt>
      <trkpt lat="59.9154962" lon="17.7019845">
        <ele>49.1646</ele>
        <time>2014-06-06T15:13:28Z</time>
      </trkpt>
      <trkpt lat="59.9155318" lon="17.701951">
        <ele>48.684</ele>
        <time>2014-06-06T15:13:29Z</time>
      </trkpt>
      <trkpt lat="59.9155607" lon="17.7019115">
        <ele>48.684</ele>
        <time>2014-06-06T15:13:30Z</time>
      </trkpt>
      <trkpt lat="59.9155848" lon="17.7018686">
        <ele>48.2034</ele>
        <time>2014-06-06T15:13:31Z</time>
      </trkpt>
      <trkpt lat="59.9156052" lon="17.7018295">
        <ele>48.2034</ele>
        <time>2014-06-06T15:13:32Z</time>
      </trkpt>
      <trkpt lat="59.9156238" lon="17.7017881">
        <ele>47.2418</ele>
        <time>2014-06-06T15:13:33Z</time>
      </trkpt>
      <trkpt lat="59.9156376" lon="17.7017504">
        <ele>47.2418</ele>
        <time>2014-06-06T15:13:34Z</time>
      </trkpt>
      <trkpt lat="59.9156571" lon="17.7017239">
        <ele>47.2418</ele>
        <time>2014-06-06T15:13:35Z</time>
      </trkpt>
      <trkpt lat="59.9156819" lon="17.7016941">
        <ele>47.2418</ele>
        <time>2014-06-06T15:13:36Z</time>
      </trkpt>
      <trkpt lat="59.9157026" lon="17.7016665">
        <ele>46.7612</ele>
        <time>2014-06-06T15:13:37Z</time>
      </trkpt>
      <trkpt lat="59.9157211" lon="17.7016415">
        <ele>46.7612</ele>
        <time>2014-06-06T15:13:38Z</time>
      </trkpt>
      <trkpt lat="59.9157408" lon="17.7016182">
        <ele>46.2806</ele>
        <time>2014-06-06T15:13:39Z</time>
      </trkpt>
      <trkpt lat="59.9157672" lon="17.7015888">
        <ele>45.3192</ele>
        <time>2014-06-06T15:13:40Z</time>
      </trkpt>
      <trkpt lat="59.9157939" lon="17.7015514">
        <ele>45.3192</ele>
        <time>2014-06-06T15:13:41Z</time>
      </trkpt>
      <trkpt lat="59.9158196" lon="17.7015111">
        <ele>45.3192</ele>
        <time>2014-06-06T15:13:42Z</time>
      </trkpt>
      <trkpt lat="59.9158544" lon="17.7014703">
        <ele>44.8386</ele>
        <time>2014-06-06T15:13:43Z</time>
      </trkpt>
      <trkpt lat="59.915894" lon="17.7014283">
        <ele>45.3192</ele>
        <time>2014-06-06T15:13:44Z</time>
      </trkpt>
      <trkpt lat="59.9159321" lon="17.7013855">
        <ele>45.3192</ele>
        <time>2014-06-06T15:13:45Z</time>
      </trkpt>
      <trkpt lat="59.915973" lon="17.7013386">
        <ele>45.3192</ele>
        <time>2014-06-06T15:13:46Z</time>
      </trkpt>
      <trkpt lat="59.9160066" lon="17.70129">
        <ele>45.7999</ele>
        <time>2014-06-06T15:13:47Z</time>
      </trkpt>
      <trkpt lat="59.9160326" lon="17.7012389">
        <ele>45.7999</ele>
        <time>2014-06-06T15:13:48Z</time>
      </trkpt>
      <trkpt lat="59.9160684" lon="17.7011858">
        <ele>46.2806</ele>
        <time>2014-06-06T15:13:49Z</time>
      </trkpt>
      <trkpt lat="59.9161047" lon="17.7011263">
        <ele>46.7612</ele>
        <time>2014-06-06T15:13:50Z</time>
      </trkpt>
      <trkpt lat="59.9161377" lon="17.7010667">
        <ele>47.2418</ele>
        <time>2014-06-06T15:13:51Z</time>
      </trkpt>
      <trkpt lat="59.9161676" lon="17.7010033">
        <ele>47.7225</ele>
        <time>2014-06-06T15:13:52Z</time>
      </trkpt>
      <trkpt lat="59.9161952" lon="17.7009312">
        <ele>48.2034</ele>
        <time>2014-06-06T15:13:53Z</time>
      </trkpt>
      <trkpt lat="59.9162228" lon="17.7008609">
        <ele>48.684</ele>
        <time>2014-06-06T15:13:54Z</time>
      </trkpt>
      <trkpt lat="59.9162486" lon="17.7007883">
        <ele>49.1646</ele>
        <time>2014-06-06T15:13:55Z</time>
      </trkpt>
      <trkpt lat="59.9162748" lon="17.7006999">
        <ele>50.6066</ele>
        <time>2014-06-06T15:13:56Z</time>
      </trkpt>
      <trkpt lat="59.916293" lon="17.7006076">
        <ele>52.0486</ele>
        <time>2014-06-06T15:13:57Z</time>
      </trkpt>
      <trkpt lat="59.9163127" lon="17.7005207">
        <ele>53.0098</ele>
        <time>2014-06-06T15:13:58Z</time>
      </trkpt>
      <trkpt lat="59.9163392" lon="17.7004402">
        <ele>54.4518</ele>
        <time>2014-06-06T15:13:59Z</time>
      </trkpt>
      <trkpt lat="59.9163688" lon="17.7003609">
        <ele>54.9324</ele>
        <time>2014-06-06T15:14:00Z</time>
      </trkpt>
      <trkpt lat="59.9163939" lon="17.7002767">
        <ele>55.8938</ele>
        <time>2014-06-06T15:14:01Z</time>
      </trkpt>
      <trkpt lat="59.9164123" lon="17.7002057">
        <ele>55.8938</ele>
        <time>2014-06-06T15:14:02Z</time>
      </trkpt>
      <trkpt lat="59.9164371" lon="17.7001585">
        <ele>55.4131</ele>
        <time>2014-06-06T15:14:03Z</time>
      </trkpt>
      <trkpt lat="59.9164773" lon="17.7001166">
        <ele>55.8938</ele>
        <time>2014-06-06T15:14:04Z</time>
      </trkpt>
      <trkpt lat="59.9165209" lon="17.7000809">
        <ele>55.4131</ele>
        <time>2014-06-06T15:14:05Z</time>
      </trkpt>
      <trkpt lat="59.9165573" lon="17.7000456">
        <ele>54.4518</ele>
        <time>2014-06-06T15:14:06Z</time>
      </trkpt>
      <trkpt lat="59.9165988" lon="17.7000083">
        <ele>53.0098</ele>
        <time>2014-06-06T15:14:07Z</time>
      </trkpt>
      <trkpt lat="59.9166438" lon="17.6999861">
        <ele>52.5292</ele>
        <time>2014-06-06T15:14:08Z</time>
      </trkpt>
      <trkpt lat="59.9166835" lon="17.6999627">
        <ele>51.5679</ele>
        <time>2014-06-06T15:14:09Z</time>
      </trkpt>
      <trkpt lat="59.9167275" lon="17.6999335">
        <ele>51.0872</ele>
        <time>2014-06-06T15:14:10Z</time>
      </trkpt>
      <trkpt lat="59.9167657" lon="17.6999085">
        <ele>50.126</ele>
        <time>2014-06-06T15:14:11Z</time>
      </trkpt>
      <trkpt lat="59.9168065" lon="17.6998891">
        <ele>49.6453</ele>
        <time>2014-06-06T15:14:12Z</time>
      </trkpt>
      <trkpt lat="59.9168416" lon="17.6998764">
        <ele>48.684</ele>
        <time>2014-06-06T15:14:13Z</time>
      </trkpt>
      <trkpt lat="59.9168826" lon="17.6998731">
        <ele>47.7225</ele>
        <time>2014-06-06T15:14:14Z</time>
      </trkpt>
      <trkpt lat="59.9169304" lon="17.6998747">
        <ele>48.2034</ele>
        <time>2014-06-06T15:14:15Z</time>
      </trkpt>
      <trkpt lat="59.9169806" lon="17.6998706">
        <ele>48.2034</ele>
        <time>2014-06-06T15:14:16Z</time>
      </trkpt>
      <trkpt lat="59.9170177" lon="17.69987">
        <ele>47.2418</ele>
        <time>2014-06-06T15:14:17Z</time>
      </trkpt>
      <trkpt lat="59.9170549" lon="17.6998794">
        <ele>46.2806</ele>
        <time>2014-06-06T15:14:18Z</time>
      </trkpt>
      <trkpt lat="59.9170912" lon="17.6998905">
        <ele>45.3192</ele>
        <time>2014-06-06T15:14:19Z</time>
      </trkpt>
      <trkpt lat="59.9171279" lon="17.6999064">
        <ele>44.358</ele>
        <time>2014-06-06T15:14:20Z</time>
      </trkpt>
      <trkpt lat="59.9171655" lon="17.6999349">
        <ele>43.3966</ele>
        <time>2014-06-06T15:14:21Z</time>
      </trkpt>
      <trkpt lat="59.9172054" lon="17.6999618">
        <ele>42.916</ele>
        <time>2014-06-06T15:14:22Z</time>
      </trkpt>
      <trkpt lat="59.917249" lon="17.6999717">
        <ele>42.4354</ele>
        <time>2014-06-06T15:14:23Z</time>
      </trkpt>
      <trkpt lat="59.9173011" lon="17.6999885">
        <ele>42.916</ele>
        <time>2014-06-06T15:14:24Z</time>
      </trkpt>
      <trkpt lat="59.9173461" lon="17.7000261">
        <ele>43.3966</ele>
        <time>2014-06-06T15:14:25Z</time>
      </trkpt>
      <trkpt lat="59.9173825" lon="17.700086">
        <ele>43.3966</ele>
        <time>2014-06-06T15:14:26Z</time>
      </trkpt>
      <trkpt lat="59.9174103" lon="17.7001617">
        <ele>43.8773</ele>
        <time>2014-06-06T15:14:27Z</time>
      </trkpt>
      <trkpt lat="59.9174292" lon="17.7002428">
        <ele>44.358</ele>
        <time>2014-06-06T15:14:28Z</time>
      </trkpt>
      <trkpt lat="59.9174446" lon="17.7003238">
        <ele>44.358</ele>
        <time>2014-06-06T15:14:29Z</time>
      </trkpt>
      <trkpt lat="59.9174607" lon="17.7004047">
        <ele>44.358</ele>
        <time>2014-06-06T15:14:30Z</time>
      </trkpt>
      <trkpt lat="59.9174793" lon="17.7004869">
        <ele>44.358</ele>
        <time>2014-06-06T15:14:31Z</time>
      </trkpt>
      <trkpt lat="59.9175002" lon="17.7005691">
        <ele>44.358</ele>
        <time>2014-06-06T15:14:32Z</time>
      </trkpt>
      <trkpt lat="59.9175229" lon="17.7006506">
        <ele>44.8386</ele>
        <time>2014-06-06T15:14:33Z</time>
      </trkpt>
      <trkpt lat="59.9175462" lon="17.700731">
        <ele>44.8386</ele>
        <time>2014-06-06T15:14:34Z</time>
      </trkpt>
      <trkpt lat="59.9175695" lon="17.7008111">
        <ele>44.8386</ele>
        <time>2014-06-06T15:14:35Z</time>
      </trkpt>
      <trkpt lat="59.9175959" lon="17.7008879">
        <ele>44.8386</ele>
        <time>2014-06-06T15:14:36Z</time>
      </trkpt>
      <trkpt lat="59.9176312" lon="17.7009614">
        <ele>44.8386</ele>
        <time>2014-06-06T15:14:37Z</time>
      </trkpt>
      <trkpt lat="59.9176721" lon="17.7010333">
        <ele>44.8386</ele>
        <time>2014-06-06T15:14:38Z</time>
      </trkpt>
      <trkpt lat="59.9177183" lon="17.7011001">
        <ele>45.3192</ele>
        <time>2014-06-06T15:14:39Z</time>
      </trkpt>
      <trkpt lat="59.9177606" lon="17.7011677">
        <ele>45.3192</ele>
        <time>2014-06-06T15:14:40Z</time>
      </trkpt>
      <trkpt lat="59.9177991" lon="17.7012261">
        <ele>44.8386</ele>
        <time>2014-06-06T15:14:41Z</time>
      </trkpt>
      <trkpt lat="59.9178416" lon="17.7012739">
        <ele>45.3192</ele>
        <time>2014-06-06T15:14:42Z</time>
      </trkpt>
      <trkpt lat="59.9178885" lon="17.7013122">
        <ele>45.3192</ele>
        <time>2014-06-06T15:14:43Z</time>
      </trkpt>
      <trkpt lat="59.9179361" lon="17.7013301">
        <ele>45.3192</ele>
        <time>2014-06-06T15:14:44Z</time>
      </trkpt>
      <trkpt lat="59.9179873" lon="17.7013213">
        <ele>45.3192</ele>
        <time>2014-06-06T15:14:45Z</time>
      </trkpt>
      <trkpt lat="59.9180387" lon="17.7013007">
        <ele>44.358</ele>
        <time>2014-06-06T15:14:46Z</time>
      </trkpt>
      <trkpt lat="59.9180818" lon="17.7012821">
        <ele>43.3966</ele>
        <time>2014-06-06T15:14:47Z</time>
      </trkpt>
      <trkpt lat="59.9181295" lon="17.7012662">
        <ele>42.916</ele>
        <time>2014-06-06T15:14:48Z</time>
      </trkpt>
      <trkpt lat="59.9181814" lon="17.7012542">
        <ele>42.916</ele>
        <time>2014-06-06T15:14:49Z</time>
      </trkpt>
      <trkpt lat="59.9182479" lon="17.701234">
        <ele>42.916</ele>
        <time>2014-06-06T15:14:50Z</time>
      </trkpt>
      <trkpt lat="59.9183046" lon="17.7012348">
        <ele>43.3966</ele>
        <time>2014-06-06T15:14:51Z</time>
      </trkpt>
      <trkpt lat="59.9183658" lon="17.7012593">
        <ele>44.8386</ele>
        <time>2014-06-06T15:14:52Z</time>
      </trkpt>
      <trkpt lat="59.9184288" lon="17.7012889">
        <ele>46.2806</ele>
        <time>2014-06-06T15:14:53Z</time>
      </trkpt>
      <trkpt lat="59.9184834" lon="17.7013178">
        <ele>47.2418</ele>
        <time>2014-06-06T15:14:54Z</time>
      </trkpt>
      <trkpt lat="59.9185334" lon="17.7013491">
        <ele>48.684</ele>
        <time>2014-06-06T15:14:55Z</time>
      </trkpt>
      <trkpt lat="59.9185915" lon="17.7013628">
        <ele>50.6066</ele>
        <time>2014-06-06T15:14:56Z</time>
      </trkpt>
      <trkpt lat="59.9186445" lon="17.70138">
        <ele>52.0486</ele>
        <time>2014-06-06T15:14:57Z</time>
      </trkpt>
      <trkpt lat="59.918688" lon="17.7013936">
        <ele>52.5292</ele>
        <time>2014-06-06T15:14:58Z</time>
      </trkpt>
      <trkpt lat="59.9187329" lon="17.7014162">
        <ele>53.4905</ele>
        <time>2014-06-06T15:14:59Z</time>
      </trkpt>
      <trkpt lat="59.9187769" lon="17.7014463">
        <ele>54.4518</ele>
        <time>2014-06-06T15:15:00Z</time>
      </trkpt>
      <trkpt lat="59.9188143" lon="17.7014686">
        <ele>54.9324</ele>
        <time>2014-06-06T15:15:01Z</time>
      </trkpt>
      <trkpt lat="59.9188595" lon="17.7014744">
        <ele>55.4131</ele>
        <time>2014-06-06T15:15:02Z</time>
      </trkpt>
      <trkpt lat="59.9189265" lon="17.7014871">
        <ele>56.3745</ele>
        <time>2014-06-06T15:15:03Z</time>
      </trkpt>
      <trkpt lat="59.9190044" lon="17.7014981">
        <ele>58.2971</ele>
        <time>2014-06-06T15:15:04Z</time>
      </trkpt>
      <trkpt lat="59.9190645" lon="17.7014988">
        <ele>58.7777</ele>
        <time>2014-06-06T15:15:05Z</time>
      </trkpt>
      <trkpt lat="59.9191028" lon="17.7014874">
        <ele>57.3358</ele>
        <time>2014-06-06T15:15:06Z</time>
      </trkpt>
      <trkpt lat="59.9191469" lon="17.7014441">
        <ele>56.3745</ele>
        <time>2014-06-06T15:15:07Z</time>
      </trkpt>
      <trkpt lat="59.9191801" lon="17.7013729">
        <ele>55.4131</ele>
        <time>2014-06-06T15:15:08Z</time>
      </trkpt>
      <trkpt lat="59.9192147" lon="17.7012904">
        <ele>53.9712</ele>
        <time>2014-06-06T15:15:09Z</time>
      </trkpt>
      <trkpt lat="59.919271" lon="17.7011982">
        <ele>54.9324</ele>
        <time>2014-06-06T15:15:10Z</time>
      </trkpt>
      <trkpt lat="59.919339" lon="17.7010963">
        <ele>56.3745</ele>
        <time>2014-06-06T15:15:11Z</time>
      </trkpt>
      <trkpt lat="59.9193768" lon="17.7009972">
        <ele>56.3745</ele>
        <time>2014-06-06T15:15:12Z</time>
      </trkpt>
      <trkpt lat="59.9193965" lon="17.7008924">
        <ele>55.8938</ele>
        <time>2014-06-06T15:15:13Z</time>
      </trkpt>
      <trkpt lat="59.9193989" lon="17.7007893">
        <ele>55.4131</ele>
        <time>2014-06-06T15:15:14Z</time>
      </trkpt>
      <trkpt lat="59.9194042" lon="17.7006761">
        <ele>56.3745</ele>
        <time>2014-06-06T15:15:15Z</time>
      </trkpt>
      <trkpt lat="59.919422" lon="17.7005666">
        <ele>56.8551</ele>
        <time>2014-06-06T15:15:16Z</time>
      </trkpt>
      <trkpt lat="59.9194453" lon="17.7004802">
        <ele>57.3358</ele>
        <time>2014-06-06T15:15:17Z</time>
      </trkpt>
      <trkpt lat="59.9194591" lon="17.7004084">
        <ele>55.4131</ele>
        <time>2014-06-06T15:15:18Z</time>
      </trkpt>
      <trkpt lat="59.9194753" lon="17.7003414">
        <ele>53.9712</ele>
        <time>2014-06-06T15:15:19Z</time>
      </trkpt>
      <trkpt lat="59.9194943" lon="17.7002735">
        <ele>52.0486</ele>
        <time>2014-06-06T15:15:20Z</time>
      </trkpt>
      <trkpt lat="59.9195108" lon="17.7002053">
        <ele>50.126</ele>
        <time>2014-06-06T15:15:21Z</time>
      </trkpt>
      <trkpt lat="59.9195358" lon="17.7001285">
        <ele>49.6453</ele>
        <time>2014-06-06T15:15:22Z</time>
      </trkpt>
      <trkpt lat="59.9195671" lon="17.7000498">
        <ele>49.1646</ele>
        <time>2014-06-06T15:15:23Z</time>
      </trkpt>
      <trkpt lat="59.9195981" lon="17.6999788">
        <ele>49.1646</ele>
        <time>2014-06-06T15:15:24Z</time>
      </trkpt>
      <trkpt lat="59.9196225" lon="17.6999078">
        <ele>47.7225</ele>
        <time>2014-06-06T15:15:25Z</time>
      </trkpt>
      <trkpt lat="59.9196441" lon="17.6998353">
        <ele>47.2418</ele>
        <time>2014-06-06T15:15:26Z</time>
      </trkpt>
      <trkpt lat="59.9196657" lon="17.6997691">
        <ele>46.2806</ele>
        <time>2014-06-06T15:15:27Z</time>
      </trkpt>
      <trkpt lat="59.9196876" lon="17.699696">
        <ele>45.7999</ele>
        <time>2014-06-06T15:15:28Z</time>
      </trkpt>
      <trkpt lat="59.9197093" lon="17.6996174">
        <ele>45.7999</ele>
        <time>2014-06-06T15:15:29Z</time>
      </trkpt>
      <trkpt lat="59.9197322" lon="17.6995368">
        <ele>45.3192</ele>
        <time>2014-06-06T15:15:30Z</time>
      </trkpt>
      <trkpt lat="59.9197576" lon="17.6994681">
        <ele>44.8386</ele>
        <time>2014-06-06T15:15:31Z</time>
      </trkpt>
      <trkpt lat="59.9197887" lon="17.6994089">
        <ele>44.8386</ele>
        <time>2014-06-06T15:15:32Z</time>
      </trkpt>
      <trkpt lat="59.9198156" lon="17.6993451">
        <ele>43.8773</ele>
        <time>2014-06-06T15:15:33Z</time>
      </trkpt>
      <trkpt lat="59.9198366" lon="17.6992814">
        <ele>43.3966</ele>
        <time>2014-06-06T15:15:34Z</time>
      </trkpt>
      <trkpt lat="59.9198762" lon="17.6992088">
        <ele>43.8773</ele>
        <time>2014-06-06T15:15:35Z</time>
      </trkpt>
      <trkpt lat="59.9199154" lon="17.6991303">
        <ele>44.358</ele>
        <time>2014-06-06T15:15:36Z</time>
      </trkpt>
      <trkpt lat="59.9199508" lon="17.6990507">
        <ele>44.358</ele>
        <time>2014-06-06T15:15:37Z</time>
      </trkpt>
      <trkpt lat="59.9199813" lon="17.6989718">
        <ele>44.358</ele>
        <time>2014-06-06T15:15:38Z</time>
      </trkpt>
      <trkpt lat="59.9199988" lon="17.6988977">
        <ele>43.8773</ele>
        <time>2014-06-06T15:15:39Z</time>
      </trkpt>
      <trkpt lat="59.9200129" lon="17.6988234">
        <ele>43.3966</ele>
        <time>2014-06-06T15:15:40Z</time>
      </trkpt>
      <trkpt lat="59.920032" lon="17.6987479">
        <ele>43.3966</ele>
        <time>2014-06-06T15:15:41Z</time>
      </trkpt>
      <trkpt lat="59.9200514" lon="17.6986693">
        <ele>43.8773</ele>
        <time>2014-06-06T15:15:42Z</time>
      </trkpt>
      <trkpt lat="59.9200735" lon="17.698603">
        <ele>43.8773</ele>
        <time>2014-06-06T15:15:43Z</time>
      </trkpt>
      <trkpt lat="59.9201031" lon="17.6985656">
        <ele>43.3966</ele>
        <time>2014-06-06T15:15:44Z</time>
      </trkpt>
      <trkpt lat="59.9201267" lon="17.6985652">
        <ele>42.916</ele>
        <time>2014-06-06T15:15:45Z</time>
      </trkpt>
      <trkpt lat="59.9201514" lon="17.6985906">
        <ele>41.9547</ele>
        <time>2014-06-06T15:15:46Z</time>
      </trkpt>
      <trkpt lat="59.9201813" lon="17.6986243">
        <ele>40.9934</ele>
        <time>2014-06-06T15:15:47Z</time>
      </trkpt>
      <trkpt lat="59.920213" lon="17.6986662">
        <ele>40.5128</ele>
        <time>2014-06-06T15:15:48Z</time>
      </trkpt>
      <trkpt lat="59.9202471" lon="17.6987033">
        <ele>40.0321</ele>
        <time>2014-06-06T15:15:49Z</time>
      </trkpt>
      <trkpt lat="59.9202775" lon="17.6987345">
        <ele>39.5513</ele>
        <time>2014-06-06T15:15:50Z</time>
      </trkpt>
      <trkpt lat="59.9203056" lon="17.6987706">
        <ele>39.5513</ele>
        <time>2014-06-06T15:15:51Z</time>
      </trkpt>
      <trkpt lat="59.9203352" lon="17.6988097">
        <ele>39.5513</ele>
        <time>2014-06-06T15:15:52Z</time>
      </trkpt>
      <trkpt lat="59.9203683" lon="17.6988483">
        <ele>39.5513</ele>
        <time>2014-06-06T15:15:53Z</time>
      </trkpt>
      <trkpt lat="59.9204046" lon="17.6988967">
        <ele>39.5513</ele>
        <time>2014-06-06T15:15:54Z</time>
      </trkpt>
      <trkpt lat="59.9204453" lon="17.6989455">
        <ele>39.5513</ele>
        <time>2014-06-06T15:15:55Z</time>
      </trkpt>
      <trkpt lat="59.9204875" lon="17.698993">
        <ele>40.0321</ele>
        <time>2014-06-06T15:15:56Z</time>
      </trkpt>
      <trkpt lat="59.920532" lon="17.6990358">
        <ele>40.9934</ele>
        <time>2014-06-06T15:15:57Z</time>
      </trkpt>
      <trkpt lat="59.9205756" lon="17.6990706">
        <ele>40.9934</ele>
        <time>2014-06-06T15:15:58Z</time>
      </trkpt>
      <trkpt lat="59.9206153" lon="17.6991044">
        <ele>40.9934</ele>
        <time>2014-06-06T15:15:59Z</time>
      </trkpt>
      <trkpt lat="59.9206584" lon="17.6991179">
        <ele>40.9934</ele>
        <time>2014-06-06T15:16:00Z</time>
      </trkpt>
      <trkpt lat="59.9207029" lon="17.6991235">
        <ele>40.5128</ele>
        <time>2014-06-06T15:16:01Z</time>
      </trkpt>
      <trkpt lat="59.9207465" lon="17.6991307">
        <ele>40.5128</ele>
        <time>2014-06-06T15:16:02Z</time>
      </trkpt>
      <trkpt lat="59.920792" lon="17.6991351">
        <ele>40.0321</ele>
        <time>2014-06-06T15:16:03Z</time>
      </trkpt>
      <trkpt lat="59.9208351" lon="17.6991333">
        <ele>40.0321</ele>
        <time>2014-06-06T15:16:04Z</time>
      </trkpt>
      <trkpt lat="59.9208818" lon="17.699133">
        <ele>40.0321</ele>
        <time>2014-06-06T15:16:05Z</time>
      </trkpt>
      <trkpt lat="59.9209322" lon="17.6991339">
        <ele>40.5128</ele>
        <time>2014-06-06T15:16:06Z</time>
      </trkpt>
      <trkpt lat="59.9209809" lon="17.6991455">
        <ele>40.5128</ele>
        <time>2014-06-06T15:16:07Z</time>
      </trkpt>
      <trkpt lat="59.9210303" lon="17.6991703">
        <ele>40.5128</ele>
        <time>2014-06-06T15:16:08Z</time>
      </trkpt>
      <trkpt lat="59.9210747" lon="17.6992065">
        <ele>40.0321</ele>
        <time>2014-06-06T15:16:09Z</time>
      </trkpt>
      <trkpt lat="59.9211229" lon="17.6992484">
        <ele>40.5128</ele>
        <time>2014-06-06T15:16:10Z</time>
      </trkpt>
      <trkpt lat="59.9211672" lon="17.6992949">
        <ele>40.5128</ele>
        <time>2014-06-06T15:16:11Z</time>
      </trkpt>
      <trkpt lat="59.9212097" lon="17.6993506">
        <ele>40.5128</ele>
        <time>2014-06-06T15:16:12Z</time>
      </trkpt>
      <trkpt lat="59.9212458" lon="17.6994037">
        <ele>40.9934</ele>
        <time>2014-06-06T15:16:13Z</time>
      </trkpt>
      <trkpt lat="59.9212733" lon="17.6994521">
        <ele>40.5128</ele>
        <time>2014-06-06T15:16:14Z</time>
      </trkpt>
      <trkpt lat="59.9212971" lon="17.6994914">
        <ele>40.0321</ele>
        <time>2014-06-06T15:16:15Z</time>
      </trkpt>
      <trkpt lat="59.9213173" lon="17.699523">
        <ele>40.0321</ele>
        <time>2014-06-06T15:16:16Z</time>
      </trkpt>
      <trkpt lat="59.9213397" lon="17.6995452">
        <ele>40.0321</ele>
        <time>2014-06-06T15:16:17Z</time>
      </trkpt>
      <trkpt lat="59.9213539" lon="17.6995679">
        <ele>40.0321</ele>
        <time>2014-06-06T15:16:18Z</time>
      </trkpt>
      <trkpt lat="59.9213623" lon="17.6995805">
        <ele>40.0321</ele>
        <time>2014-06-06T15:16:19Z</time>
      </trkpt>
      <trkpt lat="59.9213665" lon="17.6995824">
        <ele>40.0321</ele>
        <time>2014-06-06T15:16:20Z</time>
      </trkpt>
      <trkpt lat="59.921369" lon="17.6995819">
        <ele>39.5513</ele>
        <time>2014-06-06T15:16:21Z</time>
      </trkpt>
      <trkpt lat="59.9213727" lon="17.6995815">
        <ele>40.0321</ele>
        <time>2014-06-06T15:16:22Z</time>
      </trkpt>
      <trkpt lat="59.9214338" lon="17.699678">
        <ele>39.5513</ele>
        <time>2014-06-06T15:16:32Z</time>
      </trkpt>
      <trkpt lat="59.9214478" lon="17.6997139">
        <ele>39.0707</ele>
        <time>2014-06-06T15:16:33Z</time>
      </trkpt>
      <trkpt lat="59.9214604" lon="17.6997504">
        <ele>39.0707</ele>
        <time>2014-06-06T15:16:34Z</time>
      </trkpt>
      <trkpt lat="59.9214763" lon="17.6997866">
        <ele>38.5901</ele>
        <time>2014-06-06T15:16:35Z</time>
      </trkpt>
      <trkpt lat="59.9214981" lon="17.699826">
        <ele>38.5901</ele>
        <time>2014-06-06T15:16:36Z</time>
      </trkpt>
      <trkpt lat="59.9215235" lon="17.699869">
        <ele>38.5901</ele>
        <time>2014-06-06T15:16:37Z</time>
      </trkpt>
      <trkpt lat="59.9215512" lon="17.6999172">
        <ele>38.5901</ele>
        <time>2014-06-06T15:16:38Z</time>
      </trkpt>
      <trkpt lat="59.9215799" lon="17.6999761">
        <ele>39.0707</ele>
        <time>2014-06-06T15:16:39Z</time>
      </trkpt>
      <trkpt lat="59.9216106" lon="17.7000336">
        <ele>39.0707</ele>
        <time>2014-06-06T15:16:40Z</time>
      </trkpt>
      <trkpt lat="59.9216427" lon="17.7000921">
        <ele>39.5513</ele>
        <time>2014-06-06T15:16:41Z</time>
      </trkpt>
      <trkpt lat="59.921675" lon="17.7001538">
        <ele>40.0321</ele>
        <time>2014-06-06T15:16:42Z</time>
      </trkpt>
      <trkpt lat="59.9217078" lon="17.7002128">
        <ele>40.0321</ele>
        <time>2014-06-06T15:16:43Z</time>
      </trkpt>
      <trkpt lat="59.9217431" lon="17.7002778">
        <ele>40.0321</ele>
        <time>2014-06-06T15:16:44Z</time>
      </trkpt>
      <trkpt lat="59.9217788" lon="17.7003425">
        <ele>40.0321</ele>
        <time>2014-06-06T15:16:45Z</time>
      </trkpt>
      <trkpt lat="59.921815" lon="17.7004166">
        <ele>40.5128</ele>
        <time>2014-06-06T15:16:46Z</time>
      </trkpt>
      <trkpt lat="59.9218543" lon="17.7004984">
        <ele>41.474</ele>
        <time>2014-06-06T15:16:47Z</time>
      </trkpt>
      <trkpt lat="59.9218932" lon="17.700573">
        <ele>41.9547</ele>
        <time>2014-06-06T15:16:48Z</time>
      </trkpt>
      <trkpt lat="59.9219322" lon="17.7006423">
        <ele>41.9547</ele>
        <time>2014-06-06T15:16:49Z</time>
      </trkpt>
      <trkpt lat="59.9219716" lon="17.7007199">
        <ele>42.4354</ele>
        <time>2014-06-06T15:16:50Z</time>
      </trkpt>
      <trkpt lat="59.9220107" lon="17.700791">
        <ele>42.4354</ele>
        <time>2014-06-06T15:16:51Z</time>
      </trkpt>
      <trkpt lat="59.9220494" lon="17.7008636">
        <ele>42.916</ele>
        <time>2014-06-06T15:16:52Z</time>
      </trkpt>
      <trkpt lat="59.922085" lon="17.7009378">
        <ele>42.916</ele>
        <time>2014-06-06T15:16:53Z</time>
      </trkpt>
      <trkpt lat="59.9221186" lon="17.7010058">
        <ele>42.4354</ele>
        <time>2014-06-06T15:16:54Z</time>
      </trkpt>
      <trkpt lat="59.9221522" lon="17.701073">
        <ele>42.4354</ele>
        <time>2014-06-06T15:16:55Z</time>
      </trkpt>
      <trkpt lat="59.922186" lon="17.7011417">
        <ele>42.4354</ele>
        <time>2014-06-06T15:16:56Z</time>
      </trkpt>
      <trkpt lat="59.9222181" lon="17.7012065">
        <ele>42.4354</ele>
        <time>2014-06-06T15:16:57Z</time>
      </trkpt>
      <trkpt lat="59.9222506" lon="17.7012711">
        <ele>41.9547</ele>
        <time>2014-06-06T15:16:58Z</time>
      </trkpt>
      <trkpt lat="59.9222835" lon="17.7013395">
        <ele>41.474</ele>
        <time>2014-06-06T15:16:59Z</time>
      </trkpt>
      <trkpt lat="59.9223191" lon="17.7014096">
        <ele>40.9934</ele>
        <time>2014-06-06T15:17:00Z</time>
      </trkpt>
      <trkpt lat="59.9223564" lon="17.7014851">
        <ele>40.9934</ele>
        <time>2014-06-06T15:17:01Z</time>
      </trkpt>
      <trkpt lat="59.9223952" lon="17.7015617">
        <ele>40.5128</ele>
        <time>2014-06-06T15:17:02Z</time>
      </trkpt>
      <trkpt lat="59.9224356" lon="17.7016385">
        <ele>40.5128</ele>
        <time>2014-06-06T15:17:03Z</time>
      </trkpt>
      <trkpt lat="59.9224746" lon="17.7017173">
        <ele>40.0321</ele>
        <time>2014-06-06T15:17:04Z</time>
      </trkpt>
      <trkpt lat="59.9225148" lon="17.7017976">
        <ele>40.0321</ele>
        <time>2014-06-06T15:17:05Z</time>
      </trkpt>
      <trkpt lat="59.9225525" lon="17.701869">
        <ele>39.5513</ele>
        <time>2014-06-06T15:17:06Z</time>
      </trkpt>
      <trkpt lat="59.9225898" lon="17.7019419">
        <ele>39.5513</ele>
        <time>2014-06-06T15:17:07Z</time>
      </trkpt>
      <trkpt lat="59.9226294" lon="17.702016">
        <ele>39.5513</ele>
        <time>2014-06-06T15:17:08Z</time>
      </trkpt>
      <trkpt lat="59.9226651" lon="17.7020928">
        <ele>39.5513</ele>
        <time>2014-06-06T15:17:09Z</time>
      </trkpt>
      <trkpt lat="59.9227007" lon="17.7021706">
        <ele>40.0321</ele>
        <time>2014-06-06T15:17:10Z</time>
      </trkpt>
      <trkpt lat="59.9227328" lon="17.7022389">
        <ele>39.5513</ele>
        <time>2014-06-06T15:17:11Z</time>
      </trkpt>
      <trkpt lat="59.9227665" lon="17.7023086">
        <ele>39.5513</ele>
        <time>2014-06-06T15:17:12Z</time>
      </trkpt>
      <trkpt lat="59.9228056" lon="17.7023954">
        <ele>40.0321</ele>
        <time>2014-06-06T15:17:13Z</time>
      </trkpt>
      <trkpt lat="59.9228439" lon="17.7024818">
        <ele>40.0321</ele>
        <time>2014-06-06T15:17:14Z</time>
      </trkpt>
      <trkpt lat="59.922879" lon="17.7025609">
        <ele>40.0321</ele>
        <time>2014-06-06T15:17:15Z</time>
      </trkpt>
      <trkpt lat="59.9229133" lon="17.7026397">
        <ele>40.0321</ele>
        <time>2014-06-06T15:17:16Z</time>
      </trkpt>
      <trkpt lat="59.922944" lon="17.7027159">
        <ele>39.5513</ele>
        <time>2014-06-06T15:17:17Z</time>
      </trkpt>
      <trkpt lat="59.9229744" lon="17.7027943">
        <ele>39.5513</ele>
        <time>2014-06-06T15:17:18Z</time>
      </trkpt>
      <trkpt lat="59.923006" lon="17.7028719">
        <ele>39.5513</ele>
        <time>2014-06-06T15:17:19Z</time>
      </trkpt>
      <trkpt lat="59.9230413" lon="17.7029517">
        <ele>39.5513</ele>
        <time>2014-06-06T15:17:20Z</time>
      </trkpt>
      <trkpt lat="59.9230706" lon="17.703031">
        <ele>39.0707</ele>
        <time>2014-06-06T15:17:21Z</time>
      </trkpt>
      <trkpt lat="59.923097" lon="17.7031116">
        <ele>39.0707</ele>
        <time>2014-06-06T15:17:22Z</time>
      </trkpt>
      <trkpt lat="59.9231152" lon="17.7031998">
        <ele>39.0707</ele>
        <time>2014-06-06T15:17:23Z</time>
      </trkpt>
      <trkpt lat="59.9231327" lon="17.703292">
        <ele>39.0707</ele>
        <time>2014-06-06T15:17:24Z</time>
      </trkpt>
      <trkpt lat="59.9231547" lon="17.7033828">
        <ele>39.0707</ele>
        <time>2014-06-06T15:17:25Z</time>
      </trkpt>
      <trkpt lat="59.9231779" lon="17.7034762">
        <ele>39.0707</ele>
        <time>2014-06-06T15:17:26Z</time>
      </trkpt>
      <trkpt lat="59.923196" lon="17.703566">
        <ele>39.0707</ele>
        <time>2014-06-06T15:17:27Z</time>
      </trkpt>
      <trkpt lat="59.9232131" lon="17.7036513">
        <ele>38.5901</ele>
        <time>2014-06-06T15:17:28Z</time>
      </trkpt>
      <trkpt lat="59.9232323" lon="17.703738">
        <ele>38.5901</ele>
        <time>2014-06-06T15:17:29Z</time>
      </trkpt>
      <trkpt lat="59.9232514" lon="17.7038316">
        <ele>38.5901</ele>
        <time>2014-06-06T15:17:30Z</time>
      </trkpt>
      <trkpt lat="59.9232772" lon="17.7039277">
        <ele>39.0707</ele>
        <time>2014-06-06T15:17:31Z</time>
      </trkpt>
      <trkpt lat="59.9233068" lon="17.704026">
        <ele>39.5513</ele>
        <time>2014-06-06T15:17:32Z</time>
      </trkpt>
      <trkpt lat="59.9233337" lon="17.7041258">
        <ele>39.5513</ele>
        <time>2014-06-06T15:17:33Z</time>
      </trkpt>
      <trkpt lat="59.9233576" lon="17.704226">
        <ele>40.0321</ele>
        <time>2014-06-06T15:17:34Z</time>
      </trkpt>
      <trkpt lat="59.9233822" lon="17.7043243">
        <ele>40.5128</ele>
        <time>2014-06-06T15:17:35Z</time>
      </trkpt>
      <trkpt lat="59.9234094" lon="17.7044131">
        <ele>40.5128</ele>
        <time>2014-06-06T15:17:36Z</time>
      </trkpt>
      <trkpt lat="59.9234391" lon="17.7044978">
        <ele>40.5128</ele>
        <time>2014-06-06T15:17:37Z</time>
      </trkpt>
      <trkpt lat="59.9234677" lon="17.7045891">
        <ele>40.0321</ele>
        <time>2014-06-06T15:17:38Z</time>
      </trkpt>
      <trkpt lat="59.9234997" lon="17.7046853">
        <ele>40.0321</ele>
        <time>2014-06-06T15:17:39Z</time>
      </trkpt>
      <trkpt lat="59.9235339" lon="17.7047806">
        <ele>40.0321</ele>
        <time>2014-06-06T15:17:40Z</time>
      </trkpt>
      <trkpt lat="59.9235671" lon="17.7048688">
        <ele>39.5513</ele>
        <time>2014-06-06T15:17:41Z</time>
      </trkpt>
      <trkpt lat="59.9236012" lon="17.7049543">
        <ele>39.5513</ele>
        <time>2014-06-06T15:17:42Z</time>
      </trkpt>
      <trkpt lat="59.9236333" lon="17.7050363">
        <ele>39.5513</ele>
        <time>2014-06-06T15:17:43Z</time>
      </trkpt>
      <trkpt lat="59.9236622" lon="17.7051118">
        <ele>39.0707</ele>
        <time>2014-06-06T15:17:44Z</time>
      </trkpt>
      <trkpt lat="59.9236893" lon="17.7051945">
        <ele>39.0707</ele>
        <time>2014-06-06T15:17:45Z</time>
      </trkpt>
      <trkpt lat="59.9237176" lon="17.7052765">
        <ele>39.0707</ele>
        <time>2014-06-06T15:17:46Z</time>
      </trkpt>
      <trkpt lat="59.9237443" lon="17.7053603">
        <ele>38.5901</ele>
        <time>2014-06-06T15:17:47Z</time>
      </trkpt>
      <trkpt lat="59.9237733" lon="17.705449">
        <ele>39.0707</ele>
        <time>2014-06-06T15:17:48Z</time>
      </trkpt>
      <trkpt lat="59.9238017" lon="17.7055283">
        <ele>39.0707</ele>
        <time>2014-06-06T15:17:49Z</time>
      </trkpt>
      <trkpt lat="59.9238317" lon="17.705606">
        <ele>39.0707</ele>
        <time>2014-06-06T15:17:50Z</time>
      </trkpt>
      <trkpt lat="59.9238613" lon="17.7056851">
        <ele>39.0707</ele>
        <time>2014-06-06T15:17:51Z</time>
      </trkpt>
      <trkpt lat="59.9238904" lon="17.7057628">
        <ele>39.0707</ele>
        <time>2014-06-06T15:17:52Z</time>
      </trkpt>
      <trkpt lat="59.9239198" lon="17.7058392">
        <ele>39.0707</ele>
        <time>2014-06-06T15:17:53Z</time>
      </trkpt>
      <trkpt lat="59.9239478" lon="17.7059183">
        <ele>39.0707</ele>
        <time>2014-06-06T15:17:54Z</time>
      </trkpt>
      <trkpt lat="59.9239752" lon="17.7059955">
        <ele>39.0707</ele>
        <time>2014-06-06T15:17:55Z</time>
      </trkpt>
      <trkpt lat="59.9240053" lon="17.7060691">
        <ele>38.5901</ele>
        <time>2014-06-06T15:17:56Z</time>
      </trkpt>
      <trkpt lat="59.9240333" lon="17.7061497">
        <ele>39.0707</ele>
        <time>2014-06-06T15:17:57Z</time>
      </trkpt>
      <trkpt lat="59.9240647" lon="17.7062245">
        <ele>39.0707</ele>
        <time>2014-06-06T15:17:58Z</time>
      </trkpt>
      <trkpt lat="59.9240978" lon="17.7062957">
        <ele>39.0707</ele>
        <time>2014-06-06T15:17:59Z</time>
      </trkpt>
      <trkpt lat="59.9241332" lon="17.7063712">
        <ele>39.0707</ele>
        <time>2014-06-06T15:18:00Z</time>
      </trkpt>
      <trkpt lat="59.9241674" lon="17.7064472">
        <ele>38.5901</ele>
        <time>2014-06-06T15:18:01Z</time>
      </trkpt>
      <trkpt lat="59.9242007" lon="17.7065326">
        <ele>38.5901</ele>
        <time>2014-06-06T15:18:02Z</time>
      </trkpt>
      <trkpt lat="59.9242347" lon="17.7066201">
        <ele>38.5901</ele>
        <time>2014-06-06T15:18:03Z</time>
      </trkpt>
      <trkpt lat="59.9242706" lon="17.7067171">
        <ele>39.0707</ele>
        <time>2014-06-06T15:18:04Z</time>
      </trkpt>
      <trkpt lat="59.9243073" lon="17.7068083">
        <ele>39.0707</ele>
        <time>2014-06-06T15:18:05Z</time>
      </trkpt>
      <trkpt lat="59.924344" lon="17.7069023">
        <ele>39.5513</ele>
        <time>2014-06-06T15:18:06Z</time>
      </trkpt>
      <trkpt lat="59.9243801" lon="17.7069963">
        <ele>39.5513</ele>
        <time>2014-06-06T15:18:07Z</time>
      </trkpt>
      <trkpt lat="59.9244189" lon="17.7070942">
        <ele>40.0321</ele>
        <time>2014-06-06T15:18:08Z</time>
      </trkpt>
      <trkpt lat="59.9244542" lon="17.7071907">
        <ele>40.0321</ele>
        <time>2014-06-06T15:18:09Z</time>
      </trkpt>
      <trkpt lat="59.924488" lon="17.7072815">
        <ele>40.0321</ele>
        <time>2014-06-06T15:18:10Z</time>
      </trkpt>
      <trkpt lat="59.9245226" lon="17.7073758">
        <ele>40.0321</ele>
        <time>2014-06-06T15:18:11Z</time>
      </trkpt>
      <trkpt lat="59.9245568" lon="17.7074687">
        <ele>40.0321</ele>
        <time>2014-06-06T15:18:12Z</time>
      </trkpt>
      <trkpt lat="59.9245896" lon="17.7075651">
        <ele>40.5128</ele>
        <time>2014-06-06T15:18:13Z</time>
      </trkpt>
      <trkpt lat="59.924622" lon="17.7076621">
        <ele>40.5128</ele>
        <time>2014-06-06T15:18:14Z</time>
      </trkpt>
      <trkpt lat="59.924648" lon="17.7077574">
        <ele>40.5128</ele>
        <time>2014-06-06T15:18:15Z</time>
      </trkpt>
      <trkpt lat="59.92467" lon="17.7078625">
        <ele>40.5128</ele>
        <time>2014-06-06T15:18:16Z</time>
      </trkpt>
      <trkpt lat="59.9246879" lon="17.7079717">
        <ele>40.5128</ele>
        <time>2014-06-06T15:18:17Z</time>
      </trkpt>
      <trkpt lat="59.9247016" lon="17.7080821">
        <ele>40.9934</ele>
        <time>2014-06-06T15:18:18Z</time>
      </trkpt>
      <trkpt lat="59.9247127" lon="17.7081924">
        <ele>40.9934</ele>
        <time>2014-06-06T15:18:19Z</time>
      </trkpt>
      <trkpt lat="59.924722" lon="17.708302">
        <ele>40.9934</ele>
        <time>2014-06-06T15:18:20Z</time>
      </trkpt>
      <trkpt lat="59.9247268" lon="17.7084124">
        <ele>41.474</ele>
        <time>2014-06-06T15:18:21Z</time>
      </trkpt>
      <trkpt lat="59.9247306" lon="17.7085218">
        <ele>41.474</ele>
        <time>2014-06-06T15:18:22Z</time>
      </trkpt>
      <trkpt lat="59.9247357" lon="17.7086307">
        <ele>41.474</ele>
        <time>2014-06-06T15:18:23Z</time>
      </trkpt>
      <trkpt lat="59.9247406" lon="17.7087411">
        <ele>41.474</ele>
        <time>2014-06-06T15:18:24Z</time>
      </trkpt>
      <trkpt lat="59.9247466" lon="17.7088528">
        <ele>41.474</ele>
        <time>2014-06-06T15:18:25Z</time>
      </trkpt>
      <trkpt lat="59.9247508" lon="17.7089678">
        <ele>41.474</ele>
        <time>2014-06-06T15:18:26Z</time>
      </trkpt>
      <trkpt lat="59.9247549" lon="17.7090838">
        <ele>41.474</ele>
        <time>2014-06-06T15:18:27Z</time>
      </trkpt>
      <trkpt lat="59.924761" lon="17.7092007">
        <ele>41.474</ele>
        <time>2014-06-06T15:18:28Z</time>
      </trkpt>
      <trkpt lat="59.9247673" lon="17.7093205">
        <ele>41.474</ele>
        <time>2014-06-06T15:18:29Z</time>
      </trkpt>
      <trkpt lat="59.9247729" lon="17.7094408">
        <ele>41.9547</ele>
        <time>2014-06-06T15:18:30Z</time>
      </trkpt>
      <trkpt lat="59.9247779" lon="17.7095592">
        <ele>41.9547</ele>
        <time>2014-06-06T15:18:31Z</time>
      </trkpt>
      <trkpt lat="59.9247828" lon="17.7096773">
        <ele>41.9547</ele>
        <time>2014-06-06T15:18:32Z</time>
      </trkpt>
      <trkpt lat="59.9247899" lon="17.7097956">
        <ele>42.4354</ele>
        <time>2014-06-06T15:18:33Z</time>
      </trkpt>
      <trkpt lat="59.9248031" lon="17.7099097">
        <ele>42.4354</ele>
        <time>2014-06-06T15:18:34Z</time>
      </trkpt>
      <trkpt lat="59.9248251" lon="17.7100179">
        <ele>41.9547</ele>
        <time>2014-06-06T15:18:35Z</time>
      </trkpt>
      <trkpt lat="59.9248535" lon="17.7101225">
        <ele>41.9547</ele>
        <time>2014-06-06T15:18:36Z</time>
      </trkpt>
      <trkpt lat="59.9248881" lon="17.7102202">
        <ele>41.9547</ele>
        <time>2014-06-06T15:18:37Z</time>
      </trkpt>
      <trkpt lat="59.9249304" lon="17.7103048">
        <ele>41.9547</ele>
        <time>2014-06-06T15:18:38Z</time>
      </trkpt>
      <trkpt lat="59.9249751" lon="17.7103768">
        <ele>42.4354</ele>
        <time>2014-06-06T15:18:39Z</time>
      </trkpt>
      <trkpt lat="59.9250206" lon="17.7104323">
        <ele>42.4354</ele>
        <time>2014-06-06T15:18:40Z</time>
      </trkpt>
      <trkpt lat="59.9250665" lon="17.710483">
        <ele>42.916</ele>
        <time>2014-06-06T15:18:41Z</time>
      </trkpt>
      <trkpt lat="59.9251064" lon="17.7105284">
        <ele>42.916</ele>
        <time>2014-06-06T15:18:42Z</time>
      </trkpt>
      <trkpt lat="59.9251448" lon="17.7105701">
        <ele>42.916</ele>
        <time>2014-06-06T15:18:43Z</time>
      </trkpt>
      <trkpt lat="59.9251847" lon="17.7106032">
        <ele>42.4354</ele>
        <time>2014-06-06T15:18:44Z</time>
      </trkpt>
      <trkpt lat="59.9252227" lon="17.7106418">
        <ele>42.4354</ele>
        <time>2014-06-06T15:18:45Z</time>
      </trkpt>
      <trkpt lat="59.9252702" lon="17.7106824">
        <ele>42.916</ele>
        <time>2014-06-06T15:18:46Z</time>
      </trkpt>
      <trkpt lat="59.925313" lon="17.710726">
        <ele>43.3966</ele>
        <time>2014-06-06T15:18:47Z</time>
      </trkpt>
      <trkpt lat="59.9253565" lon="17.7107708">
        <ele>44.358</ele>
        <time>2014-06-06T15:18:48Z</time>
      </trkpt>
      <trkpt lat="59.9254122" lon="17.7108166">
        <ele>45.3192</ele>
        <time>2014-06-06T15:18:49Z</time>
      </trkpt>
      <trkpt lat="59.925467" lon="17.7108538">
        <ele>45.3192</ele>
        <time>2014-06-06T15:18:50Z</time>
      </trkpt>
      <trkpt lat="59.9255228" lon="17.7108897">
        <ele>45.3192</ele>
        <time>2014-06-06T15:18:51Z</time>
      </trkpt>
      <trkpt lat="59.9255805" lon="17.7109358">
        <ele>46.2806</ele>
        <time>2014-06-06T15:18:52Z</time>
      </trkpt>
      <trkpt lat="59.9256385" lon="17.7109824">
        <ele>47.2418</ele>
        <time>2014-06-06T15:18:53Z</time>
      </trkpt>
      <trkpt lat="59.9256867" lon="17.711032">
        <ele>47.7225</ele>
        <time>2014-06-06T15:18:54Z</time>
      </trkpt>
      <trkpt lat="59.9257342" lon="17.711082">
        <ele>48.684</ele>
        <time>2014-06-06T15:18:55Z</time>
      </trkpt>
      <trkpt lat="59.9257815" lon="17.7111298">
        <ele>49.6453</ele>
        <time>2014-06-06T15:18:56Z</time>
      </trkpt>
      <trkpt lat="59.9258328" lon="17.7111786">
        <ele>51.5679</ele>
        <time>2014-06-06T15:18:57Z</time>
      </trkpt>
      <trkpt lat="59.9258811" lon="17.7112172">
        <ele>52.5292</ele>
        <time>2014-06-06T15:18:58Z</time>
      </trkpt>
      <trkpt lat="59.9259305" lon="17.711263">
        <ele>53.4905</ele>
        <time>2014-06-06T15:18:59Z</time>
      </trkpt>
      <trkpt lat="59.9259699" lon="17.7113035">
        <ele>53.4905</ele>
        <time>2014-06-06T15:19:00Z</time>
      </trkpt>
      <trkpt lat="59.9260088" lon="17.7113382">
        <ele>53.4905</ele>
        <time>2014-06-06T15:19:01Z</time>
      </trkpt>
      <trkpt lat="59.926054" lon="17.711371">
        <ele>53.4905</ele>
        <time>2014-06-06T15:19:02Z</time>
      </trkpt>
      <trkpt lat="59.9261022" lon="17.7114087">
        <ele>53.4905</ele>
        <time>2014-06-06T15:19:03Z</time>
      </trkpt>
      <trkpt lat="59.9261496" lon="17.7114491">
        <ele>53.4905</ele>
        <time>2014-06-06T15:19:04Z</time>
      </trkpt>
      <trkpt lat="59.9261979" lon="17.7114964">
        <ele>53.9712</ele>
        <time>2014-06-06T15:19:05Z</time>
      </trkpt>
      <trkpt lat="59.9262449" lon="17.7115418">
        <ele>53.9712</ele>
        <time>2014-06-06T15:19:06Z</time>
      </trkpt>
      <trkpt lat="59.9262891" lon="17.7115854">
        <ele>53.9712</ele>
        <time>2014-06-06T15:19:07Z</time>
      </trkpt>
      <trkpt lat="59.9263347" lon="17.7116344">
        <ele>53.4905</ele>
        <time>2014-06-06T15:19:08Z</time>
      </trkpt>
      <trkpt lat="59.9263858" lon="17.7116895">
        <ele>53.4905</ele>
        <time>2014-06-06T15:19:09Z</time>
      </trkpt>
      <trkpt lat="59.9264345" lon="17.7117613">
        <ele>54.4518</ele>
        <time>2014-06-06T15:19:10Z</time>
      </trkpt>
      <trkpt lat="59.9264815" lon="17.711822">
        <ele>53.9712</ele>
        <time>2014-06-06T15:19:11Z</time>
      </trkpt>
      <trkpt lat="59.9265257" lon="17.7118858">
        <ele>53.4905</ele>
        <time>2014-06-06T15:19:12Z</time>
      </trkpt>
      <trkpt lat="59.9265702" lon="17.7119512">
        <ele>53.0098</ele>
        <time>2014-06-06T15:19:13Z</time>
      </trkpt>
      <trkpt lat="59.9266119" lon="17.7120215">
        <ele>52.5292</ele>
        <time>2014-06-06T15:19:14Z</time>
      </trkpt>
      <trkpt lat="59.9266521" lon="17.7120899">
        <ele>52.0486</ele>
        <time>2014-06-06T15:19:15Z</time>
      </trkpt>
      <trkpt lat="59.9266922" lon="17.7121558">
        <ele>51.5679</ele>
        <time>2014-06-06T15:19:16Z</time>
      </trkpt>
      <trkpt lat="59.9267347" lon="17.7122251">
        <ele>51.0872</ele>
        <time>2014-06-06T15:19:17Z</time>
      </trkpt>
      <trkpt lat="59.9267809" lon="17.712297">
        <ele>50.6066</ele>
        <time>2014-06-06T15:19:18Z</time>
      </trkpt>
      <trkpt lat="59.9268279" lon="17.7123715">
        <ele>50.6066</ele>
        <time>2014-06-06T15:19:19Z</time>
      </trkpt>
      <trkpt lat="59.9268766" lon="17.7124471">
        <ele>50.126</ele>
        <time>2014-06-06T15:19:20Z</time>
      </trkpt>
      <trkpt lat="59.9269241" lon="17.7125187">
        <ele>49.6453</ele>
        <time>2014-06-06T15:19:21Z</time>
      </trkpt>
      <trkpt lat="59.9269707" lon="17.7126001">
        <ele>49.6453</ele>
        <time>2014-06-06T15:19:22Z</time>
      </trkpt>
      <trkpt lat="59.9270171" lon="17.7126816">
        <ele>49.1646</ele>
        <time>2014-06-06T15:19:23Z</time>
      </trkpt>
      <trkpt lat="59.9270652" lon="17.7127649">
        <ele>49.1646</ele>
        <time>2014-06-06T15:19:24Z</time>
      </trkpt>
      <trkpt lat="59.9271127" lon="17.7128444">
        <ele>49.1646</ele>
        <time>2014-06-06T15:19:25Z</time>
      </trkpt>
      <trkpt lat="59.9271598" lon="17.7129191">
        <ele>49.1646</ele>
        <time>2014-06-06T15:19:26Z</time>
      </trkpt>
      <trkpt lat="59.9272079" lon="17.7129978">
        <ele>48.684</ele>
        <time>2014-06-06T15:19:27Z</time>
      </trkpt>
      <trkpt lat="59.9272561" lon="17.713076">
        <ele>48.684</ele>
        <time>2014-06-06T15:19:28Z</time>
      </trkpt>
      <trkpt lat="59.9273028" lon="17.7131508">
        <ele>48.2034</ele>
        <time>2014-06-06T15:19:29Z</time>
      </trkpt>
      <trkpt lat="59.9273502" lon="17.7132399">
        <ele>48.2034</ele>
        <time>2014-06-06T15:19:30Z</time>
      </trkpt>
      <trkpt lat="59.927398" lon="17.7133198">
        <ele>48.2034</ele>
        <time>2014-06-06T15:19:31Z</time>
      </trkpt>
      <trkpt lat="59.9274469" lon="17.7133977">
        <ele>47.7225</ele>
        <time>2014-06-06T15:19:32Z</time>
      </trkpt>
      <trkpt lat="59.9274951" lon="17.7134745">
        <ele>47.2418</ele>
        <time>2014-06-06T15:19:33Z</time>
      </trkpt>
      <trkpt lat="59.9275407" lon="17.7135502">
        <ele>46.7612</ele>
        <time>2014-06-06T15:19:34Z</time>
      </trkpt>
      <trkpt lat="59.9275868" lon="17.7136299">
        <ele>46.7612</ele>
        <time>2014-06-06T15:19:35Z</time>
      </trkpt>
      <trkpt lat="59.9276329" lon="17.7137088">
        <ele>46.2806</ele>
        <time>2014-06-06T15:19:36Z</time>
      </trkpt>
      <trkpt lat="59.927682" lon="17.71379">
        <ele>46.2806</ele>
        <time>2014-06-06T15:19:37Z</time>
      </trkpt>
      <trkpt lat="59.9277291" lon="17.7138682">
        <ele>45.7999</ele>
        <time>2014-06-06T15:19:38Z</time>
      </trkpt>
      <trkpt lat="59.9277795" lon="17.7139506">
        <ele>45.7999</ele>
        <time>2014-06-06T15:19:39Z</time>
      </trkpt>
      <trkpt lat="59.9278261" lon="17.7140369">
        <ele>45.3192</ele>
        <time>2014-06-06T15:19:40Z</time>
      </trkpt>
      <trkpt lat="59.9278747" lon="17.7141205">
        <ele>45.3192</ele>
        <time>2014-06-06T15:19:41Z</time>
      </trkpt>
      <trkpt lat="59.9279217" lon="17.7142107">
        <ele>44.8386</ele>
        <time>2014-06-06T15:19:42Z</time>
      </trkpt>
      <trkpt lat="59.9279696" lon="17.7142986">
        <ele>44.358</ele>
        <time>2014-06-06T15:19:43Z</time>
      </trkpt>
      <trkpt lat="59.9280162" lon="17.7143873">
        <ele>44.358</ele>
        <time>2014-06-06T15:19:44Z</time>
      </trkpt>
      <trkpt lat="59.9280634" lon="17.7144718">
        <ele>43.8773</ele>
        <time>2014-06-06T15:19:45Z</time>
      </trkpt>
      <trkpt lat="59.9281114" lon="17.7145587">
        <ele>43.3966</ele>
        <time>2014-06-06T15:19:46Z</time>
      </trkpt>
      <trkpt lat="59.9281588" lon="17.7146482">
        <ele>43.3966</ele>
        <time>2014-06-06T15:19:47Z</time>
      </trkpt>
      <trkpt lat="59.9282058" lon="17.7147379">
        <ele>43.3966</ele>
        <time>2014-06-06T15:19:48Z</time>
      </trkpt>
      <trkpt lat="59.9282527" lon="17.7148277">
        <ele>43.3966</ele>
        <time>2014-06-06T15:19:49Z</time>
      </trkpt>
      <trkpt lat="59.928298" lon="17.7149171">
        <ele>43.3966</ele>
        <time>2014-06-06T15:19:50Z</time>
      </trkpt>
      <trkpt lat="59.9283425" lon="17.7150105">
        <ele>43.8773</ele>
        <time>2014-06-06T15:19:51Z</time>
      </trkpt>
      <trkpt lat="59.9283824" lon="17.7151102">
        <ele>43.8773</ele>
        <time>2014-06-06T15:19:52Z</time>
      </trkpt>
      <trkpt lat="59.9284121" lon="17.7152172">
        <ele>44.358</ele>
        <time>2014-06-06T15:19:53Z</time>
      </trkpt>
      <trkpt lat="59.9284304" lon="17.71533">
        <ele>44.358</ele>
        <time>2014-06-06T15:19:54Z</time>
      </trkpt>
      <trkpt lat="59.928441" lon="17.715444">
        <ele>44.8386</ele>
        <time>2014-06-06T15:19:55Z</time>
      </trkpt>
      <trkpt lat="59.9284472" lon="17.7155511">
        <ele>45.3192</ele>
        <time>2014-06-06T15:19:56Z</time>
      </trkpt>
      <trkpt lat="59.9284496" lon="17.7156533">
        <ele>45.3192</ele>
        <time>2014-06-06T15:19:57Z</time>
      </trkpt>
      <trkpt lat="59.9284482" lon="17.7157549">
        <ele>45.3192</ele>
        <time>2014-06-06T15:19:58Z</time>
      </trkpt>
      <trkpt lat="59.9284444" lon="17.7158562">
        <ele>45.3192</ele>
        <time>2014-06-06T15:19:59Z</time>
      </trkpt>
      <trkpt lat="59.9284399" lon="17.7159561">
        <ele>45.3192</ele>
        <time>2014-06-06T15:20:00Z</time>
      </trkpt>
      <trkpt lat="59.9284343" lon="17.7160552">
        <ele>45.3192</ele>
        <time>2014-06-06T15:20:01Z</time>
      </trkpt>
      <trkpt lat="59.9284296" lon="17.7161526">
        <ele>45.3192</ele>
        <time>2014-06-06T15:20:02Z</time>
      </trkpt>
      <trkpt lat="59.9284239" lon="17.716248">
        <ele>45.3192</ele>
        <time>2014-06-06T15:20:03Z</time>
      </trkpt>
      <trkpt lat="59.9284182" lon="17.7163417">
        <ele>45.3192</ele>
        <time>2014-06-06T15:20:04Z</time>
      </trkpt>
      <trkpt lat="59.9284129" lon="17.7164389">
        <ele>45.3192</ele>
        <time>2014-06-06T15:20:05Z</time>
      </trkpt>
      <trkpt lat="59.9284063" lon="17.7165425">
        <ele>44.8386</ele>
        <time>2014-06-06T15:20:06Z</time>
      </trkpt>
      <trkpt lat="59.9283995" lon="17.7166494">
        <ele>44.8386</ele>
        <time>2014-06-06T15:20:07Z</time>
      </trkpt>
      <trkpt lat="59.9283941" lon="17.7167559">
        <ele>45.3192</ele>
        <time>2014-06-06T15:20:08Z</time>
      </trkpt>
      <trkpt lat="59.9283885" lon="17.7168638">
        <ele>44.8386</ele>
        <time>2014-06-06T15:20:09Z</time>
      </trkpt>
      <trkpt lat="59.9283815" lon="17.7169766">
        <ele>44.8386</ele>
        <time>2014-06-06T15:20:10Z</time>
      </trkpt>
      <trkpt lat="59.9283752" lon="17.717087">
        <ele>44.8386</ele>
        <time>2014-06-06T15:20:11Z</time>
      </trkpt>
      <trkpt lat="59.9283669" lon="17.7171921">
        <ele>44.8386</ele>
        <time>2014-06-06T15:20:12Z</time>
      </trkpt>
      <trkpt lat="59.9283581" lon="17.7172995">
        <ele>44.358</ele>
        <time>2014-06-06T15:20:13Z</time>
      </trkpt>
      <trkpt lat="59.9283508" lon="17.7174097">
        <ele>44.358</ele>
        <time>2014-06-06T15:20:14Z</time>
      </trkpt>
      <trkpt lat="59.928345" lon="17.7175212">
        <ele>44.358</ele>
        <time>2014-06-06T15:20:15Z</time>
      </trkpt>
      <trkpt lat="59.9283384" lon="17.7176339">
        <ele>44.358</ele>
        <time>2014-06-06T15:20:16Z</time>
      </trkpt>
      <trkpt lat="59.92833" lon="17.7177471">
        <ele>43.8773</ele>
        <time>2014-06-06T15:20:17Z</time>
      </trkpt>
      <trkpt lat="59.9283208" lon="17.7178626">
        <ele>43.8773</ele>
        <time>2014-06-06T15:20:18Z</time>
      </trkpt>
      <trkpt lat="59.928314" lon="17.7179753">
        <ele>43.8773</ele>
        <time>2014-06-06T15:20:19Z</time>
      </trkpt>
      <trkpt lat="59.9283085" lon="17.7180846">
        <ele>43.3966</ele>
        <time>2014-06-06T15:20:20Z</time>
      </trkpt>
      <trkpt lat="59.9283022" lon="17.7181922">
        <ele>43.8773</ele>
        <time>2014-06-06T15:20:21Z</time>
      </trkpt>
      <trkpt lat="59.9282979" lon="17.7182925">
        <ele>43.8773</ele>
        <time>2014-06-06T15:20:22Z</time>
      </trkpt>
      <trkpt lat="59.9282927" lon="17.7183905">
        <ele>43.8773</ele>
        <time>2014-06-06T15:20:23Z</time>
      </trkpt>
      <trkpt lat="59.9282871" lon="17.7184861">
        <ele>43.8773</ele>
        <time>2014-06-06T15:20:24Z</time>
      </trkpt>
      <trkpt lat="59.9282817" lon="17.718579">
        <ele>43.8773</ele>
        <time>2014-06-06T15:20:25Z</time>
      </trkpt>
      <trkpt lat="59.9282761" lon="17.7186715">
        <ele>43.8773</ele>
        <time>2014-06-06T15:20:26Z</time>
      </trkpt>
      <trkpt lat="59.9282695" lon="17.7187676">
        <ele>43.3966</ele>
        <time>2014-06-06T15:20:27Z</time>
      </trkpt>
      <trkpt lat="59.9282611" lon="17.7188723">
        <ele>43.3966</ele>
        <time>2014-06-06T15:20:28Z</time>
      </trkpt>
      <trkpt lat="59.9282514" lon="17.7189836">
        <ele>43.3966</ele>
        <time>2014-06-06T15:20:29Z</time>
      </trkpt>
      <trkpt lat="59.9282413" lon="17.7191018">
        <ele>43.3966</ele>
        <time>2014-06-06T15:20:30Z</time>
      </trkpt>
      <trkpt lat="59.9282317" lon="17.7192254">
        <ele>43.3966</ele>
        <time>2014-06-06T15:20:31Z</time>
      </trkpt>
      <trkpt lat="59.9282225" lon="17.7193457">
        <ele>42.916</ele>
        <time>2014-06-06T15:20:32Z</time>
      </trkpt>
      <trkpt lat="59.9282134" lon="17.7194648">
        <ele>42.916</ele>
        <time>2014-06-06T15:20:33Z</time>
      </trkpt>
      <trkpt lat="59.928202" lon="17.719585">
        <ele>42.916</ele>
        <time>2014-06-06T15:20:34Z</time>
      </trkpt>
      <trkpt lat="59.9281903" lon="17.7197041">
        <ele>42.916</ele>
        <time>2014-06-06T15:20:35Z</time>
      </trkpt>
      <trkpt lat="59.9281805" lon="17.7198195">
        <ele>42.916</ele>
        <time>2014-06-06T15:20:36Z</time>
      </trkpt>
      <trkpt lat="59.9281699" lon="17.7199299">
        <ele>42.916</ele>
        <time>2014-06-06T15:20:37Z</time>
      </trkpt>
      <trkpt lat="59.9281598" lon="17.7200388">
        <ele>42.916</ele>
        <time>2014-06-06T15:20:38Z</time>
      </trkpt>
      <trkpt lat="59.9281499" lon="17.7201499">
        <ele>42.916</ele>
        <time>2014-06-06T15:20:39Z</time>
      </trkpt>
      <trkpt lat="59.9281385" lon="17.7202645">
        <ele>42.4354</ele>
        <time>2014-06-06T15:20:40Z</time>
      </trkpt>
      <trkpt lat="59.9281275" lon="17.7203828">
        <ele>42.4354</ele>
        <time>2014-06-06T15:20:41Z</time>
      </trkpt>
      <trkpt lat="59.9281166" lon="17.7205046">
        <ele>42.4354</ele>
        <time>2014-06-06T15:20:42Z</time>
      </trkpt>
      <trkpt lat="59.9281047" lon="17.7206308">
        <ele>41.9547</ele>
        <time>2014-06-06T15:20:43Z</time>
      </trkpt>
      <trkpt lat="59.9280949" lon="17.7207597">
        <ele>41.9547</ele>
        <time>2014-06-06T15:20:44Z</time>
      </trkpt>
      <trkpt lat="59.9280855" lon="17.7208831">
        <ele>42.4354</ele>
        <time>2014-06-06T15:20:45Z</time>
      </trkpt>
      <trkpt lat="59.9280833" lon="17.721001">
        <ele>42.4354</ele>
        <time>2014-06-06T15:20:46Z</time>
      </trkpt>
      <trkpt lat="59.9280888" lon="17.7211179">
        <ele>41.9547</ele>
        <time>2014-06-06T15:20:47Z</time>
      </trkpt>
      <trkpt lat="59.9281016" lon="17.7212341">
        <ele>42.4354</ele>
        <time>2014-06-06T15:20:48Z</time>
      </trkpt>
      <trkpt lat="59.9281163" lon="17.7213481">
        <ele>42.4354</ele>
        <time>2014-06-06T15:20:49Z</time>
      </trkpt>
      <trkpt lat="59.9281316" lon="17.7214591">
        <ele>42.4354</ele>
        <time>2014-06-06T15:20:50Z</time>
      </trkpt>
      <trkpt lat="59.9281483" lon="17.721571">
        <ele>42.916</ele>
        <time>2014-06-06T15:20:51Z</time>
      </trkpt>
      <trkpt lat="59.928169" lon="17.7216798">
        <ele>42.916</ele>
        <time>2014-06-06T15:20:52Z</time>
      </trkpt>
      <trkpt lat="59.9281886" lon="17.7217907">
        <ele>42.916</ele>
        <time>2014-06-06T15:20:53Z</time>
      </trkpt>
      <trkpt lat="59.9282049" lon="17.7219051">
        <ele>42.916</ele>
        <time>2014-06-06T15:20:54Z</time>
      </trkpt>
      <trkpt lat="59.9282223" lon="17.7220228">
        <ele>42.916</ele>
        <time>2014-06-06T15:20:55Z</time>
      </trkpt>
      <trkpt lat="59.9282391" lon="17.7221465">
        <ele>42.4354</ele>
        <time>2014-06-06T15:20:56Z</time>
      </trkpt>
      <trkpt lat="59.9282555" lon="17.722274">
        <ele>42.4354</ele>
        <time>2014-06-06T15:20:57Z</time>
      </trkpt>
      <trkpt lat="59.9282716" lon="17.7224043">
        <ele>42.4354</ele>
        <time>2014-06-06T15:20:58Z</time>
      </trkpt>
      <trkpt lat="59.9282871" lon="17.7225335">
        <ele>42.4354</ele>
        <time>2014-06-06T15:20:59Z</time>
      </trkpt>
      <trkpt lat="59.9283005" lon="17.7226594">
        <ele>42.4354</ele>
        <time>2014-06-06T15:21:00Z</time>
      </trkpt>
      <trkpt lat="59.9283125" lon="17.7227809">
        <ele>42.4354</ele>
        <time>2014-06-06T15:21:01Z</time>
      </trkpt>
      <trkpt lat="59.928327" lon="17.7228962">
        <ele>41.9547</ele>
        <time>2014-06-06T15:21:02Z</time>
      </trkpt>
      <trkpt lat="59.9283435" lon="17.7230068">
        <ele>41.9547</ele>
        <time>2014-06-06T15:21:03Z</time>
      </trkpt>
      <trkpt lat="59.9283612" lon="17.7231157">
        <ele>41.474</ele>
        <time>2014-06-06T15:21:04Z</time>
      </trkpt>
      <trkpt lat="59.9283788" lon="17.7232267">
        <ele>41.474</ele>
        <time>2014-06-06T15:21:05Z</time>
      </trkpt>
      <trkpt lat="59.9283964" lon="17.7233381">
        <ele>41.474</ele>
        <time>2014-06-06T15:21:06Z</time>
      </trkpt>
      <trkpt lat="59.928413" lon="17.7234509">
        <ele>41.474</ele>
        <time>2014-06-06T15:21:07Z</time>
      </trkpt>
      <trkpt lat="59.9284269" lon="17.7235667">
        <ele>41.474</ele>
        <time>2014-06-06T15:21:08Z</time>
      </trkpt>
      <trkpt lat="59.9284379" lon="17.723684">
        <ele>41.474</ele>
        <time>2014-06-06T15:21:09Z</time>
      </trkpt>
      <trkpt lat="59.9284461" lon="17.7238036">
        <ele>41.474</ele>
        <time>2014-06-06T15:21:10Z</time>
      </trkpt>
      <trkpt lat="59.9284527" lon="17.7239254">
        <ele>41.474</ele>
        <time>2014-06-06T15:21:11Z</time>
      </trkpt>
      <trkpt lat="59.9284569" lon="17.7240482">
        <ele>41.474</ele>
        <time>2014-06-06T15:21:12Z</time>
      </trkpt>
      <trkpt lat="59.9284599" lon="17.7241695">
        <ele>40.9934</ele>
        <time>2014-06-06T15:21:13Z</time>
      </trkpt>
      <trkpt lat="59.9284631" lon="17.7242911">
        <ele>40.9934</ele>
        <time>2014-06-06T15:21:14Z</time>
      </trkpt>
      <trkpt lat="59.9284654" lon="17.7244144">
        <ele>40.5128</ele>
        <time>2014-06-06T15:21:15Z</time>
      </trkpt>
      <trkpt lat="59.9284673" lon="17.7245378">
        <ele>40.5128</ele>
        <time>2014-06-06T15:21:16Z</time>
      </trkpt>
      <trkpt lat="59.9284684" lon="17.7246594">
        <ele>40.5128</ele>
        <time>2014-06-06T15:21:17Z</time>
      </trkpt>
      <trkpt lat="59.92847" lon="17.7247811">
        <ele>40.5128</ele>
        <time>2014-06-06T15:21:18Z</time>
      </trkpt>
      <trkpt lat="59.9284722" lon="17.7248987">
        <ele>40.0321</ele>
        <time>2014-06-06T15:21:19Z</time>
      </trkpt>
      <trkpt lat="59.9284741" lon="17.7250171">
        <ele>39.5513</ele>
        <time>2014-06-06T15:21:20Z</time>
      </trkpt>
      <trkpt lat="59.928474" lon="17.7251356">
        <ele>39.5513</ele>
        <time>2014-06-06T15:21:21Z</time>
      </trkpt>
      <trkpt lat="59.9284739" lon="17.7252531">
        <ele>39.5513</ele>
        <time>2014-06-06T15:21:22Z</time>
      </trkpt>
      <trkpt lat="59.9284752" lon="17.7253706">
        <ele>39.5513</ele>
        <time>2014-06-06T15:21:23Z</time>
      </trkpt>
      <trkpt lat="59.9284766" lon="17.7254844">
        <ele>39.5513</ele>
        <time>2014-06-06T15:21:24Z</time>
      </trkpt>
      <trkpt lat="59.9284786" lon="17.7255927">
        <ele>39.5513</ele>
        <time>2014-06-06T15:21:25Z</time>
      </trkpt>
      <trkpt lat="59.9284808" lon="17.7256954">
        <ele>39.5513</ele>
        <time>2014-06-06T15:21:26Z</time>
      </trkpt>
      <trkpt lat="59.9284818" lon="17.7257923">
        <ele>39.5513</ele>
        <time>2014-06-06T15:21:27Z</time>
      </trkpt>
      <trkpt lat="59.928483" lon="17.7258861">
        <ele>39.5513</ele>
        <time>2014-06-06T15:21:28Z</time>
      </trkpt>
      <trkpt lat="59.9284839" lon="17.7259829">
        <ele>39.0707</ele>
        <time>2014-06-06T15:21:29Z</time>
      </trkpt>
      <trkpt lat="59.9284843" lon="17.7260827">
        <ele>39.0707</ele>
        <time>2014-06-06T15:21:30Z</time>
      </trkpt>
      <trkpt lat="59.9284824" lon="17.7261834">
        <ele>39.0707</ele>
        <time>2014-06-06T15:21:31Z</time>
      </trkpt>
      <trkpt lat="59.9284794" lon="17.726287">
        <ele>39.0707</ele>
        <time>2014-06-06T15:21:32Z</time>
      </trkpt>
      <trkpt lat="59.9284737" lon="17.7263907">
        <ele>39.5513</ele>
        <time>2014-06-06T15:21:33Z</time>
      </trkpt>
      <trkpt lat="59.9284627" lon="17.7264955">
        <ele>39.5513</ele>
        <time>2014-06-06T15:21:34Z</time>
      </trkpt>
      <trkpt lat="59.9284499" lon="17.7265885">
        <ele>39.5513</ele>
        <time>2014-06-06T15:21:35Z</time>
      </trkpt>
      <trkpt lat="59.9284341" lon="17.726682">
        <ele>39.5513</ele>
        <time>2014-06-06T15:21:36Z</time>
      </trkpt>
      <trkpt lat="59.9284151" lon="17.7267725">
        <ele>40.0321</ele>
        <time>2014-06-06T15:21:37Z</time>
      </trkpt>
      <trkpt lat="59.9283971" lon="17.7268532">
        <ele>39.5513</ele>
        <time>2014-06-06T15:21:38Z</time>
      </trkpt>
      <trkpt lat="59.9283856" lon="17.7269364">
        <ele>40.0321</ele>
        <time>2014-06-06T15:21:39Z</time>
      </trkpt>
      <trkpt lat="59.9283682" lon="17.7270074">
        <ele>39.5513</ele>
        <time>2014-06-06T15:21:40Z</time>
      </trkpt>
      <trkpt lat="59.9283502" lon="17.7270764">
        <ele>39.5513</ele>
        <time>2014-06-06T15:21:41Z</time>
      </trkpt>
      <trkpt lat="59.92834" lon="17.7271467">
        <ele>39.0707</ele>
        <time>2014-06-06T15:21:42Z</time>
      </trkpt>
      <trkpt lat="59.9283275" lon="17.7272237">
        <ele>39.0707</ele>
        <time>2014-06-06T15:21:43Z</time>
      </trkpt>
      <trkpt lat="59.9283103" lon="17.7273038">
        <ele>38.5901</ele>
        <time>2014-06-06T15:21:44Z</time>
      </trkpt>
      <trkpt lat="59.9282929" lon="17.7273919">
        <ele>38.5901</ele>
        <time>2014-06-06T15:21:45Z</time>
      </trkpt>
      <trkpt lat="59.9282753" lon="17.7274883">
        <ele>38.5901</ele>
        <time>2014-06-06T15:21:46Z</time>
      </trkpt>
      <trkpt lat="59.9282601" lon="17.727596">
        <ele>39.0707</ele>
        <time>2014-06-06T15:21:47Z</time>
      </trkpt>
      <trkpt lat="59.9282488" lon="17.7277119">
        <ele>39.5513</ele>
        <time>2014-06-06T15:21:48Z</time>
      </trkpt>
      <trkpt lat="59.9282432" lon="17.7278273">
        <ele>40.0321</ele>
        <time>2014-06-06T15:21:49Z</time>
      </trkpt>
      <trkpt lat="59.9282417" lon="17.7279378">
        <ele>40.0321</ele>
        <time>2014-06-06T15:21:50Z</time>
      </trkpt>
      <trkpt lat="59.9282461" lon="17.7280434">
        <ele>40.0321</ele>
        <time>2014-06-06T15:21:51Z</time>
      </trkpt>
      <trkpt lat="59.9282498" lon="17.7281521">
        <ele>40.0321</ele>
        <time>2014-06-06T15:21:52Z</time>
      </trkpt>
      <trkpt lat="59.9282562" lon="17.7282617">
        <ele>40.0321</ele>
        <time>2014-06-06T15:21:53Z</time>
      </trkpt>
      <trkpt lat="59.9282636" lon="17.7283787">
        <ele>40.5128</ele>
        <time>2014-06-06T15:21:54Z</time>
      </trkpt>
      <trkpt lat="59.928273" lon="17.7284891">
        <ele>40.5128</ele>
        <time>2014-06-06T15:21:55Z</time>
      </trkpt>
      <trkpt lat="59.9282828" lon="17.7285961">
        <ele>40.5128</ele>
        <time>2014-06-06T15:21:56Z</time>
      </trkpt>
      <trkpt lat="59.9282959" lon="17.7287039">
        <ele>40.5128</ele>
        <time>2014-06-06T15:21:57Z</time>
      </trkpt>
      <trkpt lat="59.9283094" lon="17.7288085">
        <ele>40.0321</ele>
        <time>2014-06-06T15:21:58Z</time>
      </trkpt>
      <trkpt lat="59.9283232" lon="17.7289128">
        <ele>40.0321</ele>
        <time>2014-06-06T15:21:59Z</time>
      </trkpt>
      <trkpt lat="59.9283363" lon="17.7290138">
        <ele>39.5513</ele>
        <time>2014-06-06T15:22:00Z</time>
      </trkpt>
      <trkpt lat="59.9283476" lon="17.7291177">
        <ele>39.0707</ele>
        <time>2014-06-06T15:22:01Z</time>
      </trkpt>
      <trkpt lat="59.9283597" lon="17.7292203">
        <ele>38.5901</ele>
        <time>2014-06-06T15:22:02Z</time>
      </trkpt>
      <trkpt lat="59.9283716" lon="17.729325">
        <ele>38.5901</ele>
        <time>2014-06-06T15:22:03Z</time>
      </trkpt>
      <trkpt lat="59.9283824" lon="17.7294292">
        <ele>38.5901</ele>
        <time>2014-06-06T15:22:04Z</time>
      </trkpt>
      <trkpt lat="59.9283944" lon="17.7295246">
        <ele>38.1094</ele>
        <time>2014-06-06T15:22:05Z</time>
      </trkpt>
      <trkpt lat="59.9284072" lon="17.7296209">
        <ele>38.1094</ele>
        <time>2014-06-06T15:22:06Z</time>
      </trkpt>
      <trkpt lat="59.9284165" lon="17.7297188">
        <ele>38.5901</ele>
        <time>2014-06-06T15:22:07Z</time>
      </trkpt>
      <trkpt lat="59.9284223" lon="17.7298188">
        <ele>38.5901</ele>
        <time>2014-06-06T15:22:08Z</time>
      </trkpt>
      <trkpt lat="59.9284294" lon="17.7299155">
        <ele>39.0707</ele>
        <time>2014-06-06T15:22:09Z</time>
      </trkpt>
      <trkpt lat="59.9284374" lon="17.7300094">
        <ele>39.0707</ele>
        <time>2014-06-06T15:22:10Z</time>
      </trkpt>
      <trkpt lat="59.9284429" lon="17.7301052">
        <ele>39.0707</ele>
        <time>2014-06-06T15:22:11Z</time>
      </trkpt>
      <trkpt lat="59.9284439" lon="17.7302">
        <ele>39.0707</ele>
        <time>2014-06-06T15:22:12Z</time>
      </trkpt>
      <trkpt lat="59.9284418" lon="17.7302934">
        <ele>39.0707</ele>
        <time>2014-06-06T15:22:13Z</time>
      </trkpt>
      <trkpt lat="59.9284346" lon="17.730389">
        <ele>39.0707</ele>
        <time>2014-06-06T15:22:14Z</time>
      </trkpt>
      <trkpt lat="59.9284214" lon="17.7304868">
        <ele>39.5513</ele>
        <time>2014-06-06T15:22:15Z</time>
      </trkpt>
      <trkpt lat="59.9284061" lon="17.7305684">
        <ele>39.0707</ele>
        <time>2014-06-06T15:22:16Z</time>
      </trkpt>
      <trkpt lat="59.9283886" lon="17.730649">
        <ele>38.5901</ele>
        <time>2014-06-06T15:22:17Z</time>
      </trkpt>
      <trkpt lat="59.928368" lon="17.7307272">
        <ele>38.1094</ele>
        <time>2014-06-06T15:22:18Z</time>
      </trkpt>
      <trkpt lat="59.9283493" lon="17.7308013">
        <ele>37.6287</ele>
        <time>2014-06-06T15:22:19Z</time>
      </trkpt>
      <trkpt lat="59.9283254" lon="17.7308692">
        <ele>36.6675</ele>
        <time>2014-06-06T15:22:20Z</time>
      </trkpt>
      <trkpt lat="59.9283011" lon="17.7309455">
        <ele>36.1868</ele>
        <time>2014-06-06T15:22:21Z</time>
      </trkpt>
      <trkpt lat="59.9282804" lon="17.731029">
        <ele>36.1868</ele>
        <time>2014-06-06T15:22:22Z</time>
      </trkpt>
      <trkpt lat="59.928256" lon="17.7311063">
        <ele>35.2255</ele>
        <time>2014-06-06T15:22:23Z</time>
      </trkpt>
      <trkpt lat="59.928229" lon="17.7311925">
        <ele>35.7061</ele>
        <time>2014-06-06T15:22:24Z</time>
      </trkpt>
      <trkpt lat="59.9281929" lon="17.7312801">
        <ele>36.1868</ele>
        <time>2014-06-06T15:22:25Z</time>
      </trkpt>
      <trkpt lat="59.9281559" lon="17.7313733">
        <ele>36.6675</ele>
        <time>2014-06-06T15:22:26Z</time>
      </trkpt>
      <trkpt lat="59.9281207" lon="17.7314567">
        <ele>36.1868</ele>
        <time>2014-06-06T15:22:27Z</time>
      </trkpt>
      <trkpt lat="59.9280821" lon="17.7315483">
        <ele>36.1868</ele>
        <time>2014-06-06T15:22:28Z</time>
      </trkpt>
      <trkpt lat="59.9280441" lon="17.7316241">
        <ele>35.2255</ele>
        <time>2014-06-06T15:22:29Z</time>
      </trkpt>
      <trkpt lat="59.9280046" lon="17.731707">
        <ele>35.2255</ele>
        <time>2014-06-06T15:22:30Z</time>
      </trkpt>
      <trkpt lat="59.9279668" lon="17.7317837">
        <ele>34.7449</ele>
        <time>2014-06-06T15:22:31Z</time>
      </trkpt>
      <trkpt lat="59.9279326" lon="17.7318609">
        <ele>34.2642</ele>
        <time>2014-06-06T15:22:32Z</time>
      </trkpt>
      <trkpt lat="59.9278976" lon="17.7319344">
        <ele>34.2642</ele>
        <time>2014-06-06T15:22:33Z</time>
      </trkpt>
      <trkpt lat="59.9278675" lon="17.7320064">
        <ele>33.7834</ele>
        <time>2014-06-06T15:22:34Z</time>
      </trkpt>
      <trkpt lat="59.9278354" lon="17.7320793">
        <ele>34.7449</ele>
        <time>2014-06-06T15:22:35Z</time>
      </trkpt>
      <trkpt lat="59.9278052" lon="17.7321482">
        <ele>34.7449</ele>
        <time>2014-06-06T15:22:36Z</time>
      </trkpt>
      <trkpt lat="59.9277753" lon="17.7322161">
        <ele>35.2255</ele>
        <time>2014-06-06T15:22:37Z</time>
      </trkpt>
      <trkpt lat="59.9277446" lon="17.7322814">
        <ele>35.2255</ele>
        <time>2014-06-06T15:22:38Z</time>
      </trkpt>
      <trkpt lat="59.9277143" lon="17.7323564">
        <ele>35.7061</ele>
        <time>2014-06-06T15:22:39Z</time>
      </trkpt>
      <trkpt lat="59.9276842" lon="17.7324296">
        <ele>36.6675</ele>
        <time>2014-06-06T15:22:40Z</time>
      </trkpt>
      <trkpt lat="59.9276572" lon="17.7324937">
        <ele>36.6675</ele>
        <time>2014-06-06T15:22:41Z</time>
      </trkpt>
      <trkpt lat="59.9276283" lon="17.7325622">
        <ele>36.6675</ele>
        <time>2014-06-06T15:22:42Z</time>
      </trkpt>
      <trkpt lat="59.9276019" lon="17.7326329">
        <ele>36.6675</ele>
        <time>2014-06-06T15:22:43Z</time>
      </trkpt>
      <trkpt lat="59.9275785" lon="17.7327054">
        <ele>36.6675</ele>
        <time>2014-06-06T15:22:44Z</time>
      </trkpt>
      <trkpt lat="59.9275531" lon="17.7327813">
        <ele>36.6675</ele>
        <time>2014-06-06T15:22:45Z</time>
      </trkpt>
      <trkpt lat="59.9275257" lon="17.7328621">
        <ele>36.6675</ele>
        <time>2014-06-06T15:22:46Z</time>
      </trkpt>
      <trkpt lat="59.9274968" lon="17.7329463">
        <ele>36.6675</ele>
        <time>2014-06-06T15:22:47Z</time>
      </trkpt>
      <trkpt lat="59.9274599" lon="17.7330403">
        <ele>39.0707</ele>
        <time>2014-06-06T15:22:48Z</time>
      </trkpt>
      <trkpt lat="59.9274247" lon="17.7331033">
        <ele>39.0707</ele>
        <time>2014-06-06T15:22:49Z</time>
      </trkpt>
      <trkpt lat="59.9273861" lon="17.7331706">
        <ele>39.0707</ele>
        <time>2014-06-06T15:22:50Z</time>
      </trkpt>
      <trkpt lat="59.927348" lon="17.7332423">
        <ele>38.5901</ele>
        <time>2014-06-06T15:22:51Z</time>
      </trkpt>
      <trkpt lat="59.9273112" lon="17.733325">
        <ele>38.5901</ele>
        <time>2014-06-06T15:22:52Z</time>
      </trkpt>
      <trkpt lat="59.9272791" lon="17.7334075">
        <ele>38.5901</ele>
        <time>2014-06-06T15:22:53Z</time>
      </trkpt>
      <trkpt lat="59.9272491" lon="17.7335023">
        <ele>38.5901</ele>
        <time>2014-06-06T15:22:54Z</time>
      </trkpt>
      <trkpt lat="59.9272154" lon="17.733596">
        <ele>38.1094</ele>
        <time>2014-06-06T15:22:55Z</time>
      </trkpt>
      <trkpt lat="59.9271796" lon="17.733683">
        <ele>37.6287</ele>
        <time>2014-06-06T15:22:56Z</time>
      </trkpt>
      <trkpt lat="59.927145" lon="17.7337749">
        <ele>37.6287</ele>
        <time>2014-06-06T15:22:57Z</time>
      </trkpt>
      <trkpt lat="59.927111" lon="17.7338623">
        <ele>37.1481</ele>
        <time>2014-06-06T15:22:58Z</time>
      </trkpt>
      <trkpt lat="59.9270775" lon="17.7339405">
        <ele>37.1481</ele>
        <time>2014-06-06T15:22:59Z</time>
      </trkpt>
      <trkpt lat="59.9270424" lon="17.7340111">
        <ele>36.1868</ele>
        <time>2014-06-06T15:23:00Z</time>
      </trkpt>
      <trkpt lat="59.9270078" lon="17.7340917">
        <ele>36.1868</ele>
        <time>2014-06-06T15:23:01Z</time>
      </trkpt>
      <trkpt lat="59.9269734" lon="17.7341768">
        <ele>35.7061</ele>
        <time>2014-06-06T15:23:02Z</time>
      </trkpt>
      <trkpt lat="59.9269442" lon="17.7342575">
        <ele>35.2255</ele>
        <time>2014-06-06T15:23:03Z</time>
      </trkpt>
      <trkpt lat="59.9269164" lon="17.7343336">
        <ele>34.2642</ele>
        <time>2014-06-06T15:23:04Z</time>
      </trkpt>
      <trkpt lat="59.9268885" lon="17.734427">
        <ele>34.2642</ele>
        <time>2014-06-06T15:23:05Z</time>
      </trkpt>
      <trkpt lat="59.9268585" lon="17.7345193">
        <ele>34.7449</ele>
        <time>2014-06-06T15:23:06Z</time>
      </trkpt>
      <trkpt lat="59.9268249" lon="17.734611">
        <ele>35.2255</ele>
        <time>2014-06-06T15:23:07Z</time>
      </trkpt>
      <trkpt lat="59.9267936" lon="17.7346879">
        <ele>34.2642</ele>
        <time>2014-06-06T15:23:08Z</time>
      </trkpt>
      <trkpt lat="59.9267672" lon="17.7347749">
        <ele>33.7834</ele>
        <time>2014-06-06T15:23:09Z</time>
      </trkpt>
      <trkpt lat="59.9267396" lon="17.7348529">
        <ele>32.8223</ele>
        <time>2014-06-06T15:23:10Z</time>
      </trkpt>
      <trkpt lat="59.9267088" lon="17.734932">
        <ele>32.8223</ele>
        <time>2014-06-06T15:23:11Z</time>
      </trkpt>
      <trkpt lat="59.9266756" lon="17.7350103">
        <ele>32.3416</ele>
        <time>2014-06-06T15:23:12Z</time>
      </trkpt>
      <trkpt lat="59.9266449" lon="17.7350888">
        <ele>32.3416</ele>
        <time>2014-06-06T15:23:13Z</time>
      </trkpt>
      <trkpt lat="59.9266186" lon="17.7351725">
        <ele>32.3416</ele>
        <time>2014-06-06T15:23:14Z</time>
      </trkpt>
      <trkpt lat="59.9265907" lon="17.7352484">
        <ele>31.8607</ele>
        <time>2014-06-06T15:23:15Z</time>
      </trkpt>
      <trkpt lat="59.9265599" lon="17.7353259">
        <ele>31.8607</ele>
        <time>2014-06-06T15:23:16Z</time>
      </trkpt>
      <trkpt lat="59.9265294" lon="17.7353924">
        <ele>30.8995</ele>
        <time>2014-06-06T15:23:17Z</time>
      </trkpt>
      <trkpt lat="59.9264934" lon="17.7354595">
        <ele>30.8995</ele>
        <time>2014-06-06T15:23:18Z</time>
      </trkpt>
      <trkpt lat="59.9264591" lon="17.7355509">
        <ele>32.3416</ele>
        <time>2014-06-06T15:23:19Z</time>
      </trkpt>
      <trkpt lat="59.9264309" lon="17.735621">
        <ele>31.3801</ele>
        <time>2014-06-06T15:23:20Z</time>
      </trkpt>
      <trkpt lat="59.9264017" lon="17.7357074">
        <ele>31.8607</ele>
        <time>2014-06-06T15:23:21Z</time>
      </trkpt>
      <trkpt lat="59.9263713" lon="17.7357862">
        <ele>31.8607</ele>
        <time>2014-06-06T15:23:22Z</time>
      </trkpt>
      <trkpt lat="59.9263348" lon="17.735863">
        <ele>31.8607</ele>
        <time>2014-06-06T15:23:23Z</time>
      </trkpt>
      <trkpt lat="59.9262998" lon="17.7359489">
        <ele>32.3416</ele>
        <time>2014-06-06T15:23:24Z</time>
      </trkpt>
      <trkpt lat="59.9262664" lon="17.7360334">
        <ele>33.3029</ele>
        <time>2014-06-06T15:23:25Z</time>
      </trkpt>
      <trkpt lat="59.9262327" lon="17.736109">
        <ele>33.7834</ele>
        <time>2014-06-06T15:23:26Z</time>
      </trkpt>
      <trkpt lat="59.9262001" lon="17.7361831">
        <ele>33.7834</ele>
        <time>2014-06-06T15:23:27Z</time>
      </trkpt>
      <trkpt lat="59.9261607" lon="17.7362509">
        <ele>34.2642</ele>
        <time>2014-06-06T15:23:28Z</time>
      </trkpt>
      <trkpt lat="59.9261249" lon="17.7363271">
        <ele>34.2642</ele>
        <time>2014-06-06T15:23:29Z</time>
      </trkpt>
      <trkpt lat="59.9260892" lon="17.7364113">
        <ele>34.7449</ele>
        <time>2014-06-06T15:23:30Z</time>
      </trkpt>
      <trkpt lat="59.9260543" lon="17.7364976">
        <ele>34.7449</ele>
        <time>2014-06-06T15:23:31Z</time>
      </trkpt>
      <trkpt lat="59.9260197" lon="17.7365866">
        <ele>35.2255</ele>
        <time>2014-06-06T15:23:32Z</time>
      </trkpt>
      <trkpt lat="59.9259892" lon="17.7366734">
        <ele>35.2255</ele>
        <time>2014-06-06T15:23:33Z</time>
      </trkpt>
      <trkpt lat="59.9259588" lon="17.7367513">
        <ele>35.7061</ele>
        <time>2014-06-06T15:23:34Z</time>
      </trkpt>
      <trkpt lat="59.925931" lon="17.7368259">
        <ele>35.2255</ele>
        <time>2014-06-06T15:23:35Z</time>
      </trkpt>
      <trkpt lat="59.9259113" lon="17.7369119">
        <ele>34.7449</ele>
        <time>2014-06-06T15:23:36Z</time>
      </trkpt>
      <trkpt lat="59.9258877" lon="17.737001">
        <ele>35.7061</ele>
        <time>2014-06-06T15:23:37Z</time>
      </trkpt>
      <trkpt lat="59.9258714" lon="17.7370968">
        <ele>36.1868</ele>
        <time>2014-06-06T15:23:38Z</time>
      </trkpt>
      <trkpt lat="59.9258497" lon="17.7372155">
        <ele>37.6287</ele>
        <time>2014-06-06T15:23:39Z</time>
      </trkpt>
      <trkpt lat="59.9258227" lon="17.7373631">
        <ele>37.6287</ele>
        <time>2014-06-06T15:23:40Z</time>
      </trkpt>
      <trkpt lat="59.9258017" lon="17.7375238">
        <ele>37.6287</ele>
        <time>2014-06-06T15:23:41Z</time>
      </trkpt>
      <trkpt lat="59.925768" lon="17.7376447">
        <ele>38.5901</ele>
        <time>2014-06-06T15:23:42Z</time>
      </trkpt>
      <trkpt lat="59.9257535" lon="17.7377531">
        <ele>39.0707</ele>
        <time>2014-06-06T15:23:43Z</time>
      </trkpt>
      <trkpt lat="59.9257478" lon="17.7378469">
        <ele>38.5901</ele>
        <time>2014-06-06T15:23:44Z</time>
      </trkpt>
      <trkpt lat="59.9257385" lon="17.7379536">
        <ele>38.5901</ele>
        <time>2014-06-06T15:23:45Z</time>
      </trkpt>
      <trkpt lat="59.9257256" lon="17.7380463">
        <ele>38.1094</ele>
        <time>2014-06-06T15:23:46Z</time>
      </trkpt>
      <trkpt lat="59.9257172" lon="17.7381559">
        <ele>38.5901</ele>
        <time>2014-06-06T15:23:47Z</time>
      </trkpt>
      <trkpt lat="59.9257029" lon="17.7382541">
        <ele>39.0707</ele>
        <time>2014-06-06T15:23:48Z</time>
      </trkpt>
      <trkpt lat="59.9256886" lon="17.7383405">
        <ele>39.0707</ele>
        <time>2014-06-06T15:23:49Z</time>
      </trkpt>
      <trkpt lat="59.9256841" lon="17.7384033">
        <ele>38.5901</ele>
        <time>2014-06-06T15:23:50Z</time>
      </trkpt>
      <trkpt lat="59.925687" lon="17.7384701">
        <ele>38.1094</ele>
        <time>2014-06-06T15:23:51Z</time>
      </trkpt>
      <trkpt lat="59.9257001" lon="17.7385405">
        <ele>37.6287</ele>
        <time>2014-06-06T15:23:52Z</time>
      </trkpt>
      <trkpt lat="59.9257172" lon="17.7386045">
        <ele>37.6287</ele>
        <time>2014-06-06T15:23:53Z</time>
      </trkpt>
      <trkpt lat="59.9257358" lon="17.7386546">
        <ele>37.6287</ele>
        <time>2014-06-06T15:23:54Z</time>
      </trkpt>
      <trkpt lat="59.9257588" lon="17.7387152">
        <ele>39.0707</ele>
        <time>2014-06-06T15:23:55Z</time>
      </trkpt>
      <trkpt lat="59.9257899" lon="17.7387729">
        <ele>40.0321</ele>
        <time>2014-06-06T15:23:56Z</time>
      </trkpt>
      <trkpt lat="59.9258245" lon="17.7388233">
        <ele>40.0321</ele>
        <time>2014-06-06T15:23:57Z</time>
      </trkpt>
      <trkpt lat="59.9258635" lon="17.7388664">
        <ele>40.0321</ele>
        <time>2014-06-06T15:23:58Z</time>
      </trkpt>
      <trkpt lat="59.9259041" lon="17.7389079">
        <ele>39.5513</ele>
        <time>2014-06-06T15:23:59Z</time>
      </trkpt>
      <trkpt lat="59.9259421" lon="17.7389527">
        <ele>39.5513</ele>
        <time>2014-06-06T15:24:00Z</time>
      </trkpt>
      <trkpt lat="59.9259782" lon="17.7389874">
        <ele>39.0707</ele>
        <time>2014-06-06T15:24:01Z</time>
      </trkpt>
      <trkpt lat="59.9260092" lon="17.7390259">
        <ele>39.0707</ele>
        <time>2014-06-06T15:24:02Z</time>
      </trkpt>
      <trkpt lat="59.9260456" lon="17.739061">
        <ele>38.5901</ele>
        <time>2014-06-06T15:24:03Z</time>
      </trkpt>
      <trkpt lat="59.9260802" lon="17.7390932">
        <ele>38.1094</ele>
        <time>2014-06-06T15:24:04Z</time>
      </trkpt>
      <trkpt lat="59.9261111" lon="17.7391303">
        <ele>38.5901</ele>
        <time>2014-06-06T15:24:05Z</time>
      </trkpt>
      <trkpt lat="59.9261419" lon="17.7391672">
        <ele>38.5901</ele>
        <time>2014-06-06T15:24:06Z</time>
      </trkpt>
      <trkpt lat="59.9261677" lon="17.7392077">
        <ele>38.5901</ele>
        <time>2014-06-06T15:24:07Z</time>
      </trkpt>
      <trkpt lat="59.9261887" lon="17.7392511">
        <ele>39.0707</ele>
        <time>2014-06-06T15:24:08Z</time>
      </trkpt>
      <trkpt lat="59.9262161" lon="17.7393003">
        <ele>39.5513</ele>
        <time>2014-06-06T15:24:09Z</time>
      </trkpt>
      <trkpt lat="59.9262427" lon="17.7393496">
        <ele>39.0707</ele>
        <time>2014-06-06T15:24:10Z</time>
      </trkpt>
      <trkpt lat="59.9262632" lon="17.739394">
        <ele>39.0707</ele>
        <time>2014-06-06T15:24:11Z</time>
      </trkpt>
      <trkpt lat="59.9262853" lon="17.7394344">
        <ele>39.5513</ele>
        <time>2014-06-06T15:24:12Z</time>
      </trkpt>
      <trkpt lat="59.9263025" lon="17.7394697">
        <ele>40.0321</ele>
        <time>2014-06-06T15:24:13Z</time>
      </trkpt>
      <trkpt lat="59.9263257" lon="17.7395057">
        <ele>40.9934</ele>
        <time>2014-06-06T15:24:14Z</time>
      </trkpt>
      <trkpt lat="59.9263493" lon="17.7395392">
        <ele>41.474</ele>
        <time>2014-06-06T15:24:15Z</time>
      </trkpt>
      <trkpt lat="59.9263768" lon="17.7395759">
        <ele>42.4354</ele>
        <time>2014-06-06T15:24:16Z</time>
      </trkpt>
      <trkpt lat="59.9264021" lon="17.7396193">
        <ele>43.3966</ele>
        <time>2014-06-06T15:24:17Z</time>
      </trkpt>
      <trkpt lat="59.9264264" lon="17.7396735">
        <ele>44.358</ele>
        <time>2014-06-06T15:24:18Z</time>
      </trkpt>
      <trkpt lat="59.9264501" lon="17.7397215">
        <ele>44.8386</ele>
        <time>2014-06-06T15:24:19Z</time>
      </trkpt>
      <trkpt lat="59.9264746" lon="17.739754">
        <ele>45.3192</ele>
        <time>2014-06-06T15:24:20Z</time>
      </trkpt>
      <trkpt lat="59.9265013" lon="17.7397823">
        <ele>45.3192</ele>
        <time>2014-06-06T15:24:21Z</time>
      </trkpt>
      <trkpt lat="59.9265275" lon="17.7398273">
        <ele>45.7999</ele>
        <time>2014-06-06T15:24:22Z</time>
      </trkpt>
      <trkpt lat="59.9265581" lon="17.7398774">
        <ele>46.2806</ele>
        <time>2014-06-06T15:24:23Z</time>
      </trkpt>
      <trkpt lat="59.9265853" lon="17.7399107">
        <ele>46.2806</ele>
        <time>2014-06-06T15:24:24Z</time>
      </trkpt>
      <trkpt lat="59.9266108" lon="17.7399433">
        <ele>46.7612</ele>
        <time>2014-06-06T15:24:25Z</time>
      </trkpt>
      <trkpt lat="59.92664" lon="17.7399692">
        <ele>47.2418</ele>
        <time>2014-06-06T15:24:26Z</time>
      </trkpt>
      <trkpt lat="59.9266655" lon="17.7399866">
        <ele>47.2418</ele>
        <time>2014-06-06T15:24:27Z</time>
      </trkpt>
      <trkpt lat="59.9266915" lon="17.7400105">
        <ele>47.7225</ele>
        <time>2014-06-06T15:24:28Z</time>
      </trkpt>
      <trkpt lat="59.9267182" lon="17.7400292">
        <ele>47.7225</ele>
        <time>2014-06-06T15:24:29Z</time>
      </trkpt>
      <trkpt lat="59.9267418" lon="17.7400553">
        <ele>48.2034</ele>
        <time>2014-06-06T15:24:30Z</time>
      </trkpt>
      <trkpt lat="59.9267643" lon="17.7400805">
        <ele>48.2034</ele>
        <time>2014-06-06T15:24:31Z</time>
      </trkpt>
      <trkpt lat="59.9267905" lon="17.7400971">
        <ele>48.2034</ele>
        <time>2014-06-06T15:24:32Z</time>
      </trkpt>
      <trkpt lat="59.9268178" lon="17.7401153">
        <ele>48.2034</ele>
        <time>2014-06-06T15:24:33Z</time>
      </trkpt>
      <trkpt lat="59.926844" lon="17.7401313">
        <ele>47.7225</ele>
        <time>2014-06-06T15:24:34Z</time>
      </trkpt>
      <trkpt lat="59.9268688" lon="17.7401489">
        <ele>47.2418</ele>
        <time>2014-06-06T15:24:35Z</time>
      </trkpt>
      <trkpt lat="59.9268926" lon="17.7401752">
        <ele>47.2418</ele>
        <time>2014-06-06T15:24:36Z</time>
      </trkpt>
      <trkpt lat="59.9269227" lon="17.7402097">
        <ele>47.7225</ele>
        <time>2014-06-06T15:24:37Z</time>
      </trkpt>
      <trkpt lat="59.9269532" lon="17.7402452">
        <ele>48.684</ele>
        <time>2014-06-06T15:24:38Z</time>
      </trkpt>
      <trkpt lat="59.9269855" lon="17.7402801">
        <ele>49.1646</ele>
        <time>2014-06-06T15:24:39Z</time>
      </trkpt>
      <trkpt lat="59.9270065" lon="17.7403114">
        <ele>49.6453</ele>
        <time>2014-06-06T15:24:40Z</time>
      </trkpt>
      <trkpt lat="59.927033" lon="17.740343">
        <ele>50.126</ele>
        <time>2014-06-06T15:24:41Z</time>
      </trkpt>
      <trkpt lat="59.9270515" lon="17.7403747">
        <ele>50.126</ele>
        <time>2014-06-06T15:24:42Z</time>
      </trkpt>
      <trkpt lat="59.9270677" lon="17.7403917">
        <ele>50.126</ele>
        <time>2014-06-06T15:24:43Z</time>
      </trkpt>
      <trkpt lat="59.927082" lon="17.7404048">
        <ele>50.126</ele>
        <time>2014-06-06T15:24:44Z</time>
      </trkpt>
      <trkpt lat="59.927095" lon="17.7404101">
        <ele>49.6453</ele>
        <time>2014-06-06T15:24:45Z</time>
      </trkpt>
      <trkpt lat="59.9271018" lon="17.7404083">
        <ele>49.1646</ele>
        <time>2014-06-06T15:24:46Z</time>
      </trkpt>
      <trkpt lat="59.9271061" lon="17.7404038">
        <ele>49.1646</ele>
        <time>2014-06-06T15:24:47Z</time>
      </trkpt>
      <trkpt lat="59.9271123" lon="17.7404007">
        <ele>49.1646</ele>
        <time>2014-06-06T15:24:48Z</time>
      </trkpt>
      <trkpt lat="59.9271195" lon="17.7403997">
        <ele>48.684</ele>
        <time>2014-06-06T15:24:49Z</time>
      </trkpt>
      <trkpt lat="59.9271241" lon="17.7403967">
        <ele>48.684</ele>
        <time>2014-06-06T15:24:50Z</time>
      </trkpt>
      <trkpt lat="59.9271247" lon="17.7403915">
        <ele>48.2034</ele>
        <time>2014-06-06T15:24:51Z</time>
      </trkpt>
      <trkpt lat="59.9271237" lon="17.7403866">
        <ele>47.7225</ele>
        <time>2014-06-06T15:24:52Z</time>
      </trkpt>
      <trkpt lat="59.9271598" lon="17.7404215">
        <ele>45.7999</ele>
        <time>2014-06-06T15:24:57Z</time>
      </trkpt>
      <trkpt lat="59.9271732" lon="17.7404419">
        <ele>46.2806</ele>
        <time>2014-06-06T15:24:58Z</time>
      </trkpt>
      <trkpt lat="59.9271873" lon="17.740458">
        <ele>46.2806</ele>
        <time>2014-06-06T15:24:59Z</time>
      </trkpt>
      <trkpt lat="59.9271998" lon="17.7404753">
        <ele>46.2806</ele>
        <time>2014-06-06T15:25:00Z</time>
      </trkpt>
      <trkpt lat="59.9272117" lon="17.7404938">
        <ele>46.2806</ele>
        <time>2014-06-06T15:25:01Z</time>
      </trkpt>
      <trkpt lat="59.9272247" lon="17.7405113">
        <ele>46.2806</ele>
        <time>2014-06-06T15:25:02Z</time>
      </trkpt>
      <trkpt lat="59.9272376" lon="17.7405239">
        <ele>45.7999</ele>
        <time>2014-06-06T15:25:03Z</time>
      </trkpt>
      <trkpt lat="59.9272496" lon="17.7405349">
        <ele>45.7999</ele>
        <time>2014-06-06T15:25:04Z</time>
      </trkpt>
      <trkpt lat="59.9272621" lon="17.7405466">
        <ele>45.7999</ele>
        <time>2014-06-06T15:25:05Z</time>
      </trkpt>
      <trkpt lat="59.927273" lon="17.7405654">
        <ele>45.7999</ele>
        <time>2014-06-06T15:25:06Z</time>
      </trkpt>
      <trkpt lat="59.927278" lon="17.740584">
        <ele>45.3192</ele>
        <time>2014-06-06T15:25:07Z</time>
      </trkpt>
      <trkpt lat="59.9272826" lon="17.7405989">
        <ele>45.3192</ele>
        <time>2014-06-06T15:25:08Z</time>
      </trkpt>
      <trkpt lat="59.9272954" lon="17.7406105">
        <ele>45.3192</ele>
        <time>2014-06-06T15:25:09Z</time>
      </trkpt>
      <trkpt lat="59.9273092" lon="17.7406251">
        <ele>45.3192</ele>
        <time>2014-06-06T15:25:10Z</time>
      </trkpt>
      <trkpt lat="59.9273229" lon="17.7406334">
        <ele>45.3192</ele>
        <time>2014-06-06T15:25:11Z</time>
      </trkpt>
      <trkpt lat="59.9273366" lon="17.7406393">
        <ele>45.3192</ele>
        <time>2014-06-06T15:25:12Z</time>
      </trkpt>
      <trkpt lat="59.9273532" lon="17.7406448">
        <ele>45.7999</ele>
        <time>2014-06-06T15:25:13Z</time>
      </trkpt>
      <trkpt lat="59.9273708" lon="17.7406504">
        <ele>45.3192</ele>
        <time>2014-06-06T15:25:14Z</time>
      </trkpt>
      <trkpt lat="59.9273915" lon="17.7406528">
        <ele>45.3192</ele>
        <time>2014-06-06T15:25:15Z</time>
      </trkpt>
      <trkpt lat="59.9274123" lon="17.7406548">
        <ele>45.3192</ele>
        <time>2014-06-06T15:25:16Z</time>
      </trkpt>
      <trkpt lat="59.9274351" lon="17.7406564">
        <ele>45.3192</ele>
        <time>2014-06-06T15:25:17Z</time>
      </trkpt>
      <trkpt lat="59.9274573" lon="17.7406554">
        <ele>45.3192</ele>
        <time>2014-06-06T15:25:18Z</time>
      </trkpt>
      <trkpt lat="59.9274742" lon="17.7406562">
        <ele>45.3192</ele>
        <time>2014-06-06T15:25:19Z</time>
      </trkpt>
      <trkpt lat="59.9274887" lon="17.7406556">
        <ele>45.3192</ele>
        <time>2014-06-06T15:25:20Z</time>
      </trkpt>
      <trkpt lat="59.9275014" lon="17.7406519">
        <ele>44.8386</ele>
        <time>2014-06-06T15:25:21Z</time>
      </trkpt>
      <trkpt lat="59.9275168" lon="17.7406432">
        <ele>44.8386</ele>
        <time>2014-06-06T15:25:22Z</time>
      </trkpt>
      <trkpt lat="59.9275281" lon="17.7406332">
        <ele>43.8773</ele>
        <time>2014-06-06T15:25:23Z</time>
      </trkpt>
      <trkpt lat="59.9275395" lon="17.7406208">
        <ele>43.3966</ele>
        <time>2014-06-06T15:25:24Z</time>
      </trkpt>
      <trkpt lat="59.9275459" lon="17.7406131">
        <ele>43.3966</ele>
        <time>2014-06-06T15:25:25Z</time>
      </trkpt>
      <trkpt lat="59.9275552" lon="17.7406074">
        <ele>42.916</ele>
        <time>2014-06-06T15:25:26Z</time>
      </trkpt>
      <trkpt lat="59.9275619" lon="17.7406099">
        <ele>43.3966</ele>
        <time>2014-06-06T15:25:27Z</time>
      </trkpt>
      <trkpt lat="59.9275676" lon="17.740612">
        <ele>43.8773</ele>
        <time>2014-06-06T15:25:28Z</time>
      </trkpt>
      <trkpt lat="59.9275731" lon="17.7406082">
        <ele>44.358</ele>
        <time>2014-06-06T15:25:29Z</time>
      </trkpt>
      <trkpt lat="59.927578" lon="17.7406085">
        <ele>44.8386</ele>
        <time>2014-06-06T15:25:30Z</time>
      </trkpt>
      <trkpt lat="59.927585" lon="17.7406031">
        <ele>45.3192</ele>
        <time>2014-06-06T15:25:31Z</time>
      </trkpt>
      <trkpt lat="59.9275864" lon="17.7405949">
        <ele>45.7999</ele>
        <time>2014-06-06T15:25:32Z</time>
      </trkpt>
      <trkpt lat="59.92759" lon="17.7405794">
        <ele>45.3192</ele>
        <time>2014-06-06T15:25:33Z</time>
      </trkpt>
      <trkpt lat="59.9275868" lon="17.7405631">
        <ele>44.358</ele>
        <time>2014-06-06T15:25:34Z</time>
      </trkpt>
      <trkpt lat="59.9275874" lon="17.7405614">
        <ele>44.358</ele>
        <time>2014-06-06T15:25:35Z</time>
      </trkpt>
      <trkpt lat="59.9275785" lon="17.7405456">
        <ele>42.916</ele>
        <time>2014-06-06T15:25:36Z</time>
      </trkpt>
      <trkpt lat="59.9275754" lon="17.7405343">
        <ele>41.9547</ele>
        <time>2014-06-06T15:25:37Z</time>
      </trkpt>
      <trkpt lat="59.9275753" lon="17.7405334">
        <ele>41.474</ele>
        <time>2014-06-06T15:25:38Z</time>
      </trkpt>
      <trkpt lat="59.9275821" lon="17.7405367">
        <ele>41.474</ele>
        <time>2014-06-06T15:25:39Z</time>
      </trkpt>
      <trkpt lat="59.9275899" lon="17.7405385">
        <ele>41.474</ele>
        <time>2014-06-06T15:25:40Z</time>
      </trkpt>
      <trkpt lat="59.9275995" lon="17.7405375">
        <ele>41.9547</ele>
        <time>2014-06-06T15:25:41Z</time>
      </trkpt>
      <trkpt lat="59.9276111" lon="17.7405381">
        <ele>41.9547</ele>
        <time>2014-06-06T15:25:42Z</time>
      </trkpt>
      <trkpt lat="59.9276281" lon="17.7405447">
        <ele>42.4354</ele>
        <time>2014-06-06T15:25:43Z</time>
      </trkpt>
      <trkpt lat="59.9276448" lon="17.7405557">
        <ele>42.916</ele>
        <time>2014-06-06T15:25:44Z</time>
      </trkpt>
      <trkpt lat="59.9276663" lon="17.7405597">
        <ele>42.916</ele>
        <time>2014-06-06T15:25:45Z</time>
      </trkpt>
      <trkpt lat="59.9276847" lon="17.740571">
        <ele>42.916</ele>
        <time>2014-06-06T15:25:46Z</time>
      </trkpt>
      <trkpt lat="59.9277002" lon="17.7405856">
        <ele>43.3966</ele>
        <time>2014-06-06T15:25:47Z</time>
      </trkpt>
      <trkpt lat="59.9277163" lon="17.7405963">
        <ele>43.3966</ele>
        <time>2014-06-06T15:25:48Z</time>
      </trkpt>
      <trkpt lat="59.9277338" lon="17.7406005">
        <ele>43.8773</ele>
        <time>2014-06-06T15:25:49Z</time>
      </trkpt>
      <trkpt lat="59.927749" lon="17.7406025">
        <ele>44.358</ele>
        <time>2014-06-06T15:25:50Z</time>
      </trkpt>
      <trkpt lat="59.9277599" lon="17.7406058">
        <ele>43.8773</ele>
        <time>2014-06-06T15:25:51Z</time>
      </trkpt>
      <trkpt lat="59.9277753" lon="17.7406155">
        <ele>43.8773</ele>
        <time>2014-06-06T15:25:52Z</time>
      </trkpt>
      <trkpt lat="59.9277897" lon="17.740628">
        <ele>44.358</ele>
        <time>2014-06-06T15:25:53Z</time>
      </trkpt>
      <trkpt lat="59.9277984" lon="17.7406359">
        <ele>44.8386</ele>
        <time>2014-06-06T15:25:54Z</time>
      </trkpt>
      <trkpt lat="59.9278054" lon="17.740644">
        <ele>44.8386</ele>
        <time>2014-06-06T15:25:55Z</time>
      </trkpt>
      <trkpt lat="59.9278135" lon="17.7406544">
        <ele>44.8386</ele>
        <time>2014-06-06T15:25:56Z</time>
      </trkpt>
      <trkpt lat="59.9278354" lon="17.740655">
        <ele>45.7999</ele>
        <time>2014-06-06T15:25:57Z</time>
      </trkpt>
      <trkpt lat="59.9278545" lon="17.7406579">
        <ele>46.2806</ele>
        <time>2014-06-06T15:25:58Z</time>
      </trkpt>
      <trkpt lat="59.9278669" lon="17.7406628">
        <ele>46.2806</ele>
        <time>2014-06-06T15:25:59Z</time>
      </trkpt>
      <trkpt lat="59.9278811" lon="17.7406663">
        <ele>46.2806</ele>
        <time>2014-06-06T15:26:00Z</time>
      </trkpt>
      <trkpt lat="59.9278961" lon="17.7406664">
        <ele>46.2806</ele>
        <time>2014-06-06T15:26:01Z</time>
      </trkpt>
      <trkpt lat="59.9279165" lon="17.7406695">
        <ele>46.2806</ele>
        <time>2014-06-06T15:26:02Z</time>
      </trkpt>
      <trkpt lat="59.9279331" lon="17.7406747">
        <ele>45.7999</ele>
        <time>2014-06-06T15:26:03Z</time>
      </trkpt>
      <trkpt lat="59.9279479" lon="17.740669">
        <ele>45.7999</ele>
        <time>2014-06-06T15:26:04Z</time>
      </trkpt>
      <trkpt lat="59.9279609" lon="17.7406685">
        <ele>45.7999</ele>
        <time>2014-06-06T15:26:05Z</time>
      </trkpt>
      <trkpt lat="59.9279768" lon="17.7406764">
        <ele>45.3192</ele>
        <time>2014-06-06T15:26:06Z</time>
      </trkpt>
      <trkpt lat="59.927994" lon="17.7406882">
        <ele>44.8386</ele>
        <time>2014-06-06T15:26:07Z</time>
      </trkpt>
      <trkpt lat="59.9280116" lon="17.7407028">
        <ele>44.8386</ele>
        <time>2014-06-06T15:26:08Z</time>
      </trkpt>
      <trkpt lat="59.9280295" lon="17.7407229">
        <ele>44.358</ele>
        <time>2014-06-06T15:26:09Z</time>
      </trkpt>
      <trkpt lat="59.928046" lon="17.7407465">
        <ele>44.358</ele>
        <time>2014-06-06T15:26:10Z</time>
      </trkpt>
      <trkpt lat="59.9280595" lon="17.7407637">
        <ele>43.8773</ele>
        <time>2014-06-06T15:26:11Z</time>
      </trkpt>
      <trkpt lat="59.9280716" lon="17.7407791">
        <ele>43.8773</ele>
        <time>2014-06-06T15:26:12Z</time>
      </trkpt>
      <trkpt lat="59.9280846" lon="17.7407914">
        <ele>43.3966</ele>
        <time>2014-06-06T15:26:13Z</time>
      </trkpt>
      <trkpt lat="59.9281007" lon="17.7408017">
        <ele>43.8773</ele>
        <time>2014-06-06T15:26:14Z</time>
      </trkpt>
      <trkpt lat="59.9281157" lon="17.7408">
        <ele>43.8773</ele>
        <time>2014-06-06T15:26:15Z</time>
      </trkpt>
      <trkpt lat="59.9281326" lon="17.7407954">
        <ele>43.8773</ele>
        <time>2014-06-06T15:26:16Z</time>
      </trkpt>
      <trkpt lat="59.9281467" lon="17.7407908">
        <ele>43.8773</ele>
        <time>2014-06-06T15:26:17Z</time>
      </trkpt>
      <trkpt lat="59.9281649" lon="17.7407844">
        <ele>44.358</ele>
        <time>2014-06-06T15:26:18Z</time>
      </trkpt>
      <trkpt lat="59.9281825" lon="17.7407788">
        <ele>44.358</ele>
        <time>2014-06-06T15:26:19Z</time>
      </trkpt>
      <trkpt lat="59.9281987" lon="17.7407709">
        <ele>44.358</ele>
        <time>2014-06-06T15:26:20Z</time>
      </trkpt>
      <trkpt lat="59.9282183" lon="17.7407641">
        <ele>43.8773</ele>
        <time>2014-06-06T15:26:21Z</time>
      </trkpt>
      <trkpt lat="59.9282401" lon="17.7407523">
        <ele>44.358</ele>
        <time>2014-06-06T15:26:22Z</time>
      </trkpt>
      <trkpt lat="59.92826" lon="17.7407358">
        <ele>44.358</ele>
        <time>2014-06-06T15:26:23Z</time>
      </trkpt>
      <trkpt lat="59.9282755" lon="17.7407183">
        <ele>44.358</ele>
        <time>2014-06-06T15:26:24Z</time>
      </trkpt>
      <trkpt lat="59.9282945" lon="17.7407043">
        <ele>44.8386</ele>
        <time>2014-06-06T15:26:25Z</time>
      </trkpt>
      <trkpt lat="59.9283102" lon="17.740697">
        <ele>44.358</ele>
        <time>2014-06-06T15:26:26Z</time>
      </trkpt>
      <trkpt lat="59.9283328" lon="17.7406878">
        <ele>44.358</ele>
        <time>2014-06-06T15:26:27Z</time>
      </trkpt>
      <trkpt lat="59.9283462" lon="17.7406788">
        <ele>43.8773</ele>
        <time>2014-06-06T15:26:28Z</time>
      </trkpt>
      <trkpt lat="59.9283553" lon="17.7406721">
        <ele>43.3966</ele>
        <time>2014-06-06T15:26:29Z</time>
      </trkpt>
      <trkpt lat="59.928373" lon="17.7406681">
        <ele>43.8773</ele>
        <time>2014-06-06T15:26:30Z</time>
      </trkpt>
      <trkpt lat="59.9283831" lon="17.7406657">
        <ele>43.8773</ele>
        <time>2014-06-06T15:26:31Z</time>
      </trkpt>
      <trkpt lat="59.9283922" lon="17.7406561">
        <ele>43.8773</ele>
        <time>2014-06-06T15:26:32Z</time>
      </trkpt>
      <trkpt lat="59.9283996" lon="17.7406462">
        <ele>44.358</ele>
        <time>2014-06-06T15:26:33Z</time>
      </trkpt>
      <trkpt lat="59.9284092" lon="17.7406405">
        <ele>43.8773</ele>
        <time>2014-06-06T15:26:34Z</time>
      </trkpt>
      <trkpt lat="59.92842" lon="17.7406346">
        <ele>44.358</ele>
        <time>2014-06-06T15:26:35Z</time>
      </trkpt>
      <trkpt lat="59.9284273" lon="17.7406294">
        <ele>45.3192</ele>
        <time>2014-06-06T15:26:36Z</time>
      </trkpt>
      <trkpt lat="59.9284375" lon="17.7406276">
        <ele>45.3192</ele>
        <time>2014-06-06T15:26:37Z</time>
      </trkpt>
      <trkpt lat="59.9284466" lon="17.7406189">
        <ele>45.7999</ele>
        <time>2014-06-06T15:26:38Z</time>
      </trkpt>
      <trkpt lat="59.928455" lon="17.7406161">
        <ele>45.7999</ele>
        <time>2014-06-06T15:26:39Z</time>
      </trkpt>
      <trkpt lat="59.9284683" lon="17.7406122">
        <ele>45.7999</ele>
        <time>2014-06-06T15:26:40Z</time>
      </trkpt>
      <trkpt lat="59.9284827" lon="17.7406032">
        <ele>45.7999</ele>
        <time>2014-06-06T15:26:41Z</time>
      </trkpt>
      <trkpt lat="59.9284953" lon="17.7405976">
        <ele>45.7999</ele>
        <time>2014-06-06T15:26:42Z</time>
      </trkpt>
      <trkpt lat="59.9285112" lon="17.7405871">
        <ele>45.7999</ele>
        <time>2014-06-06T15:26:43Z</time>
      </trkpt>
      <trkpt lat="59.9285265" lon="17.7405768">
        <ele>45.7999</ele>
        <time>2014-06-06T15:26:44Z</time>
      </trkpt>
      <trkpt lat="59.9285366" lon="17.7405617">
        <ele>45.7999</ele>
        <time>2014-06-06T15:26:45Z</time>
      </trkpt>
      <trkpt lat="59.9285452" lon="17.7405426">
        <ele>45.7999</ele>
        <time>2014-06-06T15:26:46Z</time>
      </trkpt>
      <trkpt lat="59.9285552" lon="17.7405183">
        <ele>45.7999</ele>
        <time>2014-06-06T15:26:47Z</time>
      </trkpt>
      <trkpt lat="59.9285609" lon="17.7404987">
        <ele>45.3192</ele>
        <time>2014-06-06T15:26:48Z</time>
      </trkpt>
      <trkpt lat="59.9285597" lon="17.7404784">
        <ele>44.8386</ele>
        <time>2014-06-06T15:26:49Z</time>
      </trkpt>
      <trkpt lat="59.9285565" lon="17.7404639">
        <ele>44.8386</ele>
        <time>2014-06-06T15:26:50Z</time>
      </trkpt>
      <trkpt lat="59.9285549" lon="17.7404593">
        <ele>44.8386</ele>
        <time>2014-06-06T15:26:51Z</time>
      </trkpt>
      <trkpt lat="59.9285553" lon="17.7404547">
        <ele>44.8386</ele>
        <time>2014-06-06T15:26:52Z</time>
      </trkpt>
      <trkpt lat="59.9284441" lon="17.7405362">
        <ele>40.0321</ele>
        <time>2014-06-06T15:27:11Z</time>
      </trkpt>
      <trkpt lat="59.9284299" lon="17.740551">
        <ele>39.0707</ele>
        <time>2014-06-06T15:27:12Z</time>
      </trkpt>
      <trkpt lat="59.9284203" lon="17.7405683">
        <ele>38.5901</ele>
        <time>2014-06-06T15:27:13Z</time>
      </trkpt>
      <trkpt lat="59.9284124" lon="17.7405841">
        <ele>38.1094</ele>
        <time>2014-06-06T15:27:14Z</time>
      </trkpt>
      <trkpt lat="59.9284011" lon="17.7405924">
        <ele>37.1481</ele>
        <time>2014-06-06T15:27:15Z</time>
      </trkpt>
      <trkpt lat="59.9283881" lon="17.7406001">
        <ele>36.6675</ele>
        <time>2014-06-06T15:27:16Z</time>
      </trkpt>
      <trkpt lat="59.9283765" lon="17.7406134">
        <ele>36.1868</ele>
        <time>2014-06-06T15:27:17Z</time>
      </trkpt>
      <trkpt lat="59.9283641" lon="17.7406326">
        <ele>35.7061</ele>
        <time>2014-06-06T15:27:18Z</time>
      </trkpt>
      <trkpt lat="59.9283429" lon="17.7406523">
        <ele>34.7449</ele>
        <time>2014-06-06T15:27:19Z</time>
      </trkpt>
      <trkpt lat="59.9283157" lon="17.7406567">
        <ele>34.2642</ele>
        <time>2014-06-06T15:27:20Z</time>
      </trkpt>
      <trkpt lat="59.9282892" lon="17.7406686">
        <ele>33.7834</ele>
        <time>2014-06-06T15:27:21Z</time>
      </trkpt>
      <trkpt lat="59.9282659" lon="17.7406903">
        <ele>33.3029</ele>
        <time>2014-06-06T15:27:22Z</time>
      </trkpt>
      <trkpt lat="59.9282395" lon="17.7407154">
        <ele>33.3029</ele>
        <time>2014-06-06T15:27:23Z</time>
      </trkpt>
      <trkpt lat="59.9282178" lon="17.7407273">
        <ele>33.3029</ele>
        <time>2014-06-06T15:27:24Z</time>
      </trkpt>
      <trkpt lat="59.9282051" lon="17.7407374">
        <ele>32.3416</ele>
        <time>2014-06-06T15:27:25Z</time>
      </trkpt>
      <trkpt lat="59.9281939" lon="17.7407476">
        <ele>32.3416</ele>
        <time>2014-06-06T15:27:26Z</time>
      </trkpt>
      <trkpt lat="59.9281836" lon="17.7407582">
        <ele>31.8607</ele>
        <time>2014-06-06T15:27:27Z</time>
      </trkpt>
      <trkpt lat="59.928166" lon="17.7407634">
        <ele>32.3416</ele>
        <time>2014-06-06T15:27:28Z</time>
      </trkpt>
      <trkpt lat="59.9281466" lon="17.7407607">
        <ele>32.3416</ele>
        <time>2014-06-06T15:27:29Z</time>
      </trkpt>
      <trkpt lat="59.928123" lon="17.7407624">
        <ele>32.3416</ele>
        <time>2014-06-06T15:27:30Z</time>
      </trkpt>
      <trkpt lat="59.9281038" lon="17.7407817">
        <ele>32.3416</ele>
        <time>2014-06-06T15:27:31Z</time>
      </trkpt>
      <trkpt lat="59.9280944" lon="17.7408078">
        <ele>31.3801</ele>
        <time>2014-06-06T15:27:32Z</time>
      </trkpt>
      <trkpt lat="59.9280831" lon="17.7408327">
        <ele>30.4188</ele>
        <time>2014-06-06T15:27:33Z</time>
      </trkpt>
      <trkpt lat="59.9280722" lon="17.7408582">
        <ele>29.4575</ele>
        <time>2014-06-06T15:27:34Z</time>
      </trkpt>
      <trkpt lat="59.9280637" lon="17.7408914">
        <ele>28.4962</ele>
        <time>2014-06-06T15:27:35Z</time>
      </trkpt>
      <trkpt lat="59.9280592" lon="17.740929">
        <ele>27.0543</ele>
        <time>2014-06-06T15:27:36Z</time>
      </trkpt>
      <trkpt lat="59.9280595" lon="17.740963">
        <ele>26.0929</ele>
        <time>2014-06-06T15:27:37Z</time>
      </trkpt>
      <trkpt lat="59.9280662" lon="17.7409988">
        <ele>26.0929</ele>
        <time>2014-06-06T15:27:38Z</time>
      </trkpt>
      <trkpt lat="59.9280769" lon="17.741026">
        <ele>26.0929</ele>
        <time>2014-06-06T15:27:39Z</time>
      </trkpt>
      <trkpt lat="59.9280892" lon="17.7410482">
        <ele>26.5736</ele>
        <time>2014-06-06T15:27:40Z</time>
      </trkpt>
      <trkpt lat="59.9281039" lon="17.7410547">
        <ele>27.5349</ele>
        <time>2014-06-06T15:27:41Z</time>
      </trkpt>
      <trkpt lat="59.9281197" lon="17.7410679">
        <ele>27.5349</ele>
        <time>2014-06-06T15:27:42Z</time>
      </trkpt>
      <trkpt lat="59.9281378" lon="17.7410679">
        <ele>27.5349</ele>
        <time>2014-06-06T15:27:43Z</time>
      </trkpt>
      <trkpt lat="59.9281623" lon="17.7410623">
        <ele>28.0155</ele>
        <time>2014-06-06T15:27:44Z</time>
      </trkpt>
      <trkpt lat="59.9281808" lon="17.7410623">
        <ele>28.4962</ele>
        <time>2014-06-06T15:27:45Z</time>
      </trkpt>
      <trkpt lat="59.928202" lon="17.7410696">
        <ele>29.4575</ele>
        <time>2014-06-06T15:27:46Z</time>
      </trkpt>
      <trkpt lat="59.9282237" lon="17.7410832">
        <ele>30.4188</ele>
        <time>2014-06-06T15:27:47Z</time>
      </trkpt>
      <trkpt lat="59.9282551" lon="17.741092">
        <ele>31.3801</ele>
        <time>2014-06-06T15:27:48Z</time>
      </trkpt>
      <trkpt lat="59.9282882" lon="17.7410994">
        <ele>32.8223</ele>
        <time>2014-06-06T15:27:49Z</time>
      </trkpt>
      <trkpt lat="59.9283115" lon="17.7411">
        <ele>33.7834</ele>
        <time>2014-06-06T15:27:50Z</time>
      </trkpt>
      <trkpt lat="59.9283363" lon="17.7410948">
        <ele>34.2642</ele>
        <time>2014-06-06T15:27:51Z</time>
      </trkpt>
      <trkpt lat="59.9283628" lon="17.7410892">
        <ele>35.2255</ele>
        <time>2014-06-06T15:27:52Z</time>
      </trkpt>
      <trkpt lat="59.9283866" lon="17.7410782">
        <ele>35.7061</ele>
        <time>2014-06-06T15:27:53Z</time>
      </trkpt>
      <trkpt lat="59.9284146" lon="17.7410731">
        <ele>36.6675</ele>
        <time>2014-06-06T15:27:54Z</time>
      </trkpt>
      <trkpt lat="59.9284403" lon="17.741078">
        <ele>36.6675</ele>
        <time>2014-06-06T15:27:55Z</time>
      </trkpt>
      <trkpt lat="59.9284628" lon="17.7410928">
        <ele>37.6287</ele>
        <time>2014-06-06T15:27:56Z</time>
      </trkpt>
      <trkpt lat="59.9284845" lon="17.7410991">
        <ele>37.6287</ele>
        <time>2014-06-06T15:27:57Z</time>
      </trkpt>
      <trkpt lat="59.9285099" lon="17.7410932">
        <ele>38.1094</ele>
        <time>2014-06-06T15:27:58Z</time>
      </trkpt>
      <trkpt lat="59.9285346" lon="17.7410863">
        <ele>38.5901</ele>
        <time>2014-06-06T15:27:59Z</time>
      </trkpt>
      <trkpt lat="59.9285631" lon="17.7410808">
        <ele>39.0707</ele>
        <time>2014-06-06T15:28:00Z</time>
      </trkpt>
      <trkpt lat="59.9285902" lon="17.7410807">
        <ele>39.5513</ele>
        <time>2014-06-06T15:28:01Z</time>
      </trkpt>
      <trkpt lat="59.9286207" lon="17.741077">
        <ele>39.5513</ele>
        <time>2014-06-06T15:28:02Z</time>
      </trkpt>
      <trkpt lat="59.9286549" lon="17.7410797">
        <ele>40.0321</ele>
        <time>2014-06-06T15:28:03Z</time>
      </trkpt>
      <trkpt lat="59.9286933" lon="17.7410912">
        <ele>40.5128</ele>
        <time>2014-06-06T15:28:04Z</time>
      </trkpt>
      <trkpt lat="59.9287269" lon="17.7411062">
        <ele>40.9934</ele>
        <time>2014-06-06T15:28:05Z</time>
      </trkpt>
      <trkpt lat="59.9287543" lon="17.7411254">
        <ele>40.5128</ele>
        <time>2014-06-06T15:28:06Z</time>
      </trkpt>
      <trkpt lat="59.9287823" lon="17.7411381">
        <ele>40.9934</ele>
        <time>2014-06-06T15:28:07Z</time>
      </trkpt>
      <trkpt lat="59.9288098" lon="17.7411407">
        <ele>40.9934</ele>
        <time>2014-06-06T15:28:08Z</time>
      </trkpt>
      <trkpt lat="59.9288428" lon="17.7411389">
        <ele>41.9547</ele>
        <time>2014-06-06T15:28:09Z</time>
      </trkpt>
      <trkpt lat="59.9288707" lon="17.7411355">
        <ele>41.9547</ele>
        <time>2014-06-06T15:28:10Z</time>
      </trkpt>
      <trkpt lat="59.9288989" lon="17.7411332">
        <ele>42.916</ele>
        <time>2014-06-06T15:28:11Z</time>
      </trkpt>
      <trkpt lat="59.9289226" lon="17.7411269">
        <ele>42.4354</ele>
        <time>2014-06-06T15:28:12Z</time>
      </trkpt>
      <trkpt lat="59.9289543" lon="17.7411398">
        <ele>43.8773</ele>
        <time>2014-06-06T15:28:13Z</time>
      </trkpt>
      <trkpt lat="59.9289762" lon="17.7411627">
        <ele>43.8773</ele>
        <time>2014-06-06T15:28:14Z</time>
      </trkpt>
      <trkpt lat="59.9290004" lon="17.7411894">
        <ele>44.8386</ele>
        <time>2014-06-06T15:28:15Z</time>
      </trkpt>
      <trkpt lat="59.9290354" lon="17.7412109">
        <ele>45.7999</ele>
        <time>2014-06-06T15:28:16Z</time>
      </trkpt>
      <trkpt lat="59.9290688" lon="17.7412166">
        <ele>47.2418</ele>
        <time>2014-06-06T15:28:17Z</time>
      </trkpt>
      <trkpt lat="59.9290929" lon="17.7411965">
        <ele>47.2418</ele>
        <time>2014-06-06T15:28:18Z</time>
      </trkpt>
      <trkpt lat="59.9291192" lon="17.7411605">
        <ele>46.2806</ele>
        <time>2014-06-06T15:28:19Z</time>
      </trkpt>
      <trkpt lat="59.9291501" lon="17.7411236">
        <ele>45.7999</ele>
        <time>2014-06-06T15:28:20Z</time>
      </trkpt>
      <trkpt lat="59.9291924" lon="17.7410865">
        <ele>46.2806</ele>
        <time>2014-06-06T15:28:21Z</time>
      </trkpt>
      <trkpt lat="59.9292393" lon="17.7410402">
        <ele>46.7612</ele>
        <time>2014-06-06T15:28:22Z</time>
      </trkpt>
      <trkpt lat="59.9292662" lon="17.7410025">
        <ele>46.2806</ele>
        <time>2014-06-06T15:28:23Z</time>
      </trkpt>
      <trkpt lat="59.9292849" lon="17.7409748">
        <ele>45.7999</ele>
        <time>2014-06-06T15:28:24Z</time>
      </trkpt>
      <trkpt lat="59.9293086" lon="17.7409564">
        <ele>45.3192</ele>
        <time>2014-06-06T15:28:25Z</time>
      </trkpt>
      <trkpt lat="59.929331" lon="17.7409481">
        <ele>44.8386</ele>
        <time>2014-06-06T15:28:26Z</time>
      </trkpt>
      <trkpt lat="59.929369" lon="17.7409413">
        <ele>44.8386</ele>
        <time>2014-06-06T15:28:27Z</time>
      </trkpt>
      <trkpt lat="59.9294002" lon="17.7409352">
        <ele>45.3192</ele>
        <time>2014-06-06T15:28:28Z</time>
      </trkpt>
      <trkpt lat="59.9294272" lon="17.7409314">
        <ele>44.8386</ele>
        <time>2014-06-06T15:28:29Z</time>
      </trkpt>
      <trkpt lat="59.9294454" lon="17.7409346">
        <ele>44.8386</ele>
        <time>2014-06-06T15:28:30Z</time>
      </trkpt>
      <trkpt lat="59.9294634" lon="17.7409389">
        <ele>44.8386</ele>
        <time>2014-06-06T15:28:31Z</time>
      </trkpt>
      <trkpt lat="59.9294752" lon="17.740955">
        <ele>44.8386</ele>
        <time>2014-06-06T15:28:32Z</time>
      </trkpt>
      <trkpt lat="59.9294915" lon="17.7409765">
        <ele>44.8386</ele>
        <time>2014-06-06T15:28:33Z</time>
      </trkpt>
      <trkpt lat="59.9295117" lon="17.7410007">
        <ele>44.8386</ele>
        <time>2014-06-06T15:28:34Z</time>
      </trkpt>
      <trkpt lat="59.9295323" lon="17.7410278">
        <ele>44.8386</ele>
        <time>2014-06-06T15:28:35Z</time>
      </trkpt>
      <trkpt lat="59.9295542" lon="17.7410517">
        <ele>44.8386</ele>
        <time>2014-06-06T15:28:36Z</time>
      </trkpt>
      <trkpt lat="59.9295749" lon="17.7410532">
        <ele>44.8386</ele>
        <time>2014-06-06T15:28:37Z</time>
      </trkpt>
      <trkpt lat="59.9295931" lon="17.7410404">
        <ele>44.8386</ele>
        <time>2014-06-06T15:28:38Z</time>
      </trkpt>
      <trkpt lat="59.9296115" lon="17.7410347">
        <ele>44.8386</ele>
        <time>2014-06-06T15:28:39Z</time>
      </trkpt>
      <trkpt lat="59.9296312" lon="17.7410341">
        <ele>44.358</ele>
        <time>2014-06-06T15:28:40Z</time>
      </trkpt>
      <trkpt lat="59.9296484" lon="17.7410388">
        <ele>43.8773</ele>
        <time>2014-06-06T15:28:41Z</time>
      </trkpt>
      <trkpt lat="59.9296693" lon="17.7410415">
        <ele>43.3966</ele>
        <time>2014-06-06T15:28:42Z</time>
      </trkpt>
      <trkpt lat="59.9296907" lon="17.7410389">
        <ele>43.3966</ele>
        <time>2014-06-06T15:28:43Z</time>
      </trkpt>
      <trkpt lat="59.929714" lon="17.7410239">
        <ele>43.8773</ele>
        <time>2014-06-06T15:28:44Z</time>
      </trkpt>
      <trkpt lat="59.9297373" lon="17.7409912">
        <ele>43.8773</ele>
        <time>2014-06-06T15:28:45Z</time>
      </trkpt>
      <trkpt lat="59.9297597" lon="17.7409472">
        <ele>43.3966</ele>
        <time>2014-06-06T15:28:46Z</time>
      </trkpt>
      <trkpt lat="59.9297841" lon="17.7409152">
        <ele>43.3966</ele>
        <time>2014-06-06T15:28:47Z</time>
      </trkpt>
      <trkpt lat="59.929811" lon="17.7408943">
        <ele>43.8773</ele>
        <time>2014-06-06T15:28:48Z</time>
      </trkpt>
      <trkpt lat="59.9298432" lon="17.7408762">
        <ele>44.358</ele>
        <time>2014-06-06T15:28:49Z</time>
      </trkpt>
      <trkpt lat="59.9298624" lon="17.7408675">
        <ele>44.358</ele>
        <time>2014-06-06T15:28:50Z</time>
      </trkpt>
      <trkpt lat="59.9298843" lon="17.7408605">
        <ele>44.358</ele>
        <time>2014-06-06T15:28:51Z</time>
      </trkpt>
      <trkpt lat="59.9299095" lon="17.7408527">
        <ele>44.8386</ele>
        <time>2014-06-06T15:28:52Z</time>
      </trkpt>
      <trkpt lat="59.9299344" lon="17.7408522">
        <ele>44.8386</ele>
        <time>2014-06-06T15:28:53Z</time>
      </trkpt>
      <trkpt lat="59.9299588" lon="17.7408504">
        <ele>44.8386</ele>
        <time>2014-06-06T15:28:54Z</time>
      </trkpt>
      <trkpt lat="59.9299799" lon="17.740843">
        <ele>44.8386</ele>
        <time>2014-06-06T15:28:55Z</time>
      </trkpt>
      <trkpt lat="59.9300089" lon="17.740841">
        <ele>44.8386</ele>
        <time>2014-06-06T15:28:56Z</time>
      </trkpt>
      <trkpt lat="59.9300401" lon="17.7408411">
        <ele>44.8386</ele>
        <time>2014-06-06T15:28:57Z</time>
      </trkpt>
      <trkpt lat="59.930065" lon="17.7408487">
        <ele>43.8773</ele>
        <time>2014-06-06T15:28:58Z</time>
      </trkpt>
      <trkpt lat="59.9300908" lon="17.7408517">
        <ele>42.916</ele>
        <time>2014-06-06T15:28:59Z</time>
      </trkpt>
      <trkpt lat="59.9301198" lon="17.740852">
        <ele>42.916</ele>
        <time>2014-06-06T15:29:00Z</time>
      </trkpt>
      <trkpt lat="59.9301515" lon="17.7408577">
        <ele>43.3966</ele>
        <time>2014-06-06T15:29:01Z</time>
      </trkpt>
      <trkpt lat="59.9301779" lon="17.7408633">
        <ele>42.916</ele>
        <time>2014-06-06T15:29:02Z</time>
      </trkpt>
      <trkpt lat="59.9302057" lon="17.740867">
        <ele>43.3966</ele>
        <time>2014-06-06T15:29:03Z</time>
      </trkpt>
      <trkpt lat="59.9302298" lon="17.7408742">
        <ele>43.3966</ele>
        <time>2014-06-06T15:29:04Z</time>
      </trkpt>
      <trkpt lat="59.9302494" lon="17.7408834">
        <ele>42.916</ele>
        <time>2014-06-06T15:29:05Z</time>
      </trkpt>
      <trkpt lat="59.930286" lon="17.7408963">
        <ele>43.8773</ele>
        <time>2014-06-06T15:29:06Z</time>
      </trkpt>
      <trkpt lat="59.9303468" lon="17.7409399">
        <ele>45.7999</ele>
        <time>2014-06-06T15:29:07Z</time>
      </trkpt>
      <trkpt lat="59.9303751" lon="17.7409866">
        <ele>46.7612</ele>
        <time>2014-06-06T15:29:08Z</time>
      </trkpt>
      <trkpt lat="59.9303934" lon="17.7410304">
        <ele>46.7612</ele>
        <time>2014-06-06T15:29:09Z</time>
      </trkpt>
      <trkpt lat="59.9304146" lon="17.7410788">
        <ele>46.7612</ele>
        <time>2014-06-06T15:29:10Z</time>
      </trkpt>
      <trkpt lat="59.9304399" lon="17.7411262">
        <ele>47.2418</ele>
        <time>2014-06-06T15:29:11Z</time>
      </trkpt>
      <trkpt lat="59.9304639" lon="17.7411736">
        <ele>47.7225</ele>
        <time>2014-06-06T15:29:12Z</time>
      </trkpt>
      <trkpt lat="59.930483" lon="17.7412179">
        <ele>47.7225</ele>
        <time>2014-06-06T15:29:13Z</time>
      </trkpt>
      <trkpt lat="59.9304986" lon="17.7412601">
        <ele>47.2418</ele>
        <time>2014-06-06T15:29:14Z</time>
      </trkpt>
      <trkpt lat="59.9305076" lon="17.7413051">
        <ele>47.2418</ele>
        <time>2014-06-06T15:29:15Z</time>
      </trkpt>
      <trkpt lat="59.9305121" lon="17.7413598">
        <ele>46.7612</ele>
        <time>2014-06-06T15:29:16Z</time>
      </trkpt>
      <trkpt lat="59.9305119" lon="17.7414201">
        <ele>46.7612</ele>
        <time>2014-06-06T15:29:17Z</time>
      </trkpt>
      <trkpt lat="59.9305068" lon="17.741477">
        <ele>46.2806</ele>
        <time>2014-06-06T15:29:18Z</time>
      </trkpt>
      <trkpt lat="59.9305062" lon="17.7415319">
        <ele>46.2806</ele>
        <time>2014-06-06T15:29:19Z</time>
      </trkpt>
      <trkpt lat="59.9305062" lon="17.741589">
        <ele>46.2806</ele>
        <time>2014-06-06T15:29:20Z</time>
      </trkpt>
      <trkpt lat="59.9305073" lon="17.7416413">
        <ele>45.7999</ele>
        <time>2014-06-06T15:29:21Z</time>
      </trkpt>
      <trkpt lat="59.9305092" lon="17.7416828">
        <ele>45.3192</ele>
        <time>2014-06-06T15:29:22Z</time>
      </trkpt>
      <trkpt lat="59.9305154" lon="17.741719">
        <ele>45.7999</ele>
        <time>2014-06-06T15:29:23Z</time>
      </trkpt>
      <trkpt lat="59.9305212" lon="17.7417537">
        <ele>45.3192</ele>
        <time>2014-06-06T15:29:24Z</time>
      </trkpt>
      <trkpt lat="59.9305234" lon="17.7417988">
        <ele>45.3192</ele>
        <time>2014-06-06T15:29:25Z</time>
      </trkpt>
      <trkpt lat="59.9305283" lon="17.7418465">
        <ele>44.8386</ele>
        <time>2014-06-06T15:29:26Z</time>
      </trkpt>
      <trkpt lat="59.9305315" lon="17.7419004">
        <ele>45.3192</ele>
        <time>2014-06-06T15:29:27Z</time>
      </trkpt>
      <trkpt lat="59.9305389" lon="17.7419521">
        <ele>45.3192</ele>
        <time>2014-06-06T15:29:28Z</time>
      </trkpt>
      <trkpt lat="59.9305418" lon="17.7420102">
        <ele>46.2806</ele>
        <time>2014-06-06T15:29:29Z</time>
      </trkpt>
      <trkpt lat="59.930545" lon="17.742062">
        <ele>46.7612</ele>
        <time>2014-06-06T15:29:30Z</time>
      </trkpt>
      <trkpt lat="59.9305545" lon="17.742093">
        <ele>46.7612</ele>
        <time>2014-06-06T15:29:31Z</time>
      </trkpt>
      <trkpt lat="59.9305776" lon="17.7421128">
        <ele>46.7612</ele>
        <time>2014-06-06T15:29:32Z</time>
      </trkpt>
      <trkpt lat="59.9305959" lon="17.7421293">
        <ele>46.2806</ele>
        <time>2014-06-06T15:29:33Z</time>
      </trkpt>
      <trkpt lat="59.9306207" lon="17.7421422">
        <ele>46.2806</ele>
        <time>2014-06-06T15:29:34Z</time>
      </trkpt>
      <trkpt lat="59.9306304" lon="17.7421367">
        <ele>45.7999</ele>
        <time>2014-06-06T15:29:35Z</time>
      </trkpt>
      <trkpt lat="59.9306439" lon="17.7421346">
        <ele>44.8386</ele>
        <time>2014-06-06T15:29:36Z</time>
      </trkpt>
      <trkpt lat="59.9306677" lon="17.7421293">
        <ele>44.8386</ele>
        <time>2014-06-06T15:29:37Z</time>
      </trkpt>
      <trkpt lat="59.9306938" lon="17.7421219">
        <ele>44.8386</ele>
        <time>2014-06-06T15:29:38Z</time>
      </trkpt>
      <trkpt lat="59.9307223" lon="17.7421144">
        <ele>45.3192</ele>
        <time>2014-06-06T15:29:39Z</time>
      </trkpt>
      <trkpt lat="59.9307466" lon="17.7421177">
        <ele>44.8386</ele>
        <time>2014-06-06T15:29:40Z</time>
      </trkpt>
      <trkpt lat="59.9307884" lon="17.7421272">
        <ele>44.8386</ele>
        <time>2014-06-06T15:29:41Z</time>
      </trkpt>
      <trkpt lat="59.9308107" lon="17.7421372">
        <ele>44.358</ele>
        <time>2014-06-06T15:29:42Z</time>
      </trkpt>
      <trkpt lat="59.9308363" lon="17.7421474">
        <ele>44.8386</ele>
        <time>2014-06-06T15:29:43Z</time>
      </trkpt>
      <trkpt lat="59.9308643" lon="17.7421691">
        <ele>44.8386</ele>
        <time>2014-06-06T15:29:44Z</time>
      </trkpt>
      <trkpt lat="59.9308937" lon="17.742197">
        <ele>44.8386</ele>
        <time>2014-06-06T15:29:45Z</time>
      </trkpt>
      <trkpt lat="59.9309277" lon="17.7422252">
        <ele>45.7999</ele>
        <time>2014-06-06T15:29:46Z</time>
      </trkpt>
      <trkpt lat="59.9309646" lon="17.7422597">
        <ele>46.7612</ele>
        <time>2014-06-06T15:29:47Z</time>
      </trkpt>
      <trkpt lat="59.9309995" lon="17.742294">
        <ele>47.2418</ele>
        <time>2014-06-06T15:29:48Z</time>
      </trkpt>
      <trkpt lat="59.9310284" lon="17.7423204">
        <ele>47.2418</ele>
        <time>2014-06-06T15:29:49Z</time>
      </trkpt>
      <trkpt lat="59.9310601" lon="17.7423272">
        <ele>47.2418</ele>
        <time>2014-06-06T15:29:50Z</time>
      </trkpt>
      <trkpt lat="59.9311039" lon="17.742322">
        <ele>47.2418</ele>
        <time>2014-06-06T15:29:51Z</time>
      </trkpt>
      <trkpt lat="59.9311445" lon="17.7422913">
        <ele>46.2806</ele>
        <time>2014-06-06T15:29:52Z</time>
      </trkpt>
      <trkpt lat="59.9311956" lon="17.7422561">
        <ele>46.7612</ele>
        <time>2014-06-06T15:29:53Z</time>
      </trkpt>
      <trkpt lat="59.9312236" lon="17.7422132">
        <ele>46.2806</ele>
        <time>2014-06-06T15:29:54Z</time>
      </trkpt>
      <trkpt lat="59.9312652" lon="17.7421654">
        <ele>46.2806</ele>
        <time>2014-06-06T15:29:55Z</time>
      </trkpt>
      <trkpt lat="59.9312994" lon="17.7421194">
        <ele>46.2806</ele>
        <time>2014-06-06T15:29:56Z</time>
      </trkpt>
      <trkpt lat="59.9313408" lon="17.7420811">
        <ele>46.7612</ele>
        <time>2014-06-06T15:29:57Z</time>
      </trkpt>
      <trkpt lat="59.9313786" lon="17.7420572">
        <ele>46.7612</ele>
        <time>2014-06-06T15:29:58Z</time>
      </trkpt>
      <trkpt lat="59.9314206" lon="17.7420375">
        <ele>46.2806</ele>
        <time>2014-06-06T15:29:59Z</time>
      </trkpt>
      <trkpt lat="59.9314605" lon="17.7420293">
        <ele>46.2806</ele>
        <time>2014-06-06T15:30:00Z</time>
      </trkpt>
      <trkpt lat="59.9315041" lon="17.742033">
        <ele>46.7612</ele>
        <time>2014-06-06T15:30:01Z</time>
      </trkpt>
      <trkpt lat="59.9315464" lon="17.7420407">
        <ele>46.7612</ele>
        <time>2014-06-06T15:30:02Z</time>
      </trkpt>
      <trkpt lat="59.9315854" lon="17.7420433">
        <ele>46.2806</ele>
        <time>2014-06-06T15:30:03Z</time>
      </trkpt>
      <trkpt lat="59.9316242" lon="17.7420413">
        <ele>46.2806</ele>
        <time>2014-06-06T15:30:04Z</time>
      </trkpt>
      <trkpt lat="59.9316603" lon="17.7420355">
        <ele>46.7612</ele>
        <time>2014-06-06T15:30:05Z</time>
      </trkpt>
      <trkpt lat="59.9317086" lon="17.7420333">
        <ele>47.2418</ele>
        <time>2014-06-06T15:30:06Z</time>
      </trkpt>
      <trkpt lat="59.9317463" lon="17.7420401">
        <ele>47.2418</ele>
        <time>2014-06-06T15:30:07Z</time>
      </trkpt>
      <trkpt lat="59.9317791" lon="17.7420516">
        <ele>47.7225</ele>
        <time>2014-06-06T15:30:08Z</time>
      </trkpt>
      <trkpt lat="59.9318105" lon="17.7420546">
        <ele>46.7612</ele>
        <time>2014-06-06T15:30:09Z</time>
      </trkpt>
      <trkpt lat="59.9318374" lon="17.7420547">
        <ele>46.2806</ele>
        <time>2014-06-06T15:30:10Z</time>
      </trkpt>
      <trkpt lat="59.9318634" lon="17.742047">
        <ele>45.7999</ele>
        <time>2014-06-06T15:30:11Z</time>
      </trkpt>
      <trkpt lat="59.9318884" lon="17.7420381">
        <ele>45.7999</ele>
        <time>2014-06-06T15:30:12Z</time>
      </trkpt>
      <trkpt lat="59.9319132" lon="17.7420158">
        <ele>45.7999</ele>
        <time>2014-06-06T15:30:13Z</time>
      </trkpt>
      <trkpt lat="59.9319365" lon="17.7419723">
        <ele>45.7999</ele>
        <time>2014-06-06T15:30:14Z</time>
      </trkpt>
      <trkpt lat="59.9319581" lon="17.7419214">
        <ele>45.7999</ele>
        <time>2014-06-06T15:30:15Z</time>
      </trkpt>
      <trkpt lat="59.9319846" lon="17.7418619">
        <ele>46.2806</ele>
        <time>2014-06-06T15:30:16Z</time>
      </trkpt>
      <trkpt lat="59.9320058" lon="17.7418003">
        <ele>46.7612</ele>
        <time>2014-06-06T15:30:17Z</time>
      </trkpt>
      <trkpt lat="59.9320303" lon="17.7417453">
        <ele>46.7612</ele>
        <time>2014-06-06T15:30:18Z</time>
      </trkpt>
      <trkpt lat="59.932052" lon="17.7416895">
        <ele>46.7612</ele>
        <time>2014-06-06T15:30:19Z</time>
      </trkpt>
      <trkpt lat="59.9320752" lon="17.741635">
        <ele>46.7612</ele>
        <time>2014-06-06T15:30:20Z</time>
      </trkpt>
      <trkpt lat="59.9320951" lon="17.7415848">
        <ele>46.7612</ele>
        <time>2014-06-06T15:30:21Z</time>
      </trkpt>
      <trkpt lat="59.9321194" lon="17.7415331">
        <ele>46.7612</ele>
        <time>2014-06-06T15:30:22Z</time>
      </trkpt>
      <trkpt lat="59.9321442" lon="17.7414854">
        <ele>46.2806</ele>
        <time>2014-06-06T15:30:23Z</time>
      </trkpt>
      <trkpt lat="59.9321699" lon="17.7414373">
        <ele>45.7999</ele>
        <time>2014-06-06T15:30:24Z</time>
      </trkpt>
      <trkpt lat="59.9321969" lon="17.7413912">
        <ele>45.7999</ele>
        <time>2014-06-06T15:30:25Z</time>
      </trkpt>
      <trkpt lat="59.9322235" lon="17.7413484">
        <ele>45.7999</ele>
        <time>2014-06-06T15:30:26Z</time>
      </trkpt>
      <trkpt lat="59.9322438" lon="17.7413163">
        <ele>45.3192</ele>
        <time>2014-06-06T15:30:27Z</time>
      </trkpt>
      <trkpt lat="59.9322643" lon="17.7412917">
        <ele>44.8386</ele>
        <time>2014-06-06T15:30:28Z</time>
      </trkpt>
      <trkpt lat="59.9322841" lon="17.7412647">
        <ele>44.358</ele>
        <time>2014-06-06T15:30:29Z</time>
      </trkpt>
      <trkpt lat="59.9323056" lon="17.7412399">
        <ele>43.8773</ele>
        <time>2014-06-06T15:30:30Z</time>
      </trkpt>
      <trkpt lat="59.932327" lon="17.7412179">
        <ele>43.8773</ele>
        <time>2014-06-06T15:30:31Z</time>
      </trkpt>
      <trkpt lat="59.9323495" lon="17.7411975">
        <ele>43.8773</ele>
        <time>2014-06-06T15:30:32Z</time>
      </trkpt>
      <trkpt lat="59.932372" lon="17.7411809">
        <ele>43.3966</ele>
        <time>2014-06-06T15:30:33Z</time>
      </trkpt>
      <trkpt lat="59.9323958" lon="17.7411606">
        <ele>43.3966</ele>
        <time>2014-06-06T15:30:34Z</time>
      </trkpt>
      <trkpt lat="59.9324193" lon="17.7411281">
        <ele>42.916</ele>
        <time>2014-06-06T15:30:35Z</time>
      </trkpt>
      <trkpt lat="59.9324411" lon="17.7410869">
        <ele>42.916</ele>
        <time>2014-06-06T15:30:36Z</time>
      </trkpt>
      <trkpt lat="59.9324632" lon="17.7410429">
        <ele>42.4354</ele>
        <time>2014-06-06T15:30:37Z</time>
      </trkpt>
      <trkpt lat="59.932486" lon="17.7409974">
        <ele>42.4354</ele>
        <time>2014-06-06T15:30:38Z</time>
      </trkpt>
      <trkpt lat="59.9325135" lon="17.7409477">
        <ele>42.916</ele>
        <time>2014-06-06T15:30:39Z</time>
      </trkpt>
      <trkpt lat="59.9325406" lon="17.7408973">
        <ele>42.916</ele>
        <time>2014-06-06T15:30:40Z</time>
      </trkpt>
      <trkpt lat="59.932568" lon="17.7408457">
        <ele>43.3966</ele>
        <time>2014-06-06T15:30:41Z</time>
      </trkpt>
      <trkpt lat="59.9325965" lon="17.7407923">
        <ele>43.3966</ele>
        <time>2014-06-06T15:30:42Z</time>
      </trkpt>
      <trkpt lat="59.932625" lon="17.7407389">
        <ele>43.3966</ele>
        <time>2014-06-06T15:30:43Z</time>
      </trkpt>
      <trkpt lat="59.932654" lon="17.7406851">
        <ele>43.3966</ele>
        <time>2014-06-06T15:30:44Z</time>
      </trkpt>
      <trkpt lat="59.9326843" lon="17.7406302">
        <ele>43.3966</ele>
        <time>2014-06-06T15:30:45Z</time>
      </trkpt>
      <trkpt lat="59.9327156" lon="17.7405725">
        <ele>43.3966</ele>
        <time>2014-06-06T15:30:46Z</time>
      </trkpt>
      <trkpt lat="59.9327476" lon="17.7405114">
        <ele>43.8773</ele>
        <time>2014-06-06T15:30:47Z</time>
      </trkpt>
      <trkpt lat="59.9327802" lon="17.7404493">
        <ele>43.8773</ele>
        <time>2014-06-06T15:30:48Z</time>
      </trkpt>
      <trkpt lat="59.9328139" lon="17.7403866">
        <ele>43.8773</ele>
        <time>2014-06-06T15:30:49Z</time>
      </trkpt>
      <trkpt lat="59.9328483" lon="17.740322">
        <ele>43.3966</ele>
        <time>2014-06-06T15:30:50Z</time>
      </trkpt>
      <trkpt lat="59.9328837" lon="17.740255">
        <ele>43.3966</ele>
        <time>2014-06-06T15:30:51Z</time>
      </trkpt>
      <trkpt lat="59.9329188" lon="17.7401878">
        <ele>43.8773</ele>
        <time>2014-06-06T15:30:52Z</time>
      </trkpt>
      <trkpt lat="59.9329527" lon="17.740123">
        <ele>43.3966</ele>
        <time>2014-06-06T15:30:53Z</time>
      </trkpt>
      <trkpt lat="59.9329855" lon="17.7400589">
        <ele>43.3966</ele>
        <time>2014-06-06T15:30:54Z</time>
      </trkpt>
      <trkpt lat="59.9330175" lon="17.7399956">
        <ele>43.3966</ele>
        <time>2014-06-06T15:30:55Z</time>
      </trkpt>
      <trkpt lat="59.9330507" lon="17.7399323">
        <ele>43.3966</ele>
        <time>2014-06-06T15:30:56Z</time>
      </trkpt>
      <trkpt lat="59.9330834" lon="17.7398685">
        <ele>43.3966</ele>
        <time>2014-06-06T15:30:57Z</time>
      </trkpt>
      <trkpt lat="59.9331165" lon="17.7398065">
        <ele>43.3966</ele>
        <time>2014-06-06T15:30:58Z</time>
      </trkpt>
      <trkpt lat="59.933149" lon="17.7397457">
        <ele>43.3966</ele>
        <time>2014-06-06T15:30:59Z</time>
      </trkpt>
      <trkpt lat="59.9331812" lon="17.7396848">
        <ele>43.3966</ele>
        <time>2014-06-06T15:31:00Z</time>
      </trkpt>
      <trkpt lat="59.9332124" lon="17.7396248">
        <ele>43.3966</ele>
        <time>2014-06-06T15:31:01Z</time>
      </trkpt>
      <trkpt lat="59.9332429" lon="17.7395675">
        <ele>43.3966</ele>
        <time>2014-06-06T15:31:02Z</time>
      </trkpt>
      <trkpt lat="59.933271" lon="17.7395134">
        <ele>43.3966</ele>
        <time>2014-06-06T15:31:03Z</time>
      </trkpt>
      <trkpt lat="59.9332978" lon="17.7394629">
        <ele>43.3966</ele>
        <time>2014-06-06T15:31:04Z</time>
      </trkpt>
      <trkpt lat="59.9333241" lon="17.7394148">
        <ele>43.3966</ele>
        <time>2014-06-06T15:31:05Z</time>
      </trkpt>
      <trkpt lat="59.9333499" lon="17.7393647">
        <ele>42.916</ele>
        <time>2014-06-06T15:31:06Z</time>
      </trkpt>
      <trkpt lat="59.9333765" lon="17.7393118">
        <ele>42.916</ele>
        <time>2014-06-06T15:31:07Z</time>
      </trkpt>
      <trkpt lat="59.933404" lon="17.7392583">
        <ele>42.916</ele>
        <time>2014-06-06T15:31:08Z</time>
      </trkpt>
      <trkpt lat="59.9334331" lon="17.7392031">
        <ele>43.3966</ele>
        <time>2014-06-06T15:31:09Z</time>
      </trkpt>
      <trkpt lat="59.933462" lon="17.7391465">
        <ele>43.3966</ele>
        <time>2014-06-06T15:31:10Z</time>
      </trkpt>
      <trkpt lat="59.9334917" lon="17.7390891">
        <ele>43.3966</ele>
        <time>2014-06-06T15:31:11Z</time>
      </trkpt>
      <trkpt lat="59.9335221" lon="17.7390301">
        <ele>43.3966</ele>
        <time>2014-06-06T15:31:12Z</time>
      </trkpt>
      <trkpt lat="59.9335526" lon="17.7389692">
        <ele>43.3966</ele>
        <time>2014-06-06T15:31:13Z</time>
      </trkpt>
      <trkpt lat="59.9335836" lon="17.7389079">
        <ele>43.3966</ele>
        <time>2014-06-06T15:31:14Z</time>
      </trkpt>
      <trkpt lat="59.9336145" lon="17.7388475">
        <ele>43.3966</ele>
        <time>2014-06-06T15:31:15Z</time>
      </trkpt>
      <trkpt lat="59.9336455" lon="17.7387865">
        <ele>43.3966</ele>
        <time>2014-06-06T15:31:16Z</time>
      </trkpt>
      <trkpt lat="59.9336761" lon="17.7387263">
        <ele>43.3966</ele>
        <time>2014-06-06T15:31:17Z</time>
      </trkpt>
      <trkpt lat="59.933706" lon="17.738668">
        <ele>43.3966</ele>
        <time>2014-06-06T15:31:18Z</time>
      </trkpt>
      <trkpt lat="59.933737" lon="17.7386116">
        <ele>43.3966</ele>
        <time>2014-06-06T15:31:19Z</time>
      </trkpt>
      <trkpt lat="59.9337709" lon="17.7385587">
        <ele>43.3966</ele>
        <time>2014-06-06T15:31:20Z</time>
      </trkpt>
      <trkpt lat="59.9338082" lon="17.738514">
        <ele>43.3966</ele>
        <time>2014-06-06T15:31:21Z</time>
      </trkpt>
      <trkpt lat="59.93385" lon="17.7384852">
        <ele>42.916</ele>
        <time>2014-06-06T15:31:22Z</time>
      </trkpt>
      <trkpt lat="59.9338947" lon="17.7384797">
        <ele>42.916</ele>
        <time>2014-06-06T15:31:23Z</time>
      </trkpt>
      <trkpt lat="59.9339398" lon="17.7384943">
        <ele>42.916</ele>
        <time>2014-06-06T15:31:24Z</time>
      </trkpt>
      <trkpt lat="59.9339837" lon="17.7385201">
        <ele>42.916</ele>
        <time>2014-06-06T15:31:25Z</time>
      </trkpt>
      <trkpt lat="59.9340249" lon="17.7385515">
        <ele>42.916</ele>
        <time>2014-06-06T15:31:26Z</time>
      </trkpt>
      <trkpt lat="59.9340644" lon="17.7385815">
        <ele>42.916</ele>
        <time>2014-06-06T15:31:27Z</time>
      </trkpt>
      <trkpt lat="59.9341029" lon="17.7386078">
        <ele>42.916</ele>
        <time>2014-06-06T15:31:28Z</time>
      </trkpt>
      <trkpt lat="59.9341425" lon="17.7386334">
        <ele>42.916</ele>
        <time>2014-06-06T15:31:29Z</time>
      </trkpt>
      <trkpt lat="59.9341829" lon="17.7386586">
        <ele>42.916</ele>
        <time>2014-06-06T15:31:30Z</time>
      </trkpt>
      <trkpt lat="59.9342231" lon="17.7386829">
        <ele>42.916</ele>
        <time>2014-06-06T15:31:31Z</time>
      </trkpt>
      <trkpt lat="59.9342622" lon="17.7387078">
        <ele>42.916</ele>
        <time>2014-06-06T15:31:32Z</time>
      </trkpt>
      <trkpt lat="59.9342991" lon="17.7387315">
        <ele>42.916</ele>
        <time>2014-06-06T15:31:33Z</time>
      </trkpt>
      <trkpt lat="59.9343342" lon="17.7387538">
        <ele>42.916</ele>
        <time>2014-06-06T15:31:34Z</time>
      </trkpt>
      <trkpt lat="59.9343686" lon="17.7387771">
        <ele>42.916</ele>
        <time>2014-06-06T15:31:35Z</time>
      </trkpt>
      <trkpt lat="59.9344021" lon="17.7388029">
        <ele>42.916</ele>
        <time>2014-06-06T15:31:36Z</time>
      </trkpt>
      <trkpt lat="59.9344362" lon="17.7388271">
        <ele>42.916</ele>
        <time>2014-06-06T15:31:37Z</time>
      </trkpt>
      <trkpt lat="59.9344723" lon="17.7388472">
        <ele>42.916</ele>
        <time>2014-06-06T15:31:38Z</time>
      </trkpt>
      <trkpt lat="59.9345087" lon="17.738867">
        <ele>42.916</ele>
        <time>2014-06-06T15:31:39Z</time>
      </trkpt>
      <trkpt lat="59.934546" lon="17.7388891">
        <ele>43.3966</ele>
        <time>2014-06-06T15:31:40Z</time>
      </trkpt>
      <trkpt lat="59.9345847" lon="17.7389103">
        <ele>43.3966</ele>
        <time>2014-06-06T15:31:41Z</time>
      </trkpt>
      <trkpt lat="59.9346246" lon="17.7389316">
        <ele>43.3966</ele>
        <time>2014-06-06T15:31:42Z</time>
      </trkpt>
      <trkpt lat="59.9346657" lon="17.7389543">
        <ele>43.3966</ele>
        <time>2014-06-06T15:31:43Z</time>
      </trkpt>
      <trkpt lat="59.9347072" lon="17.7389756">
        <ele>43.3966</ele>
        <time>2014-06-06T15:31:44Z</time>
      </trkpt>
      <trkpt lat="59.9347489" lon="17.7389944">
        <ele>43.3966</ele>
        <time>2014-06-06T15:31:45Z</time>
      </trkpt>
      <trkpt lat="59.9347907" lon="17.7390113">
        <ele>43.3966</ele>
        <time>2014-06-06T15:31:46Z</time>
      </trkpt>
      <trkpt lat="59.934833" lon="17.7390248">
        <ele>43.3966</ele>
        <time>2014-06-06T15:31:47Z</time>
      </trkpt>
      <trkpt lat="59.9348767" lon="17.7390355">
        <ele>43.3966</ele>
        <time>2014-06-06T15:31:48Z</time>
      </trkpt>
      <trkpt lat="59.9349203" lon="17.7390452">
        <ele>43.8773</ele>
        <time>2014-06-06T15:31:49Z</time>
      </trkpt>
      <trkpt lat="59.9349625" lon="17.7390533">
        <ele>43.8773</ele>
        <time>2014-06-06T15:31:50Z</time>
      </trkpt>
      <trkpt lat="59.9350035" lon="17.7390621">
        <ele>43.8773</ele>
        <time>2014-06-06T15:31:51Z</time>
      </trkpt>
      <trkpt lat="59.9350442" lon="17.7390725">
        <ele>43.8773</ele>
        <time>2014-06-06T15:31:52Z</time>
      </trkpt>
      <trkpt lat="59.9350853" lon="17.7390848">
        <ele>43.8773</ele>
        <time>2014-06-06T15:31:53Z</time>
      </trkpt>
      <trkpt lat="59.9351273" lon="17.7390995">
        <ele>43.3966</ele>
        <time>2014-06-06T15:31:54Z</time>
      </trkpt>
      <trkpt lat="59.935171" lon="17.7391186">
        <ele>43.8773</ele>
        <time>2014-06-06T15:31:55Z</time>
      </trkpt>
      <trkpt lat="59.9352143" lon="17.7391425">
        <ele>43.8773</ele>
        <time>2014-06-06T15:31:56Z</time>
      </trkpt>
      <trkpt lat="59.9352573" lon="17.7391708">
        <ele>43.8773</ele>
        <time>2014-06-06T15:31:57Z</time>
      </trkpt>
      <trkpt lat="59.9353008" lon="17.739202">
        <ele>43.8773</ele>
        <time>2014-06-06T15:31:58Z</time>
      </trkpt>
      <trkpt lat="59.935344" lon="17.7392362">
        <ele>43.8773</ele>
        <time>2014-06-06T15:31:59Z</time>
      </trkpt>
      <trkpt lat="59.935387" lon="17.7392735">
        <ele>43.8773</ele>
        <time>2014-06-06T15:32:00Z</time>
      </trkpt>
      <trkpt lat="59.93543" lon="17.7393118">
        <ele>43.8773</ele>
        <time>2014-06-06T15:32:01Z</time>
      </trkpt>
      <trkpt lat="59.9354734" lon="17.7393518">
        <ele>43.8773</ele>
        <time>2014-06-06T15:32:02Z</time>
      </trkpt>
      <trkpt lat="59.9355168" lon="17.7393941">
        <ele>43.8773</ele>
        <time>2014-06-06T15:32:03Z</time>
      </trkpt>
      <trkpt lat="59.9355605" lon="17.7394355">
        <ele>43.8773</ele>
        <time>2014-06-06T15:32:04Z</time>
      </trkpt>
      <trkpt lat="59.935604" lon="17.7394743">
        <ele>43.8773</ele>
        <time>2014-06-06T15:32:05Z</time>
      </trkpt>
      <trkpt lat="59.9356481" lon="17.7395108">
        <ele>43.8773</ele>
        <time>2014-06-06T15:32:06Z</time>
      </trkpt>
      <trkpt lat="59.9356926" lon="17.7395443">
        <ele>44.358</ele>
        <time>2014-06-06T15:32:07Z</time>
      </trkpt>
      <trkpt lat="59.9357371" lon="17.7395746">
        <ele>44.358</ele>
        <time>2014-06-06T15:32:08Z</time>
      </trkpt>
      <trkpt lat="59.9357825" lon="17.7396025">
        <ele>44.358</ele>
        <time>2014-06-06T15:32:09Z</time>
      </trkpt>
      <trkpt lat="59.9358288" lon="17.7396277">
        <ele>44.358</ele>
        <time>2014-06-06T15:32:10Z</time>
      </trkpt>
      <trkpt lat="59.935876" lon="17.7396522">
        <ele>44.358</ele>
        <time>2014-06-06T15:32:11Z</time>
      </trkpt>
      <trkpt lat="59.935924" lon="17.7396759">
        <ele>44.358</ele>
        <time>2014-06-06T15:32:12Z</time>
      </trkpt>
      <trkpt lat="59.9359719" lon="17.7396986">
        <ele>44.358</ele>
        <time>2014-06-06T15:32:13Z</time>
      </trkpt>
      <trkpt lat="59.9360204" lon="17.7397206">
        <ele>44.358</ele>
        <time>2014-06-06T15:32:14Z</time>
      </trkpt>
      <trkpt lat="59.9360698" lon="17.7397424">
        <ele>44.358</ele>
        <time>2014-06-06T15:32:15Z</time>
      </trkpt>
      <trkpt lat="59.9361204" lon="17.7397645">
        <ele>44.358</ele>
        <time>2014-06-06T15:32:16Z</time>
      </trkpt>
      <trkpt lat="59.9361718" lon="17.739788">
        <ele>44.358</ele>
        <time>2014-06-06T15:32:17Z</time>
      </trkpt>
      <trkpt lat="59.9362239" lon="17.7398112">
        <ele>44.358</ele>
        <time>2014-06-06T15:32:18Z</time>
      </trkpt>
      <trkpt lat="59.9362753" lon="17.7398345">
        <ele>44.358</ele>
        <time>2014-06-06T15:32:19Z</time>
      </trkpt>
      <trkpt lat="59.9363264" lon="17.7398595">
        <ele>44.358</ele>
        <time>2014-06-06T15:32:20Z</time>
      </trkpt>
      <trkpt lat="59.9363777" lon="17.7398852">
        <ele>44.358</ele>
        <time>2014-06-06T15:32:21Z</time>
      </trkpt>
      <trkpt lat="59.9364292" lon="17.739913">
        <ele>44.358</ele>
        <time>2014-06-06T15:32:22Z</time>
      </trkpt>
      <trkpt lat="59.9364805" lon="17.739941">
        <ele>44.8386</ele>
        <time>2014-06-06T15:32:23Z</time>
      </trkpt>
      <trkpt lat="59.9365314" lon="17.7399676">
        <ele>44.8386</ele>
        <time>2014-06-06T15:32:24Z</time>
      </trkpt>
      <trkpt lat="59.9365805" lon="17.7399951">
        <ele>44.8386</ele>
        <time>2014-06-06T15:32:25Z</time>
      </trkpt>
      <trkpt lat="59.9366296" lon="17.7400216">
        <ele>44.8386</ele>
        <time>2014-06-06T15:32:26Z</time>
      </trkpt>
      <trkpt lat="59.9366773" lon="17.7400483">
        <ele>44.8386</ele>
        <time>2014-06-06T15:32:27Z</time>
      </trkpt>
      <trkpt lat="59.9367233" lon="17.7400755">
        <ele>44.8386</ele>
        <time>2014-06-06T15:32:28Z</time>
      </trkpt>
      <trkpt lat="59.9367664" lon="17.7401002">
        <ele>44.8386</ele>
        <time>2014-06-06T15:32:29Z</time>
      </trkpt>
      <trkpt lat="59.9368085" lon="17.7401224">
        <ele>44.8386</ele>
        <time>2014-06-06T15:32:30Z</time>
      </trkpt>
      <trkpt lat="59.9368514" lon="17.7401453">
        <ele>44.8386</ele>
        <time>2014-06-06T15:32:31Z</time>
      </trkpt>
      <trkpt lat="59.9368945" lon="17.7401691">
        <ele>44.8386</ele>
        <time>2014-06-06T15:32:32Z</time>
      </trkpt>
      <trkpt lat="59.9369384" lon="17.740193">
        <ele>44.8386</ele>
        <time>2014-06-06T15:32:33Z</time>
      </trkpt>
      <trkpt lat="59.9369828" lon="17.7402168">
        <ele>44.8386</ele>
        <time>2014-06-06T15:32:34Z</time>
      </trkpt>
      <trkpt lat="59.9370273" lon="17.7402416">
        <ele>44.8386</ele>
        <time>2014-06-06T15:32:35Z</time>
      </trkpt>
      <trkpt lat="59.9370722" lon="17.7402665">
        <ele>44.8386</ele>
        <time>2014-06-06T15:32:36Z</time>
      </trkpt>
      <trkpt lat="59.9371176" lon="17.7402903">
        <ele>44.8386</ele>
        <time>2014-06-06T15:32:37Z</time>
      </trkpt>
      <trkpt lat="59.9371637" lon="17.7403131">
        <ele>44.8386</ele>
        <time>2014-06-06T15:32:38Z</time>
      </trkpt>
      <trkpt lat="59.9372102" lon="17.7403378">
        <ele>44.8386</ele>
        <time>2014-06-06T15:32:39Z</time>
      </trkpt>
      <trkpt lat="59.9372575" lon="17.7403627">
        <ele>44.8386</ele>
        <time>2014-06-06T15:32:40Z</time>
      </trkpt>
      <trkpt lat="59.9373052" lon="17.7403872">
        <ele>44.8386</ele>
        <time>2014-06-06T15:32:41Z</time>
      </trkpt>
      <trkpt lat="59.9373528" lon="17.7404121">
        <ele>44.8386</ele>
        <time>2014-06-06T15:32:42Z</time>
      </trkpt>
      <trkpt lat="59.9373999" lon="17.7404367">
        <ele>45.3192</ele>
        <time>2014-06-06T15:32:43Z</time>
      </trkpt>
      <trkpt lat="59.937447" lon="17.7404606">
        <ele>45.3192</ele>
        <time>2014-06-06T15:32:44Z</time>
      </trkpt>
      <trkpt lat="59.937494" lon="17.7404846">
        <ele>45.3192</ele>
        <time>2014-06-06T15:32:45Z</time>
      </trkpt>
      <trkpt lat="59.9375418" lon="17.7405093">
        <ele>45.3192</ele>
        <time>2014-06-06T15:32:46Z</time>
      </trkpt>
      <trkpt lat="59.9375897" lon="17.7405326">
        <ele>45.3192</ele>
        <time>2014-06-06T15:32:47Z</time>
      </trkpt>
      <trkpt lat="59.9376378" lon="17.7405554">
        <ele>45.3192</ele>
        <time>2014-06-06T15:32:48Z</time>
      </trkpt>
      <trkpt lat="59.9376858" lon="17.7405795">
        <ele>45.3192</ele>
        <time>2014-06-06T15:32:49Z</time>
      </trkpt>
      <trkpt lat="59.9377331" lon="17.7406061">
        <ele>45.3192</ele>
        <time>2014-06-06T15:32:50Z</time>
      </trkpt>
      <trkpt lat="59.9377807" lon="17.7406327">
        <ele>45.3192</ele>
        <time>2014-06-06T15:32:51Z</time>
      </trkpt>
      <trkpt lat="59.9378285" lon="17.7406591">
        <ele>45.3192</ele>
        <time>2014-06-06T15:32:52Z</time>
      </trkpt>
      <trkpt lat="59.9378771" lon="17.7406835">
        <ele>45.3192</ele>
        <time>2014-06-06T15:32:53Z</time>
      </trkpt>
      <trkpt lat="59.9379246" lon="17.7407035">
        <ele>45.3192</ele>
        <time>2014-06-06T15:32:54Z</time>
      </trkpt>
      <trkpt lat="59.9379699" lon="17.7407224">
        <ele>45.3192</ele>
        <time>2014-06-06T15:32:55Z</time>
      </trkpt>
      <trkpt lat="59.9380133" lon="17.7407379">
        <ele>45.3192</ele>
        <time>2014-06-06T15:32:56Z</time>
      </trkpt>
      <trkpt lat="59.9380556" lon="17.7407505">
        <ele>45.3192</ele>
        <time>2014-06-06T15:32:57Z</time>
      </trkpt>
      <trkpt lat="59.9380987" lon="17.7407601">
        <ele>45.7999</ele>
        <time>2014-06-06T15:32:58Z</time>
      </trkpt>
      <trkpt lat="59.9381436" lon="17.7407654">
        <ele>45.7999</ele>
        <time>2014-06-06T15:32:59Z</time>
      </trkpt>
      <trkpt lat="59.9381899" lon="17.74077">
        <ele>45.7999</ele>
        <time>2014-06-06T15:33:00Z</time>
      </trkpt>
      <trkpt lat="59.938237" lon="17.7407737">
        <ele>45.7999</ele>
        <time>2014-06-06T15:33:01Z</time>
      </trkpt>
      <trkpt lat="59.9382843" lon="17.7407742">
        <ele>45.7999</ele>
        <time>2014-06-06T15:33:02Z</time>
      </trkpt>
      <trkpt lat="59.9383325" lon="17.7407743">
        <ele>45.7999</ele>
        <time>2014-06-06T15:33:03Z</time>
      </trkpt>
      <trkpt lat="59.9383817" lon="17.7407756">
        <ele>45.3192</ele>
        <time>2014-06-06T15:33:04Z</time>
      </trkpt>
      <trkpt lat="59.9384321" lon="17.7407779">
        <ele>45.3192</ele>
        <time>2014-06-06T15:33:05Z</time>
      </trkpt>
      <trkpt lat="59.9384831" lon="17.7407802">
        <ele>45.3192</ele>
        <time>2014-06-06T15:33:06Z</time>
      </trkpt>
      <trkpt lat="59.9385343" lon="17.7407802">
        <ele>45.3192</ele>
        <time>2014-06-06T15:33:07Z</time>
      </trkpt>
      <trkpt lat="59.9385867" lon="17.7407784">
        <ele>45.3192</ele>
        <time>2014-06-06T15:33:08Z</time>
      </trkpt>
      <trkpt lat="59.9386385" lon="17.7407763">
        <ele>44.8386</ele>
        <time>2014-06-06T15:33:09Z</time>
      </trkpt>
      <trkpt lat="59.9386912" lon="17.7407751">
        <ele>44.8386</ele>
        <time>2014-06-06T15:33:10Z</time>
      </trkpt>
      <trkpt lat="59.9387432" lon="17.7407733">
        <ele>44.8386</ele>
        <time>2014-06-06T15:33:11Z</time>
      </trkpt>
      <trkpt lat="59.9387944" lon="17.7407685">
        <ele>44.8386</ele>
        <time>2014-06-06T15:33:12Z</time>
      </trkpt>
      <trkpt lat="59.9388456" lon="17.7407641">
        <ele>44.8386</ele>
        <time>2014-06-06T15:33:13Z</time>
      </trkpt>
      <trkpt lat="59.9388953" lon="17.7407638">
        <ele>44.8386</ele>
        <time>2014-06-06T15:33:14Z</time>
      </trkpt>
      <trkpt lat="59.9389453" lon="17.7407636">
        <ele>44.8386</ele>
        <time>2014-06-06T15:33:15Z</time>
      </trkpt>
      <trkpt lat="59.9389954" lon="17.7407623">
        <ele>44.8386</ele>
        <time>2014-06-06T15:33:16Z</time>
      </trkpt>
      <trkpt lat="59.9390441" lon="17.7407602">
        <ele>44.358</ele>
        <time>2014-06-06T15:33:17Z</time>
      </trkpt>
      <trkpt lat="59.9390923" lon="17.7407596">
        <ele>44.358</ele>
        <time>2014-06-06T15:33:18Z</time>
      </trkpt>
      <trkpt lat="59.9391415" lon="17.7407619">
        <ele>44.358</ele>
        <time>2014-06-06T15:33:19Z</time>
      </trkpt>
      <trkpt lat="59.9391921" lon="17.7407642">
        <ele>44.358</ele>
        <time>2014-06-06T15:33:20Z</time>
      </trkpt>
      <trkpt lat="59.9392425" lon="17.7407664">
        <ele>43.8773</ele>
        <time>2014-06-06T15:33:21Z</time>
      </trkpt>
      <trkpt lat="59.939292" lon="17.7407689">
        <ele>43.8773</ele>
        <time>2014-06-06T15:33:22Z</time>
      </trkpt>
      <trkpt lat="59.9393407" lon="17.7407711">
        <ele>43.8773</ele>
        <time>2014-06-06T15:33:23Z</time>
      </trkpt>
      <trkpt lat="59.9393906" lon="17.7407722">
        <ele>43.8773</ele>
        <time>2014-06-06T15:33:24Z</time>
      </trkpt>
      <trkpt lat="59.9394393" lon="17.740772">
        <ele>43.8773</ele>
        <time>2014-06-06T15:33:25Z</time>
      </trkpt>
      <trkpt lat="59.9394897" lon="17.7407706">
        <ele>43.8773</ele>
        <time>2014-06-06T15:33:26Z</time>
      </trkpt>
      <trkpt lat="59.9395393" lon="17.7407685">
        <ele>43.8773</ele>
        <time>2014-06-06T15:33:27Z</time>
      </trkpt>
      <trkpt lat="59.9395906" lon="17.7407618">
        <ele>43.8773</ele>
        <time>2014-06-06T15:33:28Z</time>
      </trkpt>
      <trkpt lat="59.9396423" lon="17.7407529">
        <ele>43.8773</ele>
        <time>2014-06-06T15:33:29Z</time>
      </trkpt>
      <trkpt lat="59.9396922" lon="17.7407408">
        <ele>43.8773</ele>
        <time>2014-06-06T15:33:30Z</time>
      </trkpt>
      <trkpt lat="59.9397413" lon="17.7407253">
        <ele>43.8773</ele>
        <time>2014-06-06T15:33:31Z</time>
      </trkpt>
      <trkpt lat="59.9397905" lon="17.7407069">
        <ele>43.8773</ele>
        <time>2014-06-06T15:33:32Z</time>
      </trkpt>
      <trkpt lat="59.9398394" lon="17.740687">
        <ele>43.8773</ele>
        <time>2014-06-06T15:33:33Z</time>
      </trkpt>
      <trkpt lat="59.9398878" lon="17.7406647">
        <ele>43.8773</ele>
        <time>2014-06-06T15:33:34Z</time>
      </trkpt>
      <trkpt lat="59.9399351" lon="17.7406417">
        <ele>43.8773</ele>
        <time>2014-06-06T15:33:35Z</time>
      </trkpt>
      <trkpt lat="59.9399839" lon="17.7406203">
        <ele>43.8773</ele>
        <time>2014-06-06T15:33:36Z</time>
      </trkpt>
      <trkpt lat="59.9400341" lon="17.7406007">
        <ele>43.8773</ele>
        <time>2014-06-06T15:33:37Z</time>
      </trkpt>
      <trkpt lat="59.9400796" lon="17.740581">
        <ele>43.8773</ele>
        <time>2014-06-06T15:33:38Z</time>
      </trkpt>
      <trkpt lat="59.9401262" lon="17.7405488">
        <ele>43.8773</ele>
        <time>2014-06-06T15:33:39Z</time>
      </trkpt>
      <trkpt lat="59.9401801" lon="17.7405082">
        <ele>44.358</ele>
        <time>2014-06-06T15:33:40Z</time>
      </trkpt>
      <trkpt lat="59.9402278" lon="17.7404643">
        <ele>44.358</ele>
        <time>2014-06-06T15:33:41Z</time>
      </trkpt>
      <trkpt lat="59.9402789" lon="17.7404225">
        <ele>45.3192</ele>
        <time>2014-06-06T15:33:42Z</time>
      </trkpt>
      <trkpt lat="59.9403231" lon="17.7403733">
        <ele>46.2806</ele>
        <time>2014-06-06T15:33:43Z</time>
      </trkpt>
      <trkpt lat="59.940354" lon="17.7403189">
        <ele>46.2806</ele>
        <time>2014-06-06T15:33:44Z</time>
      </trkpt>
      <trkpt lat="59.9403858" lon="17.7402542">
        <ele>47.2418</ele>
        <time>2014-06-06T15:33:45Z</time>
      </trkpt>
      <trkpt lat="59.9404105" lon="17.7401759">
        <ele>47.7225</ele>
        <time>2014-06-06T15:33:46Z</time>
      </trkpt>
      <trkpt lat="59.9404395" lon="17.7400981">
        <ele>47.7225</ele>
        <time>2014-06-06T15:33:47Z</time>
      </trkpt>
      <trkpt lat="59.9404695" lon="17.7400224">
        <ele>48.2034</ele>
        <time>2014-06-06T15:33:48Z</time>
      </trkpt>
      <trkpt lat="59.9404992" lon="17.7399511">
        <ele>48.684</ele>
        <time>2014-06-06T15:33:49Z</time>
      </trkpt>
      <trkpt lat="59.9405246" lon="17.7398864">
        <ele>49.1646</ele>
        <time>2014-06-06T15:33:50Z</time>
      </trkpt>
      <trkpt lat="59.9405505" lon="17.739831">
        <ele>49.6453</ele>
        <time>2014-06-06T15:33:51Z</time>
      </trkpt>
      <trkpt lat="59.9405748" lon="17.7397867">
        <ele>50.126</ele>
        <time>2014-06-06T15:33:52Z</time>
      </trkpt>
      <trkpt lat="59.9406064" lon="17.7397671">
        <ele>50.6066</ele>
        <time>2014-06-06T15:33:53Z</time>
      </trkpt>
      <trkpt lat="59.9406373" lon="17.7397585">
        <ele>51.5679</ele>
        <time>2014-06-06T15:33:54Z</time>
      </trkpt>
      <trkpt lat="59.9406726" lon="17.7397662">
        <ele>51.0872</ele>
        <time>2014-06-06T15:33:55Z</time>
      </trkpt>
      <trkpt lat="59.9407095" lon="17.7397703">
        <ele>51.5679</ele>
        <time>2014-06-06T15:33:56Z</time>
      </trkpt>
      <trkpt lat="59.9407411" lon="17.7397937">
        <ele>51.0872</ele>
        <time>2014-06-06T15:33:57Z</time>
      </trkpt>
      <trkpt lat="59.9407773" lon="17.7397983">
        <ele>50.6066</ele>
        <time>2014-06-06T15:33:58Z</time>
      </trkpt>
      <trkpt lat="59.9408302" lon="17.7398076">
        <ele>51.5679</ele>
        <time>2014-06-06T15:33:59Z</time>
      </trkpt>
      <trkpt lat="59.9408872" lon="17.7398439">
        <ele>51.5679</ele>
        <time>2014-06-06T15:34:00Z</time>
      </trkpt>
      <trkpt lat="59.9409432" lon="17.7398852">
        <ele>51.5679</ele>
        <time>2014-06-06T15:34:01Z</time>
      </trkpt>
      <trkpt lat="59.9409982" lon="17.7399363">
        <ele>52.0486</ele>
        <time>2014-06-06T15:34:02Z</time>
      </trkpt>
      <trkpt lat="59.9410518" lon="17.7399858">
        <ele>52.0486</ele>
        <time>2014-06-06T15:34:03Z</time>
      </trkpt>
      <trkpt lat="59.9411079" lon="17.7400148">
        <ele>52.5292</ele>
        <time>2014-06-06T15:34:04Z</time>
      </trkpt>
      <trkpt lat="59.9411509" lon="17.7400384">
        <ele>51.5679</ele>
        <time>2014-06-06T15:34:05Z</time>
      </trkpt>
      <trkpt lat="59.9411988" lon="17.7400464">
        <ele>52.5292</ele>
        <time>2014-06-06T15:34:06Z</time>
      </trkpt>
      <trkpt lat="59.9412637" lon="17.740053">
        <ele>53.9712</ele>
        <time>2014-06-06T15:34:07Z</time>
      </trkpt>
      <trkpt lat="59.9413235" lon="17.74005">
        <ele>54.9324</ele>
        <time>2014-06-06T15:34:08Z</time>
      </trkpt>
      <trkpt lat="59.9413874" lon="17.7400242">
        <ele>55.8938</ele>
        <time>2014-06-06T15:34:09Z</time>
      </trkpt>
      <trkpt lat="59.9414554" lon="17.7399935">
        <ele>57.3358</ele>
        <time>2014-06-06T15:34:10Z</time>
      </trkpt>
      <trkpt lat="59.9415185" lon="17.7399567">
        <ele>58.2971</ele>
        <time>2014-06-06T15:34:11Z</time>
      </trkpt>
      <trkpt lat="59.9415747" lon="17.7399256">
        <ele>58.7777</ele>
        <time>2014-06-06T15:34:12Z</time>
      </trkpt>
      <trkpt lat="59.9416321" lon="17.7399025">
        <ele>59.7391</ele>
        <time>2014-06-06T15:34:13Z</time>
      </trkpt>
      <trkpt lat="59.941689" lon="17.7399042">
        <ele>59.7391</ele>
        <time>2014-06-06T15:34:14Z</time>
      </trkpt>
      <trkpt lat="59.9417472" lon="17.7399152">
        <ele>59.7391</ele>
        <time>2014-06-06T15:34:15Z</time>
      </trkpt>
      <trkpt lat="59.9418021" lon="17.7399306">
        <ele>59.2584</ele>
        <time>2014-06-06T15:34:16Z</time>
      </trkpt>
      <trkpt lat="59.9418557" lon="17.7399448">
        <ele>58.7777</ele>
        <time>2014-06-06T15:34:17Z</time>
      </trkpt>
      <trkpt lat="59.9419104" lon="17.7399781">
        <ele>57.8165</ele>
        <time>2014-06-06T15:34:18Z</time>
      </trkpt>
      <trkpt lat="59.9419738" lon="17.7400158">
        <ele>57.8165</ele>
        <time>2014-06-06T15:34:19Z</time>
      </trkpt>
      <trkpt lat="59.9420435" lon="17.7400479">
        <ele>58.7777</ele>
        <time>2014-06-06T15:34:20Z</time>
      </trkpt>
      <trkpt lat="59.9421052" lon="17.7400702">
        <ele>58.2971</ele>
        <time>2014-06-06T15:34:21Z</time>
      </trkpt>
      <trkpt lat="59.9421625" lon="17.74009">
        <ele>57.8165</ele>
        <time>2014-06-06T15:34:22Z</time>
      </trkpt>
      <trkpt lat="59.9422201" lon="17.7401146">
        <ele>57.3358</ele>
        <time>2014-06-06T15:34:23Z</time>
      </trkpt>
      <trkpt lat="59.942274" lon="17.7401307">
        <ele>56.3745</ele>
        <time>2014-06-06T15:34:24Z</time>
      </trkpt>
      <trkpt lat="59.9423281" lon="17.7401333">
        <ele>55.4131</ele>
        <time>2014-06-06T15:34:25Z</time>
      </trkpt>
      <trkpt lat="59.9423789" lon="17.740124">
        <ele>53.9712</ele>
        <time>2014-06-06T15:34:26Z</time>
      </trkpt>
      <trkpt lat="59.9424346" lon="17.740112">
        <ele>53.0098</ele>
        <time>2014-06-06T15:34:27Z</time>
      </trkpt>
      <trkpt lat="59.9424963" lon="17.7400909">
        <ele>53.0098</ele>
        <time>2014-06-06T15:34:28Z</time>
      </trkpt>
      <trkpt lat="59.9425542" lon="17.740065">
        <ele>52.0486</ele>
        <time>2014-06-06T15:34:29Z</time>
      </trkpt>
      <trkpt lat="59.9426143" lon="17.740035">
        <ele>51.5679</ele>
        <time>2014-06-06T15:34:30Z</time>
      </trkpt>
      <trkpt lat="59.9426739" lon="17.740009">
        <ele>51.0872</ele>
        <time>2014-06-06T15:34:31Z</time>
      </trkpt>
      <trkpt lat="59.9427349" lon="17.7399899">
        <ele>50.6066</ele>
        <time>2014-06-06T15:34:32Z</time>
      </trkpt>
      <trkpt lat="59.942798" lon="17.7399806">
        <ele>50.6066</ele>
        <time>2014-06-06T15:34:33Z</time>
      </trkpt>
      <trkpt lat="59.9428609" lon="17.7399842">
        <ele>50.126</ele>
        <time>2014-06-06T15:34:34Z</time>
      </trkpt>
      <trkpt lat="59.9429266" lon="17.7399955">
        <ele>50.126</ele>
        <time>2014-06-06T15:34:35Z</time>
      </trkpt>
      <trkpt lat="59.9429899" lon="17.7400097">
        <ele>50.126</ele>
        <time>2014-06-06T15:34:36Z</time>
      </trkpt>
      <trkpt lat="59.9430483" lon="17.7400239">
        <ele>49.6453</ele>
        <time>2014-06-06T15:34:37Z</time>
      </trkpt>
      <trkpt lat="59.9431061" lon="17.740034">
        <ele>49.6453</ele>
        <time>2014-06-06T15:34:38Z</time>
      </trkpt>
      <trkpt lat="59.9431602" lon="17.7400405">
        <ele>49.6453</ele>
        <time>2014-06-06T15:34:39Z</time>
      </trkpt>
      <trkpt lat="59.943215" lon="17.7400427">
        <ele>49.6453</ele>
        <time>2014-06-06T15:34:40Z</time>
      </trkpt>
      <trkpt lat="59.9432704" lon="17.7400436">
        <ele>49.6453</ele>
        <time>2014-06-06T15:34:41Z</time>
      </trkpt>
      <trkpt lat="59.9433198" lon="17.7400401">
        <ele>49.1646</ele>
        <time>2014-06-06T15:34:42Z</time>
      </trkpt>
      <trkpt lat="59.943374" lon="17.7400272">
        <ele>49.6453</ele>
        <time>2014-06-06T15:34:43Z</time>
      </trkpt>
      <trkpt lat="59.9434387" lon="17.7400029">
        <ele>50.6066</ele>
        <time>2014-06-06T15:34:44Z</time>
      </trkpt>
      <trkpt lat="59.9434887" lon="17.7399918">
        <ele>50.126</ele>
        <time>2014-06-06T15:34:45Z</time>
      </trkpt>
      <trkpt lat="59.9435441" lon="17.7399864">
        <ele>50.126</ele>
        <time>2014-06-06T15:34:46Z</time>
      </trkpt>
      <trkpt lat="59.9436119" lon="17.7399854">
        <ele>51.0872</ele>
        <time>2014-06-06T15:34:47Z</time>
      </trkpt>
      <trkpt lat="59.94367" lon="17.739992">
        <ele>51.5679</ele>
        <time>2014-06-06T15:34:48Z</time>
      </trkpt>
      <trkpt lat="59.9437296" lon="17.7400004">
        <ele>52.5292</ele>
        <time>2014-06-06T15:34:49Z</time>
      </trkpt>
      <trkpt lat="59.9437906" lon="17.7400146">
        <ele>53.4905</ele>
        <time>2014-06-06T15:34:50Z</time>
      </trkpt>
      <trkpt lat="59.9438326" lon="17.7400287">
        <ele>52.5292</ele>
        <time>2014-06-06T15:34:51Z</time>
      </trkpt>
      <trkpt lat="59.9438777" lon="17.7400147">
        <ele>53.0098</ele>
        <time>2014-06-06T15:34:52Z</time>
      </trkpt>
      <trkpt lat="59.9439205" lon="17.7399907">
        <ele>53.0098</ele>
        <time>2014-06-06T15:34:53Z</time>
      </trkpt>
      <trkpt lat="59.943963" lon="17.7399628">
        <ele>52.5292</ele>
        <time>2014-06-06T15:34:54Z</time>
      </trkpt>
      <trkpt lat="59.9440103" lon="17.7399292">
        <ele>53.0098</ele>
        <time>2014-06-06T15:34:55Z</time>
      </trkpt>
      <trkpt lat="59.9440533" lon="17.7398949">
        <ele>53.0098</ele>
        <time>2014-06-06T15:34:56Z</time>
      </trkpt>
      <trkpt lat="59.9440989" lon="17.739848">
        <ele>53.0098</ele>
        <time>2014-06-06T15:34:57Z</time>
      </trkpt>
      <trkpt lat="59.9441429" lon="17.7398032">
        <ele>52.5292</ele>
        <time>2014-06-06T15:34:58Z</time>
      </trkpt>
      <trkpt lat="59.94418" lon="17.7397489">
        <ele>52.0486</ele>
        <time>2014-06-06T15:34:59Z</time>
      </trkpt>
      <trkpt lat="59.9442221" lon="17.7396921">
        <ele>52.5292</ele>
        <time>2014-06-06T15:35:00Z</time>
      </trkpt>
      <trkpt lat="59.9442605" lon="17.739633">
        <ele>52.5292</ele>
        <time>2014-06-06T15:35:01Z</time>
      </trkpt>
      <trkpt lat="59.9443" lon="17.7395775">
        <ele>52.5292</ele>
        <time>2014-06-06T15:35:02Z</time>
      </trkpt>
      <trkpt lat="59.9443408" lon="17.7395195">
        <ele>53.0098</ele>
        <time>2014-06-06T15:35:03Z</time>
      </trkpt>
      <trkpt lat="59.944386" lon="17.7394678">
        <ele>53.4905</ele>
        <time>2014-06-06T15:35:04Z</time>
      </trkpt>
      <trkpt lat="59.9444258" lon="17.7394192">
        <ele>53.0098</ele>
        <time>2014-06-06T15:35:05Z</time>
      </trkpt>
      <trkpt lat="59.9444729" lon="17.7393688">
        <ele>53.4905</ele>
        <time>2014-06-06T15:35:06Z</time>
      </trkpt>
      <trkpt lat="59.9445185" lon="17.7393306">
        <ele>53.0098</ele>
        <time>2014-06-06T15:35:07Z</time>
      </trkpt>
      <trkpt lat="59.9445645" lon="17.7392933">
        <ele>52.5292</ele>
        <time>2014-06-06T15:35:08Z</time>
      </trkpt>
      <trkpt lat="59.9446139" lon="17.7392588">
        <ele>52.5292</ele>
        <time>2014-06-06T15:35:09Z</time>
      </trkpt>
      <trkpt lat="59.9446635" lon="17.7392477">
        <ele>51.5679</ele>
        <time>2014-06-06T15:35:10Z</time>
      </trkpt>
      <trkpt lat="59.9447148" lon="17.7392527">
        <ele>52.0486</ele>
        <time>2014-06-06T15:35:11Z</time>
      </trkpt>
      <trkpt lat="59.9447573" lon="17.7392708">
        <ele>51.5679</ele>
        <time>2014-06-06T15:35:12Z</time>
      </trkpt>
      <trkpt lat="59.9447986" lon="17.7392932">
        <ele>51.5679</ele>
        <time>2014-06-06T15:35:13Z</time>
      </trkpt>
      <trkpt lat="59.9448373" lon="17.7393119">
        <ele>51.5679</ele>
        <time>2014-06-06T15:35:14Z</time>
      </trkpt>
      <trkpt lat="59.9448796" lon="17.7393346">
        <ele>51.0872</ele>
        <time>2014-06-06T15:35:15Z</time>
      </trkpt>
      <trkpt lat="59.9449246" lon="17.7393694">
        <ele>50.6066</ele>
        <time>2014-06-06T15:35:16Z</time>
      </trkpt>
      <trkpt lat="59.9449733" lon="17.7393989">
        <ele>51.0872</ele>
        <time>2014-06-06T15:35:17Z</time>
      </trkpt>
      <trkpt lat="59.9450257" lon="17.7394267">
        <ele>51.0872</ele>
        <time>2014-06-06T15:35:18Z</time>
      </trkpt>
      <trkpt lat="59.9450816" lon="17.7394485">
        <ele>51.5679</ele>
        <time>2014-06-06T15:35:19Z</time>
      </trkpt>
      <trkpt lat="59.9451301" lon="17.7394641">
        <ele>51.5679</ele>
        <time>2014-06-06T15:35:20Z</time>
      </trkpt>
      <trkpt lat="59.9451876" lon="17.7394658">
        <ele>53.0098</ele>
        <time>2014-06-06T15:35:21Z</time>
      </trkpt>
      <trkpt lat="59.945249" lon="17.7394627">
        <ele>54.4518</ele>
        <time>2014-06-06T15:35:22Z</time>
      </trkpt>
      <trkpt lat="59.9453175" lon="17.7394619">
        <ele>56.3745</ele>
        <time>2014-06-06T15:35:23Z</time>
      </trkpt>
      <trkpt lat="59.9453898" lon="17.7394455">
        <ele>57.8165</ele>
        <time>2014-06-06T15:35:24Z</time>
      </trkpt>
      <trkpt lat="59.9454421" lon="17.7394132">
        <ele>58.2971</ele>
        <time>2014-06-06T15:35:25Z</time>
      </trkpt>
      <trkpt lat="59.9454934" lon="17.7393668">
        <ele>58.2971</ele>
        <time>2014-06-06T15:35:26Z</time>
      </trkpt>
      <trkpt lat="59.9455353" lon="17.7393108">
        <ele>58.2971</ele>
        <time>2014-06-06T15:35:27Z</time>
      </trkpt>
      <trkpt lat="59.9455757" lon="17.739245">
        <ele>58.2971</ele>
        <time>2014-06-06T15:35:28Z</time>
      </trkpt>
      <trkpt lat="59.9456188" lon="17.7391786">
        <ele>58.2971</ele>
        <time>2014-06-06T15:35:29Z</time>
      </trkpt>
      <trkpt lat="59.9456648" lon="17.7391175">
        <ele>58.7777</ele>
        <time>2014-06-06T15:35:30Z</time>
      </trkpt>
      <trkpt lat="59.9457151" lon="17.739047">
        <ele>59.7391</ele>
        <time>2014-06-06T15:35:31Z</time>
      </trkpt>
      <trkpt lat="59.9457683" lon="17.738985">
        <ele>61.181</ele>
        <time>2014-06-06T15:35:32Z</time>
      </trkpt>
      <trkpt lat="59.945815" lon="17.7389527">
        <ele>60.7003</ele>
        <time>2014-06-06T15:35:33Z</time>
      </trkpt>
      <trkpt lat="59.9458663" lon="17.7389337">
        <ele>60.7003</ele>
        <time>2014-06-06T15:35:34Z</time>
      </trkpt>
      <trkpt lat="59.9459159" lon="17.7389202">
        <ele>60.7003</ele>
        <time>2014-06-06T15:35:35Z</time>
      </trkpt>
      <trkpt lat="59.9459725" lon="17.7389069">
        <ele>61.6617</ele>
        <time>2014-06-06T15:35:36Z</time>
      </trkpt>
      <trkpt lat="59.9460242" lon="17.7389065">
        <ele>61.181</ele>
        <time>2014-06-06T15:35:37Z</time>
      </trkpt>
      <trkpt lat="59.9460803" lon="17.7388916">
        <ele>61.181</ele>
        <time>2014-06-06T15:35:38Z</time>
      </trkpt>
      <trkpt lat="59.9461413" lon="17.7388679">
        <ele>62.1423</ele>
        <time>2014-06-06T15:35:39Z</time>
      </trkpt>
      <trkpt lat="59.9461948" lon="17.7388302">
        <ele>61.181</ele>
        <time>2014-06-06T15:35:40Z</time>
      </trkpt>
      <trkpt lat="59.946244" lon="17.7387708">
        <ele>61.181</ele>
        <time>2014-06-06T15:35:41Z</time>
      </trkpt>
      <trkpt lat="59.9462942" lon="17.7386948">
        <ele>61.6617</ele>
        <time>2014-06-06T15:35:42Z</time>
      </trkpt>
      <trkpt lat="59.9463341" lon="17.7386171">
        <ele>61.6617</ele>
        <time>2014-06-06T15:35:43Z</time>
      </trkpt>
      <trkpt lat="59.9463749" lon="17.7385305">
        <ele>61.6617</ele>
        <time>2014-06-06T15:35:44Z</time>
      </trkpt>
      <trkpt lat="59.9464158" lon="17.738445">
        <ele>61.6617</ele>
        <time>2014-06-06T15:35:45Z</time>
      </trkpt>
      <trkpt lat="59.946454" lon="17.7383623">
        <ele>61.6617</ele>
        <time>2014-06-06T15:35:46Z</time>
      </trkpt>
      <trkpt lat="59.9464847" lon="17.7382784">
        <ele>61.181</ele>
        <time>2014-06-06T15:35:47Z</time>
      </trkpt>
      <trkpt lat="59.9465157" lon="17.7381998">
        <ele>60.7003</ele>
        <time>2014-06-06T15:35:48Z</time>
      </trkpt>
      <trkpt lat="59.9465526" lon="17.7381212">
        <ele>61.181</ele>
        <time>2014-06-06T15:35:49Z</time>
      </trkpt>
      <trkpt lat="59.9465857" lon="17.7380259">
        <ele>61.6617</ele>
        <time>2014-06-06T15:35:50Z</time>
      </trkpt>
      <trkpt lat="59.9466085" lon="17.7379254">
        <ele>61.6617</ele>
        <time>2014-06-06T15:35:51Z</time>
      </trkpt>
      <trkpt lat="59.9466313" lon="17.7378371">
        <ele>61.181</ele>
        <time>2014-06-06T15:35:52Z</time>
      </trkpt>
      <trkpt lat="59.9466594" lon="17.7377473">
        <ele>61.181</ele>
        <time>2014-06-06T15:35:53Z</time>
      </trkpt>
      <trkpt lat="59.9466963" lon="17.7376583">
        <ele>61.6617</ele>
        <time>2014-06-06T15:35:54Z</time>
      </trkpt>
      <trkpt lat="59.9467178" lon="17.7375887">
        <ele>59.7391</ele>
        <time>2014-06-06T15:35:55Z</time>
      </trkpt>
      <trkpt lat="59.946751" lon="17.7375274">
        <ele>59.2584</ele>
        <time>2014-06-06T15:35:56Z</time>
      </trkpt>
      <trkpt lat="59.9467871" lon="17.7374864">
        <ele>59.2584</ele>
        <time>2014-06-06T15:35:57Z</time>
      </trkpt>
      <trkpt lat="59.9468184" lon="17.7374657">
        <ele>58.2971</ele>
        <time>2014-06-06T15:35:58Z</time>
      </trkpt>
      <trkpt lat="59.9468579" lon="17.73745">
        <ele>58.2971</ele>
        <time>2014-06-06T15:35:59Z</time>
      </trkpt>
      <trkpt lat="59.9469002" lon="17.7374428">
        <ele>57.3358</ele>
        <time>2014-06-06T15:36:00Z</time>
      </trkpt>
      <trkpt lat="59.9469577" lon="17.7374342">
        <ele>57.8165</ele>
        <time>2014-06-06T15:36:01Z</time>
      </trkpt>
      <trkpt lat="59.9470211" lon="17.7374235">
        <ele>57.8165</ele>
        <time>2014-06-06T15:36:02Z</time>
      </trkpt>
      <trkpt lat="59.9470789" lon="17.7374222">
        <ele>58.2971</ele>
        <time>2014-06-06T15:36:03Z</time>
      </trkpt>
      <trkpt lat="59.9471281" lon="17.7374181">
        <ele>58.2971</ele>
        <time>2014-06-06T15:36:04Z</time>
      </trkpt>
      <trkpt lat="59.9471726" lon="17.7373952">
        <ele>57.8165</ele>
        <time>2014-06-06T15:36:05Z</time>
      </trkpt>
      <trkpt lat="59.9472261" lon="17.737359">
        <ele>57.8165</ele>
        <time>2014-06-06T15:36:06Z</time>
      </trkpt>
      <trkpt lat="59.9472726" lon="17.7373123">
        <ele>56.8551</ele>
        <time>2014-06-06T15:36:07Z</time>
      </trkpt>
      <trkpt lat="59.9473317" lon="17.7372599">
        <ele>57.3358</ele>
        <time>2014-06-06T15:36:08Z</time>
      </trkpt>
      <trkpt lat="59.9473836" lon="17.7371863">
        <ele>57.3358</ele>
        <time>2014-06-06T15:36:09Z</time>
      </trkpt>
      <trkpt lat="59.9474245" lon="17.7370854">
        <ele>57.8165</ele>
        <time>2014-06-06T15:36:10Z</time>
      </trkpt>
      <trkpt lat="59.9474601" lon="17.7369822">
        <ele>57.8165</ele>
        <time>2014-06-06T15:36:11Z</time>
      </trkpt>
      <trkpt lat="59.9474923" lon="17.7368631">
        <ele>58.2971</ele>
        <time>2014-06-06T15:36:12Z</time>
      </trkpt>
      <trkpt lat="59.9475467" lon="17.7367508">
        <ele>59.7391</ele>
        <time>2014-06-06T15:36:13Z</time>
      </trkpt>
      <trkpt lat="59.9475846" lon="17.7366266">
        <ele>61.181</ele>
        <time>2014-06-06T15:36:14Z</time>
      </trkpt>
      <trkpt lat="59.9476062" lon="17.7365064">
        <ele>61.181</ele>
        <time>2014-06-06T15:36:15Z</time>
      </trkpt>
      <trkpt lat="59.9476229" lon="17.7363787">
        <ele>61.181</ele>
        <time>2014-06-06T15:36:16Z</time>
      </trkpt>
      <trkpt lat="59.9476312" lon="17.7362451">
        <ele>61.6617</ele>
        <time>2014-06-06T15:36:17Z</time>
      </trkpt>
      <trkpt lat="59.9476425" lon="17.7361218">
        <ele>62.1423</ele>
        <time>2014-06-06T15:36:18Z</time>
      </trkpt>
      <trkpt lat="59.9476501" lon="17.7360041">
        <ele>61.6617</ele>
        <time>2014-06-06T15:36:19Z</time>
      </trkpt>
      <trkpt lat="59.9476648" lon="17.7358948">
        <ele>61.6617</ele>
        <time>2014-06-06T15:36:20Z</time>
      </trkpt>
      <trkpt lat="59.9477017" lon="17.7357608">
        <ele>62.1423</ele>
        <time>2014-06-06T15:36:21Z</time>
      </trkpt>
      <trkpt lat="59.9477152" lon="17.7356296">
        <ele>62.1423</ele>
        <time>2014-06-06T15:36:22Z</time>
      </trkpt>
      <trkpt lat="59.9477296" lon="17.7355008">
        <ele>62.6229</ele>
        <time>2014-06-06T15:36:23Z</time>
      </trkpt>
      <trkpt lat="59.9477425" lon="17.735378">
        <ele>62.6229</ele>
        <time>2014-06-06T15:36:24Z</time>
      </trkpt>
      <trkpt lat="59.9477471" lon="17.7352515">
        <ele>63.1036</ele>
        <time>2014-06-06T15:36:25Z</time>
      </trkpt>
      <trkpt lat="59.9477511" lon="17.7351329">
        <ele>62.6229</ele>
        <time>2014-06-06T15:36:26Z</time>
      </trkpt>
      <trkpt lat="59.9477556" lon="17.7350139">
        <ele>62.6229</ele>
        <time>2014-06-06T15:36:27Z</time>
      </trkpt>
      <trkpt lat="59.9477559" lon="17.7348932">
        <ele>62.6229</ele>
        <time>2014-06-06T15:36:28Z</time>
      </trkpt>
      <trkpt lat="59.9477538" lon="17.7347798">
        <ele>62.1423</ele>
        <time>2014-06-06T15:36:29Z</time>
      </trkpt>
      <trkpt lat="59.9477429" lon="17.7346663">
        <ele>61.6617</ele>
        <time>2014-06-06T15:36:30Z</time>
      </trkpt>
      <trkpt lat="59.9477309" lon="17.7345516">
        <ele>61.181</ele>
        <time>2014-06-06T15:36:31Z</time>
      </trkpt>
      <trkpt lat="59.9477242" lon="17.7344432">
        <ele>60.2197</ele>
        <time>2014-06-06T15:36:32Z</time>
      </trkpt>
      <trkpt lat="59.9477199" lon="17.7343382">
        <ele>59.2584</ele>
        <time>2014-06-06T15:36:33Z</time>
      </trkpt>
      <trkpt lat="59.9477145" lon="17.7342287">
        <ele>58.7777</ele>
        <time>2014-06-06T15:36:34Z</time>
      </trkpt>
      <trkpt lat="59.947712" lon="17.7341232">
        <ele>57.8165</ele>
        <time>2014-06-06T15:36:35Z</time>
      </trkpt>
      <trkpt lat="59.9477203" lon="17.7340167">
        <ele>56.8551</ele>
        <time>2014-06-06T15:36:36Z</time>
      </trkpt>
      <trkpt lat="59.9477286" lon="17.7338995">
        <ele>55.4131</ele>
        <time>2014-06-06T15:36:37Z</time>
      </trkpt>
      <trkpt lat="59.9477534" lon="17.7337822">
        <ele>54.9324</ele>
        <time>2014-06-06T15:36:38Z</time>
      </trkpt>
      <trkpt lat="59.9477906" lon="17.7336788">
        <ele>53.9712</ele>
        <time>2014-06-06T15:36:39Z</time>
      </trkpt>
      <trkpt lat="59.94783" lon="17.7335852">
        <ele>52.5292</ele>
        <time>2014-06-06T15:36:40Z</time>
      </trkpt>
      <trkpt lat="59.9478752" lon="17.7334889">
        <ele>52.0486</ele>
        <time>2014-06-06T15:36:41Z</time>
      </trkpt>
      <trkpt lat="59.9479171" lon="17.7333816">
        <ele>52.0486</ele>
        <time>2014-06-06T15:36:42Z</time>
      </trkpt>
      <trkpt lat="59.947961" lon="17.7332693">
        <ele>51.5679</ele>
        <time>2014-06-06T15:36:43Z</time>
      </trkpt>
      <trkpt lat="59.94803" lon="17.7331388">
        <ele>52.0486</ele>
        <time>2014-06-06T15:36:44Z</time>
      </trkpt>
      <trkpt lat="59.9480668" lon="17.7330413">
        <ele>52.5292</ele>
        <time>2014-06-06T15:36:45Z</time>
      </trkpt>
      <trkpt lat="59.9480817" lon="17.7329311">
        <ele>52.5292</ele>
        <time>2014-06-06T15:36:46Z</time>
      </trkpt>
      <trkpt lat="59.9481055" lon="17.7328497">
        <ele>53.0098</ele>
        <time>2014-06-06T15:36:47Z</time>
      </trkpt>
      <trkpt lat="59.9481513" lon="17.7327922">
        <ele>52.5292</ele>
        <time>2014-06-06T15:36:48Z</time>
      </trkpt>
      <trkpt lat="59.9482036" lon="17.732736">
        <ele>53.0098</ele>
        <time>2014-06-06T15:36:49Z</time>
      </trkpt>
      <trkpt lat="59.9482599" lon="17.7327031">
        <ele>53.0098</ele>
        <time>2014-06-06T15:36:50Z</time>
      </trkpt>
      <trkpt lat="59.9483217" lon="17.7326859">
        <ele>53.4905</ele>
        <time>2014-06-06T15:36:51Z</time>
      </trkpt>
      <trkpt lat="59.9483807" lon="17.7326633">
        <ele>53.9712</ele>
        <time>2014-06-06T15:36:52Z</time>
      </trkpt>
      <trkpt lat="59.9484372" lon="17.7326445">
        <ele>53.4905</ele>
        <time>2014-06-06T15:36:53Z</time>
      </trkpt>
      <trkpt lat="59.9484948" lon="17.7326187">
        <ele>53.4905</ele>
        <time>2014-06-06T15:36:54Z</time>
      </trkpt>
      <trkpt lat="59.9485491" lon="17.7325854">
        <ele>53.0098</ele>
        <time>2014-06-06T15:36:55Z</time>
      </trkpt>
      <trkpt lat="59.9485996" lon="17.73253">
        <ele>52.5292</ele>
        <time>2014-06-06T15:36:56Z</time>
      </trkpt>
      <trkpt lat="59.9486515" lon="17.7324605">
        <ele>53.0098</ele>
        <time>2014-06-06T15:36:57Z</time>
      </trkpt>
      <trkpt lat="59.9486971" lon="17.7323741">
        <ele>53.4905</ele>
        <time>2014-06-06T15:36:58Z</time>
      </trkpt>
      <trkpt lat="59.9487361" lon="17.7322757">
        <ele>53.4905</ele>
        <time>2014-06-06T15:36:59Z</time>
      </trkpt>
      <trkpt lat="59.948777" lon="17.732169">
        <ele>53.0098</ele>
        <time>2014-06-06T15:37:00Z</time>
      </trkpt>
      <trkpt lat="59.9488269" lon="17.7320942">
        <ele>53.0098</ele>
        <time>2014-06-06T15:37:01Z</time>
      </trkpt>
      <trkpt lat="59.9488696" lon="17.7320074">
        <ele>53.0098</ele>
        <time>2014-06-06T15:37:02Z</time>
      </trkpt>
      <trkpt lat="59.9489284" lon="17.7319191">
        <ele>53.4905</ele>
        <time>2014-06-06T15:37:03Z</time>
      </trkpt>
      <trkpt lat="59.9489964" lon="17.7318469">
        <ele>54.4518</ele>
        <time>2014-06-06T15:37:04Z</time>
      </trkpt>
      <trkpt lat="59.9490573" lon="17.7317966">
        <ele>54.4518</ele>
        <time>2014-06-06T15:37:05Z</time>
      </trkpt>
      <trkpt lat="59.94909" lon="17.7317018">
        <ele>54.4518</ele>
        <time>2014-06-06T15:37:06Z</time>
      </trkpt>
      <trkpt lat="59.9491198" lon="17.7316164">
        <ele>53.9712</ele>
        <time>2014-06-06T15:37:07Z</time>
      </trkpt>
      <trkpt lat="59.9491431" lon="17.7315205">
        <ele>53.4905</ele>
        <time>2014-06-06T15:37:08Z</time>
      </trkpt>
      <trkpt lat="59.949172" lon="17.7314231">
        <ele>53.0098</ele>
        <time>2014-06-06T15:37:09Z</time>
      </trkpt>
      <trkpt lat="59.9492195" lon="17.7313168">
        <ele>53.0098</ele>
        <time>2014-06-06T15:37:10Z</time>
      </trkpt>
      <trkpt lat="59.9492457" lon="17.7312307">
        <ele>52.5292</ele>
        <time>2014-06-06T15:37:11Z</time>
      </trkpt>
      <trkpt lat="59.9492718" lon="17.7311489">
        <ele>52.0486</ele>
        <time>2014-06-06T15:37:12Z</time>
      </trkpt>
      <trkpt lat="59.9492946" lon="17.7310603">
        <ele>52.0486</ele>
        <time>2014-06-06T15:37:13Z</time>
      </trkpt>
      <trkpt lat="59.9493157" lon="17.7309805">
        <ele>51.5679</ele>
        <time>2014-06-06T15:37:14Z</time>
      </trkpt>
      <trkpt lat="59.9493411" lon="17.7308877">
        <ele>51.5679</ele>
        <time>2014-06-06T15:37:15Z</time>
      </trkpt>
      <trkpt lat="59.9493601" lon="17.7307827">
        <ele>51.5679</ele>
        <time>2014-06-06T15:37:16Z</time>
      </trkpt>
      <trkpt lat="59.9493743" lon="17.7306635">
        <ele>51.0872</ele>
        <time>2014-06-06T15:37:17Z</time>
      </trkpt>
      <trkpt lat="59.9494053" lon="17.7305429">
        <ele>52.5292</ele>
        <time>2014-06-06T15:37:18Z</time>
      </trkpt>
      <trkpt lat="59.9494225" lon="17.7304166">
        <ele>52.5292</ele>
        <time>2014-06-06T15:37:19Z</time>
      </trkpt>
      <trkpt lat="59.9494354" lon="17.7302938">
        <ele>52.5292</ele>
        <time>2014-06-06T15:37:20Z</time>
      </trkpt>
      <trkpt lat="59.9494495" lon="17.7301735">
        <ele>52.5292</ele>
        <time>2014-06-06T15:37:21Z</time>
      </trkpt>
      <trkpt lat="59.9494996" lon="17.7300787">
        <ele>53.4905</ele>
        <time>2014-06-06T15:37:22Z</time>
      </trkpt>
      <trkpt lat="59.9495126" lon="17.7299567">
        <ele>53.0098</ele>
        <time>2014-06-06T15:37:23Z</time>
      </trkpt>
      <trkpt lat="59.9495201" lon="17.7298209">
        <ele>53.0098</ele>
        <time>2014-06-06T15:37:24Z</time>
      </trkpt>
      <trkpt lat="59.949541" lon="17.7297021">
        <ele>53.4905</ele>
        <time>2014-06-06T15:37:25Z</time>
      </trkpt>
      <trkpt lat="59.9495606" lon="17.7295976">
        <ele>53.4905</ele>
        <time>2014-06-06T15:37:26Z</time>
      </trkpt>
      <trkpt lat="59.9496308" lon="17.7294721">
        <ele>54.9324</ele>
        <time>2014-06-06T15:37:27Z</time>
      </trkpt>
      <trkpt lat="59.9496758" lon="17.7293522">
        <ele>55.4131</ele>
        <time>2014-06-06T15:37:28Z</time>
      </trkpt>
      <trkpt lat="59.9497023" lon="17.729227">
        <ele>55.8938</ele>
        <time>2014-06-06T15:37:29Z</time>
      </trkpt>
      <trkpt lat="59.9497131" lon="17.7290951">
        <ele>56.3745</ele>
        <time>2014-06-06T15:37:30Z</time>
      </trkpt>
      <trkpt lat="59.9497328" lon="17.7289739">
        <ele>56.8551</ele>
        <time>2014-06-06T15:37:31Z</time>
      </trkpt>
      <trkpt lat="59.9497362" lon="17.7288579">
        <ele>56.3745</ele>
        <time>2014-06-06T15:37:32Z</time>
      </trkpt>
      <trkpt lat="59.9497409" lon="17.7287391">
        <ele>56.8551</ele>
        <time>2014-06-06T15:37:33Z</time>
      </trkpt>
      <trkpt lat="59.9497498" lon="17.728616">
        <ele>57.8165</ele>
        <time>2014-06-06T15:37:34Z</time>
      </trkpt>
      <trkpt lat="59.9497732" lon="17.7285086">
        <ele>58.2971</ele>
        <time>2014-06-06T15:37:35Z</time>
      </trkpt>
      <trkpt lat="59.9497959" lon="17.7284181">
        <ele>57.8165</ele>
        <time>2014-06-06T15:37:36Z</time>
      </trkpt>
      <trkpt lat="59.9498212" lon="17.728335">
        <ele>57.3358</ele>
        <time>2014-06-06T15:37:37Z</time>
      </trkpt>
      <trkpt lat="59.9498519" lon="17.7282694">
        <ele>56.3745</ele>
        <time>2014-06-06T15:37:38Z</time>
      </trkpt>
      <trkpt lat="59.9498797" lon="17.7282071">
        <ele>55.8938</ele>
        <time>2014-06-06T15:37:39Z</time>
      </trkpt>
      <trkpt lat="59.9499141" lon="17.7281382">
        <ele>56.3745</ele>
        <time>2014-06-06T15:37:40Z</time>
      </trkpt>
      <trkpt lat="59.9499508" lon="17.7280803">
        <ele>56.3745</ele>
        <time>2014-06-06T15:37:41Z</time>
      </trkpt>
      <trkpt lat="59.9499845" lon="17.7280297">
        <ele>56.3745</ele>
        <time>2014-06-06T15:37:42Z</time>
      </trkpt>
      <trkpt lat="59.9500151" lon="17.7279836">
        <ele>56.8551</ele>
        <time>2014-06-06T15:37:43Z</time>
      </trkpt>
      <trkpt lat="59.9500354" lon="17.727939">
        <ele>56.3745</ele>
        <time>2014-06-06T15:37:44Z</time>
      </trkpt>
      <trkpt lat="59.9500494" lon="17.7278921">
        <ele>56.3745</ele>
        <time>2014-06-06T15:37:45Z</time>
      </trkpt>
      <trkpt lat="59.9500693" lon="17.7278348">
        <ele>56.8551</ele>
        <time>2014-06-06T15:37:46Z</time>
      </trkpt>
      <trkpt lat="59.9500922" lon="17.7277846">
        <ele>57.3358</ele>
        <time>2014-06-06T15:37:47Z</time>
      </trkpt>
      <trkpt lat="59.9501231" lon="17.7277317">
        <ele>58.2971</ele>
        <time>2014-06-06T15:37:48Z</time>
      </trkpt>
      <trkpt lat="59.9501545" lon="17.7276841">
        <ele>58.7777</ele>
        <time>2014-06-06T15:37:49Z</time>
      </trkpt>
      <trkpt lat="59.9501792" lon="17.7276338">
        <ele>59.2584</ele>
        <time>2014-06-06T15:37:50Z</time>
      </trkpt>
      <trkpt lat="59.9502165" lon="17.7275794">
        <ele>59.7391</ele>
        <time>2014-06-06T15:37:51Z</time>
      </trkpt>
      <trkpt lat="59.9502606" lon="17.7275224">
        <ele>60.2197</ele>
        <time>2014-06-06T15:37:52Z</time>
      </trkpt>
      <trkpt lat="59.9503061" lon="17.7274769">
        <ele>59.2584</ele>
        <time>2014-06-06T15:37:53Z</time>
      </trkpt>
      <trkpt lat="59.9503651" lon="17.7274334">
        <ele>59.7391</ele>
        <time>2014-06-06T15:37:54Z</time>
      </trkpt>
      <trkpt lat="59.9504122" lon="17.7274018">
        <ele>58.2971</ele>
        <time>2014-06-06T15:37:55Z</time>
      </trkpt>
      <trkpt lat="59.9504599" lon="17.7273689">
        <ele>57.3358</ele>
        <time>2014-06-06T15:37:56Z</time>
      </trkpt>
      <trkpt lat="59.9505077" lon="17.727338">
        <ele>56.8551</ele>
        <time>2014-06-06T15:37:57Z</time>
      </trkpt>
      <trkpt lat="59.9505492" lon="17.7273085">
        <ele>55.4131</ele>
        <time>2014-06-06T15:37:58Z</time>
      </trkpt>
      <trkpt lat="59.9505968" lon="17.72728">
        <ele>54.9324</ele>
        <time>2014-06-06T15:37:59Z</time>
      </trkpt>
      <trkpt lat="59.9506458" lon="17.7272484">
        <ele>53.9712</ele>
        <time>2014-06-06T15:38:00Z</time>
      </trkpt>
      <trkpt lat="59.9506968" lon="17.7272111">
        <ele>53.4905</ele>
        <time>2014-06-06T15:38:01Z</time>
      </trkpt>
      <trkpt lat="59.9507458" lon="17.7271697">
        <ele>52.5292</ele>
        <time>2014-06-06T15:38:02Z</time>
      </trkpt>
      <trkpt lat="59.9507996" lon="17.7271315">
        <ele>52.0486</ele>
        <time>2014-06-06T15:38:03Z</time>
      </trkpt>
      <trkpt lat="59.9508545" lon="17.7270872">
        <ele>51.5679</ele>
        <time>2014-06-06T15:38:04Z</time>
      </trkpt>
      <trkpt lat="59.9509055" lon="17.7270415">
        <ele>51.5679</ele>
        <time>2014-06-06T15:38:05Z</time>
      </trkpt>
      <trkpt lat="59.9509538" lon="17.7269928">
        <ele>51.0872</ele>
        <time>2014-06-06T15:38:06Z</time>
      </trkpt>
      <trkpt lat="59.9510028" lon="17.7269427">
        <ele>50.6066</ele>
        <time>2014-06-06T15:38:07Z</time>
      </trkpt>
      <trkpt lat="59.9510493" lon="17.7268966">
        <ele>49.6453</ele>
        <time>2014-06-06T15:38:08Z</time>
      </trkpt>
      <trkpt lat="59.9510976" lon="17.7268546">
        <ele>49.1646</ele>
        <time>2014-06-06T15:38:09Z</time>
      </trkpt>
      <trkpt lat="59.9511429" lon="17.7268087">
        <ele>48.684</ele>
        <time>2014-06-06T15:38:10Z</time>
      </trkpt>
      <trkpt lat="59.951183" lon="17.7267583">
        <ele>48.2034</ele>
        <time>2014-06-06T15:38:11Z</time>
      </trkpt>
      <trkpt lat="59.9512226" lon="17.7267035">
        <ele>48.2034</ele>
        <time>2014-06-06T15:38:12Z</time>
      </trkpt>
      <trkpt lat="59.9512614" lon="17.7266495">
        <ele>48.2034</ele>
        <time>2014-06-06T15:38:13Z</time>
      </trkpt>
      <trkpt lat="59.9512971" lon="17.7265881">
        <ele>47.7225</ele>
        <time>2014-06-06T15:38:14Z</time>
      </trkpt>
      <trkpt lat="59.9513323" lon="17.7265171">
        <ele>47.7225</ele>
        <time>2014-06-06T15:38:15Z</time>
      </trkpt>
      <trkpt lat="59.95138" lon="17.7264362">
        <ele>48.684</ele>
        <time>2014-06-06T15:38:16Z</time>
      </trkpt>
      <trkpt lat="59.9514204" lon="17.7263497">
        <ele>49.6453</ele>
        <time>2014-06-06T15:38:17Z</time>
      </trkpt>
      <trkpt lat="59.9514562" lon="17.7262607">
        <ele>50.126</ele>
        <time>2014-06-06T15:38:18Z</time>
      </trkpt>
      <trkpt lat="59.9514901" lon="17.7261638">
        <ele>50.6066</ele>
        <time>2014-06-06T15:38:19Z</time>
      </trkpt>
      <trkpt lat="59.9515209" lon="17.726064">
        <ele>51.0872</ele>
        <time>2014-06-06T15:38:20Z</time>
      </trkpt>
      <trkpt lat="59.9515516" lon="17.7259689">
        <ele>51.0872</ele>
        <time>2014-06-06T15:38:21Z</time>
      </trkpt>
      <trkpt lat="59.9515857" lon="17.725876">
        <ele>51.0872</ele>
        <time>2014-06-06T15:38:22Z</time>
      </trkpt>
      <trkpt lat="59.9516204" lon="17.7257807">
        <ele>51.0872</ele>
        <time>2014-06-06T15:38:23Z</time>
      </trkpt>
      <trkpt lat="59.9516608" lon="17.7256861">
        <ele>51.5679</ele>
        <time>2014-06-06T15:38:24Z</time>
      </trkpt>
      <trkpt lat="59.951694" lon="17.7255918">
        <ele>51.5679</ele>
        <time>2014-06-06T15:38:25Z</time>
      </trkpt>
      <trkpt lat="59.9517276" lon="17.725496">
        <ele>51.5679</ele>
        <time>2014-06-06T15:38:26Z</time>
      </trkpt>
      <trkpt lat="59.9517621" lon="17.7254048">
        <ele>51.0872</ele>
        <time>2014-06-06T15:38:27Z</time>
      </trkpt>
      <trkpt lat="59.951797" lon="17.7253143">
        <ele>51.0872</ele>
        <time>2014-06-06T15:38:28Z</time>
      </trkpt>
      <trkpt lat="59.9518349" lon="17.7252292">
        <ele>50.6066</ele>
        <time>2014-06-06T15:38:29Z</time>
      </trkpt>
      <trkpt lat="59.9518759" lon="17.725153">
        <ele>50.126</ele>
        <time>2014-06-06T15:38:30Z</time>
      </trkpt>
      <trkpt lat="59.9519189" lon="17.7250703">
        <ele>50.6066</ele>
        <time>2014-06-06T15:38:31Z</time>
      </trkpt>
      <trkpt lat="59.951955" lon="17.7249789">
        <ele>51.0872</ele>
        <time>2014-06-06T15:38:32Z</time>
      </trkpt>
      <trkpt lat="59.9519855" lon="17.7248794">
        <ele>51.0872</ele>
        <time>2014-06-06T15:38:33Z</time>
      </trkpt>
      <trkpt lat="59.9520115" lon="17.7247769">
        <ele>51.0872</ele>
        <time>2014-06-06T15:38:34Z</time>
      </trkpt>
      <trkpt lat="59.9520353" lon="17.7246697">
        <ele>51.5679</ele>
        <time>2014-06-06T15:38:35Z</time>
      </trkpt>
      <trkpt lat="59.9520545" lon="17.7245614">
        <ele>51.5679</ele>
        <time>2014-06-06T15:38:36Z</time>
      </trkpt>
      <trkpt lat="59.9520726" lon="17.7244522">
        <ele>52.0486</ele>
        <time>2014-06-06T15:38:37Z</time>
      </trkpt>
      <trkpt lat="59.9520916" lon="17.7243445">
        <ele>52.5292</ele>
        <time>2014-06-06T15:38:38Z</time>
      </trkpt>
      <trkpt lat="59.9521112" lon="17.7242434">
        <ele>53.0098</ele>
        <time>2014-06-06T15:38:39Z</time>
      </trkpt>
      <trkpt lat="59.9521261" lon="17.724147">
        <ele>53.0098</ele>
        <time>2014-06-06T15:38:40Z</time>
      </trkpt>
      <trkpt lat="59.9521455" lon="17.7240539">
        <ele>53.0098</ele>
        <time>2014-06-06T15:38:41Z</time>
      </trkpt>
      <trkpt lat="59.9521695" lon="17.7239671">
        <ele>53.4905</ele>
        <time>2014-06-06T15:38:42Z</time>
      </trkpt>
      <trkpt lat="59.9521907" lon="17.7238771">
        <ele>53.4905</ele>
        <time>2014-06-06T15:38:43Z</time>
      </trkpt>
      <trkpt lat="59.9522119" lon="17.7237804">
        <ele>53.4905</ele>
        <time>2014-06-06T15:38:44Z</time>
      </trkpt>
      <trkpt lat="59.9522389" lon="17.7236835">
        <ele>53.4905</ele>
        <time>2014-06-06T15:38:45Z</time>
      </trkpt>
      <trkpt lat="59.9522649" lon="17.723585">
        <ele>53.4905</ele>
        <time>2014-06-06T15:38:46Z</time>
      </trkpt>
      <trkpt lat="59.9522939" lon="17.7234888">
        <ele>53.0098</ele>
        <time>2014-06-06T15:38:47Z</time>
      </trkpt>
      <trkpt lat="59.9523237" lon="17.7233851">
        <ele>53.0098</ele>
        <time>2014-06-06T15:38:48Z</time>
      </trkpt>
      <trkpt lat="59.9523539" lon="17.7232783">
        <ele>53.0098</ele>
        <time>2014-06-06T15:38:49Z</time>
      </trkpt>
      <trkpt lat="59.9523848" lon="17.7231727">
        <ele>53.0098</ele>
        <time>2014-06-06T15:38:50Z</time>
      </trkpt>
      <trkpt lat="59.9524145" lon="17.7230661">
        <ele>53.0098</ele>
        <time>2014-06-06T15:38:51Z</time>
      </trkpt>
      <trkpt lat="59.9524405" lon="17.722962">
        <ele>53.0098</ele>
        <time>2014-06-06T15:38:52Z</time>
      </trkpt>
      <trkpt lat="59.9524617" lon="17.7228573">
        <ele>52.5292</ele>
        <time>2014-06-06T15:38:53Z</time>
      </trkpt>
      <trkpt lat="59.9524823" lon="17.722756">
        <ele>52.5292</ele>
        <time>2014-06-06T15:38:54Z</time>
      </trkpt>
      <trkpt lat="59.9525063" lon="17.7226586">
        <ele>52.5292</ele>
        <time>2014-06-06T15:38:55Z</time>
      </trkpt>
      <trkpt lat="59.9525324" lon="17.7225646">
        <ele>53.4905</ele>
        <time>2014-06-06T15:38:56Z</time>
      </trkpt>
      <trkpt lat="59.9525621" lon="17.7224744">
        <ele>54.4518</ele>
        <time>2014-06-06T15:38:57Z</time>
      </trkpt>
      <trkpt lat="59.9525923" lon="17.7223882">
        <ele>55.4131</ele>
        <time>2014-06-06T15:38:58Z</time>
      </trkpt>
      <trkpt lat="59.9526246" lon="17.7223046">
        <ele>55.8938</ele>
        <time>2014-06-06T15:38:59Z</time>
      </trkpt>
      <trkpt lat="59.9526551" lon="17.7222326">
        <ele>56.3745</ele>
        <time>2014-06-06T15:39:00Z</time>
      </trkpt>
      <trkpt lat="59.9526902" lon="17.7221704">
        <ele>56.8551</ele>
        <time>2014-06-06T15:39:01Z</time>
      </trkpt>
      <trkpt lat="59.9527303" lon="17.7221144">
        <ele>57.8165</ele>
        <time>2014-06-06T15:39:02Z</time>
      </trkpt>
      <trkpt lat="59.9527621" lon="17.7220678">
        <ele>57.3358</ele>
        <time>2014-06-06T15:39:03Z</time>
      </trkpt>
      <trkpt lat="59.9527938" lon="17.7220252">
        <ele>57.3358</ele>
        <time>2014-06-06T15:39:04Z</time>
      </trkpt>
      <trkpt lat="59.9528249" lon="17.7219777">
        <ele>57.3358</ele>
        <time>2014-06-06T15:39:05Z</time>
      </trkpt>
      <trkpt lat="59.9528636" lon="17.7219367">
        <ele>57.8165</ele>
        <time>2014-06-06T15:39:06Z</time>
      </trkpt>
      <trkpt lat="59.952904" lon="17.7218944">
        <ele>58.2971</ele>
        <time>2014-06-06T15:39:07Z</time>
      </trkpt>
      <trkpt lat="59.9529423" lon="17.7218543">
        <ele>57.8165</ele>
        <time>2014-06-06T15:39:08Z</time>
      </trkpt>
      <trkpt lat="59.9529832" lon="17.7218145">
        <ele>58.2971</ele>
        <time>2014-06-06T15:39:09Z</time>
      </trkpt>
      <trkpt lat="59.9530248" lon="17.7217708">
        <ele>58.7777</ele>
        <time>2014-06-06T15:39:10Z</time>
      </trkpt>
      <trkpt lat="59.9530626" lon="17.721715">
        <ele>58.7777</ele>
        <time>2014-06-06T15:39:11Z</time>
      </trkpt>
      <trkpt lat="59.953105" lon="17.7216525">
        <ele>59.2584</ele>
        <time>2014-06-06T15:39:12Z</time>
      </trkpt>
      <trkpt lat="59.9531436" lon="17.7215729">
        <ele>60.2197</ele>
        <time>2014-06-06T15:39:13Z</time>
      </trkpt>
      <trkpt lat="59.9531785" lon="17.7214799">
        <ele>60.7003</ele>
        <time>2014-06-06T15:39:14Z</time>
      </trkpt>
      <trkpt lat="59.9532092" lon="17.7213767">
        <ele>60.7003</ele>
        <time>2014-06-06T15:39:15Z</time>
      </trkpt>
      <trkpt lat="59.9532397" lon="17.721265">
        <ele>61.181</ele>
        <time>2014-06-06T15:39:16Z</time>
      </trkpt>
      <trkpt lat="59.9532594" lon="17.7211513">
        <ele>61.181</ele>
        <time>2014-06-06T15:39:17Z</time>
      </trkpt>
      <trkpt lat="59.9532722" lon="17.7210306">
        <ele>61.181</ele>
        <time>2014-06-06T15:39:18Z</time>
      </trkpt>
      <trkpt lat="59.953283" lon="17.7209047">
        <ele>61.181</ele>
        <time>2014-06-06T15:39:19Z</time>
      </trkpt>
      <trkpt lat="59.9532945" lon="17.7207816">
        <ele>61.6617</ele>
        <time>2014-06-06T15:39:20Z</time>
      </trkpt>
      <trkpt lat="59.9532985" lon="17.7206566">
        <ele>61.181</ele>
        <time>2014-06-06T15:39:21Z</time>
      </trkpt>
      <trkpt lat="59.9533002" lon="17.7205318">
        <ele>61.181</ele>
        <time>2014-06-06T15:39:22Z</time>
      </trkpt>
      <trkpt lat="59.9533127" lon="17.7204143">
        <ele>60.7003</ele>
        <time>2014-06-06T15:39:23Z</time>
      </trkpt>
      <trkpt lat="59.9533379" lon="17.7202974">
        <ele>60.7003</ele>
        <time>2014-06-06T15:39:24Z</time>
      </trkpt>
      <trkpt lat="59.9533716" lon="17.7201857">
        <ele>60.2197</ele>
        <time>2014-06-06T15:39:25Z</time>
      </trkpt>
      <trkpt lat="59.953405" lon="17.7200818">
        <ele>59.7391</ele>
        <time>2014-06-06T15:39:26Z</time>
      </trkpt>
      <trkpt lat="59.9534361" lon="17.7199904">
        <ele>59.7391</ele>
        <time>2014-06-06T15:39:27Z</time>
      </trkpt>
      <trkpt lat="59.9534759" lon="17.7199036">
        <ele>59.2584</ele>
        <time>2014-06-06T15:39:28Z</time>
      </trkpt>
      <trkpt lat="59.9535176" lon="17.7198092">
        <ele>59.2584</ele>
        <time>2014-06-06T15:39:29Z</time>
      </trkpt>
      <trkpt lat="59.9535599" lon="17.7197093">
        <ele>59.7391</ele>
        <time>2014-06-06T15:39:30Z</time>
      </trkpt>
      <trkpt lat="59.9536037" lon="17.7196097">
        <ele>59.2584</ele>
        <time>2014-06-06T15:39:31Z</time>
      </trkpt>
      <trkpt lat="59.9536416" lon="17.7195089">
        <ele>59.2584</ele>
        <time>2014-06-06T15:39:32Z</time>
      </trkpt>
      <trkpt lat="59.9536806" lon="17.7194029">
        <ele>59.2584</ele>
        <time>2014-06-06T15:39:33Z</time>
      </trkpt>
      <trkpt lat="59.9537199" lon="17.7192926">
        <ele>59.2584</ele>
        <time>2014-06-06T15:39:34Z</time>
      </trkpt>
      <trkpt lat="59.9537432" lon="17.7191808">
        <ele>58.7777</ele>
        <time>2014-06-06T15:39:35Z</time>
      </trkpt>
      <trkpt lat="59.953768" lon="17.7190716">
        <ele>58.2971</ele>
        <time>2014-06-06T15:39:36Z</time>
      </trkpt>
      <trkpt lat="59.9537934" lon="17.7189591">
        <ele>57.8165</ele>
        <time>2014-06-06T15:39:37Z</time>
      </trkpt>
      <trkpt lat="59.9538157" lon="17.7188432">
        <ele>57.8165</ele>
        <time>2014-06-06T15:39:38Z</time>
      </trkpt>
      <trkpt lat="59.9538376" lon="17.7187282">
        <ele>57.8165</ele>
        <time>2014-06-06T15:39:39Z</time>
      </trkpt>
      <trkpt lat="59.9538556" lon="17.7186112">
        <ele>57.8165</ele>
        <time>2014-06-06T15:39:40Z</time>
      </trkpt>
      <trkpt lat="59.9538742" lon="17.7185003">
        <ele>58.2971</ele>
        <time>2014-06-06T15:39:41Z</time>
      </trkpt>
      <trkpt lat="59.9538877" lon="17.7183966">
        <ele>58.7777</ele>
        <time>2014-06-06T15:39:42Z</time>
      </trkpt>
      <trkpt lat="59.9539033" lon="17.7183024">
        <ele>59.2584</ele>
        <time>2014-06-06T15:39:43Z</time>
      </trkpt>
      <trkpt lat="59.953916" lon="17.7182138">
        <ele>59.7391</ele>
        <time>2014-06-06T15:39:44Z</time>
      </trkpt>
      <trkpt lat="59.9539408" lon="17.7181293">
        <ele>59.7391</ele>
        <time>2014-06-06T15:39:45Z</time>
      </trkpt>
      <trkpt lat="59.9539881" lon="17.7180385">
        <ele>60.2197</ele>
        <time>2014-06-06T15:39:46Z</time>
      </trkpt>
      <trkpt lat="59.9540265" lon="17.7179759">
        <ele>60.2197</ele>
        <time>2014-06-06T15:39:47Z</time>
      </trkpt>
      <trkpt lat="59.9540581" lon="17.7179065">
        <ele>59.7391</ele>
        <time>2014-06-06T15:39:48Z</time>
      </trkpt>
      <trkpt lat="59.954076" lon="17.7178192">
        <ele>60.2197</ele>
        <time>2014-06-06T15:39:49Z</time>
      </trkpt>
      <trkpt lat="59.9540944" lon="17.7177393">
        <ele>61.181</ele>
        <time>2014-06-06T15:39:50Z</time>
      </trkpt>
      <trkpt lat="59.9541311" lon="17.717678">
        <ele>61.6617</ele>
        <time>2014-06-06T15:39:51Z</time>
      </trkpt>
      <trkpt lat="59.9541747" lon="17.7175966">
        <ele>61.181</ele>
        <time>2014-06-06T15:39:52Z</time>
      </trkpt>
      <trkpt lat="59.95421" lon="17.7175034">
        <ele>60.2197</ele>
        <time>2014-06-06T15:39:53Z</time>
      </trkpt>
      <trkpt lat="59.9542457" lon="17.7173979">
        <ele>60.2197</ele>
        <time>2014-06-06T15:39:54Z</time>
      </trkpt>
      <trkpt lat="59.95427" lon="17.7172819">
        <ele>60.7003</ele>
        <time>2014-06-06T15:39:55Z</time>
      </trkpt>
      <trkpt lat="59.9543032" lon="17.7171761">
        <ele>60.2197</ele>
        <time>2014-06-06T15:39:56Z</time>
      </trkpt>
      <trkpt lat="59.9543392" lon="17.7170565">
        <ele>60.2197</ele>
        <time>2014-06-06T15:39:57Z</time>
      </trkpt>
      <trkpt lat="59.9543664" lon="17.7169332">
        <ele>60.2197</ele>
        <time>2014-06-06T15:39:58Z</time>
      </trkpt>
      <trkpt lat="59.954386" lon="17.7168111">
        <ele>59.7391</ele>
        <time>2014-06-06T15:39:59Z</time>
      </trkpt>
      <trkpt lat="59.9544071" lon="17.7166938">
        <ele>58.7777</ele>
        <time>2014-06-06T15:40:00Z</time>
      </trkpt>
      <trkpt lat="59.9544326" lon="17.7165681">
        <ele>58.7777</ele>
        <time>2014-06-06T15:40:01Z</time>
      </trkpt>
      <trkpt lat="59.9544522" lon="17.7164348">
        <ele>58.2971</ele>
        <time>2014-06-06T15:40:02Z</time>
      </trkpt>
      <trkpt lat="59.95447" lon="17.7162941">
        <ele>58.2971</ele>
        <time>2014-06-06T15:40:03Z</time>
      </trkpt>
      <trkpt lat="59.9544846" lon="17.7161494">
        <ele>57.8165</ele>
        <time>2014-06-06T15:40:04Z</time>
      </trkpt>
      <trkpt lat="59.9544938" lon="17.7160066">
        <ele>56.8551</ele>
        <time>2014-06-06T15:40:05Z</time>
      </trkpt>
      <trkpt lat="59.9545047" lon="17.7158649">
        <ele>56.3745</ele>
        <time>2014-06-06T15:40:06Z</time>
      </trkpt>
      <trkpt lat="59.9545162" lon="17.7157243">
        <ele>55.4131</ele>
        <time>2014-06-06T15:40:07Z</time>
      </trkpt>
      <trkpt lat="59.954544" lon="17.7155661">
        <ele>57.3358</ele>
        <time>2014-06-06T15:40:08Z</time>
      </trkpt>
      <trkpt lat="59.9545658" lon="17.7154068">
        <ele>57.8165</ele>
        <time>2014-06-06T15:40:09Z</time>
      </trkpt>
      <trkpt lat="59.9545823" lon="17.7152589">
        <ele>56.8551</ele>
        <time>2014-06-06T15:40:10Z</time>
      </trkpt>
      <trkpt lat="59.9546112" lon="17.7151166">
        <ele>55.4131</ele>
        <time>2014-06-06T15:40:11Z</time>
      </trkpt>
      <trkpt lat="59.9546481" lon="17.715011">
        <ele>53.9712</ele>
        <time>2014-06-06T15:40:12Z</time>
      </trkpt>
      <trkpt lat="59.9547037" lon="17.7149043">
        <ele>52.5292</ele>
        <time>2014-06-06T15:40:13Z</time>
      </trkpt>
      <trkpt lat="59.9547621" lon="17.7147935">
        <ele>52.0486</ele>
        <time>2014-06-06T15:40:14Z</time>
      </trkpt>
      <trkpt lat="59.9548226" lon="17.7147006">
        <ele>51.5679</ele>
        <time>2014-06-06T15:40:15Z</time>
      </trkpt>
      <trkpt lat="59.9548875" lon="17.714611">
        <ele>51.0872</ele>
        <time>2014-06-06T15:40:16Z</time>
      </trkpt>
      <trkpt lat="59.954932" lon="17.7145245">
        <ele>51.0872</ele>
        <time>2014-06-06T15:40:17Z</time>
      </trkpt>
      <trkpt lat="59.9549703" lon="17.7144567">
        <ele>50.126</ele>
        <time>2014-06-06T15:40:18Z</time>
      </trkpt>
      <trkpt lat="59.955003" lon="17.7144047">
        <ele>49.6453</ele>
        <time>2014-06-06T15:40:19Z</time>
      </trkpt>
      <trkpt lat="59.9550262" lon="17.7143676">
        <ele>49.1646</ele>
        <time>2014-06-06T15:40:20Z</time>
      </trkpt>
      <trkpt lat="59.9550531" lon="17.7143462">
        <ele>48.684</ele>
        <time>2014-06-06T15:40:21Z</time>
      </trkpt>
      <trkpt lat="59.9550816" lon="17.7143396">
        <ele>48.684</ele>
        <time>2014-06-06T15:40:22Z</time>
      </trkpt>
      <trkpt lat="59.9551066" lon="17.7143277">
        <ele>48.684</ele>
        <time>2014-06-06T15:40:23Z</time>
      </trkpt>
      <trkpt lat="59.9551195" lon="17.7143013">
        <ele>48.684</ele>
        <time>2014-06-06T15:40:24Z</time>
      </trkpt>
      <trkpt lat="59.9551257" lon="17.7142618">
        <ele>49.1646</ele>
        <time>2014-06-06T15:40:25Z</time>
      </trkpt>
      <trkpt lat="59.9551313" lon="17.7142234">
        <ele>48.684</ele>
        <time>2014-06-06T15:40:26Z</time>
      </trkpt>
      <trkpt lat="59.9551435" lon="17.7141872">
        <ele>48.2034</ele>
        <time>2014-06-06T15:40:27Z</time>
      </trkpt>
      <trkpt lat="59.9551605" lon="17.7141517">
        <ele>47.7225</ele>
        <time>2014-06-06T15:40:28Z</time>
      </trkpt>
      <trkpt lat="59.9551832" lon="17.7141147">
        <ele>47.7225</ele>
        <time>2014-06-06T15:40:29Z</time>
      </trkpt>
      <trkpt lat="59.9552093" lon="17.7140737">
        <ele>47.2418</ele>
        <time>2014-06-06T15:40:30Z</time>
      </trkpt>
      <trkpt lat="59.9552366" lon="17.7140257">
        <ele>47.2418</ele>
        <time>2014-06-06T15:40:31Z</time>
      </trkpt>
      <trkpt lat="59.9552628" lon="17.7139728">
        <ele>47.2418</ele>
        <time>2014-06-06T15:40:32Z</time>
      </trkpt>
      <trkpt lat="59.9552875" lon="17.7139175">
        <ele>46.7612</ele>
        <time>2014-06-06T15:40:33Z</time>
      </trkpt>
      <trkpt lat="59.9553125" lon="17.713864">
        <ele>46.7612</ele>
        <time>2014-06-06T15:40:34Z</time>
      </trkpt>
      <trkpt lat="59.9553379" lon="17.7138163">
        <ele>46.7612</ele>
        <time>2014-06-06T15:40:35Z</time>
      </trkpt>
      <trkpt lat="59.9553633" lon="17.7137746">
        <ele>46.7612</ele>
        <time>2014-06-06T15:40:36Z</time>
      </trkpt>
      <trkpt lat="59.9553899" lon="17.7137439">
        <ele>46.2806</ele>
        <time>2014-06-06T15:40:37Z</time>
      </trkpt>
      <trkpt lat="59.9554188" lon="17.713733">
        <ele>46.2806</ele>
        <time>2014-06-06T15:40:38Z</time>
      </trkpt>
      <trkpt lat="59.9554516" lon="17.7137491">
        <ele>46.7612</ele>
        <time>2014-06-06T15:40:39Z</time>
      </trkpt>
      <trkpt lat="59.955477" lon="17.7137926">
        <ele>46.2806</ele>
        <time>2014-06-06T15:40:40Z</time>
      </trkpt>
      <trkpt lat="59.9554918" lon="17.7138535">
        <ele>46.2806</ele>
        <time>2014-06-06T15:40:41Z</time>
      </trkpt>
      <trkpt lat="59.9555002" lon="17.713926">
        <ele>45.7999</ele>
        <time>2014-06-06T15:40:42Z</time>
      </trkpt>
      <trkpt lat="59.9555102" lon="17.7140058">
        <ele>45.3192</ele>
        <time>2014-06-06T15:40:43Z</time>
      </trkpt>
      <trkpt lat="59.9555225" lon="17.7140878">
        <ele>45.3192</ele>
        <time>2014-06-06T15:40:44Z</time>
      </trkpt>
      <trkpt lat="59.9555333" lon="17.7141719">
        <ele>45.3192</ele>
        <time>2014-06-06T15:40:45Z</time>
      </trkpt>
      <trkpt lat="59.9555443" lon="17.7142563">
        <ele>44.8386</ele>
        <time>2014-06-06T15:40:46Z</time>
      </trkpt>
      <trkpt lat="59.9555615" lon="17.7143406">
        <ele>44.358</ele>
        <time>2014-06-06T15:40:47Z</time>
      </trkpt>
      <trkpt lat="59.9555858" lon="17.7144251">
        <ele>44.358</ele>
        <time>2014-06-06T15:40:48Z</time>
      </trkpt>
      <trkpt lat="59.9556111" lon="17.714508">
        <ele>44.358</ele>
        <time>2014-06-06T15:40:49Z</time>
      </trkpt>
      <trkpt lat="59.9556355" lon="17.714593">
        <ele>43.8773</ele>
        <time>2014-06-06T15:40:50Z</time>
      </trkpt>
      <trkpt lat="59.9556607" lon="17.7146815">
        <ele>43.8773</ele>
        <time>2014-06-06T15:40:51Z</time>
      </trkpt>
      <trkpt lat="59.95569" lon="17.7147673">
        <ele>43.3966</ele>
        <time>2014-06-06T15:40:52Z</time>
      </trkpt>
      <trkpt lat="59.9557216" lon="17.7148462">
        <ele>43.3966</ele>
        <time>2014-06-06T15:40:53Z</time>
      </trkpt>
      <trkpt lat="59.9557526" lon="17.7149219">
        <ele>43.3966</ele>
        <time>2014-06-06T15:40:54Z</time>
      </trkpt>
      <trkpt lat="59.9557847" lon="17.7149923">
        <ele>43.3966</ele>
        <time>2014-06-06T15:40:55Z</time>
      </trkpt>
      <trkpt lat="59.9558184" lon="17.7150684">
        <ele>43.3966</ele>
        <time>2014-06-06T15:40:56Z</time>
      </trkpt>
      <trkpt lat="59.955853" lon="17.7151518">
        <ele>43.3966</ele>
        <time>2014-06-06T15:40:57Z</time>
      </trkpt>
      <trkpt lat="59.9558862" lon="17.7152364">
        <ele>43.3966</ele>
        <time>2014-06-06T15:40:58Z</time>
      </trkpt>
      <trkpt lat="59.95592" lon="17.715316">
        <ele>43.3966</ele>
        <time>2014-06-06T15:40:59Z</time>
      </trkpt>
      <trkpt lat="59.9559541" lon="17.7153885">
        <ele>43.3966</ele>
        <time>2014-06-06T15:41:00Z</time>
      </trkpt>
      <trkpt lat="59.9559868" lon="17.7154586">
        <ele>42.916</ele>
        <time>2014-06-06T15:41:01Z</time>
      </trkpt>
      <trkpt lat="59.9560172" lon="17.7155295">
        <ele>42.916</ele>
        <time>2014-06-06T15:41:02Z</time>
      </trkpt>
      <trkpt lat="59.956046" lon="17.7155976">
        <ele>42.4354</ele>
        <time>2014-06-06T15:41:03Z</time>
      </trkpt>
      <trkpt lat="59.956075" lon="17.7156688">
        <ele>42.4354</ele>
        <time>2014-06-06T15:41:04Z</time>
      </trkpt>
      <trkpt lat="59.9561057" lon="17.7157406">
        <ele>42.4354</ele>
        <time>2014-06-06T15:41:05Z</time>
      </trkpt>
      <trkpt lat="59.9561346" lon="17.7158149">
        <ele>41.9547</ele>
        <time>2014-06-06T15:41:06Z</time>
      </trkpt>
      <trkpt lat="59.9561629" lon="17.7158934">
        <ele>41.9547</ele>
        <time>2014-06-06T15:41:07Z</time>
      </trkpt>
      <trkpt lat="59.9561906" lon="17.7159742">
        <ele>41.9547</ele>
        <time>2014-06-06T15:41:08Z</time>
      </trkpt>
      <trkpt lat="59.9562176" lon="17.71605">
        <ele>41.9547</ele>
        <time>2014-06-06T15:41:09Z</time>
      </trkpt>
      <trkpt lat="59.9562457" lon="17.7161136">
        <ele>41.9547</ele>
        <time>2014-06-06T15:41:10Z</time>
      </trkpt>
      <trkpt lat="59.9562699" lon="17.7161773">
        <ele>42.4354</ele>
        <time>2014-06-06T15:41:11Z</time>
      </trkpt>
      <trkpt lat="59.9562933" lon="17.7162407">
        <ele>42.916</ele>
        <time>2014-06-06T15:41:12Z</time>
      </trkpt>
      <trkpt lat="59.9563167" lon="17.7162966">
        <ele>43.3966</ele>
        <time>2014-06-06T15:41:13Z</time>
      </trkpt>
      <trkpt lat="59.9563395" lon="17.71635">
        <ele>43.3966</ele>
        <time>2014-06-06T15:41:14Z</time>
      </trkpt>
      <trkpt lat="59.9563641" lon="17.7164059">
        <ele>43.3966</ele>
        <time>2014-06-06T15:41:15Z</time>
      </trkpt>
      <trkpt lat="59.9563929" lon="17.7164562">
        <ele>43.3966</ele>
        <time>2014-06-06T15:41:16Z</time>
      </trkpt>
      <trkpt lat="59.9564223" lon="17.7165071">
        <ele>43.8773</ele>
        <time>2014-06-06T15:41:17Z</time>
      </trkpt>
      <trkpt lat="59.9564503" lon="17.7165594">
        <ele>43.8773</ele>
        <time>2014-06-06T15:41:18Z</time>
      </trkpt>
      <trkpt lat="59.9564714" lon="17.7166002">
        <ele>44.358</ele>
        <time>2014-06-06T15:41:19Z</time>
      </trkpt>
      <trkpt lat="59.9564949" lon="17.7166304">
        <ele>44.358</ele>
        <time>2014-06-06T15:41:20Z</time>
      </trkpt>
      <trkpt lat="59.9565265" lon="17.7166288">
        <ele>44.358</ele>
        <time>2014-06-06T15:41:21Z</time>
      </trkpt>
      <trkpt lat="59.9565616" lon="17.7166254">
        <ele>44.8386</ele>
        <time>2014-06-06T15:41:22Z</time>
      </trkpt>
      <trkpt lat="59.9565932" lon="17.7166199">
        <ele>44.8386</ele>
        <time>2014-06-06T15:41:23Z</time>
      </trkpt>
      <trkpt lat="59.956629" lon="17.7166105">
        <ele>45.3192</ele>
        <time>2014-06-06T15:41:24Z</time>
      </trkpt>
      <trkpt lat="59.9566569" lon="17.7165986">
        <ele>45.3192</ele>
        <time>2014-06-06T15:41:25Z</time>
      </trkpt>
      <trkpt lat="59.9566845" lon="17.7165799">
        <ele>44.8386</ele>
        <time>2014-06-06T15:41:26Z</time>
      </trkpt>
      <trkpt lat="59.9567107" lon="17.7165501">
        <ele>44.8386</ele>
        <time>2014-06-06T15:41:27Z</time>
      </trkpt>
      <trkpt lat="59.9567365" lon="17.7165047">
        <ele>44.358</ele>
        <time>2014-06-06T15:41:28Z</time>
      </trkpt>
      <trkpt lat="59.9567709" lon="17.7164576">
        <ele>44.358</ele>
        <time>2014-06-06T15:41:29Z</time>
      </trkpt>
      <trkpt lat="59.9568114" lon="17.7164075">
        <ele>44.8386</ele>
        <time>2014-06-06T15:41:30Z</time>
      </trkpt>
      <trkpt lat="59.9568563" lon="17.7163724">
        <ele>45.3192</ele>
        <time>2014-06-06T15:41:31Z</time>
      </trkpt>
      <trkpt lat="59.9568937" lon="17.7163374">
        <ele>45.3192</ele>
        <time>2014-06-06T15:41:32Z</time>
      </trkpt>
      <trkpt lat="59.9569249" lon="17.7162864">
        <ele>44.8386</ele>
        <time>2014-06-06T15:41:33Z</time>
      </trkpt>
      <trkpt lat="59.9569584" lon="17.7162182">
        <ele>44.358</ele>
        <time>2014-06-06T15:41:34Z</time>
      </trkpt>
      <trkpt lat="59.9569937" lon="17.7161423">
        <ele>44.358</ele>
        <time>2014-06-06T15:41:35Z</time>
      </trkpt>
      <trkpt lat="59.9570305" lon="17.7160667">
        <ele>43.8773</ele>
        <time>2014-06-06T15:41:36Z</time>
      </trkpt>
      <trkpt lat="59.9570679" lon="17.7159967">
        <ele>42.916</ele>
        <time>2014-06-06T15:41:37Z</time>
      </trkpt>
      <trkpt lat="59.9571149" lon="17.7159028">
        <ele>42.916</ele>
        <time>2014-06-06T15:41:38Z</time>
      </trkpt>
      <trkpt lat="59.9571615" lon="17.7158235">
        <ele>41.9547</ele>
        <time>2014-06-06T15:41:39Z</time>
      </trkpt>
      <trkpt lat="59.9572076" lon="17.7157461">
        <ele>41.9547</ele>
        <time>2014-06-06T15:41:40Z</time>
      </trkpt>
      <trkpt lat="59.9572486" lon="17.7156678">
        <ele>40.9934</ele>
        <time>2014-06-06T15:41:41Z</time>
      </trkpt>
      <trkpt lat="59.9572939" lon="17.7155875">
        <ele>40.9934</ele>
        <time>2014-06-06T15:41:42Z</time>
      </trkpt>
      <trkpt lat="59.9573366" lon="17.7155083">
        <ele>40.5128</ele>
        <time>2014-06-06T15:41:43Z</time>
      </trkpt>
      <trkpt lat="59.9573822" lon="17.7154305">
        <ele>40.5128</ele>
        <time>2014-06-06T15:41:44Z</time>
      </trkpt>
      <trkpt lat="59.957424" lon="17.7153477">
        <ele>40.0321</ele>
        <time>2014-06-06T15:41:45Z</time>
      </trkpt>
      <trkpt lat="59.9574647" lon="17.7152641">
        <ele>40.0321</ele>
        <time>2014-06-06T15:41:46Z</time>
      </trkpt>
      <trkpt lat="59.9575054" lon="17.715182">
        <ele>39.5513</ele>
        <time>2014-06-06T15:41:47Z</time>
      </trkpt>
      <trkpt lat="59.9575448" lon="17.7151082">
        <ele>39.5513</ele>
        <time>2014-06-06T15:41:48Z</time>
      </trkpt>
      <trkpt lat="59.9575837" lon="17.7150353">
        <ele>39.0707</ele>
        <time>2014-06-06T15:41:49Z</time>
      </trkpt>
      <trkpt lat="59.9576205" lon="17.7149592">
        <ele>39.0707</ele>
        <time>2014-06-06T15:41:50Z</time>
      </trkpt>
      <trkpt lat="59.9576594" lon="17.7148803">
        <ele>39.0707</ele>
        <time>2014-06-06T15:41:51Z</time>
      </trkpt>
      <trkpt lat="59.9576991" lon="17.7148033">
        <ele>39.5513</ele>
        <time>2014-06-06T15:41:52Z</time>
      </trkpt>
      <trkpt lat="59.9577402" lon="17.7147178">
        <ele>40.0321</ele>
        <time>2014-06-06T15:41:53Z</time>
      </trkpt>
      <trkpt lat="59.9577829" lon="17.714645">
        <ele>40.5128</ele>
        <time>2014-06-06T15:41:54Z</time>
      </trkpt>
      <trkpt lat="59.9578209" lon="17.7145773">
        <ele>40.5128</ele>
        <time>2014-06-06T15:41:55Z</time>
      </trkpt>
      <trkpt lat="59.9578562" lon="17.7145186">
        <ele>40.0321</ele>
        <time>2014-06-06T15:41:56Z</time>
      </trkpt>
      <trkpt lat="59.9578919" lon="17.714457">
        <ele>40.0321</ele>
        <time>2014-06-06T15:41:57Z</time>
      </trkpt>
      <trkpt lat="59.9579256" lon="17.714394">
        <ele>39.5513</ele>
        <time>2014-06-06T15:41:58Z</time>
      </trkpt>
      <trkpt lat="59.9579571" lon="17.7143293">
        <ele>39.5513</ele>
        <time>2014-06-06T15:41:59Z</time>
      </trkpt>
      <trkpt lat="59.9579887" lon="17.7142672">
        <ele>39.0707</ele>
        <time>2014-06-06T15:42:00Z</time>
      </trkpt>
      <trkpt lat="59.9580189" lon="17.7142056">
        <ele>38.5901</ele>
        <time>2014-06-06T15:42:01Z</time>
      </trkpt>
      <trkpt lat="59.9580539" lon="17.7141465">
        <ele>38.5901</ele>
        <time>2014-06-06T15:42:02Z</time>
      </trkpt>
      <trkpt lat="59.9580924" lon="17.7140894">
        <ele>39.0707</ele>
        <time>2014-06-06T15:42:03Z</time>
      </trkpt>
      <trkpt lat="59.9581286" lon="17.7140525">
        <ele>38.5901</ele>
        <time>2014-06-06T15:42:04Z</time>
      </trkpt>
      <trkpt lat="59.9581695" lon="17.7140331">
        <ele>38.5901</ele>
        <time>2014-06-06T15:42:05Z</time>
      </trkpt>
      <trkpt lat="59.9582065" lon="17.7140309">
        <ele>38.1094</ele>
        <time>2014-06-06T15:42:06Z</time>
      </trkpt>
      <trkpt lat="59.9582474" lon="17.7140531">
        <ele>38.1094</ele>
        <time>2014-06-06T15:42:07Z</time>
      </trkpt>
      <trkpt lat="59.958287" lon="17.7140944">
        <ele>38.5901</ele>
        <time>2014-06-06T15:42:08Z</time>
      </trkpt>
      <trkpt lat="59.9583234" lon="17.7141391">
        <ele>38.5901</ele>
        <time>2014-06-06T15:42:09Z</time>
      </trkpt>
      <trkpt lat="59.9583622" lon="17.7141815">
        <ele>38.5901</ele>
        <time>2014-06-06T15:42:10Z</time>
      </trkpt>
      <trkpt lat="59.9584021" lon="17.7142193">
        <ele>39.0707</ele>
        <time>2014-06-06T15:42:11Z</time>
      </trkpt>
      <trkpt lat="59.9584426" lon="17.714251">
        <ele>39.5513</ele>
        <time>2014-06-06T15:42:12Z</time>
      </trkpt>
      <trkpt lat="59.9584824" lon="17.7142825">
        <ele>39.5513</ele>
        <time>2014-06-06T15:42:13Z</time>
      </trkpt>
      <trkpt lat="59.9585237" lon="17.7143126">
        <ele>40.5128</ele>
        <time>2014-06-06T15:42:14Z</time>
      </trkpt>
      <trkpt lat="59.9585668" lon="17.7143443">
        <ele>40.9934</ele>
        <time>2014-06-06T15:42:15Z</time>
      </trkpt>
      <trkpt lat="59.958613" lon="17.7143829">
        <ele>41.9547</ele>
        <time>2014-06-06T15:42:16Z</time>
      </trkpt>
      <trkpt lat="59.958658" lon="17.7144238">
        <ele>42.4354</ele>
        <time>2014-06-06T15:42:17Z</time>
      </trkpt>
      <trkpt lat="59.958701" lon="17.7144645">
        <ele>42.4354</ele>
        <time>2014-06-06T15:42:18Z</time>
      </trkpt>
      <trkpt lat="59.9587444" lon="17.7145075">
        <ele>42.916</ele>
        <time>2014-06-06T15:42:19Z</time>
      </trkpt>
      <trkpt lat="59.9587886" lon="17.7145537">
        <ele>43.3966</ele>
        <time>2014-06-06T15:42:20Z</time>
      </trkpt>
      <trkpt lat="59.9588332" lon="17.7146041">
        <ele>43.8773</ele>
        <time>2014-06-06T15:42:21Z</time>
      </trkpt>
      <trkpt lat="59.9588773" lon="17.714653">
        <ele>43.8773</ele>
        <time>2014-06-06T15:42:22Z</time>
      </trkpt>
      <trkpt lat="59.9589222" lon="17.7146961">
        <ele>44.358</ele>
        <time>2014-06-06T15:42:23Z</time>
      </trkpt>
      <trkpt lat="59.9589695" lon="17.7147347">
        <ele>44.358</ele>
        <time>2014-06-06T15:42:24Z</time>
      </trkpt>
      <trkpt lat="59.9590211" lon="17.7147685">
        <ele>44.358</ele>
        <time>2014-06-06T15:42:25Z</time>
      </trkpt>
      <trkpt lat="59.95907" lon="17.7148079">
        <ele>43.8773</ele>
        <time>2014-06-06T15:42:26Z</time>
      </trkpt>
      <trkpt lat="59.9591195" lon="17.714857">
        <ele>44.358</ele>
        <time>2014-06-06T15:42:27Z</time>
      </trkpt>
      <trkpt lat="59.9591698" lon="17.7149082">
        <ele>43.8773</ele>
        <time>2014-06-06T15:42:28Z</time>
      </trkpt>
      <trkpt lat="59.9592201" lon="17.7149691">
        <ele>44.358</ele>
        <time>2014-06-06T15:42:29Z</time>
      </trkpt>
      <trkpt lat="59.9592672" lon="17.7150284">
        <ele>43.8773</ele>
        <time>2014-06-06T15:42:30Z</time>
      </trkpt>
      <trkpt lat="59.9593113" lon="17.7150921">
        <ele>43.8773</ele>
        <time>2014-06-06T15:42:31Z</time>
      </trkpt>
      <trkpt lat="59.9593531" lon="17.715156">
        <ele>43.8773</ele>
        <time>2014-06-06T15:42:32Z</time>
      </trkpt>
      <trkpt lat="59.9593932" lon="17.7152182">
        <ele>43.8773</ele>
        <time>2014-06-06T15:42:33Z</time>
      </trkpt>
      <trkpt lat="59.9594386" lon="17.7152698">
        <ele>44.358</ele>
        <time>2014-06-06T15:42:34Z</time>
      </trkpt>
      <trkpt lat="59.9594796" lon="17.7153217">
        <ele>44.358</ele>
        <time>2014-06-06T15:42:35Z</time>
      </trkpt>
      <trkpt lat="59.9595189" lon="17.7153776">
        <ele>44.358</ele>
        <time>2014-06-06T15:42:36Z</time>
      </trkpt>
      <trkpt lat="59.9595568" lon="17.7154368">
        <ele>44.358</ele>
        <time>2014-06-06T15:42:37Z</time>
      </trkpt>
      <trkpt lat="59.9595923" lon="17.7154969">
        <ele>44.358</ele>
        <time>2014-06-06T15:42:38Z</time>
      </trkpt>
      <trkpt lat="59.9596278" lon="17.7155578">
        <ele>44.358</ele>
        <time>2014-06-06T15:42:39Z</time>
      </trkpt>
      <trkpt lat="59.9596657" lon="17.7156212">
        <ele>44.358</ele>
        <time>2014-06-06T15:42:40Z</time>
      </trkpt>
      <trkpt lat="59.9597066" lon="17.7156895">
        <ele>44.8386</ele>
        <time>2014-06-06T15:42:41Z</time>
      </trkpt>
      <trkpt lat="59.9597509" lon="17.7157598">
        <ele>45.3192</ele>
        <time>2014-06-06T15:42:42Z</time>
      </trkpt>
      <trkpt lat="59.9597944" lon="17.7158305">
        <ele>45.3192</ele>
        <time>2014-06-06T15:42:43Z</time>
      </trkpt>
      <trkpt lat="59.959835" lon="17.7159053">
        <ele>45.3192</ele>
        <time>2014-06-06T15:42:44Z</time>
      </trkpt>
      <trkpt lat="59.9598744" lon="17.7159867">
        <ele>45.7999</ele>
        <time>2014-06-06T15:42:45Z</time>
      </trkpt>
      <trkpt lat="59.9599111" lon="17.7160702">
        <ele>45.7999</ele>
        <time>2014-06-06T15:42:46Z</time>
      </trkpt>
      <trkpt lat="59.9599454" lon="17.716153">
        <ele>45.7999</ele>
        <time>2014-06-06T15:42:47Z</time>
      </trkpt>
      <trkpt lat="59.9599816" lon="17.7162298">
        <ele>45.7999</ele>
        <time>2014-06-06T15:42:48Z</time>
      </trkpt>
      <trkpt lat="59.9600226" lon="17.7162975">
        <ele>45.3192</ele>
        <time>2014-06-06T15:42:49Z</time>
      </trkpt>
      <trkpt lat="59.9600659" lon="17.7163574">
        <ele>45.3192</ele>
        <time>2014-06-06T15:42:50Z</time>
      </trkpt>
      <trkpt lat="59.9601085" lon="17.7164198">
        <ele>45.3192</ele>
        <time>2014-06-06T15:42:51Z</time>
      </trkpt>
      <trkpt lat="59.96015" lon="17.7164862">
        <ele>45.7999</ele>
        <time>2014-06-06T15:42:52Z</time>
      </trkpt>
      <trkpt lat="59.9601893" lon="17.716557">
        <ele>45.7999</ele>
        <time>2014-06-06T15:42:53Z</time>
      </trkpt>
      <trkpt lat="59.9602246" lon="17.7166348">
        <ele>45.3192</ele>
        <time>2014-06-06T15:42:54Z</time>
      </trkpt>
      <trkpt lat="59.9602557" lon="17.7167178">
        <ele>45.3192</ele>
        <time>2014-06-06T15:42:55Z</time>
      </trkpt>
      <trkpt lat="59.9602862" lon="17.7167987">
        <ele>45.3192</ele>
        <time>2014-06-06T15:42:56Z</time>
      </trkpt>
      <trkpt lat="59.9603167" lon="17.7168737">
        <ele>45.3192</ele>
        <time>2014-06-06T15:42:57Z</time>
      </trkpt>
      <trkpt lat="59.9603431" lon="17.7169488">
        <ele>45.3192</ele>
        <time>2014-06-06T15:42:58Z</time>
      </trkpt>
      <trkpt lat="59.9603634" lon="17.7170269">
        <ele>45.3192</ele>
        <time>2014-06-06T15:42:59Z</time>
      </trkpt>
      <trkpt lat="59.960375" lon="17.7171094">
        <ele>45.7999</ele>
        <time>2014-06-06T15:43:00Z</time>
      </trkpt>
      <trkpt lat="59.9603785" lon="17.7171924">
        <ele>45.7999</ele>
        <time>2014-06-06T15:43:01Z</time>
      </trkpt>
      <trkpt lat="59.9603819" lon="17.7172716">
        <ele>45.3192</ele>
        <time>2014-06-06T15:43:02Z</time>
      </trkpt>
      <trkpt lat="59.9603903" lon="17.7173481">
        <ele>45.3192</ele>
        <time>2014-06-06T15:43:03Z</time>
      </trkpt>
      <trkpt lat="59.9604011" lon="17.7174244">
        <ele>44.8386</ele>
        <time>2014-06-06T15:43:04Z</time>
      </trkpt>
      <trkpt lat="59.9604099" lon="17.7175024">
        <ele>44.8386</ele>
        <time>2014-06-06T15:43:05Z</time>
      </trkpt>
      <trkpt lat="59.960411" lon="17.7175811">
        <ele>44.358</ele>
        <time>2014-06-06T15:43:06Z</time>
      </trkpt>
      <trkpt lat="59.9604044" lon="17.7176602">
        <ele>43.8773</ele>
        <time>2014-06-06T15:43:07Z</time>
      </trkpt>
      <trkpt lat="59.9603939" lon="17.7177373">
        <ele>43.3966</ele>
        <time>2014-06-06T15:43:08Z</time>
      </trkpt>
      <trkpt lat="59.9603861" lon="17.7178154">
        <ele>43.3966</ele>
        <time>2014-06-06T15:43:09Z</time>
      </trkpt>
      <trkpt lat="59.9603933" lon="17.717887">
        <ele>43.3966</ele>
        <time>2014-06-06T15:43:10Z</time>
      </trkpt>
      <trkpt lat="59.9604165" lon="17.7179544">
        <ele>44.358</ele>
        <time>2014-06-06T15:43:11Z</time>
      </trkpt>
      <trkpt lat="59.9604519" lon="17.7180087">
        <ele>44.8386</ele>
        <time>2014-06-06T15:43:12Z</time>
      </trkpt>
      <trkpt lat="59.9604898" lon="17.7180568">
        <ele>45.3192</ele>
        <time>2014-06-06T15:43:13Z</time>
      </trkpt>
      <trkpt lat="59.9605273" lon="17.718105">
        <ele>45.7999</ele>
        <time>2014-06-06T15:43:14Z</time>
      </trkpt>
      <trkpt lat="59.9605665" lon="17.7181608">
        <ele>46.2806</ele>
        <time>2014-06-06T15:43:15Z</time>
      </trkpt>
      <trkpt lat="59.9606069" lon="17.7182215">
        <ele>46.2806</ele>
        <time>2014-06-06T15:43:16Z</time>
      </trkpt>
      <trkpt lat="59.9606519" lon="17.7182765">
        <ele>46.2806</ele>
        <time>2014-06-06T15:43:17Z</time>
      </trkpt>
      <trkpt lat="59.9606975" lon="17.7183186">
        <ele>46.2806</ele>
        <time>2014-06-06T15:43:18Z</time>
      </trkpt>
      <trkpt lat="59.9607424" lon="17.7183532">
        <ele>46.7612</ele>
        <time>2014-06-06T15:43:19Z</time>
      </trkpt>
      <trkpt lat="59.9607865" lon="17.7183889">
        <ele>46.7612</ele>
        <time>2014-06-06T15:43:20Z</time>
      </trkpt>
      <trkpt lat="59.9608289" lon="17.7184303">
        <ele>46.7612</ele>
        <time>2014-06-06T15:43:21Z</time>
      </trkpt>
      <trkpt lat="59.9608698" lon="17.7184764">
        <ele>46.7612</ele>
        <time>2014-06-06T15:43:22Z</time>
      </trkpt>
      <trkpt lat="59.9609113" lon="17.71852">
        <ele>46.7612</ele>
        <time>2014-06-06T15:43:23Z</time>
      </trkpt>
      <trkpt lat="59.9609548" lon="17.7185562">
        <ele>46.7612</ele>
        <time>2014-06-06T15:43:24Z</time>
      </trkpt>
      <trkpt lat="59.9609994" lon="17.7185936">
        <ele>46.7612</ele>
        <time>2014-06-06T15:43:25Z</time>
      </trkpt>
      <trkpt lat="59.9610434" lon="17.718636">
        <ele>46.7612</ele>
        <time>2014-06-06T15:43:26Z</time>
      </trkpt>
      <trkpt lat="59.9610848" lon="17.7186799">
        <ele>46.7612</ele>
        <time>2014-06-06T15:43:27Z</time>
      </trkpt>
      <trkpt lat="59.9611211" lon="17.718721">
        <ele>46.7612</ele>
        <time>2014-06-06T15:43:28Z</time>
      </trkpt>
      <trkpt lat="59.9611512" lon="17.7187615">
        <ele>46.7612</ele>
        <time>2014-06-06T15:43:29Z</time>
      </trkpt>
      <trkpt lat="59.9611786" lon="17.7187935">
        <ele>46.7612</ele>
        <time>2014-06-06T15:43:30Z</time>
      </trkpt>
      <trkpt lat="59.9612078" lon="17.7188205">
        <ele>46.7612</ele>
        <time>2014-06-06T15:43:31Z</time>
      </trkpt>
      <trkpt lat="59.9612377" lon="17.7188572">
        <ele>46.2806</ele>
        <time>2014-06-06T15:43:32Z</time>
      </trkpt>
      <trkpt lat="59.9612668" lon="17.7189002">
        <ele>46.2806</ele>
        <time>2014-06-06T15:43:33Z</time>
      </trkpt>
      <trkpt lat="59.9613004" lon="17.7189379">
        <ele>46.2806</ele>
        <time>2014-06-06T15:43:34Z</time>
      </trkpt>
      <trkpt lat="59.9613361" lon="17.7189706">
        <ele>45.7999</ele>
        <time>2014-06-06T15:43:35Z</time>
      </trkpt>
      <trkpt lat="59.9613717" lon="17.719">
        <ele>45.7999</ele>
        <time>2014-06-06T15:43:36Z</time>
      </trkpt>
      <trkpt lat="59.9614065" lon="17.7190095">
        <ele>45.7999</ele>
        <time>2014-06-06T15:43:37Z</time>
      </trkpt>
      <trkpt lat="59.9614365" lon="17.7190105">
        <ele>45.3192</ele>
        <time>2014-06-06T15:43:38Z</time>
      </trkpt>
      <trkpt lat="59.9614683" lon="17.7190134">
        <ele>45.7999</ele>
        <time>2014-06-06T15:43:39Z</time>
      </trkpt>
      <trkpt lat="59.9615031" lon="17.7190214">
        <ele>46.2806</ele>
        <time>2014-06-06T15:43:40Z</time>
      </trkpt>
      <trkpt lat="59.961537" lon="17.719024">
        <ele>46.7612</ele>
        <time>2014-06-06T15:43:41Z</time>
      </trkpt>
      <trkpt lat="59.961574" lon="17.7190316">
        <ele>47.2418</ele>
        <time>2014-06-06T15:43:42Z</time>
      </trkpt>
      <trkpt lat="59.9616014" lon="17.7190525">
        <ele>47.2418</ele>
        <time>2014-06-06T15:43:43Z</time>
      </trkpt>
      <trkpt lat="59.9616278" lon="17.7190764">
        <ele>46.7612</ele>
        <time>2014-06-06T15:43:44Z</time>
      </trkpt>
      <trkpt lat="59.9616582" lon="17.7190927">
        <ele>47.2418</ele>
        <time>2014-06-06T15:43:45Z</time>
      </trkpt>
      <trkpt lat="59.9616838" lon="17.7190928">
        <ele>47.7225</ele>
        <time>2014-06-06T15:43:46Z</time>
      </trkpt>
      <trkpt lat="59.9617066" lon="17.7190784">
        <ele>47.7225</ele>
        <time>2014-06-06T15:43:47Z</time>
      </trkpt>
      <trkpt lat="59.9617354" lon="17.7190632">
        <ele>48.684</ele>
        <time>2014-06-06T15:43:48Z</time>
      </trkpt>
      <trkpt lat="59.9617587" lon="17.7190514">
        <ele>48.684</ele>
        <time>2014-06-06T15:43:49Z</time>
      </trkpt>
      <trkpt lat="59.9617759" lon="17.7190295">
        <ele>47.7225</ele>
        <time>2014-06-06T15:43:50Z</time>
      </trkpt>
      <trkpt lat="59.9617918" lon="17.7190088">
        <ele>47.7225</ele>
        <time>2014-06-06T15:43:51Z</time>
      </trkpt>
      <trkpt lat="59.9618029" lon="17.7189647">
        <ele>47.2418</ele>
        <time>2014-06-06T15:43:52Z</time>
      </trkpt>
      <trkpt lat="59.9618204" lon="17.7189188">
        <ele>47.2418</ele>
        <time>2014-06-06T15:43:53Z</time>
      </trkpt>
      <trkpt lat="59.9618426" lon="17.7188639">
        <ele>47.7225</ele>
        <time>2014-06-06T15:43:54Z</time>
      </trkpt>
      <trkpt lat="59.9618628" lon="17.7188084">
        <ele>48.2034</ele>
        <time>2014-06-06T15:43:55Z</time>
      </trkpt>
      <trkpt lat="59.9618833" lon="17.7187518">
        <ele>49.1646</ele>
        <time>2014-06-06T15:43:56Z</time>
      </trkpt>
      <trkpt lat="59.9619047" lon="17.7187057">
        <ele>50.126</ele>
        <time>2014-06-06T15:43:57Z</time>
      </trkpt>
      <trkpt lat="59.9619346" lon="17.7186702">
        <ele>51.5679</ele>
        <time>2014-06-06T15:43:58Z</time>
      </trkpt>
      <trkpt lat="59.9619651" lon="17.7186335">
        <ele>52.5292</ele>
        <time>2014-06-06T15:43:59Z</time>
      </trkpt>
      <trkpt lat="59.9619888" lon="17.7186194">
        <ele>53.0098</ele>
        <time>2014-06-06T15:44:00Z</time>
      </trkpt>
      <trkpt lat="59.96201" lon="17.7186273">
        <ele>52.5292</ele>
        <time>2014-06-06T15:44:01Z</time>
      </trkpt>
      <trkpt lat="59.9620316" lon="17.7186458">
        <ele>52.5292</ele>
        <time>2014-06-06T15:44:02Z</time>
      </trkpt>
      <trkpt lat="59.9620546" lon="17.7186505">
        <ele>53.0098</ele>
        <time>2014-06-06T15:44:03Z</time>
      </trkpt>
      <trkpt lat="59.9620712" lon="17.7186526">
        <ele>52.5292</ele>
        <time>2014-06-06T15:44:04Z</time>
      </trkpt>
      <trkpt lat="59.9620846" lon="17.7186571">
        <ele>52.5292</ele>
        <time>2014-06-06T15:44:05Z</time>
      </trkpt>
      <trkpt lat="59.9620966" lon="17.7186546">
        <ele>52.0486</ele>
        <time>2014-06-06T15:44:06Z</time>
      </trkpt>
      <trkpt lat="59.9621119" lon="17.718652">
        <ele>51.5679</ele>
        <time>2014-06-06T15:44:07Z</time>
      </trkpt>
      <trkpt lat="59.962129" lon="17.7186596">
        <ele>51.5679</ele>
        <time>2014-06-06T15:44:08Z</time>
      </trkpt>
      <trkpt lat="59.9621473" lon="17.7186552">
        <ele>51.0872</ele>
        <time>2014-06-06T15:44:09Z</time>
      </trkpt>
      <trkpt lat="59.9621654" lon="17.7186365">
        <ele>51.5679</ele>
        <time>2014-06-06T15:44:10Z</time>
      </trkpt>
      <trkpt lat="59.9621786" lon="17.7186277">
        <ele>51.5679</ele>
        <time>2014-06-06T15:44:11Z</time>
      </trkpt>
      <trkpt lat="59.9621957" lon="17.718633">
        <ele>51.0872</ele>
        <time>2014-06-06T15:44:12Z</time>
      </trkpt>
      <trkpt lat="59.9622239" lon="17.7186475">
        <ele>51.5679</ele>
        <time>2014-06-06T15:44:13Z</time>
      </trkpt>
      <trkpt lat="59.9622534" lon="17.7186478">
        <ele>51.5679</ele>
        <time>2014-06-06T15:44:14Z</time>
      </trkpt>
      <trkpt lat="59.9622841" lon="17.7186482">
        <ele>51.5679</ele>
        <time>2014-06-06T15:44:15Z</time>
      </trkpt>
      <trkpt lat="59.9623178" lon="17.7186467">
        <ele>52.0486</ele>
        <time>2014-06-06T15:44:16Z</time>
      </trkpt>
      <trkpt lat="59.9623516" lon="17.7186459">
        <ele>52.5292</ele>
        <time>2014-06-06T15:44:17Z</time>
      </trkpt>
      <trkpt lat="59.9623866" lon="17.71865">
        <ele>53.0098</ele>
        <time>2014-06-06T15:44:18Z</time>
      </trkpt>
      <trkpt lat="59.9624224" lon="17.7186603">
        <ele>53.0098</ele>
        <time>2014-06-06T15:44:19Z</time>
      </trkpt>
      <trkpt lat="59.9624564" lon="17.7186788">
        <ele>52.5292</ele>
        <time>2014-06-06T15:44:20Z</time>
      </trkpt>
      <trkpt lat="59.9624914" lon="17.7186981">
        <ele>53.4905</ele>
        <time>2014-06-06T15:44:21Z</time>
      </trkpt>
      <trkpt lat="59.9625255" lon="17.7187128">
        <ele>53.9712</ele>
        <time>2014-06-06T15:44:22Z</time>
      </trkpt>
      <trkpt lat="59.9625619" lon="17.7187245">
        <ele>54.9324</ele>
        <time>2014-06-06T15:44:23Z</time>
      </trkpt>
      <trkpt lat="59.9625917" lon="17.7187376">
        <ele>54.9324</ele>
        <time>2014-06-06T15:44:24Z</time>
      </trkpt>
      <trkpt lat="59.9626208" lon="17.7187528">
        <ele>54.9324</ele>
        <time>2014-06-06T15:44:25Z</time>
      </trkpt>
      <trkpt lat="59.9626452" lon="17.7187685">
        <ele>54.9324</ele>
        <time>2014-06-06T15:44:26Z</time>
      </trkpt>
      <trkpt lat="59.9626638" lon="17.718785">
        <ele>54.4518</ele>
        <time>2014-06-06T15:44:27Z</time>
      </trkpt>
      <trkpt lat="59.9626809" lon="17.7187914">
        <ele>53.9712</ele>
        <time>2014-06-06T15:44:28Z</time>
      </trkpt>
      <trkpt lat="59.9626995" lon="17.7187888">
        <ele>53.9712</ele>
        <time>2014-06-06T15:44:29Z</time>
      </trkpt>
      <trkpt lat="59.9627151" lon="17.7187832">
        <ele>53.4905</ele>
        <time>2014-06-06T15:44:30Z</time>
      </trkpt>
      <trkpt lat="59.9627405" lon="17.7187748">
        <ele>53.0098</ele>
        <time>2014-06-06T15:44:31Z</time>
      </trkpt>
      <trkpt lat="59.9627709" lon="17.718763">
        <ele>53.0098</ele>
        <time>2014-06-06T15:44:32Z</time>
      </trkpt>
      <trkpt lat="59.9628028" lon="17.7187397">
        <ele>53.0098</ele>
        <time>2014-06-06T15:44:33Z</time>
      </trkpt>
      <trkpt lat="59.9628276" lon="17.7187097">
        <ele>53.0098</ele>
        <time>2014-06-06T15:44:34Z</time>
      </trkpt>
      <trkpt lat="59.962852" lon="17.7186599">
        <ele>53.4905</ele>
        <time>2014-06-06T15:44:35Z</time>
      </trkpt>
      <trkpt lat="59.9628713" lon="17.7186013">
        <ele>54.4518</ele>
        <time>2014-06-06T15:44:36Z</time>
      </trkpt>
      <trkpt lat="59.9628876" lon="17.7185396">
        <ele>54.9324</ele>
        <time>2014-06-06T15:44:37Z</time>
      </trkpt>
      <trkpt lat="59.962909" lon="17.7184768">
        <ele>55.4131</ele>
        <time>2014-06-06T15:44:38Z</time>
      </trkpt>
      <trkpt lat="59.9629357" lon="17.718441">
        <ele>55.8938</ele>
        <time>2014-06-06T15:44:39Z</time>
      </trkpt>
      <trkpt lat="59.9629576" lon="17.7184294">
        <ele>55.4131</ele>
        <time>2014-06-06T15:44:40Z</time>
      </trkpt>
      <trkpt lat="59.9629771" lon="17.7184314">
        <ele>55.4131</ele>
        <time>2014-06-06T15:44:41Z</time>
      </trkpt>
      <trkpt lat="59.9630016" lon="17.7184417">
        <ele>54.9324</ele>
        <time>2014-06-06T15:44:42Z</time>
      </trkpt>
      <trkpt lat="59.963034" lon="17.7184561">
        <ele>54.9324</ele>
        <time>2014-06-06T15:44:43Z</time>
      </trkpt>
      <trkpt lat="59.9630697" lon="17.7184722">
        <ele>54.9324</ele>
        <time>2014-06-06T15:44:44Z</time>
      </trkpt>
      <trkpt lat="59.9631104" lon="17.7184852">
        <ele>55.8938</ele>
        <time>2014-06-06T15:44:45Z</time>
      </trkpt>
      <trkpt lat="59.9631518" lon="17.7185125">
        <ele>56.3745</ele>
        <time>2014-06-06T15:44:46Z</time>
      </trkpt>
      <trkpt lat="59.9631917" lon="17.7185432">
        <ele>56.3745</ele>
        <time>2014-06-06T15:44:47Z</time>
      </trkpt>
      <trkpt lat="59.9632324" lon="17.7185628">
        <ele>56.3745</ele>
        <time>2014-06-06T15:44:48Z</time>
      </trkpt>
      <trkpt lat="59.9632715" lon="17.7185868">
        <ele>56.3745</ele>
        <time>2014-06-06T15:44:49Z</time>
      </trkpt>
      <trkpt lat="59.9633087" lon="17.7186017">
        <ele>56.3745</ele>
        <time>2014-06-06T15:44:50Z</time>
      </trkpt>
      <trkpt lat="59.9633433" lon="17.7186038">
        <ele>56.3745</ele>
        <time>2014-06-06T15:44:51Z</time>
      </trkpt>
      <trkpt lat="59.9633735" lon="17.7185966">
        <ele>56.3745</ele>
        <time>2014-06-06T15:44:52Z</time>
      </trkpt>
      <trkpt lat="59.9634064" lon="17.7185956">
        <ele>57.3358</ele>
        <time>2014-06-06T15:44:53Z</time>
      </trkpt>
      <trkpt lat="59.9634313" lon="17.7185872">
        <ele>56.8551</ele>
        <time>2014-06-06T15:44:54Z</time>
      </trkpt>
      <trkpt lat="59.9634599" lon="17.7185779">
        <ele>56.8551</ele>
        <time>2014-06-06T15:44:55Z</time>
      </trkpt>
      <trkpt lat="59.9634885" lon="17.7185738">
        <ele>56.3745</ele>
        <time>2014-06-06T15:44:56Z</time>
      </trkpt>
      <trkpt lat="59.9635211" lon="17.7185805">
        <ele>56.3745</ele>
        <time>2014-06-06T15:44:57Z</time>
      </trkpt>
      <trkpt lat="59.9635492" lon="17.718606">
        <ele>56.3745</ele>
        <time>2014-06-06T15:44:58Z</time>
      </trkpt>
      <trkpt lat="59.9635782" lon="17.7186265">
        <ele>55.8938</ele>
        <time>2014-06-06T15:44:59Z</time>
      </trkpt>
      <trkpt lat="59.9636044" lon="17.7186459">
        <ele>55.4131</ele>
        <time>2014-06-06T15:45:00Z</time>
      </trkpt>
      <trkpt lat="59.9636342" lon="17.7186606">
        <ele>55.4131</ele>
        <time>2014-06-06T15:45:01Z</time>
      </trkpt>
      <trkpt lat="59.9636662" lon="17.7186707">
        <ele>55.4131</ele>
        <time>2014-06-06T15:45:02Z</time>
      </trkpt>
      <trkpt lat="59.9636979" lon="17.7186746">
        <ele>54.4518</ele>
        <time>2014-06-06T15:45:03Z</time>
      </trkpt>
      <trkpt lat="59.9637351" lon="17.7186755">
        <ele>54.9324</ele>
        <time>2014-06-06T15:45:04Z</time>
      </trkpt>
      <trkpt lat="59.9637708" lon="17.7186819">
        <ele>55.4131</ele>
        <time>2014-06-06T15:45:05Z</time>
      </trkpt>
      <trkpt lat="59.9638146" lon="17.7186922">
        <ele>55.8938</ele>
        <time>2014-06-06T15:45:06Z</time>
      </trkpt>
      <trkpt lat="59.9638535" lon="17.7187075">
        <ele>56.3745</ele>
        <time>2014-06-06T15:45:07Z</time>
      </trkpt>
      <trkpt lat="59.9638915" lon="17.7187192">
        <ele>56.8551</ele>
        <time>2014-06-06T15:45:08Z</time>
      </trkpt>
      <trkpt lat="59.9639273" lon="17.7187302">
        <ele>56.3745</ele>
        <time>2014-06-06T15:45:09Z</time>
      </trkpt>
      <trkpt lat="59.9639633" lon="17.7187383">
        <ele>56.3745</ele>
        <time>2014-06-06T15:45:10Z</time>
      </trkpt>
      <trkpt lat="59.9639983" lon="17.7187463">
        <ele>56.8551</ele>
        <time>2014-06-06T15:45:11Z</time>
      </trkpt>
      <trkpt lat="59.9640367" lon="17.718754">
        <ele>56.8551</ele>
        <time>2014-06-06T15:45:12Z</time>
      </trkpt>
      <trkpt lat="59.9640712" lon="17.7187615">
        <ele>56.3745</ele>
        <time>2014-06-06T15:45:13Z</time>
      </trkpt>
      <trkpt lat="59.9641146" lon="17.7187689">
        <ele>57.3358</ele>
        <time>2014-06-06T15:45:14Z</time>
      </trkpt>
      <trkpt lat="59.9641619" lon="17.7187805">
        <ele>57.8165</ele>
        <time>2014-06-06T15:45:15Z</time>
      </trkpt>
      <trkpt lat="59.9642114" lon="17.718793">
        <ele>59.2584</ele>
        <time>2014-06-06T15:45:16Z</time>
      </trkpt>
      <trkpt lat="59.9642565" lon="17.7187955">
        <ele>58.7777</ele>
        <time>2014-06-06T15:45:17Z</time>
      </trkpt>
      <trkpt lat="59.9643064" lon="17.7187984">
        <ele>59.7391</ele>
        <time>2014-06-06T15:45:18Z</time>
      </trkpt>
      <trkpt lat="59.9643544" lon="17.7187996">
        <ele>60.2197</ele>
        <time>2014-06-06T15:45:19Z</time>
      </trkpt>
      <trkpt lat="59.9643951" lon="17.7187862">
        <ele>59.2584</ele>
        <time>2014-06-06T15:45:20Z</time>
      </trkpt>
      <trkpt lat="59.9644445" lon="17.718771">
        <ele>59.2584</ele>
        <time>2014-06-06T15:45:21Z</time>
      </trkpt>
      <trkpt lat="59.9644875" lon="17.7187495">
        <ele>59.2584</ele>
        <time>2014-06-06T15:45:22Z</time>
      </trkpt>
      <trkpt lat="59.9645246" lon="17.7187313">
        <ele>59.2584</ele>
        <time>2014-06-06T15:45:23Z</time>
      </trkpt>
      <trkpt lat="59.9645564" lon="17.7187156">
        <ele>57.8165</ele>
        <time>2014-06-06T15:45:24Z</time>
      </trkpt>
      <trkpt lat="59.9645825" lon="17.7187049">
        <ele>56.3745</ele>
        <time>2014-06-06T15:45:25Z</time>
      </trkpt>
      <trkpt lat="59.9646007" lon="17.7186928">
        <ele>54.4518</ele>
        <time>2014-06-06T15:45:26Z</time>
      </trkpt>
      <trkpt lat="59.9646182" lon="17.7186737">
        <ele>51.0872</ele>
        <time>2014-06-06T15:45:27Z</time>
      </trkpt>
      <trkpt lat="59.9646456" lon="17.7186581">
        <ele>48.684</ele>
        <time>2014-06-06T15:45:28Z</time>
      </trkpt>
      <trkpt lat="59.964667" lon="17.7186148">
        <ele>44.358</ele>
        <time>2014-06-06T15:45:29Z</time>
      </trkpt>
      <trkpt lat="59.9646866" lon="17.7185778">
        <ele>41.474</ele>
        <time>2014-06-06T15:45:30Z</time>
      </trkpt>
      <trkpt lat="59.9647036" lon="17.7185488">
        <ele>39.0707</ele>
        <time>2014-06-06T15:45:31Z</time>
      </trkpt>
      <trkpt lat="59.9647306" lon="17.7185215">
        <ele>37.6287</ele>
        <time>2014-06-06T15:45:32Z</time>
      </trkpt>
      <trkpt lat="59.9647576" lon="17.7184894">
        <ele>36.1868</ele>
        <time>2014-06-06T15:45:33Z</time>
      </trkpt>
      <trkpt lat="59.964787" lon="17.7184565">
        <ele>35.2255</ele>
        <time>2014-06-06T15:45:34Z</time>
      </trkpt>
      <trkpt lat="59.9648182" lon="17.718421">
        <ele>34.2642</ele>
        <time>2014-06-06T15:45:35Z</time>
      </trkpt>
      <trkpt lat="59.964847" lon="17.7183899">
        <ele>32.8223</ele>
        <time>2014-06-06T15:45:36Z</time>
      </trkpt>
      <trkpt lat="59.9648726" lon="17.7183609">
        <ele>31.8607</ele>
        <time>2014-06-06T15:45:37Z</time>
      </trkpt>
      <trkpt lat="59.9648952" lon="17.7183293">
        <ele>30.8995</ele>
        <time>2014-06-06T15:45:38Z</time>
      </trkpt>
      <trkpt lat="59.9649191" lon="17.7182987">
        <ele>29.4575</ele>
        <time>2014-06-06T15:45:39Z</time>
      </trkpt>
      <trkpt lat="59.9649543" lon="17.718273">
        <ele>29.4575</ele>
        <time>2014-06-06T15:45:40Z</time>
      </trkpt>
      <trkpt lat="59.964995" lon="17.7182525">
        <ele>29.9381</ele>
        <time>2014-06-06T15:45:41Z</time>
      </trkpt>
      <trkpt lat="59.965034" lon="17.7182403">
        <ele>29.9381</ele>
        <time>2014-06-06T15:45:42Z</time>
      </trkpt>
      <trkpt lat="59.9650718" lon="17.7182281">
        <ele>29.4575</ele>
        <time>2014-06-06T15:45:43Z</time>
      </trkpt>
      <trkpt lat="59.9651104" lon="17.7182203">
        <ele>28.9769</ele>
        <time>2014-06-06T15:45:44Z</time>
      </trkpt>
      <trkpt lat="59.9651502" lon="17.71822">
        <ele>28.4962</ele>
        <time>2014-06-06T15:45:45Z</time>
      </trkpt>
      <trkpt lat="59.9651959" lon="17.7182278">
        <ele>28.0155</ele>
        <time>2014-06-06T15:45:46Z</time>
      </trkpt>
      <trkpt lat="59.9652447" lon="17.7182422">
        <ele>28.4962</ele>
        <time>2014-06-06T15:45:47Z</time>
      </trkpt>
      <trkpt lat="59.9652961" lon="17.7182585">
        <ele>28.9769</ele>
        <time>2014-06-06T15:45:48Z</time>
      </trkpt>
      <trkpt lat="59.9653524" lon="17.7182755">
        <ele>30.4188</ele>
        <time>2014-06-06T15:45:49Z</time>
      </trkpt>
      <trkpt lat="59.9654104" lon="17.7182967">
        <ele>31.8607</ele>
        <time>2014-06-06T15:45:50Z</time>
      </trkpt>
      <trkpt lat="59.9654575" lon="17.7183224">
        <ele>32.3416</ele>
        <time>2014-06-06T15:45:51Z</time>
      </trkpt>
      <trkpt lat="59.9655061" lon="17.7183441">
        <ele>32.8223</ele>
        <time>2014-06-06T15:45:52Z</time>
      </trkpt>
      <trkpt lat="59.9655667" lon="17.7183666">
        <ele>33.7834</ele>
        <time>2014-06-06T15:45:53Z</time>
      </trkpt>
      <trkpt lat="59.9656292" lon="17.7183866">
        <ele>35.2255</ele>
        <time>2014-06-06T15:45:54Z</time>
      </trkpt>
      <trkpt lat="59.9656947" lon="17.7183956">
        <ele>37.6287</ele>
        <time>2014-06-06T15:45:55Z</time>
      </trkpt>
      <trkpt lat="59.965732" lon="17.7184077">
        <ele>38.1094</ele>
        <time>2014-06-06T15:45:56Z</time>
      </trkpt>
      <trkpt lat="59.9657751" lon="17.7184112">
        <ele>38.5901</ele>
        <time>2014-06-06T15:45:57Z</time>
      </trkpt>
      <trkpt lat="59.9658258" lon="17.718419">
        <ele>39.5513</ele>
        <time>2014-06-06T15:45:58Z</time>
      </trkpt>
      <trkpt lat="59.9658667" lon="17.7184382">
        <ele>40.0321</ele>
        <time>2014-06-06T15:45:59Z</time>
      </trkpt>
      <trkpt lat="59.9659081" lon="17.7184634">
        <ele>41.474</ele>
        <time>2014-06-06T15:46:00Z</time>
      </trkpt>
      <trkpt lat="59.9659457" lon="17.7184835">
        <ele>41.9547</ele>
        <time>2014-06-06T15:46:01Z</time>
      </trkpt>
      <trkpt lat="59.965977" lon="17.7185027">
        <ele>42.4354</ele>
        <time>2014-06-06T15:46:02Z</time>
      </trkpt>
      <trkpt lat="59.9660095" lon="17.7185277">
        <ele>42.916</ele>
        <time>2014-06-06T15:46:03Z</time>
      </trkpt>
      <trkpt lat="59.966044" lon="17.7185568">
        <ele>43.8773</ele>
        <time>2014-06-06T15:46:04Z</time>
      </trkpt>
      <trkpt lat="59.9660744" lon="17.7185867">
        <ele>43.8773</ele>
        <time>2014-06-06T15:46:05Z</time>
      </trkpt>
      <trkpt lat="59.9661068" lon="17.7186097">
        <ele>43.8773</ele>
        <time>2014-06-06T15:46:06Z</time>
      </trkpt>
      <trkpt lat="59.9661421" lon="17.7186335">
        <ele>43.8773</ele>
        <time>2014-06-06T15:46:07Z</time>
      </trkpt>
      <trkpt lat="59.9661816" lon="17.7186577">
        <ele>44.358</ele>
        <time>2014-06-06T15:46:08Z</time>
      </trkpt>
      <trkpt lat="59.9662221" lon="17.7186762">
        <ele>44.8386</ele>
        <time>2014-06-06T15:46:09Z</time>
      </trkpt>
      <trkpt lat="59.9662588" lon="17.7186959">
        <ele>45.3192</ele>
        <time>2014-06-06T15:46:10Z</time>
      </trkpt>
      <trkpt lat="59.9662909" lon="17.7187287">
        <ele>45.7999</ele>
        <time>2014-06-06T15:46:11Z</time>
      </trkpt>
      <trkpt lat="59.9663171" lon="17.7187749">
        <ele>45.7999</ele>
        <time>2014-06-06T15:46:12Z</time>
      </trkpt>
      <trkpt lat="59.9663427" lon="17.71883">
        <ele>46.2806</ele>
        <time>2014-06-06T15:46:13Z</time>
      </trkpt>
      <trkpt lat="59.9663619" lon="17.7188792">
        <ele>46.2806</ele>
        <time>2014-06-06T15:46:14Z</time>
      </trkpt>
      <trkpt lat="59.9663768" lon="17.7189257">
        <ele>46.7612</ele>
        <time>2014-06-06T15:46:15Z</time>
      </trkpt>
      <trkpt lat="59.9663881" lon="17.7189669">
        <ele>46.2806</ele>
        <time>2014-06-06T15:46:16Z</time>
      </trkpt>
      <trkpt lat="59.9663972" lon="17.7190063">
        <ele>45.7999</ele>
        <time>2014-06-06T15:46:17Z</time>
      </trkpt>
      <trkpt lat="59.96641" lon="17.7190422">
        <ele>45.7999</ele>
        <time>2014-06-06T15:46:18Z</time>
      </trkpt>
      <trkpt lat="59.9664228" lon="17.7190808">
        <ele>45.3192</ele>
        <time>2014-06-06T15:46:19Z</time>
      </trkpt>
      <trkpt lat="59.9664333" lon="17.7191255">
        <ele>44.8386</ele>
        <time>2014-06-06T15:46:20Z</time>
      </trkpt>
      <trkpt lat="59.9664375" lon="17.7191737">
        <ele>43.8773</ele>
        <time>2014-06-06T15:46:21Z</time>
      </trkpt>
      <trkpt lat="59.9664411" lon="17.7192183">
        <ele>43.3966</ele>
        <time>2014-06-06T15:46:22Z</time>
      </trkpt>
      <trkpt lat="59.9664433" lon="17.7192502">
        <ele>42.916</ele>
        <time>2014-06-06T15:46:23Z</time>
      </trkpt>
      <trkpt lat="59.966453" lon="17.7192685">
        <ele>42.4354</ele>
        <time>2014-06-06T15:46:24Z</time>
      </trkpt>
      <trkpt lat="59.966465" lon="17.7192772">
        <ele>42.4354</ele>
        <time>2014-06-06T15:46:25Z</time>
      </trkpt>
      <trkpt lat="59.9664762" lon="17.7192737">
        <ele>41.9547</ele>
        <time>2014-06-06T15:46:26Z</time>
      </trkpt>
      <trkpt lat="59.9664898" lon="17.7192701">
        <ele>41.474</ele>
        <time>2014-06-06T15:46:27Z</time>
      </trkpt>
      <trkpt lat="59.966509" lon="17.7192762">
        <ele>41.474</ele>
        <time>2014-06-06T15:46:28Z</time>
      </trkpt>
      <trkpt lat="59.9665328" lon="17.7192741">
        <ele>41.474</ele>
        <time>2014-06-06T15:46:29Z</time>
      </trkpt>
      <trkpt lat="59.9665575" lon="17.7192621">
        <ele>41.474</ele>
        <time>2014-06-06T15:46:30Z</time>
      </trkpt>
      <trkpt lat="59.966579" lon="17.7192462">
        <ele>41.9547</ele>
        <time>2014-06-06T15:46:31Z</time>
      </trkpt>
      <trkpt lat="59.9665955" lon="17.719227">
        <ele>42.4354</ele>
        <time>2014-06-06T15:46:32Z</time>
      </trkpt>
      <trkpt lat="59.9666047" lon="17.7192051">
        <ele>42.4354</ele>
        <time>2014-06-06T15:46:33Z</time>
      </trkpt>
      <trkpt lat="59.966613" lon="17.719182">
        <ele>42.4354</ele>
        <time>2014-06-06T15:46:34Z</time>
      </trkpt>
      <trkpt lat="59.9666199" lon="17.7191554">
        <ele>42.4354</ele>
        <time>2014-06-06T15:46:35Z</time>
      </trkpt>
      <trkpt lat="59.9666329" lon="17.7191317">
        <ele>42.4354</ele>
        <time>2014-06-06T15:46:36Z</time>
      </trkpt>
      <trkpt lat="59.966653" lon="17.7191084">
        <ele>42.916</ele>
        <time>2014-06-06T15:46:37Z</time>
      </trkpt>
      <trkpt lat="59.9666784" lon="17.7190685">
        <ele>42.916</ele>
        <time>2014-06-06T15:46:38Z</time>
      </trkpt>
      <trkpt lat="59.9667075" lon="17.7190236">
        <ele>43.8773</ele>
        <time>2014-06-06T15:46:39Z</time>
      </trkpt>
      <trkpt lat="59.966737" lon="17.7189784">
        <ele>44.8386</ele>
        <time>2014-06-06T15:46:40Z</time>
      </trkpt>
      <trkpt lat="59.9667678" lon="17.7189417">
        <ele>46.7612</ele>
        <time>2014-06-06T15:46:41Z</time>
      </trkpt>
      <trkpt lat="59.9667966" lon="17.7189069">
        <ele>47.7225</ele>
        <time>2014-06-06T15:46:42Z</time>
      </trkpt>
      <trkpt lat="59.9668253" lon="17.7188743">
        <ele>48.684</ele>
        <time>2014-06-06T15:46:43Z</time>
      </trkpt>
      <trkpt lat="59.9668522" lon="17.7188489">
        <ele>49.1646</ele>
        <time>2014-06-06T15:46:44Z</time>
      </trkpt>
      <trkpt lat="59.9668735" lon="17.7188397">
        <ele>48.684</ele>
        <time>2014-06-06T15:46:45Z</time>
      </trkpt>
      <trkpt lat="59.9669073" lon="17.7188427">
        <ele>49.1646</ele>
        <time>2014-06-06T15:46:46Z</time>
      </trkpt>
      <trkpt lat="59.9669394" lon="17.7188567">
        <ele>49.6453</ele>
        <time>2014-06-06T15:46:47Z</time>
      </trkpt>
      <trkpt lat="59.9669732" lon="17.7188555">
        <ele>49.6453</ele>
        <time>2014-06-06T15:46:48Z</time>
      </trkpt>
      <trkpt lat="59.9670011" lon="17.7188447">
        <ele>50.126</ele>
        <time>2014-06-06T15:46:49Z</time>
      </trkpt>
      <trkpt lat="59.9670245" lon="17.7188298">
        <ele>49.6453</ele>
        <time>2014-06-06T15:46:50Z</time>
      </trkpt>
      <trkpt lat="59.9670461" lon="17.7188034">
        <ele>49.6453</ele>
        <time>2014-06-06T15:46:51Z</time>
      </trkpt>
      <trkpt lat="59.9670631" lon="17.7187682">
        <ele>50.126</ele>
        <time>2014-06-06T15:46:52Z</time>
      </trkpt>
      <trkpt lat="59.9670742" lon="17.7187117">
        <ele>50.6066</ele>
        <time>2014-06-06T15:46:53Z</time>
      </trkpt>
      <trkpt lat="59.9670881" lon="17.7186738">
        <ele>50.6066</ele>
        <time>2014-06-06T15:46:54Z</time>
      </trkpt>
      <trkpt lat="59.9671092" lon="17.718664">
        <ele>51.0872</ele>
        <time>2014-06-06T15:46:55Z</time>
      </trkpt>
      <trkpt lat="59.9671322" lon="17.7186679">
        <ele>51.5679</ele>
        <time>2014-06-06T15:46:56Z</time>
      </trkpt>
      <trkpt lat="59.9671548" lon="17.7186625">
        <ele>51.5679</ele>
        <time>2014-06-06T15:46:57Z</time>
      </trkpt>
      <trkpt lat="59.9671853" lon="17.7186456">
        <ele>52.0486</ele>
        <time>2014-06-06T15:46:58Z</time>
      </trkpt>
      <trkpt lat="59.9672213" lon="17.7186251">
        <ele>53.4905</ele>
        <time>2014-06-06T15:46:59Z</time>
      </trkpt>
      <trkpt lat="59.9672418" lon="17.7185939">
        <ele>52.5292</ele>
        <time>2014-06-06T15:47:00Z</time>
      </trkpt>
      <trkpt lat="59.9672551" lon="17.7185506">
        <ele>51.0872</ele>
        <time>2014-06-06T15:47:01Z</time>
      </trkpt>
      <trkpt lat="59.9672807" lon="17.7185125">
        <ele>50.6066</ele>
        <time>2014-06-06T15:47:02Z</time>
      </trkpt>
      <trkpt lat="59.9673134" lon="17.718471">
        <ele>51.0872</ele>
        <time>2014-06-06T15:47:03Z</time>
      </trkpt>
      <trkpt lat="59.9673511" lon="17.7184421">
        <ele>51.5679</ele>
        <time>2014-06-06T15:47:04Z</time>
      </trkpt>
      <trkpt lat="59.9673943" lon="17.7184128">
        <ele>53.0098</ele>
        <time>2014-06-06T15:47:05Z</time>
      </trkpt>
      <trkpt lat="59.9674198" lon="17.718375">
        <ele>53.4905</ele>
        <time>2014-06-06T15:47:06Z</time>
      </trkpt>
      <trkpt lat="59.9674352" lon="17.7183405">
        <ele>53.0098</ele>
        <time>2014-06-06T15:47:07Z</time>
      </trkpt>
      <trkpt lat="59.9674462" lon="17.718306">
        <ele>52.5292</ele>
        <time>2014-06-06T15:47:08Z</time>
      </trkpt>
      <trkpt lat="59.9674481" lon="17.7182651">
        <ele>51.0872</ele>
        <time>2014-06-06T15:47:09Z</time>
      </trkpt>
      <trkpt lat="59.9674591" lon="17.7182393">
        <ele>49.6453</ele>
        <time>2014-06-06T15:47:10Z</time>
      </trkpt>
      <trkpt lat="59.9674735" lon="17.7182251">
        <ele>49.1646</ele>
        <time>2014-06-06T15:47:11Z</time>
      </trkpt>
      <trkpt lat="59.9675" lon="17.7182066">
        <ele>49.1646</ele>
        <time>2014-06-06T15:47:12Z</time>
      </trkpt>
      <trkpt lat="59.9675149" lon="17.7181828">
        <ele>48.2034</ele>
        <time>2014-06-06T15:47:13Z</time>
      </trkpt>
      <trkpt lat="59.9675305" lon="17.7181554">
        <ele>46.7612</ele>
        <time>2014-06-06T15:47:14Z</time>
      </trkpt>
      <trkpt lat="59.9675486" lon="17.7181201">
        <ele>45.7999</ele>
        <time>2014-06-06T15:47:15Z</time>
      </trkpt>
      <trkpt lat="59.9675726" lon="17.7180891">
        <ele>44.8386</ele>
        <time>2014-06-06T15:47:16Z</time>
      </trkpt>
      <trkpt lat="59.9676004" lon="17.7180682">
        <ele>44.358</ele>
        <time>2014-06-06T15:47:17Z</time>
      </trkpt>
      <trkpt lat="59.9676331" lon="17.718058">
        <ele>43.8773</ele>
        <time>2014-06-06T15:47:18Z</time>
      </trkpt>
      <trkpt lat="59.9676668" lon="17.7180535">
        <ele>43.3966</ele>
        <time>2014-06-06T15:47:19Z</time>
      </trkpt>
      <trkpt lat="59.9677046" lon="17.7180532">
        <ele>42.4354</ele>
        <time>2014-06-06T15:47:20Z</time>
      </trkpt>
      <trkpt lat="59.9677489" lon="17.7180456">
        <ele>42.4354</ele>
        <time>2014-06-06T15:47:21Z</time>
      </trkpt>
      <trkpt lat="59.9677822" lon="17.7180323">
        <ele>40.9934</ele>
        <time>2014-06-06T15:47:22Z</time>
      </trkpt>
      <trkpt lat="59.9678149" lon="17.7180191">
        <ele>40.5128</ele>
        <time>2014-06-06T15:47:23Z</time>
      </trkpt>
      <trkpt lat="59.9678533" lon="17.7180049">
        <ele>40.5128</ele>
        <time>2014-06-06T15:47:24Z</time>
      </trkpt>
      <trkpt lat="59.9678797" lon="17.7180014">
        <ele>40.0321</ele>
        <time>2014-06-06T15:47:25Z</time>
      </trkpt>
      <trkpt lat="59.9678992" lon="17.7180076">
        <ele>39.5513</ele>
        <time>2014-06-06T15:47:26Z</time>
      </trkpt>
      <trkpt lat="59.9679144" lon="17.718019">
        <ele>40.0321</ele>
        <time>2014-06-06T15:47:27Z</time>
      </trkpt>
      <trkpt lat="59.9679149" lon="17.7180251">
        <ele>39.0707</ele>
        <time>2014-06-06T15:47:28Z</time>
      </trkpt>
      <trkpt lat="59.9679113" lon="17.7180258">
        <ele>38.5901</ele>
        <time>2014-06-06T15:47:29Z</time>
      </trkpt>
      <trkpt lat="59.967965" lon="17.7180658">
        <ele>38.1094</ele>
        <time>2014-06-06T15:47:39Z</time>
      </trkpt>
      <trkpt lat="59.9679908" lon="17.718092">
        <ele>38.1094</ele>
        <time>2014-06-06T15:47:40Z</time>
      </trkpt>
      <trkpt lat="59.968017" lon="17.7181268">
        <ele>38.1094</ele>
        <time>2014-06-06T15:47:41Z</time>
      </trkpt>
      <trkpt lat="59.9680463" lon="17.7181629">
        <ele>38.1094</ele>
        <time>2014-06-06T15:47:42Z</time>
      </trkpt>
      <trkpt lat="59.968077" lon="17.7182033">
        <ele>38.1094</ele>
        <time>2014-06-06T15:47:43Z</time>
      </trkpt>
      <trkpt lat="59.9681102" lon="17.718249">
        <ele>38.1094</ele>
        <time>2014-06-06T15:47:44Z</time>
      </trkpt>
      <trkpt lat="59.9681437" lon="17.7182986">
        <ele>37.6287</ele>
        <time>2014-06-06T15:47:45Z</time>
      </trkpt>
      <trkpt lat="59.9681809" lon="17.7183506">
        <ele>37.1481</ele>
        <time>2014-06-06T15:47:46Z</time>
      </trkpt>
      <trkpt lat="59.9682227" lon="17.7184007">
        <ele>36.6675</ele>
        <time>2014-06-06T15:47:47Z</time>
      </trkpt>
      <trkpt lat="59.9682671" lon="17.7184467">
        <ele>36.6675</ele>
        <time>2014-06-06T15:47:48Z</time>
      </trkpt>
      <trkpt lat="59.9683141" lon="17.7184889">
        <ele>36.6675</ele>
        <time>2014-06-06T15:47:49Z</time>
      </trkpt>
      <trkpt lat="59.9683631" lon="17.7185256">
        <ele>36.1868</ele>
        <time>2014-06-06T15:47:50Z</time>
      </trkpt>
      <trkpt lat="59.9684132" lon="17.7185495">
        <ele>36.1868</ele>
        <time>2014-06-06T15:47:51Z</time>
      </trkpt>
      <trkpt lat="59.9684628" lon="17.7185592">
        <ele>35.7061</ele>
        <time>2014-06-06T15:47:52Z</time>
      </trkpt>
      <trkpt lat="59.9685125" lon="17.7185602">
        <ele>35.7061</ele>
        <time>2014-06-06T15:47:53Z</time>
      </trkpt>
      <trkpt lat="59.9685593" lon="17.7185467">
        <ele>34.7449</ele>
        <time>2014-06-06T15:47:54Z</time>
      </trkpt>
      <trkpt lat="59.9686043" lon="17.7185198">
        <ele>34.2642</ele>
        <time>2014-06-06T15:47:55Z</time>
      </trkpt>
      <trkpt lat="59.9686479" lon="17.7184796">
        <ele>33.7834</ele>
        <time>2014-06-06T15:47:56Z</time>
      </trkpt>
      <trkpt lat="59.9686902" lon="17.7184251">
        <ele>33.3029</ele>
        <time>2014-06-06T15:47:57Z</time>
      </trkpt>
      <trkpt lat="59.96873" lon="17.718354">
        <ele>33.3029</ele>
        <time>2014-06-06T15:47:58Z</time>
      </trkpt>
      <trkpt lat="59.9687661" lon="17.7182681">
        <ele>32.8223</ele>
        <time>2014-06-06T15:47:59Z</time>
      </trkpt>
      <trkpt lat="59.968797" lon="17.7181724">
        <ele>32.8223</ele>
        <time>2014-06-06T15:48:00Z</time>
      </trkpt>
      <trkpt lat="59.9688184" lon="17.7180733">
        <ele>32.3416</ele>
        <time>2014-06-06T15:48:01Z</time>
      </trkpt>
      <trkpt lat="59.9688365" lon="17.7179772">
        <ele>31.8607</ele>
        <time>2014-06-06T15:48:02Z</time>
      </trkpt>
      <trkpt lat="59.9688507" lon="17.7178849">
        <ele>31.3801</ele>
        <time>2014-06-06T15:48:03Z</time>
      </trkpt>
      <trkpt lat="59.968863" lon="17.7177897">
        <ele>31.8607</ele>
        <time>2014-06-06T15:48:04Z</time>
      </trkpt>
      <trkpt lat="59.9688706" lon="17.7176984">
        <ele>31.8607</ele>
        <time>2014-06-06T15:48:05Z</time>
      </trkpt>
      <trkpt lat="59.968878" lon="17.7176129">
        <ele>31.8607</ele>
        <time>2014-06-06T15:48:06Z</time>
      </trkpt>
      <trkpt lat="59.9688894" lon="17.7175369">
        <ele>31.3801</ele>
        <time>2014-06-06T15:48:07Z</time>
      </trkpt>
      <trkpt lat="59.9689105" lon="17.7174723">
        <ele>31.3801</ele>
        <time>2014-06-06T15:48:08Z</time>
      </trkpt>
      <trkpt lat="59.9689453" lon="17.7174259">
        <ele>31.3801</ele>
        <time>2014-06-06T15:48:09Z</time>
      </trkpt>
      <trkpt lat="59.9689892" lon="17.7174099">
        <ele>31.3801</ele>
        <time>2014-06-06T15:48:10Z</time>
      </trkpt>
      <trkpt lat="59.9690364" lon="17.7174196">
        <ele>31.3801</ele>
        <time>2014-06-06T15:48:11Z</time>
      </trkpt>
      <trkpt lat="59.9690852" lon="17.7174413">
        <ele>31.8607</ele>
        <time>2014-06-06T15:48:12Z</time>
      </trkpt>
      <trkpt lat="59.9691347" lon="17.7174637">
        <ele>31.8607</ele>
        <time>2014-06-06T15:48:13Z</time>
      </trkpt>
      <trkpt lat="59.9691861" lon="17.7174837">
        <ele>31.8607</ele>
        <time>2014-06-06T15:48:14Z</time>
      </trkpt>
      <trkpt lat="59.9692394" lon="17.7175065">
        <ele>31.8607</ele>
        <time>2014-06-06T15:48:15Z</time>
      </trkpt>
      <trkpt lat="59.9692928" lon="17.7175342">
        <ele>31.8607</ele>
        <time>2014-06-06T15:48:16Z</time>
      </trkpt>
      <trkpt lat="59.9693482" lon="17.7175642">
        <ele>31.8607</ele>
        <time>2014-06-06T15:48:17Z</time>
      </trkpt>
      <trkpt lat="59.9694068" lon="17.7175958">
        <ele>31.8607</ele>
        <time>2014-06-06T15:48:18Z</time>
      </trkpt>
      <trkpt lat="59.9694682" lon="17.7176291">
        <ele>31.8607</ele>
        <time>2014-06-06T15:48:19Z</time>
      </trkpt>
      <trkpt lat="59.9695314" lon="17.7176664">
        <ele>31.3801</ele>
        <time>2014-06-06T15:48:20Z</time>
      </trkpt>
      <trkpt lat="59.9695961" lon="17.7177077">
        <ele>31.3801</ele>
        <time>2014-06-06T15:48:21Z</time>
      </trkpt>
      <trkpt lat="59.9696617" lon="17.7177523">
        <ele>31.3801</ele>
        <time>2014-06-06T15:48:22Z</time>
      </trkpt>
      <trkpt lat="59.9697283" lon="17.7177999">
        <ele>31.3801</ele>
        <time>2014-06-06T15:48:23Z</time>
      </trkpt>
      <trkpt lat="59.9697954" lon="17.7178491">
        <ele>31.3801</ele>
        <time>2014-06-06T15:48:24Z</time>
      </trkpt>
      <trkpt lat="59.9698632" lon="17.7179016">
        <ele>31.3801</ele>
        <time>2014-06-06T15:48:25Z</time>
      </trkpt>
      <trkpt lat="59.9699315" lon="17.7179604">
        <ele>31.3801</ele>
        <time>2014-06-06T15:48:26Z</time>
      </trkpt>
      <trkpt lat="59.9699978" lon="17.7180237">
        <ele>31.3801</ele>
        <time>2014-06-06T15:48:27Z</time>
      </trkpt>
      <trkpt lat="59.9700631" lon="17.7180869">
        <ele>31.3801</ele>
        <time>2014-06-06T15:48:28Z</time>
      </trkpt>
      <trkpt lat="59.9701279" lon="17.7181444">
        <ele>31.3801</ele>
        <time>2014-06-06T15:48:29Z</time>
      </trkpt>
      <trkpt lat="59.9701921" lon="17.7181982">
        <ele>30.8995</ele>
        <time>2014-06-06T15:48:30Z</time>
      </trkpt>
      <trkpt lat="59.9702551" lon="17.7182524">
        <ele>30.8995</ele>
        <time>2014-06-06T15:48:31Z</time>
      </trkpt>
      <trkpt lat="59.9703163" lon="17.718306">
        <ele>30.8995</ele>
        <time>2014-06-06T15:48:32Z</time>
      </trkpt>
      <trkpt lat="59.9703761" lon="17.7183592">
        <ele>30.8995</ele>
        <time>2014-06-06T15:48:33Z</time>
      </trkpt>
      <trkpt lat="59.970435" lon="17.7184126">
        <ele>30.8995</ele>
        <time>2014-06-06T15:48:34Z</time>
      </trkpt>
      <trkpt lat="59.9704925" lon="17.7184676">
        <ele>30.8995</ele>
        <time>2014-06-06T15:48:35Z</time>
      </trkpt>
      <trkpt lat="59.9705505" lon="17.7185234">
        <ele>30.8995</ele>
        <time>2014-06-06T15:48:36Z</time>
      </trkpt>
      <trkpt lat="59.9706101" lon="17.7185765">
        <ele>30.8995</ele>
        <time>2014-06-06T15:48:37Z</time>
      </trkpt>
      <trkpt lat="59.9706707" lon="17.7186292">
        <ele>30.8995</ele>
        <time>2014-06-06T15:48:38Z</time>
      </trkpt>
      <trkpt lat="59.9707314" lon="17.7186831">
        <ele>30.8995</ele>
        <time>2014-06-06T15:48:39Z</time>
      </trkpt>
      <trkpt lat="59.970793" lon="17.7187387">
        <ele>30.8995</ele>
        <time>2014-06-06T15:48:40Z</time>
      </trkpt>
      <trkpt lat="59.9708559" lon="17.7187955">
        <ele>30.8995</ele>
        <time>2014-06-06T15:48:41Z</time>
      </trkpt>
      <trkpt lat="59.9709199" lon="17.7188524">
        <ele>30.4188</ele>
        <time>2014-06-06T15:48:42Z</time>
      </trkpt>
      <trkpt lat="59.9709849" lon="17.7189101">
        <ele>30.4188</ele>
        <time>2014-06-06T15:48:43Z</time>
      </trkpt>
      <trkpt lat="59.9710495" lon="17.7189715">
        <ele>30.4188</ele>
        <time>2014-06-06T15:48:44Z</time>
      </trkpt>
      <trkpt lat="59.9711145" lon="17.7190343">
        <ele>30.4188</ele>
        <time>2014-06-06T15:48:45Z</time>
      </trkpt>
      <trkpt lat="59.9711804" lon="17.7190934">
        <ele>30.4188</ele>
        <time>2014-06-06T15:48:46Z</time>
      </trkpt>
      <trkpt lat="59.9712473" lon="17.7191476">
        <ele>30.4188</ele>
        <time>2014-06-06T15:48:47Z</time>
      </trkpt>
      <trkpt lat="59.9713146" lon="17.7192009">
        <ele>30.4188</ele>
        <time>2014-06-06T15:48:48Z</time>
      </trkpt>
      <trkpt lat="59.9713815" lon="17.7192581">
        <ele>29.9381</ele>
        <time>2014-06-06T15:48:49Z</time>
      </trkpt>
      <trkpt lat="59.9714483" lon="17.7193203">
        <ele>29.9381</ele>
        <time>2014-06-06T15:48:50Z</time>
      </trkpt>
      <trkpt lat="59.9715151" lon="17.7193845">
        <ele>29.9381</ele>
        <time>2014-06-06T15:48:51Z</time>
      </trkpt>
      <trkpt lat="59.9715829" lon="17.719448">
        <ele>29.9381</ele>
        <time>2014-06-06T15:48:52Z</time>
      </trkpt>
      <trkpt lat="59.9716527" lon="17.7195097">
        <ele>29.9381</ele>
        <time>2014-06-06T15:48:53Z</time>
      </trkpt>
      <trkpt lat="59.9717234" lon="17.7195704">
        <ele>29.9381</ele>
        <time>2014-06-06T15:48:54Z</time>
      </trkpt>
      <trkpt lat="59.9717947" lon="17.7196316">
        <ele>29.9381</ele>
        <time>2014-06-06T15:48:55Z</time>
      </trkpt>
      <trkpt lat="59.9718657" lon="17.7196937">
        <ele>29.9381</ele>
        <time>2014-06-06T15:48:56Z</time>
      </trkpt>
      <trkpt lat="59.9719357" lon="17.7197574">
        <ele>29.9381</ele>
        <time>2014-06-06T15:48:57Z</time>
      </trkpt>
      <trkpt lat="59.9720051" lon="17.7198269">
        <ele>29.4575</ele>
        <time>2014-06-06T15:48:58Z</time>
      </trkpt>
      <trkpt lat="59.9720745" lon="17.7198976">
        <ele>29.4575</ele>
        <time>2014-06-06T15:48:59Z</time>
      </trkpt>
      <trkpt lat="59.9721464" lon="17.7199645">
        <ele>29.4575</ele>
        <time>2014-06-06T15:49:00Z</time>
      </trkpt>
      <trkpt lat="59.9722191" lon="17.7200303">
        <ele>29.4575</ele>
        <time>2014-06-06T15:49:01Z</time>
      </trkpt>
      <trkpt lat="59.9722929" lon="17.7200947">
        <ele>29.4575</ele>
        <time>2014-06-06T15:49:02Z</time>
      </trkpt>
      <trkpt lat="59.9723672" lon="17.7201578">
        <ele>29.4575</ele>
        <time>2014-06-06T15:49:03Z</time>
      </trkpt>
      <trkpt lat="59.9724413" lon="17.7202227">
        <ele>29.4575</ele>
        <time>2014-06-06T15:49:04Z</time>
      </trkpt>
      <trkpt lat="59.9725148" lon="17.7202908">
        <ele>29.4575</ele>
        <time>2014-06-06T15:49:05Z</time>
      </trkpt>
      <trkpt lat="59.9725874" lon="17.720362">
        <ele>28.9769</ele>
        <time>2014-06-06T15:49:06Z</time>
      </trkpt>
      <trkpt lat="59.9726587" lon="17.720433">
        <ele>28.9769</ele>
        <time>2014-06-06T15:49:07Z</time>
      </trkpt>
      <trkpt lat="59.9727292" lon="17.7205002">
        <ele>28.9769</ele>
        <time>2014-06-06T15:49:08Z</time>
      </trkpt>
      <trkpt lat="59.9727991" lon="17.7205692">
        <ele>28.9769</ele>
        <time>2014-06-06T15:49:09Z</time>
      </trkpt>
      <trkpt lat="59.9728671" lon="17.7206433">
        <ele>28.9769</ele>
        <time>2014-06-06T15:49:10Z</time>
      </trkpt>
      <trkpt lat="59.9729344" lon="17.7207211">
        <ele>28.9769</ele>
        <time>2014-06-06T15:49:11Z</time>
      </trkpt>
      <trkpt lat="59.9730002" lon="17.7208044">
        <ele>28.9769</ele>
        <time>2014-06-06T15:49:12Z</time>
      </trkpt>
      <trkpt lat="59.9730644" lon="17.7208955">
        <ele>28.9769</ele>
        <time>2014-06-06T15:49:13Z</time>
      </trkpt>
      <trkpt lat="59.9731276" lon="17.7209914">
        <ele>28.9769</ele>
        <time>2014-06-06T15:49:14Z</time>
      </trkpt>
      <trkpt lat="59.9731908" lon="17.7210877">
        <ele>28.4962</ele>
        <time>2014-06-06T15:49:15Z</time>
      </trkpt>
      <trkpt lat="59.9732536" lon="17.7211865">
        <ele>28.4962</ele>
        <time>2014-06-06T15:49:16Z</time>
      </trkpt>
      <trkpt lat="59.9733145" lon="17.7212888">
        <ele>28.4962</ele>
        <time>2014-06-06T15:49:17Z</time>
      </trkpt>
      <trkpt lat="59.9733726" lon="17.7213966">
        <ele>28.4962</ele>
        <time>2014-06-06T15:49:18Z</time>
      </trkpt>
      <trkpt lat="59.9734271" lon="17.7215092">
        <ele>28.4962</ele>
        <time>2014-06-06T15:49:19Z</time>
      </trkpt>
      <trkpt lat="59.9734804" lon="17.7216248">
        <ele>28.0155</ele>
        <time>2014-06-06T15:49:20Z</time>
      </trkpt>
      <trkpt lat="59.9735326" lon="17.7217424">
        <ele>28.0155</ele>
        <time>2014-06-06T15:49:21Z</time>
      </trkpt>
      <trkpt lat="59.973584" lon="17.7218615">
        <ele>28.0155</ele>
        <time>2014-06-06T15:49:22Z</time>
      </trkpt>
      <trkpt lat="59.9736338" lon="17.7219832">
        <ele>27.5349</ele>
        <time>2014-06-06T15:49:23Z</time>
      </trkpt>
      <trkpt lat="59.9736815" lon="17.7221083">
        <ele>27.5349</ele>
        <time>2014-06-06T15:49:24Z</time>
      </trkpt>
      <trkpt lat="59.973727" lon="17.7222371">
        <ele>27.5349</ele>
        <time>2014-06-06T15:49:25Z</time>
      </trkpt>
      <trkpt lat="59.97377" lon="17.7223688">
        <ele>27.0543</ele>
        <time>2014-06-06T15:49:26Z</time>
      </trkpt>
      <trkpt lat="59.9738105" lon="17.7225035">
        <ele>27.0543</ele>
        <time>2014-06-06T15:49:27Z</time>
      </trkpt>
      <trkpt lat="59.9738487" lon="17.7226415">
        <ele>27.0543</ele>
        <time>2014-06-06T15:49:28Z</time>
      </trkpt>
      <trkpt lat="59.973885" lon="17.7227817">
        <ele>27.0543</ele>
        <time>2014-06-06T15:49:29Z</time>
      </trkpt>
      <trkpt lat="59.9739198" lon="17.7229228">
        <ele>26.5736</ele>
        <time>2014-06-06T15:49:30Z</time>
      </trkpt>
      <trkpt lat="59.9739522" lon="17.7230644">
        <ele>26.5736</ele>
        <time>2014-06-06T15:49:31Z</time>
      </trkpt>
      <trkpt lat="59.9739818" lon="17.7232074">
        <ele>26.5736</ele>
        <time>2014-06-06T15:49:32Z</time>
      </trkpt>
      <trkpt lat="59.9740088" lon="17.7233512">
        <ele>26.5736</ele>
        <time>2014-06-06T15:49:33Z</time>
      </trkpt>
      <trkpt lat="59.9740337" lon="17.7234944">
        <ele>26.5736</ele>
        <time>2014-06-06T15:49:34Z</time>
      </trkpt>
      <trkpt lat="59.9740573" lon="17.7236349">
        <ele>26.5736</ele>
        <time>2014-06-06T15:49:35Z</time>
      </trkpt>
      <trkpt lat="59.9740793" lon="17.7237725">
        <ele>26.5736</ele>
        <time>2014-06-06T15:49:36Z</time>
      </trkpt>
      <trkpt lat="59.9741005" lon="17.7239087">
        <ele>26.5736</ele>
        <time>2014-06-06T15:49:37Z</time>
      </trkpt>
      <trkpt lat="59.9741204" lon="17.7240433">
        <ele>26.5736</ele>
        <time>2014-06-06T15:49:38Z</time>
      </trkpt>
      <trkpt lat="59.9741393" lon="17.7241755">
        <ele>26.5736</ele>
        <time>2014-06-06T15:49:39Z</time>
      </trkpt>
      <trkpt lat="59.9741579" lon="17.7243061">
        <ele>26.5736</ele>
        <time>2014-06-06T15:49:40Z</time>
      </trkpt>
      <trkpt lat="59.9741764" lon="17.724436">
        <ele>26.5736</ele>
        <time>2014-06-06T15:49:41Z</time>
      </trkpt>
      <trkpt lat="59.9741937" lon="17.7245656">
        <ele>26.5736</ele>
        <time>2014-06-06T15:49:42Z</time>
      </trkpt>
      <trkpt lat="59.9742107" lon="17.7246958">
        <ele>26.5736</ele>
        <time>2014-06-06T15:49:43Z</time>
      </trkpt>
      <trkpt lat="59.9742287" lon="17.7248247">
        <ele>26.5736</ele>
        <time>2014-06-06T15:49:44Z</time>
      </trkpt>
      <trkpt lat="59.974247" lon="17.7249516">
        <ele>26.5736</ele>
        <time>2014-06-06T15:49:45Z</time>
      </trkpt>
      <trkpt lat="59.9742643" lon="17.7250775">
        <ele>27.0543</ele>
        <time>2014-06-06T15:49:46Z</time>
      </trkpt>
      <trkpt lat="59.9742805" lon="17.7252028">
        <ele>27.0543</ele>
        <time>2014-06-06T15:49:47Z</time>
      </trkpt>
      <trkpt lat="59.9742955" lon="17.7253269">
        <ele>27.0543</ele>
        <time>2014-06-06T15:49:48Z</time>
      </trkpt>
      <trkpt lat="59.9743091" lon="17.7254499">
        <ele>27.0543</ele>
        <time>2014-06-06T15:49:49Z</time>
      </trkpt>
      <trkpt lat="59.9743221" lon="17.7255715">
        <ele>27.0543</ele>
        <time>2014-06-06T15:49:50Z</time>
      </trkpt>
      <trkpt lat="59.9743337" lon="17.7256918">
        <ele>27.0543</ele>
        <time>2014-06-06T15:49:51Z</time>
      </trkpt>
      <trkpt lat="59.9743442" lon="17.7258109">
        <ele>26.5736</ele>
        <time>2014-06-06T15:49:52Z</time>
      </trkpt>
      <trkpt lat="59.9743537" lon="17.7259295">
        <ele>26.5736</ele>
        <time>2014-06-06T15:49:53Z</time>
      </trkpt>
      <trkpt lat="59.9743599" lon="17.7260487">
        <ele>26.5736</ele>
        <time>2014-06-06T15:49:54Z</time>
      </trkpt>
      <trkpt lat="59.9743636" lon="17.7261685">
        <ele>26.5736</ele>
        <time>2014-06-06T15:49:55Z</time>
      </trkpt>
      <trkpt lat="59.9743678" lon="17.7262883">
        <ele>26.5736</ele>
        <time>2014-06-06T15:49:56Z</time>
      </trkpt>
      <trkpt lat="59.974373" lon="17.7264083">
        <ele>26.0929</ele>
        <time>2014-06-06T15:49:57Z</time>
      </trkpt>
      <trkpt lat="59.9743792" lon="17.7265284">
        <ele>26.0929</ele>
        <time>2014-06-06T15:49:58Z</time>
      </trkpt>
      <trkpt lat="59.9743827" lon="17.726647">
        <ele>26.0929</ele>
        <time>2014-06-06T15:49:59Z</time>
      </trkpt>
      <trkpt lat="59.9743839" lon="17.7267644">
        <ele>26.0929</ele>
        <time>2014-06-06T15:50:00Z</time>
      </trkpt>
      <trkpt lat="59.9743862" lon="17.7268784">
        <ele>25.6123</ele>
        <time>2014-06-06T15:50:01Z</time>
      </trkpt>
      <trkpt lat="59.974389" lon="17.726994">
        <ele>25.6123</ele>
        <time>2014-06-06T15:50:02Z</time>
      </trkpt>
      <trkpt lat="59.9743922" lon="17.727112">
        <ele>25.1317</ele>
        <time>2014-06-06T15:50:03Z</time>
      </trkpt>
      <trkpt lat="59.974395" lon="17.7272334">
        <ele>25.1317</ele>
        <time>2014-06-06T15:50:04Z</time>
      </trkpt>
      <trkpt lat="59.9743973" lon="17.7273591">
        <ele>24.651</ele>
        <time>2014-06-06T15:50:05Z</time>
      </trkpt>
      <trkpt lat="59.9743998" lon="17.7274881">
        <ele>24.651</ele>
        <time>2014-06-06T15:50:06Z</time>
      </trkpt>
      <trkpt lat="59.9744029" lon="17.7276198">
        <ele>24.1703</ele>
        <time>2014-06-06T15:50:07Z</time>
      </trkpt>
      <trkpt lat="59.974406" lon="17.727755">
        <ele>24.1703</ele>
        <time>2014-06-06T15:50:08Z</time>
      </trkpt>
      <trkpt lat="59.9744087" lon="17.7278933">
        <ele>23.6896</ele>
        <time>2014-06-06T15:50:09Z</time>
      </trkpt>
      <trkpt lat="59.9744106" lon="17.7280352">
        <ele>23.209</ele>
        <time>2014-06-06T15:50:10Z</time>
      </trkpt>
      <trkpt lat="59.9744128" lon="17.7281787">
        <ele>23.209</ele>
        <time>2014-06-06T15:50:11Z</time>
      </trkpt>
      <trkpt lat="59.9744159" lon="17.7283232">
        <ele>23.209</ele>
        <time>2014-06-06T15:50:12Z</time>
      </trkpt>
      <trkpt lat="59.9744194" lon="17.7284671">
        <ele>23.6896</ele>
        <time>2014-06-06T15:50:13Z</time>
      </trkpt>
      <trkpt lat="59.9744224" lon="17.7286104">
        <ele>23.6896</ele>
        <time>2014-06-06T15:50:14Z</time>
      </trkpt>
      <trkpt lat="59.9744258" lon="17.7287538">
        <ele>23.6896</ele>
        <time>2014-06-06T15:50:15Z</time>
      </trkpt>
      <trkpt lat="59.9744294" lon="17.7288967">
        <ele>23.6896</ele>
        <time>2014-06-06T15:50:16Z</time>
      </trkpt>
      <trkpt lat="59.9744335" lon="17.7290381">
        <ele>23.6896</ele>
        <time>2014-06-06T15:50:17Z</time>
      </trkpt>
      <trkpt lat="59.9744377" lon="17.7291794">
        <ele>23.6896</ele>
        <time>2014-06-06T15:50:18Z</time>
      </trkpt>
      <trkpt lat="59.9744401" lon="17.7293205">
        <ele>23.6896</ele>
        <time>2014-06-06T15:50:19Z</time>
      </trkpt>
      <trkpt lat="59.9744404" lon="17.7294612">
        <ele>23.6896</ele>
        <time>2014-06-06T15:50:20Z</time>
      </trkpt>
      <trkpt lat="59.9744383" lon="17.7295996">
        <ele>23.6896</ele>
        <time>2014-06-06T15:50:21Z</time>
      </trkpt>
      <trkpt lat="59.9744325" lon="17.7297344">
        <ele>23.6896</ele>
        <time>2014-06-06T15:50:22Z</time>
      </trkpt>
      <trkpt lat="59.9744232" lon="17.7298659">
        <ele>23.6896</ele>
        <time>2014-06-06T15:50:23Z</time>
      </trkpt>
      <trkpt lat="59.9744127" lon="17.729995">
        <ele>24.1703</ele>
        <time>2014-06-06T15:50:24Z</time>
      </trkpt>
      <trkpt lat="59.9744023" lon="17.7301227">
        <ele>24.1703</ele>
        <time>2014-06-06T15:50:25Z</time>
      </trkpt>
      <trkpt lat="59.9743914" lon="17.7302492">
        <ele>24.1703</ele>
        <time>2014-06-06T15:50:26Z</time>
      </trkpt>
      <trkpt lat="59.9743802" lon="17.7303752">
        <ele>24.1703</ele>
        <time>2014-06-06T15:50:27Z</time>
      </trkpt>
      <trkpt lat="59.9743697" lon="17.7305008">
        <ele>24.1703</ele>
        <time>2014-06-06T15:50:28Z</time>
      </trkpt>
      <trkpt lat="59.9743596" lon="17.730626">
        <ele>24.1703</ele>
        <time>2014-06-06T15:50:29Z</time>
      </trkpt>
      <trkpt lat="59.97435" lon="17.7307517">
        <ele>24.1703</ele>
        <time>2014-06-06T15:50:30Z</time>
      </trkpt>
      <trkpt lat="59.9743414" lon="17.7308775">
        <ele>24.651</ele>
        <time>2014-06-06T15:50:31Z</time>
      </trkpt>
      <trkpt lat="59.9743334" lon="17.731003">
        <ele>24.651</ele>
        <time>2014-06-06T15:50:32Z</time>
      </trkpt>
      <trkpt lat="59.9743258" lon="17.7311283">
        <ele>24.651</ele>
        <time>2014-06-06T15:50:33Z</time>
      </trkpt>
      <trkpt lat="59.9743194" lon="17.7312543">
        <ele>24.651</ele>
        <time>2014-06-06T15:50:34Z</time>
      </trkpt>
      <trkpt lat="59.9743139" lon="17.731382">
        <ele>24.651</ele>
        <time>2014-06-06T15:50:35Z</time>
      </trkpt>
      <trkpt lat="59.9743092" lon="17.7315107">
        <ele>24.651</ele>
        <time>2014-06-06T15:50:36Z</time>
      </trkpt>
      <trkpt lat="59.9743067" lon="17.7316397">
        <ele>24.651</ele>
        <time>2014-06-06T15:50:37Z</time>
      </trkpt>
      <trkpt lat="59.9743062" lon="17.7317669">
        <ele>24.651</ele>
        <time>2014-06-06T15:50:38Z</time>
      </trkpt>
      <trkpt lat="59.9743077" lon="17.731892">
        <ele>24.651</ele>
        <time>2014-06-06T15:50:39Z</time>
      </trkpt>
      <trkpt lat="59.9743108" lon="17.7320127">
        <ele>24.651</ele>
        <time>2014-06-06T15:50:40Z</time>
      </trkpt>
      <trkpt lat="59.9743137" lon="17.7321294">
        <ele>24.651</ele>
        <time>2014-06-06T15:50:41Z</time>
      </trkpt>
      <trkpt lat="59.974316" lon="17.7322424">
        <ele>24.651</ele>
        <time>2014-06-06T15:50:42Z</time>
      </trkpt>
      <trkpt lat="59.9743191" lon="17.7323518">
        <ele>24.651</ele>
        <time>2014-06-06T15:50:43Z</time>
      </trkpt>
      <trkpt lat="59.9743216" lon="17.732458">
        <ele>24.651</ele>
        <time>2014-06-06T15:50:44Z</time>
      </trkpt>
      <trkpt lat="59.9743238" lon="17.7325612">
        <ele>24.651</ele>
        <time>2014-06-06T15:50:45Z</time>
      </trkpt>
      <trkpt lat="59.9743256" lon="17.7326612">
        <ele>24.651</ele>
        <time>2014-06-06T15:50:46Z</time>
      </trkpt>
      <trkpt lat="59.9743263" lon="17.7327604">
        <ele>24.651</ele>
        <time>2014-06-06T15:50:47Z</time>
      </trkpt>
      <trkpt lat="59.9743267" lon="17.732861">
        <ele>24.651</ele>
        <time>2014-06-06T15:50:48Z</time>
      </trkpt>
      <trkpt lat="59.9743247" lon="17.732963">
        <ele>24.1703</ele>
        <time>2014-06-06T15:50:49Z</time>
      </trkpt>
      <trkpt lat="59.9743215" lon="17.7330667">
        <ele>24.1703</ele>
        <time>2014-06-06T15:50:50Z</time>
      </trkpt>
      <trkpt lat="59.9743183" lon="17.7331724">
        <ele>24.1703</ele>
        <time>2014-06-06T15:50:51Z</time>
      </trkpt>
      <trkpt lat="59.9743153" lon="17.7332794">
        <ele>24.1703</ele>
        <time>2014-06-06T15:50:52Z</time>
      </trkpt>
      <trkpt lat="59.9743126" lon="17.7333866">
        <ele>24.1703</ele>
        <time>2014-06-06T15:50:53Z</time>
      </trkpt>
      <trkpt lat="59.9743086" lon="17.7334935">
        <ele>24.1703</ele>
        <time>2014-06-06T15:50:54Z</time>
      </trkpt>
      <trkpt lat="59.9743028" lon="17.7335996">
        <ele>24.1703</ele>
        <time>2014-06-06T15:50:55Z</time>
      </trkpt>
      <trkpt lat="59.9742972" lon="17.7337054">
        <ele>24.1703</ele>
        <time>2014-06-06T15:50:56Z</time>
      </trkpt>
      <trkpt lat="59.9742917" lon="17.7338105">
        <ele>24.1703</ele>
        <time>2014-06-06T15:50:57Z</time>
      </trkpt>
      <trkpt lat="59.9742853" lon="17.733915">
        <ele>24.651</ele>
        <time>2014-06-06T15:50:58Z</time>
      </trkpt>
      <trkpt lat="59.9742792" lon="17.7340193">
        <ele>24.651</ele>
        <time>2014-06-06T15:50:59Z</time>
      </trkpt>
      <trkpt lat="59.974274" lon="17.7341246">
        <ele>24.651</ele>
        <time>2014-06-06T15:51:00Z</time>
      </trkpt>
      <trkpt lat="59.9742693" lon="17.7342313">
        <ele>25.1317</ele>
        <time>2014-06-06T15:51:01Z</time>
      </trkpt>
      <trkpt lat="59.9742658" lon="17.7343388">
        <ele>25.1317</ele>
        <time>2014-06-06T15:51:02Z</time>
      </trkpt>
      <trkpt lat="59.9742637" lon="17.7344465">
        <ele>25.1317</ele>
        <time>2014-06-06T15:51:03Z</time>
      </trkpt>
      <trkpt lat="59.9742631" lon="17.7345551">
        <ele>25.1317</ele>
        <time>2014-06-06T15:51:04Z</time>
      </trkpt>
      <trkpt lat="59.9742642" lon="17.7346652">
        <ele>25.6123</ele>
        <time>2014-06-06T15:51:05Z</time>
      </trkpt>
      <trkpt lat="59.9742672" lon="17.7347767">
        <ele>25.6123</ele>
        <time>2014-06-06T15:51:06Z</time>
      </trkpt>
      <trkpt lat="59.9742724" lon="17.7348895">
        <ele>25.6123</ele>
        <time>2014-06-06T15:51:07Z</time>
      </trkpt>
      <trkpt lat="59.9742788" lon="17.7350025">
        <ele>25.6123</ele>
        <time>2014-06-06T15:51:08Z</time>
      </trkpt>
      <trkpt lat="59.9742869" lon="17.7351149">
        <ele>26.0929</ele>
        <time>2014-06-06T15:51:09Z</time>
      </trkpt>
      <trkpt lat="59.9742962" lon="17.7352261">
        <ele>26.0929</ele>
        <time>2014-06-06T15:51:10Z</time>
      </trkpt>
      <trkpt lat="59.9743055" lon="17.7353362">
        <ele>26.0929</ele>
        <time>2014-06-06T15:51:11Z</time>
      </trkpt>
      <trkpt lat="59.9743158" lon="17.7354454">
        <ele>26.5736</ele>
        <time>2014-06-06T15:51:12Z</time>
      </trkpt>
      <trkpt lat="59.9743284" lon="17.7355532">
        <ele>26.5736</ele>
        <time>2014-06-06T15:51:13Z</time>
      </trkpt>
      <trkpt lat="59.9743428" lon="17.7356599">
        <ele>26.5736</ele>
        <time>2014-06-06T15:51:14Z</time>
      </trkpt>
      <trkpt lat="59.9743589" lon="17.7357661">
        <ele>27.0543</ele>
        <time>2014-06-06T15:51:15Z</time>
      </trkpt>
      <trkpt lat="59.9743769" lon="17.7358713">
        <ele>27.0543</ele>
        <time>2014-06-06T15:51:16Z</time>
      </trkpt>
      <trkpt lat="59.9743962" lon="17.7359769">
        <ele>27.0543</ele>
        <time>2014-06-06T15:51:17Z</time>
      </trkpt>
      <trkpt lat="59.9744165" lon="17.7360831">
        <ele>27.0543</ele>
        <time>2014-06-06T15:51:18Z</time>
      </trkpt>
      <trkpt lat="59.9744382" lon="17.7361888">
        <ele>27.0543</ele>
        <time>2014-06-06T15:51:19Z</time>
      </trkpt>
      <trkpt lat="59.9744614" lon="17.7362943">
        <ele>27.0543</ele>
        <time>2014-06-06T15:51:20Z</time>
      </trkpt>
      <trkpt lat="59.9744864" lon="17.7364001">
        <ele>27.0543</ele>
        <time>2014-06-06T15:51:21Z</time>
      </trkpt>
      <trkpt lat="59.9745128" lon="17.7365068">
        <ele>27.0543</ele>
        <time>2014-06-06T15:51:22Z</time>
      </trkpt>
      <trkpt lat="59.9745418" lon="17.7366136">
        <ele>27.0543</ele>
        <time>2014-06-06T15:51:23Z</time>
      </trkpt>
      <trkpt lat="59.9745729" lon="17.7367197">
        <ele>27.5349</ele>
        <time>2014-06-06T15:51:24Z</time>
      </trkpt>
      <trkpt lat="59.9746055" lon="17.7368242">
        <ele>27.0543</ele>
        <time>2014-06-06T15:51:25Z</time>
      </trkpt>
      <trkpt lat="59.9746397" lon="17.7369272">
        <ele>27.5349</ele>
        <time>2014-06-06T15:51:26Z</time>
      </trkpt>
      <trkpt lat="59.9746754" lon="17.7370284">
        <ele>27.5349</ele>
        <time>2014-06-06T15:51:27Z</time>
      </trkpt>
      <trkpt lat="59.9747126" lon="17.7371278">
        <ele>27.5349</ele>
        <time>2014-06-06T15:51:28Z</time>
      </trkpt>
      <trkpt lat="59.9747506" lon="17.7372248">
        <ele>27.5349</ele>
        <time>2014-06-06T15:51:29Z</time>
      </trkpt>
      <trkpt lat="59.9747899" lon="17.7373191">
        <ele>27.5349</ele>
        <time>2014-06-06T15:51:30Z</time>
      </trkpt>
      <trkpt lat="59.9748303" lon="17.7374113">
        <ele>27.5349</ele>
        <time>2014-06-06T15:51:31Z</time>
      </trkpt>
      <trkpt lat="59.9748714" lon="17.7375008">
        <ele>27.5349</ele>
        <time>2014-06-06T15:51:32Z</time>
      </trkpt>
      <trkpt lat="59.9749141" lon="17.7375863">
        <ele>28.0155</ele>
        <time>2014-06-06T15:51:33Z</time>
      </trkpt>
      <trkpt lat="59.9749581" lon="17.7376683">
        <ele>28.0155</ele>
        <time>2014-06-06T15:51:34Z</time>
      </trkpt>
      <trkpt lat="59.9750027" lon="17.73775">
        <ele>28.0155</ele>
        <time>2014-06-06T15:51:35Z</time>
      </trkpt>
      <trkpt lat="59.9750461" lon="17.7378302">
        <ele>28.0155</ele>
        <time>2014-06-06T15:51:36Z</time>
      </trkpt>
      <trkpt lat="59.9750889" lon="17.7379096">
        <ele>28.0155</ele>
        <time>2014-06-06T15:51:37Z</time>
      </trkpt>
      <trkpt lat="59.9751323" lon="17.7379826">
        <ele>28.0155</ele>
        <time>2014-06-06T15:51:38Z</time>
      </trkpt>
      <trkpt lat="59.9751754" lon="17.7380515">
        <ele>28.0155</ele>
        <time>2014-06-06T15:51:39Z</time>
      </trkpt>
      <trkpt lat="59.9752179" lon="17.7381194">
        <ele>28.0155</ele>
        <time>2014-06-06T15:51:40Z</time>
      </trkpt>
      <trkpt lat="59.9752598" lon="17.7381903">
        <ele>28.0155</ele>
        <time>2014-06-06T15:51:41Z</time>
      </trkpt>
      <trkpt lat="59.9753022" lon="17.7382629">
        <ele>28.0155</ele>
        <time>2014-06-06T15:51:42Z</time>
      </trkpt>
      <trkpt lat="59.9753445" lon="17.7383376">
        <ele>28.0155</ele>
        <time>2014-06-06T15:51:43Z</time>
      </trkpt>
      <trkpt lat="59.9753871" lon="17.7384145">
        <ele>28.0155</ele>
        <time>2014-06-06T15:51:44Z</time>
      </trkpt>
      <trkpt lat="59.97543" lon="17.7384917">
        <ele>28.0155</ele>
        <time>2014-06-06T15:51:45Z</time>
      </trkpt>
      <trkpt lat="59.9754738" lon="17.7385679">
        <ele>28.0155</ele>
        <time>2014-06-06T15:51:46Z</time>
      </trkpt>
      <trkpt lat="59.9755188" lon="17.7386421">
        <ele>28.0155</ele>
        <time>2014-06-06T15:51:47Z</time>
      </trkpt>
      <trkpt lat="59.9755638" lon="17.7387177">
        <ele>28.0155</ele>
        <time>2014-06-06T15:51:48Z</time>
      </trkpt>
      <trkpt lat="59.9756084" lon="17.7387953">
        <ele>28.0155</ele>
        <time>2014-06-06T15:51:49Z</time>
      </trkpt>
      <trkpt lat="59.9756534" lon="17.738871">
        <ele>28.0155</ele>
        <time>2014-06-06T15:51:50Z</time>
      </trkpt>
      <trkpt lat="59.9756979" lon="17.7389454">
        <ele>28.0155</ele>
        <time>2014-06-06T15:51:51Z</time>
      </trkpt>
      <trkpt lat="59.975742" lon="17.7390187">
        <ele>28.4962</ele>
        <time>2014-06-06T15:51:52Z</time>
      </trkpt>
      <trkpt lat="59.9757854" lon="17.7390907">
        <ele>28.4962</ele>
        <time>2014-06-06T15:51:53Z</time>
      </trkpt>
      <trkpt lat="59.975828" lon="17.7391612">
        <ele>28.4962</ele>
        <time>2014-06-06T15:51:54Z</time>
      </trkpt>
      <trkpt lat="59.9758701" lon="17.7392308">
        <ele>28.4962</ele>
        <time>2014-06-06T15:51:55Z</time>
      </trkpt>
      <trkpt lat="59.9759119" lon="17.7392994">
        <ele>28.4962</ele>
        <time>2014-06-06T15:51:56Z</time>
      </trkpt>
      <trkpt lat="59.9759527" lon="17.7393674">
        <ele>28.4962</ele>
        <time>2014-06-06T15:51:57Z</time>
      </trkpt>
      <trkpt lat="59.9759925" lon="17.7394331">
        <ele>28.4962</ele>
        <time>2014-06-06T15:51:58Z</time>
      </trkpt>
      <trkpt lat="59.9760304" lon="17.7394952">
        <ele>28.9769</ele>
        <time>2014-06-06T15:51:59Z</time>
      </trkpt>
      <trkpt lat="59.9760651" lon="17.7395532">
        <ele>29.4575</ele>
        <time>2014-06-06T15:52:00Z</time>
      </trkpt>
      <trkpt lat="59.9760977" lon="17.739605">
        <ele>29.9381</ele>
        <time>2014-06-06T15:52:01Z</time>
      </trkpt>
      <trkpt lat="59.9761285" lon="17.7396486">
        <ele>30.4188</ele>
        <time>2014-06-06T15:52:02Z</time>
      </trkpt>
      <trkpt lat="59.9761575" lon="17.7396874">
        <ele>30.4188</ele>
        <time>2014-06-06T15:52:03Z</time>
      </trkpt>
      <trkpt lat="59.976186" lon="17.739717">
        <ele>30.8995</ele>
        <time>2014-06-06T15:52:04Z</time>
      </trkpt>
      <trkpt lat="59.9762164" lon="17.7397351">
        <ele>31.3801</ele>
        <time>2014-06-06T15:52:05Z</time>
      </trkpt>
      <trkpt lat="59.9762481" lon="17.7397455">
        <ele>31.3801</ele>
        <time>2014-06-06T15:52:06Z</time>
      </trkpt>
      <trkpt lat="59.9762812" lon="17.7397533">
        <ele>31.8607</ele>
        <time>2014-06-06T15:52:07Z</time>
      </trkpt>
      <trkpt lat="59.9763149" lon="17.7397563">
        <ele>31.8607</ele>
        <time>2014-06-06T15:52:08Z</time>
      </trkpt>
      <trkpt lat="59.9763497" lon="17.7397489">
        <ele>31.8607</ele>
        <time>2014-06-06T15:52:09Z</time>
      </trkpt>
      <trkpt lat="59.9763849" lon="17.7397287">
        <ele>31.8607</ele>
        <time>2014-06-06T15:52:10Z</time>
      </trkpt>
      <trkpt lat="59.9764206" lon="17.7396967">
        <ele>31.8607</ele>
        <time>2014-06-06T15:52:11Z</time>
      </trkpt>
      <trkpt lat="59.9764564" lon="17.7396568">
        <ele>31.8607</ele>
        <time>2014-06-06T15:52:12Z</time>
      </trkpt>
      <trkpt lat="59.9764926" lon="17.7396176">
        <ele>31.8607</ele>
        <time>2014-06-06T15:52:13Z</time>
      </trkpt>
      <trkpt lat="59.9765325" lon="17.7395821">
        <ele>31.8607</ele>
        <time>2014-06-06T15:52:14Z</time>
      </trkpt>
      <trkpt lat="59.9765732" lon="17.7395448">
        <ele>31.8607</ele>
        <time>2014-06-06T15:52:15Z</time>
      </trkpt>
      <trkpt lat="59.9766123" lon="17.7395075">
        <ele>31.8607</ele>
        <time>2014-06-06T15:52:16Z</time>
      </trkpt>
      <trkpt lat="59.9766521" lon="17.739473">
        <ele>31.3801</ele>
        <time>2014-06-06T15:52:17Z</time>
      </trkpt>
      <trkpt lat="59.976691" lon="17.7394433">
        <ele>31.3801</ele>
        <time>2014-06-06T15:52:18Z</time>
      </trkpt>
      <trkpt lat="59.9767308" lon="17.7394175">
        <ele>31.3801</ele>
        <time>2014-06-06T15:52:19Z</time>
      </trkpt>
      <trkpt lat="59.9767713" lon="17.7393914">
        <ele>31.8607</ele>
        <time>2014-06-06T15:52:20Z</time>
      </trkpt>
      <trkpt lat="59.9768092" lon="17.7393688">
        <ele>31.8607</ele>
        <time>2014-06-06T15:52:21Z</time>
      </trkpt>
      <trkpt lat="59.9768474" lon="17.7393508">
        <ele>31.8607</ele>
        <time>2014-06-06T15:52:22Z</time>
      </trkpt>
      <trkpt lat="59.9768871" lon="17.7393329">
        <ele>32.3416</ele>
        <time>2014-06-06T15:52:23Z</time>
      </trkpt>
      <trkpt lat="59.9769256" lon="17.739317">
        <ele>32.3416</ele>
        <time>2014-06-06T15:52:24Z</time>
      </trkpt>
      <trkpt lat="59.9769675" lon="17.7393039">
        <ele>32.3416</ele>
        <time>2014-06-06T15:52:25Z</time>
      </trkpt>
      <trkpt lat="59.9770083" lon="17.739287">
        <ele>32.8223</ele>
        <time>2014-06-06T15:52:26Z</time>
      </trkpt>
      <trkpt lat="59.9770504" lon="17.7392702">
        <ele>32.8223</ele>
        <time>2014-06-06T15:52:27Z</time>
      </trkpt>
      <trkpt lat="59.9770938" lon="17.7392537">
        <ele>33.3029</ele>
        <time>2014-06-06T15:52:28Z</time>
      </trkpt>
      <trkpt lat="59.9771368" lon="17.7392348">
        <ele>33.3029</ele>
        <time>2014-06-06T15:52:29Z</time>
      </trkpt>
      <trkpt lat="59.9771795" lon="17.7392139">
        <ele>33.3029</ele>
        <time>2014-06-06T15:52:30Z</time>
      </trkpt>
      <trkpt lat="59.9772215" lon="17.7391917">
        <ele>33.7834</ele>
        <time>2014-06-06T15:52:31Z</time>
      </trkpt>
      <trkpt lat="59.9772632" lon="17.739169">
        <ele>33.7834</ele>
        <time>2014-06-06T15:52:32Z</time>
      </trkpt>
      <trkpt lat="59.9773045" lon="17.7391467">
        <ele>33.7834</ele>
        <time>2014-06-06T15:52:33Z</time>
      </trkpt>
      <trkpt lat="59.9773487" lon="17.7391269">
        <ele>33.7834</ele>
        <time>2014-06-06T15:52:34Z</time>
      </trkpt>
      <trkpt lat="59.9773941" lon="17.7391084">
        <ele>34.2642</ele>
        <time>2014-06-06T15:52:35Z</time>
      </trkpt>
      <trkpt lat="59.9774406" lon="17.739091">
        <ele>34.2642</ele>
        <time>2014-06-06T15:52:36Z</time>
      </trkpt>
      <trkpt lat="59.9774854" lon="17.739075">
        <ele>34.7449</ele>
        <time>2014-06-06T15:52:37Z</time>
      </trkpt>
      <trkpt lat="59.97753" lon="17.7390611">
        <ele>35.2255</ele>
        <time>2014-06-06T15:52:38Z</time>
      </trkpt>
      <trkpt lat="59.9775742" lon="17.7390521">
        <ele>35.2255</ele>
        <time>2014-06-06T15:52:39Z</time>
      </trkpt>
      <trkpt lat="59.9776191" lon="17.7390492">
        <ele>35.7061</ele>
        <time>2014-06-06T15:52:40Z</time>
      </trkpt>
      <trkpt lat="59.9776644" lon="17.7390502">
        <ele>36.1868</ele>
        <time>2014-06-06T15:52:41Z</time>
      </trkpt>
      <trkpt lat="59.9777095" lon="17.7390568">
        <ele>36.1868</ele>
        <time>2014-06-06T15:52:42Z</time>
      </trkpt>
      <trkpt lat="59.9777548" lon="17.7390687">
        <ele>36.6675</ele>
        <time>2014-06-06T15:52:43Z</time>
      </trkpt>
      <trkpt lat="59.9778001" lon="17.7390839">
        <ele>37.1481</ele>
        <time>2014-06-06T15:52:44Z</time>
      </trkpt>
      <trkpt lat="59.9778447" lon="17.7391031">
        <ele>37.6287</ele>
        <time>2014-06-06T15:52:45Z</time>
      </trkpt>
      <trkpt lat="59.9778886" lon="17.7391247">
        <ele>38.1094</ele>
        <time>2014-06-06T15:52:46Z</time>
      </trkpt>
      <trkpt lat="59.9779318" lon="17.7391457">
        <ele>38.1094</ele>
        <time>2014-06-06T15:52:47Z</time>
      </trkpt>
      <trkpt lat="59.9779735" lon="17.7391692">
        <ele>38.5901</ele>
        <time>2014-06-06T15:52:48Z</time>
      </trkpt>
      <trkpt lat="59.978013" lon="17.7391948">
        <ele>38.5901</ele>
        <time>2014-06-06T15:52:49Z</time>
      </trkpt>
      <trkpt lat="59.9780554" lon="17.7392194">
        <ele>39.0707</ele>
        <time>2014-06-06T15:52:50Z</time>
      </trkpt>
      <trkpt lat="59.9780969" lon="17.7392397">
        <ele>39.0707</ele>
        <time>2014-06-06T15:52:51Z</time>
      </trkpt>
      <trkpt lat="59.9781389" lon="17.7392564">
        <ele>39.5513</ele>
        <time>2014-06-06T15:52:52Z</time>
      </trkpt>
      <trkpt lat="59.9781787" lon="17.7392683">
        <ele>39.0707</ele>
        <time>2014-06-06T15:52:53Z</time>
      </trkpt>
      <trkpt lat="59.9782213" lon="17.7392806">
        <ele>39.0707</ele>
        <time>2014-06-06T15:52:54Z</time>
      </trkpt>
      <trkpt lat="59.9782654" lon="17.7392904">
        <ele>39.0707</ele>
        <time>2014-06-06T15:52:55Z</time>
      </trkpt>
      <trkpt lat="59.9783093" lon="17.7393016">
        <ele>39.0707</ele>
        <time>2014-06-06T15:52:56Z</time>
      </trkpt>
      <trkpt lat="59.9783533" lon="17.7393142">
        <ele>39.0707</ele>
        <time>2014-06-06T15:52:57Z</time>
      </trkpt>
      <trkpt lat="59.9784004" lon="17.7393246">
        <ele>39.0707</ele>
        <time>2014-06-06T15:52:58Z</time>
      </trkpt>
      <trkpt lat="59.9784484" lon="17.739334">
        <ele>39.0707</ele>
        <time>2014-06-06T15:52:59Z</time>
      </trkpt>
      <trkpt lat="59.9784942" lon="17.7393407">
        <ele>39.0707</ele>
        <time>2014-06-06T15:53:00Z</time>
      </trkpt>
      <trkpt lat="59.9785384" lon="17.7393446">
        <ele>38.1094</ele>
        <time>2014-06-06T15:53:01Z</time>
      </trkpt>
      <trkpt lat="59.9785852" lon="17.7393497">
        <ele>38.1094</ele>
        <time>2014-06-06T15:53:02Z</time>
      </trkpt>
      <trkpt lat="59.9786344" lon="17.7393564">
        <ele>37.6287</ele>
        <time>2014-06-06T15:53:03Z</time>
      </trkpt>
      <trkpt lat="59.9786838" lon="17.7393641">
        <ele>37.6287</ele>
        <time>2014-06-06T15:53:04Z</time>
      </trkpt>
      <trkpt lat="59.9787307" lon="17.7393699">
        <ele>37.6287</ele>
        <time>2014-06-06T15:53:05Z</time>
      </trkpt>
      <trkpt lat="59.9787799" lon="17.7393662">
        <ele>37.6287</ele>
        <time>2014-06-06T15:53:06Z</time>
      </trkpt>
      <trkpt lat="59.9788268" lon="17.739361">
        <ele>37.1481</ele>
        <time>2014-06-06T15:53:07Z</time>
      </trkpt>
      <trkpt lat="59.9788714" lon="17.7393734">
        <ele>37.1481</ele>
        <time>2014-06-06T15:53:08Z</time>
      </trkpt>
      <trkpt lat="59.9789096" lon="17.7394129">
        <ele>37.1481</ele>
        <time>2014-06-06T15:53:09Z</time>
      </trkpt>
      <trkpt lat="59.9789421" lon="17.7394729">
        <ele>37.1481</ele>
        <time>2014-06-06T15:53:10Z</time>
      </trkpt>
      <trkpt lat="59.9789672" lon="17.7395439">
        <ele>37.6287</ele>
        <time>2014-06-06T15:53:11Z</time>
      </trkpt>
      <trkpt lat="59.9789844" lon="17.7396167">
        <ele>37.1481</ele>
        <time>2014-06-06T15:53:12Z</time>
      </trkpt>
      <trkpt lat="59.9789925" lon="17.7396849">
        <ele>37.1481</ele>
        <time>2014-06-06T15:53:13Z</time>
      </trkpt>
      <trkpt lat="59.9789905" lon="17.7397396">
        <ele>37.1481</ele>
        <time>2014-06-06T15:53:14Z</time>
      </trkpt>
      <trkpt lat="59.9789816" lon="17.7397727">
        <ele>37.1481</ele>
        <time>2014-06-06T15:53:15Z</time>
      </trkpt>
      <trkpt lat="59.9789775" lon="17.7397883">
        <ele>37.1481</ele>
        <time>2014-06-06T15:53:16Z</time>
      </trkpt>
      <trkpt lat="59.9789765" lon="17.7397935">
        <ele>37.1481</ele>
        <time>2014-06-06T15:53:17Z</time>
      </trkpt>
      <trkpt lat="59.9789745" lon="17.7397972">
        <ele>37.1481</ele>
        <time>2014-06-06T15:53:18Z</time>
      </trkpt>
      <trkpt lat="59.9789644" lon="17.7398012">
        <ele>37.6287</ele>
        <time>2014-06-06T15:53:43Z</time>
      </trkpt>
      <trkpt lat="59.9789703" lon="17.7397614">
        <ele>37.6287</ele>
        <time>2014-06-06T15:53:44Z</time>
      </trkpt>
      <trkpt lat="59.9789846" lon="17.7397338">
        <ele>37.1481</ele>
        <time>2014-06-06T15:53:45Z</time>
      </trkpt>
      <trkpt lat="59.9790003" lon="17.7397173">
        <ele>37.1481</ele>
        <time>2014-06-06T15:53:46Z</time>
      </trkpt>
      <trkpt lat="59.9790174" lon="17.7397095">
        <ele>36.6675</ele>
        <time>2014-06-06T15:53:47Z</time>
      </trkpt>
      <trkpt lat="59.9790371" lon="17.7397159">
        <ele>37.1481</ele>
        <time>2014-06-06T15:53:48Z</time>
      </trkpt>
      <trkpt lat="59.9790542" lon="17.7397351">
        <ele>37.1481</ele>
        <time>2014-06-06T15:53:49Z</time>
      </trkpt>
      <trkpt lat="59.979068" lon="17.7397616">
        <ele>37.1481</ele>
        <time>2014-06-06T15:53:50Z</time>
      </trkpt>
      <trkpt lat="59.979081" lon="17.739792">
        <ele>37.6287</ele>
        <time>2014-06-06T15:53:51Z</time>
      </trkpt>
      <trkpt lat="59.979093" lon="17.7398245">
        <ele>37.6287</ele>
        <time>2014-06-06T15:53:52Z</time>
      </trkpt>
      <trkpt lat="59.9791025" lon="17.7398581">
        <ele>37.6287</ele>
        <time>2014-06-06T15:53:53Z</time>
      </trkpt>
      <trkpt lat="59.9791125" lon="17.7398908">
        <ele>38.1094</ele>
        <time>2014-06-06T15:53:54Z</time>
      </trkpt>
      <trkpt lat="59.9791224" lon="17.7399246">
        <ele>38.1094</ele>
        <time>2014-06-06T15:53:55Z</time>
      </trkpt>
      <trkpt lat="59.9791317" lon="17.739961">
        <ele>38.1094</ele>
        <time>2014-06-06T15:53:56Z</time>
      </trkpt>
      <trkpt lat="59.9791398" lon="17.7399982">
        <ele>38.5901</ele>
        <time>2014-06-06T15:53:57Z</time>
      </trkpt>
      <trkpt lat="59.9791484" lon="17.7400325">
        <ele>38.5901</ele>
        <time>2014-06-06T15:53:58Z</time>
      </trkpt>
      <trkpt lat="59.9791574" lon="17.7400692">
        <ele>38.5901</ele>
        <time>2014-06-06T15:53:59Z</time>
      </trkpt>
      <trkpt lat="59.9791654" lon="17.7401059">
        <ele>39.0707</ele>
        <time>2014-06-06T15:54:00Z</time>
      </trkpt>
      <trkpt lat="59.9791742" lon="17.7401417">
        <ele>39.0707</ele>
        <time>2014-06-06T15:54:01Z</time>
      </trkpt>
      <trkpt lat="59.9791833" lon="17.7401791">
        <ele>39.0707</ele>
        <time>2014-06-06T15:54:02Z</time>
      </trkpt>
      <trkpt lat="59.9791921" lon="17.7402157">
        <ele>39.0707</ele>
        <time>2014-06-06T15:54:03Z</time>
      </trkpt>
      <trkpt lat="59.9791996" lon="17.7402535">
        <ele>39.0707</ele>
        <time>2014-06-06T15:54:04Z</time>
      </trkpt>
      <trkpt lat="59.9792026" lon="17.7402935">
        <ele>39.0707</ele>
        <time>2014-06-06T15:54:05Z</time>
      </trkpt>
      <trkpt lat="59.9791998" lon="17.7403365">
        <ele>39.5513</ele>
        <time>2014-06-06T15:54:06Z</time>
      </trkpt>
      <trkpt lat="59.9791926" lon="17.7403757">
        <ele>39.5513</ele>
        <time>2014-06-06T15:54:07Z</time>
      </trkpt>
      <trkpt lat="59.9791848" lon="17.7404116">
        <ele>39.5513</ele>
        <time>2014-06-06T15:54:08Z</time>
      </trkpt>
      <trkpt lat="59.9791767" lon="17.7404467">
        <ele>39.5513</ele>
        <time>2014-06-06T15:54:09Z</time>
      </trkpt>
      <trkpt lat="59.9791706" lon="17.7404811">
        <ele>39.5513</ele>
        <time>2014-06-06T15:54:10Z</time>
      </trkpt>
      <trkpt lat="59.9791666" lon="17.740517">
        <ele>39.5513</ele>
        <time>2014-06-06T15:54:11Z</time>
      </trkpt>
      <trkpt lat="59.9791636" lon="17.7405495">
        <ele>39.5513</ele>
        <time>2014-06-06T15:54:12Z</time>
      </trkpt>
      <trkpt lat="59.9791625" lon="17.7405805">
        <ele>40.0321</ele>
        <time>2014-06-06T15:54:13Z</time>
      </trkpt>
      <trkpt lat="59.97916" lon="17.740612">
        <ele>40.0321</ele>
        <time>2014-06-06T15:54:14Z</time>
      </trkpt>
      <trkpt lat="59.9791583" lon="17.7406408">
        <ele>40.0321</ele>
        <time>2014-06-06T15:54:15Z</time>
      </trkpt>
      <trkpt lat="59.9791578" lon="17.7406654">
        <ele>40.0321</ele>
        <time>2014-06-06T15:54:16Z</time>
      </trkpt>
      <trkpt lat="59.9791588" lon="17.7406871">
        <ele>40.0321</ele>
        <time>2014-06-06T15:54:17Z</time>
      </trkpt>
      <trkpt lat="59.9791609" lon="17.740711">
        <ele>40.5128</ele>
        <time>2014-06-06T15:54:18Z</time>
      </trkpt>
      <trkpt lat="59.9791635" lon="17.7407308">
        <ele>40.5128</ele>
        <time>2014-06-06T15:54:19Z</time>
      </trkpt>
      <trkpt lat="59.9791656" lon="17.7407363">
        <ele>40.5128</ele>
        <time>2014-06-06T15:54:20Z</time>
      </trkpt>
      <trkpt lat="59.9791653" lon="17.7407364">
        <ele>40.5128</ele>
        <time>2014-06-06T15:54:21Z</time>
      </trkpt>
    </trkseg>
  </trk>
</gpx>